<?xml version='1.0' encoding='UTF-8'?><gpx version="1.1" creator="JPX - https://github.com/jenetics/jpx" xmlns="http://www.topografix.com/GPX/1/1"><trk><trkseg><trkpt lat="43.8575218" lon="11.5685131"><ele>269.0</ele><time>2026-05-02T12:16:43.091Z</time></trkpt><trkpt lat="43.8576825" lon="11.5686352"><ele>269.0</ele><time>2026-05-02T12:16:48.094Z</time></trkpt><trkpt lat="43.8577398" lon="11.568732"><ele>269.0</ele><time>2026-05-02T12:16:50.096Z</time></trkpt><trkpt lat="43.8577971" lon="11.568787"><ele>269.0</ele><time>2026-05-02T12:16:52.097Z</time></trkpt><trkpt lat="43.8578565" lon="11.5688613"><ele>269.0</ele><time>2026-05-02T12:16:55.099Z</time></trkpt><trkpt lat="43.85745" lon="11.568465"><ele>269.0</ele><time>2026-05-02T12:17:40.041Z</time></trkpt><trkpt lat="43.8575417" lon="11.5685117"><ele>269.0</ele><time>2026-05-02T12:18:02.03Z</time></trkpt><trkpt lat="43.8576883" lon="11.5686017"><ele>269.0</ele><time>2026-05-02T12:18:04.041Z</time></trkpt><trkpt lat="43.8577783" lon="11.56864"><ele>269.0</ele><time>2026-05-02T12:18:05.041Z</time></trkpt><trkpt lat="43.8578833" lon="11.568655"><ele>267.4</ele><time>2026-05-02T12:18:06.032Z</time></trkpt><trkpt lat="43.85799" lon="11.5686567"><ele>265.79999999999995</ele><time>2026-05-02T12:18:07.042Z</time></trkpt><trkpt lat="43.8581017" lon="11.5686517"><ele>264.20000000000005</ele><time>2026-05-02T12:18:08.043Z</time></trkpt><trkpt lat="43.8582083" lon="11.568645"><ele>262.6</ele><time>2026-05-02T12:18:09.042Z</time></trkpt><trkpt lat="43.8583117" lon="11.5686217"><ele>261.0</ele><time>2026-05-02T12:18:10.041Z</time></trkpt><trkpt lat="43.85842" lon="11.5685783"><ele>261.0</ele><time>2026-05-02T12:18:11.041Z</time></trkpt><trkpt lat="43.85852" lon="11.5685117"><ele>261.0</ele><time>2026-05-02T12:18:12.042Z</time></trkpt><trkpt lat="43.85861" lon="11.5684333"><ele>261.0</ele><time>2026-05-02T12:18:13.041Z</time></trkpt><trkpt lat="43.8587067" lon="11.5683617"><ele>261.0</ele><time>2026-05-02T12:18:14.042Z</time></trkpt><trkpt lat="43.8588017" lon="11.56829"><ele>261.0</ele><time>2026-05-02T12:18:15.039Z</time></trkpt><trkpt lat="43.858895" lon="11.5682233"><ele>261.0</ele><time>2026-05-02T12:18:16.039Z</time></trkpt><trkpt lat="43.8589867" lon="11.568165"><ele>261.0</ele><time>2026-05-02T12:18:17.04Z</time></trkpt><trkpt lat="43.8590767" lon="11.5681183"><ele>261.0</ele><time>2026-05-02T12:18:18.04Z</time></trkpt><trkpt lat="43.85917" lon="11.5680867"><ele>261.0</ele><time>2026-05-02T12:18:19.04Z</time></trkpt><trkpt lat="43.8592633" lon="11.5680533"><ele>261.0</ele><time>2026-05-02T12:18:20.043Z</time></trkpt><trkpt lat="43.8593467" lon="11.5680383"><ele>261.0</ele><time>2026-05-02T12:18:21.039Z</time></trkpt><trkpt lat="43.8594333" lon="11.5680483"><ele>261.0</ele><time>2026-05-02T12:18:22.04Z</time></trkpt><trkpt lat="43.8595033" lon="11.5680433"><ele>261.0</ele><time>2026-05-02T12:18:23.04Z</time></trkpt><trkpt lat="43.8595617" lon="11.5679583"><ele>261.0</ele><time>2026-05-02T12:18:25.04Z</time></trkpt><trkpt lat="43.8594583" lon="11.5678767"><ele>261.0</ele><time>2026-05-02T12:18:28.041Z</time></trkpt><trkpt lat="43.8593783" lon="11.5678717"><ele>261.0</ele><time>2026-05-02T12:18:29.041Z</time></trkpt><trkpt lat="43.8592583" lon="11.5678667"><ele>261.0</ele><time>2026-05-02T12:18:30.039Z</time></trkpt><trkpt lat="43.85914" lon="11.567865"><ele>261.0</ele><time>2026-05-02T12:18:31.039Z</time></trkpt><trkpt lat="43.8590233" lon="11.5678667"><ele>261.0</ele><time>2026-05-02T12:18:32.041Z</time></trkpt><trkpt lat="43.8589283" lon="11.567865"><ele>261.0</ele><time>2026-05-02T12:18:33.039Z</time></trkpt><trkpt lat="43.8588417" lon="11.5678467"><ele>261.0</ele><time>2026-05-02T12:18:34.04Z</time></trkpt><trkpt lat="43.858795" lon="11.5677833"><ele>257.6666666666667</ele><time>2026-05-02T12:18:35.041Z</time></trkpt><trkpt lat="43.8587667" lon="11.5677033"><ele>254.33333333333331</ele><time>2026-05-02T12:18:36.039Z</time></trkpt><trkpt lat="43.858805" lon="11.5675583"><ele>251.0</ele><time>2026-05-02T12:18:38.041Z</time></trkpt><trkpt lat="43.8588633" lon="11.56752"><ele>247.66666666666666</ele><time>2026-05-02T12:18:39.04Z</time></trkpt><trkpt lat="43.85894" lon="11.5675233"><ele>244.33333333333331</ele><time>2026-05-02T12:18:40.041Z</time></trkpt><trkpt lat="43.8590283" lon="11.5675317"><ele>241.0</ele><time>2026-05-02T12:18:41.041Z</time></trkpt><trkpt lat="43.8591283" lon="11.56754"><ele>241.0</ele><time>2026-05-02T12:18:42.041Z</time></trkpt><trkpt lat="43.8592333" lon="11.5675467"><ele>241.00000000000003</ele><time>2026-05-02T12:18:43.041Z</time></trkpt><trkpt lat="43.8593367" lon="11.5675517"><ele>241.00000000000003</ele><time>2026-05-02T12:18:44.042Z</time></trkpt><trkpt lat="43.8594383" lon="11.567555"><ele>241.0</ele><time>2026-05-02T12:18:45.039Z</time></trkpt><trkpt lat="43.8595333" lon="11.5675417"><ele>241.0</ele><time>2026-05-02T12:18:46.04Z</time></trkpt><trkpt lat="43.8596167" lon="11.5674933"><ele>239.49999999999997</ele><time>2026-05-02T12:18:47.041Z</time></trkpt><trkpt lat="43.8596917" lon="11.5674233"><ele>238.0</ele><time>2026-05-02T12:18:48.039Z</time></trkpt><trkpt lat="43.859765" lon="11.56735"><ele>236.5</ele><time>2026-05-02T12:18:49.04Z</time></trkpt><trkpt lat="43.85984" lon="11.5672883"><ele>235.0</ele><time>2026-05-02T12:18:50.043Z</time></trkpt><trkpt lat="43.8599233" lon="11.5672617"><ele>233.49999999999997</ele><time>2026-05-02T12:18:51.041Z</time></trkpt><trkpt lat="43.860005" lon="11.567255"><ele>232.0</ele><time>2026-05-02T12:18:52.041Z</time></trkpt><trkpt lat="43.8600783" lon="11.567265"><ele>230.16666666666666</ele><time>2026-05-02T12:18:53.04Z</time></trkpt><trkpt lat="43.8601483" lon="11.5672883"><ele>228.33333333333331</ele><time>2026-05-02T12:18:54.04Z</time></trkpt><trkpt lat="43.8602083" lon="11.5673317"><ele>226.5</ele><time>2026-05-02T12:18:55.041Z</time></trkpt><trkpt lat="43.86025" lon="11.5674067"><ele>224.66666666666669</ele><time>2026-05-02T12:18:56.043Z</time></trkpt><trkpt lat="43.8602767" lon="11.56751"><ele>222.83333333333334</ele><time>2026-05-02T12:18:57.039Z</time></trkpt><trkpt lat="43.8603117" lon="11.5676233"><ele>221.0</ele><time>2026-05-02T12:18:58.041Z</time></trkpt><trkpt lat="43.8603417" lon="11.5677417"><ele>221.0</ele><time>2026-05-02T12:18:59.041Z</time></trkpt><trkpt lat="43.860365" lon="11.567855"><ele>221.00000000000003</ele><time>2026-05-02T12:19:00.041Z</time></trkpt><trkpt lat="43.8603867" lon="11.5679567"><ele>221.00000000000003</ele><time>2026-05-02T12:19:01.041Z</time></trkpt><trkpt lat="43.860415" lon="11.56804"><ele>221.0</ele><time>2026-05-02T12:19:02.042Z</time></trkpt><trkpt lat="43.8605033" lon="11.5681367"><ele>221.0</ele><time>2026-05-02T12:19:04.04Z</time></trkpt><trkpt lat="43.86062" lon="11.5681067"><ele>221.0</ele><time>2026-05-02T12:19:06.042Z</time></trkpt><trkpt lat="43.860675" lon="11.567975"><ele>221.00000000000003</ele><time>2026-05-02T12:19:08.043Z</time></trkpt><trkpt lat="43.8606583" lon="11.5678517"><ele>221.00000000000003</ele><time>2026-05-02T12:19:09.041Z</time></trkpt><trkpt lat="43.86064" lon="11.56773"><ele>221.0</ele><time>2026-05-02T12:19:10.037Z</time></trkpt><trkpt lat="43.8606183" lon="11.5675933"><ele>221.0</ele><time>2026-05-02T12:19:11.042Z</time></trkpt><trkpt lat="43.860615" lon="11.5674633"><ele>221.0</ele><time>2026-05-02T12:19:12.041Z</time></trkpt><trkpt lat="43.860625" lon="11.5673283"><ele>221.00000000000003</ele><time>2026-05-02T12:19:13.042Z</time></trkpt><trkpt lat="43.8606467" lon="11.5672017"><ele>221.00000000000003</ele><time>2026-05-02T12:19:14.043Z</time></trkpt><trkpt lat="43.860665" lon="11.5670967"><ele>221.0</ele><time>2026-05-02T12:19:15.042Z</time></trkpt><trkpt lat="43.8606983" lon="11.56695"><ele>221.0</ele><time>2026-05-02T12:19:17.042Z</time></trkpt><trkpt lat="43.8607733" lon="11.5668917"><ele>220.33333333333334</ele><time>2026-05-02T12:19:19.044Z</time></trkpt><trkpt lat="43.8608783" lon="11.5669017"><ele>219.66666666666669</ele><time>2026-05-02T12:19:21.043Z</time></trkpt><trkpt lat="43.8609483" lon="11.5668967"><ele>219.0</ele><time>2026-05-02T12:19:24.041Z</time></trkpt><trkpt lat="43.861" lon="11.5668083"><ele>218.33333333333331</ele><time>2026-05-02T12:19:26.044Z</time></trkpt><trkpt lat="43.8610383" lon="11.56673"><ele>217.66666666666666</ele><time>2026-05-02T12:19:27.042Z</time></trkpt><trkpt lat="43.8610783" lon="11.5666367"><ele>217.0</ele><time>2026-05-02T12:19:28.041Z</time></trkpt><trkpt lat="43.861125" lon="11.5665217"><ele>217.25</ele><time>2026-05-02T12:19:29.041Z</time></trkpt><trkpt lat="43.8611667" lon="11.566385"><ele>217.5</ele><time>2026-05-02T12:19:30.042Z</time></trkpt><trkpt lat="43.8612167" lon="11.5662483"><ele>217.75</ele><time>2026-05-02T12:19:31.041Z</time></trkpt><trkpt lat="43.8612833" lon="11.5661133"><ele>218.0</ele><time>2026-05-02T12:19:32.042Z</time></trkpt><trkpt lat="43.86136" lon="11.5659783"><ele>218.0</ele><time>2026-05-02T12:19:33.042Z</time></trkpt><trkpt lat="43.86145" lon="11.5658483"><ele>218.0</ele><time>2026-05-02T12:19:34.041Z</time></trkpt><trkpt lat="43.8615467" lon="11.565725"><ele>218.0</ele><time>2026-05-02T12:19:35.043Z</time></trkpt><trkpt lat="43.8616517" lon="11.565615"><ele>218.0</ele><time>2026-05-02T12:19:36.04Z</time></trkpt><trkpt lat="43.86176" lon="11.5655117"><ele>216.75</ele><time>2026-05-02T12:19:37.041Z</time></trkpt><trkpt lat="43.8618633" lon="11.56541"><ele>215.5</ele><time>2026-05-02T12:19:38.043Z</time></trkpt><trkpt lat="43.8619683" lon="11.5653133"><ele>214.25</ele><time>2026-05-02T12:19:39.039Z</time></trkpt><trkpt lat="43.8620783" lon="11.56522"><ele>213.0</ele><time>2026-05-02T12:19:40.04Z</time></trkpt><trkpt lat="43.86219" lon="11.565125"><ele>213.0</ele><time>2026-05-02T12:19:41.041Z</time></trkpt><trkpt lat="43.8623" lon="11.5650233"><ele>213.0</ele><time>2026-05-02T12:19:42.04Z</time></trkpt><trkpt lat="43.862415" lon="11.5649183"><ele>213.0</ele><time>2026-05-02T12:19:43.041Z</time></trkpt><trkpt lat="43.862535" lon="11.56481"><ele>213.0</ele><time>2026-05-02T12:19:44.043Z</time></trkpt><trkpt lat="43.8626517" lon="11.564695"><ele>212.5</ele><time>2026-05-02T12:19:45.042Z</time></trkpt><trkpt lat="43.8627683" lon="11.5645783"><ele>212.0</ele><time>2026-05-02T12:19:46.04Z</time></trkpt><trkpt lat="43.8628883" lon="11.5644617"><ele>211.5</ele><time>2026-05-02T12:19:47.04Z</time></trkpt><trkpt lat="43.8630033" lon="11.5643333"><ele>211.0</ele><time>2026-05-02T12:19:48.04Z</time></trkpt><trkpt lat="43.86312" lon="11.5642"><ele>211.0</ele><time>2026-05-02T12:19:49.042Z</time></trkpt><trkpt lat="43.863235" lon="11.5640683"><ele>211.0</ele><time>2026-05-02T12:19:50.042Z</time></trkpt><trkpt lat="43.8633517" lon="11.5639333"><ele>211.0</ele><time>2026-05-02T12:19:51.043Z</time></trkpt><trkpt lat="43.8634617" lon="11.56379"><ele>211.66666666666666</ele><time>2026-05-02T12:19:52.04Z</time></trkpt><trkpt lat="43.8635683" lon="11.5636467"><ele>212.33333333333331</ele><time>2026-05-02T12:19:53.042Z</time></trkpt><trkpt lat="43.8636733" lon="11.5634983"><ele>213.0</ele><time>2026-05-02T12:19:54.042Z</time></trkpt><trkpt lat="43.863775" lon="11.5633417"><ele>213.0</ele><time>2026-05-02T12:19:55.041Z</time></trkpt><trkpt lat="43.863875" lon="11.5631817"><ele>213.0</ele><time>2026-05-02T12:19:56.042Z</time></trkpt><trkpt lat="43.8639733" lon="11.5630233"><ele>213.0</ele><time>2026-05-02T12:19:57.04Z</time></trkpt><trkpt lat="43.8640683" lon="11.5628633"><ele>214.33333333333331</ele><time>2026-05-02T12:19:58.039Z</time></trkpt><trkpt lat="43.8641617" lon="11.5626967"><ele>215.66666666666666</ele><time>2026-05-02T12:19:59.042Z</time></trkpt><trkpt lat="43.8642483" lon="11.562525"><ele>217.0</ele><time>2026-05-02T12:20:00.04Z</time></trkpt><trkpt lat="43.864335" lon="11.5623483"><ele>217.0</ele><time>2026-05-02T12:20:01.04Z</time></trkpt><trkpt lat="43.86442" lon="11.5621717"><ele>217.0</ele><time>2026-05-02T12:20:02.04Z</time></trkpt><trkpt lat="43.8645033" lon="11.5619917"><ele>217.0</ele><time>2026-05-02T12:20:03.039Z</time></trkpt><trkpt lat="43.8645833" lon="11.561815"><ele>214.5</ele><time>2026-05-02T12:20:04.042Z</time></trkpt><trkpt lat="43.8646683" lon="11.5616433"><ele>212.0</ele><time>2026-05-02T12:20:05.043Z</time></trkpt><trkpt lat="43.864755" lon="11.5614733"><ele>209.5</ele><time>2026-05-02T12:20:06.041Z</time></trkpt><trkpt lat="43.8648417" lon="11.5613067"><ele>207.0</ele><time>2026-05-02T12:20:07.042Z</time></trkpt><trkpt lat="43.8649267" lon="11.5611383"><ele>205.0</ele><time>2026-05-02T12:20:08.042Z</time></trkpt><trkpt lat="43.8650083" lon="11.56097"><ele>203.0</ele><time>2026-05-02T12:20:09.04Z</time></trkpt><trkpt lat="43.8650833" lon="11.560805"><ele>201.0</ele><time>2026-05-02T12:20:10.04Z</time></trkpt><trkpt lat="43.8651533" lon="11.56065"><ele>199.0</ele><time>2026-05-02T12:20:11.042Z</time></trkpt><trkpt lat="43.8652217" lon="11.560505"><ele>201.75</ele><time>2026-05-02T12:20:12.041Z</time></trkpt><trkpt lat="43.865285" lon="11.560365"><ele>204.5</ele><time>2026-05-02T12:20:13.043Z</time></trkpt><trkpt lat="43.8653483" lon="11.5602317"><ele>207.25</ele><time>2026-05-02T12:20:14.044Z</time></trkpt><trkpt lat="43.8654133" lon="11.5600967"><ele>210.0</ele><time>2026-05-02T12:20:15.04Z</time></trkpt><trkpt lat="43.86547" lon="11.559955"><ele>210.0</ele><time>2026-05-02T12:20:16.04Z</time></trkpt><trkpt lat="43.8655217" lon="11.559805"><ele>210.0</ele><time>2026-05-02T12:20:17.041Z</time></trkpt><trkpt lat="43.8655667" lon="11.559655"><ele>210.0</ele><time>2026-05-02T12:20:18.042Z</time></trkpt><trkpt lat="43.8656" lon="11.5595017"><ele>210.0</ele><time>2026-05-02T12:20:19.041Z</time></trkpt><trkpt lat="43.86563" lon="11.5593433"><ele>209.25</ele><time>2026-05-02T12:20:20.042Z</time></trkpt><trkpt lat="43.865655" lon="11.5591833"><ele>208.5</ele><time>2026-05-02T12:20:21.04Z</time></trkpt><trkpt lat="43.8656817" lon="11.55902"><ele>207.75</ele><time>2026-05-02T12:20:22.04Z</time></trkpt><trkpt lat="43.8657067" lon="11.5588567"><ele>207.0</ele><time>2026-05-02T12:20:23.04Z</time></trkpt><trkpt lat="43.8657267" lon="11.5587"><ele>207.0</ele><time>2026-05-02T12:20:24.039Z</time></trkpt><trkpt lat="43.8657483" lon="11.5585367"><ele>207.0</ele><time>2026-05-02T12:20:25.04Z</time></trkpt><trkpt lat="43.86577" lon="11.5583683"><ele>207.0</ele><time>2026-05-02T12:20:26.042Z</time></trkpt><trkpt lat="43.8657917" lon="11.5581967"><ele>207.0</ele><time>2026-05-02T12:20:27.04Z</time></trkpt><trkpt lat="43.8658133" lon="11.55802"><ele>205.75</ele><time>2026-05-02T12:20:28.039Z</time></trkpt><trkpt lat="43.86583" lon="11.5578317"><ele>204.5</ele><time>2026-05-02T12:20:29.041Z</time></trkpt><trkpt lat="43.8658467" lon="11.557635"><ele>203.25</ele><time>2026-05-02T12:20:30.039Z</time></trkpt><trkpt lat="43.865865" lon="11.557435"><ele>202.0</ele><time>2026-05-02T12:20:31.041Z</time></trkpt><trkpt lat="43.8658817" lon="11.5572317"><ele>199.0</ele><time>2026-05-02T12:20:32.041Z</time></trkpt><trkpt lat="43.8658983" lon="11.5570233"><ele>196.0</ele><time>2026-05-02T12:20:33.039Z</time></trkpt><trkpt lat="43.8659133" lon="11.55681"><ele>193.0</ele><time>2026-05-02T12:20:34.041Z</time></trkpt><trkpt lat="43.865925" lon="11.556595"><ele>193.0</ele><time>2026-05-02T12:20:35.041Z</time></trkpt><trkpt lat="43.8659417" lon="11.55638"><ele>193.0</ele><time>2026-05-02T12:20:36.04Z</time></trkpt><trkpt lat="43.8659567" lon="11.55616"><ele>193.0</ele><time>2026-05-02T12:20:37.042Z</time></trkpt><trkpt lat="43.8659717" lon="11.5559417"><ele>193.5</ele><time>2026-05-02T12:20:38.042Z</time></trkpt><trkpt lat="43.8659767" lon="11.5557317"><ele>194.0</ele><time>2026-05-02T12:20:39.039Z</time></trkpt><trkpt lat="43.8659667" lon="11.5555333"><ele>194.5</ele><time>2026-05-02T12:20:40.04Z</time></trkpt><trkpt lat="43.865935" lon="11.5553467"><ele>195.0</ele><time>2026-05-02T12:20:41.04Z</time></trkpt><trkpt lat="43.8658667" lon="11.5551683"><ele>195.0</ele><time>2026-05-02T12:20:42.04Z</time></trkpt><trkpt lat="43.8657767" lon="11.555005"><ele>195.0</ele><time>2026-05-02T12:20:43.041Z</time></trkpt><trkpt lat="43.865675" lon="11.5548517"><ele>195.0</ele><time>2026-05-02T12:20:44.042Z</time></trkpt><trkpt lat="43.8655767" lon="11.5546883"><ele>193.75</ele><time>2026-05-02T12:20:45.04Z</time></trkpt><trkpt lat="43.8654983" lon="11.554515"><ele>192.5</ele><time>2026-05-02T12:20:46.041Z</time></trkpt><trkpt lat="43.8654567" lon="11.554325"><ele>191.25</ele><time>2026-05-02T12:20:47.041Z</time></trkpt><trkpt lat="43.8654517" lon="11.5541333"><ele>190.0</ele><time>2026-05-02T12:20:48.04Z</time></trkpt><trkpt lat="43.8654883" lon="11.5539483"><ele>190.0</ele><time>2026-05-02T12:20:49.041Z</time></trkpt><trkpt lat="43.8655433" lon="11.553765"><ele>190.0</ele><time>2026-05-02T12:20:50.043Z</time></trkpt><trkpt lat="43.8656083" lon="11.5535783"><ele>190.0</ele><time>2026-05-02T12:20:51.04Z</time></trkpt><trkpt lat="43.865675" lon="11.553385"><ele>190.0</ele><time>2026-05-02T12:20:52.041Z</time></trkpt><trkpt lat="43.8657417" lon="11.5531817"><ele>188.33333333333334</ele><time>2026-05-02T12:20:53.042Z</time></trkpt><trkpt lat="43.8658033" lon="11.5529683"><ele>186.66666666666666</ele><time>2026-05-02T12:20:54.04Z</time></trkpt><trkpt lat="43.8658617" lon="11.5527467"><ele>185.0</ele><time>2026-05-02T12:20:55.042Z</time></trkpt><trkpt lat="43.865915" lon="11.5525183"><ele>196.33333333333331</ele><time>2026-05-02T12:20:56.042Z</time></trkpt><trkpt lat="43.86596" lon="11.5522883"><ele>207.66666666666666</ele><time>2026-05-02T12:20:57.039Z</time></trkpt><trkpt lat="43.8659867" lon="11.55205"><ele>219.0</ele><time>2026-05-02T12:20:58.04Z</time></trkpt><trkpt lat="43.866005" lon="11.5518117"><ele>219.0</ele><time>2026-05-02T12:20:59.041Z</time></trkpt><trkpt lat="43.8660233" lon="11.551575"><ele>219.0</ele><time>2026-05-02T12:21:00.04Z</time></trkpt><trkpt lat="43.8660417" lon="11.5513433"><ele>219.0</ele><time>2026-05-02T12:21:01.04Z</time></trkpt><trkpt lat="43.86606" lon="11.551115"><ele>216.66666666666669</ele><time>2026-05-02T12:21:02.042Z</time></trkpt><trkpt lat="43.8660683" lon="11.5508933"><ele>214.33333333333334</ele><time>2026-05-02T12:21:03.041Z</time></trkpt><trkpt lat="43.86605" lon="11.5506833"><ele>212.0</ele><time>2026-05-02T12:21:04.041Z</time></trkpt><trkpt lat="43.8660033" lon="11.5504767"><ele>202.0</ele><time>2026-05-02T12:21:05.044Z</time></trkpt><trkpt lat="43.8659333" lon="11.5502783"><ele>192.0</ele><time>2026-05-02T12:21:06.04Z</time></trkpt><trkpt lat="43.8658517" lon="11.5500883"><ele>182.0</ele><time>2026-05-02T12:21:07.041Z</time></trkpt><trkpt lat="43.86576" lon="11.549905"><ele>182.0</ele><time>2026-05-02T12:21:08.042Z</time></trkpt><trkpt lat="43.8656617" lon="11.54973"><ele>182.0</ele><time>2026-05-02T12:21:09.04Z</time></trkpt><trkpt lat="43.8655617" lon="11.5495433"><ele>182.0</ele><time>2026-05-02T12:21:10.041Z</time></trkpt><trkpt lat="43.865465" lon="11.5493533"><ele>186.66666666666666</ele><time>2026-05-02T12:21:11.041Z</time></trkpt><trkpt lat="43.865375" lon="11.5491667"><ele>191.33333333333331</ele><time>2026-05-02T12:21:12.039Z</time></trkpt><trkpt lat="43.8652867" lon="11.5489767"><ele>196.0</ele><time>2026-05-02T12:21:13.042Z</time></trkpt><trkpt lat="43.8652083" lon="11.5487833"><ele>196.33333333333331</ele><time>2026-05-02T12:21:14.042Z</time></trkpt><trkpt lat="43.8651417" lon="11.5485867"><ele>196.66666666666669</ele><time>2026-05-02T12:21:15.039Z</time></trkpt><trkpt lat="43.865085" lon="11.54839"><ele>197.0</ele><time>2026-05-02T12:21:16.04Z</time></trkpt><trkpt lat="43.8650517" lon="11.54819"><ele>191.75</ele><time>2026-05-02T12:21:17.043Z</time></trkpt><trkpt lat="43.8650267" lon="11.54799"><ele>186.5</ele><time>2026-05-02T12:21:18.04Z</time></trkpt><trkpt lat="43.8650067" lon="11.5477867"><ele>181.25</ele><time>2026-05-02T12:21:19.042Z</time></trkpt><trkpt lat="43.864985" lon="11.5475817"><ele>176.0</ele><time>2026-05-02T12:21:20.042Z</time></trkpt><trkpt lat="43.8649633" lon="11.547375"><ele>176.0</ele><time>2026-05-02T12:21:21.04Z</time></trkpt><trkpt lat="43.8649433" lon="11.5471667"><ele>176.0</ele><time>2026-05-02T12:21:22.04Z</time></trkpt><trkpt lat="43.864925" lon="11.5469567"><ele>176.0</ele><time>2026-05-02T12:21:23.043Z</time></trkpt><trkpt lat="43.864905" lon="11.5467417"><ele>176.0</ele><time>2026-05-02T12:21:24.04Z</time></trkpt><trkpt lat="43.8648883" lon="11.5465267"><ele>176.0</ele><time>2026-05-02T12:21:25.042Z</time></trkpt><trkpt lat="43.8648733" lon="11.5463117"><ele>176.0</ele><time>2026-05-02T12:21:26.043Z</time></trkpt><trkpt lat="43.8648583" lon="11.546095"><ele>176.33333333333331</ele><time>2026-05-02T12:21:27.04Z</time></trkpt><trkpt lat="43.8648417" lon="11.5458733"><ele>176.66666666666666</ele><time>2026-05-02T12:21:28.041Z</time></trkpt><trkpt lat="43.8648267" lon="11.5456483"><ele>177.0</ele><time>2026-05-02T12:21:29.041Z</time></trkpt><trkpt lat="43.864805" lon="11.545425"><ele>177.66666666666666</ele><time>2026-05-02T12:21:30.04Z</time></trkpt><trkpt lat="43.864785" lon="11.5452017"><ele>178.33333333333331</ele><time>2026-05-02T12:21:31.04Z</time></trkpt><trkpt lat="43.8647583" lon="11.544975"><ele>179.0</ele><time>2026-05-02T12:21:32.042Z</time></trkpt><trkpt lat="43.864725" lon="11.5447467"><ele>180.0</ele><time>2026-05-02T12:21:33.039Z</time></trkpt><trkpt lat="43.8646883" lon="11.5445183"><ele>181.0</ele><time>2026-05-02T12:21:34.04Z</time></trkpt><trkpt lat="43.8646517" lon="11.5442883"><ele>182.0</ele><time>2026-05-02T12:21:35.043Z</time></trkpt><trkpt lat="43.8646183" lon="11.54406"><ele>182.0</ele><time>2026-05-02T12:21:36.042Z</time></trkpt><trkpt lat="43.864585" lon="11.5438283"><ele>182.0</ele><time>2026-05-02T12:21:37.042Z</time></trkpt><trkpt lat="43.8645567" lon="11.5436"><ele>182.0</ele><time>2026-05-02T12:21:38.042Z</time></trkpt><trkpt lat="43.8645283" lon="11.5433783"><ele>183.25</ele><time>2026-05-02T12:21:39.04Z</time></trkpt><trkpt lat="43.864505" lon="11.5431633"><ele>184.5</ele><time>2026-05-02T12:21:40.04Z</time></trkpt><trkpt lat="43.8644667" lon="11.54297"><ele>185.75</ele><time>2026-05-02T12:21:41.042Z</time></trkpt><trkpt lat="43.86439" lon="11.542805"><ele>187.0</ele><time>2026-05-02T12:21:42.04Z</time></trkpt><trkpt lat="43.86429" lon="11.5426683"><ele>182.0</ele><time>2026-05-02T12:21:43.04Z</time></trkpt><trkpt lat="43.8641783" lon="11.5425483"><ele>177.0</ele><time>2026-05-02T12:21:44.042Z</time></trkpt><trkpt lat="43.8640683" lon="11.54243"><ele>172.0</ele><time>2026-05-02T12:21:45.04Z</time></trkpt><trkpt lat="43.8639767" lon="11.5423017"><ele>167.0</ele><time>2026-05-02T12:21:46.041Z</time></trkpt><trkpt lat="43.8639133" lon="11.5421467"><ele>168.5</ele><time>2026-05-02T12:21:47.041Z</time></trkpt><trkpt lat="43.8638767" lon="11.5419733"><ele>170.0</ele><time>2026-05-02T12:21:48.039Z</time></trkpt><trkpt lat="43.8638567" lon="11.5417817"><ele>171.5</ele><time>2026-05-02T12:21:49.042Z</time></trkpt><trkpt lat="43.863855" lon="11.5415833"><ele>173.0</ele><time>2026-05-02T12:21:50.042Z</time></trkpt><trkpt lat="43.86386" lon="11.5413783"><ele>172.33333333333331</ele><time>2026-05-02T12:21:51.04Z</time></trkpt><trkpt lat="43.8638617" lon="11.5411667"><ele>171.66666666666666</ele><time>2026-05-02T12:21:52.04Z</time></trkpt><trkpt lat="43.8638667" lon="11.54095"><ele>171.0</ele><time>2026-05-02T12:21:53.041Z</time></trkpt><trkpt lat="43.86387" lon="11.5407267"><ele>171.0</ele><time>2026-05-02T12:21:54.042Z</time></trkpt><trkpt lat="43.8638733" lon="11.5405017"><ele>171.0</ele><time>2026-05-02T12:21:55.042Z</time></trkpt><trkpt lat="43.8638733" lon="11.5402817"><ele>171.0</ele><time>2026-05-02T12:21:56.043Z</time></trkpt><trkpt lat="43.8638483" lon="11.5400667"><ele>170.66666666666666</ele><time>2026-05-02T12:21:57.039Z</time></trkpt><trkpt lat="43.8638" lon="11.5398617"><ele>170.33333333333331</ele><time>2026-05-02T12:21:58.039Z</time></trkpt><trkpt lat="43.8637417" lon="11.5396683"><ele>170.0</ele><time>2026-05-02T12:21:59.041Z</time></trkpt><trkpt lat="43.8636783" lon="11.53948"><ele>170.0</ele><time>2026-05-02T12:22:00.041Z</time></trkpt><trkpt lat="43.863615" lon="11.53929"><ele>170.0</ele><time>2026-05-02T12:22:01.04Z</time></trkpt><trkpt lat="43.86356" lon="11.5390983"><ele>170.0</ele><time>2026-05-02T12:22:02.043Z</time></trkpt><trkpt lat="43.86351" lon="11.538905"><ele>170.0</ele><time>2026-05-02T12:22:03.039Z</time></trkpt><trkpt lat="43.8635033" lon="11.5387067"><ele>169.5</ele><time>2026-05-02T12:22:04.041Z</time></trkpt><trkpt lat="43.8635217" lon="11.5385067"><ele>169.0</ele><time>2026-05-02T12:22:05.041Z</time></trkpt><trkpt lat="43.8635533" lon="11.538305"><ele>168.5</ele><time>2026-05-02T12:22:06.04Z</time></trkpt><trkpt lat="43.8635833" lon="11.5380967"><ele>168.0</ele><time>2026-05-02T12:22:07.042Z</time></trkpt><trkpt lat="43.8636117" lon="11.5378833"><ele>167.33333333333334</ele><time>2026-05-02T12:22:08.043Z</time></trkpt><trkpt lat="43.8636367" lon="11.53767"><ele>166.66666666666669</ele><time>2026-05-02T12:22:09.039Z</time></trkpt><trkpt lat="43.8636517" lon="11.53746"><ele>166.0</ele><time>2026-05-02T12:22:10.042Z</time></trkpt><trkpt lat="43.8636417" lon="11.5372483"><ele>166.0</ele><time>2026-05-02T12:22:11.043Z</time></trkpt><trkpt lat="43.8636167" lon="11.5370383"><ele>166.0</ele><time>2026-05-02T12:22:12.041Z</time></trkpt><trkpt lat="43.86358" lon="11.53683"><ele>166.0</ele><time>2026-05-02T12:22:13.041Z</time></trkpt><trkpt lat="43.86354" lon="11.5366183"><ele>166.0</ele><time>2026-05-02T12:22:14.043Z</time></trkpt><trkpt lat="43.8635" lon="11.5364083"><ele>166.0</ele><time>2026-05-02T12:22:15.044Z</time></trkpt><trkpt lat="43.8634617" lon="11.5361967"><ele>166.0</ele><time>2026-05-02T12:22:16.041Z</time></trkpt><trkpt lat="43.863435" lon="11.53598"><ele>160.33333333333334</ele><time>2026-05-02T12:22:17.043Z</time></trkpt><trkpt lat="43.8634167" lon="11.5357633"><ele>154.66666666666666</ele><time>2026-05-02T12:22:18.041Z</time></trkpt><trkpt lat="43.8634267" lon="11.53555"><ele>149.0</ele><time>2026-05-02T12:22:19.043Z</time></trkpt><trkpt lat="43.8634467" lon="11.53534"><ele>153.66666666666666</ele><time>2026-05-02T12:22:20.043Z</time></trkpt><trkpt lat="43.8634683" lon="11.5351283"><ele>158.33333333333334</ele><time>2026-05-02T12:22:21.04Z</time></trkpt><trkpt lat="43.8634883" lon="11.5349167"><ele>163.0</ele><time>2026-05-02T12:22:22.04Z</time></trkpt><trkpt lat="43.8635033" lon="11.5347033"><ele>163.0</ele><time>2026-05-02T12:22:23.042Z</time></trkpt><trkpt lat="43.8635183" lon="11.53449"><ele>163.0</ele><time>2026-05-02T12:22:24.041Z</time></trkpt><trkpt lat="43.8635117" lon="11.534275"><ele>163.0</ele><time>2026-05-02T12:22:25.042Z</time></trkpt><trkpt lat="43.8634867" lon="11.534065"><ele>163.0</ele><time>2026-05-02T12:22:26.042Z</time></trkpt><trkpt lat="43.863455" lon="11.53386"><ele>163.0</ele><time>2026-05-02T12:22:27.04Z</time></trkpt><trkpt lat="43.863425" lon="11.5336583"><ele>163.0</ele><time>2026-05-02T12:22:28.042Z</time></trkpt><trkpt lat="43.8633967" lon="11.5334667"><ele>163.0</ele><time>2026-05-02T12:22:29.042Z</time></trkpt><trkpt lat="43.8633717" lon="11.533285"><ele>158.25</ele><time>2026-05-02T12:22:30.04Z</time></trkpt><trkpt lat="43.86335" lon="11.5331117"><ele>153.5</ele><time>2026-05-02T12:22:31.042Z</time></trkpt><trkpt lat="43.8633267" lon="11.5329483"><ele>148.75</ele><time>2026-05-02T12:22:32.043Z</time></trkpt><trkpt lat="43.8633067" lon="11.5327883"><ele>144.0</ele><time>2026-05-02T12:22:33.041Z</time></trkpt><trkpt lat="43.8632867" lon="11.5326367"><ele>144.0</ele><time>2026-05-02T12:22:34.042Z</time></trkpt><trkpt lat="43.863265" lon="11.5325"><ele>144.0</ele><time>2026-05-02T12:22:35.044Z</time></trkpt><trkpt lat="43.863245" lon="11.5323767"><ele>144.0</ele><time>2026-05-02T12:22:36.04Z</time></trkpt><trkpt lat="43.8632333" lon="11.5322583"><ele>144.0</ele><time>2026-05-02T12:22:37.043Z</time></trkpt><trkpt lat="43.86322" lon="11.5321167"><ele>144.0</ele><time>2026-05-02T12:22:38.043Z</time></trkpt><trkpt lat="43.863205" lon="11.5319733"><ele>143.83333333333334</ele><time>2026-05-02T12:22:39.041Z</time></trkpt><trkpt lat="43.8631933" lon="11.5318367"><ele>143.66666666666666</ele><time>2026-05-02T12:22:40.042Z</time></trkpt><trkpt lat="43.8631767" lon="11.5317117"><ele>143.5</ele><time>2026-05-02T12:22:41.042Z</time></trkpt><trkpt lat="43.8631583" lon="11.531595"><ele>143.33333333333331</ele><time>2026-05-02T12:22:42.041Z</time></trkpt><trkpt lat="43.8631417" lon="11.5314967"><ele>143.16666666666666</ele><time>2026-05-02T12:22:43.044Z</time></trkpt><trkpt lat="43.8631217" lon="11.5313617"><ele>143.0</ele><time>2026-05-02T12:22:45.042Z</time></trkpt><trkpt lat="43.86312" lon="11.5312733"><ele>142.5</ele><time>2026-05-02T12:22:48.041Z</time></trkpt><trkpt lat="43.8631183" lon="11.531145"><ele>142.0</ele><time>2026-05-02T12:22:53.032Z</time></trkpt><trkpt lat="43.8630333" lon="11.5311"><ele>141.5</ele><time>2026-05-02T12:22:55.043Z</time></trkpt><trkpt lat="43.8629683" lon="11.5311017"><ele>141.0</ele><time>2026-05-02T12:22:56.043Z</time></trkpt><trkpt lat="43.8628883" lon="11.5311017"><ele>140.5</ele><time>2026-05-02T12:22:57.041Z</time></trkpt><trkpt lat="43.8627917" lon="11.5310933"><ele>140.0</ele><time>2026-05-02T12:22:58.041Z</time></trkpt><trkpt lat="43.8626867" lon="11.5310817"><ele>140.25</ele><time>2026-05-02T12:22:59.043Z</time></trkpt><trkpt lat="43.8625733" lon="11.53107"><ele>140.5</ele><time>2026-05-02T12:23:00.042Z</time></trkpt><trkpt lat="43.8624533" lon="11.53105"><ele>140.75</ele><time>2026-05-02T12:23:01.041Z</time></trkpt><trkpt lat="43.8623317" lon="11.5310183"><ele>141.0</ele><time>2026-05-02T12:23:02.042Z</time></trkpt><trkpt lat="43.8622067" lon="11.5309833"><ele>141.0</ele><time>2026-05-02T12:23:03.04Z</time></trkpt><trkpt lat="43.8620833" lon="11.5309383"><ele>141.0</ele><time>2026-05-02T12:23:04.041Z</time></trkpt><trkpt lat="43.8619667" lon="11.530885"><ele>141.0</ele><time>2026-05-02T12:23:05.042Z</time></trkpt><trkpt lat="43.861855" lon="11.5308083"><ele>141.0</ele><time>2026-05-02T12:23:06.041Z</time></trkpt><trkpt lat="43.86175" lon="11.530705"><ele>140.75</ele><time>2026-05-02T12:23:07.042Z</time></trkpt><trkpt lat="43.86165" lon="11.5305767"><ele>140.5</ele><time>2026-05-02T12:23:08.043Z</time></trkpt><trkpt lat="43.8615533" lon="11.530435"><ele>140.25</ele><time>2026-05-02T12:23:09.041Z</time></trkpt><trkpt lat="43.861455" lon="11.5302883"><ele>140.0</ele><time>2026-05-02T12:23:10.042Z</time></trkpt><trkpt lat="43.8613533" lon="11.53014"><ele>140.0</ele><time>2026-05-02T12:23:11.042Z</time></trkpt><trkpt lat="43.8612467" lon="11.5299917"><ele>140.0</ele><time>2026-05-02T12:23:12.041Z</time></trkpt><trkpt lat="43.86114" lon="11.52984"><ele>140.0</ele><time>2026-05-02T12:23:13.042Z</time></trkpt><trkpt lat="43.8610283" lon="11.5296983"><ele>139.5</ele><time>2026-05-02T12:23:14.043Z</time></trkpt><trkpt lat="43.8609117" lon="11.5295633"><ele>139.0</ele><time>2026-05-02T12:23:15.041Z</time></trkpt><trkpt lat="43.8607883" lon="11.5294483"><ele>138.5</ele><time>2026-05-02T12:23:16.04Z</time></trkpt><trkpt lat="43.8606667" lon="11.5293367"><ele>138.0</ele><time>2026-05-02T12:23:17.041Z</time></trkpt><trkpt lat="43.8605467" lon="11.5292317"><ele>138.0</ele><time>2026-05-02T12:23:18.04Z</time></trkpt><trkpt lat="43.8604267" lon="11.5291283"><ele>138.0</ele><time>2026-05-02T12:23:19.044Z</time></trkpt><trkpt lat="43.8603067" lon="11.529025"><ele>138.0</ele><time>2026-05-02T12:23:20.043Z</time></trkpt><trkpt lat="43.8601933" lon="11.5289267"><ele>138.0</ele><time>2026-05-02T12:23:21.04Z</time></trkpt><trkpt lat="43.8600833" lon="11.52883"><ele>138.25</ele><time>2026-05-02T12:23:22.04Z</time></trkpt><trkpt lat="43.85998" lon="11.52874"><ele>138.5</ele><time>2026-05-02T12:23:23.041Z</time></trkpt><trkpt lat="43.85988" lon="11.528655"><ele>138.75</ele><time>2026-05-02T12:23:24.042Z</time></trkpt><trkpt lat="43.85978" lon="11.5285617"><ele>139.0</ele><time>2026-05-02T12:23:25.042Z</time></trkpt><trkpt lat="43.8596833" lon="11.5284633"><ele>139.0</ele><time>2026-05-02T12:23:26.042Z</time></trkpt><trkpt lat="43.8595917" lon="11.52836"><ele>139.0</ele><time>2026-05-02T12:23:27.039Z</time></trkpt><trkpt lat="43.8594967" lon="11.5282533"><ele>139.0</ele><time>2026-05-02T12:23:28.04Z</time></trkpt><trkpt lat="43.8594083" lon="11.5281383"><ele>139.0</ele><time>2026-05-02T12:23:29.04Z</time></trkpt><trkpt lat="43.859325" lon="11.5280183"><ele>138.5</ele><time>2026-05-02T12:23:30.04Z</time></trkpt><trkpt lat="43.8592417" lon="11.5278917"><ele>138.0</ele><time>2026-05-02T12:23:31.039Z</time></trkpt><trkpt lat="43.8591633" lon="11.527755"><ele>137.5</ele><time>2026-05-02T12:23:32.04Z</time></trkpt><trkpt lat="43.8590783" lon="11.527615"><ele>137.0</ele><time>2026-05-02T12:23:33.038Z</time></trkpt><trkpt lat="43.8589933" lon="11.52748"><ele>137.0</ele><time>2026-05-02T12:23:34.04Z</time></trkpt><trkpt lat="43.85891" lon="11.5273383"><ele>137.0</ele><time>2026-05-02T12:23:35.041Z</time></trkpt><trkpt lat="43.8588233" lon="11.527195"><ele>137.0</ele><time>2026-05-02T12:23:36.04Z</time></trkpt><trkpt lat="43.8587367" lon="11.52705"><ele>137.0</ele><time>2026-05-02T12:23:37.04Z</time></trkpt><trkpt lat="43.85865" lon="11.52691"><ele>137.0</ele><time>2026-05-02T12:23:38.042Z</time></trkpt><trkpt lat="43.8585617" lon="11.5267633"><ele>137.0</ele><time>2026-05-02T12:23:39.039Z</time></trkpt><trkpt lat="43.85847" lon="11.5266167"><ele>137.0</ele><time>2026-05-02T12:23:40.04Z</time></trkpt><trkpt lat="43.85838" lon="11.5264633"><ele>137.0</ele><time>2026-05-02T12:23:41.041Z</time></trkpt><trkpt lat="43.8582883" lon="11.5263067"><ele>136.25</ele><time>2026-05-02T12:23:42.04Z</time></trkpt><trkpt lat="43.8581933" lon="11.5261517"><ele>135.5</ele><time>2026-05-02T12:23:43.04Z</time></trkpt><trkpt lat="43.8581" lon="11.525995"><ele>134.75</ele><time>2026-05-02T12:23:44.042Z</time></trkpt><trkpt lat="43.85801" lon="11.5258433"><ele>134.0</ele><time>2026-05-02T12:23:45.039Z</time></trkpt><trkpt lat="43.8579217" lon="11.5256983"><ele>134.0</ele><time>2026-05-02T12:23:46.04Z</time></trkpt><trkpt lat="43.857835" lon="11.5255567"><ele>134.0</ele><time>2026-05-02T12:23:47.042Z</time></trkpt><trkpt lat="43.8577517" lon="11.5254167"><ele>134.0</ele><time>2026-05-02T12:23:48.039Z</time></trkpt><trkpt lat="43.8576683" lon="11.5252783"><ele>134.0</ele><time>2026-05-02T12:23:49.04Z</time></trkpt><trkpt lat="43.857585" lon="11.5251367"><ele>134.5</ele><time>2026-05-02T12:23:50.042Z</time></trkpt><trkpt lat="43.8575067" lon="11.52499"><ele>135.0</ele><time>2026-05-02T12:23:51.04Z</time></trkpt><trkpt lat="43.857435" lon="11.5248383"><ele>135.5</ele><time>2026-05-02T12:23:52.04Z</time></trkpt><trkpt lat="43.8573667" lon="11.5246867"><ele>136.0</ele><time>2026-05-02T12:23:53.042Z</time></trkpt><trkpt lat="43.8573" lon="11.5245333"><ele>136.0</ele><time>2026-05-02T12:23:54.041Z</time></trkpt><trkpt lat="43.8572417" lon="11.524375"><ele>136.0</ele><time>2026-05-02T12:23:55.043Z</time></trkpt><trkpt lat="43.8571933" lon="11.5242067"><ele>136.0</ele><time>2026-05-02T12:23:56.042Z</time></trkpt><trkpt lat="43.8571583" lon="11.52403"><ele>136.0</ele><time>2026-05-02T12:23:57.04Z</time></trkpt><trkpt lat="43.85713" lon="11.523845"><ele>135.25</ele><time>2026-05-02T12:23:58.037Z</time></trkpt><trkpt lat="43.8571017" lon="11.523655"><ele>134.5</ele><time>2026-05-02T12:23:59.041Z</time></trkpt><trkpt lat="43.85707" lon="11.5234617"><ele>133.75</ele><time>2026-05-02T12:24:00.039Z</time></trkpt><trkpt lat="43.8570383" lon="11.5232667"><ele>133.0</ele><time>2026-05-02T12:24:01.04Z</time></trkpt><trkpt lat="43.857005" lon="11.5230717"><ele>133.5</ele><time>2026-05-02T12:24:02.043Z</time></trkpt><trkpt lat="43.8569717" lon="11.5228767"><ele>134.0</ele><time>2026-05-02T12:24:03.036Z</time></trkpt><trkpt lat="43.8569367" lon="11.5226833"><ele>134.5</ele><time>2026-05-02T12:24:04.043Z</time></trkpt><trkpt lat="43.8569067" lon="11.5224917"><ele>135.0</ele><time>2026-05-02T12:24:05.04Z</time></trkpt><trkpt lat="43.8568733" lon="11.5223067"><ele>135.0</ele><time>2026-05-02T12:24:06.039Z</time></trkpt><trkpt lat="43.856845" lon="11.5221283"><ele>135.0</ele><time>2026-05-02T12:24:07.041Z</time></trkpt><trkpt lat="43.8568167" lon="11.52195"><ele>135.0</ele><time>2026-05-02T12:24:08.042Z</time></trkpt><trkpt lat="43.856785" lon="11.5217717"><ele>135.0</ele><time>2026-05-02T12:24:09.039Z</time></trkpt><trkpt lat="43.8567517" lon="11.5215967"><ele>134.75</ele><time>2026-05-02T12:24:10.039Z</time></trkpt><trkpt lat="43.856715" lon="11.521425"><ele>134.5</ele><time>2026-05-02T12:24:11.041Z</time></trkpt><trkpt lat="43.856665" lon="11.5212633"><ele>134.25</ele><time>2026-05-02T12:24:12.039Z</time></trkpt><trkpt lat="43.856595" lon="11.521115"><ele>134.0</ele><time>2026-05-02T12:24:13.04Z</time></trkpt><trkpt lat="43.8565033" lon="11.5209833"><ele>134.0</ele><time>2026-05-02T12:24:14.041Z</time></trkpt><trkpt lat="43.8563967" lon="11.5208683"><ele>134.0</ele><time>2026-05-02T12:24:15.142Z</time></trkpt><trkpt lat="43.856155" lon="11.5206817"><ele>134.0</ele><time>2026-05-02T12:24:17.041Z</time></trkpt><trkpt lat="43.8560317" lon="11.5205917"><ele>134.25</ele><time>2026-05-02T12:24:18.039Z</time></trkpt><trkpt lat="43.8559067" lon="11.5205017"><ele>134.5</ele><time>2026-05-02T12:24:19.041Z</time></trkpt><trkpt lat="43.8557867" lon="11.520415"><ele>134.75</ele><time>2026-05-02T12:24:20.042Z</time></trkpt><trkpt lat="43.8556733" lon="11.5203267"><ele>135.0</ele><time>2026-05-02T12:24:21.039Z</time></trkpt><trkpt lat="43.8555633" lon="11.5202383"><ele>135.0</ele><time>2026-05-02T12:24:22.039Z</time></trkpt><trkpt lat="43.85546" lon="11.5201417"><ele>135.0</ele><time>2026-05-02T12:24:23.04Z</time></trkpt><trkpt lat="43.85536" lon="11.5200367"><ele>135.0</ele><time>2026-05-02T12:24:24.039Z</time></trkpt><trkpt lat="43.855265" lon="11.5199183"><ele>135.0</ele><time>2026-05-02T12:24:25.042Z</time></trkpt><trkpt lat="43.855175" lon="11.5198117"><ele>136.5</ele><time>2026-05-02T12:24:26.042Z</time></trkpt><trkpt lat="43.85507" lon="11.51973"><ele>138.0</ele><time>2026-05-02T12:24:27.039Z</time></trkpt><trkpt lat="43.8549517" lon="11.5196733"><ele>139.5</ele><time>2026-05-02T12:24:28.039Z</time></trkpt><trkpt lat="43.8548317" lon="11.5196317"><ele>141.0</ele><time>2026-05-02T12:24:29.041Z</time></trkpt><trkpt lat="43.85471" lon="11.519595"><ele>139.5</ele><time>2026-05-02T12:24:30.04Z</time></trkpt><trkpt lat="43.8545883" lon="11.519555"><ele>138.0</ele><time>2026-05-02T12:24:31.039Z</time></trkpt><trkpt lat="43.854475" lon="11.51952"><ele>136.5</ele><time>2026-05-02T12:24:32.04Z</time></trkpt><trkpt lat="43.8543667" lon="11.5194833"><ele>135.0</ele><time>2026-05-02T12:24:33.038Z</time></trkpt><trkpt lat="43.85426" lon="11.5194483"><ele>135.0</ele><time>2026-05-02T12:24:34.039Z</time></trkpt><trkpt lat="43.8541667" lon="11.5194117"><ele>135.0</ele><time>2026-05-02T12:24:35.041Z</time></trkpt><trkpt lat="43.854075" lon="11.5193683"><ele>135.0</ele><time>2026-05-02T12:24:36.039Z</time></trkpt><trkpt lat="43.8539783" lon="11.519325"><ele>135.0</ele><time>2026-05-02T12:24:37.04Z</time></trkpt><trkpt lat="43.8538833" lon="11.5192583"><ele>135.0</ele><time>2026-05-02T12:24:38.042Z</time></trkpt><trkpt lat="43.8537867" lon="11.5191833"><ele>135.0</ele><time>2026-05-02T12:24:39.039Z</time></trkpt><trkpt lat="43.8536933" lon="11.5190983"><ele>135.0</ele><time>2026-05-02T12:24:40.04Z</time></trkpt><trkpt lat="43.8536033" lon="11.5190083"><ele>135.0</ele><time>2026-05-02T12:24:41.041Z</time></trkpt><trkpt lat="43.8535217" lon="11.518915"><ele>135.0</ele><time>2026-05-02T12:24:42.041Z</time></trkpt><trkpt lat="43.8534383" lon="11.5188467"><ele>135.0</ele><time>2026-05-02T12:24:43.041Z</time></trkpt><trkpt lat="43.85334" lon="11.51877"><ele>134.75</ele><time>2026-05-02T12:24:44.042Z</time></trkpt><trkpt lat="43.8532333" lon="11.5187017"><ele>134.5</ele><time>2026-05-02T12:24:45.04Z</time></trkpt><trkpt lat="43.8531183" lon="11.5186217"><ele>134.25</ele><time>2026-05-02T12:24:46.039Z</time></trkpt><trkpt lat="43.8529917" lon="11.5185283"><ele>134.0</ele><time>2026-05-02T12:24:47.04Z</time></trkpt><trkpt lat="43.8528583" lon="11.5184283"><ele>134.0</ele><time>2026-05-02T12:24:48.039Z</time></trkpt><trkpt lat="43.85272" lon="11.518325"><ele>134.0</ele><time>2026-05-02T12:24:49.04Z</time></trkpt><trkpt lat="43.8525833" lon="11.51822"><ele>134.0</ele><time>2026-05-02T12:24:50.042Z</time></trkpt><trkpt lat="43.8524583" lon="11.51812"><ele>134.0</ele><time>2026-05-02T12:24:51.039Z</time></trkpt><trkpt lat="43.852345" lon="11.5180267"><ele>134.0</ele><time>2026-05-02T12:24:52.041Z</time></trkpt><trkpt lat="43.8522433" lon="11.51794"><ele>134.0</ele><time>2026-05-02T12:24:53.041Z</time></trkpt><trkpt lat="43.8521517" lon="11.5178533"><ele>134.0</ele><time>2026-05-02T12:24:54.041Z</time></trkpt><trkpt lat="43.8520617" lon="11.5177633"><ele>134.0</ele><time>2026-05-02T12:24:55.042Z</time></trkpt><trkpt lat="43.8519733" lon="11.5176683"><ele>134.0</ele><time>2026-05-02T12:24:56.042Z</time></trkpt><trkpt lat="43.8518833" lon="11.5175633"><ele>134.0</ele><time>2026-05-02T12:24:57.039Z</time></trkpt><trkpt lat="43.8517883" lon="11.517455"><ele>134.0</ele><time>2026-05-02T12:24:58.039Z</time></trkpt><trkpt lat="43.85169" lon="11.51734"><ele>134.0</ele><time>2026-05-02T12:24:59.04Z</time></trkpt><trkpt lat="43.8515883" lon="11.5172267"><ele>134.0</ele><time>2026-05-02T12:25:00.043Z</time></trkpt><trkpt lat="43.8514817" lon="11.51712"><ele>134.0</ele><time>2026-05-02T12:25:01.039Z</time></trkpt><trkpt lat="43.8513717" lon="11.51702"><ele>134.0</ele><time>2026-05-02T12:25:02.043Z</time></trkpt><trkpt lat="43.8512583" lon="11.5169267"><ele>133.25</ele><time>2026-05-02T12:25:03.039Z</time></trkpt><trkpt lat="43.85114" lon="11.5168383"><ele>132.5</ele><time>2026-05-02T12:25:04.041Z</time></trkpt><trkpt lat="43.8510233" lon="11.5167533"><ele>131.75</ele><time>2026-05-02T12:25:05.042Z</time></trkpt><trkpt lat="43.8509083" lon="11.516665"><ele>131.0</ele><time>2026-05-02T12:25:06.042Z</time></trkpt><trkpt lat="43.8507983" lon="11.5165817"><ele>130.75</ele><time>2026-05-02T12:25:07.043Z</time></trkpt><trkpt lat="43.85069" lon="11.5164967"><ele>130.5</ele><time>2026-05-02T12:25:08.043Z</time></trkpt><trkpt lat="43.85058" lon="11.5164167"><ele>130.25</ele><time>2026-05-02T12:25:09.042Z</time></trkpt><trkpt lat="43.8504717" lon="11.51634"><ele>130.0</ele><time>2026-05-02T12:25:10.04Z</time></trkpt><trkpt lat="43.8503683" lon="11.5162633"><ele>130.25</ele><time>2026-05-02T12:25:11.041Z</time></trkpt><trkpt lat="43.85027" lon="11.5161817"><ele>130.5</ele><time>2026-05-02T12:25:12.043Z</time></trkpt><trkpt lat="43.8501767" lon="11.51609"><ele>130.75</ele><time>2026-05-02T12:25:13.042Z</time></trkpt><trkpt lat="43.8500917" lon="11.5159867"><ele>131.0</ele><time>2026-05-02T12:25:14.042Z</time></trkpt><trkpt lat="43.8500167" lon="11.51587"><ele>131.75</ele><time>2026-05-02T12:25:15.04Z</time></trkpt><trkpt lat="43.8499567" lon="11.5157333"><ele>132.5</ele><time>2026-05-02T12:25:16.04Z</time></trkpt><trkpt lat="43.8499083" lon="11.5155867"><ele>133.25</ele><time>2026-05-02T12:25:17.042Z</time></trkpt><trkpt lat="43.8498633" lon="11.515435"><ele>134.0</ele><time>2026-05-02T12:25:18.04Z</time></trkpt><trkpt lat="43.8498217" lon="11.515275"><ele>134.0</ele><time>2026-05-02T12:25:19.043Z</time></trkpt><trkpt lat="43.8497917" lon="11.5151083"><ele>134.0</ele><time>2026-05-02T12:25:20.042Z</time></trkpt><trkpt lat="43.8497617" lon="11.5149383"><ele>134.0</ele><time>2026-05-02T12:25:21.042Z</time></trkpt><trkpt lat="43.8497417" lon="11.5147567"><ele>134.0</ele><time>2026-05-02T12:25:22.041Z</time></trkpt><trkpt lat="43.8497383" lon="11.5145733"><ele>133.5</ele><time>2026-05-02T12:25:23.042Z</time></trkpt><trkpt lat="43.8497467" lon="11.5143867"><ele>133.0</ele><time>2026-05-02T12:25:24.039Z</time></trkpt><trkpt lat="43.8497633" lon="11.5142"><ele>132.5</ele><time>2026-05-02T12:25:25.042Z</time></trkpt><trkpt lat="43.8497817" lon="11.5140167"><ele>132.0</ele><time>2026-05-02T12:25:26.042Z</time></trkpt><trkpt lat="43.8498017" lon="11.5138367"><ele>133.0</ele><time>2026-05-02T12:25:27.04Z</time></trkpt><trkpt lat="43.8498283" lon="11.51366"><ele>134.0</ele><time>2026-05-02T12:25:28.041Z</time></trkpt><trkpt lat="43.8498633" lon="11.5134917"><ele>135.0</ele><time>2026-05-02T12:25:29.042Z</time></trkpt><trkpt lat="43.84991" lon="11.5133367"><ele>136.0</ele><time>2026-05-02T12:25:30.041Z</time></trkpt><trkpt lat="43.8499667" lon="11.5131917"><ele>136.0</ele><time>2026-05-02T12:25:31.041Z</time></trkpt><trkpt lat="43.85003" lon="11.5130533"><ele>136.0</ele><time>2026-05-02T12:25:32.042Z</time></trkpt><trkpt lat="43.8500917" lon="11.5129167"><ele>136.0</ele><time>2026-05-02T12:25:33.041Z</time></trkpt><trkpt lat="43.8501483" lon="11.5127817"><ele>136.0</ele><time>2026-05-02T12:25:34.041Z</time></trkpt><trkpt lat="43.8502" lon="11.5126417"><ele>137.25</ele><time>2026-05-02T12:25:35.041Z</time></trkpt><trkpt lat="43.8502433" lon="11.5124983"><ele>138.5</ele><time>2026-05-02T12:25:36.04Z</time></trkpt><trkpt lat="43.85028" lon="11.5123483"><ele>139.75</ele><time>2026-05-02T12:25:37.042Z</time></trkpt><trkpt lat="43.8503117" lon="11.5121967"><ele>141.0</ele><time>2026-05-02T12:25:38.043Z</time></trkpt><trkpt lat="43.850335" lon="11.512035"><ele>141.0</ele><time>2026-05-02T12:25:39.04Z</time></trkpt><trkpt lat="43.850355" lon="11.5118633"><ele>141.0</ele><time>2026-05-02T12:25:40.04Z</time></trkpt><trkpt lat="43.8503733" lon="11.5116917"><ele>141.0</ele><time>2026-05-02T12:25:41.041Z</time></trkpt><trkpt lat="43.8503883" lon="11.5115233"><ele>141.0</ele><time>2026-05-02T12:25:42.039Z</time></trkpt><trkpt lat="43.8504033" lon="11.5113667"><ele>139.6</ele><time>2026-05-02T12:25:43.043Z</time></trkpt><trkpt lat="43.8504183" lon="11.51122"><ele>138.2</ele><time>2026-05-02T12:25:44.042Z</time></trkpt><trkpt lat="43.8504333" lon="11.5110783"><ele>136.8</ele><time>2026-05-02T12:25:45.04Z</time></trkpt><trkpt lat="43.85045" lon="11.5109367"><ele>135.4</ele><time>2026-05-02T12:25:46.042Z</time></trkpt><trkpt lat="43.8504667" lon="11.5107867"><ele>134.0</ele><time>2026-05-02T12:25:47.042Z</time></trkpt><trkpt lat="43.8504883" lon="11.5106283"><ele>134.0</ele><time>2026-05-02T12:25:48.04Z</time></trkpt><trkpt lat="43.8505067" lon="11.5104633"><ele>134.0</ele><time>2026-05-02T12:25:49.043Z</time></trkpt><trkpt lat="43.8505217" lon="11.5102917"><ele>134.0</ele><time>2026-05-02T12:25:50.043Z</time></trkpt><trkpt lat="43.8505317" lon="11.510115"><ele>134.0</ele><time>2026-05-02T12:25:51.044Z</time></trkpt><trkpt lat="43.850535" lon="11.5099417"><ele>133.5</ele><time>2026-05-02T12:25:52.041Z</time></trkpt><trkpt lat="43.85053" lon="11.5097683"><ele>133.0</ele><time>2026-05-02T12:25:53.043Z</time></trkpt><trkpt lat="43.8505167" lon="11.509595"><ele>132.5</ele><time>2026-05-02T12:25:54.042Z</time></trkpt><trkpt lat="43.8504983" lon="11.5094183"><ele>132.0</ele><time>2026-05-02T12:25:55.041Z</time></trkpt><trkpt lat="43.85048" lon="11.50923"><ele>131.25</ele><time>2026-05-02T12:25:56.042Z</time></trkpt><trkpt lat="43.8504617" lon="11.5090383"><ele>130.5</ele><time>2026-05-02T12:25:57.04Z</time></trkpt><trkpt lat="43.850445" lon="11.5088417"><ele>129.75</ele><time>2026-05-02T12:25:58.041Z</time></trkpt><trkpt lat="43.8504267" lon="11.508645"><ele>129.0</ele><time>2026-05-02T12:25:59.041Z</time></trkpt><trkpt lat="43.85041" lon="11.508445"><ele>128.75</ele><time>2026-05-02T12:26:00.04Z</time></trkpt><trkpt lat="43.8503933" lon="11.5082433"><ele>128.5</ele><time>2026-05-02T12:26:01.043Z</time></trkpt><trkpt lat="43.8503767" lon="11.5080383"><ele>128.25</ele><time>2026-05-02T12:26:02.042Z</time></trkpt><trkpt lat="43.85036" lon="11.5078283"><ele>128.0</ele><time>2026-05-02T12:26:03.041Z</time></trkpt><trkpt lat="43.8503433" lon="11.507615"><ele>127.66666666666666</ele><time>2026-05-02T12:26:04.041Z</time></trkpt><trkpt lat="43.8503267" lon="11.5074"><ele>127.33333333333334</ele><time>2026-05-02T12:26:05.043Z</time></trkpt><trkpt lat="43.8503083" lon="11.5071867"><ele>127.0</ele><time>2026-05-02T12:26:06.039Z</time></trkpt><trkpt lat="43.8502917" lon="11.5069817"><ele>126.5</ele><time>2026-05-02T12:26:07.043Z</time></trkpt><trkpt lat="43.8502717" lon="11.5067883"><ele>126.0</ele><time>2026-05-02T12:26:08.043Z</time></trkpt><trkpt lat="43.850245" lon="11.5066083"><ele>125.5</ele><time>2026-05-02T12:26:09.04Z</time></trkpt><trkpt lat="43.85021" lon="11.5064417"><ele>125.0</ele><time>2026-05-02T12:26:10.04Z</time></trkpt><trkpt lat="43.8501667" lon="11.5062867"><ele>126.0</ele><time>2026-05-02T12:26:11.041Z</time></trkpt><trkpt lat="43.8501217" lon="11.506145"><ele>127.0</ele><time>2026-05-02T12:26:12.039Z</time></trkpt><trkpt lat="43.8500783" lon="11.5060133"><ele>128.0</ele><time>2026-05-02T12:26:13.042Z</time></trkpt><trkpt lat="43.8500367" lon="11.5058983"><ele>129.0</ele><time>2026-05-02T12:26:14.041Z</time></trkpt><trkpt lat="43.8500017" lon="11.5057983"><ele>130.0</ele><time>2026-05-02T12:26:15.04Z</time></trkpt><trkpt lat="43.84997" lon="11.505655"><ele>130.0</ele><time>2026-05-02T12:26:17.041Z</time></trkpt><trkpt lat="43.8499883" lon="11.5055617"><ele>130.0</ele><time>2026-05-02T12:26:19.042Z</time></trkpt><trkpt lat="43.8500267" lon="11.5054783"><ele>130.0</ele><time>2026-05-02T12:26:21.04Z</time></trkpt><trkpt lat="43.849945" lon="11.505515"><ele>130.0</ele><time>2026-05-02T12:34:46.039Z</time></trkpt><trkpt lat="43.84988" lon="11.5054983"><ele>130.0</ele><time>2026-05-02T12:34:48.04Z</time></trkpt><trkpt lat="43.849775" lon="11.5054783"><ele>130.0</ele><time>2026-05-02T12:34:50.045Z</time></trkpt><trkpt lat="43.8496733" lon="11.5055017"><ele>130.0</ele><time>2026-05-02T12:34:52.041Z</time></trkpt><trkpt lat="43.8496083" lon="11.5055783"><ele>130.0</ele><time>2026-05-02T12:34:55.038Z</time></trkpt><trkpt lat="43.8496233" lon="11.50568"><ele>130.0</ele><time>2026-05-02T12:34:57.029Z</time></trkpt><trkpt lat="43.8496483" lon="11.5057883"><ele>130.0</ele><time>2026-05-02T12:34:59.039Z</time></trkpt><trkpt lat="43.8495983" lon="11.5058683"><ele>130.0</ele><time>2026-05-02T12:35:01.038Z</time></trkpt><trkpt lat="43.849496" lon="11.5059175"><ele>130.0</ele><time>2026-05-02T12:35:03.04Z</time></trkpt><trkpt lat="43.84938" lon="11.5059677"><ele>130.0</ele><time>2026-05-02T12:35:05.041Z</time></trkpt><trkpt lat="43.8492985" lon="11.5060135"><ele>130.0</ele><time>2026-05-02T12:35:07.04Z</time></trkpt><trkpt lat="43.8492355" lon="11.5059971"><ele>130.0</ele><time>2026-05-02T12:35:10.05Z</time></trkpt><trkpt lat="43.8491698" lon="11.506026"><ele>130.0</ele><time>2026-05-02T12:35:11.095Z</time></trkpt><trkpt lat="43.8490649" lon="11.5060615"><ele>130.0</ele><time>2026-05-02T12:35:13.124Z</time></trkpt><trkpt lat="43.8489548" lon="11.5061286"><ele>130.0</ele><time>2026-05-02T12:35:15.039Z</time></trkpt><trkpt lat="43.8488466" lon="11.5061752"><ele>132.4</ele><time>2026-05-02T12:35:17.041Z</time></trkpt><trkpt lat="43.8487347" lon="11.5062097"><ele>134.8</ele><time>2026-05-02T12:35:19.04Z</time></trkpt><trkpt lat="43.8486253" lon="11.5062583"><ele>137.2</ele><time>2026-05-02T12:35:21.039Z</time></trkpt><trkpt lat="43.8485417" lon="11.5063201"><ele>139.6</ele><time>2026-05-02T12:35:23.041Z</time></trkpt><trkpt lat="43.848485" lon="11.506415"><ele>142.0</ele><time>2026-05-02T12:35:26.042Z</time></trkpt><trkpt lat="43.8484717" lon="11.50652"><ele>144.71428571428572</ele><time>2026-05-02T12:35:28.039Z</time></trkpt><trkpt lat="43.8484469" lon="11.5066221"><ele>147.42857142857142</ele><time>2026-05-02T12:35:31.045Z</time></trkpt><trkpt lat="43.8483898" lon="11.5067145"><ele>150.14285714285714</ele><time>2026-05-02T12:35:32.041Z</time></trkpt><trkpt lat="43.8483487" lon="11.5067944"><ele>152.85714285714286</ele><time>2026-05-02T12:35:33.039Z</time></trkpt><trkpt lat="43.8482983" lon="11.5068665"><ele>155.57142857142856</ele><time>2026-05-02T12:35:34.039Z</time></trkpt><trkpt lat="43.8482462" lon="11.5069296"><ele>158.28571428571428</ele><time>2026-05-02T12:35:35.04Z</time></trkpt><trkpt lat="43.8481927" lon="11.5069849"><ele>161.0</ele><time>2026-05-02T12:35:36.039Z</time></trkpt><trkpt lat="43.8481376" lon="11.5070334"><ele>164.75</ele><time>2026-05-02T12:35:37.04Z</time></trkpt><trkpt lat="43.8480379" lon="11.5071315"><ele>168.5</ele><time>2026-05-02T12:35:39.039Z</time></trkpt><trkpt lat="43.847946" lon="11.5072381"><ele>172.25</ele><time>2026-05-02T12:35:41.039Z</time></trkpt><trkpt lat="43.8478805" lon="11.5073562"><ele>176.0</ele><time>2026-05-02T12:35:43.04Z</time></trkpt><trkpt lat="43.8478461" lon="11.5074886"><ele>176.0</ele><time>2026-05-02T12:35:45.04Z</time></trkpt><trkpt lat="43.8478144" lon="11.5076369"><ele>176.0</ele><time>2026-05-02T12:35:47.039Z</time></trkpt><trkpt lat="43.8477786" lon="11.5078045"><ele>176.0</ele><time>2026-05-02T12:35:49.04Z</time></trkpt><trkpt lat="43.8477562" lon="11.5079088"><ele>176.0</ele><time>2026-05-02T12:35:50.042Z</time></trkpt><trkpt lat="43.847737" lon="11.5080188"><ele>176.0</ele><time>2026-05-02T12:35:51.039Z</time></trkpt><trkpt lat="43.8477151" lon="11.5081379"><ele>177.5</ele><time>2026-05-02T12:35:52.04Z</time></trkpt><trkpt lat="43.847693" lon="11.5082475"><ele>179.0</ele><time>2026-05-02T12:35:53.039Z</time></trkpt><trkpt lat="43.8476635" lon="11.5083486"><ele>180.5</ele><time>2026-05-02T12:35:54.04Z</time></trkpt><trkpt lat="43.8476247" lon="11.5084481"><ele>182.0</ele><time>2026-05-02T12:35:55.04Z</time></trkpt><trkpt lat="43.8475738" lon="11.5085441"><ele>183.5</ele><time>2026-05-02T12:35:56.043Z</time></trkpt><trkpt lat="43.8475195" lon="11.5086335"><ele>185.0</ele><time>2026-05-02T12:35:57.04Z</time></trkpt><trkpt lat="43.8474677" lon="11.5087292"><ele>188.33333333333331</ele><time>2026-05-02T12:35:58.04Z</time></trkpt><trkpt lat="43.8474134" lon="11.5088248"><ele>191.66666666666666</ele><time>2026-05-02T12:35:59.039Z</time></trkpt><trkpt lat="43.8473636" lon="11.5089063"><ele>195.0</ele><time>2026-05-02T12:36:00.039Z</time></trkpt><trkpt lat="43.8473142" lon="11.5089713"><ele>198.33333333333331</ele><time>2026-05-02T12:36:01.041Z</time></trkpt><trkpt lat="43.8472641" lon="11.5090262"><ele>201.66666666666666</ele><time>2026-05-02T12:36:02.042Z</time></trkpt><trkpt lat="43.8471517" lon="11.5090682"><ele>205.0</ele><time>2026-05-02T12:36:04.039Z</time></trkpt><trkpt lat="43.8470884" lon="11.509061"><ele>205.0</ele><time>2026-05-02T12:36:05.039Z</time></trkpt><trkpt lat="43.8469626" lon="11.5090478"><ele>205.0</ele><time>2026-05-02T12:36:07.039Z</time></trkpt><trkpt lat="43.8468988" lon="11.509057"><ele>205.0</ele><time>2026-05-02T12:36:08.042Z</time></trkpt><trkpt lat="43.846824" lon="11.5091316"><ele>205.0</ele><time>2026-05-02T12:36:10.039Z</time></trkpt><trkpt lat="43.8468568" lon="11.5092462"><ele>205.0</ele><time>2026-05-02T12:36:12.041Z</time></trkpt><trkpt lat="43.8469121" lon="11.5093701"><ele>205.0</ele><time>2026-05-02T12:36:14.032Z</time></trkpt><trkpt lat="43.8469412" lon="11.5094508"><ele>205.0</ele><time>2026-05-02T12:36:15.039Z</time></trkpt><trkpt lat="43.8469783" lon="11.509537"><ele>205.0</ele><time>2026-05-02T12:36:16.04Z</time></trkpt><trkpt lat="43.847015" lon="11.5096216"><ele>205.0</ele><time>2026-05-02T12:36:17.04Z</time></trkpt><trkpt lat="43.8470543" lon="11.5096989"><ele>205.0</ele><time>2026-05-02T12:36:18.039Z</time></trkpt><trkpt lat="43.8470982" lon="11.5097734"><ele>205.0</ele><time>2026-05-02T12:36:19.042Z</time></trkpt><trkpt lat="43.8471444" lon="11.5098441"><ele>205.0</ele><time>2026-05-02T12:36:20.042Z</time></trkpt><trkpt lat="43.8471938" lon="11.5099097"><ele>207.49999999999997</ele><time>2026-05-02T12:36:21.041Z</time></trkpt><trkpt lat="43.8472412" lon="11.5099687"><ele>210.0</ele><time>2026-05-02T12:36:22.041Z</time></trkpt><trkpt lat="43.8473317" lon="11.510095"><ele>212.5</ele><time>2026-05-02T12:36:24.042Z</time></trkpt><trkpt lat="43.8473817" lon="11.5101667"><ele>215.0</ele><time>2026-05-02T12:36:25.047Z</time></trkpt><trkpt lat="43.8474233" lon="11.5102333"><ele>217.49999999999997</ele><time>2026-05-02T12:36:26.045Z</time></trkpt><trkpt lat="43.8474733" lon="11.5103833"><ele>220.0</ele><time>2026-05-02T12:36:28.041Z</time></trkpt><trkpt lat="43.847505" lon="11.510545"><ele>221.8</ele><time>2026-05-02T12:36:30.041Z</time></trkpt><trkpt lat="43.8475117" lon="11.510695"><ele>223.6</ele><time>2026-05-02T12:36:32.043Z</time></trkpt><trkpt lat="43.8474883" lon="11.5108467"><ele>225.39999999999998</ele><time>2026-05-02T12:36:34.041Z</time></trkpt><trkpt lat="43.847415" lon="11.5109683"><ele>227.2</ele><time>2026-05-02T12:36:36.04Z</time></trkpt><trkpt lat="43.84732" lon="11.5110033"><ele>229.0</ele><time>2026-05-02T12:36:38.038Z</time></trkpt><trkpt lat="43.8472183" lon="11.510985"><ele>229.0</ele><time>2026-05-02T12:36:40.04Z</time></trkpt><trkpt lat="43.847119" lon="11.5109484"><ele>228.99999999999997</ele><time>2026-05-02T12:36:42.038Z</time></trkpt><trkpt lat="43.8470353" lon="11.510908"><ele>228.99999999999997</ele><time>2026-05-02T12:36:44.04Z</time></trkpt><trkpt lat="43.8469221" lon="11.5108266"><ele>229.0</ele><time>2026-05-02T12:36:48.023Z</time></trkpt><trkpt lat="43.8468553" lon="11.5108027"><ele>229.0</ele><time>2026-05-02T12:36:49.04Z</time></trkpt><trkpt lat="43.8467855" lon="11.5108105"><ele>232.79999999999998</ele><time>2026-05-02T12:36:50.042Z</time></trkpt><trkpt lat="43.8467183" lon="11.5108083"><ele>236.59999999999997</ele><time>2026-05-02T12:36:51.039Z</time></trkpt><trkpt lat="43.84662" lon="11.510825"><ele>240.4</ele><time>2026-05-02T12:36:53.04Z</time></trkpt><trkpt lat="43.846555" lon="11.5109183"><ele>244.2</ele><time>2026-05-02T12:36:55.04Z</time></trkpt><trkpt lat="43.846515" lon="11.5110833"><ele>248.0</ele><time>2026-05-02T12:36:57.04Z</time></trkpt><trkpt lat="43.8464883" lon="11.5111817"><ele>249.2</ele><time>2026-05-02T12:36:58.039Z</time></trkpt><trkpt lat="43.8464533" lon="11.511275"><ele>250.4</ele><time>2026-05-02T12:36:59.042Z</time></trkpt><trkpt lat="43.846425" lon="11.5113567"><ele>251.59999999999997</ele><time>2026-05-02T12:37:00.043Z</time></trkpt><trkpt lat="43.8463783" lon="11.5114983"><ele>252.79999999999998</ele><time>2026-05-02T12:37:02.037Z</time></trkpt><trkpt lat="43.846315" lon="11.5116567"><ele>254.0</ele><time>2026-05-02T12:37:04.04Z</time></trkpt><trkpt lat="43.846275" lon="11.5117533"><ele>254.00000000000003</ele><time>2026-05-02T12:37:05.039Z</time></trkpt><trkpt lat="43.8462433" lon="11.5118567"><ele>254.0</ele><time>2026-05-02T12:37:06.039Z</time></trkpt><trkpt lat="43.8462217" lon="11.5119633"><ele>254.0</ele><time>2026-05-02T12:37:07.039Z</time></trkpt><trkpt lat="43.84622" lon="11.5120817"><ele>254.0</ele><time>2026-05-02T12:37:08.042Z</time></trkpt><trkpt lat="43.8462283" lon="11.5122083"><ele>254.00000000000003</ele><time>2026-05-02T12:37:09.039Z</time></trkpt><trkpt lat="43.8462433" lon="11.5123383"><ele>254.0</ele><time>2026-05-02T12:37:10.039Z</time></trkpt><trkpt lat="43.8462583" lon="11.5124733"><ele>255.75</ele><time>2026-05-02T12:37:11.04Z</time></trkpt><trkpt lat="43.8462717" lon="11.5126133"><ele>257.5</ele><time>2026-05-02T12:37:12.04Z</time></trkpt><trkpt lat="43.8462817" lon="11.51277"><ele>259.25</ele><time>2026-05-02T12:37:13.039Z</time></trkpt><trkpt lat="43.8462767" lon="11.5129467"><ele>261.0</ele><time>2026-05-02T12:37:14.041Z</time></trkpt><trkpt lat="43.8462667" lon="11.5131167"><ele>262.2</ele><time>2026-05-02T12:37:15.039Z</time></trkpt><trkpt lat="43.8462583" lon="11.5132683"><ele>263.40000000000003</ele><time>2026-05-02T12:37:16.04Z</time></trkpt><trkpt lat="43.8462383" lon="11.5134083"><ele>264.6</ele><time>2026-05-02T12:37:17.04Z</time></trkpt><trkpt lat="43.846205" lon="11.513555"><ele>265.8</ele><time>2026-05-02T12:37:18.039Z</time></trkpt><trkpt lat="43.84616" lon="11.5137"><ele>267.0</ele><time>2026-05-02T12:37:19.04Z</time></trkpt><trkpt lat="43.8461133" lon="11.51385"><ele>267.0</ele><time>2026-05-02T12:37:20.042Z</time></trkpt><trkpt lat="43.8460633" lon="11.5140017"><ele>267.0</ele><time>2026-05-02T12:37:21.04Z</time></trkpt><trkpt lat="43.84601" lon="11.5141417"><ele>267.0</ele><time>2026-05-02T12:37:22.041Z</time></trkpt><trkpt lat="43.84595" lon="11.5142617"><ele>267.0</ele><time>2026-05-02T12:37:23.041Z</time></trkpt><trkpt lat="43.845895" lon="11.5143583"><ele>267.0</ele><time>2026-05-02T12:37:24.04Z</time></trkpt><trkpt lat="43.8458433" lon="11.514435"><ele>273.75</ele><time>2026-05-02T12:37:25.039Z</time></trkpt><trkpt lat="43.8457417" lon="11.5144667"><ele>280.5</ele><time>2026-05-02T12:37:27.039Z</time></trkpt><trkpt lat="43.8456117" lon="11.5144017"><ele>287.25</ele><time>2026-05-02T12:37:29.041Z</time></trkpt><trkpt lat="43.845515" lon="11.5143517"><ele>294.0</ele><time>2026-05-02T12:37:30.041Z</time></trkpt><trkpt lat="43.8454083" lon="11.5142917"><ele>294.0</ele><time>2026-05-02T12:37:31.04Z</time></trkpt><trkpt lat="43.8453" lon="11.5142267"><ele>294.0</ele><time>2026-05-02T12:37:32.042Z</time></trkpt><trkpt lat="43.84521" lon="11.5141433"><ele>294.0</ele><time>2026-05-02T12:37:33.04Z</time></trkpt><trkpt lat="43.8451383" lon="11.5140567"><ele>294.0</ele><time>2026-05-02T12:37:34.039Z</time></trkpt><trkpt lat="43.84507" lon="11.513975"><ele>294.0</ele><time>2026-05-02T12:37:35.04Z</time></trkpt><trkpt lat="43.845015" lon="11.5138967"><ele>297.0</ele><time>2026-05-02T12:37:36.041Z</time></trkpt><trkpt lat="43.8449117" lon="11.5138883"><ele>300.0</ele><time>2026-05-02T12:37:38.042Z</time></trkpt><trkpt lat="43.8448533" lon="11.513935"><ele>303.0</ele><time>2026-05-02T12:37:39.039Z</time></trkpt><trkpt lat="43.8447917" lon="11.513985"><ele>306.0</ele><time>2026-05-02T12:37:40.04Z</time></trkpt><trkpt lat="43.84472" lon="11.514065"><ele>309.0</ele><time>2026-05-02T12:37:41.04Z</time></trkpt><trkpt lat="43.844645" lon="11.514155"><ele>312.0</ele><time>2026-05-02T12:37:42.039Z</time></trkpt><trkpt lat="43.8445767" lon="11.51425"><ele>312.0</ele><time>2026-05-02T12:37:43.041Z</time></trkpt><trkpt lat="43.84452" lon="11.5143467"><ele>312.0</ele><time>2026-05-02T12:37:44.042Z</time></trkpt><trkpt lat="43.8444517" lon="11.5144417"><ele>312.0</ele><time>2026-05-02T12:37:45.04Z</time></trkpt><trkpt lat="43.84441" lon="11.5145233"><ele>312.0</ele><time>2026-05-02T12:37:46.039Z</time></trkpt><trkpt lat="43.8443683" lon="11.5146017"><ele>312.0</ele><time>2026-05-02T12:37:47.04Z</time></trkpt><trkpt lat="43.8443417" lon="11.5147017"><ele>312.0</ele><time>2026-05-02T12:37:48.042Z</time></trkpt><trkpt lat="43.8443133" lon="11.5148183"><ele>313.8</ele><time>2026-05-02T12:37:49.039Z</time></trkpt><trkpt lat="43.84428" lon="11.5149383"><ele>315.6</ele><time>2026-05-02T12:37:50.042Z</time></trkpt><trkpt lat="43.84424" lon="11.5150583"><ele>317.40000000000003</ele><time>2026-05-02T12:37:51.039Z</time></trkpt><trkpt lat="43.8441967" lon="11.5151783"><ele>319.2</ele><time>2026-05-02T12:37:52.039Z</time></trkpt><trkpt lat="43.84415" lon="11.515295"><ele>321.0</ele><time>2026-05-02T12:37:53.04Z</time></trkpt><trkpt lat="43.8441033" lon="11.5153983"><ele>323.1666666666667</ele><time>2026-05-02T12:37:54.04Z</time></trkpt><trkpt lat="43.8440483" lon="11.5154883"><ele>325.3333333333333</ele><time>2026-05-02T12:37:55.039Z</time></trkpt><trkpt lat="43.8439817" lon="11.51556"><ele>327.5</ele><time>2026-05-02T12:37:56.041Z</time></trkpt><trkpt lat="43.8439133" lon="11.5156217"><ele>329.66666666666663</ele><time>2026-05-02T12:37:57.039Z</time></trkpt><trkpt lat="43.843845" lon="11.51567"><ele>331.8333333333333</ele><time>2026-05-02T12:37:58.041Z</time></trkpt><trkpt lat="43.84378" lon="11.515715"><ele>334.0</ele><time>2026-05-02T12:37:59.04Z</time></trkpt><trkpt lat="43.843715" lon="11.5157533"><ele>334.0</ele><time>2026-05-02T12:38:00.038Z</time></trkpt><trkpt lat="43.843655" lon="11.5157883"><ele>334.0</ele><time>2026-05-02T12:38:01.04Z</time></trkpt><trkpt lat="43.8435567" lon="11.5158367"><ele>334.0</ele><time>2026-05-02T12:38:03.04Z</time></trkpt><trkpt lat="43.8434683" lon="11.5158833"><ele>334.0</ele><time>2026-05-02T12:38:05.04Z</time></trkpt><trkpt lat="43.8433767" lon="11.5159217"><ele>334.0</ele><time>2026-05-02T12:38:07.04Z</time></trkpt><trkpt lat="43.8432983" lon="11.5159183"><ele>334.0</ele><time>2026-05-02T12:38:09.04Z</time></trkpt><trkpt lat="43.8431767" lon="11.5158733"><ele>335.5</ele><time>2026-05-02T12:38:12.039Z</time></trkpt><trkpt lat="43.8431117" lon="11.5159083"><ele>337.0</ele><time>2026-05-02T12:38:14.042Z</time></trkpt><trkpt lat="43.84308" lon="11.516005"><ele>338.5</ele><time>2026-05-02T12:38:16.039Z</time></trkpt><trkpt lat="43.8430233" lon="11.5161083"><ele>340.0</ele><time>2026-05-02T12:38:18.037Z</time></trkpt><trkpt lat="43.84292" lon="11.5161817"><ele>341.5</ele><time>2026-05-02T12:38:20.041Z</time></trkpt><trkpt lat="43.8428567" lon="11.516215"><ele>343.0</ele><time>2026-05-02T12:38:21.04Z</time></trkpt><trkpt lat="43.8427783" lon="11.51625"><ele>343.0</ele><time>2026-05-02T12:38:22.04Z</time></trkpt><trkpt lat="43.84269" lon="11.51629"><ele>343.0</ele><time>2026-05-02T12:38:23.04Z</time></trkpt><trkpt lat="43.8426017" lon="11.5163317"><ele>343.0</ele><time>2026-05-02T12:38:24.039Z</time></trkpt><trkpt lat="43.8425217" lon="11.51639"><ele>343.0</ele><time>2026-05-02T12:38:25.04Z</time></trkpt><trkpt lat="43.84245" lon="11.5164583"><ele>343.0</ele><time>2026-05-02T12:38:26.042Z</time></trkpt><trkpt lat="43.8423833" lon="11.5165367"><ele>342.5</ele><time>2026-05-02T12:38:27.04Z</time></trkpt><trkpt lat="43.8423233" lon="11.5166183"><ele>342.0</ele><time>2026-05-02T12:38:28.039Z</time></trkpt><trkpt lat="43.8422667" lon="11.5167"><ele>341.5</ele><time>2026-05-02T12:38:29.041Z</time></trkpt><trkpt lat="43.8422133" lon="11.5167833"><ele>341.0</ele><time>2026-05-02T12:38:30.039Z</time></trkpt><trkpt lat="43.842155" lon="11.5168683"><ele>340.5</ele><time>2026-05-02T12:38:31.039Z</time></trkpt><trkpt lat="43.842095" lon="11.5169617"><ele>340.0</ele><time>2026-05-02T12:38:32.042Z</time></trkpt><trkpt lat="43.8420333" lon="11.5170483"><ele>343.5</ele><time>2026-05-02T12:38:33.038Z</time></trkpt><trkpt lat="43.8419783" lon="11.517135"><ele>347.0</ele><time>2026-05-02T12:38:34.042Z</time></trkpt><trkpt lat="43.8419333" lon="11.5172233"><ele>350.5</ele><time>2026-05-02T12:38:35.039Z</time></trkpt><trkpt lat="43.8419" lon="11.5173233"><ele>354.0</ele><time>2026-05-02T12:38:36.038Z</time></trkpt><trkpt lat="43.8418833" lon="11.5174383"><ele>357.5</ele><time>2026-05-02T12:38:37.042Z</time></trkpt><trkpt lat="43.841865" lon="11.517555"><ele>361.0</ele><time>2026-05-02T12:38:38.04Z</time></trkpt><trkpt lat="43.84183" lon="11.517675"><ele>361.6</ele><time>2026-05-02T12:38:39.039Z</time></trkpt><trkpt lat="43.8417783" lon="11.517795"><ele>362.20000000000005</ele><time>2026-05-02T12:38:40.039Z</time></trkpt><trkpt lat="43.8417167" lon="11.5179117"><ele>362.79999999999995</ele><time>2026-05-02T12:38:41.04Z</time></trkpt><trkpt lat="43.8416533" lon="11.5180217"><ele>363.4</ele><time>2026-05-02T12:38:42.04Z</time></trkpt><trkpt lat="43.8415933" lon="11.5180983"><ele>364.0</ele><time>2026-05-02T12:38:43.042Z</time></trkpt><trkpt lat="43.84154" lon="11.5181567"><ele>364.0</ele><time>2026-05-02T12:38:44.041Z</time></trkpt><trkpt lat="43.8414717" lon="11.51829"><ele>364.0</ele><time>2026-05-02T12:38:46.039Z</time></trkpt><trkpt lat="43.84144" lon="11.5183833"><ele>364.0</ele><time>2026-05-02T12:38:47.04Z</time></trkpt><trkpt lat="43.8413967" lon="11.51849"><ele>364.0</ele><time>2026-05-02T12:38:48.041Z</time></trkpt><trkpt lat="43.8413517" lon="11.51859"><ele>364.0</ele><time>2026-05-02T12:38:49.039Z</time></trkpt><trkpt lat="43.8413067" lon="11.518675"><ele>364.0</ele><time>2026-05-02T12:38:50.043Z</time></trkpt><trkpt lat="43.8412767" lon="11.51881"><ele>367.2</ele><time>2026-05-02T12:38:52.04Z</time></trkpt><trkpt lat="43.8413667" lon="11.5189467"><ele>370.4</ele><time>2026-05-02T12:38:54.039Z</time></trkpt><trkpt lat="43.84144" lon="11.5190117"><ele>373.6</ele><time>2026-05-02T12:38:55.039Z</time></trkpt><trkpt lat="43.8415333" lon="11.5190817"><ele>376.8</ele><time>2026-05-02T12:38:56.041Z</time></trkpt><trkpt lat="43.8416333" lon="11.5191567"><ele>380.0</ele><time>2026-05-02T12:38:57.039Z</time></trkpt><trkpt lat="43.8417317" lon="11.5192283"><ele>382.5</ele><time>2026-05-02T12:38:58.039Z</time></trkpt><trkpt lat="43.8418267" lon="11.519275"><ele>385.0</ele><time>2026-05-02T12:38:59.04Z</time></trkpt><trkpt lat="43.8419317" lon="11.5192983"><ele>387.5</ele><time>2026-05-02T12:39:00.04Z</time></trkpt><trkpt lat="43.842055" lon="11.5193083"><ele>390.0</ele><time>2026-05-02T12:39:01.039Z</time></trkpt><trkpt lat="43.8421817" lon="11.5193167"><ele>390.0</ele><time>2026-05-02T12:39:02.04Z</time></trkpt><trkpt lat="43.8422967" lon="11.5193167"><ele>390.0</ele><time>2026-05-02T12:39:03.039Z</time></trkpt><trkpt lat="43.842395" lon="11.5193067"><ele>390.0</ele><time>2026-05-02T12:39:04.039Z</time></trkpt><trkpt lat="43.8424783" lon="11.5192683"><ele>390.0</ele><time>2026-05-02T12:39:05.039Z</time></trkpt><trkpt lat="43.8425583" lon="11.519185"><ele>390.0</ele><time>2026-05-02T12:39:06.039Z</time></trkpt><trkpt lat="43.842635" lon="11.5190733"><ele>391.0</ele><time>2026-05-02T12:39:07.039Z</time></trkpt><trkpt lat="43.8427083" lon="11.5189683"><ele>392.0</ele><time>2026-05-02T12:39:08.041Z</time></trkpt><trkpt lat="43.842765" lon="11.51889"><ele>393.0</ele><time>2026-05-02T12:39:09.039Z</time></trkpt><trkpt lat="43.842815" lon="11.5188367"><ele>394.0</ele><time>2026-05-02T12:39:10.038Z</time></trkpt><trkpt lat="43.8429433" lon="11.5188183"><ele>395.0</ele><time>2026-05-02T12:39:12.039Z</time></trkpt><trkpt lat="43.8430283" lon="11.5187933"><ele>395.0</ele><time>2026-05-02T12:39:13.039Z</time></trkpt><trkpt lat="43.8431433" lon="11.518775"><ele>395.0</ele><time>2026-05-02T12:39:14.042Z</time></trkpt><trkpt lat="43.8432533" lon="11.5187633"><ele>395.0</ele><time>2026-05-02T12:39:15.04Z</time></trkpt><trkpt lat="43.8433667" lon="11.518765"><ele>395.0</ele><time>2026-05-02T12:39:16.04Z</time></trkpt><trkpt lat="43.84347" lon="11.5187667"><ele>395.0</ele><time>2026-05-02T12:39:17.04Z</time></trkpt><trkpt lat="43.8435667" lon="11.51878"><ele>393.0</ele><time>2026-05-02T12:39:18.04Z</time></trkpt><trkpt lat="43.843645" lon="11.518815"><ele>391.0</ele><time>2026-05-02T12:39:19.04Z</time></trkpt><trkpt lat="43.843725" lon="11.5188683"><ele>389.0</ele><time>2026-05-02T12:39:20.041Z</time></trkpt><trkpt lat="43.8437933" lon="11.518955"><ele>387.0</ele><time>2026-05-02T12:39:21.039Z</time></trkpt><trkpt lat="43.8438667" lon="11.5190733"><ele>385.0</ele><time>2026-05-02T12:39:22.039Z</time></trkpt><trkpt lat="43.8439483" lon="11.5191533"><ele>385.0</ele><time>2026-05-02T12:39:23.041Z</time></trkpt><trkpt lat="43.844045" lon="11.5192233"><ele>385.0</ele><time>2026-05-02T12:39:24.04Z</time></trkpt><trkpt lat="43.8441417" lon="11.51929"><ele>385.0</ele><time>2026-05-02T12:39:25.04Z</time></trkpt><trkpt lat="43.844235" lon="11.519365"><ele>385.0</ele><time>2026-05-02T12:39:26.037Z</time></trkpt><trkpt lat="43.8443083" lon="11.5194483"><ele>385.0</ele><time>2026-05-02T12:39:27.042Z</time></trkpt><trkpt lat="43.84438" lon="11.5195467"><ele>384.75</ele><time>2026-05-02T12:39:28.04Z</time></trkpt><trkpt lat="43.8444567" lon="11.5196633"><ele>384.5</ele><time>2026-05-02T12:39:29.043Z</time></trkpt><trkpt lat="43.844535" lon="11.519795"><ele>384.25</ele><time>2026-05-02T12:39:30.039Z</time></trkpt><trkpt lat="43.8446167" lon="11.5199317"><ele>384.0</ele><time>2026-05-02T12:39:31.04Z</time></trkpt><trkpt lat="43.8446983" lon="11.52007"><ele>384.0</ele><time>2026-05-02T12:39:32.042Z</time></trkpt><trkpt lat="43.84477" lon="11.5202"><ele>384.0</ele><time>2026-05-02T12:39:33.039Z</time></trkpt><trkpt lat="43.84483" lon="11.520315"><ele>384.0</ele><time>2026-05-02T12:39:34.039Z</time></trkpt><trkpt lat="43.8448733" lon="11.52042"><ele>384.0</ele><time>2026-05-02T12:39:35.041Z</time></trkpt><trkpt lat="43.8449033" lon="11.5205233"><ele>384.0</ele><time>2026-05-02T12:39:36.039Z</time></trkpt><trkpt lat="43.8449067" lon="11.5206117"><ele>385.3333333333333</ele><time>2026-05-02T12:39:37.04Z</time></trkpt><trkpt lat="43.8448517" lon="11.5207383"><ele>386.66666666666663</ele><time>2026-05-02T12:39:39.039Z</time></trkpt><trkpt lat="43.8447417" lon="11.5207883"><ele>388.0</ele><time>2026-05-02T12:39:41.04Z</time></trkpt><trkpt lat="43.8446783" lon="11.5207817"><ele>389.3333333333333</ele><time>2026-05-02T12:39:42.042Z</time></trkpt><trkpt lat="43.8446083" lon="11.5207633"><ele>390.66666666666663</ele><time>2026-05-02T12:39:43.041Z</time></trkpt><trkpt lat="43.8445267" lon="11.5207267"><ele>392.0</ele><time>2026-05-02T12:39:44.042Z</time></trkpt><trkpt lat="43.8444483" lon="11.5206767"><ele>391.99999999999994</ele><time>2026-05-02T12:39:45.04Z</time></trkpt><trkpt lat="43.8443717" lon="11.5206217"><ele>392.0</ele><time>2026-05-02T12:39:46.037Z</time></trkpt><trkpt lat="43.84429" lon="11.5205517"><ele>392.0</ele><time>2026-05-02T12:39:47.039Z</time></trkpt><trkpt lat="43.8442117" lon="11.5204967"><ele>392.0</ele><time>2026-05-02T12:39:48.038Z</time></trkpt><trkpt lat="43.8441317" lon="11.5204567"><ele>391.99999999999994</ele><time>2026-05-02T12:39:49.041Z</time></trkpt><trkpt lat="43.844055" lon="11.52044"><ele>392.0</ele><time>2026-05-02T12:39:50.042Z</time></trkpt><trkpt lat="43.843985" lon="11.5204433"><ele>395.8333333333333</ele><time>2026-05-02T12:39:51.039Z</time></trkpt><trkpt lat="43.84392" lon="11.5204533"><ele>399.66666666666663</ele><time>2026-05-02T12:39:52.042Z</time></trkpt><trkpt lat="43.8438567" lon="11.5204867"><ele>403.5</ele><time>2026-05-02T12:39:53.041Z</time></trkpt><trkpt lat="43.8438133" lon="11.52062"><ele>407.33333333333337</ele><time>2026-05-02T12:39:55.041Z</time></trkpt><trkpt lat="43.84374" lon="11.520685"><ele>411.1666666666667</ele><time>2026-05-02T12:39:57.04Z</time></trkpt><trkpt lat="43.84363" lon="11.5206733"><ele>415.0</ele><time>2026-05-02T12:39:59.041Z</time></trkpt><trkpt lat="43.84355" lon="11.5206767"><ele>418.25</ele><time>2026-05-02T12:40:00.04Z</time></trkpt><trkpt lat="43.843455" lon="11.520705"><ele>421.5</ele><time>2026-05-02T12:40:01.04Z</time></trkpt><trkpt lat="43.843345" lon="11.5207483"><ele>424.75</ele><time>2026-05-02T12:40:02.042Z</time></trkpt><trkpt lat="43.8432317" lon="11.52079"><ele>428.0</ele><time>2026-05-02T12:40:03.039Z</time></trkpt><trkpt lat="43.8431167" lon="11.5208433"><ele>428.0</ele><time>2026-05-02T12:40:04.041Z</time></trkpt><trkpt lat="43.843" lon="11.52089"><ele>427.99999999999994</ele><time>2026-05-02T12:40:05.04Z</time></trkpt><trkpt lat="43.8429017" lon="11.52093"><ele>427.99999999999994</ele><time>2026-05-02T12:40:06.039Z</time></trkpt><trkpt lat="43.8428233" lon="11.5209817"><ele>428.0</ele><time>2026-05-02T12:40:07.041Z</time></trkpt><trkpt lat="43.8427733" lon="11.521055"><ele>428.0</ele><time>2026-05-02T12:40:08.041Z</time></trkpt><trkpt lat="43.842745" lon="11.5211417"><ele>430.4</ele><time>2026-05-02T12:40:09.044Z</time></trkpt><trkpt lat="43.8427383" lon="11.5212333"><ele>432.79999999999995</ele><time>2026-05-02T12:40:10.039Z</time></trkpt><trkpt lat="43.8427917" lon="11.521345"><ele>435.2</ele><time>2026-05-02T12:40:11.039Z</time></trkpt><trkpt lat="43.8428317" lon="11.5214567"><ele>437.6</ele><time>2026-05-02T12:40:12.039Z</time></trkpt><trkpt lat="43.842885" lon="11.5215983"><ele>440.0</ele><time>2026-05-02T12:40:13.041Z</time></trkpt><trkpt lat="43.84294" lon="11.5217517"><ele>440.0</ele><time>2026-05-02T12:40:14.041Z</time></trkpt><trkpt lat="43.8429933" lon="11.52191"><ele>440.0</ele><time>2026-05-02T12:40:15.042Z</time></trkpt><trkpt lat="43.843045" lon="11.522075"><ele>440.0</ele><time>2026-05-02T12:40:16.04Z</time></trkpt><trkpt lat="43.8430983" lon="11.5222317"><ele>440.0</ele><time>2026-05-02T12:40:17.041Z</time></trkpt><trkpt lat="43.84314" lon="11.5223667"><ele>441.6</ele><time>2026-05-02T12:40:18.038Z</time></trkpt><trkpt lat="43.8431567" lon="11.5224767"><ele>443.2</ele><time>2026-05-02T12:40:19.042Z</time></trkpt><trkpt lat="43.8431567" lon="11.5225683"><ele>444.79999999999995</ele><time>2026-05-02T12:40:20.041Z</time></trkpt><trkpt lat="43.8430633" lon="11.5226533"><ele>446.4</ele><time>2026-05-02T12:40:22.041Z</time></trkpt><trkpt lat="43.8429817" lon="11.5226583"><ele>448.0</ele><time>2026-05-02T12:40:23.043Z</time></trkpt><trkpt lat="43.8428717" lon="11.522645"><ele>448.0</ele><time>2026-05-02T12:40:24.046Z</time></trkpt><trkpt lat="43.8427667" lon="11.52264"><ele>447.99999999999994</ele><time>2026-05-02T12:40:25.042Z</time></trkpt><trkpt lat="43.84266" lon="11.5226383"><ele>447.99999999999994</ele><time>2026-05-02T12:40:26.044Z</time></trkpt><trkpt lat="43.842555" lon="11.5226367"><ele>448.0</ele><time>2026-05-02T12:40:27.044Z</time></trkpt><trkpt lat="43.8424517" lon="11.5226417"><ele>448.0</ele><time>2026-05-02T12:40:28.04Z</time></trkpt><trkpt lat="43.8423417" lon="11.5226383"><ele>450.59999999999997</ele><time>2026-05-02T12:40:29.041Z</time></trkpt><trkpt lat="43.8422317" lon="11.5226333"><ele>453.19999999999993</ele><time>2026-05-02T12:40:30.04Z</time></trkpt><trkpt lat="43.842135" lon="11.5226367"><ele>455.8</ele><time>2026-05-02T12:40:31.039Z</time></trkpt><trkpt lat="43.8420583" lon="11.52263"><ele>458.4</ele><time>2026-05-02T12:40:32.041Z</time></trkpt><trkpt lat="43.8419783" lon="11.5226167"><ele>461.0</ele><time>2026-05-02T12:40:34.039Z</time></trkpt><trkpt lat="43.8420117" lon="11.5227433"><ele>460.99999999999994</ele><time>2026-05-02T12:44:16.039Z</time></trkpt><trkpt lat="43.8420167" lon="11.522855"><ele>461.0</ele><time>2026-05-02T12:44:18.04Z</time></trkpt><trkpt lat="43.8419883" lon="11.5229767"><ele>461.0</ele><time>2026-05-02T12:44:20.041Z</time></trkpt><trkpt lat="43.8419867" lon="11.523105"><ele>461.0</ele><time>2026-05-02T12:44:22.039Z</time></trkpt><trkpt lat="43.84203" lon="11.523215"><ele>460.99999999999994</ele><time>2026-05-02T12:44:24.039Z</time></trkpt><trkpt lat="43.8420217" lon="11.5233067"><ele>461.0</ele><time>2026-05-02T12:44:26.042Z</time></trkpt><trkpt lat="43.841975" lon="11.5233667"><ele>463.16666666666663</ele><time>2026-05-02T12:44:28.04Z</time></trkpt><trkpt lat="43.84191" lon="11.52348"><ele>465.3333333333333</ele><time>2026-05-02T12:44:30.041Z</time></trkpt><trkpt lat="43.8418733" lon="11.5235633"><ele>467.5</ele><time>2026-05-02T12:44:31.04Z</time></trkpt><trkpt lat="43.8418317" lon="11.5236333"><ele>469.66666666666663</ele><time>2026-05-02T12:44:32.042Z</time></trkpt><trkpt lat="43.8417833" lon="11.5237133"><ele>471.8333333333333</ele><time>2026-05-02T12:44:33.039Z</time></trkpt><trkpt lat="43.84173" lon="11.5238017"><ele>474.0</ele><time>2026-05-02T12:44:34.039Z</time></trkpt><trkpt lat="43.8416767" lon="11.5238883"><ele>476.8571428571428</ele><time>2026-05-02T12:44:35.04Z</time></trkpt><trkpt lat="43.8416267" lon="11.5239817"><ele>479.71428571428567</ele><time>2026-05-02T12:44:36.04Z</time></trkpt><trkpt lat="43.8415817" lon="11.5240683"><ele>482.57142857142856</ele><time>2026-05-02T12:44:37.039Z</time></trkpt><trkpt lat="43.841545" lon="11.524155"><ele>485.4285714285714</ele><time>2026-05-02T12:44:38.042Z</time></trkpt><trkpt lat="43.8415083" lon="11.524235"><ele>488.2857142857142</ele><time>2026-05-02T12:44:39.039Z</time></trkpt><trkpt lat="43.8414817" lon="11.524325"><ele>491.14285714285717</ele><time>2026-05-02T12:44:40.039Z</time></trkpt><trkpt lat="43.841455" lon="11.5244117"><ele>494.0</ele><time>2026-05-02T12:44:41.039Z</time></trkpt><trkpt lat="43.84139" lon="11.5245483"><ele>494.2</ele><time>2026-05-02T12:44:43.04Z</time></trkpt><trkpt lat="43.8413133" lon="11.52467"><ele>494.4</ele><time>2026-05-02T12:44:45.039Z</time></trkpt><trkpt lat="43.841275" lon="11.5247417"><ele>494.6</ele><time>2026-05-02T12:44:46.04Z</time></trkpt><trkpt lat="43.841185" lon="11.52486"><ele>494.8</ele><time>2026-05-02T12:44:48.041Z</time></trkpt><trkpt lat="43.8410767" lon="11.52493"><ele>495.0</ele><time>2026-05-02T12:44:50.043Z</time></trkpt><trkpt lat="43.8409567" lon="11.52498"><ele>497.0</ele><time>2026-05-02T12:44:52.039Z</time></trkpt><trkpt lat="43.8408567" lon="11.5250583"><ele>499.0</ele><time>2026-05-02T12:44:54.037Z</time></trkpt><trkpt lat="43.840785" lon="11.525215"><ele>501.0</ele><time>2026-05-02T12:44:56.041Z</time></trkpt><trkpt lat="43.8407467" lon="11.52531"><ele>503.0</ele><time>2026-05-02T12:44:57.039Z</time></trkpt><trkpt lat="43.840705" lon="11.5253933"><ele>505.0</ele><time>2026-05-02T12:44:58.04Z</time></trkpt><trkpt lat="43.840655" lon="11.52547"><ele>505.71428571428567</ele><time>2026-05-02T12:44:59.04Z</time></trkpt><trkpt lat="43.840605" lon="11.525545"><ele>506.4285714285714</ele><time>2026-05-02T12:45:00.039Z</time></trkpt><trkpt lat="43.8405567" lon="11.5256133"><ele>507.1428571428571</ele><time>2026-05-02T12:45:01.039Z</time></trkpt><trkpt lat="43.840515" lon="11.52569"><ele>507.8571428571429</ele><time>2026-05-02T12:45:02.041Z</time></trkpt><trkpt lat="43.8404783" lon="11.5257783"><ele>508.5714285714286</ele><time>2026-05-02T12:45:03.04Z</time></trkpt><trkpt lat="43.840445" lon="11.5258733"><ele>509.28571428571433</ele><time>2026-05-02T12:45:04.039Z</time></trkpt><trkpt lat="43.840415" lon="11.5259683"><ele>510.0</ele><time>2026-05-02T12:45:05.04Z</time></trkpt><trkpt lat="43.8403888" lon="11.5260665"><ele>510.0</ele><time>2026-05-02T12:45:06.043Z</time></trkpt><trkpt lat="43.8403612" lon="11.5261607"><ele>510.0</ele><time>2026-05-02T12:45:07.039Z</time></trkpt><trkpt lat="43.8403376" lon="11.5262565"><ele>510.0</ele><time>2026-05-02T12:45:08.042Z</time></trkpt><trkpt lat="43.8403219" lon="11.5263512"><ele>510.0</ele><time>2026-05-02T12:45:09.039Z</time></trkpt><trkpt lat="43.8402577" lon="11.5264922"><ele>510.0</ele><time>2026-05-02T12:45:11.044Z</time></trkpt><trkpt lat="43.8401572" lon="11.5265584"><ele>510.0</ele><time>2026-05-02T12:45:13.041Z</time></trkpt><trkpt lat="43.8400917" lon="11.5265917"><ele>513.5</ele><time>2026-05-02T12:45:15.04Z</time></trkpt><trkpt lat="43.84002" lon="11.526615"><ele>517.0</ele><time>2026-05-02T12:45:18.041Z</time></trkpt><trkpt lat="43.8399199" lon="11.5267501"><ele>520.5</ele><time>2026-05-02T12:45:22.048Z</time></trkpt><trkpt lat="43.8398616" lon="11.5268117"><ele>524.0</ele><time>2026-05-02T12:45:23.041Z</time></trkpt><trkpt lat="43.8398166" lon="11.5268853"><ele>527.5</ele><time>2026-05-02T12:45:24.039Z</time></trkpt><trkpt lat="43.8397776" lon="11.5269655"><ele>531.0</ele><time>2026-05-02T12:45:25.039Z</time></trkpt><trkpt lat="43.8397349" lon="11.5270518"><ele>532.2857142857143</ele><time>2026-05-02T12:45:26.041Z</time></trkpt><trkpt lat="43.8397004" lon="11.5271405"><ele>533.5714285714287</ele><time>2026-05-02T12:45:27.04Z</time></trkpt><trkpt lat="43.8396763" lon="11.5272394"><ele>534.8571428571429</ele><time>2026-05-02T12:45:28.04Z</time></trkpt><trkpt lat="43.8396574" lon="11.5273415"><ele>536.1428571428571</ele><time>2026-05-02T12:45:29.04Z</time></trkpt><trkpt lat="43.8396388" lon="11.5274343"><ele>537.4285714285713</ele><time>2026-05-02T12:45:30.041Z</time></trkpt><trkpt lat="43.8396272" lon="11.5275241"><ele>538.7142857142857</ele><time>2026-05-02T12:45:31.039Z</time></trkpt><trkpt lat="43.83963" lon="11.5276117"><ele>540.0</ele><time>2026-05-02T12:45:32.042Z</time></trkpt><trkpt lat="43.8396467" lon="11.52778"><ele>541.2</ele><time>2026-05-02T12:45:34.039Z</time></trkpt><trkpt lat="43.8396533" lon="11.5279317"><ele>542.4</ele><time>2026-05-02T12:45:36.039Z</time></trkpt><trkpt lat="43.8396683" lon="11.5280917"><ele>543.6</ele><time>2026-05-02T12:45:38.042Z</time></trkpt><trkpt lat="43.839625" lon="11.5281917"><ele>544.8</ele><time>2026-05-02T12:45:40.123Z</time></trkpt><trkpt lat="43.8395763" lon="11.5282784"><ele>546.0</ele><time>2026-05-02T12:45:42.039Z</time></trkpt><trkpt lat="43.8395231" lon="11.5283789"><ele>546.0</ele><time>2026-05-02T12:45:44.043Z</time></trkpt><trkpt lat="43.8394673" lon="11.5284839"><ele>546.0</ele><time>2026-05-02T12:45:46.031Z</time></trkpt><trkpt lat="43.8394457" lon="11.5285871"><ele>546.0</ele><time>2026-05-02T12:45:48.04Z</time></trkpt><trkpt lat="43.8394393" lon="11.5287097"><ele>546.0</ele><time>2026-05-02T12:45:50.042Z</time></trkpt><trkpt lat="43.8394247" lon="11.5288299"><ele>546.0</ele><time>2026-05-02T12:45:52.04Z</time></trkpt><trkpt lat="43.8394167" lon="11.5289605"><ele>546.0</ele><time>2026-05-02T12:45:54.039Z</time></trkpt><trkpt lat="43.8393782" lon="11.5290476"><ele>551.5</ele><time>2026-05-02T12:45:56.042Z</time></trkpt><trkpt lat="43.8392981" lon="11.5290335"><ele>557.0</ele><time>2026-05-02T12:45:58.04Z</time></trkpt><trkpt lat="43.8392134" lon="11.5290257"><ele>562.5</ele><time>2026-05-02T12:46:00.043Z</time></trkpt><trkpt lat="43.8391858" lon="11.5291533"><ele>568.0</ele><time>2026-05-02T12:46:03.039Z</time></trkpt><trkpt lat="43.8391952" lon="11.5292632"><ele>573.5</ele><time>2026-05-02T12:46:05.041Z</time></trkpt><trkpt lat="43.8392122" lon="11.5293919"><ele>579.0</ele><time>2026-05-02T12:46:08.042Z</time></trkpt><trkpt lat="43.8392308" lon="11.5295197"><ele>580.8333333333334</ele><time>2026-05-02T12:46:10.04Z</time></trkpt><trkpt lat="43.8392801" lon="11.5296685"><ele>582.6666666666666</ele><time>2026-05-02T12:46:12.039Z</time></trkpt><trkpt lat="43.8392958" lon="11.5298062"><ele>584.5</ele><time>2026-05-02T12:46:14.042Z</time></trkpt><trkpt lat="43.8392611" lon="11.5298975"><ele>586.3333333333333</ele><time>2026-05-02T12:46:16.041Z</time></trkpt><trkpt lat="43.8392126" lon="11.5299903"><ele>588.1666666666666</ele><time>2026-05-02T12:46:18.039Z</time></trkpt><trkpt lat="43.8391717" lon="11.530073"><ele>590.0</ele><time>2026-05-02T12:46:20.044Z</time></trkpt><trkpt lat="43.839157" lon="11.5301693"><ele>590.0</ele><time>2026-05-02T12:46:22.04Z</time></trkpt><trkpt lat="43.8391514" lon="11.5302707"><ele>590.0</ele><time>2026-05-02T12:46:24.042Z</time></trkpt><trkpt lat="43.8391287" lon="11.5303543"><ele>590.0</ele><time>2026-05-02T12:46:26.043Z</time></trkpt><trkpt lat="43.8390855" lon="11.5304583"><ele>590.0</ele><time>2026-05-02T12:46:28.039Z</time></trkpt><trkpt lat="43.8390167" lon="11.5305323"><ele>590.0</ele><time>2026-05-02T12:46:30.04Z</time></trkpt><trkpt lat="43.8389036" lon="11.5305447"><ele>590.0</ele><time>2026-05-02T12:46:32.042Z</time></trkpt><trkpt lat="43.8388165" lon="11.5305324"><ele>591.6</ele><time>2026-05-02T12:46:34.03Z</time></trkpt><trkpt lat="43.8387477" lon="11.5305512"><ele>593.2</ele><time>2026-05-02T12:46:37.125Z</time></trkpt><trkpt lat="43.8386521" lon="11.5304938"><ele>594.8</ele><time>2026-05-02T12:46:38.059Z</time></trkpt><trkpt lat="43.8385863" lon="11.5305701"><ele>596.4</ele><time>2026-05-02T12:46:39.964Z</time></trkpt><trkpt lat="43.8385006" lon="11.5306642"><ele>598.0</ele><time>2026-05-02T12:46:42.064Z</time></trkpt><trkpt lat="43.8383814" lon="11.5306698"><ele>603.0</ele><time>2026-05-02T12:46:44.066Z</time></trkpt><trkpt lat="43.8381617" lon="11.5307867"><ele>608.0</ele><time>2026-05-02T12:46:47.041Z</time></trkpt><trkpt lat="43.8380717" lon="11.530895"><ele>613.0</ele><time>2026-05-02T12:46:49.042Z</time></trkpt><trkpt lat="43.8379933" lon="11.5309767"><ele>613.0</ele><time>2026-05-02T12:46:51.042Z</time></trkpt><trkpt lat="43.8379467" lon="11.53104"><ele>613.0</ele><time>2026-05-02T12:46:53.042Z</time></trkpt><trkpt lat="43.8378717" lon="11.531135"><ele>613.0</ele><time>2026-05-02T12:46:56.042Z</time></trkpt><trkpt lat="43.8377967" lon="11.53119"><ele>613.0</ele><time>2026-05-02T12:46:58.04Z</time></trkpt><trkpt lat="43.837715" lon="11.5312717"><ele>613.0</ele><time>2026-05-02T12:47:00.043Z</time></trkpt><trkpt lat="43.8376333" lon="11.5313283"><ele>613.0</ele><time>2026-05-02T12:47:02.042Z</time></trkpt><trkpt lat="43.8375767" lon="11.5313917"><ele>614.6</ele><time>2026-05-02T12:47:04.04Z</time></trkpt><trkpt lat="43.8375567" lon="11.5314833"><ele>616.1999999999999</ele><time>2026-05-02T12:47:06.029Z</time></trkpt><trkpt lat="43.8376017" lon="11.53155"><ele>617.8</ele><time>2026-05-02T12:47:09.038Z</time></trkpt><trkpt lat="43.8377" lon="11.5315967"><ele>619.4</ele><time>2026-05-02T12:47:11.04Z</time></trkpt><trkpt lat="43.8378033" lon="11.5316533"><ele>621.0</ele><time>2026-05-02T12:47:13.039Z</time></trkpt><trkpt lat="43.8378767" lon="11.5317817"><ele>621.0</ele><time>2026-05-02T12:47:15.039Z</time></trkpt><trkpt lat="43.8379083" lon="11.53196"><ele>621.0</ele><time>2026-05-02T12:47:17.042Z</time></trkpt><trkpt lat="43.8379167" lon="11.5320583"><ele>621.0</ele><time>2026-05-02T12:47:18.042Z</time></trkpt><trkpt lat="43.8379233" lon="11.53216"><ele>621.0</ele><time>2026-05-02T12:47:19.042Z</time></trkpt><trkpt lat="43.837945" lon="11.5322617"><ele>621.0</ele><time>2026-05-02T12:47:20.043Z</time></trkpt><trkpt lat="43.837965" lon="11.532345"><ele>621.0</ele><time>2026-05-02T12:47:21.04Z</time></trkpt><trkpt lat="43.83796" lon="11.5324767"><ele>621.1428571428571</ele><time>2026-05-02T12:47:23.041Z</time></trkpt><trkpt lat="43.837895" lon="11.53254"><ele>621.2857142857142</ele><time>2026-05-02T12:47:25.04Z</time></trkpt><trkpt lat="43.8378267" lon="11.5325867"><ele>621.4285714285713</ele><time>2026-05-02T12:47:27.037Z</time></trkpt><trkpt lat="43.837765" lon="11.5326217"><ele>621.5714285714286</ele><time>2026-05-02T12:47:29.042Z</time></trkpt><trkpt lat="43.837695" lon="11.5326583"><ele>621.7142857142858</ele><time>2026-05-02T12:47:31.04Z</time></trkpt><trkpt lat="43.8376183" lon="11.5326717"><ele>621.8571428571428</ele><time>2026-05-02T12:47:33.039Z</time></trkpt><trkpt lat="43.8375667" lon="11.5327433"><ele>622.0</ele><time>2026-05-02T12:47:35.04Z</time></trkpt><trkpt lat="43.83754" lon="11.5328517"><ele>626.8333333333334</ele><time>2026-05-02T12:47:37.04Z</time></trkpt><trkpt lat="43.8374883" lon="11.53294"><ele>631.6666666666667</ele><time>2026-05-02T12:47:39.04Z</time></trkpt><trkpt lat="43.8374233" lon="11.5330233"><ele>636.5</ele><time>2026-05-02T12:47:41.04Z</time></trkpt><trkpt lat="43.8373467" lon="11.5330967"><ele>641.3333333333334</ele><time>2026-05-02T12:47:43.039Z</time></trkpt><trkpt lat="43.83727" lon="11.5331333"><ele>646.1666666666666</ele><time>2026-05-02T12:47:45.04Z</time></trkpt><trkpt lat="43.8371817" lon="11.5331398"><ele>651.0</ele><time>2026-05-02T12:47:47.044Z</time></trkpt><trkpt lat="43.8371138" lon="11.5331788"><ele>651.0</ele><time>2026-05-02T12:47:49.046Z</time></trkpt><trkpt lat="43.8370541" lon="11.5332071"><ele>651.0</ele><time>2026-05-02T12:47:51.049Z</time></trkpt><trkpt lat="43.836977" lon="11.5332245"><ele>651.0</ele><time>2026-05-02T12:47:53.105Z</time></trkpt><trkpt lat="43.8369155" lon="11.53334"><ele>651.0</ele><time>2026-05-02T12:47:55.04Z</time></trkpt><trkpt lat="43.8368444" lon="11.5334389"><ele>651.0</ele><time>2026-05-02T12:47:57.042Z</time></trkpt><trkpt lat="43.8367591" lon="11.5334768"><ele>651.0</ele><time>2026-05-02T12:47:59.031Z</time></trkpt><trkpt lat="43.8366789" lon="11.5334721"><ele>654.1666666666666</ele><time>2026-05-02T12:48:01.041Z</time></trkpt><trkpt lat="43.8365794" lon="11.5334414"><ele>657.3333333333334</ele><time>2026-05-02T12:48:03.039Z</time></trkpt><trkpt lat="43.8364813" lon="11.5334913"><ele>660.5</ele><time>2026-05-02T12:48:05.04Z</time></trkpt><trkpt lat="43.8364342" lon="11.533559"><ele>663.6666666666667</ele><time>2026-05-02T12:48:06.039Z</time></trkpt><trkpt lat="43.8363876" lon="11.5336525"><ele>666.8333333333334</ele><time>2026-05-02T12:48:07.039Z</time></trkpt><trkpt lat="43.8363469" lon="11.5337574"><ele>670.0</ele><time>2026-05-02T12:48:08.04Z</time></trkpt><trkpt lat="43.836313" lon="11.5338724"><ele>670.0</ele><time>2026-05-02T12:48:09.039Z</time></trkpt><trkpt lat="43.8362896" lon="11.5339906"><ele>670.0</ele><time>2026-05-02T12:48:10.038Z</time></trkpt><trkpt lat="43.8362666" lon="11.5340918"><ele>670.0</ele><time>2026-05-02T12:48:11.038Z</time></trkpt><trkpt lat="43.8362401" lon="11.5341772"><ele>670.0</ele><time>2026-05-02T12:48:12.039Z</time></trkpt><trkpt lat="43.8361721" lon="11.5343096"><ele>670.0</ele><time>2026-05-02T12:48:14.04Z</time></trkpt><trkpt lat="43.8361347" lon="11.5343878"><ele>670.0</ele><time>2026-05-02T12:48:15.04Z</time></trkpt><trkpt lat="43.8360999" lon="11.5344654"><ele>670.0</ele><time>2026-05-02T12:48:16.04Z</time></trkpt><trkpt lat="43.8360544" lon="11.5345456"><ele>670.0</ele><time>2026-05-02T12:48:17.039Z</time></trkpt><trkpt lat="43.8360042" lon="11.5346272"><ele>670.0</ele><time>2026-05-02T12:48:18.029Z</time></trkpt><trkpt lat="43.8359702" lon="11.5347183"><ele>670.0</ele><time>2026-05-02T12:48:19.04Z</time></trkpt><trkpt lat="43.8359522" lon="11.5348152"><ele>670.0</ele><time>2026-05-02T12:48:20.042Z</time></trkpt><trkpt lat="43.8359469" lon="11.5349239"><ele>670.0</ele><time>2026-05-02T12:48:21.038Z</time></trkpt><trkpt lat="43.8359473" lon="11.5350387"><ele>672.6666666666667</ele><time>2026-05-02T12:48:22.04Z</time></trkpt><trkpt lat="43.8359453" lon="11.5351537"><ele>675.3333333333334</ele><time>2026-05-02T12:48:23.04Z</time></trkpt><trkpt lat="43.8359454" lon="11.535272"><ele>678.0</ele><time>2026-05-02T12:48:24.038Z</time></trkpt><trkpt lat="43.8359419" lon="11.5353978"><ele>680.6666666666666</ele><time>2026-05-02T12:48:25.04Z</time></trkpt><trkpt lat="43.8359319" lon="11.5355227"><ele>683.3333333333333</ele><time>2026-05-02T12:48:26.043Z</time></trkpt><trkpt lat="43.8359255" lon="11.5356496"><ele>686.0</ele><time>2026-05-02T12:48:27.038Z</time></trkpt><trkpt lat="43.8359259" lon="11.5357787"><ele>686.6666666666666</ele><time>2026-05-02T12:48:28.04Z</time></trkpt><trkpt lat="43.8359373" lon="11.5359017"><ele>687.3333333333333</ele><time>2026-05-02T12:48:29.041Z</time></trkpt><trkpt lat="43.8359518" lon="11.5360086"><ele>688.0</ele><time>2026-05-02T12:48:30.042Z</time></trkpt><trkpt lat="43.8359664" lon="11.5360967"><ele>688.6666666666666</ele><time>2026-05-02T12:48:31.039Z</time></trkpt><trkpt lat="43.8359597" lon="11.5361952"><ele>689.3333333333334</ele><time>2026-05-02T12:48:33.029Z</time></trkpt><trkpt lat="43.835885" lon="11.5362767"><ele>690.0</ele><time>2026-05-02T12:52:41.029Z</time></trkpt><trkpt lat="43.8358517" lon="11.536395"><ele>691.0</ele><time>2026-05-02T12:52:43.04Z</time></trkpt><trkpt lat="43.8357817" lon="11.5365417"><ele>692.0</ele><time>2026-05-02T12:52:45.039Z</time></trkpt><trkpt lat="43.8357333" lon="11.5366233"><ele>693.0</ele><time>2026-05-02T12:52:46.04Z</time></trkpt><trkpt lat="43.8356683" lon="11.536695"><ele>694.0</ele><time>2026-05-02T12:52:47.043Z</time></trkpt><trkpt lat="43.8356033" lon="11.5367667"><ele>695.0</ele><time>2026-05-02T12:52:48.041Z</time></trkpt><trkpt lat="43.8355467" lon="11.53684"><ele>696.0</ele><time>2026-05-02T12:52:49.041Z</time></trkpt><trkpt lat="43.8355233" lon="11.5369317"><ele>696.0</ele><time>2026-05-02T12:52:50.043Z</time></trkpt><trkpt lat="43.8355167" lon="11.53703"><ele>696.0</ele><time>2026-05-02T12:52:51.039Z</time></trkpt><trkpt lat="43.835505" lon="11.537135"><ele>696.0</ele><time>2026-05-02T12:52:52.04Z</time></trkpt><trkpt lat="43.8355" lon="11.5372467"><ele>696.0</ele><time>2026-05-02T12:52:53.043Z</time></trkpt><trkpt lat="43.835485" lon="11.5373633"><ele>696.0</ele><time>2026-05-02T12:52:54.04Z</time></trkpt><trkpt lat="43.83545" lon="11.5374667"><ele>696.0</ele><time>2026-05-02T12:52:55.041Z</time></trkpt><trkpt lat="43.8354017" lon="11.5375633"><ele>695.6666666666666</ele><time>2026-05-02T12:52:56.042Z</time></trkpt><trkpt lat="43.8353483" lon="11.5376633"><ele>695.3333333333334</ele><time>2026-05-02T12:52:57.04Z</time></trkpt><trkpt lat="43.835305" lon="11.5377683"><ele>695.0</ele><time>2026-05-02T12:52:58.042Z</time></trkpt><trkpt lat="43.8352667" lon="11.5378833"><ele>694.6666666666667</ele><time>2026-05-02T12:52:59.04Z</time></trkpt><trkpt lat="43.8352433" lon="11.5380017"><ele>694.3333333333334</ele><time>2026-05-02T12:53:00.04Z</time></trkpt><trkpt lat="43.8352417" lon="11.53812"><ele>694.0</ele><time>2026-05-02T12:53:01.04Z</time></trkpt><trkpt lat="43.8352617" lon="11.5382467"><ele>694.0</ele><time>2026-05-02T12:53:02.04Z</time></trkpt><trkpt lat="43.8352733" lon="11.53838"><ele>694.0</ele><time>2026-05-02T12:53:03.04Z</time></trkpt><trkpt lat="43.835275" lon="11.5385033"><ele>694.0</ele><time>2026-05-02T12:53:04.039Z</time></trkpt><trkpt lat="43.8352483" lon="11.5386183"><ele>694.0</ele><time>2026-05-02T12:53:05.04Z</time></trkpt><trkpt lat="43.835195" lon="11.5387167"><ele>694.0</ele><time>2026-05-02T12:53:06.04Z</time></trkpt><trkpt lat="43.8351267" lon="11.5388183"><ele>697.4000000000001</ele><time>2026-05-02T12:53:07.04Z</time></trkpt><trkpt lat="43.8350383" lon="11.5389083"><ele>700.8</ele><time>2026-05-02T12:53:08.042Z</time></trkpt><trkpt lat="43.8349433" lon="11.5390033"><ele>704.2</ele><time>2026-05-02T12:53:09.039Z</time></trkpt><trkpt lat="43.8348483" lon="11.53908"><ele>707.5999999999999</ele><time>2026-05-02T12:53:10.04Z</time></trkpt><trkpt lat="43.8347667" lon="11.5391567"><ele>711.0</ele><time>2026-05-02T12:53:11.042Z</time></trkpt><trkpt lat="43.8346967" lon="11.5392267"><ele>711.0</ele><time>2026-05-02T12:53:12.042Z</time></trkpt><trkpt lat="43.83463" lon="11.539295"><ele>711.0</ele><time>2026-05-02T12:53:13.042Z</time></trkpt><trkpt lat="43.8345667" lon="11.5393633"><ele>711.0</ele><time>2026-05-02T12:53:14.042Z</time></trkpt><trkpt lat="43.8345133" lon="11.5394433"><ele>711.0</ele><time>2026-05-02T12:53:15.039Z</time></trkpt><trkpt lat="43.8344733" lon="11.53953"><ele>711.0</ele><time>2026-05-02T12:53:16.04Z</time></trkpt><trkpt lat="43.8344483" lon="11.5396233"><ele>711.0</ele><time>2026-05-02T12:53:17.041Z</time></trkpt><trkpt lat="43.83444" lon="11.5397283"><ele>711.0</ele><time>2026-05-02T12:53:18.04Z</time></trkpt><trkpt lat="43.8344367" lon="11.5398267"><ele>711.0</ele><time>2026-05-02T12:53:19.043Z</time></trkpt><trkpt lat="43.8344467" lon="11.5399233"><ele>711.0</ele><time>2026-05-02T12:53:20.042Z</time></trkpt><trkpt lat="43.834465" lon="11.54002"><ele>711.0</ele><time>2026-05-02T12:53:21.041Z</time></trkpt><trkpt lat="43.8344867" lon="11.5401183"><ele>711.0</ele><time>2026-05-02T12:53:22.04Z</time></trkpt><trkpt lat="43.83451" lon="11.5402183"><ele>711.0</ele><time>2026-05-02T12:53:23.042Z</time></trkpt><trkpt lat="43.8345333" lon="11.5403167"><ele>711.0</ele><time>2026-05-02T12:53:24.041Z</time></trkpt><trkpt lat="43.8345483" lon="11.5404033"><ele>712.1999999999999</ele><time>2026-05-02T12:53:25.04Z</time></trkpt><trkpt lat="43.8345833" lon="11.5405467"><ele>713.4</ele><time>2026-05-02T12:53:27.039Z</time></trkpt><trkpt lat="43.8346083" lon="11.5406883"><ele>714.6</ele><time>2026-05-02T12:53:29.045Z</time></trkpt><trkpt lat="43.8346067" lon="11.5408183"><ele>715.8</ele><time>2026-05-02T12:53:31.041Z</time></trkpt><trkpt lat="43.8346" lon="11.5409683"><ele>717.0</ele><time>2026-05-02T12:53:33.04Z</time></trkpt><trkpt lat="43.8345683" lon="11.541105"><ele>717.0</ele><time>2026-05-02T12:53:35.041Z</time></trkpt><trkpt lat="43.8345583" lon="11.54121"><ele>717.0</ele><time>2026-05-02T12:53:37.04Z</time></trkpt><trkpt lat="43.83455" lon="11.541315"><ele>717.0</ele><time>2026-05-02T12:53:39.04Z</time></trkpt><trkpt lat="43.8345267" lon="11.54149"><ele>717.0</ele><time>2026-05-02T12:53:41.041Z</time></trkpt><trkpt lat="43.8345167" lon="11.5415833"><ele>717.0</ele><time>2026-05-02T12:53:42.04Z</time></trkpt><trkpt lat="43.8345017" lon="11.5416683"><ele>717.0</ele><time>2026-05-02T12:53:43.04Z</time></trkpt><trkpt lat="43.8344633" lon="11.541825"><ele>717.7142857142857</ele><time>2026-05-02T12:53:45.04Z</time></trkpt><trkpt lat="43.8344333" lon="11.5419133"><ele>718.4285714285713</ele><time>2026-05-02T12:53:46.041Z</time></trkpt><trkpt lat="43.834395" lon="11.5419967"><ele>719.1428571428571</ele><time>2026-05-02T12:53:47.042Z</time></trkpt><trkpt lat="43.8343467" lon="11.54208"><ele>719.8571428571429</ele><time>2026-05-02T12:53:48.041Z</time></trkpt><trkpt lat="43.8342867" lon="11.542135"><ele>720.5714285714286</ele><time>2026-05-02T12:53:49.042Z</time></trkpt><trkpt lat="43.8342267" lon="11.54219"><ele>721.2857142857143</ele><time>2026-05-02T12:53:50.044Z</time></trkpt><trkpt lat="43.8341667" lon="11.54223"><ele>722.0</ele><time>2026-05-02T12:53:51.04Z</time></trkpt><trkpt lat="43.8340433" lon="11.5422883"><ele>726.5</ele><time>2026-05-02T12:53:53.041Z</time></trkpt><trkpt lat="43.8339817" lon="11.5423283"><ele>731.0</ele><time>2026-05-02T12:53:54.041Z</time></trkpt><trkpt lat="43.8339167" lon="11.5423733"><ele>735.5</ele><time>2026-05-02T12:53:55.041Z</time></trkpt><trkpt lat="43.8338567" lon="11.5424333"><ele>740.0</ele><time>2026-05-02T12:53:56.041Z</time></trkpt><trkpt lat="43.8338017" lon="11.5425067"><ele>744.5</ele><time>2026-05-02T12:53:57.04Z</time></trkpt><trkpt lat="43.8337567" lon="11.542665"><ele>749.0</ele><time>2026-05-02T12:53:59.04Z</time></trkpt><trkpt lat="43.8337667" lon="11.5428217"><ele>750.6</ele><time>2026-05-02T12:54:01.041Z</time></trkpt><trkpt lat="43.8338067" lon="11.5429533"><ele>752.2</ele><time>2026-05-02T12:54:03.039Z</time></trkpt><trkpt lat="43.8338883" lon="11.543085"><ele>753.8000000000001</ele><time>2026-05-02T12:54:05.039Z</time></trkpt><trkpt lat="43.8339283" lon="11.54316"><ele>755.4000000000001</ele><time>2026-05-02T12:54:06.039Z</time></trkpt><trkpt lat="43.83399" lon="11.5432783"><ele>757.0</ele><time>2026-05-02T12:54:08.042Z</time></trkpt><trkpt lat="43.834025" lon="11.54338"><ele>757.0</ele><time>2026-05-02T12:54:10.04Z</time></trkpt><trkpt lat="43.8340767" lon="11.5434583"><ele>757.0</ele><time>2026-05-02T12:54:12.038Z</time></trkpt><trkpt lat="43.83414" lon="11.5435383"><ele>757.0</ele><time>2026-05-02T12:54:14.04Z</time></trkpt><trkpt lat="43.8342017" lon="11.5436417"><ele>757.0</ele><time>2026-05-02T12:54:16.04Z</time></trkpt><trkpt lat="43.8342583" lon="11.5437483"><ele>757.0</ele><time>2026-05-02T12:54:18.04Z</time></trkpt><trkpt lat="43.83432" lon="11.5438483"><ele>757.0</ele><time>2026-05-02T12:54:20.042Z</time></trkpt><trkpt lat="43.83439" lon="11.5439917"><ele>758.8</ele><time>2026-05-02T12:54:22.039Z</time></trkpt><trkpt lat="43.8344067" lon="11.5440783"><ele>760.6</ele><time>2026-05-02T12:54:23.039Z</time></trkpt><trkpt lat="43.8343933" lon="11.5442517"><ele>762.4</ele><time>2026-05-02T12:54:25.04Z</time></trkpt><trkpt lat="43.834355" lon="11.5443217"><ele>764.1999999999999</ele><time>2026-05-02T12:54:26.043Z</time></trkpt><trkpt lat="43.83424" lon="11.5443967"><ele>766.0</ele><time>2026-05-02T12:54:28.039Z</time></trkpt><trkpt lat="43.8341683" lon="11.5444167"><ele>766.0</ele><time>2026-05-02T12:54:29.039Z</time></trkpt><trkpt lat="43.8341017" lon="11.5444417"><ele>766.0</ele><time>2026-05-02T12:54:30.04Z</time></trkpt><trkpt lat="43.8340333" lon="11.54448"><ele>766.0</ele><time>2026-05-02T12:54:31.039Z</time></trkpt><trkpt lat="43.8339633" lon="11.5445217"><ele>766.0</ele><time>2026-05-02T12:54:32.041Z</time></trkpt><trkpt lat="43.8339033" lon="11.5445483"><ele>766.0</ele><time>2026-05-02T12:54:33.039Z</time></trkpt><trkpt lat="43.8338433" lon="11.5445767"><ele>766.0</ele><time>2026-05-02T12:54:34.042Z</time></trkpt><trkpt lat="43.8337783" lon="11.544615"><ele>766.0</ele><time>2026-05-02T12:54:35.039Z</time></trkpt><trkpt lat="43.8337017" lon="11.5446683"><ele>765.1999999999999</ele><time>2026-05-02T12:54:36.042Z</time></trkpt><trkpt lat="43.8336333" lon="11.54472"><ele>764.4</ele><time>2026-05-02T12:54:37.039Z</time></trkpt><trkpt lat="43.8335767" lon="11.5447667"><ele>763.6</ele><time>2026-05-02T12:54:38.04Z</time></trkpt><trkpt lat="43.8334767" lon="11.5448533"><ele>762.8</ele><time>2026-05-02T12:54:40.039Z</time></trkpt><trkpt lat="43.8333933" lon="11.5449817"><ele>762.0</ele><time>2026-05-02T12:54:42.04Z</time></trkpt><trkpt lat="43.8333583" lon="11.5451233"><ele>765.5</ele><time>2026-05-02T12:54:44.042Z</time></trkpt><trkpt lat="43.8333683" lon="11.545265"><ele>769.0</ele><time>2026-05-02T12:54:46.039Z</time></trkpt><trkpt lat="43.8333283" lon="11.5454117"><ele>772.5</ele><time>2026-05-02T12:54:48.04Z</time></trkpt><trkpt lat="43.83327" lon="11.54556"><ele>776.0</ele><time>2026-05-02T12:54:50.042Z</time></trkpt><trkpt lat="43.8332367" lon="11.5457283"><ele>777.6666666666667</ele><time>2026-05-02T12:54:52.04Z</time></trkpt><trkpt lat="43.8332083" lon="11.545855"><ele>779.3333333333334</ele><time>2026-05-02T12:54:54.041Z</time></trkpt><trkpt lat="43.8332033" lon="11.5459717"><ele>781.0</ele><time>2026-05-02T12:54:56.042Z</time></trkpt><trkpt lat="43.83319" lon="11.5460783"><ele>782.6666666666667</ele><time>2026-05-02T12:54:58.04Z</time></trkpt><trkpt lat="43.8331767" lon="11.5461783"><ele>784.3333333333334</ele><time>2026-05-02T12:55:00.041Z</time></trkpt><trkpt lat="43.8331464" lon="11.5462658"><ele>786.0</ele><time>2026-05-02T12:55:03.069Z</time></trkpt><trkpt lat="43.8331588" lon="11.5463727"><ele>787.0</ele><time>2026-05-02T12:55:04.111Z</time></trkpt><trkpt lat="43.833127" lon="11.5465069"><ele>788.0</ele><time>2026-05-02T12:55:06.038Z</time></trkpt><trkpt lat="43.8330927" lon="11.5466762"><ele>789.0</ele><time>2026-05-02T12:55:08.043Z</time></trkpt><trkpt lat="43.8330695" lon="11.5467726"><ele>790.0</ele><time>2026-05-02T12:55:09.041Z</time></trkpt><trkpt lat="43.8330378" lon="11.5468571"><ele>791.0</ele><time>2026-05-02T12:55:10.04Z</time></trkpt><trkpt lat="43.8329871" lon="11.5469197"><ele>792.0</ele><time>2026-05-02T12:55:11.041Z</time></trkpt><trkpt lat="43.8329191" lon="11.5469614"><ele>792.0</ele><time>2026-05-02T12:55:12.039Z</time></trkpt><trkpt lat="43.8328459" lon="11.5469916"><ele>792.0</ele><time>2026-05-02T12:55:13.041Z</time></trkpt><trkpt lat="43.8327711" lon="11.5470221"><ele>792.0</ele><time>2026-05-02T12:55:14.042Z</time></trkpt><trkpt lat="43.8327015" lon="11.5470584"><ele>792.0</ele><time>2026-05-02T12:55:15.04Z</time></trkpt><trkpt lat="43.8326413" lon="11.547103"><ele>792.0</ele><time>2026-05-02T12:55:16.041Z</time></trkpt><trkpt lat="43.8325648" lon="11.5472139"><ele>792.0</ele><time>2026-05-02T12:55:18.044Z</time></trkpt><trkpt lat="43.8325006" lon="11.5473227"><ele>794.4000000000001</ele><time>2026-05-02T12:55:20.042Z</time></trkpt><trkpt lat="43.8324317" lon="11.5474"><ele>796.8000000000001</ele><time>2026-05-02T12:55:22.031Z</time></trkpt><trkpt lat="43.832365" lon="11.5474783"><ele>799.2</ele><time>2026-05-02T12:55:24.039Z</time></trkpt><trkpt lat="43.8323083" lon="11.5475683"><ele>801.6</ele><time>2026-05-02T12:55:26.043Z</time></trkpt><trkpt lat="43.8322433" lon="11.5476819"><ele>804.0</ele><time>2026-05-02T12:55:29.123Z</time></trkpt><trkpt lat="43.8321989" lon="11.5477879"><ele>804.0</ele><time>2026-05-02T12:55:31.125Z</time></trkpt><trkpt lat="43.8321363" lon="11.5478757"><ele>804.0</ele><time>2026-05-02T12:55:33.128Z</time></trkpt><trkpt lat="43.8320668" lon="11.5479611"><ele>804.0</ele><time>2026-05-02T12:55:35.13Z</time></trkpt><trkpt lat="43.8320144" lon="11.5481188"><ele>804.0</ele><time>2026-05-02T12:55:37.04Z</time></trkpt><trkpt lat="43.8320206" lon="11.5482549"><ele>804.0</ele><time>2026-05-02T12:55:38.041Z</time></trkpt><trkpt lat="43.832042" lon="11.5483895"><ele>805.6</ele><time>2026-05-02T12:55:39.04Z</time></trkpt><trkpt lat="43.8320578" lon="11.5485088"><ele>807.2</ele><time>2026-05-02T12:55:40.04Z</time></trkpt><trkpt lat="43.8320629" lon="11.5486035"><ele>808.8000000000001</ele><time>2026-05-02T12:55:41.04Z</time></trkpt><trkpt lat="43.8320589" lon="11.5487622"><ele>810.4000000000001</ele><time>2026-05-02T12:55:43.041Z</time></trkpt><trkpt lat="43.8320776" lon="11.5489185"><ele>812.0</ele><time>2026-05-02T12:55:45.039Z</time></trkpt><trkpt lat="43.8321386" lon="11.5490592"><ele>813.8571428571429</ele><time>2026-05-02T12:55:47.038Z</time></trkpt><trkpt lat="43.8321658" lon="11.549139"><ele>815.7142857142858</ele><time>2026-05-02T12:55:48.038Z</time></trkpt><trkpt lat="43.8321874" lon="11.5492319"><ele>817.5714285714286</ele><time>2026-05-02T12:55:49.038Z</time></trkpt><trkpt lat="43.8321974" lon="11.5493361"><ele>819.4285714285714</ele><time>2026-05-02T12:55:50.04Z</time></trkpt><trkpt lat="43.8321904" lon="11.5494394"><ele>821.2857142857143</ele><time>2026-05-02T12:55:51.038Z</time></trkpt><trkpt lat="43.8321688" lon="11.5495329"><ele>823.1428571428571</ele><time>2026-05-02T12:55:52.039Z</time></trkpt><trkpt lat="43.8321441" lon="11.5496251"><ele>825.0</ele><time>2026-05-02T12:55:53.04Z</time></trkpt><trkpt lat="43.8321291" lon="11.5497277"><ele>826.0</ele><time>2026-05-02T12:55:54.038Z</time></trkpt><trkpt lat="43.8321245" lon="11.5498416"><ele>827.0</ele><time>2026-05-02T12:55:55.039Z</time></trkpt><trkpt lat="43.832117" lon="11.5499545"><ele>828.0</ele><time>2026-05-02T12:55:56.041Z</time></trkpt><trkpt lat="43.8321006" lon="11.5500605"><ele>829.0</ele><time>2026-05-02T12:55:57.038Z</time></trkpt><trkpt lat="43.8320777" lon="11.5501579"><ele>830.0</ele><time>2026-05-02T12:55:58.042Z</time></trkpt><trkpt lat="43.8320486" lon="11.5502479"><ele>831.0</ele><time>2026-05-02T12:55:59.04Z</time></trkpt><trkpt lat="43.8319919" lon="11.550323"><ele>831.8333333333334</ele><time>2026-05-02T12:56:00.04Z</time></trkpt><trkpt lat="43.8319277" lon="11.550396"><ele>832.6666666666667</ele><time>2026-05-02T12:56:01.04Z</time></trkpt><trkpt lat="43.8318702" lon="11.5504645"><ele>833.5</ele><time>2026-05-02T12:56:02.042Z</time></trkpt><trkpt lat="43.8318243" lon="11.550531"><ele>834.3333333333334</ele><time>2026-05-02T12:56:03.04Z</time></trkpt><trkpt lat="43.8317496" lon="11.5506356"><ele>835.1666666666667</ele><time>2026-05-02T12:56:05.04Z</time></trkpt><trkpt lat="43.8317183" lon="11.550723"><ele>836.0</ele><time>2026-05-02T12:56:08.041Z</time></trkpt><trkpt lat="43.8317183" lon="11.5508133"><ele>838.3333333333334</ele><time>2026-05-02T12:56:29.039Z</time></trkpt><trkpt lat="43.831765" lon="11.5509183"><ele>840.6666666666667</ele><time>2026-05-02T12:56:31.039Z</time></trkpt><trkpt lat="43.8317783" lon="11.551005"><ele>843.0</ele><time>2026-05-02T12:56:32.041Z</time></trkpt><trkpt lat="43.831795" lon="11.5511267"><ele>845.3333333333333</ele><time>2026-05-02T12:56:33.04Z</time></trkpt><trkpt lat="43.8318117" lon="11.5512517"><ele>847.6666666666666</ele><time>2026-05-02T12:56:34.031Z</time></trkpt><trkpt lat="43.83181" lon="11.5513667"><ele>850.0</ele><time>2026-05-02T12:56:35.039Z</time></trkpt><trkpt lat="43.8318033" lon="11.551485"><ele>852.6</ele><time>2026-05-02T12:56:36.04Z</time></trkpt><trkpt lat="43.8317767" lon="11.5516133"><ele>855.2</ele><time>2026-05-02T12:56:37.04Z</time></trkpt><trkpt lat="43.8317533" lon="11.5517467"><ele>857.8</ele><time>2026-05-02T12:56:38.041Z</time></trkpt><trkpt lat="43.8317183" lon="11.5518867"><ele>860.4</ele><time>2026-05-02T12:56:39.039Z</time></trkpt><trkpt lat="43.8316633" lon="11.5520217"><ele>863.0</ele><time>2026-05-02T12:56:40.04Z</time></trkpt><trkpt lat="43.8315983" lon="11.5521567"><ele>864.5999999999999</ele><time>2026-05-02T12:56:41.039Z</time></trkpt><trkpt lat="43.8315317" lon="11.55229"><ele>866.1999999999999</ele><time>2026-05-02T12:56:42.039Z</time></trkpt><trkpt lat="43.8314783" lon="11.552425"><ele>867.8</ele><time>2026-05-02T12:56:43.039Z</time></trkpt><trkpt lat="43.831435" lon="11.55255"><ele>869.4</ele><time>2026-05-02T12:56:44.041Z</time></trkpt><trkpt lat="43.831405" lon="11.5526767"><ele>871.0</ele><time>2026-05-02T12:56:45.039Z</time></trkpt><trkpt lat="43.83138" lon="11.5528067"><ele>869.8</ele><time>2026-05-02T12:56:46.039Z</time></trkpt><trkpt lat="43.8313367" lon="11.5529267"><ele>868.5999999999999</ele><time>2026-05-02T12:56:47.04Z</time></trkpt><trkpt lat="43.8312767" lon="11.5530283"><ele>867.4</ele><time>2026-05-02T12:56:48.04Z</time></trkpt><trkpt lat="43.8312067" lon="11.5531283"><ele>866.2</ele><time>2026-05-02T12:56:49.041Z</time></trkpt><trkpt lat="43.8311317" lon="11.5531933"><ele>865.0</ele><time>2026-05-02T12:56:50.041Z</time></trkpt><trkpt lat="43.83105" lon="11.5532417"><ele>866.4</ele><time>2026-05-02T12:56:51.04Z</time></trkpt><trkpt lat="43.8309617" lon="11.5532983"><ele>867.8</ele><time>2026-05-02T12:56:52.041Z</time></trkpt><trkpt lat="43.8308567" lon="11.5533683"><ele>869.2</ele><time>2026-05-02T12:56:53.04Z</time></trkpt><trkpt lat="43.8307467" lon="11.5534333"><ele>870.6</ele><time>2026-05-02T12:56:54.037Z</time></trkpt><trkpt lat="43.8306417" lon="11.5534883"><ele>872.0</ele><time>2026-05-02T12:56:55.04Z</time></trkpt><trkpt lat="43.8305317" lon="11.5535283"><ele>872.0</ele><time>2026-05-02T12:56:56.042Z</time></trkpt><trkpt lat="43.8304217" lon="11.5535917"><ele>872.0</ele><time>2026-05-02T12:56:57.039Z</time></trkpt><trkpt lat="43.83032" lon="11.5536583"><ele>872.0</ele><time>2026-05-02T12:56:58.041Z</time></trkpt><trkpt lat="43.8302217" lon="11.55373"><ele>872.0</ele><time>2026-05-02T12:56:59.04Z</time></trkpt><trkpt lat="43.8301233" lon="11.5538167"><ele>873.0</ele><time>2026-05-02T12:57:00.038Z</time></trkpt><trkpt lat="43.830025" lon="11.5539067"><ele>874.0</ele><time>2026-05-02T12:57:01.039Z</time></trkpt><trkpt lat="43.8299267" lon="11.5540033"><ele>875.0</ele><time>2026-05-02T12:57:02.04Z</time></trkpt><trkpt lat="43.8298233" lon="11.5541017"><ele>876.0</ele><time>2026-05-02T12:57:03.039Z</time></trkpt><trkpt lat="43.8297183" lon="11.5541883"><ele>876.0</ele><time>2026-05-02T12:57:04.041Z</time></trkpt><trkpt lat="43.8296033" lon="11.5542633"><ele>876.0</ele><time>2026-05-02T12:57:05.039Z</time></trkpt><trkpt lat="43.8294767" lon="11.5543333"><ele>876.0</ele><time>2026-05-02T12:57:06.039Z</time></trkpt><trkpt lat="43.8293567" lon="11.5544017"><ele>876.0</ele><time>2026-05-02T12:57:07.039Z</time></trkpt><trkpt lat="43.829255" lon="11.5544717"><ele>876.1999999999999</ele><time>2026-05-02T12:57:08.042Z</time></trkpt><trkpt lat="43.8291633" lon="11.55454"><ele>876.3999999999999</ele><time>2026-05-02T12:57:09.039Z</time></trkpt><trkpt lat="43.8290667" lon="11.5546"><ele>876.6</ele><time>2026-05-02T12:57:10.039Z</time></trkpt><trkpt lat="43.82897" lon="11.554645"><ele>876.8</ele><time>2026-05-02T12:57:11.04Z</time></trkpt><trkpt lat="43.828895" lon="11.5546933"><ele>877.0</ele><time>2026-05-02T12:57:12.038Z</time></trkpt><trkpt lat="43.82883" lon="11.5547583"><ele>876.9999999999999</ele><time>2026-05-02T12:57:13.039Z</time></trkpt><trkpt lat="43.8287767" lon="11.5548283"><ele>877.0</ele><time>2026-05-02T12:57:14.041Z</time></trkpt><trkpt lat="43.82872" lon="11.5549183"><ele>877.0</ele><time>2026-05-02T12:57:15.04Z</time></trkpt><trkpt lat="43.82865" lon="11.5550117"><ele>877.0</ele><time>2026-05-02T12:57:16.04Z</time></trkpt><trkpt lat="43.8285817" lon="11.555105"><ele>876.9999999999999</ele><time>2026-05-02T12:57:17.039Z</time></trkpt><trkpt lat="43.828515" lon="11.5551883"><ele>877.0</ele><time>2026-05-02T12:57:18.039Z</time></trkpt><trkpt lat="43.8284367" lon="11.5552867"><ele>876.6</ele><time>2026-05-02T12:57:19.041Z</time></trkpt><trkpt lat="43.8283567" lon="11.5553917"><ele>876.2</ele><time>2026-05-02T12:57:20.042Z</time></trkpt><trkpt lat="43.8282617" lon="11.5554933"><ele>875.8</ele><time>2026-05-02T12:57:21.041Z</time></trkpt><trkpt lat="43.8281683" lon="11.5555867"><ele>875.4</ele><time>2026-05-02T12:57:22.039Z</time></trkpt><trkpt lat="43.828085" lon="11.55566"><ele>875.0</ele><time>2026-05-02T12:57:23.04Z</time></trkpt><trkpt lat="43.8280117" lon="11.555735"><ele>875.0</ele><time>2026-05-02T12:57:24.041Z</time></trkpt><trkpt lat="43.8279283" lon="11.5558317"><ele>875.0</ele><time>2026-05-02T12:57:25.042Z</time></trkpt><trkpt lat="43.8278467" lon="11.5559417"><ele>875.0</ele><time>2026-05-02T12:57:26.042Z</time></trkpt><trkpt lat="43.8277617" lon="11.5560733"><ele>875.0</ele><time>2026-05-02T12:57:27.041Z</time></trkpt><trkpt lat="43.82769" lon="11.5562083"><ele>873.25</ele><time>2026-05-02T12:57:28.04Z</time></trkpt><trkpt lat="43.8276117" lon="11.5563433"><ele>871.5</ele><time>2026-05-02T12:57:29.039Z</time></trkpt><trkpt lat="43.827525" lon="11.55647"><ele>869.75</ele><time>2026-05-02T12:57:30.038Z</time></trkpt><trkpt lat="43.827435" lon="11.5565733"><ele>868.0</ele><time>2026-05-02T12:57:31.041Z</time></trkpt><trkpt lat="43.8273383" lon="11.5566733"><ele>868.0</ele><time>2026-05-02T12:57:32.042Z</time></trkpt><trkpt lat="43.827235" lon="11.55678"><ele>868.0</ele><time>2026-05-02T12:57:33.039Z</time></trkpt><trkpt lat="43.8271367" lon="11.5568767"><ele>868.0</ele><time>2026-05-02T12:57:34.039Z</time></trkpt><trkpt lat="43.8270467" lon="11.556945"><ele>868.0</ele><time>2026-05-02T12:57:35.041Z</time></trkpt><trkpt lat="43.8269583" lon="11.557035"><ele>867.5999999999999</ele><time>2026-05-02T12:57:36.039Z</time></trkpt><trkpt lat="43.82687" lon="11.5571317"><ele>867.1999999999999</ele><time>2026-05-02T12:57:37.042Z</time></trkpt><trkpt lat="43.8267783" lon="11.5572217"><ele>866.8</ele><time>2026-05-02T12:57:38.041Z</time></trkpt><trkpt lat="43.8266917" lon="11.5573083"><ele>866.4</ele><time>2026-05-02T12:57:39.041Z</time></trkpt><trkpt lat="43.82661" lon="11.5573983"><ele>866.0</ele><time>2026-05-02T12:57:40.039Z</time></trkpt><trkpt lat="43.82653" lon="11.5574817"><ele>866.8</ele><time>2026-05-02T12:57:41.041Z</time></trkpt><trkpt lat="43.8264533" lon="11.557565"><ele>867.5999999999999</ele><time>2026-05-02T12:57:42.041Z</time></trkpt><trkpt lat="43.8263767" lon="11.5576367"><ele>868.4</ele><time>2026-05-02T12:57:43.038Z</time></trkpt><trkpt lat="43.8263017" lon="11.5577117"><ele>869.2</ele><time>2026-05-02T12:57:44.04Z</time></trkpt><trkpt lat="43.8262233" lon="11.5577783"><ele>870.0</ele><time>2026-05-02T12:57:45.038Z</time></trkpt><trkpt lat="43.8261333" lon="11.5578217"><ele>870.0</ele><time>2026-05-02T12:57:46.038Z</time></trkpt><trkpt lat="43.826035" lon="11.5578617"><ele>870.0</ele><time>2026-05-02T12:57:47.039Z</time></trkpt><trkpt lat="43.825935" lon="11.5578767"><ele>870.0</ele><time>2026-05-02T12:57:48.038Z</time></trkpt><trkpt lat="43.8258433" lon="11.557865"><ele>870.0</ele><time>2026-05-02T12:57:49.04Z</time></trkpt><trkpt lat="43.8257633" lon="11.55784"><ele>870.0</ele><time>2026-05-02T12:57:50.041Z</time></trkpt><trkpt lat="43.8256833" lon="11.5578067"><ele>868.1666666666666</ele><time>2026-05-02T12:57:51.04Z</time></trkpt><trkpt lat="43.8256083" lon="11.5577883"><ele>866.3333333333333</ele><time>2026-05-02T12:57:52.039Z</time></trkpt><trkpt lat="43.82553" lon="11.5577883"><ele>864.5</ele><time>2026-05-02T12:57:53.039Z</time></trkpt><trkpt lat="43.8254433" lon="11.55781"><ele>862.6666666666666</ele><time>2026-05-02T12:57:54.038Z</time></trkpt><trkpt lat="43.8253533" lon="11.5578483"><ele>860.8333333333333</ele><time>2026-05-02T12:57:55.039Z</time></trkpt><trkpt lat="43.82527" lon="11.5579233"><ele>859.0</ele><time>2026-05-02T12:57:56.041Z</time></trkpt><trkpt lat="43.8251917" lon="11.5580283"><ele>856.5</ele><time>2026-05-02T12:57:57.039Z</time></trkpt><trkpt lat="43.825115" lon="11.5581533"><ele>854.0</ele><time>2026-05-02T12:57:58.039Z</time></trkpt><trkpt lat="43.8250317" lon="11.5582617"><ele>851.5</ele><time>2026-05-02T12:57:59.04Z</time></trkpt><trkpt lat="43.82494" lon="11.5583483"><ele>849.0</ele><time>2026-05-02T12:58:00.037Z</time></trkpt><trkpt lat="43.824825" lon="11.5583983"><ele>849.0</ele><time>2026-05-02T12:58:01.04Z</time></trkpt><trkpt lat="43.8246983" lon="11.5584117"><ele>849.0</ele><time>2026-05-02T12:58:02.04Z</time></trkpt><trkpt lat="43.82458" lon="11.5583983"><ele>849.0</ele><time>2026-05-02T12:58:03.038Z</time></trkpt><trkpt lat="43.8244583" lon="11.5583733"><ele>849.0</ele><time>2026-05-02T12:58:04.041Z</time></trkpt><trkpt lat="43.824345" lon="11.558355"><ele>847.6</ele><time>2026-05-02T12:58:05.04Z</time></trkpt><trkpt lat="43.8242383" lon="11.5583567"><ele>846.2</ele><time>2026-05-02T12:58:06.04Z</time></trkpt><trkpt lat="43.8241567" lon="11.5583917"><ele>844.8000000000001</ele><time>2026-05-02T12:58:07.04Z</time></trkpt><trkpt lat="43.8240917" lon="11.5584483"><ele>843.4000000000001</ele><time>2026-05-02T12:58:08.042Z</time></trkpt><trkpt lat="43.8240133" lon="11.5585133"><ele>842.0</ele><time>2026-05-02T12:58:09.039Z</time></trkpt><trkpt lat="43.8239267" lon="11.5585683"><ele>842.0</ele><time>2026-05-02T12:58:10.039Z</time></trkpt><trkpt lat="43.82383" lon="11.5586083"><ele>842.0</ele><time>2026-05-02T12:58:11.04Z</time></trkpt><trkpt lat="43.8237333" lon="11.5586467"><ele>842.0</ele><time>2026-05-02T12:58:12.04Z</time></trkpt><trkpt lat="43.8236433" lon="11.558705"><ele>842.0</ele><time>2026-05-02T12:58:13.039Z</time></trkpt><trkpt lat="43.8235617" lon="11.5587817"><ele>842.0</ele><time>2026-05-02T12:58:14.041Z</time></trkpt><trkpt lat="43.82349" lon="11.5588583"><ele>840.8</ele><time>2026-05-02T12:58:15.039Z</time></trkpt><trkpt lat="43.8234067" lon="11.5589167"><ele>839.6</ele><time>2026-05-02T12:58:16.039Z</time></trkpt><trkpt lat="43.8233067" lon="11.5589533"><ele>838.4</ele><time>2026-05-02T12:58:17.039Z</time></trkpt><trkpt lat="43.82319" lon="11.5589933"><ele>837.1999999999999</ele><time>2026-05-02T12:58:18.039Z</time></trkpt><trkpt lat="43.8230733" lon="11.5590467"><ele>836.0</ele><time>2026-05-02T12:58:19.039Z</time></trkpt><trkpt lat="43.8229617" lon="11.5591217"><ele>836.0</ele><time>2026-05-02T12:58:20.042Z</time></trkpt><trkpt lat="43.8228517" lon="11.5592017"><ele>836.0</ele><time>2026-05-02T12:58:21.039Z</time></trkpt><trkpt lat="43.8227517" lon="11.55928"><ele>836.0</ele><time>2026-05-02T12:58:22.04Z</time></trkpt><trkpt lat="43.8226667" lon="11.55936"><ele>836.0</ele><time>2026-05-02T12:58:23.041Z</time></trkpt><trkpt lat="43.8225833" lon="11.5594517"><ele>836.0</ele><time>2026-05-02T12:58:24.04Z</time></trkpt><trkpt lat="43.8225017" lon="11.5595483"><ele>835.75</ele><time>2026-05-02T12:58:25.04Z</time></trkpt><trkpt lat="43.8224083" lon="11.55966"><ele>835.5</ele><time>2026-05-02T12:58:26.043Z</time></trkpt><trkpt lat="43.8223183" lon="11.5597933"><ele>835.25</ele><time>2026-05-02T12:58:27.039Z</time></trkpt><trkpt lat="43.8222267" lon="11.5599333"><ele>835.0</ele><time>2026-05-02T12:58:28.04Z</time></trkpt><trkpt lat="43.82214" lon="11.5600633"><ele>835.0</ele><time>2026-05-02T12:58:29.041Z</time></trkpt><trkpt lat="43.822055" lon="11.56018"><ele>835.0</ele><time>2026-05-02T12:58:30.041Z</time></trkpt><trkpt lat="43.8219633" lon="11.5602967"><ele>835.0</ele><time>2026-05-02T12:58:31.042Z</time></trkpt><trkpt lat="43.821875" lon="11.56041"><ele>835.0</ele><time>2026-05-02T12:58:32.044Z</time></trkpt><trkpt lat="43.821795" lon="11.56051"><ele>836.6</ele><time>2026-05-02T12:58:33.04Z</time></trkpt><trkpt lat="43.8217183" lon="11.5606167"><ele>838.2</ele><time>2026-05-02T12:58:34.04Z</time></trkpt><trkpt lat="43.8216583" lon="11.5607167"><ele>839.8</ele><time>2026-05-02T12:58:35.04Z</time></trkpt><trkpt lat="43.8215917" lon="11.5608083"><ele>841.4</ele><time>2026-05-02T12:58:36.04Z</time></trkpt><trkpt lat="43.8215217" lon="11.5609"><ele>843.0</ele><time>2026-05-02T12:58:37.04Z</time></trkpt><trkpt lat="43.8214517" lon="11.5609833"><ele>843.0</ele><time>2026-05-02T12:58:38.041Z</time></trkpt><trkpt lat="43.8213833" lon="11.5610817"><ele>843.0</ele><time>2026-05-02T12:58:39.039Z</time></trkpt><trkpt lat="43.8213183" lon="11.56121"><ele>843.0</ele><time>2026-05-02T12:58:40.039Z</time></trkpt><trkpt lat="43.8212467" lon="11.5613483"><ele>843.0</ele><time>2026-05-02T12:58:41.041Z</time></trkpt><trkpt lat="43.82117" lon="11.5614833"><ele>843.75</ele><time>2026-05-02T12:58:42.042Z</time></trkpt><trkpt lat="43.8210883" lon="11.561615"><ele>844.5</ele><time>2026-05-02T12:58:43.041Z</time></trkpt><trkpt lat="43.8210117" lon="11.5617367"><ele>845.25</ele><time>2026-05-02T12:58:44.042Z</time></trkpt><trkpt lat="43.8209333" lon="11.56185"><ele>846.0</ele><time>2026-05-02T12:58:45.039Z</time></trkpt><trkpt lat="43.82085" lon="11.5619483"><ele>846.0</ele><time>2026-05-02T12:58:46.039Z</time></trkpt><trkpt lat="43.82077" lon="11.5620267"><ele>846.0</ele><time>2026-05-02T12:58:47.04Z</time></trkpt><trkpt lat="43.8206917" lon="11.5620933"><ele>846.0</ele><time>2026-05-02T12:58:48.039Z</time></trkpt><trkpt lat="43.8206117" lon="11.562145"><ele>846.0</ele><time>2026-05-02T12:58:49.041Z</time></trkpt><trkpt lat="43.8205283" lon="11.56219"><ele>846.0</ele><time>2026-05-02T12:58:50.042Z</time></trkpt><trkpt lat="43.82045" lon="11.5622267"><ele>846.3333333333334</ele><time>2026-05-02T12:58:51.039Z</time></trkpt><trkpt lat="43.820385" lon="11.5622583"><ele>846.6666666666667</ele><time>2026-05-02T12:58:52.04Z</time></trkpt><trkpt lat="43.82033" lon="11.562305"><ele>847.0</ele><time>2026-05-02T12:58:53.041Z</time></trkpt><trkpt lat="43.82025" lon="11.562435"><ele>847.3333333333334</ele><time>2026-05-02T12:58:55.04Z</time></trkpt><trkpt lat="43.8202" lon="11.5624917"><ele>847.6666666666667</ele><time>2026-05-02T12:58:56.044Z</time></trkpt><trkpt lat="43.8201417" lon="11.5625383"><ele>848.0</ele><time>2026-05-02T12:58:57.039Z</time></trkpt><trkpt lat="43.820075" lon="11.5625933"><ele>848.0000000000001</ele><time>2026-05-02T12:58:58.04Z</time></trkpt><trkpt lat="43.8199967" lon="11.5626433"><ele>848.0</ele><time>2026-05-02T12:58:59.041Z</time></trkpt><trkpt lat="43.81992" lon="11.5627033"><ele>848.0</ele><time>2026-05-02T12:59:00.042Z</time></trkpt><trkpt lat="43.81984" lon="11.562755"><ele>848.0</ele><time>2026-05-02T12:59:01.043Z</time></trkpt><trkpt lat="43.8197683" lon="11.5627983"><ele>848.0000000000001</ele><time>2026-05-02T12:59:02.042Z</time></trkpt><trkpt lat="43.8197083" lon="11.5628367"><ele>848.0</ele><time>2026-05-02T12:59:03.04Z</time></trkpt><trkpt lat="43.8196067" lon="11.5629217"><ele>848.8333333333334</ele><time>2026-05-02T12:59:05.04Z</time></trkpt><trkpt lat="43.8195533" lon="11.5629717"><ele>849.6666666666667</ele><time>2026-05-02T12:59:06.041Z</time></trkpt><trkpt lat="43.8194967" lon="11.5630433"><ele>850.5</ele><time>2026-05-02T12:59:07.04Z</time></trkpt><trkpt lat="43.8194417" lon="11.5631083"><ele>851.3333333333333</ele><time>2026-05-02T12:59:08.043Z</time></trkpt><trkpt lat="43.819385" lon="11.5631567"><ele>852.1666666666666</ele><time>2026-05-02T12:59:09.039Z</time></trkpt><trkpt lat="43.81932" lon="11.5632"><ele>853.0</ele><time>2026-05-02T12:59:10.039Z</time></trkpt><trkpt lat="43.8192183" lon="11.5632867"><ele>850.5999999999999</ele><time>2026-05-02T12:59:12.041Z</time></trkpt><trkpt lat="43.819125" lon="11.563425"><ele>848.1999999999999</ele><time>2026-05-02T12:59:14.042Z</time></trkpt><trkpt lat="43.8190717" lon="11.5635133"><ele>845.8</ele><time>2026-05-02T12:59:15.038Z</time></trkpt><trkpt lat="43.8190083" lon="11.5636133"><ele>843.4</ele><time>2026-05-02T12:59:16.041Z</time></trkpt><trkpt lat="43.8189583" lon="11.5637167"><ele>841.0</ele><time>2026-05-02T12:59:17.042Z</time></trkpt><trkpt lat="43.8189233" lon="11.5638333"><ele>840.0</ele><time>2026-05-02T12:59:18.041Z</time></trkpt><trkpt lat="43.8188833" lon="11.5639217"><ele>839.0</ele><time>2026-05-02T12:59:19.041Z</time></trkpt><trkpt lat="43.818835" lon="11.564"><ele>838.0</ele><time>2026-05-02T12:59:20.042Z</time></trkpt><trkpt lat="43.818765" lon="11.5641017"><ele>837.0</ele><time>2026-05-02T12:59:21.039Z</time></trkpt><trkpt lat="43.8186683" lon="11.5642083"><ele>836.0</ele><time>2026-05-02T12:59:22.041Z</time></trkpt><trkpt lat="43.818585" lon="11.5643167"><ele>836.0</ele><time>2026-05-02T12:59:23.041Z</time></trkpt><trkpt lat="43.8184883" lon="11.56443"><ele>836.0</ele><time>2026-05-02T12:59:24.042Z</time></trkpt><trkpt lat="43.818385" lon="11.564515"><ele>836.0</ele><time>2026-05-02T12:59:25.042Z</time></trkpt><trkpt lat="43.8182817" lon="11.5645917"><ele>836.0</ele><time>2026-05-02T12:59:26.043Z</time></trkpt><trkpt lat="43.8181933" lon="11.5646717"><ele>834.25</ele><time>2026-05-02T12:59:27.039Z</time></trkpt><trkpt lat="43.818125" lon="11.5647767"><ele>832.5</ele><time>2026-05-02T12:59:28.04Z</time></trkpt><trkpt lat="43.81806" lon="11.5649"><ele>830.75</ele><time>2026-05-02T12:59:29.044Z</time></trkpt><trkpt lat="43.81798" lon="11.5650283"><ele>829.0</ele><time>2026-05-02T12:59:30.042Z</time></trkpt><trkpt lat="43.8178983" lon="11.5651617"><ele>829.0</ele><time>2026-05-02T12:59:31.041Z</time></trkpt><trkpt lat="43.817825" lon="11.5652833"><ele>829.0</ele><time>2026-05-02T12:59:32.042Z</time></trkpt><trkpt lat="43.817755" lon="11.5653767"><ele>829.0</ele><time>2026-05-02T12:59:33.04Z</time></trkpt><trkpt lat="43.8176733" lon="11.56545"><ele>829.0</ele><time>2026-05-02T12:59:34.04Z</time></trkpt><trkpt lat="43.8175783" lon="11.5655183"><ele>829.0</ele><time>2026-05-02T12:59:35.041Z</time></trkpt><trkpt lat="43.8174733" lon="11.5656083"><ele>829.5</ele><time>2026-05-02T12:59:36.04Z</time></trkpt><trkpt lat="43.8173633" lon="11.5657133"><ele>830.0</ele><time>2026-05-02T12:59:37.041Z</time></trkpt><trkpt lat="43.81726" lon="11.56582"><ele>830.5</ele><time>2026-05-02T12:59:38.043Z</time></trkpt><trkpt lat="43.8171767" lon="11.565925"><ele>831.0</ele><time>2026-05-02T12:59:39.038Z</time></trkpt><trkpt lat="43.8170967" lon="11.5659967"><ele>831.0</ele><time>2026-05-02T12:59:40.039Z</time></trkpt><trkpt lat="43.8170067" lon="11.566025"><ele>831.0</ele><time>2026-05-02T12:59:41.038Z</time></trkpt><trkpt lat="43.8169033" lon="11.566005"><ele>831.0</ele><time>2026-05-02T12:59:42.04Z</time></trkpt><trkpt lat="43.8168067" lon="11.56597"><ele>831.0</ele><time>2026-05-02T12:59:43.038Z</time></trkpt><trkpt lat="43.8167183" lon="11.56596"><ele>831.0</ele><time>2026-05-02T12:59:44.041Z</time></trkpt><trkpt lat="43.81664" lon="11.5659817"><ele>831.8333333333334</ele><time>2026-05-02T12:59:45.039Z</time></trkpt><trkpt lat="43.8165667" lon="11.5660333"><ele>832.6666666666667</ele><time>2026-05-02T12:59:46.039Z</time></trkpt><trkpt lat="43.816495" lon="11.5660833"><ele>833.5</ele><time>2026-05-02T12:59:47.04Z</time></trkpt><trkpt lat="43.81641" lon="11.5661133"><ele>834.3333333333334</ele><time>2026-05-02T12:59:48.038Z</time></trkpt><trkpt lat="43.81632" lon="11.566115"><ele>835.1666666666667</ele><time>2026-05-02T12:59:49.039Z</time></trkpt><trkpt lat="43.816225" lon="11.5660983"><ele>836.0</ele><time>2026-05-02T12:59:50.04Z</time></trkpt><trkpt lat="43.8161267" lon="11.5660817"><ele>836.0</ele><time>2026-05-02T12:59:51.039Z</time></trkpt><trkpt lat="43.8160317" lon="11.566065"><ele>836.0</ele><time>2026-05-02T12:59:52.038Z</time></trkpt><trkpt lat="43.81594" lon="11.5660517"><ele>836.0</ele><time>2026-05-02T12:59:53.039Z</time></trkpt><trkpt lat="43.815845" lon="11.566045"><ele>836.0</ele><time>2026-05-02T12:59:54.039Z</time></trkpt><trkpt lat="43.8157533" lon="11.5660567"><ele>836.0</ele><time>2026-05-02T12:59:55.039Z</time></trkpt><trkpt lat="43.815665" lon="11.5660967"><ele>836.8</ele><time>2026-05-02T12:59:56.042Z</time></trkpt><trkpt lat="43.815565" lon="11.5661733"><ele>837.5999999999999</ele><time>2026-05-02T12:59:57.039Z</time></trkpt><trkpt lat="43.815475" lon="11.56625"><ele>838.4</ele><time>2026-05-02T12:59:58.039Z</time></trkpt><trkpt lat="43.8154" lon="11.56634"><ele>839.2</ele><time>2026-05-02T12:59:59.041Z</time></trkpt><trkpt lat="43.81536" lon="11.5664317"><ele>840.0</ele><time>2026-05-02T13:00:00.038Z</time></trkpt><trkpt lat="43.8153417" lon="11.5665317"><ele>841.3333333333334</ele><time>2026-05-02T13:00:01.041Z</time></trkpt><trkpt lat="43.8153417" lon="11.56664"><ele>842.6666666666667</ele><time>2026-05-02T13:00:02.041Z</time></trkpt><trkpt lat="43.8153883" lon="11.566775"><ele>844.0</ele><time>2026-05-02T13:00:03.04Z</time></trkpt><trkpt lat="43.8154333" lon="11.5669"><ele>845.3333333333334</ele><time>2026-05-02T13:00:04.04Z</time></trkpt><trkpt lat="43.8154317" lon="11.56701"><ele>846.6666666666667</ele><time>2026-05-02T13:00:05.04Z</time></trkpt><trkpt lat="43.8154067" lon="11.567115"><ele>848.0</ele><time>2026-05-02T13:00:06.041Z</time></trkpt><trkpt lat="43.81535" lon="11.5672217"><ele>845.8</ele><time>2026-05-02T13:00:07.04Z</time></trkpt><trkpt lat="43.8152967" lon="11.5673383"><ele>843.5999999999999</ele><time>2026-05-02T13:00:08.042Z</time></trkpt><trkpt lat="43.815235" lon="11.567455"><ele>841.4000000000001</ele><time>2026-05-02T13:00:09.039Z</time></trkpt><trkpt lat="43.8151683" lon="11.567555"><ele>839.2</ele><time>2026-05-02T13:00:10.039Z</time></trkpt><trkpt lat="43.8150917" lon="11.567645"><ele>837.0</ele><time>2026-05-02T13:00:11.04Z</time></trkpt><trkpt lat="43.8150167" lon="11.5677317"><ele>837.0</ele><time>2026-05-02T13:00:12.039Z</time></trkpt><trkpt lat="43.814945" lon="11.56782"><ele>837.0</ele><time>2026-05-02T13:00:13.039Z</time></trkpt><trkpt lat="43.81487" lon="11.5679"><ele>837.0</ele><time>2026-05-02T13:00:14.043Z</time></trkpt><trkpt lat="43.8148" lon="11.5679733"><ele>837.0</ele><time>2026-05-02T13:00:15.04Z</time></trkpt><trkpt lat="43.8147317" lon="11.5680417"><ele>837.0</ele><time>2026-05-02T13:00:16.039Z</time></trkpt><trkpt lat="43.81466" lon="11.5680967"><ele>837.0</ele><time>2026-05-02T13:00:17.04Z</time></trkpt><trkpt lat="43.8145733" lon="11.5681283"><ele>837.2</ele><time>2026-05-02T13:00:18.039Z</time></trkpt><trkpt lat="43.814485" lon="11.5681533"><ele>837.4000000000001</ele><time>2026-05-02T13:00:19.039Z</time></trkpt><trkpt lat="43.814395" lon="11.5681833"><ele>837.5999999999999</ele><time>2026-05-02T13:00:20.04Z</time></trkpt><trkpt lat="43.814305" lon="11.56823"><ele>837.8</ele><time>2026-05-02T13:00:21.04Z</time></trkpt><trkpt lat="43.8142067" lon="11.5682867"><ele>838.0</ele><time>2026-05-02T13:00:22.039Z</time></trkpt><trkpt lat="43.8140967" lon="11.5683267"><ele>838.0</ele><time>2026-05-02T13:00:23.039Z</time></trkpt><trkpt lat="43.8139917" lon="11.5683633"><ele>838.0</ele><time>2026-05-02T13:00:24.04Z</time></trkpt><trkpt lat="43.81389" lon="11.5684083"><ele>838.0</ele><time>2026-05-02T13:00:25.04Z</time></trkpt><trkpt lat="43.8138" lon="11.568465"><ele>838.0</ele><time>2026-05-02T13:00:26.041Z</time></trkpt><trkpt lat="43.8137083" lon="11.56853"><ele>838.0</ele><time>2026-05-02T13:00:27.039Z</time></trkpt><trkpt lat="43.8136167" lon="11.5686033"><ele>838.4</ele><time>2026-05-02T13:00:28.04Z</time></trkpt><trkpt lat="43.8135267" lon="11.568695"><ele>838.8</ele><time>2026-05-02T13:00:29.04Z</time></trkpt><trkpt lat="43.8134417" lon="11.5687883"><ele>839.2</ele><time>2026-05-02T13:00:30.041Z</time></trkpt><trkpt lat="43.813365" lon="11.568875"><ele>839.6</ele><time>2026-05-02T13:00:31.041Z</time></trkpt><trkpt lat="43.81329" lon="11.5689467"><ele>840.0</ele><time>2026-05-02T13:00:32.043Z</time></trkpt><trkpt lat="43.8132083" lon="11.5689933"><ele>840.0</ele><time>2026-05-02T13:00:33.04Z</time></trkpt><trkpt lat="43.8131133" lon="11.5690233"><ele>840.0</ele><time>2026-05-02T13:00:34.04Z</time></trkpt><trkpt lat="43.8130017" lon="11.5690783"><ele>840.0</ele><time>2026-05-02T13:00:35.04Z</time></trkpt><trkpt lat="43.81289" lon="11.5691417"><ele>840.0</ele><time>2026-05-02T13:00:36.04Z</time></trkpt><trkpt lat="43.8127983" lon="11.5692067"><ele>840.0</ele><time>2026-05-02T13:00:37.04Z</time></trkpt><trkpt lat="43.812725" lon="11.56927"><ele>840.0</ele><time>2026-05-02T13:00:38.043Z</time></trkpt><trkpt lat="43.8126583" lon="11.569325"><ele>840.0</ele><time>2026-05-02T13:00:39.039Z</time></trkpt><trkpt lat="43.812595" lon="11.5693633"><ele>840.0</ele><time>2026-05-02T13:00:40.04Z</time></trkpt><trkpt lat="43.8124967" lon="11.5693633"><ele>840.0</ele><time>2026-05-02T13:00:42.04Z</time></trkpt><trkpt lat="43.8125217" lon="11.5692767"><ele>840.0</ele><time>2026-05-02T13:00:46.039Z</time></trkpt><trkpt lat="43.8124683" lon="11.5693583"><ele>840.0</ele><time>2026-05-02T13:05:58.039Z</time></trkpt><trkpt lat="43.8123417" lon="11.569425"><ele>838.0</ele><time>2026-05-02T13:06:00.04Z</time></trkpt><trkpt lat="43.8122667" lon="11.569475"><ele>836.0</ele><time>2026-05-02T13:06:01.038Z</time></trkpt><trkpt lat="43.8121833" lon="11.5695267"><ele>834.0</ele><time>2026-05-02T13:06:02.04Z</time></trkpt><trkpt lat="43.8120933" lon="11.5695333"><ele>832.0</ele><time>2026-05-02T13:06:03.039Z</time></trkpt><trkpt lat="43.8119817" lon="11.5694933"><ele>830.0</ele><time>2026-05-02T13:06:04.029Z</time></trkpt><trkpt lat="43.811865" lon="11.5694467"><ele>830.2</ele><time>2026-05-02T13:06:05.04Z</time></trkpt><trkpt lat="43.8117433" lon="11.5694117"><ele>830.4</ele><time>2026-05-02T13:06:06.039Z</time></trkpt><trkpt lat="43.8116333" lon="11.569395"><ele>830.5999999999999</ele><time>2026-05-02T13:06:07.04Z</time></trkpt><trkpt lat="43.8115367" lon="11.5693917"><ele>830.8</ele><time>2026-05-02T13:06:08.041Z</time></trkpt><trkpt lat="43.81145" lon="11.56941"><ele>831.0</ele><time>2026-05-02T13:06:09.039Z</time></trkpt><trkpt lat="43.8113617" lon="11.5694417"><ele>831.0</ele><time>2026-05-02T13:06:10.038Z</time></trkpt><trkpt lat="43.8112683" lon="11.56948"><ele>831.0</ele><time>2026-05-02T13:06:11.039Z</time></trkpt><trkpt lat="43.811175" lon="11.56953"><ele>831.0</ele><time>2026-05-02T13:06:12.039Z</time></trkpt><trkpt lat="43.8111017" lon="11.569585"><ele>831.0</ele><time>2026-05-02T13:06:13.04Z</time></trkpt><trkpt lat="43.81103" lon="11.569665"><ele>831.0</ele><time>2026-05-02T13:06:14.04Z</time></trkpt><trkpt lat="43.8109667" lon="11.5697733"><ele>835.1999999999999</ele><time>2026-05-02T13:06:15.038Z</time></trkpt><trkpt lat="43.810905" lon="11.5698733"><ele>839.4</ele><time>2026-05-02T13:06:16.04Z</time></trkpt><trkpt lat="43.81082" lon="11.5699533"><ele>843.6</ele><time>2026-05-02T13:06:17.04Z</time></trkpt><trkpt lat="43.8107133" lon="11.5700017"><ele>847.8</ele><time>2026-05-02T13:06:18.037Z</time></trkpt><trkpt lat="43.8106183" lon="11.570065"><ele>852.0</ele><time>2026-05-02T13:06:19.04Z</time></trkpt><trkpt lat="43.8105183" lon="11.5701067"><ele>852.0</ele><time>2026-05-02T13:06:20.04Z</time></trkpt><trkpt lat="43.810415" lon="11.570125"><ele>852.0</ele><time>2026-05-02T13:06:21.039Z</time></trkpt><trkpt lat="43.8103133" lon="11.5701733"><ele>852.0</ele><time>2026-05-02T13:06:22.04Z</time></trkpt><trkpt lat="43.81022" lon="11.5702117"><ele>852.0</ele><time>2026-05-02T13:06:23.032Z</time></trkpt><trkpt lat="43.8101283" lon="11.5702067"><ele>852.0</ele><time>2026-05-02T13:06:24.039Z</time></trkpt><trkpt lat="43.8100267" lon="11.57021"><ele>852.0</ele><time>2026-05-02T13:06:25.039Z</time></trkpt><trkpt lat="43.80992" lon="11.5702533"><ele>852.0</ele><time>2026-05-02T13:06:26.043Z</time></trkpt><trkpt lat="43.8098067" lon="11.57029"><ele>852.0</ele><time>2026-05-02T13:06:27.04Z</time></trkpt><trkpt lat="43.8096867" lon="11.5703067"><ele>852.0</ele><time>2026-05-02T13:06:28.039Z</time></trkpt><trkpt lat="43.8095733" lon="11.5703833"><ele>852.5</ele><time>2026-05-02T13:06:29.041Z</time></trkpt><trkpt lat="43.8094683" lon="11.570445"><ele>853.0</ele><time>2026-05-02T13:06:30.041Z</time></trkpt><trkpt lat="43.809385" lon="11.57054"><ele>853.5</ele><time>2026-05-02T13:06:31.04Z</time></trkpt><trkpt lat="43.8092983" lon="11.5706417"><ele>854.0</ele><time>2026-05-02T13:06:32.042Z</time></trkpt><trkpt lat="43.8091917" lon="11.5707367"><ele>854.0</ele><time>2026-05-02T13:06:33.039Z</time></trkpt><trkpt lat="43.8091083" lon="11.5708733"><ele>854.0</ele><time>2026-05-02T13:06:34.04Z</time></trkpt><trkpt lat="43.8090283" lon="11.5710117"><ele>854.0</ele><time>2026-05-02T13:06:35.042Z</time></trkpt><trkpt lat="43.8089267" lon="11.5711"><ele>854.0</ele><time>2026-05-02T13:06:36.042Z</time></trkpt><trkpt lat="43.8088183" lon="11.5711783"><ele>853.25</ele><time>2026-05-02T13:06:37.041Z</time></trkpt><trkpt lat="43.8086867" lon="11.571235"><ele>852.5</ele><time>2026-05-02T13:06:38.042Z</time></trkpt><trkpt lat="43.808575" lon="11.5713367"><ele>851.75</ele><time>2026-05-02T13:06:39.04Z</time></trkpt><trkpt lat="43.8084717" lon="11.571455"><ele>851.0</ele><time>2026-05-02T13:06:40.039Z</time></trkpt><trkpt lat="43.808365" lon="11.571485"><ele>854.1999999999999</ele><time>2026-05-02T13:06:41.04Z</time></trkpt><trkpt lat="43.8082583" lon="11.5714783"><ele>857.4</ele><time>2026-05-02T13:06:42.039Z</time></trkpt><trkpt lat="43.808155" lon="11.57149"><ele>860.6</ele><time>2026-05-02T13:06:43.039Z</time></trkpt><trkpt lat="43.8080517" lon="11.5715383"><ele>863.8</ele><time>2026-05-02T13:06:44.041Z</time></trkpt><trkpt lat="43.8079433" lon="11.5715917"><ele>867.0</ele><time>2026-05-02T13:06:45.039Z</time></trkpt><trkpt lat="43.8078467" lon="11.5716217"><ele>867.0</ele><time>2026-05-02T13:06:46.039Z</time></trkpt><trkpt lat="43.8077517" lon="11.5716367"><ele>867.0</ele><time>2026-05-02T13:06:47.04Z</time></trkpt><trkpt lat="43.8076667" lon="11.5716817"><ele>867.0</ele><time>2026-05-02T13:06:48.04Z</time></trkpt><trkpt lat="43.8076183" lon="11.5717717"><ele>867.0</ele><time>2026-05-02T13:06:49.041Z</time></trkpt><trkpt lat="43.8075883" lon="11.5718683"><ele>867.0</ele><time>2026-05-02T13:06:50.042Z</time></trkpt><trkpt lat="43.807565" lon="11.57198"><ele>867.0</ele><time>2026-05-02T13:06:51.039Z</time></trkpt><trkpt lat="43.8075283" lon="11.5720883"><ele>869.1666666666666</ele><time>2026-05-02T13:06:52.039Z</time></trkpt><trkpt lat="43.807525" lon="11.5721917"><ele>871.3333333333333</ele><time>2026-05-02T13:06:53.043Z</time></trkpt><trkpt lat="43.80749" lon="11.5723133"><ele>873.5</ele><time>2026-05-02T13:06:54.039Z</time></trkpt><trkpt lat="43.80746" lon="11.57242"><ele>875.6666666666666</ele><time>2026-05-02T13:06:55.041Z</time></trkpt><trkpt lat="43.8074267" lon="11.572525"><ele>877.8333333333333</ele><time>2026-05-02T13:06:56.041Z</time></trkpt><trkpt lat="43.8073917" lon="11.5726333"><ele>880.0</ele><time>2026-05-02T13:06:57.039Z</time></trkpt><trkpt lat="43.8073406" lon="11.5727331"><ele>880.0</ele><time>2026-05-02T13:06:58.037Z</time></trkpt><trkpt lat="43.8072761" lon="11.5728191"><ele>880.0</ele><time>2026-05-02T13:06:59.04Z</time></trkpt><trkpt lat="43.8071979" lon="11.5728853"><ele>880.0</ele><time>2026-05-02T13:07:00.039Z</time></trkpt><trkpt lat="43.8071064" lon="11.572945"><ele>880.0</ele><time>2026-05-02T13:07:01.04Z</time></trkpt><trkpt lat="43.8070152" lon="11.5730014"><ele>880.0</ele><time>2026-05-02T13:07:02.042Z</time></trkpt><trkpt lat="43.8069235" lon="11.5730461"><ele>879.0</ele><time>2026-05-02T13:07:03.04Z</time></trkpt><trkpt lat="43.8068271" lon="11.5730861"><ele>878.0</ele><time>2026-05-02T13:07:04.039Z</time></trkpt><trkpt lat="43.8067269" lon="11.5731231"><ele>877.0</ele><time>2026-05-02T13:07:05.04Z</time></trkpt><trkpt lat="43.8066305" lon="11.5731646"><ele>876.0</ele><time>2026-05-02T13:07:06.041Z</time></trkpt><trkpt lat="43.8065417" lon="11.5732161"><ele>875.0</ele><time>2026-05-02T13:07:07.039Z</time></trkpt><trkpt lat="43.8064593" lon="11.5732814"><ele>875.0</ele><time>2026-05-02T13:07:08.041Z</time></trkpt><trkpt lat="43.8063865" lon="11.5733586"><ele>875.0</ele><time>2026-05-02T13:07:09.041Z</time></trkpt><trkpt lat="43.806321" lon="11.5734529"><ele>875.0</ele><time>2026-05-02T13:07:10.039Z</time></trkpt><trkpt lat="43.8062663" lon="11.5735656"><ele>875.0</ele><time>2026-05-02T13:07:11.041Z</time></trkpt><trkpt lat="43.8062184" lon="11.5736895"><ele>875.0</ele><time>2026-05-02T13:07:12.039Z</time></trkpt><trkpt lat="43.8061711" lon="11.5738239"><ele>873.0</ele><time>2026-05-02T13:07:13.041Z</time></trkpt><trkpt lat="43.806119" lon="11.5739464"><ele>871.0</ele><time>2026-05-02T13:07:14.041Z</time></trkpt><trkpt lat="43.8060732" lon="11.5740629"><ele>869.0</ele><time>2026-05-02T13:07:15.04Z</time></trkpt><trkpt lat="43.8060362" lon="11.574164"><ele>867.0</ele><time>2026-05-02T13:07:16.04Z</time></trkpt><trkpt lat="43.8059307" lon="11.5742341"><ele>865.0</ele><time>2026-05-02T13:07:18.039Z</time></trkpt><trkpt lat="43.8058603" lon="11.5742522"><ele>864.9999999999999</ele><time>2026-05-02T13:07:19.039Z</time></trkpt><trkpt lat="43.8057857" lon="11.5742917"><ele>865.0</ele><time>2026-05-02T13:07:20.044Z</time></trkpt><trkpt lat="43.8057097" lon="11.5743518"><ele>865.0</ele><time>2026-05-02T13:07:21.04Z</time></trkpt><trkpt lat="43.8056352" lon="11.5744231"><ele>865.0</ele><time>2026-05-02T13:07:22.039Z</time></trkpt><trkpt lat="43.805566" lon="11.5744943"><ele>864.9999999999999</ele><time>2026-05-02T13:07:23.039Z</time></trkpt><trkpt lat="43.8055028" lon="11.5745651"><ele>865.0</ele><time>2026-05-02T13:07:24.041Z</time></trkpt><trkpt lat="43.8054431" lon="11.5746357"><ele>865.6666666666666</ele><time>2026-05-02T13:07:25.041Z</time></trkpt><trkpt lat="43.8053796" lon="11.5747051"><ele>866.3333333333333</ele><time>2026-05-02T13:07:26.041Z</time></trkpt><trkpt lat="43.8053195" lon="11.5747724"><ele>867.0</ele><time>2026-05-02T13:07:27.039Z</time></trkpt><trkpt lat="43.8052724" lon="11.5748489"><ele>867.6666666666667</ele><time>2026-05-02T13:07:28.04Z</time></trkpt><trkpt lat="43.8052433" lon="11.5749396"><ele>868.3333333333334</ele><time>2026-05-02T13:07:29.041Z</time></trkpt><trkpt lat="43.8052245" lon="11.5750432"><ele>869.0</ele><time>2026-05-02T13:07:30.041Z</time></trkpt><trkpt lat="43.8052083" lon="11.5751667"><ele>869.0000000000001</ele><time>2026-05-02T13:07:31.04Z</time></trkpt><trkpt lat="43.8051767" lon="11.575275"><ele>869.0</ele><time>2026-05-02T13:07:32.041Z</time></trkpt><trkpt lat="43.80514" lon="11.5753817"><ele>869.0</ele><time>2026-05-02T13:07:33.039Z</time></trkpt><trkpt lat="43.805105" lon="11.5754783"><ele>869.0</ele><time>2026-05-02T13:07:34.039Z</time></trkpt><trkpt lat="43.8050817" lon="11.5755783"><ele>869.0000000000001</ele><time>2026-05-02T13:07:35.041Z</time></trkpt><trkpt lat="43.805065" lon="11.57567"><ele>869.0</ele><time>2026-05-02T13:07:36.04Z</time></trkpt><trkpt lat="43.8050417" lon="11.5757983"><ele>867.0000000000001</ele><time>2026-05-02T13:07:38.044Z</time></trkpt><trkpt lat="43.804975" lon="11.5758683"><ele>865.0</ele><time>2026-05-02T13:07:40.041Z</time></trkpt><trkpt lat="43.8049317" lon="11.5759433"><ele>863.0</ele><time>2026-05-02T13:07:41.04Z</time></trkpt><trkpt lat="43.8048817" lon="11.57604"><ele>861.0</ele><time>2026-05-02T13:07:42.039Z</time></trkpt><trkpt lat="43.804825" lon="11.5761267"><ele>859.0000000000001</ele><time>2026-05-02T13:07:43.04Z</time></trkpt><trkpt lat="43.8047567" lon="11.5762067"><ele>857.0</ele><time>2026-05-02T13:07:44.04Z</time></trkpt><trkpt lat="43.8046917" lon="11.5762917"><ele>857.0</ele><time>2026-05-02T13:07:45.037Z</time></trkpt><trkpt lat="43.8046183" lon="11.5763933"><ele>857.0</ele><time>2026-05-02T13:07:46.038Z</time></trkpt><trkpt lat="43.8045517" lon="11.5765033"><ele>857.0</ele><time>2026-05-02T13:07:47.039Z</time></trkpt><trkpt lat="43.8044933" lon="11.5766067"><ele>857.0</ele><time>2026-05-02T13:07:48.039Z</time></trkpt><trkpt lat="43.8044383" lon="11.576705"><ele>857.0</ele><time>2026-05-02T13:07:49.04Z</time></trkpt><trkpt lat="43.8043867" lon="11.5767883"><ele>852.6666666666667</ele><time>2026-05-02T13:07:50.04Z</time></trkpt><trkpt lat="43.8043117" lon="11.57687"><ele>848.3333333333334</ele><time>2026-05-02T13:07:52.037Z</time></trkpt><trkpt lat="43.8042233" lon="11.5769"><ele>844.0</ele><time>2026-05-02T13:07:54.029Z</time></trkpt><trkpt lat="43.8041367" lon="11.57693"><ele>839.6666666666667</ele><time>2026-05-02T13:07:56.04Z</time></trkpt><trkpt lat="43.8040867" lon="11.5769833"><ele>835.3333333333334</ele><time>2026-05-02T13:07:58.038Z</time></trkpt><trkpt lat="43.8040233" lon="11.5769283"><ele>831.0</ele><time>2026-05-02T13:08:09.028Z</time></trkpt><trkpt lat="43.8039483" lon="11.5767967"><ele>831.0</ele><time>2026-05-02T13:08:11.038Z</time></trkpt><trkpt lat="43.8039083" lon="11.576705"><ele>831.0</ele><time>2026-05-02T13:08:12.037Z</time></trkpt><trkpt lat="43.8038533" lon="11.5765967"><ele>831.0</ele><time>2026-05-02T13:08:13.037Z</time></trkpt><trkpt lat="43.8037983" lon="11.5764833"><ele>831.0</ele><time>2026-05-02T13:08:14.04Z</time></trkpt><trkpt lat="43.803745" lon="11.5763817"><ele>831.0</ele><time>2026-05-02T13:08:15.039Z</time></trkpt><trkpt lat="43.8036933" lon="11.5762967"><ele>831.0</ele><time>2026-05-02T13:08:16.038Z</time></trkpt><trkpt lat="43.8036283" lon="11.5762367"><ele>831.0</ele><time>2026-05-02T13:08:17.039Z</time></trkpt><trkpt lat="43.8035633" lon="11.5762067"><ele>831.0</ele><time>2026-05-02T13:08:18.041Z</time></trkpt><trkpt lat="43.8034933" lon="11.5762183"><ele>831.0</ele><time>2026-05-02T13:08:19.037Z</time></trkpt><trkpt lat="43.8034283" lon="11.57627"><ele>831.0</ele><time>2026-05-02T13:08:20.041Z</time></trkpt><trkpt lat="43.80336" lon="11.5763283"><ele>831.0</ele><time>2026-05-02T13:08:21.041Z</time></trkpt><trkpt lat="43.8032817" lon="11.57638"><ele>831.0</ele><time>2026-05-02T13:08:22.04Z</time></trkpt><trkpt lat="43.8031967" lon="11.576445"><ele>834.4</ele><time>2026-05-02T13:08:23.04Z</time></trkpt><trkpt lat="43.803115" lon="11.5765333"><ele>837.8</ele><time>2026-05-02T13:08:24.042Z</time></trkpt><trkpt lat="43.8030383" lon="11.576645"><ele>841.1999999999999</ele><time>2026-05-02T13:08:25.039Z</time></trkpt><trkpt lat="43.802965" lon="11.576765"><ele>844.5999999999999</ele><time>2026-05-02T13:08:26.04Z</time></trkpt><trkpt lat="43.8028933" lon="11.5768733"><ele>848.0</ele><time>2026-05-02T13:08:27.037Z</time></trkpt><trkpt lat="43.80282" lon="11.5769667"><ele>848.0</ele><time>2026-05-02T13:08:28.039Z</time></trkpt><trkpt lat="43.802735" lon="11.5770517"><ele>848.0</ele><time>2026-05-02T13:08:29.038Z</time></trkpt><trkpt lat="43.8026467" lon="11.577105"><ele>848.0</ele><time>2026-05-02T13:08:30.039Z</time></trkpt><trkpt lat="43.80256" lon="11.5771"><ele>848.0</ele><time>2026-05-02T13:08:31.038Z</time></trkpt><trkpt lat="43.8024833" lon="11.5770483"><ele>848.0</ele><time>2026-05-02T13:08:32.041Z</time></trkpt><trkpt lat="43.8024183" lon="11.57698"><ele>849.3333333333334</ele><time>2026-05-02T13:08:33.04Z</time></trkpt><trkpt lat="43.8023617" lon="11.5769083"><ele>850.6666666666667</ele><time>2026-05-02T13:08:34.039Z</time></trkpt><trkpt lat="43.8022967" lon="11.57685"><ele>852.0</ele><time>2026-05-02T13:08:35.039Z</time></trkpt><trkpt lat="43.8022133" lon="11.57681"><ele>853.3333333333333</ele><time>2026-05-02T13:08:36.04Z</time></trkpt><trkpt lat="43.8021183" lon="11.5767817"><ele>854.6666666666666</ele><time>2026-05-02T13:08:37.039Z</time></trkpt><trkpt lat="43.8020183" lon="11.5767783"><ele>856.0</ele><time>2026-05-02T13:08:38.04Z</time></trkpt><trkpt lat="43.8019217" lon="11.57678"><ele>859.1666666666666</ele><time>2026-05-02T13:08:39.039Z</time></trkpt><trkpt lat="43.8018317" lon="11.576785"><ele>862.3333333333333</ele><time>2026-05-02T13:08:40.039Z</time></trkpt><trkpt lat="43.8017483" lon="11.5768083"><ele>865.5</ele><time>2026-05-02T13:08:41.04Z</time></trkpt><trkpt lat="43.8016767" lon="11.5768317"><ele>868.6666666666667</ele><time>2026-05-02T13:08:42.039Z</time></trkpt><trkpt lat="43.801605" lon="11.5768483"><ele>871.8333333333334</ele><time>2026-05-02T13:08:43.039Z</time></trkpt><trkpt lat="43.8015333" lon="11.576855"><ele>875.0</ele><time>2026-05-02T13:08:44.041Z</time></trkpt><trkpt lat="43.8014467" lon="11.57685"><ele>875.0</ele><time>2026-05-02T13:08:45.04Z</time></trkpt><trkpt lat="43.80135" lon="11.5768417"><ele>875.0</ele><time>2026-05-02T13:08:46.04Z</time></trkpt><trkpt lat="43.801245" lon="11.57682"><ele>875.0</ele><time>2026-05-02T13:08:47.04Z</time></trkpt><trkpt lat="43.8011517" lon="11.5767817"><ele>875.0</ele><time>2026-05-02T13:08:48.04Z</time></trkpt><trkpt lat="43.8010683" lon="11.57674"><ele>875.0</ele><time>2026-05-02T13:08:49.041Z</time></trkpt><trkpt lat="43.801" lon="11.576705"><ele>876.1666666666667</ele><time>2026-05-02T13:08:50.042Z</time></trkpt><trkpt lat="43.8009317" lon="11.5766933"><ele>877.3333333333334</ele><time>2026-05-02T13:08:51.04Z</time></trkpt><trkpt lat="43.800865" lon="11.5767067"><ele>878.5</ele><time>2026-05-02T13:08:52.041Z</time></trkpt><trkpt lat="43.8007817" lon="11.5767467"><ele>879.6666666666667</ele><time>2026-05-02T13:08:53.039Z</time></trkpt><trkpt lat="43.8006983" lon="11.5767733"><ele>880.8333333333334</ele><time>2026-05-02T13:08:54.039Z</time></trkpt><trkpt lat="43.8006083" lon="11.57678"><ele>882.0</ele><time>2026-05-02T13:08:55.04Z</time></trkpt><trkpt lat="43.800525" lon="11.57677"><ele>882.0</ele><time>2026-05-02T13:08:56.04Z</time></trkpt><trkpt lat="43.8004433" lon="11.5767583"><ele>882.0</ele><time>2026-05-02T13:08:57.039Z</time></trkpt><trkpt lat="43.8003617" lon="11.57672"><ele>882.0</ele><time>2026-05-02T13:08:58.039Z</time></trkpt><trkpt lat="43.8002583" lon="11.57669"><ele>882.0</ele><time>2026-05-02T13:08:59.04Z</time></trkpt><trkpt lat="43.8001483" lon="11.5766483"><ele>882.0</ele><time>2026-05-02T13:09:00.039Z</time></trkpt><trkpt lat="43.80006" lon="11.5765883"><ele>883.6</ele><time>2026-05-02T13:09:01.041Z</time></trkpt><trkpt lat="43.7999683" lon="11.5765517"><ele>885.2</ele><time>2026-05-02T13:09:02.043Z</time></trkpt><trkpt lat="43.7998717" lon="11.5765133"><ele>886.8</ele><time>2026-05-02T13:09:03.04Z</time></trkpt><trkpt lat="43.799785" lon="11.5764583"><ele>888.4</ele><time>2026-05-02T13:09:04.041Z</time></trkpt><trkpt lat="43.7996983" lon="11.576405"><ele>890.0</ele><time>2026-05-02T13:09:05.04Z</time></trkpt><trkpt lat="43.7996133" lon="11.5763583"><ele>890.0000000000001</ele><time>2026-05-02T13:09:06.04Z</time></trkpt><trkpt lat="43.7995233" lon="11.57631"><ele>890.0</ele><time>2026-05-02T13:09:07.04Z</time></trkpt><trkpt lat="43.7994633" lon="11.5762667"><ele>890.0</ele><time>2026-05-02T13:09:08.043Z</time></trkpt><trkpt lat="43.7993583" lon="11.5761917"><ele>890.0</ele><time>2026-05-02T13:09:10.04Z</time></trkpt><trkpt lat="43.7992867" lon="11.5761383"><ele>890.0000000000001</ele><time>2026-05-02T13:09:11.042Z</time></trkpt><trkpt lat="43.799255" lon="11.576215"><ele>890.0</ele><time>2026-05-02T13:09:32.042Z</time></trkpt><trkpt lat="43.7992717" lon="11.5763267"><ele>889.5</ele><time>2026-05-02T13:09:34.039Z</time></trkpt><trkpt lat="43.799255" lon="11.5764617"><ele>889.0</ele><time>2026-05-02T13:09:36.041Z</time></trkpt><trkpt lat="43.7991583" lon="11.5766083"><ele>888.5</ele><time>2026-05-02T13:09:38.042Z</time></trkpt><trkpt lat="43.79908" lon="11.5766733"><ele>888.0</ele><time>2026-05-02T13:09:39.041Z</time></trkpt><trkpt lat="43.7989767" lon="11.5767467"><ele>888.0</ele><time>2026-05-02T13:09:40.04Z</time></trkpt><trkpt lat="43.7988933" lon="11.5767983"><ele>888.0</ele><time>2026-05-02T13:09:41.04Z</time></trkpt><trkpt lat="43.7988117" lon="11.5768517"><ele>888.0</ele><time>2026-05-02T13:09:42.038Z</time></trkpt><trkpt lat="43.7987217" lon="11.5769167"><ele>888.0</ele><time>2026-05-02T13:09:43.038Z</time></trkpt><trkpt lat="43.7986483" lon="11.576975"><ele>888.0</ele><time>2026-05-02T13:09:44.04Z</time></trkpt><trkpt lat="43.7985917" lon="11.5770433"><ele>888.0</ele><time>2026-05-02T13:09:45.038Z</time></trkpt><trkpt lat="43.7985483" lon="11.5771183"><ele>887.2</ele><time>2026-05-02T13:09:46.03Z</time></trkpt><trkpt lat="43.7985083" lon="11.5772283"><ele>886.4</ele><time>2026-05-02T13:09:47.038Z</time></trkpt><trkpt lat="43.7984517" lon="11.5773533"><ele>885.6000000000001</ele><time>2026-05-02T13:09:48.04Z</time></trkpt><trkpt lat="43.7983933" lon="11.57748"><ele>884.8000000000001</ele><time>2026-05-02T13:09:49.038Z</time></trkpt><trkpt lat="43.798325" lon="11.57758"><ele>884.0</ele><time>2026-05-02T13:09:50.04Z</time></trkpt><trkpt lat="43.7982617" lon="11.5776833"><ele>884.0000000000001</ele><time>2026-05-02T13:09:51.038Z</time></trkpt><trkpt lat="43.7982117" lon="11.5777867"><ele>884.0</ele><time>2026-05-02T13:09:52.039Z</time></trkpt><trkpt lat="43.7981683" lon="11.5779417"><ele>884.0</ele><time>2026-05-02T13:09:54.037Z</time></trkpt><trkpt lat="43.79818" lon="11.5780367"><ele>884.0</ele><time>2026-05-02T13:09:55.038Z</time></trkpt><trkpt lat="43.7982" lon="11.5781333"><ele>884.0000000000001</ele><time>2026-05-02T13:09:56.039Z</time></trkpt><trkpt lat="43.7982283" lon="11.5782367"><ele>884.0</ele><time>2026-05-02T13:09:57.038Z</time></trkpt><trkpt lat="43.7982567" lon="11.5783417"><ele>882.6666666666667</ele><time>2026-05-02T13:09:58.037Z</time></trkpt><trkpt lat="43.7982917" lon="11.5784367"><ele>881.3333333333334</ele><time>2026-05-02T13:09:59.039Z</time></trkpt><trkpt lat="43.7983167" lon="11.5785233"><ele>880.0</ele><time>2026-05-02T13:10:00.039Z</time></trkpt><trkpt lat="43.7983417" lon="11.5786067"><ele>878.6666666666667</ele><time>2026-05-02T13:10:01.038Z</time></trkpt><trkpt lat="43.798405" lon="11.5787467"><ele>877.3333333333334</ele><time>2026-05-02T13:10:03.037Z</time></trkpt><trkpt lat="43.7984567" lon="11.57887"><ele>876.0</ele><time>2026-05-02T13:10:05.038Z</time></trkpt><trkpt lat="43.7984483" lon="11.578995"><ele>874.5</ele><time>2026-05-02T13:10:07.038Z</time></trkpt><trkpt lat="43.7983917" lon="11.5791033"><ele>873.0</ele><time>2026-05-02T13:10:09.038Z</time></trkpt><trkpt lat="43.7983433" lon="11.5792017"><ele>871.5</ele><time>2026-05-02T13:10:11.039Z</time></trkpt><trkpt lat="43.7982817" lon="11.57928"><ele>870.0</ele><time>2026-05-02T13:10:13.03Z</time></trkpt><trkpt lat="43.7982317" lon="11.5793467"><ele>868.5</ele><time>2026-05-02T13:10:15.037Z</time></trkpt><trkpt lat="43.798175" lon="11.5794217"><ele>867.0</ele><time>2026-05-02T13:10:18.04Z</time></trkpt><trkpt lat="43.7981167" lon="11.5795183"><ele>865.1666666666666</ele><time>2026-05-02T13:10:21.038Z</time></trkpt><trkpt lat="43.79805" lon="11.5796033"><ele>863.3333333333333</ele><time>2026-05-02T13:10:23.039Z</time></trkpt><trkpt lat="43.797965" lon="11.57972"><ele>861.5</ele><time>2026-05-02T13:10:25.039Z</time></trkpt><trkpt lat="43.7979183" lon="11.5797867"><ele>859.6666666666666</ele><time>2026-05-02T13:10:26.04Z</time></trkpt><trkpt lat="43.7978567" lon="11.5798483"><ele>857.8333333333333</ele><time>2026-05-02T13:10:27.037Z</time></trkpt><trkpt lat="43.7977833" lon="11.579915"><ele>856.0</ele><time>2026-05-02T13:10:28.039Z</time></trkpt><trkpt lat="43.79772" lon="11.57992"><ele>856.8333333333333</ele><time>2026-05-02T13:10:29.04Z</time></trkpt><trkpt lat="43.7976433" lon="11.579985"><ele>857.6666666666666</ele><time>2026-05-02T13:10:30.039Z</time></trkpt><trkpt lat="43.79757" lon="11.5800417"><ele>858.5</ele><time>2026-05-02T13:10:31.038Z</time></trkpt><trkpt lat="43.7974883" lon="11.580105"><ele>859.3333333333333</ele><time>2026-05-02T13:10:32.04Z</time></trkpt><trkpt lat="43.7974217" lon="11.5801833"><ele>860.1666666666666</ele><time>2026-05-02T13:10:33.039Z</time></trkpt><trkpt lat="43.7973683" lon="11.5802617"><ele>861.0</ele><time>2026-05-02T13:10:34.039Z</time></trkpt><trkpt lat="43.7973717" lon="11.58044"><ele>861.0</ele><time>2026-05-02T13:10:36.038Z</time></trkpt><trkpt lat="43.7974033" lon="11.5805617"><ele>861.0</ele><time>2026-05-02T13:10:37.039Z</time></trkpt><trkpt lat="43.7974317" lon="11.58069"><ele>861.0</ele><time>2026-05-02T13:10:38.039Z</time></trkpt><trkpt lat="43.79745" lon="11.5808067"><ele>861.0</ele><time>2026-05-02T13:10:39.038Z</time></trkpt><trkpt lat="43.7974367" lon="11.5809183"><ele>861.0</ele><time>2026-05-02T13:10:40.038Z</time></trkpt><trkpt lat="43.7974167" lon="11.5810317"><ele>861.0</ele><time>2026-05-02T13:10:41.039Z</time></trkpt><trkpt lat="43.7974017" lon="11.581155"><ele>860.25</ele><time>2026-05-02T13:10:42.039Z</time></trkpt><trkpt lat="43.7974017" lon="11.5813033"><ele>859.5</ele><time>2026-05-02T13:10:43.039Z</time></trkpt><trkpt lat="43.79739" lon="11.581465"><ele>858.75</ele><time>2026-05-02T13:10:44.04Z</time></trkpt><trkpt lat="43.79738" lon="11.58163"><ele>858.0</ele><time>2026-05-02T13:10:45.039Z</time></trkpt><trkpt lat="43.7973717" lon="11.58179"><ele>858.0</ele><time>2026-05-02T13:10:46.044Z</time></trkpt><trkpt lat="43.7973667" lon="11.5819383"><ele>858.0</ele><time>2026-05-02T13:10:47.039Z</time></trkpt><trkpt lat="43.7973583" lon="11.5820717"><ele>858.0</ele><time>2026-05-02T13:10:48.039Z</time></trkpt><trkpt lat="43.7973367" lon="11.58218"><ele>858.0</ele><time>2026-05-02T13:10:49.04Z</time></trkpt><trkpt lat="43.797225" lon="11.5822583"><ele>858.0</ele><time>2026-05-02T13:10:51.039Z</time></trkpt><trkpt lat="43.7971467" lon="11.5822517"><ele>858.6666666666666</ele><time>2026-05-02T13:10:52.039Z</time></trkpt><trkpt lat="43.7970583" lon="11.5822417"><ele>859.3333333333333</ele><time>2026-05-02T13:10:53.04Z</time></trkpt><trkpt lat="43.7969683" lon="11.5822583"><ele>860.0</ele><time>2026-05-02T13:10:54.04Z</time></trkpt><trkpt lat="43.7968833" lon="11.5822883"><ele>860.6666666666666</ele><time>2026-05-02T13:10:55.038Z</time></trkpt><trkpt lat="43.796795" lon="11.582315"><ele>861.3333333333333</ele><time>2026-05-02T13:10:56.04Z</time></trkpt><trkpt lat="43.7967083" lon="11.58234"><ele>862.0</ele><time>2026-05-02T13:10:57.04Z</time></trkpt><trkpt lat="43.7966267" lon="11.5823767"><ele>861.9999999999999</ele><time>2026-05-02T13:10:58.04Z</time></trkpt><trkpt lat="43.7965633" lon="11.5824267"><ele>862.0</ele><time>2026-05-02T13:10:59.039Z</time></trkpt><trkpt lat="43.796515" lon="11.5824917"><ele>862.0</ele><time>2026-05-02T13:11:00.038Z</time></trkpt><trkpt lat="43.7964583" lon="11.5826267"><ele>862.0</ele><time>2026-05-02T13:11:02.04Z</time></trkpt><trkpt lat="43.7964583" lon="11.5827317"><ele>861.9999999999999</ele><time>2026-05-02T13:11:03.04Z</time></trkpt><trkpt lat="43.7964683" lon="11.582855"><ele>862.0</ele><time>2026-05-02T13:11:04.041Z</time></trkpt><trkpt lat="43.7964517" lon="11.582945"><ele>855.5</ele><time>2026-05-02T13:11:05.04Z</time></trkpt><trkpt lat="43.79639" lon="11.5830867"><ele>849.0</ele><time>2026-05-02T13:11:07.038Z</time></trkpt><trkpt lat="43.79624" lon="11.583125"><ele>842.5</ele><time>2026-05-02T13:11:09.039Z</time></trkpt><trkpt lat="43.79614" lon="11.5831583"><ele>836.0</ele><time>2026-05-02T13:11:10.039Z</time></trkpt><trkpt lat="43.7960467" lon="11.5832083"><ele>837.3333333333334</ele><time>2026-05-02T13:11:11.039Z</time></trkpt><trkpt lat="43.79598" lon="11.5832617"><ele>838.6666666666667</ele><time>2026-05-02T13:11:13.038Z</time></trkpt><trkpt lat="43.795915" lon="11.5833367"><ele>840.0</ele><time>2026-05-02T13:11:19.039Z</time></trkpt><trkpt lat="43.7958517" lon="11.5834017"><ele>841.3333333333333</ele><time>2026-05-02T13:11:25.041Z</time></trkpt><trkpt lat="43.7957967" lon="11.583535"><ele>842.6666666666666</ele><time>2026-05-02T13:15:25.04Z</time></trkpt><trkpt lat="43.7957567" lon="11.5836383"><ele>844.0</ele><time>2026-05-02T13:15:26.041Z</time></trkpt><trkpt lat="43.7957" lon="11.5837567"><ele>843.9999999999999</ele><time>2026-05-02T13:15:27.04Z</time></trkpt><trkpt lat="43.7956583" lon="11.5838867"><ele>844.0</ele><time>2026-05-02T13:15:28.039Z</time></trkpt><trkpt lat="43.7956417" lon="11.5840117"><ele>844.0</ele><time>2026-05-02T13:15:29.04Z</time></trkpt><trkpt lat="43.7955983" lon="11.5840983"><ele>844.0</ele><time>2026-05-02T13:15:30.039Z</time></trkpt><trkpt lat="43.795545" lon="11.58417"><ele>843.9999999999999</ele><time>2026-05-02T13:15:31.038Z</time></trkpt><trkpt lat="43.7954783" lon="11.5842033"><ele>844.0</ele><time>2026-05-02T13:15:32.04Z</time></trkpt><trkpt lat="43.7954117" lon="11.5842633"><ele>843.9999999999999</ele><time>2026-05-02T13:15:33.039Z</time></trkpt><trkpt lat="43.795375" lon="11.5843517"><ele>844.0</ele><time>2026-05-02T13:15:34.03Z</time></trkpt><trkpt lat="43.7953117" lon="11.5844267"><ele>844.0</ele><time>2026-05-02T13:15:35.039Z</time></trkpt><trkpt lat="43.7952817" lon="11.5845233"><ele>844.0</ele><time>2026-05-02T13:15:36.038Z</time></trkpt><trkpt lat="43.795235" lon="11.5846117"><ele>843.9999999999999</ele><time>2026-05-02T13:15:37.039Z</time></trkpt><trkpt lat="43.7951583" lon="11.5847317"><ele>844.0</ele><time>2026-05-02T13:15:39.038Z</time></trkpt><trkpt lat="43.79507" lon="11.5847983"><ele>846.4999999999999</ele><time>2026-05-02T13:15:41.043Z</time></trkpt><trkpt lat="43.7950067" lon="11.5848283"><ele>849.0</ele><time>2026-05-02T13:15:42.04Z</time></trkpt><trkpt lat="43.7949283" lon="11.5848633"><ele>851.5</ele><time>2026-05-02T13:15:43.041Z</time></trkpt><trkpt lat="43.7948517" lon="11.5848967"><ele>854.0</ele><time>2026-05-02T13:15:44.041Z</time></trkpt><trkpt lat="43.79479" lon="11.584925"><ele>856.4999999999999</ele><time>2026-05-02T13:15:45.039Z</time></trkpt><trkpt lat="43.7947033" lon="11.5849867"><ele>859.0</ele><time>2026-05-02T13:15:47.039Z</time></trkpt><trkpt lat="43.794575" lon="11.5850567"><ele>859.0</ele><time>2026-05-02T13:15:49.04Z</time></trkpt><trkpt lat="43.79449" lon="11.5851117"><ele>859.0000000000001</ele><time>2026-05-02T13:15:50.041Z</time></trkpt><trkpt lat="43.7944083" lon="11.585185"><ele>859.0000000000001</ele><time>2026-05-02T13:15:51.038Z</time></trkpt><trkpt lat="43.79433" lon="11.5852633"><ele>859.0</ele><time>2026-05-02T13:15:52.04Z</time></trkpt><trkpt lat="43.7942583" lon="11.58535"><ele>859.0</ele><time>2026-05-02T13:15:53.039Z</time></trkpt><trkpt lat="43.7942" lon="11.585435"><ele>857.4000000000001</ele><time>2026-05-02T13:15:54.039Z</time></trkpt><trkpt lat="43.7941524" lon="11.5855132"><ele>855.8000000000001</ele><time>2026-05-02T13:15:55.04Z</time></trkpt><trkpt lat="43.79411" lon="11.585593"><ele>854.2</ele><time>2026-05-02T13:15:56.041Z</time></trkpt><trkpt lat="43.7940693" lon="11.5856622"><ele>852.5999999999999</ele><time>2026-05-02T13:15:57.038Z</time></trkpt><trkpt lat="43.793953" lon="11.5857199"><ele>851.0</ele><time>2026-05-02T13:15:59.042Z</time></trkpt><trkpt lat="43.793829" lon="11.5857324"><ele>851.0</ele><time>2026-05-02T13:16:01.039Z</time></trkpt><trkpt lat="43.7937698" lon="11.5857749"><ele>851.0</ele><time>2026-05-02T13:16:02.041Z</time></trkpt><trkpt lat="43.7936986" lon="11.5858439"><ele>851.0</ele><time>2026-05-02T13:16:03.038Z</time></trkpt><trkpt lat="43.7936246" lon="11.5859315"><ele>851.0</ele><time>2026-05-02T13:16:04.038Z</time></trkpt><trkpt lat="43.7935446" lon="11.5860463"><ele>851.0</ele><time>2026-05-02T13:16:05.038Z</time></trkpt><trkpt lat="43.7934645" lon="11.5861659"><ele>852.5999999999999</ele><time>2026-05-02T13:16:06.038Z</time></trkpt><trkpt lat="43.7933808" lon="11.5862689"><ele>854.2</ele><time>2026-05-02T13:16:07.041Z</time></trkpt><trkpt lat="43.7932924" lon="11.5863543"><ele>855.8000000000001</ele><time>2026-05-02T13:16:08.041Z</time></trkpt><trkpt lat="43.793196" lon="11.5864334"><ele>857.4000000000001</ele><time>2026-05-02T13:16:09.038Z</time></trkpt><trkpt lat="43.793095" lon="11.5865012"><ele>859.0</ele><time>2026-05-02T13:16:10.038Z</time></trkpt><trkpt lat="43.7930001" lon="11.5865611"><ele>858.9999999999999</ele><time>2026-05-02T13:16:11.039Z</time></trkpt><trkpt lat="43.7929177" lon="11.5866144"><ele>859.0</ele><time>2026-05-02T13:16:12.04Z</time></trkpt><trkpt lat="43.7928473" lon="11.5866366"><ele>859.0</ele><time>2026-05-02T13:16:13.041Z</time></trkpt><trkpt lat="43.7927777" lon="11.5866381"><ele>859.0</ele><time>2026-05-02T13:16:14.039Z</time></trkpt><trkpt lat="43.7927065" lon="11.5866031"><ele>858.9999999999999</ele><time>2026-05-02T13:16:15.037Z</time></trkpt><trkpt lat="43.7926374" lon="11.5865348"><ele>859.0</ele><time>2026-05-02T13:16:16.037Z</time></trkpt><trkpt lat="43.7925731" lon="11.586448"><ele>861.1666666666666</ele><time>2026-05-02T13:16:17.039Z</time></trkpt><trkpt lat="43.7925068" lon="11.586389"><ele>863.3333333333333</ele><time>2026-05-02T13:16:18.037Z</time></trkpt><trkpt lat="43.7924305" lon="11.5863509"><ele>865.5</ele><time>2026-05-02T13:16:19.04Z</time></trkpt><trkpt lat="43.7923495" lon="11.5863322"><ele>867.6666666666667</ele><time>2026-05-02T13:16:20.041Z</time></trkpt><trkpt lat="43.7922655" lon="11.5863353"><ele>869.8333333333334</ele><time>2026-05-02T13:16:21.037Z</time></trkpt><trkpt lat="43.7921823" lon="11.5863476"><ele>872.0</ele><time>2026-05-02T13:16:22.039Z</time></trkpt><trkpt lat="43.7920822" lon="11.5863667"><ele>872.0</ele><time>2026-05-02T13:16:23.04Z</time></trkpt><trkpt lat="43.7919771" lon="11.5863962"><ele>872.0</ele><time>2026-05-02T13:16:24.039Z</time></trkpt><trkpt lat="43.7918827" lon="11.5864108"><ele>872.0</ele><time>2026-05-02T13:16:25.04Z</time></trkpt><trkpt lat="43.7917923" lon="11.5863918"><ele>872.0</ele><time>2026-05-02T13:16:26.04Z</time></trkpt><trkpt lat="43.7917066" lon="11.5863477"><ele>872.0</ele><time>2026-05-02T13:16:27.037Z</time></trkpt><trkpt lat="43.7916363" lon="11.5862844"><ele>872.6</ele><time>2026-05-02T13:16:28.038Z</time></trkpt><trkpt lat="43.7915742" lon="11.5862233"><ele>873.2</ele><time>2026-05-02T13:16:29.04Z</time></trkpt><trkpt lat="43.7915225" lon="11.5861601"><ele>873.8</ele><time>2026-05-02T13:16:30.037Z</time></trkpt><trkpt lat="43.7914185" lon="11.586092"><ele>874.4</ele><time>2026-05-02T13:16:32.041Z</time></trkpt><trkpt lat="43.791335" lon="11.5861233"><ele>875.0</ele><time>2026-05-02T13:16:34.038Z</time></trkpt><trkpt lat="43.7912679" lon="11.5862336"><ele>875.0000000000001</ele><time>2026-05-02T13:16:36.038Z</time></trkpt><trkpt lat="43.7911855" lon="11.5863651"><ele>875.0</ele><time>2026-05-02T13:16:38.041Z</time></trkpt><trkpt lat="43.7911213" lon="11.5864221"><ele>875.0</ele><time>2026-05-02T13:16:39.038Z</time></trkpt><trkpt lat="43.7910529" lon="11.5864558"><ele>875.0</ele><time>2026-05-02T13:16:40.039Z</time></trkpt><trkpt lat="43.7909824" lon="11.5864567"><ele>875.0000000000001</ele><time>2026-05-02T13:16:41.04Z</time></trkpt><trkpt lat="43.7909096" lon="11.5864438"><ele>875.0</ele><time>2026-05-02T13:16:42.039Z</time></trkpt><trkpt lat="43.790832" lon="11.5864235"><ele>874.6666666666667</ele><time>2026-05-02T13:16:43.039Z</time></trkpt><trkpt lat="43.7907558" lon="11.5863986"><ele>874.3333333333334</ele><time>2026-05-02T13:16:44.041Z</time></trkpt><trkpt lat="43.7906761" lon="11.5863794"><ele>874.0</ele><time>2026-05-02T13:16:45.037Z</time></trkpt><trkpt lat="43.7905945" lon="11.5863659"><ele>873.6666666666667</ele><time>2026-05-02T13:16:46.038Z</time></trkpt><trkpt lat="43.7905167" lon="11.5863499"><ele>873.3333333333334</ele><time>2026-05-02T13:16:47.039Z</time></trkpt><trkpt lat="43.7904416" lon="11.5863235"><ele>873.0</ele><time>2026-05-02T13:16:48.037Z</time></trkpt><trkpt lat="43.790376" lon="11.5862744"><ele>872.9999999999999</ele><time>2026-05-02T13:16:49.04Z</time></trkpt><trkpt lat="43.7903195" lon="11.5862034"><ele>873.0</ele><time>2026-05-02T13:16:50.041Z</time></trkpt><trkpt lat="43.7902679" lon="11.5861294"><ele>873.0</ele><time>2026-05-02T13:16:51.037Z</time></trkpt><trkpt lat="43.7902142" lon="11.5860628"><ele>873.0</ele><time>2026-05-02T13:16:52.04Z</time></trkpt><trkpt lat="43.7901496" lon="11.5860099"><ele>873.0</ele><time>2026-05-02T13:16:53.04Z</time></trkpt><trkpt lat="43.7900768" lon="11.5859848"><ele>872.9999999999999</ele><time>2026-05-02T13:16:54.039Z</time></trkpt><trkpt lat="43.7900116" lon="11.5859798"><ele>873.0</ele><time>2026-05-02T13:16:55.039Z</time></trkpt><trkpt lat="43.7898891" lon="11.585992"><ele>872.0</ele><time>2026-05-02T13:16:57.038Z</time></trkpt><trkpt lat="43.7898125" lon="11.5859965"><ele>871.0</ele><time>2026-05-02T13:16:58.039Z</time></trkpt><trkpt lat="43.7897258" lon="11.5860219"><ele>870.0</ele><time>2026-05-02T13:16:59.039Z</time></trkpt><trkpt lat="43.7896271" lon="11.586056"><ele>869.0</ele><time>2026-05-02T13:17:00.038Z</time></trkpt><trkpt lat="43.7895306" lon="11.586122"><ele>868.0</ele><time>2026-05-02T13:17:01.039Z</time></trkpt><trkpt lat="43.7894498" lon="11.5861875"><ele>867.9999999999999</ele><time>2026-05-02T13:17:02.039Z</time></trkpt><trkpt lat="43.7893765" lon="11.586237"><ele>868.0</ele><time>2026-05-02T13:17:03.039Z</time></trkpt><trkpt lat="43.7892993" lon="11.5862795"><ele>868.0</ele><time>2026-05-02T13:17:04.041Z</time></trkpt><trkpt lat="43.7892261" lon="11.5863078"><ele>868.0</ele><time>2026-05-02T13:17:05.039Z</time></trkpt><trkpt lat="43.7891497" lon="11.5863247"><ele>867.9999999999999</ele><time>2026-05-02T13:17:06.037Z</time></trkpt><trkpt lat="43.7890714" lon="11.5863275"><ele>868.0</ele><time>2026-05-02T13:17:07.04Z</time></trkpt><trkpt lat="43.7889881" lon="11.5863275"><ele>868.3333333333333</ele><time>2026-05-02T13:17:08.039Z</time></trkpt><trkpt lat="43.7889009" lon="11.5863318"><ele>868.6666666666666</ele><time>2026-05-02T13:17:09.037Z</time></trkpt><trkpt lat="43.7888138" lon="11.586356"><ele>869.0</ele><time>2026-05-02T13:17:10.039Z</time></trkpt><trkpt lat="43.7887293" lon="11.5863972"><ele>869.3333333333333</ele><time>2026-05-02T13:17:11.04Z</time></trkpt><trkpt lat="43.7886443" lon="11.5864352"><ele>869.6666666666666</ele><time>2026-05-02T13:17:12.037Z</time></trkpt><trkpt lat="43.7885591" lon="11.5864505"><ele>870.0</ele><time>2026-05-02T13:17:13.041Z</time></trkpt><trkpt lat="43.788475" lon="11.5864351"><ele>872.3333333333334</ele><time>2026-05-02T13:17:14.04Z</time></trkpt><trkpt lat="43.7883955" lon="11.5864042"><ele>874.6666666666667</ele><time>2026-05-02T13:17:15.039Z</time></trkpt><trkpt lat="43.7883108" lon="11.5863645"><ele>877.0</ele><time>2026-05-02T13:17:16.04Z</time></trkpt><trkpt lat="43.7882322" lon="11.5863091"><ele>879.3333333333334</ele><time>2026-05-02T13:17:17.039Z</time></trkpt><trkpt lat="43.7881528" lon="11.5862507"><ele>881.6666666666667</ele><time>2026-05-02T13:17:18.038Z</time></trkpt><trkpt lat="43.7880729" lon="11.5861949"><ele>884.0</ele><time>2026-05-02T13:17:19.039Z</time></trkpt><trkpt lat="43.7879976" lon="11.586139"><ele>885.1428571428572</ele><time>2026-05-02T13:17:20.041Z</time></trkpt><trkpt lat="43.7879324" lon="11.5860874"><ele>886.2857142857143</ele><time>2026-05-02T13:17:21.038Z</time></trkpt><trkpt lat="43.7878777" lon="11.586041"><ele>887.4285714285714</ele><time>2026-05-02T13:17:22.038Z</time></trkpt><trkpt lat="43.7878213" lon="11.5859929"><ele>888.5714285714287</ele><time>2026-05-02T13:17:23.041Z</time></trkpt><trkpt lat="43.7877589" lon="11.5859358"><ele>889.7142857142857</ele><time>2026-05-02T13:17:24.038Z</time></trkpt><trkpt lat="43.7876972" lon="11.5858752"><ele>890.8571428571429</ele><time>2026-05-02T13:17:25.04Z</time></trkpt><trkpt lat="43.7876262" lon="11.585827"><ele>892.0</ele><time>2026-05-02T13:17:26.041Z</time></trkpt><trkpt lat="43.7875522" lon="11.5857858"><ele>891.9999999999999</ele><time>2026-05-02T13:17:27.038Z</time></trkpt><trkpt lat="43.7874793" lon="11.5857485"><ele>892.0</ele><time>2026-05-02T13:17:28.04Z</time></trkpt><trkpt lat="43.7873978" lon="11.5857081"><ele>892.0</ele><time>2026-05-02T13:17:29.039Z</time></trkpt><trkpt lat="43.7873069" lon="11.5856667"><ele>892.0</ele><time>2026-05-02T13:17:30.038Z</time></trkpt><trkpt lat="43.787227" lon="11.585609"><ele>891.9999999999999</ele><time>2026-05-02T13:17:31.04Z</time></trkpt><trkpt lat="43.7871599" lon="11.5855411"><ele>892.0</ele><time>2026-05-02T13:17:32.04Z</time></trkpt><trkpt lat="43.7870926" lon="11.5854657"><ele>892.0</ele><time>2026-05-02T13:17:33.038Z</time></trkpt><trkpt lat="43.787027" lon="11.5854047"><ele>892.0</ele><time>2026-05-02T13:17:34.039Z</time></trkpt><trkpt lat="43.7869577" lon="11.5853358"><ele>892.0</ele><time>2026-05-02T13:17:36.038Z</time></trkpt><trkpt lat="43.7868817" lon="11.58525"><ele>892.0</ele><time>2026-05-02T13:20:22.038Z</time></trkpt><trkpt lat="43.7868333" lon="11.58517"><ele>892.0</ele><time>2026-05-02T13:20:26.041Z</time></trkpt><trkpt lat="43.7867717" lon="11.585035"><ele>892.9999999999999</ele><time>2026-05-02T13:26:32.039Z</time></trkpt><trkpt lat="43.78669" lon="11.5850017"><ele>894.0</ele><time>2026-05-02T13:26:34.038Z</time></trkpt><trkpt lat="43.78664" lon="11.5850683"><ele>895.0</ele><time>2026-05-02T13:26:36.038Z</time></trkpt><trkpt lat="43.7865967" lon="11.5852017"><ele>896.0</ele><time>2026-05-02T13:26:38.039Z</time></trkpt><trkpt lat="43.786575" lon="11.585305"><ele>896.9999999999999</ele><time>2026-05-02T13:26:39.039Z</time></trkpt><trkpt lat="43.7865633" lon="11.585425"><ele>898.0</ele><time>2026-05-02T13:26:40.041Z</time></trkpt><trkpt lat="43.7865567" lon="11.58552"><ele>898.0</ele><time>2026-05-02T13:26:41.041Z</time></trkpt><trkpt lat="43.7865333" lon="11.58563"><ele>898.0</ele><time>2026-05-02T13:26:44.042Z</time></trkpt><trkpt lat="43.7865167" lon="11.5857967"><ele>898.0</ele><time>2026-05-02T13:26:46.04Z</time></trkpt><trkpt lat="43.7865167" lon="11.5859083"><ele>898.0</ele><time>2026-05-02T13:26:47.04Z</time></trkpt><trkpt lat="43.78652" lon="11.58605"><ele>898.0</ele><time>2026-05-02T13:26:48.039Z</time></trkpt><trkpt lat="43.7865233" lon="11.58617"><ele>897.9999999999999</ele><time>2026-05-02T13:26:49.039Z</time></trkpt><trkpt lat="43.7865233" lon="11.5862583"><ele>898.0</ele><time>2026-05-02T13:26:50.04Z</time></trkpt><trkpt lat="43.7864767" lon="11.58643"><ele>898.0</ele><time>2026-05-02T13:26:52.038Z</time></trkpt><trkpt lat="43.7864333" lon="11.5865317"><ele>898.0</ele><time>2026-05-02T13:26:53.041Z</time></trkpt><trkpt lat="43.7864167" lon="11.5866283"><ele>897.9999999999999</ele><time>2026-05-02T13:26:54.039Z</time></trkpt><trkpt lat="43.7864033" lon="11.586745"><ele>898.0</ele><time>2026-05-02T13:26:55.039Z</time></trkpt><trkpt lat="43.7863883" lon="11.5868767"><ele>897.9999999999999</ele><time>2026-05-02T13:26:56.04Z</time></trkpt><trkpt lat="43.786375" lon="11.586995"><ele>898.0</ele><time>2026-05-02T13:26:57.039Z</time></trkpt><trkpt lat="43.7863483" lon="11.5871017"><ele>898.0</ele><time>2026-05-02T13:26:58.039Z</time></trkpt><trkpt lat="43.7863117" lon="11.587195"><ele>898.0</ele><time>2026-05-02T13:26:59.039Z</time></trkpt><trkpt lat="43.7862417" lon="11.58728"><ele>897.9999999999999</ele><time>2026-05-02T13:27:00.037Z</time></trkpt><trkpt lat="43.786155" lon="11.5873733"><ele>898.0</ele><time>2026-05-02T13:27:01.038Z</time></trkpt><trkpt lat="43.7860633" lon="11.5874617"><ele>903.0</ele><time>2026-05-02T13:27:02.039Z</time></trkpt><trkpt lat="43.7859867" lon="11.5875417"><ele>908.0</ele><time>2026-05-02T13:27:03.037Z</time></trkpt><trkpt lat="43.7858983" lon="11.5876183"><ele>913.0</ele><time>2026-05-02T13:27:04.04Z</time></trkpt><trkpt lat="43.7857867" lon="11.587695"><ele>918.0</ele><time>2026-05-02T13:27:05.039Z</time></trkpt><trkpt lat="43.7856717" lon="11.5877683"><ele>918.0</ele><time>2026-05-02T13:27:06.037Z</time></trkpt><trkpt lat="43.7855633" lon="11.5878567"><ele>918.0</ele><time>2026-05-02T13:27:07.039Z</time></trkpt><trkpt lat="43.7854783" lon="11.5879483"><ele>918.0</ele><time>2026-05-02T13:27:08.039Z</time></trkpt><trkpt lat="43.785385" lon="11.5880217"><ele>918.0</ele><time>2026-05-02T13:27:09.037Z</time></trkpt><trkpt lat="43.785295" lon="11.5880767"><ele>918.0</ele><time>2026-05-02T13:27:10.039Z</time></trkpt><trkpt lat="43.7852083" lon="11.5881117"><ele>920.6666666666666</ele><time>2026-05-02T13:27:11.04Z</time></trkpt><trkpt lat="43.78513" lon="11.5881267"><ele>923.3333333333333</ele><time>2026-05-02T13:27:12.04Z</time></trkpt><trkpt lat="43.7850433" lon="11.588115"><ele>926.0</ele><time>2026-05-02T13:27:13.039Z</time></trkpt><trkpt lat="43.7849517" lon="11.5881"><ele>928.6666666666666</ele><time>2026-05-02T13:27:14.04Z</time></trkpt><trkpt lat="43.784855" lon="11.5880833"><ele>931.3333333333333</ele><time>2026-05-02T13:27:15.037Z</time></trkpt><trkpt lat="43.7847733" lon="11.58804"><ele>934.0</ele><time>2026-05-02T13:27:16.04Z</time></trkpt><trkpt lat="43.7847083" lon="11.58798"><ele>934.0</ele><time>2026-05-02T13:27:17.04Z</time></trkpt><trkpt lat="43.784655" lon="11.5879"><ele>934.0000000000001</ele><time>2026-05-02T13:27:18.038Z</time></trkpt><trkpt lat="43.7846217" lon="11.5878083"><ele>934.0000000000001</ele><time>2026-05-02T13:27:19.042Z</time></trkpt><trkpt lat="43.7845383" lon="11.58771"><ele>934.0</ele><time>2026-05-02T13:27:21.037Z</time></trkpt><trkpt lat="43.7844867" lon="11.5877733"><ele>934.0</ele><time>2026-05-02T13:27:26.041Z</time></trkpt><trkpt lat="43.7844817" lon="11.5879517"><ele>933.9999999999999</ele><time>2026-05-02T13:27:34.038Z</time></trkpt><trkpt lat="43.78447" lon="11.5880733"><ele>934.0</ele><time>2026-05-02T13:27:35.039Z</time></trkpt><trkpt lat="43.7844483" lon="11.5882"><ele>934.0</ele><time>2026-05-02T13:27:36.037Z</time></trkpt><trkpt lat="43.7844233" lon="11.5883183"><ele>934.0</ele><time>2026-05-02T13:27:37.038Z</time></trkpt><trkpt lat="43.7843933" lon="11.5884317"><ele>933.9999999999999</ele><time>2026-05-02T13:27:38.039Z</time></trkpt><trkpt lat="43.7843683" lon="11.588535"><ele>934.0</ele><time>2026-05-02T13:27:39.037Z</time></trkpt><trkpt lat="43.7843483" lon="11.5886267"><ele>935.9999999999999</ele><time>2026-05-02T13:27:40.04Z</time></trkpt><trkpt lat="43.78429" lon="11.58877"><ele>938.0</ele><time>2026-05-02T13:27:42.04Z</time></trkpt><trkpt lat="43.7842383" lon="11.5888367"><ele>940.0</ele><time>2026-05-02T13:27:43.037Z</time></trkpt><trkpt lat="43.78417" lon="11.5889117"><ele>942.0</ele><time>2026-05-02T13:27:44.04Z</time></trkpt><trkpt lat="43.78412" lon="11.5889767"><ele>943.9999999999999</ele><time>2026-05-02T13:27:45.038Z</time></trkpt><trkpt lat="43.7840783" lon="11.5890433"><ele>946.0</ele><time>2026-05-02T13:27:46.039Z</time></trkpt><trkpt lat="43.78404" lon="11.589115"><ele>946.0</ele><time>2026-05-02T13:27:47.039Z</time></trkpt><trkpt lat="43.784" lon="11.589225"><ele>946.0</ele><time>2026-05-02T13:27:49.04Z</time></trkpt><trkpt lat="43.7840667" lon="11.58932"><ele>946.0</ele><time>2026-05-02T13:27:51.037Z</time></trkpt><trkpt lat="43.7841917" lon="11.58943"><ele>946.0</ele><time>2026-05-02T13:27:52.04Z</time></trkpt><trkpt lat="43.7842933" lon="11.58956"><ele>948.4</ele><time>2026-05-02T13:27:54.04Z</time></trkpt><trkpt lat="43.7844533" lon="11.589665"><ele>950.8</ele><time>2026-05-02T13:27:56.04Z</time></trkpt><trkpt lat="43.78452" lon="11.5897333"><ele>953.1999999999999</ele><time>2026-05-02T13:27:57.037Z</time></trkpt><trkpt lat="43.7846" lon="11.5898067"><ele>955.5999999999999</ele><time>2026-05-02T13:27:58.04Z</time></trkpt><trkpt lat="43.7846583" lon="11.58989"><ele>958.0</ele><time>2026-05-02T13:27:59.04Z</time></trkpt><trkpt lat="43.7847033" lon="11.5899567"><ele>958.0</ele><time>2026-05-02T13:28:00.039Z</time></trkpt><trkpt lat="43.7848067" lon="11.5900467"><ele>958.0</ele><time>2026-05-02T13:28:02.031Z</time></trkpt><trkpt lat="43.78493" lon="11.5901283"><ele>958.0</ele><time>2026-05-02T13:28:04.039Z</time></trkpt><trkpt lat="43.7849983" lon="11.5901317"><ele>958.0</ele><time>2026-05-02T13:28:05.041Z</time></trkpt><trkpt lat="43.7850983" lon="11.590195"><ele>958.0</ele><time>2026-05-02T13:28:07.039Z</time></trkpt><trkpt lat="43.7851617" lon="11.5902833"><ele>958.8333333333333</ele><time>2026-05-02T13:28:09.039Z</time></trkpt><trkpt lat="43.7851917" lon="11.5903717"><ele>959.6666666666666</ele><time>2026-05-02T13:28:10.04Z</time></trkpt><trkpt lat="43.78522" lon="11.590465"><ele>960.5</ele><time>2026-05-02T13:28:11.039Z</time></trkpt><trkpt lat="43.78524" lon="11.59059"><ele>961.3333333333333</ele><time>2026-05-02T13:28:12.039Z</time></trkpt><trkpt lat="43.7852533" lon="11.5907033"><ele>962.1666666666666</ele><time>2026-05-02T13:28:13.04Z</time></trkpt><trkpt lat="43.7852683" lon="11.5908167"><ele>963.0</ele><time>2026-05-02T13:28:14.042Z</time></trkpt><trkpt lat="43.78529" lon="11.5909417"><ele>963.0</ele><time>2026-05-02T13:28:15.039Z</time></trkpt><trkpt lat="43.7853183" lon="11.591055"><ele>963.0</ele><time>2026-05-02T13:28:16.041Z</time></trkpt><trkpt lat="43.78535" lon="11.5911433"><ele>963.0</ele><time>2026-05-02T13:28:17.04Z</time></trkpt><trkpt lat="43.7854233" lon="11.5912117"><ele>963.0</ele><time>2026-05-02T13:28:19.039Z</time></trkpt><trkpt lat="43.7855117" lon="11.59123"><ele>963.0</ele><time>2026-05-02T13:28:22.03Z</time></trkpt><trkpt lat="43.78559" lon="11.5912083"><ele>963.0</ele><time>2026-05-02T13:28:24.04Z</time></trkpt><trkpt lat="43.7856717" lon="11.591195"><ele>965.4</ele><time>2026-05-02T13:28:26.04Z</time></trkpt><trkpt lat="43.7857733" lon="11.5911967"><ele>967.8</ele><time>2026-05-02T13:28:28.04Z</time></trkpt><trkpt lat="43.7858783" lon="11.5912217"><ele>970.2</ele><time>2026-05-02T13:28:30.039Z</time></trkpt><trkpt lat="43.7860167" lon="11.59123"><ele>972.6</ele><time>2026-05-02T13:28:32.041Z</time></trkpt><trkpt lat="43.786105" lon="11.5912233"><ele>975.0</ele><time>2026-05-02T13:28:33.041Z</time></trkpt><trkpt lat="43.7861967" lon="11.5912167"><ele>975.0</ele><time>2026-05-02T13:28:34.043Z</time></trkpt><trkpt lat="43.78633" lon="11.5912217"><ele>975.0</ele><time>2026-05-02T13:28:35.04Z</time></trkpt><trkpt lat="43.78644" lon="11.5912133"><ele>975.0</ele><time>2026-05-02T13:28:36.039Z</time></trkpt><trkpt lat="43.78655" lon="11.591225"><ele>975.0</ele><time>2026-05-02T13:28:37.041Z</time></trkpt><trkpt lat="43.7866167" lon="11.591225"><ele>975.0</ele><time>2026-05-02T13:28:38.042Z</time></trkpt><trkpt lat="43.7867033" lon="11.591235"><ele>975.0</ele><time>2026-05-02T13:28:40.039Z</time></trkpt><trkpt lat="43.786845" lon="11.5912667"><ele>975.0</ele><time>2026-05-02T13:29:02.038Z</time></trkpt><trkpt lat="43.7868467" lon="11.591355"><ele>975.0</ele><time>2026-05-02T13:29:24.039Z</time></trkpt><trkpt lat="43.7867767" lon="11.591505"><ele>975.0</ele><time>2026-05-02T13:29:26.03Z</time></trkpt><trkpt lat="43.7867233" lon="11.591595"><ele>975.0</ele><time>2026-05-02T13:29:27.039Z</time></trkpt><trkpt lat="43.78666" lon="11.5916867"><ele>975.0</ele><time>2026-05-02T13:29:28.04Z</time></trkpt><trkpt lat="43.78659" lon="11.591775"><ele>975.0</ele><time>2026-05-02T13:29:29.039Z</time></trkpt><trkpt lat="43.78651" lon="11.59183"><ele>975.0</ele><time>2026-05-02T13:29:30.038Z</time></trkpt><trkpt lat="43.7864283" lon="11.5918783"><ele>975.0</ele><time>2026-05-02T13:29:31.039Z</time></trkpt><trkpt lat="43.7863583" lon="11.5919367"><ele>975.0</ele><time>2026-05-02T13:29:32.041Z</time></trkpt><trkpt lat="43.786305" lon="11.5920017"><ele>975.0</ele><time>2026-05-02T13:29:33.038Z</time></trkpt><trkpt lat="43.7862617" lon="11.59207"><ele>975.1666666666666</ele><time>2026-05-02T13:29:34.039Z</time></trkpt><trkpt lat="43.78621" lon="11.592145"><ele>975.3333333333333</ele><time>2026-05-02T13:29:35.04Z</time></trkpt><trkpt lat="43.7861533" lon="11.59223"><ele>975.5</ele><time>2026-05-02T13:29:36.038Z</time></trkpt><trkpt lat="43.7860933" lon="11.5923217"><ele>975.6666666666666</ele><time>2026-05-02T13:29:37.04Z</time></trkpt><trkpt lat="43.78603" lon="11.5924017"><ele>975.8333333333333</ele><time>2026-05-02T13:29:38.046Z</time></trkpt><trkpt lat="43.7859667" lon="11.5924833"><ele>976.0</ele><time>2026-05-02T13:29:39.037Z</time></trkpt><trkpt lat="43.785905" lon="11.59257"><ele>980.0</ele><time>2026-05-02T13:29:40.04Z</time></trkpt><trkpt lat="43.7858417" lon="11.5926517"><ele>983.9999999999999</ele><time>2026-05-02T13:29:41.04Z</time></trkpt><trkpt lat="43.785785" lon="11.59276"><ele>987.9999999999999</ele><time>2026-05-02T13:29:42.039Z</time></trkpt><trkpt lat="43.7857283" lon="11.5928683"><ele>992.0</ele><time>2026-05-02T13:29:43.039Z</time></trkpt><trkpt lat="43.785665" lon="11.5929667"><ele>996.0</ele><time>2026-05-02T13:29:44.042Z</time></trkpt><trkpt lat="43.7856" lon="11.593055"><ele>998.0</ele><time>2026-05-02T13:29:45.04Z</time></trkpt><trkpt lat="43.7855317" lon="11.5931467"><ele>999.9999999999999</ele><time>2026-05-02T13:29:46.037Z</time></trkpt><trkpt lat="43.7854617" lon="11.593245"><ele>1001.9999999999999</ele><time>2026-05-02T13:29:47.039Z</time></trkpt><trkpt lat="43.7853983" lon="11.5933433"><ele>1004.0</ele><time>2026-05-02T13:29:48.041Z</time></trkpt><trkpt lat="43.785345" lon="11.5934433"><ele>1006.0</ele><time>2026-05-02T13:29:49.041Z</time></trkpt><trkpt lat="43.7852933" lon="11.59354"><ele>1006.0</ele><time>2026-05-02T13:29:50.042Z</time></trkpt><trkpt lat="43.7852417" lon="11.5936417"><ele>1005.9999999999999</ele><time>2026-05-02T13:29:51.038Z</time></trkpt><trkpt lat="43.78518" lon="11.5937317"><ele>1005.9999999999999</ele><time>2026-05-02T13:29:52.04Z</time></trkpt><trkpt lat="43.7851117" lon="11.593815"><ele>1006.0</ele><time>2026-05-02T13:29:53.039Z</time></trkpt><trkpt lat="43.78504" lon="11.5939017"><ele>1006.0</ele><time>2026-05-02T13:29:54.04Z</time></trkpt><trkpt lat="43.7849683" lon="11.5939967"><ele>1010.4</ele><time>2026-05-02T13:29:55.039Z</time></trkpt><trkpt lat="43.7848983" lon="11.5941133"><ele>1014.8</ele><time>2026-05-02T13:29:56.041Z</time></trkpt><trkpt lat="43.784835" lon="11.5942283"><ele>1019.1999999999999</ele><time>2026-05-02T13:29:57.038Z</time></trkpt><trkpt lat="43.7847767" lon="11.59431"><ele>1023.5999999999999</ele><time>2026-05-02T13:29:58.039Z</time></trkpt><trkpt lat="43.7846817" lon="11.5943717"><ele>1028.0</ele><time>2026-05-02T13:30:00.039Z</time></trkpt><trkpt lat="43.784605" lon="11.5943917"><ele>1028.0</ele><time>2026-05-02T13:30:02.042Z</time></trkpt><trkpt lat="43.784545" lon="11.5944317"><ele>1028.0</ele><time>2026-05-02T13:30:06.039Z</time></trkpt><trkpt lat="43.7846133" lon="11.5944383"><ele>1028.0</ele><time>2026-05-02T13:30:14.04Z</time></trkpt><trkpt lat="43.784675" lon="11.5945033"><ele>1028.0</ele><time>2026-05-02T13:30:16.039Z</time></trkpt><trkpt lat="43.7847667" lon="11.5946133"><ele>1028.0</ele><time>2026-05-02T13:30:18.04Z</time></trkpt><trkpt lat="43.7848067" lon="11.5947133"><ele>1028.0</ele><time>2026-05-02T13:30:19.032Z</time></trkpt><trkpt lat="43.7848233" lon="11.594835"><ele>1029.0</ele><time>2026-05-02T13:30:20.041Z</time></trkpt><trkpt lat="43.7848183" lon="11.594965"><ele>1030.0</ele><time>2026-05-02T13:30:21.039Z</time></trkpt><trkpt lat="43.7848033" lon="11.5951067"><ele>1031.0</ele><time>2026-05-02T13:30:22.039Z</time></trkpt><trkpt lat="43.7847867" lon="11.5952583"><ele>1032.0</ele><time>2026-05-02T13:30:23.04Z</time></trkpt><trkpt lat="43.7847833" lon="11.5954"><ele>1033.0</ele><time>2026-05-02T13:30:24.049Z</time></trkpt><trkpt lat="43.7848017" lon="11.595525"><ele>1034.8</ele><time>2026-05-02T13:30:25.039Z</time></trkpt><trkpt lat="43.78483" lon="11.5956517"><ele>1036.6</ele><time>2026-05-02T13:30:26.039Z</time></trkpt><trkpt lat="43.78486" lon="11.59578"><ele>1038.4</ele><time>2026-05-02T13:30:27.039Z</time></trkpt><trkpt lat="43.7848583" lon="11.5959083"><ele>1040.2</ele><time>2026-05-02T13:30:28.039Z</time></trkpt><trkpt lat="43.78483" lon="11.5960367"><ele>1042.0</ele><time>2026-05-02T13:30:29.042Z</time></trkpt><trkpt lat="43.7847983" lon="11.5961733"><ele>1042.6</ele><time>2026-05-02T13:30:30.04Z</time></trkpt><trkpt lat="43.784765" lon="11.5963233"><ele>1043.2</ele><time>2026-05-02T13:30:31.04Z</time></trkpt><trkpt lat="43.7847317" lon="11.5964817"><ele>1043.8</ele><time>2026-05-02T13:30:32.041Z</time></trkpt><trkpt lat="43.784695" lon="11.5966283"><ele>1044.4</ele><time>2026-05-02T13:30:33.039Z</time></trkpt><trkpt lat="43.7846533" lon="11.5967517"><ele>1045.0</ele><time>2026-05-02T13:30:34.04Z</time></trkpt><trkpt lat="43.7846" lon="11.5968583"><ele>1045.0</ele><time>2026-05-02T13:30:35.041Z</time></trkpt><trkpt lat="43.78454" lon="11.596965"><ele>1045.0</ele><time>2026-05-02T13:30:36.041Z</time></trkpt><trkpt lat="43.7844867" lon="11.5970933"><ele>1045.0</ele><time>2026-05-02T13:30:37.043Z</time></trkpt><trkpt lat="43.7844367" lon="11.5972383"><ele>1045.0</ele><time>2026-05-02T13:30:38.042Z</time></trkpt><trkpt lat="43.784385" lon="11.59739"><ele>1045.0</ele><time>2026-05-02T13:30:39.04Z</time></trkpt><trkpt lat="43.784335" lon="11.5975383"><ele>1048.0</ele><time>2026-05-02T13:30:40.039Z</time></trkpt><trkpt lat="43.7842867" lon="11.59769"><ele>1051.0</ele><time>2026-05-02T13:30:41.04Z</time></trkpt><trkpt lat="43.7842383" lon="11.5978417"><ele>1054.0</ele><time>2026-05-02T13:30:42.039Z</time></trkpt><trkpt lat="43.7841983" lon="11.59798"><ele>1057.0</ele><time>2026-05-02T13:30:43.041Z</time></trkpt><trkpt lat="43.784175" lon="11.5981083"><ele>1060.0</ele><time>2026-05-02T13:30:44.042Z</time></trkpt><trkpt lat="43.7841717" lon="11.5982417"><ele>1060.0</ele><time>2026-05-02T13:30:45.038Z</time></trkpt><trkpt lat="43.7841683" lon="11.5983717"><ele>1060.0</ele><time>2026-05-02T13:30:46.039Z</time></trkpt><trkpt lat="43.7841683" lon="11.5985017"><ele>1060.0</ele><time>2026-05-02T13:30:47.04Z</time></trkpt><trkpt lat="43.78415" lon="11.5986333"><ele>1060.0</ele><time>2026-05-02T13:30:48.04Z</time></trkpt><trkpt lat="43.7841183" lon="11.5987617"><ele>1060.0</ele><time>2026-05-02T13:30:49.039Z</time></trkpt><trkpt lat="43.7840817" lon="11.59888"><ele>1059.0</ele><time>2026-05-02T13:30:50.04Z</time></trkpt><trkpt lat="43.78403" lon="11.5989733"><ele>1058.0</ele><time>2026-05-02T13:30:51.038Z</time></trkpt><trkpt lat="43.7839683" lon="11.599045"><ele>1057.0</ele><time>2026-05-02T13:30:52.039Z</time></trkpt><trkpt lat="43.7838967" lon="11.5991083"><ele>1056.0</ele><time>2026-05-02T13:30:53.041Z</time></trkpt><trkpt lat="43.7838317" lon="11.5991683"><ele>1055.0</ele><time>2026-05-02T13:30:54.04Z</time></trkpt><trkpt lat="43.7837533" lon="11.59925"><ele>1054.0</ele><time>2026-05-02T13:30:56.041Z</time></trkpt><trkpt lat="43.7836683" lon="11.5992667"><ele>1054.0</ele><time>2026-05-02T13:30:59.041Z</time></trkpt><trkpt lat="43.78358" lon="11.5993"><ele>1054.0</ele><time>2026-05-02T13:31:01.043Z</time></trkpt><trkpt lat="43.7834767" lon="11.59939"><ele>1054.0</ele><time>2026-05-02T13:31:03.04Z</time></trkpt><trkpt lat="43.7834133" lon="11.59944"><ele>1054.0</ele><time>2026-05-02T13:31:04.043Z</time></trkpt><trkpt lat="43.78335" lon="11.5994867"><ele>1054.0</ele><time>2026-05-02T13:31:05.04Z</time></trkpt><trkpt lat="43.7832883" lon="11.59953"><ele>1054.0</ele><time>2026-05-02T13:31:06.04Z</time></trkpt><trkpt lat="43.7832233" lon="11.599565"><ele>1054.4</ele><time>2026-05-02T13:31:07.041Z</time></trkpt><trkpt lat="43.78316" lon="11.5995917"><ele>1054.8000000000002</ele><time>2026-05-02T13:31:08.041Z</time></trkpt><trkpt lat="43.7830567" lon="11.5996333"><ele>1055.1999999999998</ele><time>2026-05-02T13:31:10.039Z</time></trkpt><trkpt lat="43.7829883" lon="11.5996333"><ele>1055.6</ele><time>2026-05-02T13:31:12.028Z</time></trkpt><trkpt lat="43.7829317" lon="11.5995233"><ele>1056.0</ele><time>2026-05-02T13:31:15.038Z</time></trkpt><trkpt lat="43.7829117" lon="11.5993217"><ele>1054.75</ele><time>2026-05-02T13:31:17.039Z</time></trkpt><trkpt lat="43.7828967" lon="11.59918"><ele>1053.5</ele><time>2026-05-02T13:31:18.038Z</time></trkpt><trkpt lat="43.782875" lon="11.5990183"><ele>1052.25</ele><time>2026-05-02T13:31:19.039Z</time></trkpt><trkpt lat="43.782835" lon="11.5988517"><ele>1051.0</ele><time>2026-05-02T13:31:20.04Z</time></trkpt><trkpt lat="43.78278" lon="11.5986883"><ele>1052.75</ele><time>2026-05-02T13:31:21.039Z</time></trkpt><trkpt lat="43.7827167" lon="11.598535"><ele>1054.5</ele><time>2026-05-02T13:31:22.038Z</time></trkpt><trkpt lat="43.782655" lon="11.598385"><ele>1056.25</ele><time>2026-05-02T13:31:23.039Z</time></trkpt><trkpt lat="43.782585" lon="11.5982517"><ele>1058.0</ele><time>2026-05-02T13:31:24.037Z</time></trkpt><trkpt lat="43.78251" lon="11.5981383"><ele>1054.4</ele><time>2026-05-02T13:31:25.038Z</time></trkpt><trkpt lat="43.7824317" lon="11.59804"><ele>1050.8</ele><time>2026-05-02T13:31:26.039Z</time></trkpt><trkpt lat="43.7823417" lon="11.5979617"><ele>1047.2</ele><time>2026-05-02T13:31:27.042Z</time></trkpt><trkpt lat="43.78225" lon="11.5978933"><ele>1043.6</ele><time>2026-05-02T13:31:28.038Z</time></trkpt><trkpt lat="43.7821633" lon="11.597825"><ele>1040.0</ele><time>2026-05-02T13:31:29.039Z</time></trkpt><trkpt lat="43.7820733" lon="11.5977633"><ele>1040.0</ele><time>2026-05-02T13:31:30.038Z</time></trkpt><trkpt lat="43.7819833" lon="11.5977033"><ele>1040.0</ele><time>2026-05-02T13:31:31.039Z</time></trkpt><trkpt lat="43.78189" lon="11.59764"><ele>1040.0</ele><time>2026-05-02T13:31:32.039Z</time></trkpt><trkpt lat="43.7817917" lon="11.5975717"><ele>1040.0</ele><time>2026-05-02T13:31:33.038Z</time></trkpt><trkpt lat="43.781695" lon="11.597495"><ele>1040.0</ele><time>2026-05-02T13:31:34.039Z</time></trkpt><trkpt lat="43.7816" lon="11.5974067"><ele>1037.0</ele><time>2026-05-02T13:31:35.04Z</time></trkpt><trkpt lat="43.78151" lon="11.597315"><ele>1034.0</ele><time>2026-05-02T13:31:36.038Z</time></trkpt><trkpt lat="43.7814283" lon="11.597235"><ele>1031.0</ele><time>2026-05-02T13:31:37.039Z</time></trkpt><trkpt lat="43.781365" lon="11.5971633"><ele>1028.0</ele><time>2026-05-02T13:31:38.04Z</time></trkpt><trkpt lat="43.7813133" lon="11.5970983"><ele>1025.0</ele><time>2026-05-02T13:31:39.038Z</time></trkpt><trkpt lat="43.78123" lon="11.5970017"><ele>1025.0</ele><time>2026-05-02T13:31:41.039Z</time></trkpt><trkpt lat="43.781155" lon="11.5970017"><ele>1025.0</ele><time>2026-05-02T13:31:43.039Z</time></trkpt><trkpt lat="43.7810317" lon="11.59702"><ele>1025.0</ele><time>2026-05-02T13:31:45.037Z</time></trkpt><trkpt lat="43.7809583" lon="11.5970167"><ele>1025.0</ele><time>2026-05-02T13:31:46.04Z</time></trkpt><trkpt lat="43.7808883" lon="11.597015"><ele>1025.0</ele><time>2026-05-02T13:31:47.039Z</time></trkpt><trkpt lat="43.7808217" lon="11.5970217"><ele>1025.0</ele><time>2026-05-02T13:31:48.039Z</time></trkpt><trkpt lat="43.7807483" lon="11.5970283"><ele>1024.0</ele><time>2026-05-02T13:31:49.041Z</time></trkpt><trkpt lat="43.7806783" lon="11.5970333"><ele>1023.0</ele><time>2026-05-02T13:31:50.041Z</time></trkpt><trkpt lat="43.7805967" lon="11.5970767"><ele>1022.0</ele><time>2026-05-02T13:31:51.039Z</time></trkpt><trkpt lat="43.7805117" lon="11.5970983"><ele>1021.0</ele><time>2026-05-02T13:31:52.038Z</time></trkpt><trkpt lat="43.7804283" lon="11.5970883"><ele>1020.0000000000001</ele><time>2026-05-02T13:31:53.039Z</time></trkpt><trkpt lat="43.7803433" lon="11.5970533"><ele>1019.0</ele><time>2026-05-02T13:31:54.04Z</time></trkpt><trkpt lat="43.7802567" lon="11.59701"><ele>1022.2</ele><time>2026-05-02T13:31:55.04Z</time></trkpt><trkpt lat="43.780165" lon="11.596965"><ele>1025.4</ele><time>2026-05-02T13:31:56.04Z</time></trkpt><trkpt lat="43.7800683" lon="11.5969133"><ele>1028.6</ele><time>2026-05-02T13:31:57.039Z</time></trkpt><trkpt lat="43.7799717" lon="11.5968617"><ele>1031.8</ele><time>2026-05-02T13:31:58.039Z</time></trkpt><trkpt lat="43.7798683" lon="11.596815"><ele>1035.0</ele><time>2026-05-02T13:31:59.039Z</time></trkpt><trkpt lat="43.7797617" lon="11.5967833"><ele>1035.0</ele><time>2026-05-02T13:32:00.039Z</time></trkpt><trkpt lat="43.7796633" lon="11.596755"><ele>1035.0</ele><time>2026-05-02T13:32:01.042Z</time></trkpt><trkpt lat="43.7795683" lon="11.59672"><ele>1035.0</ele><time>2026-05-02T13:32:02.04Z</time></trkpt><trkpt lat="43.779475" lon="11.59668"><ele>1035.0</ele><time>2026-05-02T13:32:03.039Z</time></trkpt><trkpt lat="43.7793833" lon="11.5966333"><ele>1035.0</ele><time>2026-05-02T13:32:04.039Z</time></trkpt><trkpt lat="43.77929" lon="11.59658"><ele>1036.4</ele><time>2026-05-02T13:32:05.04Z</time></trkpt><trkpt lat="43.7791933" lon="11.5965167"><ele>1037.8</ele><time>2026-05-02T13:32:06.04Z</time></trkpt><trkpt lat="43.779095" lon="11.59645"><ele>1039.2</ele><time>2026-05-02T13:32:07.04Z</time></trkpt><trkpt lat="43.7789933" lon="11.5963767"><ele>1040.6</ele><time>2026-05-02T13:32:08.042Z</time></trkpt><trkpt lat="43.7788933" lon="11.5963033"><ele>1042.0</ele><time>2026-05-02T13:32:09.038Z</time></trkpt><trkpt lat="43.7788" lon="11.5962267"><ele>1042.4</ele><time>2026-05-02T13:32:10.04Z</time></trkpt><trkpt lat="43.7787133" lon="11.5961417"><ele>1042.8000000000002</ele><time>2026-05-02T13:32:11.041Z</time></trkpt><trkpt lat="43.7786317" lon="11.596045"><ele>1043.2</ele><time>2026-05-02T13:32:12.04Z</time></trkpt><trkpt lat="43.7785533" lon="11.5959417"><ele>1043.6000000000001</ele><time>2026-05-02T13:32:13.04Z</time></trkpt><trkpt lat="43.77848" lon="11.595835"><ele>1044.0</ele><time>2026-05-02T13:32:14.041Z</time></trkpt><trkpt lat="43.7784083" lon="11.595735"><ele>1044.0</ele><time>2026-05-02T13:32:15.039Z</time></trkpt><trkpt lat="43.7783283" lon="11.5956467"><ele>1044.0</ele><time>2026-05-02T13:32:16.039Z</time></trkpt><trkpt lat="43.7782383" lon="11.5955833"><ele>1044.0</ele><time>2026-05-02T13:32:17.039Z</time></trkpt><trkpt lat="43.7781467" lon="11.59553"><ele>1044.0</ele><time>2026-05-02T13:32:18.039Z</time></trkpt><trkpt lat="43.7780583" lon="11.59548"><ele>1044.0</ele><time>2026-05-02T13:32:19.039Z</time></trkpt><trkpt lat="43.7779733" lon="11.595425"><ele>1044.0</ele><time>2026-05-02T13:32:20.041Z</time></trkpt><trkpt lat="43.7778917" lon="11.5953617"><ele>1044.0</ele><time>2026-05-02T13:32:21.039Z</time></trkpt><trkpt lat="43.7778117" lon="11.5952833"><ele>1044.0</ele><time>2026-05-02T13:32:22.039Z</time></trkpt><trkpt lat="43.7777333" lon="11.5952117"><ele>1044.0</ele><time>2026-05-02T13:32:23.04Z</time></trkpt><trkpt lat="43.777655" lon="11.5951533"><ele>1044.0</ele><time>2026-05-02T13:32:24.039Z</time></trkpt><trkpt lat="43.7775767" lon="11.5950983"><ele>1045.6000000000001</ele><time>2026-05-02T13:32:25.037Z</time></trkpt><trkpt lat="43.7774967" lon="11.5950433"><ele>1047.2</ele><time>2026-05-02T13:32:26.04Z</time></trkpt><trkpt lat="43.77741" lon="11.5949883"><ele>1048.8000000000002</ele><time>2026-05-02T13:32:27.043Z</time></trkpt><trkpt lat="43.7773" lon="11.5949333"><ele>1050.4</ele><time>2026-05-02T13:32:28.039Z</time></trkpt><trkpt lat="43.7771867" lon="11.59489"><ele>1052.0</ele><time>2026-05-02T13:32:29.04Z</time></trkpt><trkpt lat="43.77708" lon="11.5948633"><ele>1052.0</ele><time>2026-05-02T13:32:30.039Z</time></trkpt><trkpt lat="43.77697" lon="11.5948817"><ele>1052.0</ele><time>2026-05-02T13:32:31.04Z</time></trkpt><trkpt lat="43.776865" lon="11.59495"><ele>1052.0</ele><time>2026-05-02T13:32:32.041Z</time></trkpt><trkpt lat="43.7767617" lon="11.595025"><ele>1052.0</ele><time>2026-05-02T13:32:33.038Z</time></trkpt><trkpt lat="43.7766633" lon="11.5951"><ele>1052.0</ele><time>2026-05-02T13:32:34.039Z</time></trkpt><trkpt lat="43.7765667" lon="11.5951767"><ele>1052.0</ele><time>2026-05-02T13:32:35.041Z</time></trkpt><trkpt lat="43.7764783" lon="11.5952533"><ele>1052.0</ele><time>2026-05-02T13:32:36.039Z</time></trkpt><trkpt lat="43.7763983" lon="11.595325"><ele>1052.0</ele><time>2026-05-02T13:32:37.04Z</time></trkpt><trkpt lat="43.7763267" lon="11.5954017"><ele>1052.0</ele><time>2026-05-02T13:32:38.041Z</time></trkpt><trkpt lat="43.77626" lon="11.5954917"><ele>1052.0</ele><time>2026-05-02T13:32:39.039Z</time></trkpt><trkpt lat="43.7761967" lon="11.5956"><ele>1052.0</ele><time>2026-05-02T13:32:40.039Z</time></trkpt><trkpt lat="43.77613" lon="11.59572"><ele>1052.0</ele><time>2026-05-02T13:32:41.039Z</time></trkpt><trkpt lat="43.776055" lon="11.5958433"><ele>1052.0</ele><time>2026-05-02T13:32:42.039Z</time></trkpt><trkpt lat="43.7759683" lon="11.5959667"><ele>1052.0</ele><time>2026-05-02T13:32:43.039Z</time></trkpt><trkpt lat="43.775865" lon="11.5960833"><ele>1052.0</ele><time>2026-05-02T13:32:44.04Z</time></trkpt><trkpt lat="43.7757533" lon="11.5961883"><ele>1052.0</ele><time>2026-05-02T13:32:45.039Z</time></trkpt><trkpt lat="43.7756267" lon="11.5962783"><ele>1052.0</ele><time>2026-05-02T13:32:46.039Z</time></trkpt><trkpt lat="43.775495" lon="11.5963767"><ele>1052.0</ele><time>2026-05-02T13:32:47.04Z</time></trkpt><trkpt lat="43.7753667" lon="11.5964717"><ele>1052.0</ele><time>2026-05-02T13:32:48.04Z</time></trkpt><trkpt lat="43.7752367" lon="11.59657"><ele>1052.0</ele><time>2026-05-02T13:32:49.039Z</time></trkpt><trkpt lat="43.7751067" lon="11.59666"><ele>1052.0</ele><time>2026-05-02T13:32:50.042Z</time></trkpt><trkpt lat="43.7749717" lon="11.5967533"><ele>1054.6666666666667</ele><time>2026-05-02T13:32:51.04Z</time></trkpt><trkpt lat="43.7748383" lon="11.5968367"><ele>1057.3333333333333</ele><time>2026-05-02T13:32:52.039Z</time></trkpt><trkpt lat="43.7746933" lon="11.5969233"><ele>1060.0</ele><time>2026-05-02T13:32:53.041Z</time></trkpt><trkpt lat="43.7745517" lon="11.5970033"><ele>1060.0</ele><time>2026-05-02T13:32:54.039Z</time></trkpt><trkpt lat="43.774415" lon="11.5970817"><ele>1060.0</ele><time>2026-05-02T13:32:55.04Z</time></trkpt><trkpt lat="43.774275" lon="11.597175"><ele>1060.0</ele><time>2026-05-02T13:32:56.039Z</time></trkpt><trkpt lat="43.7741483" lon="11.5972717"><ele>1060.0</ele><time>2026-05-02T13:32:57.039Z</time></trkpt><trkpt lat="43.7740533" lon="11.59736"><ele>1062.1666666666665</ele><time>2026-05-02T13:32:58.039Z</time></trkpt><trkpt lat="43.7739833" lon="11.59744"><ele>1064.3333333333333</ele><time>2026-05-02T13:32:59.04Z</time></trkpt><trkpt lat="43.7739233" lon="11.5975633"><ele>1066.5</ele><time>2026-05-02T13:33:01.041Z</time></trkpt><trkpt lat="43.77388" lon="11.5976367"><ele>1068.6666666666667</ele><time>2026-05-02T13:33:03.04Z</time></trkpt><trkpt lat="43.7738217" lon="11.5976833"><ele>1070.8333333333335</ele><time>2026-05-02T13:33:07.042Z</time></trkpt><trkpt lat="43.773785" lon="11.597605"><ele>1073.0</ele><time>2026-05-02T13:33:10.039Z</time></trkpt><trkpt lat="43.7737517" lon="11.5974517"><ele>1073.0</ele><time>2026-05-02T13:33:12.038Z</time></trkpt><trkpt lat="43.7737283" lon="11.5973533"><ele>1073.0</ele><time>2026-05-02T13:33:13.039Z</time></trkpt><trkpt lat="43.773695" lon="11.5972433"><ele>1073.0</ele><time>2026-05-02T13:33:14.041Z</time></trkpt><trkpt lat="43.7736583" lon="11.5971483"><ele>1073.0</ele><time>2026-05-02T13:33:15.04Z</time></trkpt><trkpt lat="43.773585" lon="11.5970167"><ele>1073.0</ele><time>2026-05-02T13:33:17.039Z</time></trkpt><trkpt lat="43.7735233" lon="11.5969083"><ele>1080.0</ele><time>2026-05-02T13:33:19.038Z</time></trkpt><trkpt lat="43.7734517" lon="11.5968417"><ele>1087.0</ele><time>2026-05-02T13:33:21.039Z</time></trkpt><trkpt lat="43.773365" lon="11.59676"><ele>1094.0</ele><time>2026-05-02T13:33:23.038Z</time></trkpt><trkpt lat="43.7732817" lon="11.5966317"><ele>1101.0</ele><time>2026-05-02T13:33:25.039Z</time></trkpt><trkpt lat="43.7732333" lon="11.59656"><ele>1108.0</ele><time>2026-05-02T13:33:26.039Z</time></trkpt><trkpt lat="43.77319" lon="11.5964833"><ele>1108.0</ele><time>2026-05-02T13:33:27.037Z</time></trkpt><trkpt lat="43.7731483" lon="11.5964067"><ele>1108.0</ele><time>2026-05-02T13:33:28.029Z</time></trkpt><trkpt lat="43.7730983" lon="11.5963183"><ele>1108.0</ele><time>2026-05-02T13:33:29.04Z</time></trkpt><trkpt lat="43.7730483" lon="11.5962233"><ele>1108.0</ele><time>2026-05-02T13:33:30.038Z</time></trkpt><trkpt lat="43.7729933" lon="11.596135"><ele>1108.0</ele><time>2026-05-02T13:33:31.04Z</time></trkpt><trkpt lat="43.7729183" lon="11.5960567"><ele>1108.0</ele><time>2026-05-02T13:33:32.041Z</time></trkpt><trkpt lat="43.77282" lon="11.595975"><ele>1108.6</ele><time>2026-05-02T13:33:33.039Z</time></trkpt><trkpt lat="43.7727233" lon="11.5958983"><ele>1109.1999999999998</ele><time>2026-05-02T13:33:34.037Z</time></trkpt><trkpt lat="43.77262" lon="11.5958333"><ele>1109.8</ele><time>2026-05-02T13:33:35.039Z</time></trkpt><trkpt lat="43.7725333" lon="11.5957817"><ele>1110.3999999999999</ele><time>2026-05-02T13:33:36.038Z</time></trkpt><trkpt lat="43.772455" lon="11.595735"><ele>1111.0</ele><time>2026-05-02T13:33:37.038Z</time></trkpt><trkpt lat="43.7723783" lon="11.5956767"><ele>1114.0</ele><time>2026-05-02T13:33:38.04Z</time></trkpt><trkpt lat="43.7723183" lon="11.5955967"><ele>1117.0</ele><time>2026-05-02T13:33:39.037Z</time></trkpt><trkpt lat="43.7722567" lon="11.5955117"><ele>1120.0</ele><time>2026-05-02T13:33:40.037Z</time></trkpt><trkpt lat="43.7721933" lon="11.5954367"><ele>1123.0</ele><time>2026-05-02T13:33:41.04Z</time></trkpt><trkpt lat="43.77212" lon="11.5953683"><ele>1126.0</ele><time>2026-05-02T13:33:42.04Z</time></trkpt><trkpt lat="43.7720533" lon="11.595305"><ele>1129.0</ele><time>2026-05-02T13:33:43.041Z</time></trkpt><trkpt lat="43.7719833" lon="11.595255"><ele>1129.0</ele><time>2026-05-02T13:33:44.04Z</time></trkpt><trkpt lat="43.7719167" lon="11.595195"><ele>1129.0</ele><time>2026-05-02T13:33:45.037Z</time></trkpt><trkpt lat="43.7718517" lon="11.5951367"><ele>1129.0</ele><time>2026-05-02T13:33:46.038Z</time></trkpt><trkpt lat="43.7717817" lon="11.595075"><ele>1129.0</ele><time>2026-05-02T13:33:47.039Z</time></trkpt><trkpt lat="43.7717017" lon="11.5950067"><ele>1129.0</ele><time>2026-05-02T13:33:48.036Z</time></trkpt><trkpt lat="43.7716317" lon="11.5949267"><ele>1129.0</ele><time>2026-05-02T13:33:49.038Z</time></trkpt><trkpt lat="43.7715583" lon="11.59483"><ele>1129.5</ele><time>2026-05-02T13:33:50.04Z</time></trkpt><trkpt lat="43.7714867" lon="11.5947383"><ele>1130.0</ele><time>2026-05-02T13:33:51.04Z</time></trkpt><trkpt lat="43.771425" lon="11.5946533"><ele>1130.5</ele><time>2026-05-02T13:33:52.039Z</time></trkpt><trkpt lat="43.77137" lon="11.5945683"><ele>1131.0</ele><time>2026-05-02T13:33:53.04Z</time></trkpt><trkpt lat="43.77131" lon="11.5944883"><ele>1131.5</ele><time>2026-05-02T13:33:54.039Z</time></trkpt><trkpt lat="43.771255" lon="11.594415"><ele>1132.0</ele><time>2026-05-02T13:33:55.039Z</time></trkpt><trkpt lat="43.7711933" lon="11.594345"><ele>1132.0</ele><time>2026-05-02T13:33:56.04Z</time></trkpt><trkpt lat="43.77112" lon="11.5942933"><ele>1132.0</ele><time>2026-05-02T13:33:57.039Z</time></trkpt><trkpt lat="43.7710483" lon="11.5942467"><ele>1132.0</ele><time>2026-05-02T13:33:58.039Z</time></trkpt><trkpt lat="43.770975" lon="11.5941883"><ele>1132.0</ele><time>2026-05-02T13:33:59.039Z</time></trkpt><trkpt lat="43.7709017" lon="11.5941333"><ele>1132.0</ele><time>2026-05-02T13:34:00.037Z</time></trkpt><trkpt lat="43.77082" lon="11.59406"><ele>1132.0</ele><time>2026-05-02T13:34:01.039Z</time></trkpt><trkpt lat="43.770745" lon="11.5939633"><ele>1132.1666666666665</ele><time>2026-05-02T13:34:02.04Z</time></trkpt><trkpt lat="43.7706817" lon="11.5938717"><ele>1132.3333333333333</ele><time>2026-05-02T13:34:03.04Z</time></trkpt><trkpt lat="43.77062" lon="11.5937717"><ele>1132.5</ele><time>2026-05-02T13:34:04.039Z</time></trkpt><trkpt lat="43.77057" lon="11.593665"><ele>1132.6666666666667</ele><time>2026-05-02T13:34:05.039Z</time></trkpt><trkpt lat="43.7705367" lon="11.59356"><ele>1132.8333333333335</ele><time>2026-05-02T13:34:06.04Z</time></trkpt><trkpt lat="43.7705083" lon="11.59346"><ele>1133.0</ele><time>2026-05-02T13:34:07.039Z</time></trkpt><trkpt lat="43.7704917" lon="11.5933733"><ele>1133.0</ele><time>2026-05-02T13:34:08.04Z</time></trkpt><trkpt lat="43.77048" lon="11.593235"><ele>1133.0</ele><time>2026-05-02T13:34:10.039Z</time></trkpt><trkpt lat="43.770475" lon="11.593095"><ele>1133.0</ele><time>2026-05-02T13:34:12.039Z</time></trkpt><trkpt lat="43.77045" lon="11.5930017"><ele>1133.0</ele><time>2026-05-02T13:34:14.041Z</time></trkpt><trkpt lat="43.7704483" lon="11.5929117"><ele>1133.0</ele><time>2026-05-02T13:34:16.038Z</time></trkpt><trkpt lat="43.7704417" lon="11.5928033"><ele>1133.0</ele><time>2026-05-02T13:34:18.04Z</time></trkpt><trkpt lat="43.7704467" lon="11.5926583"><ele>1132.3333333333335</ele><time>2026-05-02T13:34:20.041Z</time></trkpt><trkpt lat="43.77045" lon="11.5925583"><ele>1131.6666666666667</ele><time>2026-05-02T13:34:21.039Z</time></trkpt><trkpt lat="43.77045" lon="11.5924283"><ele>1131.0</ele><time>2026-05-02T13:34:22.038Z</time></trkpt><trkpt lat="43.77046" lon="11.5922983"><ele>1130.3333333333333</ele><time>2026-05-02T13:34:23.039Z</time></trkpt><trkpt lat="43.7704533" lon="11.592185"><ele>1129.6666666666665</ele><time>2026-05-02T13:34:24.037Z</time></trkpt><trkpt lat="43.770455" lon="11.5920717"><ele>1129.0</ele><time>2026-05-02T13:34:25.039Z</time></trkpt><trkpt lat="43.7704567" lon="11.5919633"><ele>1128.5</ele><time>2026-05-02T13:34:26.04Z</time></trkpt><trkpt lat="43.77045" lon="11.5918567"><ele>1128.0</ele><time>2026-05-02T13:34:27.039Z</time></trkpt><trkpt lat="43.7704467" lon="11.5917483"><ele>1127.5</ele><time>2026-05-02T13:34:28.038Z</time></trkpt><trkpt lat="43.770445" lon="11.5916383"><ele>1127.0</ele><time>2026-05-02T13:34:29.04Z</time></trkpt><trkpt lat="43.77045" lon="11.5915333"><ele>1126.5</ele><time>2026-05-02T13:34:30.04Z</time></trkpt><trkpt lat="43.7704567" lon="11.59142"><ele>1126.0</ele><time>2026-05-02T13:34:31.039Z</time></trkpt><trkpt lat="43.7704633" lon="11.5913"><ele>1127.2</ele><time>2026-05-02T13:34:32.04Z</time></trkpt><trkpt lat="43.7704667" lon="11.591165"><ele>1128.3999999999999</ele><time>2026-05-02T13:34:33.04Z</time></trkpt><trkpt lat="43.7704733" lon="11.5910167"><ele>1129.6</ele><time>2026-05-02T13:34:34.039Z</time></trkpt><trkpt lat="43.7704783" lon="11.5908583"><ele>1130.8</ele><time>2026-05-02T13:34:35.039Z</time></trkpt><trkpt lat="43.7704767" lon="11.5907"><ele>1132.0</ele><time>2026-05-02T13:34:36.039Z</time></trkpt><trkpt lat="43.7704667" lon="11.5905417"><ele>1132.0</ele><time>2026-05-02T13:34:37.039Z</time></trkpt><trkpt lat="43.7704467" lon="11.5903883"><ele>1132.0</ele><time>2026-05-02T13:34:38.041Z</time></trkpt><trkpt lat="43.7704183" lon="11.5902417"><ele>1132.0</ele><time>2026-05-02T13:34:39.039Z</time></trkpt><trkpt lat="43.7703933" lon="11.590095"><ele>1132.0</ele><time>2026-05-02T13:34:40.039Z</time></trkpt><trkpt lat="43.7703617" lon="11.5899583"><ele>1132.0</ele><time>2026-05-02T13:34:41.04Z</time></trkpt><trkpt lat="43.7703233" lon="11.58983"><ele>1131.8</ele><time>2026-05-02T13:34:42.041Z</time></trkpt><trkpt lat="43.77028" lon="11.589695"><ele>1131.6</ele><time>2026-05-02T13:34:43.039Z</time></trkpt><trkpt lat="43.7702383" lon="11.5895533"><ele>1131.3999999999999</ele><time>2026-05-02T13:34:44.041Z</time></trkpt><trkpt lat="43.7701967" lon="11.5894117"><ele>1131.2</ele><time>2026-05-02T13:34:45.039Z</time></trkpt><trkpt lat="43.7701533" lon="11.5892667"><ele>1131.0</ele><time>2026-05-02T13:34:46.041Z</time></trkpt><trkpt lat="43.7701067" lon="11.5891183"><ele>1131.0</ele><time>2026-05-02T13:34:47.04Z</time></trkpt><trkpt lat="43.7700533" lon="11.5889667"><ele>1131.0</ele><time>2026-05-02T13:34:48.039Z</time></trkpt><trkpt lat="43.7700017" lon="11.58881"><ele>1131.0</ele><time>2026-05-02T13:34:49.039Z</time></trkpt><trkpt lat="43.7699483" lon="11.588655"><ele>1131.0</ele><time>2026-05-02T13:34:50.041Z</time></trkpt><trkpt lat="43.769895" lon="11.58851"><ele>1131.2</ele><time>2026-05-02T13:34:51.04Z</time></trkpt><trkpt lat="43.7698483" lon="11.588365"><ele>1131.3999999999999</ele><time>2026-05-02T13:34:52.04Z</time></trkpt><trkpt lat="43.7698017" lon="11.58822"><ele>1131.6</ele><time>2026-05-02T13:34:53.041Z</time></trkpt><trkpt lat="43.7697633" lon="11.588075"><ele>1131.8</ele><time>2026-05-02T13:34:54.04Z</time></trkpt><trkpt lat="43.7697317" lon="11.587935"><ele>1132.0</ele><time>2026-05-02T13:34:55.036Z</time></trkpt><trkpt lat="43.7696967" lon="11.5878133"><ele>1131.4</ele><time>2026-05-02T13:34:56.04Z</time></trkpt><trkpt lat="43.769675" lon="11.5876933"><ele>1130.8000000000002</ele><time>2026-05-02T13:34:57.039Z</time></trkpt><trkpt lat="43.76966" lon="11.5875633"><ele>1130.2</ele><time>2026-05-02T13:34:58.039Z</time></trkpt><trkpt lat="43.7696483" lon="11.5874317"><ele>1129.6000000000001</ele><time>2026-05-02T13:34:59.039Z</time></trkpt><trkpt lat="43.76963" lon="11.5872967"><ele>1129.0</ele><time>2026-05-02T13:35:00.037Z</time></trkpt><trkpt lat="43.7696067" lon="11.5871617"><ele>1129.0</ele><time>2026-05-02T13:35:01.039Z</time></trkpt><trkpt lat="43.769585" lon="11.587035"><ele>1129.0</ele><time>2026-05-02T13:35:02.05Z</time></trkpt><trkpt lat="43.7695583" lon="11.5869183"><ele>1129.0</ele><time>2026-05-02T13:35:03.038Z</time></trkpt><trkpt lat="43.76952" lon="11.5868067"><ele>1129.0</ele><time>2026-05-02T13:35:04.039Z</time></trkpt><trkpt lat="43.7694583" lon="11.5866983"><ele>1129.0</ele><time>2026-05-02T13:35:05.04Z</time></trkpt><trkpt lat="43.7693967" lon="11.5865967"><ele>1129.2</ele><time>2026-05-02T13:35:06.038Z</time></trkpt><trkpt lat="43.7693383" lon="11.5864983"><ele>1129.4</ele><time>2026-05-02T13:35:07.04Z</time></trkpt><trkpt lat="43.7692767" lon="11.5864033"><ele>1129.6</ele><time>2026-05-02T13:35:08.04Z</time></trkpt><trkpt lat="43.769205" lon="11.5863217"><ele>1129.8</ele><time>2026-05-02T13:35:09.038Z</time></trkpt><trkpt lat="43.7691283" lon="11.5862433"><ele>1130.0</ele><time>2026-05-02T13:35:10.04Z</time></trkpt><trkpt lat="43.7690483" lon="11.58617"><ele>1130.8</ele><time>2026-05-02T13:35:11.04Z</time></trkpt><trkpt lat="43.7689683" lon="11.5861017"><ele>1131.6</ele><time>2026-05-02T13:35:12.04Z</time></trkpt><trkpt lat="43.7688867" lon="11.586035"><ele>1132.4</ele><time>2026-05-02T13:35:13.039Z</time></trkpt><trkpt lat="43.768805" lon="11.5859667"><ele>1133.2</ele><time>2026-05-02T13:35:14.042Z</time></trkpt><trkpt lat="43.76873" lon="11.5858833"><ele>1134.0</ele><time>2026-05-02T13:35:15.04Z</time></trkpt><trkpt lat="43.76866" lon="11.5857933"><ele>1134.0</ele><time>2026-05-02T13:35:16.039Z</time></trkpt><trkpt lat="43.7686117" lon="11.5856967"><ele>1134.0</ele><time>2026-05-02T13:35:17.039Z</time></trkpt><trkpt lat="43.7685683" lon="11.585605"><ele>1134.0</ele><time>2026-05-02T13:35:18.039Z</time></trkpt><trkpt lat="43.7685417" lon="11.5855217"><ele>1134.0</ele><time>2026-05-02T13:35:19.041Z</time></trkpt><trkpt lat="43.7685417" lon="11.58535"><ele>1134.0</ele><time>2026-05-02T13:35:21.039Z</time></trkpt><trkpt lat="43.7685683" lon="11.5852633"><ele>1134.0</ele><time>2026-05-02T13:35:22.04Z</time></trkpt><trkpt lat="43.7685867" lon="11.5851717"><ele>1133.4</ele><time>2026-05-02T13:35:23.041Z</time></trkpt><trkpt lat="43.768625" lon="11.58505"><ele>1132.8000000000002</ele><time>2026-05-02T13:35:24.041Z</time></trkpt><trkpt lat="43.768665" lon="11.5849433"><ele>1132.1999999999998</ele><time>2026-05-02T13:35:25.039Z</time></trkpt><trkpt lat="43.768725" lon="11.5847883"><ele>1131.6</ele><time>2026-05-02T13:35:26.041Z</time></trkpt><trkpt lat="43.76878" lon="11.5846333"><ele>1131.0</ele><time>2026-05-02T13:35:27.038Z</time></trkpt><trkpt lat="43.7688367" lon="11.5844783"><ele>1129.0</ele><time>2026-05-02T13:35:28.04Z</time></trkpt><trkpt lat="43.7688783" lon="11.5843467"><ele>1127.0</ele><time>2026-05-02T13:35:29.042Z</time></trkpt><trkpt lat="43.7689117" lon="11.5842167"><ele>1125.0</ele><time>2026-05-02T13:35:30.04Z</time></trkpt><trkpt lat="43.7689333" lon="11.58409"><ele>1123.0</ele><time>2026-05-02T13:35:31.041Z</time></trkpt><trkpt lat="43.7689467" lon="11.5839717"><ele>1121.0</ele><time>2026-05-02T13:35:32.041Z</time></trkpt><trkpt lat="43.7689517" lon="11.583875"><ele>1121.0</ele><time>2026-05-02T13:35:33.04Z</time></trkpt><trkpt lat="43.7689367" lon="11.5837817"><ele>1121.0</ele><time>2026-05-02T13:35:34.039Z</time></trkpt><trkpt lat="43.76889" lon="11.5836833"><ele>1121.0</ele><time>2026-05-02T13:35:35.04Z</time></trkpt><trkpt lat="43.768815" lon="11.5835917"><ele>1121.0</ele><time>2026-05-02T13:35:36.039Z</time></trkpt><trkpt lat="43.7687267" lon="11.583505"><ele>1121.0</ele><time>2026-05-02T13:35:37.04Z</time></trkpt><trkpt lat="43.7686533" lon="11.5834333"><ele>1119.3333333333335</ele><time>2026-05-02T13:35:38.041Z</time></trkpt><trkpt lat="43.7685967" lon="11.58338"><ele>1117.6666666666667</ele><time>2026-05-02T13:35:39.038Z</time></trkpt><trkpt lat="43.76853" lon="11.583305"><ele>1116.0</ele><time>2026-05-02T13:35:40.038Z</time></trkpt><trkpt lat="43.7684617" lon="11.583235"><ele>1114.3333333333333</ele><time>2026-05-02T13:35:41.039Z</time></trkpt><trkpt lat="43.7683983" lon="11.5831633"><ele>1112.6666666666665</ele><time>2026-05-02T13:35:42.038Z</time></trkpt><trkpt lat="43.768335" lon="11.5831"><ele>1111.0</ele><time>2026-05-02T13:35:43.04Z</time></trkpt><trkpt lat="43.76827" lon="11.583055"><ele>1110.0</ele><time>2026-05-02T13:35:44.04Z</time></trkpt><trkpt lat="43.768205" lon="11.5830433"><ele>1109.0</ele><time>2026-05-02T13:35:45.039Z</time></trkpt><trkpt lat="43.7680983" lon="11.5830617"><ele>1108.0</ele><time>2026-05-02T13:35:47.039Z</time></trkpt><trkpt lat="43.7680367" lon="11.5830933"><ele>1107.0</ele><time>2026-05-02T13:35:48.04Z</time></trkpt><trkpt lat="43.76797" lon="11.5831333"><ele>1106.0</ele><time>2026-05-02T13:35:49.039Z</time></trkpt><trkpt lat="43.7679017" lon="11.5831867"><ele>1105.0</ele><time>2026-05-02T13:35:50.04Z</time></trkpt><trkpt lat="43.76783" lon="11.5832583"><ele>1105.0</ele><time>2026-05-02T13:35:51.037Z</time></trkpt><trkpt lat="43.7677667" lon="11.58331"><ele>1105.0</ele><time>2026-05-02T13:35:52.04Z</time></trkpt><trkpt lat="43.7676967" lon="11.5833583"><ele>1105.0</ele><time>2026-05-02T13:35:53.039Z</time></trkpt><trkpt lat="43.7676083" lon="11.58342"><ele>1105.0</ele><time>2026-05-02T13:35:54.039Z</time></trkpt><trkpt lat="43.767515" lon="11.5834617"><ele>1105.0</ele><time>2026-05-02T13:35:55.041Z</time></trkpt><trkpt lat="43.76743" lon="11.583465"><ele>1105.0</ele><time>2026-05-02T13:35:56.04Z</time></trkpt><trkpt lat="43.767345" lon="11.5834433"><ele>1104.1666666666665</ele><time>2026-05-02T13:35:57.037Z</time></trkpt><trkpt lat="43.7672617" lon="11.5834133"><ele>1103.3333333333333</ele><time>2026-05-02T13:35:58.039Z</time></trkpt><trkpt lat="43.7671817" lon="11.5833717"><ele>1102.5</ele><time>2026-05-02T13:35:59.039Z</time></trkpt><trkpt lat="43.7670983" lon="11.5833433"><ele>1101.6666666666667</ele><time>2026-05-02T13:36:00.039Z</time></trkpt><trkpt lat="43.767005" lon="11.5833167"><ele>1100.8333333333335</ele><time>2026-05-02T13:36:01.04Z</time></trkpt><trkpt lat="43.76691" lon="11.5832983"><ele>1100.0</ele><time>2026-05-02T13:36:02.041Z</time></trkpt><trkpt lat="43.7668183" lon="11.5832933"><ele>1098.5</ele><time>2026-05-02T13:36:03.038Z</time></trkpt><trkpt lat="43.7667267" lon="11.5833067"><ele>1097.0</ele><time>2026-05-02T13:36:04.04Z</time></trkpt><trkpt lat="43.7666383" lon="11.58331"><ele>1095.5</ele><time>2026-05-02T13:36:05.041Z</time></trkpt><trkpt lat="43.7665583" lon="11.5833"><ele>1094.0</ele><time>2026-05-02T13:36:06.038Z</time></trkpt><trkpt lat="43.766485" lon="11.5832683"><ele>1092.5</ele><time>2026-05-02T13:36:07.04Z</time></trkpt><trkpt lat="43.76642" lon="11.5831917"><ele>1091.0</ele><time>2026-05-02T13:36:08.041Z</time></trkpt><trkpt lat="43.766355" lon="11.583115"><ele>1091.0</ele><time>2026-05-02T13:36:09.037Z</time></trkpt><trkpt lat="43.7662983" lon="11.58301"><ele>1091.0</ele><time>2026-05-02T13:36:10.03Z</time></trkpt><trkpt lat="43.766255" lon="11.582885"><ele>1091.0</ele><time>2026-05-02T13:36:11.04Z</time></trkpt><trkpt lat="43.766215" lon="11.5827633"><ele>1091.0</ele><time>2026-05-02T13:36:12.038Z</time></trkpt><trkpt lat="43.76618" lon="11.5826433"><ele>1091.0</ele><time>2026-05-02T13:36:13.04Z</time></trkpt><trkpt lat="43.7661483" lon="11.5825317"><ele>1090.0</ele><time>2026-05-02T13:36:14.041Z</time></trkpt><trkpt lat="43.7661233" lon="11.5824167"><ele>1089.0</ele><time>2026-05-02T13:36:15.037Z</time></trkpt><trkpt lat="43.76611" lon="11.5822917"><ele>1088.0</ele><time>2026-05-02T13:36:16.04Z</time></trkpt><trkpt lat="43.7660867" lon="11.5822"><ele>1087.0</ele><time>2026-05-02T13:36:17.04Z</time></trkpt><trkpt lat="43.7660383" lon="11.5821217"><ele>1086.0</ele><time>2026-05-02T13:36:18.039Z</time></trkpt><trkpt lat="43.765985" lon="11.5820467"><ele>1085.0</ele><time>2026-05-02T13:36:19.04Z</time></trkpt><trkpt lat="43.7659083" lon="11.581975"><ele>1085.0</ele><time>2026-05-02T13:36:20.04Z</time></trkpt><trkpt lat="43.76583" lon="11.581935"><ele>1085.0</ele><time>2026-05-02T13:36:21.037Z</time></trkpt><trkpt lat="43.7657367" lon="11.5819217"><ele>1085.0</ele><time>2026-05-02T13:36:22.039Z</time></trkpt><trkpt lat="43.76564" lon="11.5819183"><ele>1085.0</ele><time>2026-05-02T13:36:23.038Z</time></trkpt><trkpt lat="43.765545" lon="11.5819217"><ele>1085.0</ele><time>2026-05-02T13:36:24.036Z</time></trkpt><trkpt lat="43.76545" lon="11.5819333"><ele>1085.0</ele><time>2026-05-02T13:36:25.038Z</time></trkpt><trkpt lat="43.7653667" lon="11.5819483"><ele>1085.0</ele><time>2026-05-02T13:36:26.04Z</time></trkpt><trkpt lat="43.7652817" lon="11.581955"><ele>1085.0</ele><time>2026-05-02T13:36:27.038Z</time></trkpt><trkpt lat="43.7651883" lon="11.5819717"><ele>1085.0</ele><time>2026-05-02T13:36:28.037Z</time></trkpt><trkpt lat="43.7650917" lon="11.5820067"><ele>1085.0</ele><time>2026-05-02T13:36:29.038Z</time></trkpt><trkpt lat="43.764995" lon="11.582035"><ele>1084.8</ele><time>2026-05-02T13:36:30.037Z</time></trkpt><trkpt lat="43.7648917" lon="11.5820533"><ele>1084.6</ele><time>2026-05-02T13:36:31.037Z</time></trkpt><trkpt lat="43.7647883" lon="11.5820667"><ele>1084.4</ele><time>2026-05-02T13:36:32.039Z</time></trkpt><trkpt lat="43.7646883" lon="11.582065"><ele>1084.2</ele><time>2026-05-02T13:36:33.038Z</time></trkpt><trkpt lat="43.764595" lon="11.582085"><ele>1084.0</ele><time>2026-05-02T13:36:34.037Z</time></trkpt><trkpt lat="43.764505" lon="11.5821183"><ele>1084.0</ele><time>2026-05-02T13:36:35.037Z</time></trkpt><trkpt lat="43.7644133" lon="11.5821533"><ele>1084.0</ele><time>2026-05-02T13:36:36.038Z</time></trkpt><trkpt lat="43.7643167" lon="11.5821933"><ele>1084.0</ele><time>2026-05-02T13:36:37.039Z</time></trkpt><trkpt lat="43.7642267" lon="11.5822567"><ele>1084.0</ele><time>2026-05-02T13:36:38.039Z</time></trkpt><trkpt lat="43.7641317" lon="11.5822867"><ele>1084.0</ele><time>2026-05-02T13:36:39.039Z</time></trkpt><trkpt lat="43.7640317" lon="11.5823"><ele>1086.2</ele><time>2026-05-02T13:36:40.038Z</time></trkpt><trkpt lat="43.7639333" lon="11.58232"><ele>1088.4</ele><time>2026-05-02T13:36:41.038Z</time></trkpt><trkpt lat="43.7638383" lon="11.58235"><ele>1090.6</ele><time>2026-05-02T13:36:42.037Z</time></trkpt><trkpt lat="43.76374" lon="11.582355"><ele>1092.8</ele><time>2026-05-02T13:36:43.038Z</time></trkpt><trkpt lat="43.7636417" lon="11.5823533"><ele>1095.0</ele><time>2026-05-02T13:36:44.04Z</time></trkpt><trkpt lat="43.7635433" lon="11.5823767"><ele>1096.6</ele><time>2026-05-02T13:36:45.039Z</time></trkpt><trkpt lat="43.7634533" lon="11.5824467"><ele>1098.2</ele><time>2026-05-02T13:36:46.037Z</time></trkpt><trkpt lat="43.7633467" lon="11.5824583"><ele>1099.8</ele><time>2026-05-02T13:36:47.039Z</time></trkpt><trkpt lat="43.7632567" lon="11.5825117"><ele>1101.4</ele><time>2026-05-02T13:36:48.039Z</time></trkpt><trkpt lat="43.7631617" lon="11.5825433"><ele>1103.0</ele><time>2026-05-02T13:36:49.038Z</time></trkpt><trkpt lat="43.7630683" lon="11.5825717"><ele>1103.0</ele><time>2026-05-02T13:36:50.041Z</time></trkpt><trkpt lat="43.7629783" lon="11.5826183"><ele>1103.0</ele><time>2026-05-02T13:36:51.04Z</time></trkpt><trkpt lat="43.76289" lon="11.5826317"><ele>1103.0</ele><time>2026-05-02T13:36:52.04Z</time></trkpt><trkpt lat="43.7628" lon="11.5826617"><ele>1103.0</ele><time>2026-05-02T13:36:53.039Z</time></trkpt><trkpt lat="43.762725" lon="11.5826733"><ele>1103.0</ele><time>2026-05-02T13:36:54.04Z</time></trkpt><trkpt lat="43.76264" lon="11.5827033"><ele>1103.0</ele><time>2026-05-02T13:36:55.039Z</time></trkpt><trkpt lat="43.7625467" lon="11.5827767"><ele>1102.8</ele><time>2026-05-02T13:36:56.04Z</time></trkpt><trkpt lat="43.7624483" lon="11.5828367"><ele>1102.6</ele><time>2026-05-02T13:36:57.038Z</time></trkpt><trkpt lat="43.76235" lon="11.5828667"><ele>1102.4</ele><time>2026-05-02T13:36:58.039Z</time></trkpt><trkpt lat="43.7622433" lon="11.5829233"><ele>1102.2</ele><time>2026-05-02T13:36:59.039Z</time></trkpt><trkpt lat="43.7621617" lon="11.5829417"><ele>1102.0</ele><time>2026-05-02T13:37:00.041Z</time></trkpt><trkpt lat="43.7620983" lon="11.5829633"><ele>1102.0</ele><time>2026-05-02T13:37:01.04Z</time></trkpt><trkpt lat="43.7620267" lon="11.5829467"><ele>1102.0</ele><time>2026-05-02T13:37:03.04Z</time></trkpt><trkpt lat="43.7619567" lon="11.58301"><ele>1102.0</ele><time>2026-05-02T13:37:08.04Z</time></trkpt><trkpt lat="43.7618333" lon="11.5830933"><ele>1102.0</ele><time>2026-05-02T13:37:10.037Z</time></trkpt><trkpt lat="43.7617667" lon="11.5831517"><ele>1102.0</ele><time>2026-05-02T13:37:11.039Z</time></trkpt><trkpt lat="43.7617067" lon="11.5832183"><ele>1102.0</ele><time>2026-05-02T13:37:12.03Z</time></trkpt><trkpt lat="43.7616483" lon="11.583285"><ele>1101.5</ele><time>2026-05-02T13:37:13.039Z</time></trkpt><trkpt lat="43.761595" lon="11.583375"><ele>1101.0</ele><time>2026-05-02T13:37:14.04Z</time></trkpt><trkpt lat="43.7615383" lon="11.5834433"><ele>1100.5</ele><time>2026-05-02T13:37:15.038Z</time></trkpt><trkpt lat="43.7614717" lon="11.58347"><ele>1100.0</ele><time>2026-05-02T13:37:16.038Z</time></trkpt><trkpt lat="43.7614" lon="11.5834633"><ele>1099.5</ele><time>2026-05-02T13:37:17.039Z</time></trkpt><trkpt lat="43.761315" lon="11.5834333"><ele>1099.0</ele><time>2026-05-02T13:37:18.039Z</time></trkpt><trkpt lat="43.7612267" lon="11.5833917"><ele>1099.0</ele><time>2026-05-02T13:37:19.04Z</time></trkpt><trkpt lat="43.76114" lon="11.58335"><ele>1099.0</ele><time>2026-05-02T13:37:20.04Z</time></trkpt><trkpt lat="43.761065" lon="11.5832933"><ele>1099.0</ele><time>2026-05-02T13:37:21.038Z</time></trkpt><trkpt lat="43.7609933" lon="11.5832267"><ele>1099.0</ele><time>2026-05-02T13:37:22.04Z</time></trkpt><trkpt lat="43.76092" lon="11.583155"><ele>1099.0</ele><time>2026-05-02T13:37:23.041Z</time></trkpt><trkpt lat="43.7608483" lon="11.58315"><ele>1099.0</ele><time>2026-05-02T13:37:24.039Z</time></trkpt><trkpt lat="43.7607617" lon="11.5832083"><ele>1099.0</ele><time>2026-05-02T13:37:26.041Z</time></trkpt><trkpt lat="43.7607283" lon="11.5832833"><ele>1099.0</ele><time>2026-05-02T13:37:27.037Z</time></trkpt><trkpt lat="43.7607217" lon="11.5833767"><ele>1099.0</ele><time>2026-05-02T13:37:28.04Z</time></trkpt><trkpt lat="43.7607167" lon="11.58352"><ele>1099.0</ele><time>2026-05-02T13:37:29.038Z</time></trkpt><trkpt lat="43.7606767" lon="11.5836467"><ele>1099.0</ele><time>2026-05-02T13:37:30.038Z</time></trkpt><trkpt lat="43.7606567" lon="11.5837733"><ele>1099.0</ele><time>2026-05-02T13:37:31.039Z</time></trkpt><trkpt lat="43.7606133" lon="11.5838933"><ele>1095.6666666666665</ele><time>2026-05-02T13:37:32.04Z</time></trkpt><trkpt lat="43.76056" lon="11.5839967"><ele>1092.3333333333333</ele><time>2026-05-02T13:37:33.038Z</time></trkpt><trkpt lat="43.7604967" lon="11.5840867"><ele>1089.0</ele><time>2026-05-02T13:37:34.039Z</time></trkpt><trkpt lat="43.760445" lon="11.584185"><ele>1085.6666666666667</ele><time>2026-05-02T13:37:35.039Z</time></trkpt><trkpt lat="43.760435" lon="11.5842767"><ele>1082.3333333333335</ele><time>2026-05-02T13:37:36.041Z</time></trkpt><trkpt lat="43.7605017" lon="11.5843983"><ele>1079.0</ele><time>2026-05-02T13:37:38.042Z</time></trkpt><trkpt lat="43.7605817" lon="11.58441"><ele>1079.0</ele><time>2026-05-02T13:37:39.038Z</time></trkpt><trkpt lat="43.7606783" lon="11.5843983"><ele>1079.0</ele><time>2026-05-02T13:37:40.039Z</time></trkpt><trkpt lat="43.760765" lon="11.584445"><ele>1079.0</ele><time>2026-05-02T13:37:41.039Z</time></trkpt><trkpt lat="43.7608367" lon="11.584505"><ele>1079.0</ele><time>2026-05-02T13:37:42.039Z</time></trkpt><trkpt lat="43.7609" lon="11.5845867"><ele>1079.0</ele><time>2026-05-02T13:37:43.03Z</time></trkpt><trkpt lat="43.7609533" lon="11.5847167"><ele>1078.6000000000001</ele><time>2026-05-02T13:37:44.039Z</time></trkpt><trkpt lat="43.7609883" lon="11.5848617"><ele>1078.2</ele><time>2026-05-02T13:37:45.039Z</time></trkpt><trkpt lat="43.7610333" lon="11.58496"><ele>1077.8000000000002</ele><time>2026-05-02T13:37:46.039Z</time></trkpt><trkpt lat="43.7610983" lon="11.585035"><ele>1077.4</ele><time>2026-05-02T13:37:47.041Z</time></trkpt><trkpt lat="43.7611617" lon="11.5851183"><ele>1077.0</ele><time>2026-05-02T13:37:48.037Z</time></trkpt><trkpt lat="43.7612233" lon="11.5852167"><ele>1075.0</ele><time>2026-05-02T13:37:49.039Z</time></trkpt><trkpt lat="43.76133" lon="11.5853083"><ele>1073.0</ele><time>2026-05-02T13:37:50.041Z</time></trkpt><trkpt lat="43.7614383" lon="11.585445"><ele>1071.0</ele><time>2026-05-02T13:37:51.04Z</time></trkpt><trkpt lat="43.76152" lon="11.5855733"><ele>1069.0</ele><time>2026-05-02T13:37:52.039Z</time></trkpt><trkpt lat="43.761605" lon="11.58569"><ele>1069.0</ele><time>2026-05-02T13:37:53.039Z</time></trkpt><trkpt lat="43.7616883" lon="11.5857917"><ele>1069.0</ele><time>2026-05-02T13:37:54.037Z</time></trkpt><trkpt lat="43.7617683" lon="11.5859017"><ele>1069.0</ele><time>2026-05-02T13:37:55.041Z</time></trkpt><trkpt lat="43.7618417" lon="11.5860183"><ele>1069.0</ele><time>2026-05-02T13:37:56.041Z</time></trkpt><trkpt lat="43.7619283" lon="11.586125"><ele>1066.25</ele><time>2026-05-02T13:37:57.039Z</time></trkpt><trkpt lat="43.7620017" lon="11.58625"><ele>1063.5</ele><time>2026-05-02T13:37:58.038Z</time></trkpt><trkpt lat="43.7620333" lon="11.58641"><ele>1060.75</ele><time>2026-05-02T13:37:59.04Z</time></trkpt><trkpt lat="43.7620817" lon="11.5865567"><ele>1058.0</ele><time>2026-05-02T13:38:00.038Z</time></trkpt><trkpt lat="43.7621367" lon="11.5867133"><ele>1058.0</ele><time>2026-05-02T13:38:01.039Z</time></trkpt><trkpt lat="43.7621683" lon="11.586865"><ele>1058.0</ele><time>2026-05-02T13:38:02.04Z</time></trkpt><trkpt lat="43.7622083" lon="11.5869917"><ele>1058.0</ele><time>2026-05-02T13:38:03.037Z</time></trkpt><trkpt lat="43.7622367" lon="11.587115"><ele>1058.0</ele><time>2026-05-02T13:38:04.039Z</time></trkpt><trkpt lat="43.762305" lon="11.5871983"><ele>1058.0</ele><time>2026-05-02T13:38:05.04Z</time></trkpt><trkpt lat="43.76236" lon="11.58728"><ele>1060.0</ele><time>2026-05-02T13:38:06.04Z</time></trkpt><trkpt lat="43.7624217" lon="11.587355"><ele>1062.0</ele><time>2026-05-02T13:38:07.041Z</time></trkpt><trkpt lat="43.7624917" lon="11.587445"><ele>1064.0</ele><time>2026-05-02T13:38:08.04Z</time></trkpt><trkpt lat="43.7625533" lon="11.587545"><ele>1066.0</ele><time>2026-05-02T13:38:09.039Z</time></trkpt><trkpt lat="43.762605" lon="11.5876583"><ele>1068.0</ele><time>2026-05-02T13:38:10.04Z</time></trkpt><trkpt lat="43.7626583" lon="11.58777"><ele>1062.6</ele><time>2026-05-02T13:38:11.038Z</time></trkpt><trkpt lat="43.7627017" lon="11.587885"><ele>1057.1999999999998</ele><time>2026-05-02T13:38:12.038Z</time></trkpt><trkpt lat="43.762745" lon="11.587995"><ele>1051.8</ele><time>2026-05-02T13:38:13.038Z</time></trkpt><trkpt lat="43.76278" lon="11.588085"><ele>1046.3999999999999</ele><time>2026-05-02T13:38:14.04Z</time></trkpt><trkpt lat="43.76276" lon="11.5882433"><ele>1041.0</ele><time>2026-05-02T13:38:16.039Z</time></trkpt><trkpt lat="43.76275" lon="11.5883633"><ele>1041.0</ele><time>2026-05-02T13:38:18.037Z</time></trkpt><trkpt lat="43.76279" lon="11.5884333"><ele>1041.0</ele><time>2026-05-02T13:38:20.039Z</time></trkpt><trkpt lat="43.7628817" lon="11.5883367"><ele>1041.0</ele><time>2026-05-02T13:38:22.039Z</time></trkpt><trkpt lat="43.7629333" lon="11.588265"><ele>1041.0</ele><time>2026-05-02T13:38:23.039Z</time></trkpt><trkpt lat="43.7629917" lon="11.58818"><ele>1041.0</ele><time>2026-05-02T13:38:24.038Z</time></trkpt><trkpt lat="43.7630383" lon="11.5880983"><ele>1041.0</ele><time>2026-05-02T13:38:25.038Z</time></trkpt><trkpt lat="43.76308" lon="11.58801"><ele>1041.0</ele><time>2026-05-02T13:38:26.039Z</time></trkpt><trkpt lat="43.7631117" lon="11.5879317"><ele>1041.0</ele><time>2026-05-02T13:38:27.038Z</time></trkpt><trkpt lat="43.76316" lon="11.5877833"><ele>1041.0</ele><time>2026-05-02T13:38:29.039Z</time></trkpt><trkpt lat="43.76324" lon="11.5878533"><ele>1041.0</ele><time>2026-05-02T13:38:32.04Z</time></trkpt><trkpt lat="43.7632567" lon="11.5880283"><ele>1041.0</ele><time>2026-05-02T13:38:34.039Z</time></trkpt><trkpt lat="43.7632383" lon="11.5881233"><ele>1041.0</ele><time>2026-05-02T13:38:35.038Z</time></trkpt><trkpt lat="43.763215" lon="11.5882233"><ele>1041.0</ele><time>2026-05-02T13:38:36.04Z</time></trkpt><trkpt lat="43.7631917" lon="11.58833"><ele>1041.0</ele><time>2026-05-02T13:38:37.038Z</time></trkpt><trkpt lat="43.7631767" lon="11.5884283"><ele>1041.0</ele><time>2026-05-02T13:38:38.04Z</time></trkpt><trkpt lat="43.763165" lon="11.5885433"><ele>1041.0</ele><time>2026-05-02T13:38:39.038Z</time></trkpt><trkpt lat="43.7631517" lon="11.5886717"><ele>1041.0</ele><time>2026-05-02T13:38:40.039Z</time></trkpt><trkpt lat="43.7631433" lon="11.58876"><ele>1041.0</ele><time>2026-05-02T13:38:41.039Z</time></trkpt><trkpt lat="43.7631567" lon="11.588895"><ele>1041.0</ele><time>2026-05-02T13:38:43.039Z</time></trkpt><trkpt lat="43.76321" lon="11.5887933"><ele>1041.0</ele><time>2026-05-02T13:38:46.039Z</time></trkpt><trkpt lat="43.7632617" lon="11.5886067"><ele>1041.0</ele><time>2026-05-02T13:38:48.037Z</time></trkpt><trkpt lat="43.7633117" lon="11.5884983"><ele>1041.0</ele><time>2026-05-02T13:38:49.029Z</time></trkpt><trkpt lat="43.7633967" lon="11.5883783"><ele>1041.0</ele><time>2026-05-02T13:38:50.039Z</time></trkpt><trkpt lat="43.7634633" lon="11.5882767"><ele>1041.0</ele><time>2026-05-02T13:38:51.038Z</time></trkpt><trkpt lat="43.7635117" lon="11.5881933"><ele>1041.0</ele><time>2026-05-02T13:38:52.04Z</time></trkpt><trkpt lat="43.7635467" lon="11.5881167"><ele>1041.0</ele><time>2026-05-02T13:38:53.04Z</time></trkpt><trkpt lat="43.7635983" lon="11.5879933"><ele>1041.0</ele><time>2026-05-02T13:38:55.038Z</time></trkpt><trkpt lat="43.7636017" lon="11.58809"><ele>1041.0</ele><time>2026-05-02T13:38:59.039Z</time></trkpt><trkpt lat="43.7635833" lon="11.5882317"><ele>1041.0</ele><time>2026-05-02T13:39:01.039Z</time></trkpt><trkpt lat="43.76354" lon="11.5883783"><ele>1041.0</ele><time>2026-05-02T13:39:03.039Z</time></trkpt><trkpt lat="43.763505" lon="11.5885183"><ele>1041.0</ele><time>2026-05-02T13:39:05.038Z</time></trkpt><trkpt lat="43.7635067" lon="11.5886683"><ele>1041.0</ele><time>2026-05-02T13:39:07.038Z</time></trkpt><trkpt lat="43.7635217" lon="11.588765"><ele>1041.0</ele><time>2026-05-02T13:39:08.04Z</time></trkpt><trkpt lat="43.7635367" lon="11.5888667"><ele>1038.6666666666667</ele><time>2026-05-02T13:39:09.04Z</time></trkpt><trkpt lat="43.7635467" lon="11.589005"><ele>1036.3333333333333</ele><time>2026-05-02T13:39:10.039Z</time></trkpt><trkpt lat="43.7635483" lon="11.5891167"><ele>1034.0</ele><time>2026-05-02T13:39:11.039Z</time></trkpt><trkpt lat="43.7635433" lon="11.58922"><ele>1031.6666666666665</ele><time>2026-05-02T13:39:12.038Z</time></trkpt><trkpt lat="43.7634833" lon="11.58936"><ele>1029.3333333333333</ele><time>2026-05-02T13:39:14.039Z</time></trkpt><trkpt lat="43.76342" lon="11.5894133"><ele>1027.0</ele><time>2026-05-02T13:39:15.038Z</time></trkpt><trkpt lat="43.7633367" lon="11.5894417"><ele>1027.0</ele><time>2026-05-02T13:39:16.039Z</time></trkpt><trkpt lat="43.7632383" lon="11.5894617"><ele>1027.0</ele><time>2026-05-02T13:39:17.039Z</time></trkpt><trkpt lat="43.7631517" lon="11.5894733"><ele>1027.0</ele><time>2026-05-02T13:39:18.037Z</time></trkpt><trkpt lat="43.7630617" lon="11.5894933"><ele>1027.0</ele><time>2026-05-02T13:39:19.04Z</time></trkpt><trkpt lat="43.7629783" lon="11.589515"><ele>1027.0</ele><time>2026-05-02T13:39:20.042Z</time></trkpt><trkpt lat="43.7629067" lon="11.5895317"><ele>1027.0</ele><time>2026-05-02T13:39:21.037Z</time></trkpt><trkpt lat="43.762845" lon="11.5895783"><ele>1023.8</ele><time>2026-05-02T13:39:22.04Z</time></trkpt><trkpt lat="43.7627917" lon="11.589645"><ele>1020.6</ele><time>2026-05-02T13:39:23.039Z</time></trkpt><trkpt lat="43.762745" lon="11.5897617"><ele>1017.3999999999999</ele><time>2026-05-02T13:39:25.041Z</time></trkpt><trkpt lat="43.7627933" lon="11.58984"><ele>1014.1999999999999</ele><time>2026-05-02T13:39:28.039Z</time></trkpt><trkpt lat="43.7628717" lon="11.5898383"><ele>1011.0</ele><time>2026-05-02T13:39:30.039Z</time></trkpt><trkpt lat="43.762975" lon="11.5899467"><ele>1011.0</ele><time>2026-05-02T13:39:32.041Z</time></trkpt><trkpt lat="43.76298" lon="11.5900867"><ele>1010.9999999999999</ele><time>2026-05-02T13:39:34.04Z</time></trkpt><trkpt lat="43.7629183" lon="11.5902183"><ele>1010.9999999999999</ele><time>2026-05-02T13:39:36.038Z</time></trkpt><trkpt lat="43.7628867" lon="11.590365"><ele>1011.0</ele><time>2026-05-02T13:39:38.041Z</time></trkpt><trkpt lat="43.7629133" lon="11.5904617"><ele>1011.0</ele><time>2026-05-02T13:39:40.039Z</time></trkpt><trkpt lat="43.76304" lon="11.5905167"><ele>1010.8333333333334</ele><time>2026-05-02T13:39:42.039Z</time></trkpt><trkpt lat="43.7631133" lon="11.5905533"><ele>1010.6666666666667</ele><time>2026-05-02T13:39:43.04Z</time></trkpt><trkpt lat="43.763185" lon="11.5906233"><ele>1010.5</ele><time>2026-05-02T13:39:44.039Z</time></trkpt><trkpt lat="43.76323" lon="11.59071"><ele>1010.3333333333334</ele><time>2026-05-02T13:39:45.041Z</time></trkpt><trkpt lat="43.7632567" lon="11.5908167"><ele>1010.1666666666667</ele><time>2026-05-02T13:39:46.04Z</time></trkpt><trkpt lat="43.7632567" lon="11.5909433"><ele>1010.0</ele><time>2026-05-02T13:39:47.039Z</time></trkpt><trkpt lat="43.7632383" lon="11.5910767"><ele>1009.2</ele><time>2026-05-02T13:39:48.039Z</time></trkpt><trkpt lat="43.7632033" lon="11.591205"><ele>1008.4</ele><time>2026-05-02T13:39:49.04Z</time></trkpt><trkpt lat="43.7631633" lon="11.59133"><ele>1007.5999999999999</ele><time>2026-05-02T13:39:50.04Z</time></trkpt><trkpt lat="43.76311" lon="11.5914467"><ele>1006.8</ele><time>2026-05-02T13:39:51.039Z</time></trkpt><trkpt lat="43.7630483" lon="11.591545"><ele>1006.0</ele><time>2026-05-02T13:39:52.039Z</time></trkpt><trkpt lat="43.7629817" lon="11.5916267"><ele>1005.9999999999999</ele><time>2026-05-02T13:39:53.039Z</time></trkpt><trkpt lat="43.762925" lon="11.5917083"><ele>1006.0</ele><time>2026-05-02T13:39:54.04Z</time></trkpt><trkpt lat="43.76287" lon="11.5917867"><ele>1006.0</ele><time>2026-05-02T13:39:55.04Z</time></trkpt><trkpt lat="43.7628117" lon="11.5918733"><ele>1006.0</ele><time>2026-05-02T13:39:56.042Z</time></trkpt><trkpt lat="43.76276" lon="11.59196"><ele>1005.9999999999999</ele><time>2026-05-02T13:39:57.039Z</time></trkpt><trkpt lat="43.76273" lon="11.5920467"><ele>1006.0</ele><time>2026-05-02T13:39:58.041Z</time></trkpt><trkpt lat="43.762705" lon="11.592135"><ele>1004.8333333333333</ele><time>2026-05-02T13:39:59.04Z</time></trkpt><trkpt lat="43.7626783" lon="11.59222"><ele>1003.6666666666666</ele><time>2026-05-02T13:40:00.042Z</time></trkpt><trkpt lat="43.7626833" lon="11.5923433"><ele>1002.5</ele><time>2026-05-02T13:40:02.04Z</time></trkpt><trkpt lat="43.7627067" lon="11.5924983"><ele>1001.3333333333333</ele><time>2026-05-02T13:40:04.039Z</time></trkpt><trkpt lat="43.7626983" lon="11.592585"><ele>1000.1666666666666</ele><time>2026-05-02T13:40:05.04Z</time></trkpt><trkpt lat="43.7626717" lon="11.59267"><ele>999.0</ele><time>2026-05-02T13:40:06.039Z</time></trkpt><trkpt lat="43.7626233" lon="11.5927567"><ele>1001.3333333333334</ele><time>2026-05-02T13:40:07.039Z</time></trkpt><trkpt lat="43.7625517" lon="11.592835"><ele>1003.6666666666667</ele><time>2026-05-02T13:40:08.04Z</time></trkpt><trkpt lat="43.7624867" lon="11.5929083"><ele>1006.0</ele><time>2026-05-02T13:40:09.039Z</time></trkpt><trkpt lat="43.762405" lon="11.5929667"><ele>1008.3333333333334</ele><time>2026-05-02T13:40:10.04Z</time></trkpt><trkpt lat="43.7623233" lon="11.5930167"><ele>1010.6666666666667</ele><time>2026-05-02T13:40:11.039Z</time></trkpt><trkpt lat="43.76224" lon="11.5930483"><ele>1013.0</ele><time>2026-05-02T13:40:12.037Z</time></trkpt><trkpt lat="43.7621633" lon="11.593075"><ele>1013.0000000000001</ele><time>2026-05-02T13:40:13.041Z</time></trkpt><trkpt lat="43.76208" lon="11.5930717"><ele>1013.0</ele><time>2026-05-02T13:40:14.041Z</time></trkpt><trkpt lat="43.7620017" lon="11.5930667"><ele>1013.0</ele><time>2026-05-02T13:40:15.039Z</time></trkpt><trkpt lat="43.7619283" lon="11.5930767"><ele>1013.0</ele><time>2026-05-02T13:40:16.039Z</time></trkpt><trkpt lat="43.76185" lon="11.5931167"><ele>1013.0000000000001</ele><time>2026-05-02T13:40:17.04Z</time></trkpt><trkpt lat="43.76177" lon="11.5931567"><ele>1013.0</ele><time>2026-05-02T13:40:18.039Z</time></trkpt><trkpt lat="43.7616983" lon="11.5932067"><ele>1014.0000000000001</ele><time>2026-05-02T13:40:19.041Z</time></trkpt><trkpt lat="43.7616233" lon="11.593255"><ele>1015.0</ele><time>2026-05-02T13:40:20.041Z</time></trkpt><trkpt lat="43.76155" lon="11.5932967"><ele>1016.0</ele><time>2026-05-02T13:40:21.038Z</time></trkpt><trkpt lat="43.7614767" lon="11.5933383"><ele>1017.0</ele><time>2026-05-02T13:40:22.04Z</time></trkpt><trkpt lat="43.761405" lon="11.5933717"><ele>1018.0000000000001</ele><time>2026-05-02T13:40:23.04Z</time></trkpt><trkpt lat="43.76129" lon="11.59345"><ele>1019.0</ele><time>2026-05-02T13:40:25.04Z</time></trkpt><trkpt lat="43.7611983" lon="11.5935483"><ele>1016.6</ele><time>2026-05-02T13:40:27.039Z</time></trkpt><trkpt lat="43.76112" lon="11.593675"><ele>1014.2</ele><time>2026-05-02T13:40:29.041Z</time></trkpt><trkpt lat="43.76107" lon="11.5937533"><ele>1011.8000000000001</ele><time>2026-05-02T13:40:30.04Z</time></trkpt><trkpt lat="43.761025" lon="11.5939367"><ele>1009.4000000000001</ele><time>2026-05-02T13:40:32.042Z</time></trkpt><trkpt lat="43.76101" lon="11.5940433"><ele>1007.0</ele><time>2026-05-02T13:40:33.039Z</time></trkpt><trkpt lat="43.760995" lon="11.5941583"><ele>1007.0</ele><time>2026-05-02T13:40:34.038Z</time></trkpt><trkpt lat="43.7609867" lon="11.5942817"><ele>1007.0</ele><time>2026-05-02T13:40:35.039Z</time></trkpt><trkpt lat="43.7609767" lon="11.5944117"><ele>1007.0</ele><time>2026-05-02T13:40:36.038Z</time></trkpt><trkpt lat="43.7609583" lon="11.5945417"><ele>1007.0</ele><time>2026-05-02T13:40:37.041Z</time></trkpt><trkpt lat="43.7609467" lon="11.5946617"><ele>1007.0</ele><time>2026-05-02T13:40:38.041Z</time></trkpt><trkpt lat="43.76094" lon="11.594785"><ele>1005.1666666666667</ele><time>2026-05-02T13:40:39.037Z</time></trkpt><trkpt lat="43.760925" lon="11.5949033"><ele>1003.3333333333334</ele><time>2026-05-02T13:40:40.039Z</time></trkpt><trkpt lat="43.7609017" lon="11.595015"><ele>1001.5</ele><time>2026-05-02T13:40:41.038Z</time></trkpt><trkpt lat="43.760865" lon="11.5951117"><ele>999.6666666666667</ele><time>2026-05-02T13:40:42.038Z</time></trkpt><trkpt lat="43.7608133" lon="11.5951833"><ele>997.8333333333334</ele><time>2026-05-02T13:40:43.037Z</time></trkpt><trkpt lat="43.760745" lon="11.595225"><ele>996.0</ele><time>2026-05-02T13:40:44.04Z</time></trkpt><trkpt lat="43.7606767" lon="11.5952483"><ele>996.0</ele><time>2026-05-02T13:40:45.039Z</time></trkpt><trkpt lat="43.760575" lon="11.5952633"><ele>996.0</ele><time>2026-05-02T13:40:47.041Z</time></trkpt><trkpt lat="43.760515" lon="11.5953333"><ele>996.0</ele><time>2026-05-02T13:40:49.04Z</time></trkpt><trkpt lat="43.7604917" lon="11.595465"><ele>996.0</ele><time>2026-05-02T13:40:51.04Z</time></trkpt><trkpt lat="43.76047" lon="11.5955633"><ele>996.0</ele><time>2026-05-02T13:40:52.039Z</time></trkpt><trkpt lat="43.7604417" lon="11.5956617"><ele>996.0</ele><time>2026-05-02T13:40:53.039Z</time></trkpt><trkpt lat="43.7604083" lon="11.5957733"><ele>994.3333333333334</ele><time>2026-05-02T13:40:54.038Z</time></trkpt><trkpt lat="43.760385" lon="11.59589"><ele>992.6666666666667</ele><time>2026-05-02T13:40:55.039Z</time></trkpt><trkpt lat="43.7603683" lon="11.5959983"><ele>991.0</ele><time>2026-05-02T13:40:56.04Z</time></trkpt><trkpt lat="43.76036" lon="11.5961083"><ele>989.3333333333334</ele><time>2026-05-02T13:40:57.037Z</time></trkpt><trkpt lat="43.760355" lon="11.5962133"><ele>987.6666666666667</ele><time>2026-05-02T13:40:58.039Z</time></trkpt><trkpt lat="43.7603517" lon="11.5963133"><ele>986.0</ele><time>2026-05-02T13:40:59.038Z</time></trkpt><trkpt lat="43.76028" lon="11.59642"><ele>986.1666666666667</ele><time>2026-05-02T13:41:01.04Z</time></trkpt><trkpt lat="43.760205" lon="11.596455"><ele>986.3333333333334</ele><time>2026-05-02T13:41:02.041Z</time></trkpt><trkpt lat="43.7601283" lon="11.596495"><ele>986.5</ele><time>2026-05-02T13:41:03.039Z</time></trkpt><trkpt lat="43.760055" lon="11.5965433"><ele>986.6666666666667</ele><time>2026-05-02T13:41:04.04Z</time></trkpt><trkpt lat="43.7599783" lon="11.5966"><ele>986.8333333333334</ele><time>2026-05-02T13:41:05.041Z</time></trkpt><trkpt lat="43.7599017" lon="11.5966783"><ele>987.0</ele><time>2026-05-02T13:41:06.038Z</time></trkpt><trkpt lat="43.75982" lon="11.596765"><ele>987.0</ele><time>2026-05-02T13:41:07.04Z</time></trkpt><trkpt lat="43.75975" lon="11.5968483"><ele>987.0</ele><time>2026-05-02T13:41:08.04Z</time></trkpt><trkpt lat="43.7596833" lon="11.5969383"><ele>987.0</ele><time>2026-05-02T13:41:09.039Z</time></trkpt><trkpt lat="43.759615" lon="11.5970033"><ele>987.0</ele><time>2026-05-02T13:41:10.04Z</time></trkpt><trkpt lat="43.759555" lon="11.5970483"><ele>987.0</ele><time>2026-05-02T13:41:11.04Z</time></trkpt><trkpt lat="43.7594883" lon="11.597065"><ele>987.0</ele><time>2026-05-02T13:41:12.039Z</time></trkpt><trkpt lat="43.7594167" lon="11.597055"><ele>987.4285714285714</ele><time>2026-05-02T13:41:13.039Z</time></trkpt><trkpt lat="43.759345" lon="11.5970333"><ele>987.8571428571429</ele><time>2026-05-02T13:41:14.041Z</time></trkpt><trkpt lat="43.759275" lon="11.5970267"><ele>988.2857142857142</ele><time>2026-05-02T13:41:15.042Z</time></trkpt><trkpt lat="43.7592067" lon="11.59701"><ele>988.7142857142857</ele><time>2026-05-02T13:41:16.038Z</time></trkpt><trkpt lat="43.7591333" lon="11.5969983"><ele>989.1428571428571</ele><time>2026-05-02T13:41:17.04Z</time></trkpt><trkpt lat="43.75906" lon="11.5969783"><ele>989.5714285714284</ele><time>2026-05-02T13:41:18.038Z</time></trkpt><trkpt lat="43.7589967" lon="11.5969333"><ele>989.9999999999999</ele><time>2026-05-02T13:41:19.039Z</time></trkpt><trkpt lat="43.7589417" lon="11.5968833"><ele>990.0</ele><time>2026-05-02T13:41:20.039Z</time></trkpt><trkpt lat="43.7588717" lon="11.5967817"><ele>990.0</ele><time>2026-05-02T13:41:22.04Z</time></trkpt><trkpt lat="43.7588017" lon="11.5967267"><ele>990.0</ele><time>2026-05-02T13:41:25.039Z</time></trkpt><trkpt lat="43.7587183" lon="11.5968267"><ele>990.0</ele><time>2026-05-02T13:41:27.037Z</time></trkpt><trkpt lat="43.7586583" lon="11.5969067"><ele>990.0</ele><time>2026-05-02T13:41:28.04Z</time></trkpt><trkpt lat="43.7585817" lon="11.5969767"><ele>986.3333333333334</ele><time>2026-05-02T13:41:29.04Z</time></trkpt><trkpt lat="43.7585083" lon="11.59702"><ele>982.6666666666667</ele><time>2026-05-02T13:41:30.039Z</time></trkpt><trkpt lat="43.75843" lon="11.5970517"><ele>979.0</ele><time>2026-05-02T13:41:31.038Z</time></trkpt><trkpt lat="43.7583367" lon="11.5970717"><ele>975.3333333333334</ele><time>2026-05-02T13:41:32.039Z</time></trkpt><trkpt lat="43.7582483" lon="11.5970817"><ele>971.6666666666667</ele><time>2026-05-02T13:41:33.038Z</time></trkpt><trkpt lat="43.7581733" lon="11.5970783"><ele>968.0</ele><time>2026-05-02T13:41:34.038Z</time></trkpt><trkpt lat="43.7581083" lon="11.597065"><ele>972.8</ele><time>2026-05-02T13:41:35.039Z</time></trkpt><trkpt lat="43.75801" lon="11.5969717"><ele>977.5999999999999</ele><time>2026-05-02T13:41:37.037Z</time></trkpt><trkpt lat="43.7579433" lon="11.5968183"><ele>982.4000000000001</ele><time>2026-05-02T13:41:39.036Z</time></trkpt><trkpt lat="43.7579067" lon="11.5967267"><ele>987.2</ele><time>2026-05-02T13:41:40.041Z</time></trkpt><trkpt lat="43.7578667" lon="11.5966467"><ele>992.0</ele><time>2026-05-02T13:41:41.039Z</time></trkpt><trkpt lat="43.7578133" lon="11.5965717"><ele>992.0000000000001</ele><time>2026-05-02T13:41:42.037Z</time></trkpt><trkpt lat="43.7577567" lon="11.5965117"><ele>992.0</ele><time>2026-05-02T13:41:43.039Z</time></trkpt><trkpt lat="43.7576967" lon="11.5964583"><ele>992.0</ele><time>2026-05-02T13:41:44.039Z</time></trkpt><trkpt lat="43.75764" lon="11.596415"><ele>992.0</ele><time>2026-05-02T13:41:45.038Z</time></trkpt><trkpt lat="43.75754" lon="11.5963783"><ele>992.0000000000001</ele><time>2026-05-02T13:41:47.039Z</time></trkpt><trkpt lat="43.7574683" lon="11.5964067"><ele>992.0</ele><time>2026-05-02T13:41:49.04Z</time></trkpt><trkpt lat="43.757405" lon="11.59653"><ele>991.0</ele><time>2026-05-02T13:41:51.039Z</time></trkpt><trkpt lat="43.7573467" lon="11.59668"><ele>990.0</ele><time>2026-05-02T13:41:53.04Z</time></trkpt><trkpt lat="43.75727" lon="11.5968133"><ele>989.0</ele><time>2026-05-02T13:41:55.039Z</time></trkpt><trkpt lat="43.7571583" lon="11.59696"><ele>988.0</ele><time>2026-05-02T13:41:57.037Z</time></trkpt><trkpt lat="43.7571083" lon="11.5970533"><ele>988.4999999999999</ele><time>2026-05-02T13:41:58.04Z</time></trkpt><trkpt lat="43.75708" lon="11.5971383"><ele>989.0</ele><time>2026-05-02T13:41:59.039Z</time></trkpt><trkpt lat="43.7570317" lon="11.59725"><ele>989.5</ele><time>2026-05-02T13:42:01.041Z</time></trkpt><trkpt lat="43.7569683" lon="11.5973533"><ele>990.0</ele><time>2026-05-02T13:42:03.038Z</time></trkpt><trkpt lat="43.756925" lon="11.59743"><ele>990.4999999999999</ele><time>2026-05-02T13:42:04.039Z</time></trkpt><trkpt lat="43.75687" lon="11.5975083"><ele>991.0</ele><time>2026-05-02T13:42:05.039Z</time></trkpt><trkpt lat="43.7568067" lon="11.59757"><ele>990.9999999999999</ele><time>2026-05-02T13:42:06.039Z</time></trkpt><trkpt lat="43.756735" lon="11.59762"><ele>991.0</ele><time>2026-05-02T13:42:07.039Z</time></trkpt><trkpt lat="43.75667" lon="11.5976767"><ele>991.0</ele><time>2026-05-02T13:42:08.041Z</time></trkpt><trkpt lat="43.75661" lon="11.5977517"><ele>991.0</ele><time>2026-05-02T13:42:09.038Z</time></trkpt><trkpt lat="43.75655" lon="11.5978217"><ele>990.9999999999999</ele><time>2026-05-02T13:42:10.04Z</time></trkpt><trkpt lat="43.7564917" lon="11.5978767"><ele>991.0</ele><time>2026-05-02T13:42:11.039Z</time></trkpt><trkpt lat="43.7564283" lon="11.5979033"><ele>989.5999999999999</ele><time>2026-05-02T13:42:12.039Z</time></trkpt><trkpt lat="43.7563483" lon="11.5979167"><ele>988.1999999999999</ele><time>2026-05-02T13:42:13.042Z</time></trkpt><trkpt lat="43.75625" lon="11.5979433"><ele>986.8000000000001</ele><time>2026-05-02T13:42:15.038Z</time></trkpt><trkpt lat="43.7561433" lon="11.5979833"><ele>985.4000000000001</ele><time>2026-05-02T13:42:17.04Z</time></trkpt><trkpt lat="43.756065" lon="11.5980667"><ele>984.0</ele><time>2026-05-02T13:42:19.041Z</time></trkpt><trkpt lat="43.756135" lon="11.5981683"><ele>984.0</ele><time>2026-05-02T13:42:23.04Z</time></trkpt><trkpt lat="43.7562017" lon="11.598215"><ele>984.0</ele><time>2026-05-02T13:42:24.04Z</time></trkpt><trkpt lat="43.7562767" lon="11.5983633"><ele>984.0</ele><time>2026-05-02T13:42:26.041Z</time></trkpt><trkpt lat="43.7563133" lon="11.5984367"><ele>984.0</ele><time>2026-05-02T13:42:27.039Z</time></trkpt><trkpt lat="43.756355" lon="11.5985033"><ele>984.0</ele><time>2026-05-02T13:42:28.038Z</time></trkpt><trkpt lat="43.7563917" lon="11.598575"><ele>984.0</ele><time>2026-05-02T13:42:29.04Z</time></trkpt><trkpt lat="43.7564283" lon="11.5986633"><ele>986.1666666666666</ele><time>2026-05-02T13:42:30.042Z</time></trkpt><trkpt lat="43.75646" lon="11.5988317"><ele>988.3333333333333</ele><time>2026-05-02T13:42:32.039Z</time></trkpt><trkpt lat="43.7564767" lon="11.5989233"><ele>990.5</ele><time>2026-05-02T13:42:33.04Z</time></trkpt><trkpt lat="43.7565033" lon="11.5990117"><ele>992.6666666666666</ele><time>2026-05-02T13:42:34.039Z</time></trkpt><trkpt lat="43.7565467" lon="11.599105"><ele>994.8333333333333</ele><time>2026-05-02T13:42:35.04Z</time></trkpt><trkpt lat="43.7565983" lon="11.5992"><ele>997.0</ele><time>2026-05-02T13:42:36.039Z</time></trkpt><trkpt lat="43.7566633" lon="11.5992817"><ele>996.9999999999999</ele><time>2026-05-02T13:42:37.04Z</time></trkpt><trkpt lat="43.7567383" lon="11.5993733"><ele>997.0</ele><time>2026-05-02T13:42:38.04Z</time></trkpt><trkpt lat="43.756795" lon="11.5994533"><ele>997.0</ele><time>2026-05-02T13:42:39.041Z</time></trkpt><trkpt lat="43.7568467" lon="11.5995367"><ele>997.0</ele><time>2026-05-02T13:42:40.039Z</time></trkpt><trkpt lat="43.7569017" lon="11.59962"><ele>996.9999999999999</ele><time>2026-05-02T13:42:41.04Z</time></trkpt><trkpt lat="43.756955" lon="11.5996967"><ele>997.0</ele><time>2026-05-02T13:42:42.041Z</time></trkpt><trkpt lat="43.7570133" lon="11.5997733"><ele>995.8333333333333</ele><time>2026-05-02T13:42:43.04Z</time></trkpt><trkpt lat="43.75707" lon="11.5998583"><ele>994.6666666666666</ele><time>2026-05-02T13:42:44.041Z</time></trkpt><trkpt lat="43.7571267" lon="11.5999533"><ele>993.5</ele><time>2026-05-02T13:42:45.038Z</time></trkpt><trkpt lat="43.7571733" lon="11.600045"><ele>992.3333333333333</ele><time>2026-05-02T13:42:46.04Z</time></trkpt><trkpt lat="43.757215" lon="11.6001317"><ele>991.1666666666666</ele><time>2026-05-02T13:42:47.032Z</time></trkpt><trkpt lat="43.757235" lon="11.6002233"><ele>990.0</ele><time>2026-05-02T13:42:48.039Z</time></trkpt><trkpt lat="43.7572483" lon="11.6003233"><ele>990.3333333333334</ele><time>2026-05-02T13:42:49.04Z</time></trkpt><trkpt lat="43.757235" lon="11.6004167"><ele>990.6666666666667</ele><time>2026-05-02T13:42:50.04Z</time></trkpt><trkpt lat="43.7571917" lon="11.6004933"><ele>991.0</ele><time>2026-05-02T13:42:51.039Z</time></trkpt><trkpt lat="43.7571367" lon="11.600575"><ele>991.3333333333334</ele><time>2026-05-02T13:42:52.039Z</time></trkpt><trkpt lat="43.7570867" lon="11.60063"><ele>991.6666666666667</ele><time>2026-05-02T13:42:53.038Z</time></trkpt><trkpt lat="43.7569733" lon="11.6006933"><ele>992.0</ele><time>2026-05-02T13:42:55.039Z</time></trkpt><trkpt lat="43.7569083" lon="11.6007033"><ele>994.2857142857143</ele><time>2026-05-02T13:42:56.041Z</time></trkpt><trkpt lat="43.756835" lon="11.6007117"><ele>996.5714285714287</ele><time>2026-05-02T13:42:57.039Z</time></trkpt><trkpt lat="43.7567667" lon="11.60072"><ele>998.8571428571429</ele><time>2026-05-02T13:42:58.039Z</time></trkpt><trkpt lat="43.756695" lon="11.6007317"><ele>1001.1428571428571</ele><time>2026-05-02T13:42:59.042Z</time></trkpt><trkpt lat="43.7566283" lon="11.6007533"><ele>1003.4285714285714</ele><time>2026-05-02T13:43:00.042Z</time></trkpt><trkpt lat="43.7565667" lon="11.600785"><ele>1005.7142857142858</ele><time>2026-05-02T13:43:01.045Z</time></trkpt><trkpt lat="43.7564983" lon="11.600825"><ele>1008.0</ele><time>2026-05-02T13:43:02.041Z</time></trkpt><trkpt lat="43.756445" lon="11.6008717"><ele>1008.0</ele><time>2026-05-02T13:43:03.041Z</time></trkpt><trkpt lat="43.7563917" lon="11.600925"><ele>1008.0</ele><time>2026-05-02T13:43:04.04Z</time></trkpt><trkpt lat="43.7563317" lon="11.6009983"><ele>1008.0</ele><time>2026-05-02T13:43:05.039Z</time></trkpt><trkpt lat="43.7562717" lon="11.6010833"><ele>1008.0</ele><time>2026-05-02T13:43:06.04Z</time></trkpt><trkpt lat="43.7562183" lon="11.6011817"><ele>1008.0</ele><time>2026-05-02T13:43:07.041Z</time></trkpt><trkpt lat="43.7561467" lon="11.6012767"><ele>1008.0</ele><time>2026-05-02T13:43:08.042Z</time></trkpt><trkpt lat="43.75611" lon="11.601375"><ele>1006.5</ele><time>2026-05-02T13:43:09.038Z</time></trkpt><trkpt lat="43.7561033" lon="11.601485"><ele>1005.0</ele><time>2026-05-02T13:43:10.039Z</time></trkpt><trkpt lat="43.7561133" lon="11.6015967"><ele>1003.5</ele><time>2026-05-02T13:43:11.04Z</time></trkpt><trkpt lat="43.7561217" lon="11.6016967"><ele>1002.0</ele><time>2026-05-02T13:43:12.038Z</time></trkpt><trkpt lat="43.7561317" lon="11.6018"><ele>1000.5</ele><time>2026-05-02T13:43:13.04Z</time></trkpt><trkpt lat="43.7561383" lon="11.6019167"><ele>999.0</ele><time>2026-05-02T13:43:14.04Z</time></trkpt><trkpt lat="43.7561467" lon="11.6020367"><ele>1000.5</ele><time>2026-05-02T13:43:15.038Z</time></trkpt><trkpt lat="43.7561483" lon="11.6021383"><ele>1002.0</ele><time>2026-05-02T13:43:16.039Z</time></trkpt><trkpt lat="43.75614" lon="11.602235"><ele>1003.5</ele><time>2026-05-02T13:43:17.041Z</time></trkpt><trkpt lat="43.7560667" lon="11.6023767"><ele>1005.0</ele><time>2026-05-02T13:43:19.038Z</time></trkpt><trkpt lat="43.75602" lon="11.6024583"><ele>1006.5</ele><time>2026-05-02T13:43:20.04Z</time></trkpt><trkpt lat="43.75598" lon="11.60255"><ele>1008.0</ele><time>2026-05-02T13:43:21.039Z</time></trkpt><trkpt lat="43.75595" lon="11.6026483"><ele>1008.0</ele><time>2026-05-02T13:43:22.038Z</time></trkpt><trkpt lat="43.7559267" lon="11.6027417"><ele>1008.0</ele><time>2026-05-02T13:43:23.039Z</time></trkpt><trkpt lat="43.7558917" lon="11.6028333"><ele>1008.0</ele><time>2026-05-02T13:43:24.04Z</time></trkpt><trkpt lat="43.7558517" lon="11.602925"><ele>1008.0</ele><time>2026-05-02T13:43:25.038Z</time></trkpt><trkpt lat="43.7557983" lon="11.6030117"><ele>1008.0</ele><time>2026-05-02T13:43:26.04Z</time></trkpt><trkpt lat="43.7557467" lon="11.6030883"><ele>1008.0</ele><time>2026-05-02T13:43:27.037Z</time></trkpt><trkpt lat="43.75569" lon="11.6031583"><ele>1005.0</ele><time>2026-05-02T13:43:28.038Z</time></trkpt><trkpt lat="43.755575" lon="11.60322"><ele>1002.0</ele><time>2026-05-02T13:43:30.038Z</time></trkpt><trkpt lat="43.7554767" lon="11.6032417"><ele>999.0</ele><time>2026-05-02T13:43:32.039Z</time></trkpt><trkpt lat="43.7553917" lon="11.6032433"><ele>996.0</ele><time>2026-05-02T13:43:34.038Z</time></trkpt><trkpt lat="43.755285" lon="11.6032333"><ele>993.0</ele><time>2026-05-02T13:43:36.039Z</time></trkpt><trkpt lat="43.7551583" lon="11.603175"><ele>993.0</ele><time>2026-05-02T13:43:38.04Z</time></trkpt><trkpt lat="43.75509" lon="11.60315"><ele>993.0</ele><time>2026-05-02T13:43:39.039Z</time></trkpt><trkpt lat="43.7549833" lon="11.60316"><ele>993.0</ele><time>2026-05-02T13:43:41.038Z</time></trkpt><trkpt lat="43.75491" lon="11.60325"><ele>993.0</ele><time>2026-05-02T13:43:43.037Z</time></trkpt><trkpt lat="43.7548883" lon="11.60334"><ele>993.0</ele><time>2026-05-02T13:43:44.041Z</time></trkpt><trkpt lat="43.754855" lon="11.6034233"><ele>993.0</ele><time>2026-05-02T13:43:45.038Z</time></trkpt><trkpt lat="43.75481" lon="11.603495"><ele>993.0</ele><time>2026-05-02T13:43:46.038Z</time></trkpt><trkpt lat="43.7547583" lon="11.6035683"><ele>993.0</ele><time>2026-05-02T13:43:47.037Z</time></trkpt><trkpt lat="43.7547083" lon="11.6036567"><ele>993.0</ele><time>2026-05-02T13:43:48.037Z</time></trkpt><trkpt lat="43.7546567" lon="11.6037533"><ele>993.0</ele><time>2026-05-02T13:43:49.04Z</time></trkpt><trkpt lat="43.7546033" lon="11.6038717"><ele>993.0</ele><time>2026-05-02T13:43:50.039Z</time></trkpt><trkpt lat="43.7545383" lon="11.603975"><ele>993.0</ele><time>2026-05-02T13:43:51.037Z</time></trkpt><trkpt lat="43.75448" lon="11.604065"><ele>992.0</ele><time>2026-05-02T13:43:52.039Z</time></trkpt><trkpt lat="43.7544083" lon="11.6041417"><ele>991.0</ele><time>2026-05-02T13:43:53.04Z</time></trkpt><trkpt lat="43.7543367" lon="11.6042"><ele>990.0</ele><time>2026-05-02T13:43:54.038Z</time></trkpt><trkpt lat="43.754255" lon="11.6042617"><ele>989.0</ele><time>2026-05-02T13:43:55.039Z</time></trkpt><trkpt lat="43.754175" lon="11.604315"><ele>988.0</ele><time>2026-05-02T13:43:56.041Z</time></trkpt><trkpt lat="43.7540983" lon="11.604365"><ele>987.0</ele><time>2026-05-02T13:43:57.039Z</time></trkpt><trkpt lat="43.754035" lon="11.6043983"><ele>987.0</ele><time>2026-05-02T13:43:58.037Z</time></trkpt><trkpt lat="43.75398" lon="11.604445"><ele>987.0</ele><time>2026-05-02T13:43:59.04Z</time></trkpt><trkpt lat="43.7538783" lon="11.604555"><ele>987.0</ele><time>2026-05-02T13:44:01.039Z</time></trkpt><trkpt lat="43.75383" lon="11.6046217"><ele>987.0</ele><time>2026-05-02T13:44:02.04Z</time></trkpt><trkpt lat="43.7537817" lon="11.6046983"><ele>987.0</ele><time>2026-05-02T13:44:03.038Z</time></trkpt><trkpt lat="43.7537333" lon="11.6047817"><ele>987.0</ele><time>2026-05-02T13:44:04.038Z</time></trkpt><trkpt lat="43.753675" lon="11.6048433"><ele>986.1428571428571</ele><time>2026-05-02T13:44:05.039Z</time></trkpt><trkpt lat="43.75361" lon="11.6048883"><ele>985.2857142857142</ele><time>2026-05-02T13:44:06.039Z</time></trkpt><trkpt lat="43.753535" lon="11.6049033"><ele>984.4285714285714</ele><time>2026-05-02T13:44:07.039Z</time></trkpt><trkpt lat="43.7534617" lon="11.6048933"><ele>983.5714285714286</ele><time>2026-05-02T13:44:08.04Z</time></trkpt><trkpt lat="43.7533933" lon="11.604865"><ele>982.7142857142857</ele><time>2026-05-02T13:44:09.039Z</time></trkpt><trkpt lat="43.7533267" lon="11.6048617"><ele>981.8571428571429</ele><time>2026-05-02T13:44:10.038Z</time></trkpt><trkpt lat="43.753255" lon="11.60487"><ele>981.0</ele><time>2026-05-02T13:44:11.039Z</time></trkpt><trkpt lat="43.75318" lon="11.6048833"><ele>981.0</ele><time>2026-05-02T13:44:12.039Z</time></trkpt><trkpt lat="43.7531117" lon="11.6049"><ele>980.9999999999999</ele><time>2026-05-02T13:44:13.039Z</time></trkpt><trkpt lat="43.752995" lon="11.6049333"><ele>980.9999999999999</ele><time>2026-05-02T13:44:15.038Z</time></trkpt><trkpt lat="43.752885" lon="11.6049567"><ele>981.0</ele><time>2026-05-02T13:44:17.04Z</time></trkpt><trkpt lat="43.7527583" lon="11.6049367"><ele>981.0</ele><time>2026-05-02T13:44:19.039Z</time></trkpt><trkpt lat="43.7526833" lon="11.6049533"><ele>981.0</ele><time>2026-05-02T13:44:21.038Z</time></trkpt><trkpt lat="43.75272" lon="11.6050317"><ele>981.0</ele><time>2026-05-02T13:44:23.039Z</time></trkpt><trkpt lat="43.7527417" lon="11.6051767"><ele>981.0</ele><time>2026-05-02T13:44:25.039Z</time></trkpt><trkpt lat="43.7527433" lon="11.605305"><ele>981.0</ele><time>2026-05-02T13:44:26.041Z</time></trkpt><trkpt lat="43.7527367" lon="11.6054317"><ele>981.0</ele><time>2026-05-02T13:44:27.039Z</time></trkpt><trkpt lat="43.75271" lon="11.6055483"><ele>981.0</ele><time>2026-05-02T13:44:28.039Z</time></trkpt><trkpt lat="43.752695" lon="11.6056533"><ele>981.2857142857143</ele><time>2026-05-02T13:44:29.039Z</time></trkpt><trkpt lat="43.7526733" lon="11.6057583"><ele>981.5714285714284</ele><time>2026-05-02T13:44:30.038Z</time></trkpt><trkpt lat="43.75266" lon="11.6058567"><ele>981.8571428571428</ele><time>2026-05-02T13:44:31.039Z</time></trkpt><trkpt lat="43.7526583" lon="11.6059633"><ele>982.1428571428571</ele><time>2026-05-02T13:44:32.04Z</time></trkpt><trkpt lat="43.7526717" lon="11.6060583"><ele>982.4285714285713</ele><time>2026-05-02T13:44:33.038Z</time></trkpt><trkpt lat="43.752695" lon="11.6061433"><ele>982.7142857142856</ele><time>2026-05-02T13:44:34.039Z</time></trkpt><trkpt lat="43.75272" lon="11.6062567"><ele>982.9999999999999</ele><time>2026-05-02T13:44:35.039Z</time></trkpt><trkpt lat="43.752735" lon="11.6063483"><ele>974.0</ele><time>2026-05-02T13:44:36.036Z</time></trkpt><trkpt lat="43.7527617" lon="11.6064983"><ele>965.0</ele><time>2026-05-02T13:44:38.04Z</time></trkpt><trkpt lat="43.75273" lon="11.606655"><ele>956.0</ele><time>2026-05-02T13:44:40.039Z</time></trkpt><trkpt lat="43.7527133" lon="11.60679"><ele>947.0</ele><time>2026-05-02T13:44:42.036Z</time></trkpt><trkpt lat="43.7527367" lon="11.6069533"><ele>938.0</ele><time>2026-05-02T13:44:44.039Z</time></trkpt><trkpt lat="43.7527317" lon="11.6070467"><ele>937.0000000000001</ele><time>2026-05-02T13:44:45.04Z</time></trkpt><trkpt lat="43.7527317" lon="11.60714"><ele>936.0</ele><time>2026-05-02T13:44:46.041Z</time></trkpt><trkpt lat="43.7527367" lon="11.60723"><ele>935.0</ele><time>2026-05-02T13:44:47.039Z</time></trkpt><trkpt lat="43.7527483" lon="11.6073217"><ele>934.0</ele><time>2026-05-02T13:44:48.038Z</time></trkpt><trkpt lat="43.7527983" lon="11.60742"><ele>933.0000000000001</ele><time>2026-05-02T13:44:49.039Z</time></trkpt><trkpt lat="43.7528567" lon="11.6075267"><ele>932.0</ele><time>2026-05-02T13:44:50.039Z</time></trkpt><trkpt lat="43.7528833" lon="11.6076117"><ele>932.0</ele><time>2026-05-02T13:44:51.039Z</time></trkpt><trkpt lat="43.75285" lon="11.60778"><ele>932.0</ele><time>2026-05-02T13:44:53.038Z</time></trkpt><trkpt lat="43.7527983" lon="11.607845"><ele>932.0</ele><time>2026-05-02T13:44:54.039Z</time></trkpt><trkpt lat="43.75273" lon="11.6078883"><ele>932.0</ele><time>2026-05-02T13:44:55.039Z</time></trkpt><trkpt lat="43.7526467" lon="11.6079317"><ele>932.0</ele><time>2026-05-02T13:44:56.04Z</time></trkpt><trkpt lat="43.752555" lon="11.6079833"><ele>936.8333333333334</ele><time>2026-05-02T13:44:57.038Z</time></trkpt><trkpt lat="43.7524783" lon="11.60806"><ele>941.6666666666667</ele><time>2026-05-02T13:44:58.039Z</time></trkpt><trkpt lat="43.752425" lon="11.60815"><ele>946.5</ele><time>2026-05-02T13:44:59.041Z</time></trkpt><trkpt lat="43.7523617" lon="11.6082367"><ele>951.3333333333333</ele><time>2026-05-02T13:45:00.039Z</time></trkpt><trkpt lat="43.7522967" lon="11.60831"><ele>956.1666666666666</ele><time>2026-05-02T13:45:01.039Z</time></trkpt><trkpt lat="43.7522367" lon="11.6083817"><ele>961.0</ele><time>2026-05-02T13:45:02.041Z</time></trkpt><trkpt lat="43.7521917" lon="11.6084783"><ele>960.9999999999999</ele><time>2026-05-02T13:45:03.038Z</time></trkpt><trkpt lat="43.75216" lon="11.6085667"><ele>961.0</ele><time>2026-05-02T13:45:04.039Z</time></trkpt><trkpt lat="43.75212" lon="11.608645"><ele>961.0</ele><time>2026-05-02T13:45:05.038Z</time></trkpt><trkpt lat="43.7520717" lon="11.6087267"><ele>961.0</ele><time>2026-05-02T13:45:06.037Z</time></trkpt><trkpt lat="43.7520267" lon="11.6087967"><ele>960.9999999999999</ele><time>2026-05-02T13:45:07.039Z</time></trkpt><trkpt lat="43.75189" lon="11.6088467"><ele>961.0</ele><time>2026-05-02T13:45:09.038Z</time></trkpt><trkpt lat="43.7517967" lon="11.6088567"><ele>962.6666666666666</ele><time>2026-05-02T13:45:10.04Z</time></trkpt><trkpt lat="43.7517017" lon="11.60888"><ele>964.3333333333333</ele><time>2026-05-02T13:45:11.04Z</time></trkpt><trkpt lat="43.75162" lon="11.6089117"><ele>966.0</ele><time>2026-05-02T13:45:12.039Z</time></trkpt><trkpt lat="43.75154" lon="11.6089533"><ele>967.6666666666667</ele><time>2026-05-02T13:45:13.04Z</time></trkpt><trkpt lat="43.7514633" lon="11.609015"><ele>969.3333333333334</ele><time>2026-05-02T13:45:14.04Z</time></trkpt><trkpt lat="43.7514033" lon="11.609095"><ele>971.0</ele><time>2026-05-02T13:45:15.039Z</time></trkpt><trkpt lat="43.7513417" lon="11.6091767"><ele>971.0</ele><time>2026-05-02T13:45:16.038Z</time></trkpt><trkpt lat="43.7512833" lon="11.6092767"><ele>970.9999999999999</ele><time>2026-05-02T13:45:17.04Z</time></trkpt><trkpt lat="43.75123" lon="11.60938"><ele>970.9999999999999</ele><time>2026-05-02T13:45:18.041Z</time></trkpt><trkpt lat="43.75117" lon="11.6094867"><ele>971.0</ele><time>2026-05-02T13:45:19.04Z</time></trkpt><trkpt lat="43.75111" lon="11.6095967"><ele>971.0</ele><time>2026-05-02T13:45:20.041Z</time></trkpt><trkpt lat="43.7510667" lon="11.609685"><ele>972.6666666666667</ele><time>2026-05-02T13:45:21.041Z</time></trkpt><trkpt lat="43.751025" lon="11.609765"><ele>974.3333333333334</ele><time>2026-05-02T13:45:22.04Z</time></trkpt><trkpt lat="43.75099" lon="11.6098583"><ele>976.0</ele><time>2026-05-02T13:45:23.04Z</time></trkpt><trkpt lat="43.750945" lon="11.60996"><ele>977.6666666666667</ele><time>2026-05-02T13:45:24.039Z</time></trkpt><trkpt lat="43.7509033" lon="11.6100733"><ele>979.3333333333334</ele><time>2026-05-02T13:45:25.039Z</time></trkpt><trkpt lat="43.75086" lon="11.6101717"><ele>981.0</ele><time>2026-05-02T13:45:26.041Z</time></trkpt><trkpt lat="43.7508183" lon="11.61027"><ele>978.5714285714287</ele><time>2026-05-02T13:45:27.04Z</time></trkpt><trkpt lat="43.75078" lon="11.6103533"><ele>976.1428571428571</ele><time>2026-05-02T13:45:28.04Z</time></trkpt><trkpt lat="43.7507283" lon="11.6104267"><ele>973.7142857142858</ele><time>2026-05-02T13:45:29.04Z</time></trkpt><trkpt lat="43.7506767" lon="11.6104867"><ele>971.2857142857143</ele><time>2026-05-02T13:45:30.039Z</time></trkpt><trkpt lat="43.7506083" lon="11.61053"><ele>968.8571428571429</ele><time>2026-05-02T13:45:31.04Z</time></trkpt><trkpt lat="43.7505417" lon="11.6105383"><ele>966.4285714285714</ele><time>2026-05-02T13:45:32.043Z</time></trkpt><trkpt lat="43.7504683" lon="11.61055"><ele>964.0</ele><time>2026-05-02T13:45:33.038Z</time></trkpt><trkpt lat="43.7503933" lon="11.6105617"><ele>964.0</ele><time>2026-05-02T13:45:34.039Z</time></trkpt><trkpt lat="43.7503183" lon="11.610595"><ele>964.0000000000001</ele><time>2026-05-02T13:45:35.04Z</time></trkpt><trkpt lat="43.7502833" lon="11.6107583"><ele>964.0000000000001</ele><time>2026-05-02T13:45:38.041Z</time></trkpt><trkpt lat="43.7502917" lon="11.61089"><ele>964.0</ele><time>2026-05-02T13:45:39.039Z</time></trkpt><trkpt lat="43.7502633" lon="11.61102"><ele>964.0</ele><time>2026-05-02T13:45:40.041Z</time></trkpt><trkpt lat="43.7502283" lon="11.6111433"><ele>962.0</ele><time>2026-05-02T13:45:41.04Z</time></trkpt><trkpt lat="43.7501867" lon="11.61124"><ele>960.0000000000001</ele><time>2026-05-02T13:45:42.039Z</time></trkpt><trkpt lat="43.750145" lon="11.6113133"><ele>958.0</ele><time>2026-05-02T13:45:43.04Z</time></trkpt><trkpt lat="43.7500933" lon="11.6113683"><ele>956.0</ele><time>2026-05-02T13:45:44.044Z</time></trkpt><trkpt lat="43.7500517" lon="11.6114517"><ele>954.0000000000001</ele><time>2026-05-02T13:45:46.04Z</time></trkpt><trkpt lat="43.7500983" lon="11.6115417"><ele>952.0</ele><time>2026-05-02T13:45:48.042Z</time></trkpt><trkpt lat="43.75017" lon="11.61159"><ele>950.0</ele><time>2026-05-02T13:45:49.04Z</time></trkpt><trkpt lat="43.750235" lon="11.6116617"><ele>950.0</ele><time>2026-05-02T13:45:50.041Z</time></trkpt><trkpt lat="43.7502867" lon="11.6117683"><ele>950.0</ele><time>2026-05-02T13:45:51.041Z</time></trkpt><trkpt lat="43.7503367" lon="11.611905"><ele>950.0</ele><time>2026-05-02T13:45:52.039Z</time></trkpt><trkpt lat="43.7503883" lon="11.61206"><ele>950.0</ele><time>2026-05-02T13:45:53.04Z</time></trkpt><trkpt lat="43.7504483" lon="11.612205"><ele>950.0</ele><time>2026-05-02T13:45:54.038Z</time></trkpt><trkpt lat="43.7505017" lon="11.6123217"><ele>950.3333333333334</ele><time>2026-05-02T13:45:55.04Z</time></trkpt><trkpt lat="43.7505533" lon="11.61242"><ele>950.6666666666667</ele><time>2026-05-02T13:45:56.039Z</time></trkpt><trkpt lat="43.7506017" lon="11.6125183"><ele>951.0</ele><time>2026-05-02T13:45:57.039Z</time></trkpt><trkpt lat="43.7506467" lon="11.6126083"><ele>951.3333333333333</ele><time>2026-05-02T13:45:58.037Z</time></trkpt><trkpt lat="43.75069" lon="11.612685"><ele>951.6666666666666</ele><time>2026-05-02T13:45:59.037Z</time></trkpt><trkpt lat="43.7507483" lon="11.6128233"><ele>952.0</ele><time>2026-05-02T13:46:01.038Z</time></trkpt><trkpt lat="43.75078" lon="11.612975"><ele>952.2</ele><time>2026-05-02T13:46:03.037Z</time></trkpt><trkpt lat="43.75076" lon="11.6131517"><ele>952.4000000000001</ele><time>2026-05-02T13:46:05.038Z</time></trkpt><trkpt lat="43.7507317" lon="11.61328"><ele>952.5999999999999</ele><time>2026-05-02T13:46:06.038Z</time></trkpt><trkpt lat="43.7507017" lon="11.613425"><ele>952.8</ele><time>2026-05-02T13:46:07.037Z</time></trkpt><trkpt lat="43.75068" lon="11.6135633"><ele>953.0</ele><time>2026-05-02T13:46:08.039Z</time></trkpt><trkpt lat="43.7506667" lon="11.6136883"><ele>953.5000000000001</ele><time>2026-05-02T13:46:09.037Z</time></trkpt><trkpt lat="43.7506633" lon="11.6138017"><ele>954.0</ele><time>2026-05-02T13:46:10.037Z</time></trkpt><trkpt lat="43.7506717" lon="11.6139083"><ele>954.5</ele><time>2026-05-02T13:46:11.037Z</time></trkpt><trkpt lat="43.750685" lon="11.6139967"><ele>955.0</ele><time>2026-05-02T13:46:12.038Z</time></trkpt><trkpt lat="43.75071" lon="11.6140917"><ele>955.5000000000001</ele><time>2026-05-02T13:46:13.038Z</time></trkpt><trkpt lat="43.7507317" lon="11.6142017"><ele>956.0</ele><time>2026-05-02T13:46:14.038Z</time></trkpt><trkpt lat="43.7507483" lon="11.6143133"><ele>956.0000000000001</ele><time>2026-05-02T13:46:15.037Z</time></trkpt><trkpt lat="43.75075" lon="11.6144217"><ele>956.0</ele><time>2026-05-02T13:46:16.037Z</time></trkpt><trkpt lat="43.7507383" lon="11.6145367"><ele>956.0</ele><time>2026-05-02T13:46:17.037Z</time></trkpt><trkpt lat="43.7507117" lon="11.6146517"><ele>956.0</ele><time>2026-05-02T13:46:18.037Z</time></trkpt><trkpt lat="43.750695" lon="11.6147767"><ele>956.0000000000001</ele><time>2026-05-02T13:46:19.039Z</time></trkpt><trkpt lat="43.7506783" lon="11.6148783"><ele>956.0</ele><time>2026-05-02T13:46:20.04Z</time></trkpt><trkpt lat="43.7506483" lon="11.6149733"><ele>956.0000000000001</ele><time>2026-05-02T13:46:21.04Z</time></trkpt><trkpt lat="43.7506083" lon="11.6150567"><ele>956.0</ele><time>2026-05-02T13:46:22.038Z</time></trkpt><trkpt lat="43.7505533" lon="11.6151233"><ele>956.0</ele><time>2026-05-02T13:46:23.038Z</time></trkpt><trkpt lat="43.7504733" lon="11.61517"><ele>956.0</ele><time>2026-05-02T13:46:24.038Z</time></trkpt><trkpt lat="43.7503883" lon="11.6151967"><ele>956.0000000000001</ele><time>2026-05-02T13:46:25.037Z</time></trkpt><trkpt lat="43.7502833" lon="11.61522"><ele>956.0</ele><time>2026-05-02T13:46:26.041Z</time></trkpt><trkpt lat="43.7501833" lon="11.6152433"><ele>956.4</ele><time>2026-05-02T13:46:27.039Z</time></trkpt><trkpt lat="43.750085" lon="11.61526"><ele>956.8</ele><time>2026-05-02T13:46:28.038Z</time></trkpt><trkpt lat="43.74999" lon="11.6152833"><ele>957.1999999999999</ele><time>2026-05-02T13:46:29.04Z</time></trkpt><trkpt lat="43.7499017" lon="11.6153117"><ele>957.5999999999999</ele><time>2026-05-02T13:46:30.038Z</time></trkpt><trkpt lat="43.749815" lon="11.615345"><ele>958.0</ele><time>2026-05-02T13:46:31.039Z</time></trkpt><trkpt lat="43.7497317" lon="11.61538"><ele>957.9999999999999</ele><time>2026-05-02T13:46:32.042Z</time></trkpt><trkpt lat="43.749655" lon="11.6154333"><ele>958.0</ele><time>2026-05-02T13:46:33.038Z</time></trkpt><trkpt lat="43.7495883" lon="11.6155083"><ele>958.0</ele><time>2026-05-02T13:46:34.039Z</time></trkpt><trkpt lat="43.7495217" lon="11.61558"><ele>958.0</ele><time>2026-05-02T13:46:35.039Z</time></trkpt><trkpt lat="43.7494567" lon="11.6156517"><ele>957.9999999999999</ele><time>2026-05-02T13:46:36.039Z</time></trkpt><trkpt lat="43.749405" lon="11.6157283"><ele>958.0</ele><time>2026-05-02T13:46:37.04Z</time></trkpt><trkpt lat="43.7493667" lon="11.6158017"><ele>959.4999999999999</ele><time>2026-05-02T13:46:38.04Z</time></trkpt><trkpt lat="43.74936" lon="11.6158917"><ele>961.0</ele><time>2026-05-02T13:46:39.038Z</time></trkpt><trkpt lat="43.7493283" lon="11.6159867"><ele>962.5</ele><time>2026-05-02T13:46:40.04Z</time></trkpt><trkpt lat="43.7492967" lon="11.6160833"><ele>964.0</ele><time>2026-05-02T13:46:41.039Z</time></trkpt><trkpt lat="43.74925" lon="11.61616"><ele>965.4999999999999</ele><time>2026-05-02T13:46:42.038Z</time></trkpt><trkpt lat="43.749185" lon="11.6162333"><ele>967.0</ele><time>2026-05-02T13:46:43.039Z</time></trkpt><trkpt lat="43.7491017" lon="11.61626"><ele>966.9999999999999</ele><time>2026-05-02T13:46:44.043Z</time></trkpt><trkpt lat="43.7490283" lon="11.616295"><ele>967.0</ele><time>2026-05-02T13:46:45.039Z</time></trkpt><trkpt lat="43.7489683" lon="11.6163417"><ele>967.0</ele><time>2026-05-02T13:46:46.039Z</time></trkpt><trkpt lat="43.7489067" lon="11.616485"><ele>967.0</ele><time>2026-05-02T13:46:48.039Z</time></trkpt><trkpt lat="43.7489117" lon="11.616605"><ele>966.9999999999999</ele><time>2026-05-02T13:46:49.04Z</time></trkpt><trkpt lat="43.7489183" lon="11.6167333"><ele>967.0</ele><time>2026-05-02T13:46:50.04Z</time></trkpt><trkpt lat="43.7489017" lon="11.61685"><ele>967.0</ele><time>2026-05-02T13:46:51.038Z</time></trkpt><trkpt lat="43.748875" lon="11.6169383"><ele>967.0</ele><time>2026-05-02T13:46:52.041Z</time></trkpt><trkpt lat="43.7487967" lon="11.6170433"><ele>967.0</ele><time>2026-05-02T13:46:54.04Z</time></trkpt><trkpt lat="43.7487067" lon="11.6171733"><ele>967.0</ele><time>2026-05-02T13:46:56.04Z</time></trkpt><trkpt lat="43.748665" lon="11.6172817"><ele>967.0</ele><time>2026-05-02T13:46:57.038Z</time></trkpt><trkpt lat="43.7486083" lon="11.6173983"><ele>965.3333333333333</ele><time>2026-05-02T13:46:58.042Z</time></trkpt><trkpt lat="43.7485483" lon="11.6174967"><ele>963.6666666666666</ele><time>2026-05-02T13:46:59.04Z</time></trkpt><trkpt lat="43.748475" lon="11.6175783"><ele>962.0</ele><time>2026-05-02T13:47:00.039Z</time></trkpt><trkpt lat="43.7484083" lon="11.6176567"><ele>960.3333333333333</ele><time>2026-05-02T13:47:01.039Z</time></trkpt><trkpt lat="43.74834" lon="11.617725"><ele>958.6666666666666</ele><time>2026-05-02T13:47:02.042Z</time></trkpt><trkpt lat="43.7482767" lon="11.6177783"><ele>957.0</ele><time>2026-05-02T13:47:03.038Z</time></trkpt><trkpt lat="43.74821" lon="11.6178333"><ele>957.0</ele><time>2026-05-02T13:47:04.041Z</time></trkpt><trkpt lat="43.74815" lon="11.6178917"><ele>957.0</ele><time>2026-05-02T13:47:05.04Z</time></trkpt><trkpt lat="43.7480967" lon="11.6179733"><ele>957.0</ele><time>2026-05-02T13:47:06.039Z</time></trkpt><trkpt lat="43.74806" lon="11.6180667"><ele>957.0</ele><time>2026-05-02T13:47:07.041Z</time></trkpt><trkpt lat="43.7480283" lon="11.6181617"><ele>957.0</ele><time>2026-05-02T13:47:08.041Z</time></trkpt><trkpt lat="43.7480033" lon="11.6182567"><ele>957.0</ele><time>2026-05-02T13:47:09.038Z</time></trkpt><trkpt lat="43.7479867" lon="11.618375"><ele>957.0</ele><time>2026-05-02T13:47:10.04Z</time></trkpt><trkpt lat="43.747965" lon="11.618475"><ele>957.0</ele><time>2026-05-02T13:47:11.036Z</time></trkpt><trkpt lat="43.7479517" lon="11.6185917"><ele>957.0</ele><time>2026-05-02T13:47:12.04Z</time></trkpt><trkpt lat="43.747945" lon="11.6187183"><ele>957.0</ele><time>2026-05-02T13:47:13.039Z</time></trkpt><trkpt lat="43.7479167" lon="11.6188667"><ele>957.0</ele><time>2026-05-02T13:47:14.04Z</time></trkpt><trkpt lat="43.7478717" lon="11.6189933"><ele>955.8</ele><time>2026-05-02T13:47:15.039Z</time></trkpt><trkpt lat="43.747815" lon="11.6191133"><ele>954.6</ele><time>2026-05-02T13:47:16.039Z</time></trkpt><trkpt lat="43.7477483" lon="11.6192233"><ele>953.3999999999999</ele><time>2026-05-02T13:47:17.039Z</time></trkpt><trkpt lat="43.7476683" lon="11.6193167"><ele>952.1999999999999</ele><time>2026-05-02T13:47:18.039Z</time></trkpt><trkpt lat="43.7476033" lon="11.6194067"><ele>951.0</ele><time>2026-05-02T13:47:19.039Z</time></trkpt><trkpt lat="43.7475533" lon="11.6194917"><ele>951.0</ele><time>2026-05-02T13:47:20.041Z</time></trkpt><trkpt lat="43.74751" lon="11.6195967"><ele>951.0</ele><time>2026-05-02T13:47:21.039Z</time></trkpt><trkpt lat="43.7474883" lon="11.619705"><ele>951.0</ele><time>2026-05-02T13:47:22.04Z</time></trkpt><trkpt lat="43.7474567" lon="11.619805"><ele>951.0</ele><time>2026-05-02T13:47:23.04Z</time></trkpt><trkpt lat="43.7474167" lon="11.6198933"><ele>951.0</ele><time>2026-05-02T13:47:24.039Z</time></trkpt><trkpt lat="43.74735" lon="11.619985"><ele>951.0</ele><time>2026-05-02T13:47:25.04Z</time></trkpt><trkpt lat="43.7472717" lon="11.6200717"><ele>951.0</ele><time>2026-05-02T13:47:26.041Z</time></trkpt><trkpt lat="43.7471867" lon="11.6201617"><ele>950.9999999999999</ele><time>2026-05-02T13:47:27.038Z</time></trkpt><trkpt lat="43.747125" lon="11.6202567"><ele>950.9999999999999</ele><time>2026-05-02T13:47:28.039Z</time></trkpt><trkpt lat="43.7470783" lon="11.6203533"><ele>951.0</ele><time>2026-05-02T13:47:29.039Z</time></trkpt><trkpt lat="43.7470383" lon="11.620465"><ele>951.0</ele><time>2026-05-02T13:47:30.039Z</time></trkpt><trkpt lat="43.7469967" lon="11.6205617"><ele>950.4</ele><time>2026-05-02T13:47:31.039Z</time></trkpt><trkpt lat="43.7469417" lon="11.62066"><ele>949.8</ele><time>2026-05-02T13:47:32.042Z</time></trkpt><trkpt lat="43.74684" lon="11.6207517"><ele>949.1999999999999</ele><time>2026-05-02T13:47:33.04Z</time></trkpt><trkpt lat="43.7467767" lon="11.62083"><ele>948.5999999999999</ele><time>2026-05-02T13:47:34.04Z</time></trkpt><trkpt lat="43.7467033" lon="11.620905"><ele>948.0</ele><time>2026-05-02T13:47:35.042Z</time></trkpt><trkpt lat="43.7466483" lon="11.62097"><ele>947.9999999999999</ele><time>2026-05-02T13:47:36.039Z</time></trkpt><trkpt lat="43.7465967" lon="11.6210433"><ele>948.0</ele><time>2026-05-02T13:47:37.04Z</time></trkpt><trkpt lat="43.7465583" lon="11.621115"><ele>947.9999999999999</ele><time>2026-05-02T13:47:38.043Z</time></trkpt><trkpt lat="43.746505" lon="11.6212117"><ele>947.9999999999999</ele><time>2026-05-02T13:47:40.04Z</time></trkpt><trkpt lat="43.74646" lon="11.621275"><ele>948.0</ele><time>2026-05-02T13:47:43.039Z</time></trkpt><trkpt lat="43.7464133" lon="11.6211883"><ele>947.9999999999999</ele><time>2026-05-02T13:54:11.038Z</time></trkpt><trkpt lat="43.7463667" lon="11.62111"><ele>947.9999999999999</ele><time>2026-05-02T13:54:12.037Z</time></trkpt><trkpt lat="43.7463083" lon="11.6210033"><ele>948.0</ele><time>2026-05-02T13:54:13.039Z</time></trkpt><trkpt lat="43.74627" lon="11.62085"><ele>948.0</ele><time>2026-05-02T13:54:14.038Z</time></trkpt><trkpt lat="43.7462633" lon="11.6206733"><ele>948.0</ele><time>2026-05-02T13:54:15.037Z</time></trkpt><trkpt lat="43.7462567" lon="11.6205283"><ele>948.0</ele><time>2026-05-02T13:54:16.039Z</time></trkpt><trkpt lat="43.7462117" lon="11.6203917"><ele>946.4</ele><time>2026-05-02T13:54:17.039Z</time></trkpt><trkpt lat="43.7461617" lon="11.620285"><ele>944.8</ele><time>2026-05-02T13:54:18.037Z</time></trkpt><trkpt lat="43.746105" lon="11.62018"><ele>943.2</ele><time>2026-05-02T13:54:19.039Z</time></trkpt><trkpt lat="43.7460317" lon="11.62008"><ele>941.6</ele><time>2026-05-02T13:54:20.04Z</time></trkpt><trkpt lat="43.74595" lon="11.6199833"><ele>940.0</ele><time>2026-05-02T13:54:21.038Z</time></trkpt><trkpt lat="43.7458667" lon="11.6198983"><ele>940.0</ele><time>2026-05-02T13:54:22.037Z</time></trkpt><trkpt lat="43.7457817" lon="11.61982"><ele>940.0</ele><time>2026-05-02T13:54:23.038Z</time></trkpt><trkpt lat="43.7457017" lon="11.6197383"><ele>940.0</ele><time>2026-05-02T13:54:24.038Z</time></trkpt><trkpt lat="43.7456067" lon="11.6196733"><ele>940.0</ele><time>2026-05-02T13:54:25.038Z</time></trkpt><trkpt lat="43.7455267" lon="11.6196183"><ele>940.0</ele><time>2026-05-02T13:54:26.04Z</time></trkpt><trkpt lat="43.74545" lon="11.6195567"><ele>939.9999999999999</ele><time>2026-05-02T13:54:27.037Z</time></trkpt><trkpt lat="43.7453817" lon="11.61949"><ele>940.0</ele><time>2026-05-02T13:54:28.037Z</time></trkpt><trkpt lat="43.7453167" lon="11.6194367"><ele>940.0</ele><time>2026-05-02T13:54:29.039Z</time></trkpt><trkpt lat="43.7452483" lon="11.6194"><ele>940.0</ele><time>2026-05-02T13:54:30.038Z</time></trkpt><trkpt lat="43.745205" lon="11.61932"><ele>939.9999999999999</ele><time>2026-05-02T13:54:31.04Z</time></trkpt><trkpt lat="43.74516" lon="11.6192483"><ele>940.0</ele><time>2026-05-02T13:54:32.04Z</time></trkpt><trkpt lat="43.7451017" lon="11.6191767"><ele>937.9999999999999</ele><time>2026-05-02T13:54:33.038Z</time></trkpt><trkpt lat="43.7450367" lon="11.6190983"><ele>936.0</ele><time>2026-05-02T13:54:34.039Z</time></trkpt><trkpt lat="43.74497" lon="11.61901"><ele>934.0</ele><time>2026-05-02T13:54:35.04Z</time></trkpt><trkpt lat="43.7449" lon="11.6189417"><ele>932.0</ele><time>2026-05-02T13:54:36.038Z</time></trkpt><trkpt lat="43.7448417" lon="11.6188667"><ele>929.9999999999999</ele><time>2026-05-02T13:54:37.04Z</time></trkpt><trkpt lat="43.74479" lon="11.618795"><ele>928.0</ele><time>2026-05-02T13:54:38.04Z</time></trkpt><trkpt lat="43.744745" lon="11.6187117"><ele>930.8333333333333</ele><time>2026-05-02T13:54:39.038Z</time></trkpt><trkpt lat="43.7447" lon="11.61862"><ele>933.6666666666666</ele><time>2026-05-02T13:54:40.04Z</time></trkpt><trkpt lat="43.744645" lon="11.618535"><ele>936.5</ele><time>2026-05-02T13:54:41.04Z</time></trkpt><trkpt lat="43.7445917" lon="11.6184483"><ele>939.3333333333333</ele><time>2026-05-02T13:54:42.039Z</time></trkpt><trkpt lat="43.7445417" lon="11.6183567"><ele>942.1666666666666</ele><time>2026-05-02T13:54:43.039Z</time></trkpt><trkpt lat="43.7444867" lon="11.6182567"><ele>945.0</ele><time>2026-05-02T13:54:44.04Z</time></trkpt><trkpt lat="43.7444383" lon="11.6181683"><ele>938.1666666666666</ele><time>2026-05-02T13:54:45.038Z</time></trkpt><trkpt lat="43.744375" lon="11.6180533"><ele>931.3333333333333</ele><time>2026-05-02T13:54:47.04Z</time></trkpt><trkpt lat="43.7443467" lon="11.617975"><ele>924.5</ele><time>2026-05-02T13:54:49.038Z</time></trkpt><trkpt lat="43.7442983" lon="11.6179117"><ele>917.6666666666666</ele><time>2026-05-02T13:54:54.03Z</time></trkpt><trkpt lat="43.7442933" lon="11.61806"><ele>910.8333333333333</ele><time>2026-05-02T13:54:57.039Z</time></trkpt><trkpt lat="43.74431" lon="11.6181567"><ele>904.0</ele><time>2026-05-02T13:54:58.038Z</time></trkpt><trkpt lat="43.7443333" lon="11.61827"><ele>904.0</ele><time>2026-05-02T13:54:59.039Z</time></trkpt><trkpt lat="43.7443567" lon="11.6183983"><ele>904.0000000000001</ele><time>2026-05-02T13:55:00.037Z</time></trkpt><trkpt lat="43.744375" lon="11.6185367"><ele>904.0000000000001</ele><time>2026-05-02T13:55:01.04Z</time></trkpt><trkpt lat="43.74439" lon="11.61868"><ele>904.0</ele><time>2026-05-02T13:55:02.04Z</time></trkpt><trkpt lat="43.7443917" lon="11.6188333"><ele>904.0</ele><time>2026-05-02T13:55:03.038Z</time></trkpt><trkpt lat="43.7444" lon="11.6189967"><ele>906.5</ele><time>2026-05-02T13:55:04.039Z</time></trkpt><trkpt lat="43.7444217" lon="11.6191667"><ele>909.0</ele><time>2026-05-02T13:55:05.039Z</time></trkpt><trkpt lat="43.74446" lon="11.6193317"><ele>911.5</ele><time>2026-05-02T13:55:06.039Z</time></trkpt><trkpt lat="43.7445067" lon="11.6194933"><ele>914.0</ele><time>2026-05-02T13:55:07.039Z</time></trkpt><trkpt lat="43.7445617" lon="11.6196467"><ele>914.0</ele><time>2026-05-02T13:55:08.04Z</time></trkpt><trkpt lat="43.74462" lon="11.6197983"><ele>914.0</ele><time>2026-05-02T13:55:09.038Z</time></trkpt><trkpt lat="43.7446733" lon="11.61995"><ele>914.0</ele><time>2026-05-02T13:55:10.038Z</time></trkpt><trkpt lat="43.7447217" lon="11.620095"><ele>914.0</ele><time>2026-05-02T13:55:11.039Z</time></trkpt><trkpt lat="43.7447517" lon="11.62023"><ele>911.8333333333334</ele><time>2026-05-02T13:55:12.038Z</time></trkpt><trkpt lat="43.744765" lon="11.6203567"><ele>909.6666666666667</ele><time>2026-05-02T13:55:13.038Z</time></trkpt><trkpt lat="43.7447633" lon="11.6204683"><ele>907.5</ele><time>2026-05-02T13:55:14.039Z</time></trkpt><trkpt lat="43.7447483" lon="11.6205667"><ele>905.3333333333333</ele><time>2026-05-02T13:55:15.039Z</time></trkpt><trkpt lat="43.7447167" lon="11.6206483"><ele>903.1666666666666</ele><time>2026-05-02T13:55:16.04Z</time></trkpt><trkpt lat="43.7446633" lon="11.6207067"><ele>901.0</ele><time>2026-05-02T13:55:17.038Z</time></trkpt><trkpt lat="43.7445933" lon="11.6207267"><ele>901.0</ele><time>2026-05-02T13:55:18.038Z</time></trkpt><trkpt lat="43.7445267" lon="11.6206983"><ele>900.9999999999999</ele><time>2026-05-02T13:55:19.039Z</time></trkpt><trkpt lat="43.744455" lon="11.6206217"><ele>900.9999999999999</ele><time>2026-05-02T13:55:20.04Z</time></trkpt><trkpt lat="43.7443833" lon="11.6205117"><ele>901.0</ele><time>2026-05-02T13:55:21.038Z</time></trkpt><trkpt lat="43.7443117" lon="11.6203883"><ele>901.0</ele><time>2026-05-02T13:55:22.038Z</time></trkpt><trkpt lat="43.74424" lon="11.62025"><ele>897.25</ele><time>2026-05-02T13:55:23.037Z</time></trkpt><trkpt lat="43.744165" lon="11.6201117"><ele>893.5</ele><time>2026-05-02T13:55:24.037Z</time></trkpt><trkpt lat="43.7440867" lon="11.6199767"><ele>889.75</ele><time>2026-05-02T13:55:25.039Z</time></trkpt><trkpt lat="43.744005" lon="11.619845"><ele>886.0</ele><time>2026-05-02T13:55:26.039Z</time></trkpt><trkpt lat="43.7439183" lon="11.6197133"><ele>886.0</ele><time>2026-05-02T13:55:27.037Z</time></trkpt><trkpt lat="43.7438383" lon="11.619585"><ele>886.0</ele><time>2026-05-02T13:55:28.039Z</time></trkpt><trkpt lat="43.7437667" lon="11.61946"><ele>886.0</ele><time>2026-05-02T13:55:29.039Z</time></trkpt><trkpt lat="43.743725" lon="11.6193217"><ele>886.0</ele><time>2026-05-02T13:55:30.037Z</time></trkpt><trkpt lat="43.743705" lon="11.6191767"><ele>888.1999999999999</ele><time>2026-05-02T13:55:31.04Z</time></trkpt><trkpt lat="43.7436883" lon="11.6190483"><ele>890.3999999999999</ele><time>2026-05-02T13:55:32.041Z</time></trkpt><trkpt lat="43.7436483" lon="11.6189333"><ele>892.6</ele><time>2026-05-02T13:55:33.038Z</time></trkpt><trkpt lat="43.74359" lon="11.61884"><ele>894.8</ele><time>2026-05-02T13:55:34.039Z</time></trkpt><trkpt lat="43.7435067" lon="11.6187667"><ele>897.0</ele><time>2026-05-02T13:55:35.04Z</time></trkpt><trkpt lat="43.7434017" lon="11.6187267"><ele>893.25</ele><time>2026-05-02T13:55:36.038Z</time></trkpt><trkpt lat="43.743295" lon="11.61868"><ele>889.5</ele><time>2026-05-02T13:55:37.04Z</time></trkpt><trkpt lat="43.7431867" lon="11.618615"><ele>885.75</ele><time>2026-05-02T13:55:38.041Z</time></trkpt><trkpt lat="43.743085" lon="11.618535"><ele>882.0</ele><time>2026-05-02T13:55:39.037Z</time></trkpt><trkpt lat="43.7429883" lon="11.6184433"><ele>882.0</ele><time>2026-05-02T13:55:40.038Z</time></trkpt><trkpt lat="43.7428917" lon="11.618365"><ele>882.0</ele><time>2026-05-02T13:55:41.04Z</time></trkpt><trkpt lat="43.7427983" lon="11.6183"><ele>882.0</ele><time>2026-05-02T13:55:42.038Z</time></trkpt><trkpt lat="43.742715" lon="11.6182467"><ele>882.0</ele><time>2026-05-02T13:55:43.04Z</time></trkpt><trkpt lat="43.74264" lon="11.6181967"><ele>882.0</ele><time>2026-05-02T13:55:44.04Z</time></trkpt><trkpt lat="43.7425667" lon="11.6181633"><ele>879.5</ele><time>2026-05-02T13:55:45.039Z</time></trkpt><trkpt lat="43.7424983" lon="11.61815"><ele>877.0</ele><time>2026-05-02T13:55:46.038Z</time></trkpt><trkpt lat="43.7424333" lon="11.6181583"><ele>874.5</ele><time>2026-05-02T13:55:47.039Z</time></trkpt><trkpt lat="43.74238" lon="11.61822"><ele>872.0</ele><time>2026-05-02T13:55:48.038Z</time></trkpt><trkpt lat="43.7423417" lon="11.6183267"><ele>869.5</ele><time>2026-05-02T13:55:49.039Z</time></trkpt><trkpt lat="43.7423367" lon="11.61845"><ele>867.0</ele><time>2026-05-02T13:55:50.039Z</time></trkpt><trkpt lat="43.7423667" lon="11.6185683"><ele>863.0</ele><time>2026-05-02T13:55:51.038Z</time></trkpt><trkpt lat="43.7424433" lon="11.6186833"><ele>859.0</ele><time>2026-05-02T13:55:52.038Z</time></trkpt><trkpt lat="43.7425217" lon="11.618795"><ele>855.0</ele><time>2026-05-02T13:55:53.038Z</time></trkpt><trkpt lat="43.7425983" lon="11.6189067"><ele>851.0</ele><time>2026-05-02T13:55:54.039Z</time></trkpt><trkpt lat="43.7426767" lon="11.6190217"><ele>855.0</ele><time>2026-05-02T13:55:55.039Z</time></trkpt><trkpt lat="43.7427517" lon="11.619135"><ele>859.0</ele><time>2026-05-02T13:55:56.039Z</time></trkpt><trkpt lat="43.7428267" lon="11.6192383"><ele>862.9999999999999</ele><time>2026-05-02T13:55:57.038Z</time></trkpt><trkpt lat="43.7429083" lon="11.619315"><ele>867.0</ele><time>2026-05-02T13:55:58.039Z</time></trkpt><trkpt lat="43.7430033" lon="11.6193667"><ele>871.0</ele><time>2026-05-02T13:55:59.039Z</time></trkpt><trkpt lat="43.7431017" lon="11.6194067"><ele>871.0</ele><time>2026-05-02T13:56:00.039Z</time></trkpt><trkpt lat="43.7431983" lon="11.6194433"><ele>870.9999999999999</ele><time>2026-05-02T13:56:01.039Z</time></trkpt><trkpt lat="43.7432917" lon="11.61949"><ele>870.9999999999999</ele><time>2026-05-02T13:56:02.04Z</time></trkpt><trkpt lat="43.743365" lon="11.61956"><ele>871.0</ele><time>2026-05-02T13:56:03.039Z</time></trkpt><trkpt lat="43.7434167" lon="11.6196633"><ele>871.0</ele><time>2026-05-02T13:56:04.039Z</time></trkpt><trkpt lat="43.74344" lon="11.6197817"><ele>868.5999999999999</ele><time>2026-05-02T13:56:05.039Z</time></trkpt><trkpt lat="43.7434517" lon="11.6199167"><ele>866.1999999999999</ele><time>2026-05-02T13:56:06.04Z</time></trkpt><trkpt lat="43.743455" lon="11.6200633"><ele>863.8000000000001</ele><time>2026-05-02T13:56:07.039Z</time></trkpt><trkpt lat="43.7434633" lon="11.6202183"><ele>861.4000000000001</ele><time>2026-05-02T13:56:08.04Z</time></trkpt><trkpt lat="43.74348" lon="11.6203767"><ele>859.0</ele><time>2026-05-02T13:56:09.038Z</time></trkpt><trkpt lat="43.7435167" lon="11.62053"><ele>856.6</ele><time>2026-05-02T13:56:10.04Z</time></trkpt><trkpt lat="43.7435467" lon="11.6206767"><ele>854.2</ele><time>2026-05-02T13:56:11.04Z</time></trkpt><trkpt lat="43.7435483" lon="11.620805"><ele>851.8000000000001</ele><time>2026-05-02T13:56:12.038Z</time></trkpt><trkpt lat="43.7435183" lon="11.6209083"><ele>849.4000000000001</ele><time>2026-05-02T13:56:13.04Z</time></trkpt><trkpt lat="43.7434633" lon="11.6209983"><ele>847.0</ele><time>2026-05-02T13:56:14.042Z</time></trkpt><trkpt lat="43.74339" lon="11.621075"><ele>846.6</ele><time>2026-05-02T13:56:15.038Z</time></trkpt><trkpt lat="43.7433117" lon="11.6211533"><ele>846.2</ele><time>2026-05-02T13:56:16.04Z</time></trkpt><trkpt lat="43.7432433" lon="11.6212467"><ele>845.8</ele><time>2026-05-02T13:56:17.041Z</time></trkpt><trkpt lat="43.7431867" lon="11.62136"><ele>845.4</ele><time>2026-05-02T13:56:18.038Z</time></trkpt><trkpt lat="43.743145" lon="11.6214933"><ele>845.0</ele><time>2026-05-02T13:56:19.042Z</time></trkpt><trkpt lat="43.74312" lon="11.621625"><ele>845.0000000000001</ele><time>2026-05-02T13:56:20.042Z</time></trkpt><trkpt lat="43.7431117" lon="11.6217483"><ele>845.0</ele><time>2026-05-02T13:56:21.039Z</time></trkpt><trkpt lat="43.74311" lon="11.6218583"><ele>845.0</ele><time>2026-05-02T13:56:22.04Z</time></trkpt><trkpt lat="43.743145" lon="11.6219367"><ele>845.0</ele><time>2026-05-02T13:56:23.042Z</time></trkpt><trkpt lat="43.743195" lon="11.6220033"><ele>845.0000000000001</ele><time>2026-05-02T13:56:24.041Z</time></trkpt><trkpt lat="43.743275" lon="11.622055"><ele>845.0</ele><time>2026-05-02T13:56:25.039Z</time></trkpt><trkpt lat="43.7433633" lon="11.62211"><ele>847.8</ele><time>2026-05-02T13:56:26.04Z</time></trkpt><trkpt lat="43.74346" lon="11.6221767"><ele>850.6</ele><time>2026-05-02T13:56:27.04Z</time></trkpt><trkpt lat="43.7435533" lon="11.62226"><ele>853.4000000000001</ele><time>2026-05-02T13:56:28.04Z</time></trkpt><trkpt lat="43.74362" lon="11.6223667"><ele>856.2</ele><time>2026-05-02T13:56:29.04Z</time></trkpt><trkpt lat="43.7436683" lon="11.6225033"><ele>859.0</ele><time>2026-05-02T13:56:30.04Z</time></trkpt><trkpt lat="43.7436883" lon="11.62266"><ele>856.75</ele><time>2026-05-02T13:56:31.039Z</time></trkpt><trkpt lat="43.7436983" lon="11.6228333"><ele>854.5</ele><time>2026-05-02T13:56:32.039Z</time></trkpt><trkpt lat="43.74372" lon="11.6230133"><ele>852.25</ele><time>2026-05-02T13:56:33.04Z</time></trkpt><trkpt lat="43.7437533" lon="11.6231917"><ele>850.0</ele><time>2026-05-02T13:56:34.04Z</time></trkpt><trkpt lat="43.74379" lon="11.6233667"><ele>850.0</ele><time>2026-05-02T13:56:35.041Z</time></trkpt><trkpt lat="43.74383" lon="11.6235333"><ele>850.0</ele><time>2026-05-02T13:56:36.039Z</time></trkpt><trkpt lat="43.743875" lon="11.62369"><ele>850.0</ele><time>2026-05-02T13:56:37.043Z</time></trkpt><trkpt lat="43.74393" lon="11.623835"><ele>850.0</ele><time>2026-05-02T13:56:38.04Z</time></trkpt><trkpt lat="43.7439933" lon="11.6239567"><ele>848.4</ele><time>2026-05-02T13:56:39.039Z</time></trkpt><trkpt lat="43.7440733" lon="11.6240583"><ele>846.8</ele><time>2026-05-02T13:56:40.039Z</time></trkpt><trkpt lat="43.7441617" lon="11.6241467"><ele>845.2</ele><time>2026-05-02T13:56:41.04Z</time></trkpt><trkpt lat="43.7442467" lon="11.6242467"><ele>843.6</ele><time>2026-05-02T13:56:42.04Z</time></trkpt><trkpt lat="43.744325" lon="11.6243633"><ele>842.0</ele><time>2026-05-02T13:56:43.04Z</time></trkpt><trkpt lat="43.7443883" lon="11.62449"><ele>842.0</ele><time>2026-05-02T13:56:44.039Z</time></trkpt><trkpt lat="43.7444383" lon="11.6246233"><ele>842.0</ele><time>2026-05-02T13:56:45.038Z</time></trkpt><trkpt lat="43.7444733" lon="11.62476"><ele>842.0</ele><time>2026-05-02T13:56:46.038Z</time></trkpt><trkpt lat="43.744485" lon="11.6249"><ele>842.0</ele><time>2026-05-02T13:56:47.039Z</time></trkpt><trkpt lat="43.7444667" lon="11.6250433"><ele>842.0</ele><time>2026-05-02T13:56:48.038Z</time></trkpt><trkpt lat="43.744425" lon="11.6251833"><ele>836.8</ele><time>2026-05-02T13:56:49.042Z</time></trkpt><trkpt lat="43.7443717" lon="11.62532"><ele>831.6</ele><time>2026-05-02T13:56:50.039Z</time></trkpt><trkpt lat="43.7443133" lon="11.6254567"><ele>826.4</ele><time>2026-05-02T13:56:51.037Z</time></trkpt><trkpt lat="43.7442533" lon="11.6255867"><ele>821.1999999999999</ele><time>2026-05-02T13:56:52.038Z</time></trkpt><trkpt lat="43.7441967" lon="11.625715"><ele>816.0</ele><time>2026-05-02T13:56:53.04Z</time></trkpt><trkpt lat="43.7441417" lon="11.6258417"><ele>816.0</ele><time>2026-05-02T13:56:54.039Z</time></trkpt><trkpt lat="43.74409" lon="11.6259617"><ele>816.0</ele><time>2026-05-02T13:56:55.039Z</time></trkpt><trkpt lat="43.74404" lon="11.6260783"><ele>816.0</ele><time>2026-05-02T13:56:56.04Z</time></trkpt><trkpt lat="43.7439933" lon="11.6261867"><ele>816.0</ele><time>2026-05-02T13:56:57.037Z</time></trkpt><trkpt lat="43.7439483" lon="11.6262883"><ele>816.0</ele><time>2026-05-02T13:56:58.038Z</time></trkpt><trkpt lat="43.7439067" lon="11.62639"><ele>815.5</ele><time>2026-05-02T13:56:59.038Z</time></trkpt><trkpt lat="43.743865" lon="11.626495"><ele>815.0</ele><time>2026-05-02T13:57:00.038Z</time></trkpt><trkpt lat="43.7438267" lon="11.626595"><ele>814.5</ele><time>2026-05-02T13:57:01.04Z</time></trkpt><trkpt lat="43.7437917" lon="11.6266867"><ele>814.0</ele><time>2026-05-02T13:57:02.04Z</time></trkpt><trkpt lat="43.7437483" lon="11.626815"><ele>813.5</ele><time>2026-05-02T13:57:04.038Z</time></trkpt><trkpt lat="43.743685" lon="11.62674"><ele>813.0</ele><time>2026-05-02T13:57:07.039Z</time></trkpt><trkpt lat="43.7436683" lon="11.6265867"><ele>813.0</ele><time>2026-05-02T13:57:09.04Z</time></trkpt><trkpt lat="43.7436717" lon="11.6264733"><ele>813.0</ele><time>2026-05-02T13:57:10.039Z</time></trkpt><trkpt lat="43.7436783" lon="11.6263333"><ele>813.0</ele><time>2026-05-02T13:57:11.041Z</time></trkpt><trkpt lat="43.74369" lon="11.6261917"><ele>813.0</ele><time>2026-05-02T13:57:12.037Z</time></trkpt><trkpt lat="43.7437017" lon="11.62605"><ele>813.0</ele><time>2026-05-02T13:57:13.04Z</time></trkpt><trkpt lat="43.7437133" lon="11.62591"><ele>813.75</ele><time>2026-05-02T13:57:14.039Z</time></trkpt><trkpt lat="43.7437217" lon="11.6257433"><ele>814.5</ele><time>2026-05-02T13:57:15.038Z</time></trkpt><trkpt lat="43.7437433" lon="11.6255833"><ele>815.25</ele><time>2026-05-02T13:57:16.039Z</time></trkpt><trkpt lat="43.7437783" lon="11.6254133"><ele>816.0</ele><time>2026-05-02T13:57:17.04Z</time></trkpt><trkpt lat="43.7438133" lon="11.6252333"><ele>816.0</ele><time>2026-05-02T13:57:18.038Z</time></trkpt><trkpt lat="43.7438517" lon="11.62506"><ele>816.0</ele><time>2026-05-02T13:57:19.04Z</time></trkpt><trkpt lat="43.7438917" lon="11.624895"><ele>816.0</ele><time>2026-05-02T13:57:20.041Z</time></trkpt><trkpt lat="43.7439367" lon="11.6247383"><ele>816.0</ele><time>2026-05-02T13:57:21.038Z</time></trkpt><trkpt lat="43.7439417" lon="11.624585"><ele>819.1999999999999</ele><time>2026-05-02T13:57:22.039Z</time></trkpt><trkpt lat="43.743905" lon="11.6244467"><ele>822.4</ele><time>2026-05-02T13:57:23.039Z</time></trkpt><trkpt lat="43.7438383" lon="11.6243317"><ele>825.6</ele><time>2026-05-02T13:57:24.037Z</time></trkpt><trkpt lat="43.7437533" lon="11.624265"><ele>828.8</ele><time>2026-05-02T13:57:25.04Z</time></trkpt><trkpt lat="43.7436667" lon="11.6242433"><ele>832.0</ele><time>2026-05-02T13:57:26.041Z</time></trkpt><trkpt lat="43.7435883" lon="11.624285"><ele>825.0</ele><time>2026-05-02T13:57:27.039Z</time></trkpt><trkpt lat="43.7435283" lon="11.6243767"><ele>818.0</ele><time>2026-05-02T13:57:28.04Z</time></trkpt><trkpt lat="43.743485" lon="11.624505"><ele>811.0</ele><time>2026-05-02T13:57:29.037Z</time></trkpt><trkpt lat="43.74345" lon="11.624645"><ele>804.0</ele><time>2026-05-02T13:57:30.037Z</time></trkpt><trkpt lat="43.7434283" lon="11.6248083"><ele>797.0</ele><time>2026-05-02T13:57:31.039Z</time></trkpt><trkpt lat="43.743415" lon="11.62498"><ele>796.25</ele><time>2026-05-02T13:57:32.04Z</time></trkpt><trkpt lat="43.743405" lon="11.6251483"><ele>795.5</ele><time>2026-05-02T13:57:33.039Z</time></trkpt><trkpt lat="43.743395" lon="11.6253133"><ele>794.75</ele><time>2026-05-02T13:57:34.038Z</time></trkpt><trkpt lat="43.7433883" lon="11.6254733"><ele>794.0</ele><time>2026-05-02T13:57:35.039Z</time></trkpt><trkpt lat="43.743375" lon="11.6256217"><ele>794.0000000000001</ele><time>2026-05-02T13:57:36.037Z</time></trkpt><trkpt lat="43.74337" lon="11.6257633"><ele>794.0</ele><time>2026-05-02T13:57:37.038Z</time></trkpt><trkpt lat="43.7433367" lon="11.6258833"><ele>794.0</ele><time>2026-05-02T13:57:38.038Z</time></trkpt><trkpt lat="43.743285" lon="11.62597"><ele>794.0</ele><time>2026-05-02T13:57:39.04Z</time></trkpt><trkpt lat="43.7432217" lon="11.6260167"><ele>794.0000000000001</ele><time>2026-05-02T13:57:40.037Z</time></trkpt><trkpt lat="43.7431417" lon="11.6260217"><ele>794.0</ele><time>2026-05-02T13:57:41.038Z</time></trkpt><trkpt lat="43.7430583" lon="11.62598"><ele>794.0</ele><time>2026-05-02T13:57:42.038Z</time></trkpt><trkpt lat="43.7429883" lon="11.625905"><ele>794.0</ele><time>2026-05-02T13:57:43.039Z</time></trkpt><trkpt lat="43.7429467" lon="11.6258083"><ele>794.0</ele><time>2026-05-02T13:57:44.04Z</time></trkpt><trkpt lat="43.742935" lon="11.62569"><ele>794.0</ele><time>2026-05-02T13:57:45.037Z</time></trkpt><trkpt lat="43.7429617" lon="11.6255417"><ele>794.0</ele><time>2026-05-02T13:57:46.038Z</time></trkpt><trkpt lat="43.742995" lon="11.6253983"><ele>793.25</ele><time>2026-05-02T13:57:47.039Z</time></trkpt><trkpt lat="43.7430367" lon="11.6252467"><ele>792.5</ele><time>2026-05-02T13:57:48.038Z</time></trkpt><trkpt lat="43.7430767" lon="11.6250883"><ele>791.75</ele><time>2026-05-02T13:57:49.039Z</time></trkpt><trkpt lat="43.7431167" lon="11.624925"><ele>791.0</ele><time>2026-05-02T13:57:50.039Z</time></trkpt><trkpt lat="43.7431583" lon="11.6247633"><ele>791.0</ele><time>2026-05-02T13:57:51.04Z</time></trkpt><trkpt lat="43.7431833" lon="11.6246233"><ele>791.0</ele><time>2026-05-02T13:57:52.038Z</time></trkpt><trkpt lat="43.7431717" lon="11.62448"><ele>791.0</ele><time>2026-05-02T13:57:53.039Z</time></trkpt><trkpt lat="43.7431117" lon="11.62434"><ele>791.0</ele><time>2026-05-02T13:57:54.038Z</time></trkpt><trkpt lat="43.7430183" lon="11.62421"><ele>792.5</ele><time>2026-05-02T13:57:55.039Z</time></trkpt><trkpt lat="43.7429133" lon="11.6240833"><ele>794.0</ele><time>2026-05-02T13:57:56.042Z</time></trkpt><trkpt lat="43.742805" lon="11.6239483"><ele>795.5</ele><time>2026-05-02T13:57:57.038Z</time></trkpt><trkpt lat="43.7426917" lon="11.6238167"><ele>797.0</ele><time>2026-05-02T13:57:58.041Z</time></trkpt><trkpt lat="43.74258" lon="11.623685"><ele>793.0</ele><time>2026-05-02T13:57:59.04Z</time></trkpt><trkpt lat="43.7424733" lon="11.6235533"><ele>789.0</ele><time>2026-05-02T13:58:00.039Z</time></trkpt><trkpt lat="43.7423683" lon="11.62342"><ele>785.0</ele><time>2026-05-02T13:58:01.04Z</time></trkpt><trkpt lat="43.7422733" lon="11.623285"><ele>781.0</ele><time>2026-05-02T13:58:02.04Z</time></trkpt><trkpt lat="43.7421883" lon="11.6231417"><ele>781.0</ele><time>2026-05-02T13:58:03.04Z</time></trkpt><trkpt lat="43.7421017" lon="11.62301"><ele>781.0</ele><time>2026-05-02T13:58:04.039Z</time></trkpt><trkpt lat="43.7420117" lon="11.6228933"><ele>781.0</ele><time>2026-05-02T13:58:05.04Z</time></trkpt><trkpt lat="43.7419233" lon="11.6227883"><ele>781.0</ele><time>2026-05-02T13:58:06.039Z</time></trkpt><trkpt lat="43.7418367" lon="11.6227"><ele>777.8</ele><time>2026-05-02T13:58:07.042Z</time></trkpt><trkpt lat="43.74175" lon="11.6226067"><ele>774.5999999999999</ele><time>2026-05-02T13:58:08.041Z</time></trkpt><trkpt lat="43.7416817" lon="11.6224983"><ele>771.4</ele><time>2026-05-02T13:58:09.041Z</time></trkpt><trkpt lat="43.7416417" lon="11.62237"><ele>768.2</ele><time>2026-05-02T13:58:10.039Z</time></trkpt><trkpt lat="43.7416333" lon="11.6222283"><ele>765.0</ele><time>2026-05-02T13:58:11.041Z</time></trkpt><trkpt lat="43.7416383" lon="11.6220833"><ele>767.4</ele><time>2026-05-02T13:58:12.04Z</time></trkpt><trkpt lat="43.7416417" lon="11.6219317"><ele>769.8</ele><time>2026-05-02T13:58:13.039Z</time></trkpt><trkpt lat="43.74162" lon="11.621795"><ele>772.2</ele><time>2026-05-02T13:58:14.039Z</time></trkpt><trkpt lat="43.74157" lon="11.6216717"><ele>774.6</ele><time>2026-05-02T13:58:15.04Z</time></trkpt><trkpt lat="43.7414967" lon="11.62159"><ele>777.0</ele><time>2026-05-02T13:58:16.039Z</time></trkpt><trkpt lat="43.7414083" lon="11.62154"><ele>777.0</ele><time>2026-05-02T13:58:17.041Z</time></trkpt><trkpt lat="43.741305" lon="11.6215233"><ele>777.0</ele><time>2026-05-02T13:58:18.04Z</time></trkpt><trkpt lat="43.7411917" lon="11.6215133"><ele>777.0</ele><time>2026-05-02T13:58:19.039Z</time></trkpt><trkpt lat="43.741085" lon="11.6214817"><ele>777.0</ele><time>2026-05-02T13:58:20.042Z</time></trkpt><trkpt lat="43.7409917" lon="11.62143"><ele>777.0</ele><time>2026-05-02T13:58:21.038Z</time></trkpt><trkpt lat="43.7409133" lon="11.621345"><ele>774.6</ele><time>2026-05-02T13:58:22.04Z</time></trkpt><trkpt lat="43.74084" lon="11.6212317"><ele>772.2</ele><time>2026-05-02T13:58:23.039Z</time></trkpt><trkpt lat="43.740775" lon="11.621105"><ele>769.8</ele><time>2026-05-02T13:58:24.039Z</time></trkpt><trkpt lat="43.7407133" lon="11.6209733"><ele>767.4</ele><time>2026-05-02T13:58:25.039Z</time></trkpt><trkpt lat="43.740655" lon="11.6208383"><ele>765.0</ele><time>2026-05-02T13:58:26.041Z</time></trkpt><trkpt lat="43.740595" lon="11.6207067"><ele>765.0</ele><time>2026-05-02T13:58:27.038Z</time></trkpt><trkpt lat="43.7405383" lon="11.6205733"><ele>765.0</ele><time>2026-05-02T13:58:28.039Z</time></trkpt><trkpt lat="43.7404817" lon="11.620445"><ele>765.0</ele><time>2026-05-02T13:58:29.039Z</time></trkpt><trkpt lat="43.7404283" lon="11.6203167"><ele>765.0</ele><time>2026-05-02T13:58:30.039Z</time></trkpt><trkpt lat="43.7403833" lon="11.6202017"><ele>765.0</ele><time>2026-05-02T13:58:31.04Z</time></trkpt><trkpt lat="43.7403333" lon="11.6201133"><ele>768.4</ele><time>2026-05-02T13:58:32.039Z</time></trkpt><trkpt lat="43.7402883" lon="11.6200317"><ele>771.8</ele><time>2026-05-02T13:58:33.039Z</time></trkpt><trkpt lat="43.7402217" lon="11.6200083"><ele>775.2</ele><time>2026-05-02T13:58:34.041Z</time></trkpt><trkpt lat="43.740155" lon="11.6200383"><ele>778.6</ele><time>2026-05-02T13:58:35.039Z</time></trkpt><trkpt lat="43.7400367" lon="11.6201"><ele>782.0</ele><time>2026-05-02T13:58:37.039Z</time></trkpt><trkpt lat="43.73993" lon="11.62"><ele>777.2</ele><time>2026-05-02T13:58:39.039Z</time></trkpt><trkpt lat="43.7398817" lon="11.6198983"><ele>772.4000000000001</ele><time>2026-05-02T13:58:40.039Z</time></trkpt><trkpt lat="43.7398417" lon="11.6197633"><ele>767.5999999999999</ele><time>2026-05-02T13:58:41.039Z</time></trkpt><trkpt lat="43.7398" lon="11.6196333"><ele>762.8</ele><time>2026-05-02T13:58:42.039Z</time></trkpt><trkpt lat="43.7397567" lon="11.619495"><ele>758.0</ele><time>2026-05-02T13:58:43.039Z</time></trkpt><trkpt lat="43.7397133" lon="11.619355"><ele>758.0</ele><time>2026-05-02T13:58:44.039Z</time></trkpt><trkpt lat="43.739675" lon="11.6192167"><ele>758.0</ele><time>2026-05-02T13:58:45.04Z</time></trkpt><trkpt lat="43.7396333" lon="11.6190867"><ele>758.0</ele><time>2026-05-02T13:58:46.039Z</time></trkpt><trkpt lat="43.739595" lon="11.6189683"><ele>758.0</ele><time>2026-05-02T13:58:47.04Z</time></trkpt><trkpt lat="43.7395533" lon="11.6188733"><ele>758.0</ele><time>2026-05-02T13:58:48.038Z</time></trkpt><trkpt lat="43.7394933" lon="11.6188267"><ele>758.0</ele><time>2026-05-02T13:58:49.04Z</time></trkpt><trkpt lat="43.7394217" lon="11.61881"><ele>758.0</ele><time>2026-05-02T13:58:50.041Z</time></trkpt><trkpt lat="43.7393567" lon="11.6188"><ele>758.0</ele><time>2026-05-02T13:58:51.039Z</time></trkpt><trkpt lat="43.7392833" lon="11.6186917"><ele>758.0</ele><time>2026-05-02T13:58:53.041Z</time></trkpt><trkpt lat="43.73928" lon="11.6185267"><ele>758.0</ele><time>2026-05-02T13:58:55.039Z</time></trkpt><trkpt lat="43.739235" lon="11.618405"><ele>757.4</ele><time>2026-05-02T13:58:57.04Z</time></trkpt><trkpt lat="43.739145" lon="11.618485"><ele>756.8</ele><time>2026-05-02T13:58:59.041Z</time></trkpt><trkpt lat="43.7391083" lon="11.6185667"><ele>756.2</ele><time>2026-05-02T13:59:00.039Z</time></trkpt><trkpt lat="43.739065" lon="11.6186817"><ele>755.6</ele><time>2026-05-02T13:59:01.039Z</time></trkpt><trkpt lat="43.7390133" lon="11.6188317"><ele>755.0</ele><time>2026-05-02T13:59:02.041Z</time></trkpt><trkpt lat="43.7389817" lon="11.6189833"><ele>753.6666666666666</ele><time>2026-05-02T13:59:03.039Z</time></trkpt><trkpt lat="43.7389683" lon="11.6191383"><ele>752.3333333333333</ele><time>2026-05-02T13:59:04.041Z</time></trkpt><trkpt lat="43.73895" lon="11.6192733"><ele>751.0</ele><time>2026-05-02T13:59:05.04Z</time></trkpt><trkpt lat="43.73893" lon="11.6193867"><ele>749.6666666666666</ele><time>2026-05-02T13:59:06.041Z</time></trkpt><trkpt lat="43.738885" lon="11.6194567"><ele>748.3333333333334</ele><time>2026-05-02T13:59:07.039Z</time></trkpt><trkpt lat="43.7388333" lon="11.6195083"><ele>747.0</ele><time>2026-05-02T13:59:08.041Z</time></trkpt><trkpt lat="43.738755" lon="11.61953"><ele>745.8</ele><time>2026-05-02T13:59:09.04Z</time></trkpt><trkpt lat="43.7386533" lon="11.6195367"><ele>744.6</ele><time>2026-05-02T13:59:10.039Z</time></trkpt><trkpt lat="43.7385433" lon="11.6195467"><ele>743.4</ele><time>2026-05-02T13:59:11.04Z</time></trkpt><trkpt lat="43.738435" lon="11.6195667"><ele>742.1999999999999</ele><time>2026-05-02T13:59:12.039Z</time></trkpt><trkpt lat="43.73834" lon="11.6196067"><ele>741.0</ele><time>2026-05-02T13:59:13.039Z</time></trkpt><trkpt lat="43.7382667" lon="11.6196783"><ele>744.8</ele><time>2026-05-02T13:59:14.041Z</time></trkpt><trkpt lat="43.7382167" lon="11.6197783"><ele>748.5999999999999</ele><time>2026-05-02T13:59:15.04Z</time></trkpt><trkpt lat="43.7381783" lon="11.61989"><ele>752.4</ele><time>2026-05-02T13:59:16.04Z</time></trkpt><trkpt lat="43.7381383" lon="11.6200067"><ele>756.2</ele><time>2026-05-02T13:59:17.04Z</time></trkpt><trkpt lat="43.7380883" lon="11.6201217"><ele>760.0</ele><time>2026-05-02T13:59:18.038Z</time></trkpt><trkpt lat="43.7380267" lon="11.6202417"><ele>758.0</ele><time>2026-05-02T13:59:19.039Z</time></trkpt><trkpt lat="43.7379567" lon="11.62036"><ele>756.0</ele><time>2026-05-02T13:59:20.04Z</time></trkpt><trkpt lat="43.7378867" lon="11.620475"><ele>754.0</ele><time>2026-05-02T13:59:21.038Z</time></trkpt><trkpt lat="43.7378133" lon="11.6205783"><ele>752.0</ele><time>2026-05-02T13:59:22.04Z</time></trkpt><trkpt lat="43.7377533" lon="11.6206783"><ele>750.0</ele><time>2026-05-02T13:59:23.04Z</time></trkpt><trkpt lat="43.7377033" lon="11.620775"><ele>753.5</ele><time>2026-05-02T13:59:24.04Z</time></trkpt><trkpt lat="43.7376533" lon="11.620875"><ele>757.0</ele><time>2026-05-02T13:59:25.039Z</time></trkpt><trkpt lat="43.7376067" lon="11.620985"><ele>760.5</ele><time>2026-05-02T13:59:26.039Z</time></trkpt><trkpt lat="43.73756" lon="11.6210933"><ele>764.0</ele><time>2026-05-02T13:59:27.037Z</time></trkpt><trkpt lat="43.7375083" lon="11.62119"><ele>767.5</ele><time>2026-05-02T13:59:28.038Z</time></trkpt><trkpt lat="43.737465" lon="11.6212683"><ele>771.0</ele><time>2026-05-02T13:59:29.038Z</time></trkpt><trkpt lat="43.7373567" lon="11.6212883"><ele>771.0</ele><time>2026-05-02T13:59:31.037Z</time></trkpt><trkpt lat="43.737315" lon="11.6211883"><ele>771.0</ele><time>2026-05-02T13:59:33.039Z</time></trkpt><trkpt lat="43.7373417" lon="11.6210917"><ele>771.0</ele><time>2026-05-02T13:59:35.038Z</time></trkpt><trkpt lat="43.737405" lon="11.6209567"><ele>771.0</ele><time>2026-05-02T13:59:37.039Z</time></trkpt><trkpt lat="43.7374283" lon="11.6208617"><ele>771.0</ele><time>2026-05-02T13:59:38.04Z</time></trkpt><trkpt lat="43.7374433" lon="11.6207333"><ele>771.0</ele><time>2026-05-02T13:59:39.039Z</time></trkpt><trkpt lat="43.737445" lon="11.6205967"><ele>772.5</ele><time>2026-05-02T13:59:40.039Z</time></trkpt><trkpt lat="43.7374383" lon="11.6204733"><ele>774.0</ele><time>2026-05-02T13:59:41.039Z</time></trkpt><trkpt lat="43.7374117" lon="11.6203583"><ele>775.5</ele><time>2026-05-02T13:59:42.039Z</time></trkpt><trkpt lat="43.73737" lon="11.6202583"><ele>777.0</ele><time>2026-05-02T13:59:43.038Z</time></trkpt><trkpt lat="43.7373183" lon="11.6201717"><ele>778.5</ele><time>2026-05-02T13:59:44.041Z</time></trkpt><trkpt lat="43.737265" lon="11.62011"><ele>780.0</ele><time>2026-05-02T13:59:45.038Z</time></trkpt><trkpt lat="43.7372067" lon="11.620075"><ele>780.3333333333334</ele><time>2026-05-02T13:59:46.039Z</time></trkpt><trkpt lat="43.7370833" lon="11.62008"><ele>780.6666666666667</ele><time>2026-05-02T13:59:48.039Z</time></trkpt><trkpt lat="43.7370233" lon="11.6201133"><ele>781.0</ele><time>2026-05-02T13:59:49.038Z</time></trkpt><trkpt lat="43.7369183" lon="11.6201883"><ele>781.3333333333334</ele><time>2026-05-02T13:59:51.038Z</time></trkpt><trkpt lat="43.7368567" lon="11.6202283"><ele>781.6666666666667</ele><time>2026-05-02T13:59:52.038Z</time></trkpt><trkpt lat="43.73679" lon="11.6202683"><ele>782.0</ele><time>2026-05-02T13:59:53.038Z</time></trkpt><trkpt lat="43.7367283" lon="11.620315"><ele>784.0</ele><time>2026-05-02T13:59:54.037Z</time></trkpt><trkpt lat="43.7366" lon="11.6202933"><ele>786.0</ele><time>2026-05-02T13:59:56.04Z</time></trkpt><trkpt lat="43.7365283" lon="11.6202433"><ele>788.0</ele><time>2026-05-02T13:59:57.038Z</time></trkpt><trkpt lat="43.7364533" lon="11.620175"><ele>790.0</ele><time>2026-05-02T13:59:58.04Z</time></trkpt><trkpt lat="43.73637" lon="11.6201"><ele>792.0</ele><time>2026-05-02T13:59:59.04Z</time></trkpt><trkpt lat="43.7362817" lon="11.6200217"><ele>792.0</ele><time>2026-05-02T14:00:00.041Z</time></trkpt><trkpt lat="43.73619" lon="11.6199517"><ele>792.0</ele><time>2026-05-02T14:00:01.039Z</time></trkpt><trkpt lat="43.7360967" lon="11.619895"><ele>792.0</ele><time>2026-05-02T14:00:02.04Z</time></trkpt><trkpt lat="43.7360167" lon="11.61985"><ele>792.0</ele><time>2026-05-02T14:00:03.039Z</time></trkpt><trkpt lat="43.7359183" lon="11.6199067"><ele>792.0</ele><time>2026-05-02T14:00:05.04Z</time></trkpt><trkpt lat="43.735875" lon="11.6200117"><ele>792.6</ele><time>2026-05-02T14:00:06.039Z</time></trkpt><trkpt lat="43.7358383" lon="11.6201283"><ele>793.2</ele><time>2026-05-02T14:00:07.041Z</time></trkpt><trkpt lat="43.735805" lon="11.6202617"><ele>793.8</ele><time>2026-05-02T14:00:08.04Z</time></trkpt><trkpt lat="43.73577" lon="11.620415"><ele>794.4</ele><time>2026-05-02T14:00:09.038Z</time></trkpt><trkpt lat="43.735735" lon="11.6205667"><ele>795.0</ele><time>2026-05-02T14:00:10.04Z</time></trkpt><trkpt lat="43.7356983" lon="11.6207133"><ele>795.0</ele><time>2026-05-02T14:00:11.041Z</time></trkpt><trkpt lat="43.735675" lon="11.6208517"><ele>795.0</ele><time>2026-05-02T14:00:12.04Z</time></trkpt><trkpt lat="43.735645" lon="11.62099"><ele>795.0</ele><time>2026-05-02T14:00:13.123Z</time></trkpt><trkpt lat="43.7356033" lon="11.6211233"><ele>795.0</ele><time>2026-05-02T14:00:14.04Z</time></trkpt><trkpt lat="43.7355567" lon="11.6212517"><ele>795.0</ele><time>2026-05-02T14:00:15.038Z</time></trkpt><trkpt lat="43.735505" lon="11.621375"><ele>795.6</ele><time>2026-05-02T14:00:16.039Z</time></trkpt><trkpt lat="43.7354483" lon="11.6215033"><ele>796.2</ele><time>2026-05-02T14:00:17.039Z</time></trkpt><trkpt lat="43.735385" lon="11.6216333"><ele>796.8</ele><time>2026-05-02T14:00:18.04Z</time></trkpt><trkpt lat="43.73532" lon="11.6217633"><ele>797.4</ele><time>2026-05-02T14:00:19.041Z</time></trkpt><trkpt lat="43.7352567" lon="11.6218917"><ele>798.0</ele><time>2026-05-02T14:00:20.04Z</time></trkpt><trkpt lat="43.7351867" lon="11.6220033"><ele>799.8333333333334</ele><time>2026-05-02T14:00:21.039Z</time></trkpt><trkpt lat="43.73511" lon="11.622105"><ele>801.6666666666667</ele><time>2026-05-02T14:00:22.039Z</time></trkpt><trkpt lat="43.7350767" lon="11.6222283"><ele>803.5</ele><time>2026-05-02T14:00:23.039Z</time></trkpt><trkpt lat="43.7350633" lon="11.62235"><ele>805.3333333333334</ele><time>2026-05-02T14:00:24.04Z</time></trkpt><trkpt lat="43.73505" lon="11.6224583"><ele>807.1666666666667</ele><time>2026-05-02T14:00:25.04Z</time></trkpt><trkpt lat="43.73504" lon="11.6225583"><ele>809.0</ele><time>2026-05-02T14:00:26.041Z</time></trkpt><trkpt lat="43.7350233" lon="11.6226567"><ele>809.0000000000001</ele><time>2026-05-02T14:00:27.039Z</time></trkpt><trkpt lat="43.7349917" lon="11.6227517"><ele>809.0</ele><time>2026-05-02T14:00:28.041Z</time></trkpt><trkpt lat="43.7349517" lon="11.6228433"><ele>809.0</ele><time>2026-05-02T14:00:29.04Z</time></trkpt><trkpt lat="43.73491" lon="11.6229183"><ele>809.0</ele><time>2026-05-02T14:00:30.04Z</time></trkpt><trkpt lat="43.7348083" lon="11.622965"><ele>809.0000000000001</ele><time>2026-05-02T14:00:32.042Z</time></trkpt><trkpt lat="43.7346883" lon="11.62297"><ele>809.0</ele><time>2026-05-02T14:00:34.042Z</time></trkpt><trkpt lat="43.734595" lon="11.6229833"><ele>808.6</ele><time>2026-05-02T14:00:36.04Z</time></trkpt><trkpt lat="43.7344917" lon="11.6229133"><ele>808.2</ele><time>2026-05-02T14:00:38.043Z</time></trkpt><trkpt lat="43.73443" lon="11.6228667"><ele>807.8000000000001</ele><time>2026-05-02T14:00:39.038Z</time></trkpt><trkpt lat="43.7343533" lon="11.62282"><ele>807.4000000000001</ele><time>2026-05-02T14:00:40.039Z</time></trkpt><trkpt lat="43.7342683" lon="11.62277"><ele>807.0</ele><time>2026-05-02T14:00:41.041Z</time></trkpt><trkpt lat="43.7341783" lon="11.6227267"><ele>809.5</ele><time>2026-05-02T14:00:42.039Z</time></trkpt><trkpt lat="43.7340867" lon="11.6226983"><ele>812.0</ele><time>2026-05-02T14:00:43.039Z</time></trkpt><trkpt lat="43.734005" lon="11.6226883"><ele>814.5</ele><time>2026-05-02T14:00:44.041Z</time></trkpt><trkpt lat="43.7339383" lon="11.6227017"><ele>817.0</ele><time>2026-05-02T14:00:45.039Z</time></trkpt><trkpt lat="43.733885" lon="11.6227483"><ele>819.5</ele><time>2026-05-02T14:00:46.039Z</time></trkpt><trkpt lat="43.7338033" lon="11.6229083"><ele>822.0</ele><time>2026-05-02T14:00:48.039Z</time></trkpt><trkpt lat="43.7337633" lon="11.623005"><ele>822.0</ele><time>2026-05-02T14:00:49.039Z</time></trkpt><trkpt lat="43.7337217" lon="11.6230867"><ele>822.0</ele><time>2026-05-02T14:00:50.04Z</time></trkpt><trkpt lat="43.7336683" lon="11.623145"><ele>822.0</ele><time>2026-05-02T14:00:51.04Z</time></trkpt><trkpt lat="43.7336033" lon="11.6231867"><ele>822.0</ele><time>2026-05-02T14:00:52.039Z</time></trkpt><trkpt lat="43.7335033" lon="11.62313"><ele>822.0</ele><time>2026-05-02T14:00:54.039Z</time></trkpt><trkpt lat="43.73349" lon="11.623035"><ele>822.0</ele><time>2026-05-02T14:00:55.04Z</time></trkpt><trkpt lat="43.73348" lon="11.6229283"><ele>823.1666666666666</ele><time>2026-05-02T14:00:56.041Z</time></trkpt><trkpt lat="43.7334667" lon="11.62282"><ele>824.3333333333333</ele><time>2026-05-02T14:00:57.039Z</time></trkpt><trkpt lat="43.7334317" lon="11.62272"><ele>825.5</ele><time>2026-05-02T14:00:58.039Z</time></trkpt><trkpt lat="43.7333867" lon="11.6226267"><ele>826.6666666666666</ele><time>2026-05-02T14:00:59.041Z</time></trkpt><trkpt lat="43.73334" lon="11.6225483"><ele>827.8333333333333</ele><time>2026-05-02T14:01:00.04Z</time></trkpt><trkpt lat="43.7332767" lon="11.6224117"><ele>829.0</ele><time>2026-05-02T14:01:02.042Z</time></trkpt><trkpt lat="43.7332183" lon="11.6222617"><ele>831.8000000000001</ele><time>2026-05-02T14:01:04.04Z</time></trkpt><trkpt lat="43.7331433" lon="11.62215"><ele>834.6</ele><time>2026-05-02T14:01:06.04Z</time></trkpt><trkpt lat="43.73309" lon="11.6219983"><ele>837.4</ele><time>2026-05-02T14:01:08.042Z</time></trkpt><trkpt lat="43.733055" lon="11.6219133"><ele>840.2</ele><time>2026-05-02T14:01:09.039Z</time></trkpt><trkpt lat="43.7330183" lon="11.6218117"><ele>843.0</ele><time>2026-05-02T14:01:10.04Z</time></trkpt><trkpt lat="43.7329817" lon="11.6217283"><ele>846.1666666666666</ele><time>2026-05-02T14:01:11.041Z</time></trkpt><trkpt lat="43.7329533" lon="11.62162"><ele>849.3333333333333</ele><time>2026-05-02T14:01:13.041Z</time></trkpt><trkpt lat="43.732985" lon="11.6214533"><ele>852.5</ele><time>2026-05-02T14:01:15.039Z</time></trkpt><trkpt lat="43.7330183" lon="11.6213667"><ele>855.6666666666666</ele><time>2026-05-02T14:01:16.039Z</time></trkpt><trkpt lat="43.7330517" lon="11.6212833"><ele>858.8333333333333</ele><time>2026-05-02T14:01:17.041Z</time></trkpt><trkpt lat="43.733085" lon="11.6212033"><ele>862.0</ele><time>2026-05-02T14:01:18.04Z</time></trkpt><trkpt lat="43.7331133" lon="11.6211233"><ele>864.8</ele><time>2026-05-02T14:01:19.04Z</time></trkpt><trkpt lat="43.73312" lon="11.62099"><ele>867.6</ele><time>2026-05-02T14:01:21.039Z</time></trkpt><trkpt lat="43.7329967" lon="11.6209317"><ele>870.3999999999999</ele><time>2026-05-02T14:01:23.043Z</time></trkpt><trkpt lat="43.7329167" lon="11.620925"><ele>873.1999999999999</ele><time>2026-05-02T14:01:24.04Z</time></trkpt><trkpt lat="43.7328317" lon="11.6209133"><ele>876.0</ele><time>2026-05-02T14:01:25.039Z</time></trkpt><trkpt lat="43.7327467" lon="11.6209033"><ele>877.1666666666666</ele><time>2026-05-02T14:01:26.041Z</time></trkpt><trkpt lat="43.73267" lon="11.6208733"><ele>878.3333333333333</ele><time>2026-05-02T14:01:27.04Z</time></trkpt><trkpt lat="43.7325933" lon="11.620845"><ele>879.5</ele><time>2026-05-02T14:01:28.04Z</time></trkpt><trkpt lat="43.7325233" lon="11.62077"><ele>880.6666666666666</ele><time>2026-05-02T14:01:30.04Z</time></trkpt><trkpt lat="43.732575" lon="11.620645"><ele>881.8333333333333</ele><time>2026-05-02T14:01:32.042Z</time></trkpt><trkpt lat="43.73262" lon="11.6205767"><ele>883.0</ele><time>2026-05-02T14:01:33.039Z</time></trkpt><trkpt lat="43.7326617" lon="11.6205033"><ele>883.0</ele><time>2026-05-02T14:01:34.041Z</time></trkpt><trkpt lat="43.7327067" lon="11.6204317"><ele>883.0</ele><time>2026-05-02T14:01:35.041Z</time></trkpt><trkpt lat="43.732755" lon="11.6203567"><ele>883.0</ele><time>2026-05-02T14:01:36.04Z</time></trkpt><trkpt lat="43.7328017" lon="11.620285"><ele>883.0</ele><time>2026-05-02T14:01:37.041Z</time></trkpt><trkpt lat="43.7328567" lon="11.6201883"><ele>883.0</ele><time>2026-05-02T14:01:38.042Z</time></trkpt><trkpt lat="43.7329" lon="11.6201067"><ele>883.0</ele><time>2026-05-02T14:01:39.039Z</time></trkpt><trkpt lat="43.7329333" lon="11.6200217"><ele>883.0</ele><time>2026-05-02T14:01:40.041Z</time></trkpt><trkpt lat="43.7329617" lon="11.6199267"><ele>884.4</ele><time>2026-05-02T14:01:41.041Z</time></trkpt><trkpt lat="43.7330467" lon="11.6197833"><ele>885.8</ele><time>2026-05-02T14:01:43.043Z</time></trkpt><trkpt lat="43.7330933" lon="11.6197133"><ele>887.2</ele><time>2026-05-02T14:01:44.042Z</time></trkpt><trkpt lat="43.7331467" lon="11.61958"><ele>888.6</ele><time>2026-05-02T14:01:46.041Z</time></trkpt><trkpt lat="43.733145" lon="11.6194167"><ele>890.0</ele><time>2026-05-02T14:01:48.041Z</time></trkpt><trkpt lat="43.7331333" lon="11.6192417"><ele>892.1666666666667</ele><time>2026-05-02T14:01:50.041Z</time></trkpt><trkpt lat="43.7331317" lon="11.61911"><ele>894.3333333333334</ele><time>2026-05-02T14:01:51.039Z</time></trkpt><trkpt lat="43.7331267" lon="11.6190217"><ele>896.5</ele><time>2026-05-02T14:01:52.039Z</time></trkpt><trkpt lat="43.733125" lon="11.618925"><ele>898.6666666666667</ele><time>2026-05-02T14:01:53.04Z</time></trkpt><trkpt lat="43.7331267" lon="11.6188367"><ele>900.8333333333334</ele><time>2026-05-02T14:01:54.039Z</time></trkpt><trkpt lat="43.7331" lon="11.6186767"><ele>903.0</ele><time>2026-05-02T14:01:56.041Z</time></trkpt><trkpt lat="43.7330767" lon="11.6184933"><ele>904.5</ele><time>2026-05-02T14:01:58.04Z</time></trkpt><trkpt lat="43.7330833" lon="11.6183767"><ele>906.0</ele><time>2026-05-02T14:01:59.041Z</time></trkpt><trkpt lat="43.733095" lon="11.6182583"><ele>907.5</ele><time>2026-05-02T14:02:00.04Z</time></trkpt><trkpt lat="43.7331033" lon="11.6181417"><ele>909.0</ele><time>2026-05-02T14:02:01.04Z</time></trkpt><trkpt lat="43.7331067" lon="11.6180083"><ele>910.5</ele><time>2026-05-02T14:02:02.042Z</time></trkpt><trkpt lat="43.733105" lon="11.6178817"><ele>912.0</ele><time>2026-05-02T14:02:03.039Z</time></trkpt><trkpt lat="43.733095" lon="11.61777"><ele>912.6666666666666</ele><time>2026-05-02T14:02:04.04Z</time></trkpt><trkpt lat="43.7331" lon="11.6176567"><ele>913.3333333333333</ele><time>2026-05-02T14:02:05.04Z</time></trkpt><trkpt lat="43.7330783" lon="11.6175683"><ele>914.0</ele><time>2026-05-02T14:02:06.039Z</time></trkpt><trkpt lat="43.733025" lon="11.6175"><ele>914.6666666666666</ele><time>2026-05-02T14:02:08.042Z</time></trkpt><trkpt lat="43.7329533" lon="11.6174833"><ele>915.3333333333333</ele><time>2026-05-02T14:02:50.041Z</time></trkpt><trkpt lat="43.7328767" lon="11.61748"><ele>916.0</ele><time>2026-05-02T14:02:51.044Z</time></trkpt><trkpt lat="43.7327867" lon="11.6174783"><ele>919.3333333333333</ele><time>2026-05-02T14:02:52.039Z</time></trkpt><trkpt lat="43.7327033" lon="11.61747"><ele>922.6666666666666</ele><time>2026-05-02T14:02:53.039Z</time></trkpt><trkpt lat="43.73262" lon="11.6174633"><ele>926.0</ele><time>2026-05-02T14:02:54.039Z</time></trkpt><trkpt lat="43.73255" lon="11.617445"><ele>929.3333333333333</ele><time>2026-05-02T14:02:55.041Z</time></trkpt><trkpt lat="43.7324867" lon="11.6174117"><ele>932.6666666666666</ele><time>2026-05-02T14:02:56.044Z</time></trkpt><trkpt lat="43.7324333" lon="11.617365"><ele>936.0</ele><time>2026-05-02T14:02:57.039Z</time></trkpt><trkpt lat="43.7323333" lon="11.6172517"><ele>936.0</ele><time>2026-05-02T14:02:59.041Z</time></trkpt><trkpt lat="43.7322533" lon="11.6171617"><ele>935.9999999999999</ele><time>2026-05-02T14:03:01.04Z</time></trkpt><trkpt lat="43.7321633" lon="11.6170933"><ele>935.9999999999999</ele><time>2026-05-02T14:03:03.04Z</time></trkpt><trkpt lat="43.7321033" lon="11.617065"><ele>936.0</ele><time>2026-05-02T14:03:04.041Z</time></trkpt><trkpt lat="43.732005" lon="11.616975"><ele>936.0</ele><time>2026-05-02T14:03:06.04Z</time></trkpt><trkpt lat="43.73196" lon="11.6169083"><ele>937.4</ele><time>2026-05-02T14:03:07.041Z</time></trkpt><trkpt lat="43.73192" lon="11.6168333"><ele>938.8</ele><time>2026-05-02T14:03:08.042Z</time></trkpt><trkpt lat="43.7318833" lon="11.6166817"><ele>940.1999999999999</ele><time>2026-05-02T14:03:10.04Z</time></trkpt><trkpt lat="43.7318317" lon="11.6165383"><ele>941.5999999999999</ele><time>2026-05-02T14:03:12.04Z</time></trkpt><trkpt lat="43.731765" lon="11.616425"><ele>943.0</ele><time>2026-05-02T14:03:14.042Z</time></trkpt><trkpt lat="43.7316617" lon="11.6163333"><ele>943.9999999999999</ele><time>2026-05-02T14:03:16.039Z</time></trkpt><trkpt lat="43.7315767" lon="11.6162317"><ele>945.0</ele><time>2026-05-02T14:03:18.039Z</time></trkpt><trkpt lat="43.731555" lon="11.6161167"><ele>946.0</ele><time>2026-05-02T14:03:20.043Z</time></trkpt><trkpt lat="43.731575" lon="11.6159717"><ele>947.0</ele><time>2026-05-02T14:03:22.04Z</time></trkpt><trkpt lat="43.7315767" lon="11.6158833"><ele>947.9999999999999</ele><time>2026-05-02T14:03:23.041Z</time></trkpt><trkpt lat="43.731565" lon="11.61578"><ele>949.0</ele><time>2026-05-02T14:03:24.04Z</time></trkpt><trkpt lat="43.731545" lon="11.6156683"><ele>951.0</ele><time>2026-05-02T14:03:25.041Z</time></trkpt><trkpt lat="43.73154" lon="11.61555"><ele>953.0000000000001</ele><time>2026-05-02T14:03:26.042Z</time></trkpt><trkpt lat="43.731555" lon="11.6154433"><ele>955.0000000000001</ele><time>2026-05-02T14:03:27.04Z</time></trkpt><trkpt lat="43.7315783" lon="11.61534"><ele>957.0</ele><time>2026-05-02T14:03:28.041Z</time></trkpt><trkpt lat="43.731575" lon="11.6151783"><ele>959.0</ele><time>2026-05-02T14:03:30.042Z</time></trkpt><trkpt lat="43.731495" lon="11.6150683"><ele>960.5714285714286</ele><time>2026-05-02T14:03:32.042Z</time></trkpt><trkpt lat="43.7314433" lon="11.6150183"><ele>962.1428571428571</ele><time>2026-05-02T14:03:33.039Z</time></trkpt><trkpt lat="43.731385" lon="11.614955"><ele>963.7142857142858</ele><time>2026-05-02T14:03:34.04Z</time></trkpt><trkpt lat="43.7313233" lon="11.61491"><ele>965.2857142857143</ele><time>2026-05-02T14:03:35.041Z</time></trkpt><trkpt lat="43.731255" lon="11.6148933"><ele>966.8571428571429</ele><time>2026-05-02T14:03:36.04Z</time></trkpt><trkpt lat="43.73119" lon="11.6148717"><ele>968.4285714285716</ele><time>2026-05-02T14:03:37.041Z</time></trkpt><trkpt lat="43.731125" lon="11.6148217"><ele>970.0000000000001</ele><time>2026-05-02T14:03:38.041Z</time></trkpt><trkpt lat="43.73107" lon="11.6147567"><ele>970.4999999999999</ele><time>2026-05-02T14:03:39.039Z</time></trkpt><trkpt lat="43.73103" lon="11.6146733"><ele>971.0</ele><time>2026-05-02T14:03:40.04Z</time></trkpt><trkpt lat="43.730985" lon="11.6145883"><ele>971.5</ele><time>2026-05-02T14:03:41.041Z</time></trkpt><trkpt lat="43.7309317" lon="11.6145017"><ele>972.0</ele><time>2026-05-02T14:03:42.04Z</time></trkpt><trkpt lat="43.7308783" lon="11.6144183"><ele>972.4999999999999</ele><time>2026-05-02T14:03:43.042Z</time></trkpt><trkpt lat="43.73084" lon="11.61431"><ele>973.0</ele><time>2026-05-02T14:03:44.043Z</time></trkpt><trkpt lat="43.7308033" lon="11.6142"><ele>974.7142857142858</ele><time>2026-05-02T14:03:45.039Z</time></trkpt><trkpt lat="43.7307683" lon="11.6140983"><ele>976.4285714285714</ele><time>2026-05-02T14:03:46.041Z</time></trkpt><trkpt lat="43.7307283" lon="11.61401"><ele>978.1428571428571</ele><time>2026-05-02T14:03:47.041Z</time></trkpt><trkpt lat="43.7306917" lon="11.61392"><ele>979.8571428571429</ele><time>2026-05-02T14:03:48.04Z</time></trkpt><trkpt lat="43.7306717" lon="11.6138283"><ele>981.5714285714287</ele><time>2026-05-02T14:03:49.042Z</time></trkpt><trkpt lat="43.730655" lon="11.6137333"><ele>983.2857142857143</ele><time>2026-05-02T14:03:50.042Z</time></trkpt><trkpt lat="43.7306383" lon="11.61364"><ele>985.0</ele><time>2026-05-02T14:03:51.039Z</time></trkpt><trkpt lat="43.7305733" lon="11.6134967"><ele>986.0</ele><time>2026-05-02T14:03:53.042Z</time></trkpt><trkpt lat="43.7305317" lon="11.6134167"><ele>987.0000000000001</ele><time>2026-05-02T14:03:54.041Z</time></trkpt><trkpt lat="43.730495" lon="11.6133283"><ele>988.0</ele><time>2026-05-02T14:03:55.042Z</time></trkpt><trkpt lat="43.73047" lon="11.6132367"><ele>989.0</ele><time>2026-05-02T14:03:56.044Z</time></trkpt><trkpt lat="43.7304267" lon="11.6131633"><ele>990.0000000000001</ele><time>2026-05-02T14:03:57.041Z</time></trkpt><trkpt lat="43.7303817" lon="11.6130833"><ele>991.0</ele><time>2026-05-02T14:03:58.041Z</time></trkpt><trkpt lat="43.7303417" lon="11.6130017"><ele>992.0</ele><time>2026-05-02T14:03:59.043Z</time></trkpt><trkpt lat="43.7303017" lon="11.6129"><ele>993.3333333333334</ele><time>2026-05-02T14:04:00.042Z</time></trkpt><trkpt lat="43.73026" lon="11.6128067"><ele>994.6666666666667</ele><time>2026-05-02T14:04:01.041Z</time></trkpt><trkpt lat="43.7302217" lon="11.6127133"><ele>996.0</ele><time>2026-05-02T14:04:02.043Z</time></trkpt><trkpt lat="43.730175" lon="11.6126217"><ele>997.3333333333333</ele><time>2026-05-02T14:04:03.04Z</time></trkpt><trkpt lat="43.73012" lon="11.6125383"><ele>998.6666666666666</ele><time>2026-05-02T14:04:04.042Z</time></trkpt><trkpt lat="43.73007" lon="11.6124617"><ele>1000.0</ele><time>2026-05-02T14:04:05.043Z</time></trkpt><trkpt lat="43.730035" lon="11.6123783"><ele>1000.4999999999999</ele><time>2026-05-02T14:04:06.042Z</time></trkpt><trkpt lat="43.730005" lon="11.61228"><ele>1001.0</ele><time>2026-05-02T14:04:07.042Z</time></trkpt><trkpt lat="43.72996" lon="11.6121817"><ele>1001.5</ele><time>2026-05-02T14:04:08.044Z</time></trkpt><trkpt lat="43.7299167" lon="11.6120767"><ele>1002.0</ele><time>2026-05-02T14:04:09.041Z</time></trkpt><trkpt lat="43.729875" lon="11.611975"><ele>1002.4999999999999</ele><time>2026-05-02T14:04:10.042Z</time></trkpt><trkpt lat="43.7298483" lon="11.6118733"><ele>1003.0</ele><time>2026-05-02T14:04:11.043Z</time></trkpt><trkpt lat="43.72981" lon="11.6118033"><ele>1006.75</ele><time>2026-05-02T14:04:12.043Z</time></trkpt><trkpt lat="43.7297333" lon="11.6116683"><ele>1010.5</ele><time>2026-05-02T14:04:14.043Z</time></trkpt><trkpt lat="43.7296333" lon="11.61152"><ele>1014.25</ele><time>2026-05-02T14:04:16.044Z</time></trkpt><trkpt lat="43.729565" lon="11.611435"><ele>1018.0</ele><time>2026-05-02T14:04:17.043Z</time></trkpt><trkpt lat="43.7295083" lon="11.6113367"><ele>1017.9999999999999</ele><time>2026-05-02T14:04:18.042Z</time></trkpt><trkpt lat="43.7294583" lon="11.6112267"><ele>1018.0</ele><time>2026-05-02T14:04:19.042Z</time></trkpt><trkpt lat="43.7294183" lon="11.6111167"><ele>1018.0</ele><time>2026-05-02T14:04:20.045Z</time></trkpt><trkpt lat="43.729395" lon="11.6109983"><ele>1018.0</ele><time>2026-05-02T14:04:21.041Z</time></trkpt><trkpt lat="43.7293817" lon="11.61088"><ele>1017.9999999999999</ele><time>2026-05-02T14:04:22.042Z</time></trkpt><trkpt lat="43.7293633" lon="11.6107617"><ele>1018.0</ele><time>2026-05-02T14:04:23.04Z</time></trkpt><trkpt lat="43.7293367" lon="11.6106533"><ele>1017.8333333333333</ele><time>2026-05-02T14:04:24.04Z</time></trkpt><trkpt lat="43.7293" lon="11.6105533"><ele>1017.6666666666666</ele><time>2026-05-02T14:04:25.042Z</time></trkpt><trkpt lat="43.7292467" lon="11.6104683"><ele>1017.5</ele><time>2026-05-02T14:04:26.041Z</time></trkpt><trkpt lat="43.729195" lon="11.61039"><ele>1017.3333333333333</ele><time>2026-05-02T14:04:27.039Z</time></trkpt><trkpt lat="43.72914" lon="11.6102367"><ele>1017.1666666666666</ele><time>2026-05-02T14:04:29.04Z</time></trkpt><trkpt lat="43.7291117" lon="11.6101517"><ele>1017.0</ele><time>2026-05-02T14:04:30.04Z</time></trkpt><trkpt lat="43.7290817" lon="11.6100533"><ele>1017.8333333333334</ele><time>2026-05-02T14:04:31.041Z</time></trkpt><trkpt lat="43.7290483" lon="11.6099517"><ele>1018.6666666666667</ele><time>2026-05-02T14:04:32.043Z</time></trkpt><trkpt lat="43.7290133" lon="11.6098567"><ele>1019.5</ele><time>2026-05-02T14:04:33.038Z</time></trkpt><trkpt lat="43.7289267" lon="11.6097567"><ele>1020.3333333333334</ele><time>2026-05-02T14:04:35.041Z</time></trkpt><trkpt lat="43.7288633" lon="11.6097233"><ele>1021.1666666666667</ele><time>2026-05-02T14:04:36.04Z</time></trkpt><trkpt lat="43.728795" lon="11.6096917"><ele>1022.0</ele><time>2026-05-02T14:04:37.041Z</time></trkpt><trkpt lat="43.7287217" lon="11.6096667"><ele>1022.0000000000001</ele><time>2026-05-02T14:04:38.041Z</time></trkpt><trkpt lat="43.7286367" lon="11.6096433"><ele>1022.0</ele><time>2026-05-02T14:04:39.039Z</time></trkpt><trkpt lat="43.72855" lon="11.6096317"><ele>1022.0</ele><time>2026-05-02T14:04:40.04Z</time></trkpt><trkpt lat="43.7284567" lon="11.6096333"><ele>1022.0</ele><time>2026-05-02T14:04:41.04Z</time></trkpt><trkpt lat="43.7283633" lon="11.60964"><ele>1022.0000000000001</ele><time>2026-05-02T14:04:42.041Z</time></trkpt><trkpt lat="43.72828" lon="11.609655"><ele>1022.0</ele><time>2026-05-02T14:04:43.04Z</time></trkpt><trkpt lat="43.7281933" lon="11.6096683"><ele>1023.0000000000001</ele><time>2026-05-02T14:04:44.041Z</time></trkpt><trkpt lat="43.7281033" lon="11.609685"><ele>1024.0</ele><time>2026-05-02T14:04:45.038Z</time></trkpt><trkpt lat="43.7280167" lon="11.6097167"><ele>1025.0</ele><time>2026-05-02T14:04:46.04Z</time></trkpt><trkpt lat="43.7279283" lon="11.6097467"><ele>1026.0</ele><time>2026-05-02T14:04:47.041Z</time></trkpt><trkpt lat="43.7278433" lon="11.6097833"><ele>1027.0</ele><time>2026-05-02T14:04:48.041Z</time></trkpt><trkpt lat="43.7277583" lon="11.6098167"><ele>1028.0</ele><time>2026-05-02T14:04:49.041Z</time></trkpt><trkpt lat="43.7276833" lon="11.6098467"><ele>1030.3333333333335</ele><time>2026-05-02T14:04:50.042Z</time></trkpt><trkpt lat="43.7276167" lon="11.6098967"><ele>1032.6666666666667</ele><time>2026-05-02T14:04:51.039Z</time></trkpt><trkpt lat="43.7275483" lon="11.60995"><ele>1035.0</ele><time>2026-05-02T14:04:52.04Z</time></trkpt><trkpt lat="43.7274817" lon="11.6100017"><ele>1037.3333333333333</ele><time>2026-05-02T14:04:53.04Z</time></trkpt><trkpt lat="43.727415" lon="11.6100483"><ele>1039.6666666666665</ele><time>2026-05-02T14:04:54.04Z</time></trkpt><trkpt lat="43.727335" lon="11.610085"><ele>1042.0</ele><time>2026-05-02T14:04:55.041Z</time></trkpt><trkpt lat="43.7272467" lon="11.6101167"><ele>1042.0</ele><time>2026-05-02T14:04:56.042Z</time></trkpt><trkpt lat="43.727155" lon="11.610155"><ele>1042.0</ele><time>2026-05-02T14:04:57.04Z</time></trkpt><trkpt lat="43.7270717" lon="11.6101867"><ele>1042.0</ele><time>2026-05-02T14:04:58.04Z</time></trkpt><trkpt lat="43.7270067" lon="11.6101917"><ele>1042.0</ele><time>2026-05-02T14:04:59.04Z</time></trkpt><trkpt lat="43.726935" lon="11.6101233"><ele>1042.0</ele><time>2026-05-02T14:05:01.041Z</time></trkpt><trkpt lat="43.7269517" lon="11.6100067"><ele>1042.0</ele><time>2026-05-02T14:05:03.038Z</time></trkpt><trkpt lat="43.7270217" lon="11.6099483"><ele>1042.0</ele><time>2026-05-02T14:05:08.042Z</time></trkpt><trkpt lat="43.72709" lon="11.609925"><ele>1042.0</ele><time>2026-05-02T14:05:10.039Z</time></trkpt><trkpt lat="43.7271367" lon="11.6098433"><ele>1042.0</ele><time>2026-05-02T14:05:12.03Z</time></trkpt><trkpt lat="43.72717" lon="11.6097017"><ele>1042.0</ele><time>2026-05-02T14:05:14.041Z</time></trkpt><trkpt lat="43.7271867" lon="11.6095483"><ele>1042.0</ele><time>2026-05-02T14:05:16.04Z</time></trkpt><trkpt lat="43.7271533" lon="11.60944"><ele>1046.1666666666665</ele><time>2026-05-02T14:05:18.042Z</time></trkpt><trkpt lat="43.7270467" lon="11.6094117"><ele>1050.3333333333333</ele><time>2026-05-02T14:05:20.042Z</time></trkpt><trkpt lat="43.7269883" lon="11.6093567"><ele>1054.5</ele><time>2026-05-02T14:05:22.03Z</time></trkpt><trkpt lat="43.7269517" lon="11.6092517"><ele>1058.6666666666667</ele><time>2026-05-02T14:05:25.039Z</time></trkpt><trkpt lat="43.7269283" lon="11.6091483"><ele>1062.8333333333335</ele><time>2026-05-02T14:05:27.039Z</time></trkpt><trkpt lat="43.72694" lon="11.6090033"><ele>1067.0</ele><time>2026-05-02T14:05:29.04Z</time></trkpt><trkpt lat="43.7269467" lon="11.6088783"><ele>1067.8</ele><time>2026-05-02T14:05:31.041Z</time></trkpt><trkpt lat="43.726855" lon="11.6087617"><ele>1068.6</ele><time>2026-05-02T14:05:33.042Z</time></trkpt><trkpt lat="43.726785" lon="11.6086467"><ele>1069.3999999999999</ele><time>2026-05-02T14:05:35.04Z</time></trkpt><trkpt lat="43.72674" lon="11.6085317"><ele>1070.2</ele><time>2026-05-02T14:05:37.04Z</time></trkpt><trkpt lat="43.726675" lon="11.608445"><ele>1071.0</ele><time>2026-05-02T14:05:39.039Z</time></trkpt><trkpt lat="43.7265783" lon="11.6083817"><ele>1074.1666666666667</ele><time>2026-05-02T14:05:41.041Z</time></trkpt><trkpt lat="43.72651" lon="11.6082817"><ele>1077.3333333333333</ele><time>2026-05-02T14:05:43.041Z</time></trkpt><trkpt lat="43.7264367" lon="11.6081533"><ele>1080.5</ele><time>2026-05-02T14:05:45.039Z</time></trkpt><trkpt lat="43.726385" lon="11.60809"><ele>1083.6666666666665</ele><time>2026-05-02T14:05:46.04Z</time></trkpt><trkpt lat="43.7263317" lon="11.6080433"><ele>1086.8333333333333</ele><time>2026-05-02T14:05:47.041Z</time></trkpt><trkpt lat="43.726265" lon="11.608005"><ele>1090.0</ele><time>2026-05-02T14:05:48.041Z</time></trkpt><trkpt lat="43.7261917" lon="11.6079783"><ele>1090.0</ele><time>2026-05-02T14:05:49.042Z</time></trkpt><trkpt lat="43.72612" lon="11.6079683"><ele>1090.0</ele><time>2026-05-02T14:05:50.043Z</time></trkpt><trkpt lat="43.7260517" lon="11.6079717"><ele>1090.0</ele><time>2026-05-02T14:05:51.041Z</time></trkpt><trkpt lat="43.7259833" lon="11.6079867"><ele>1090.0</ele><time>2026-05-02T14:05:52.041Z</time></trkpt><trkpt lat="43.7259167" lon="11.6080083"><ele>1090.0</ele><time>2026-05-02T14:05:53.04Z</time></trkpt><trkpt lat="43.7258483" lon="11.6080367"><ele>1090.0</ele><time>2026-05-02T14:05:54.043Z</time></trkpt><trkpt lat="43.72577" lon="11.6080683"><ele>1090.0</ele><time>2026-05-02T14:05:55.041Z</time></trkpt><trkpt lat="43.7257033" lon="11.6080933"><ele>1092.0</ele><time>2026-05-02T14:05:56.043Z</time></trkpt><trkpt lat="43.7256383" lon="11.6081167"><ele>1094.0</ele><time>2026-05-02T14:05:57.04Z</time></trkpt><trkpt lat="43.7255617" lon="11.6081283"><ele>1096.0</ele><time>2026-05-02T14:06:00.04Z</time></trkpt><trkpt lat="43.72555" lon="11.6080183"><ele>1098.0</ele><time>2026-05-02T14:06:02.042Z</time></trkpt><trkpt lat="43.7255517" lon="11.60792"><ele>1100.0</ele><time>2026-05-02T14:06:03.039Z</time></trkpt><trkpt lat="43.7255617" lon="11.6077933"><ele>1102.0</ele><time>2026-05-02T14:06:04.04Z</time></trkpt><trkpt lat="43.72556" lon="11.6076467"><ele>1104.3333333333333</ele><time>2026-05-02T14:06:05.041Z</time></trkpt><trkpt lat="43.725565" lon="11.60753"><ele>1106.6666666666665</ele><time>2026-05-02T14:06:06.042Z</time></trkpt><trkpt lat="43.72558" lon="11.6074117"><ele>1109.0</ele><time>2026-05-02T14:06:07.041Z</time></trkpt><trkpt lat="43.725595" lon="11.6073067"><ele>1111.3333333333333</ele><time>2026-05-02T14:06:08.042Z</time></trkpt><trkpt lat="43.72558" lon="11.607155"><ele>1113.6666666666667</ele><time>2026-05-02T14:06:10.041Z</time></trkpt><trkpt lat="43.7255217" lon="11.60708"><ele>1116.0</ele><time>2026-05-02T14:06:56.042Z</time></trkpt><trkpt lat="43.72562" lon="11.6071417"><ele>1116.0</ele><time>2026-05-02T14:07:13.04Z</time></trkpt><trkpt lat="43.7256717" lon="11.607055"><ele>1116.0</ele><time>2026-05-02T14:07:19.039Z</time></trkpt><trkpt lat="43.72569" lon="11.6069583"><ele>1116.0</ele><time>2026-05-02T14:07:21.038Z</time></trkpt><trkpt lat="43.725715" lon="11.6068267"><ele>1116.0</ele><time>2026-05-02T14:07:23.042Z</time></trkpt><trkpt lat="43.7257167" lon="11.606685"><ele>1116.0</ele><time>2026-05-02T14:07:25.041Z</time></trkpt><trkpt lat="43.7257417" lon="11.60652"><ele>1118.5</ele><time>2026-05-02T14:07:27.039Z</time></trkpt><trkpt lat="43.7257583" lon="11.6064317"><ele>1121.0</ele><time>2026-05-02T14:07:28.041Z</time></trkpt><trkpt lat="43.7257833" lon="11.606335"><ele>1123.5</ele><time>2026-05-02T14:07:29.041Z</time></trkpt><trkpt lat="43.7258133" lon="11.6062483"><ele>1126.0</ele><time>2026-05-02T14:07:30.041Z</time></trkpt><trkpt lat="43.7258483" lon="11.6060917"><ele>1128.5</ele><time>2026-05-02T14:07:32.043Z</time></trkpt><trkpt lat="43.7258683" lon="11.605955"><ele>1131.0</ele><time>2026-05-02T14:07:34.04Z</time></trkpt><trkpt lat="43.725905" lon="11.605825"><ele>1133.3333333333333</ele><time>2026-05-02T14:07:36.04Z</time></trkpt><trkpt lat="43.7259517" lon="11.6056733"><ele>1135.6666666666667</ele><time>2026-05-02T14:07:38.042Z</time></trkpt><trkpt lat="43.7259867" lon="11.6055867"><ele>1138.0</ele><time>2026-05-02T14:07:39.04Z</time></trkpt><trkpt lat="43.72601" lon="11.6055033"><ele>1140.3333333333335</ele><time>2026-05-02T14:07:40.041Z</time></trkpt><trkpt lat="43.7260067" lon="11.6053433"><ele>1142.6666666666667</ele><time>2026-05-02T14:07:42.038Z</time></trkpt><trkpt lat="43.7259917" lon="11.6052533"><ele>1145.0</ele><time>2026-05-02T14:07:43.041Z</time></trkpt><trkpt lat="43.7259683" lon="11.6050717"><ele>1146.8333333333335</ele><time>2026-05-02T14:07:45.04Z</time></trkpt><trkpt lat="43.72596" lon="11.6049717"><ele>1148.6666666666667</ele><time>2026-05-02T14:07:46.041Z</time></trkpt><trkpt lat="43.725955" lon="11.6048583"><ele>1150.5</ele><time>2026-05-02T14:07:47.041Z</time></trkpt><trkpt lat="43.7259383" lon="11.6047433"><ele>1152.3333333333333</ele><time>2026-05-02T14:07:48.041Z</time></trkpt><trkpt lat="43.725925" lon="11.6046217"><ele>1154.1666666666665</ele><time>2026-05-02T14:07:49.041Z</time></trkpt><trkpt lat="43.725915" lon="11.604505"><ele>1156.0</ele><time>2026-05-02T14:07:50.043Z</time></trkpt><trkpt lat="43.7259" lon="11.60439"><ele>1157.5</ele><time>2026-05-02T14:07:51.041Z</time></trkpt><trkpt lat="43.725885" lon="11.6042833"><ele>1159.0</ele><time>2026-05-02T14:07:52.039Z</time></trkpt><trkpt lat="43.7258667" lon="11.6041967"><ele>1160.5</ele><time>2026-05-02T14:07:53.041Z</time></trkpt><trkpt lat="43.7258383" lon="11.6041"><ele>1162.0</ele><time>2026-05-02T14:07:54.04Z</time></trkpt><trkpt lat="43.7258067" lon="11.6040017"><ele>1163.5</ele><time>2026-05-02T14:07:55.04Z</time></trkpt><trkpt lat="43.725775" lon="11.6038983"><ele>1165.0</ele><time>2026-05-02T14:07:56.042Z</time></trkpt><trkpt lat="43.725735" lon="11.60381"><ele>1165.0</ele><time>2026-05-02T14:07:57.039Z</time></trkpt><trkpt lat="43.725705" lon="11.603705"><ele>1165.0</ele><time>2026-05-02T14:07:58.04Z</time></trkpt><trkpt lat="43.72567" lon="11.60361"><ele>1165.0</ele><time>2026-05-02T14:07:59.043Z</time></trkpt><trkpt lat="43.725645" lon="11.6035133"><ele>1165.0</ele><time>2026-05-02T14:08:00.041Z</time></trkpt><trkpt lat="43.72563" lon="11.6034283"><ele>1165.0</ele><time>2026-05-02T14:08:01.041Z</time></trkpt><trkpt lat="43.7256467" lon="11.60324"><ele>1165.0</ele><time>2026-05-02T14:08:03.041Z</time></trkpt><trkpt lat="43.72565" lon="11.60314"><ele>1166.3333333333333</ele><time>2026-05-02T14:08:04.04Z</time></trkpt><trkpt lat="43.7256383" lon="11.6030383"><ele>1167.6666666666665</ele><time>2026-05-02T14:08:05.042Z</time></trkpt><trkpt lat="43.725615" lon="11.6029217"><ele>1169.0</ele><time>2026-05-02T14:08:06.042Z</time></trkpt><trkpt lat="43.7255833" lon="11.60279"><ele>1170.3333333333333</ele><time>2026-05-02T14:08:07.041Z</time></trkpt><trkpt lat="43.725555" lon="11.602675"><ele>1171.6666666666667</ele><time>2026-05-02T14:08:08.044Z</time></trkpt><trkpt lat="43.725535" lon="11.60256"><ele>1173.0</ele><time>2026-05-02T14:08:09.039Z</time></trkpt><trkpt lat="43.725515" lon="11.6024667"><ele>1175.2</ele><time>2026-05-02T14:08:10.039Z</time></trkpt><trkpt lat="43.7254817" lon="11.602305"><ele>1177.4</ele><time>2026-05-02T14:08:12.04Z</time></trkpt><trkpt lat="43.7254317" lon="11.6021633"><ele>1179.6000000000001</ele><time>2026-05-02T14:08:14.043Z</time></trkpt><trkpt lat="43.725375" lon="11.6020367"><ele>1181.8</ele><time>2026-05-02T14:08:16.039Z</time></trkpt><trkpt lat="43.7253317" lon="11.601965"><ele>1184.0</ele><time>2026-05-02T14:08:17.04Z</time></trkpt><trkpt lat="43.725295" lon="11.6018933"><ele>1185.8333333333335</ele><time>2026-05-02T14:08:18.039Z</time></trkpt><trkpt lat="43.7252467" lon="11.60174"><ele>1187.6666666666667</ele><time>2026-05-02T14:08:20.042Z</time></trkpt><trkpt lat="43.7252183" lon="11.6016567"><ele>1189.5</ele><time>2026-05-02T14:08:21.04Z</time></trkpt><trkpt lat="43.7251883" lon="11.6015767"><ele>1191.3333333333333</ele><time>2026-05-02T14:08:22.04Z</time></trkpt><trkpt lat="43.72516" lon="11.6014917"><ele>1193.1666666666665</ele><time>2026-05-02T14:08:23.04Z</time></trkpt><trkpt lat="43.725145" lon="11.601405"><ele>1195.0</ele><time>2026-05-02T14:08:24.039Z</time></trkpt><trkpt lat="43.725105" lon="11.6012517"><ele>1201.1666666666665</ele><time>2026-05-02T14:08:26.042Z</time></trkpt><trkpt lat="43.72503" lon="11.6011633"><ele>1207.3333333333333</ele><time>2026-05-02T14:08:28.039Z</time></trkpt><trkpt lat="43.7249433" lon="11.6011383"><ele>1213.5</ele><time>2026-05-02T14:08:30.042Z</time></trkpt><trkpt lat="43.7248467" lon="11.6010833"><ele>1219.6666666666667</ele><time>2026-05-02T14:08:32.044Z</time></trkpt><trkpt lat="43.7247817" lon="11.6010383"><ele>1225.8333333333335</ele><time>2026-05-02T14:08:33.041Z</time></trkpt><trkpt lat="43.7247217" lon="11.600995"><ele>1232.0</ele><time>2026-05-02T14:08:34.04Z</time></trkpt><trkpt lat="43.7246633" lon="11.6009483"><ele>1232.0</ele><time>2026-05-02T14:08:35.04Z</time></trkpt><trkpt lat="43.7246067" lon="11.60089"><ele>1232.0</ele><time>2026-05-02T14:08:36.039Z</time></trkpt><trkpt lat="43.724555" lon="11.6008283"><ele>1232.0</ele><time>2026-05-02T14:08:37.04Z</time></trkpt><trkpt lat="43.724505" lon="11.60076"><ele>1232.0</ele><time>2026-05-02T14:08:38.043Z</time></trkpt><trkpt lat="43.7244567" lon="11.6006817"><ele>1232.0</ele><time>2026-05-02T14:08:39.038Z</time></trkpt><trkpt lat="43.7244083" lon="11.6006067"><ele>1232.0</ele><time>2026-05-02T14:08:40.041Z</time></trkpt><trkpt lat="43.7243633" lon="11.60052"><ele>1232.0</ele><time>2026-05-02T14:08:41.041Z</time></trkpt><trkpt lat="43.7243283" lon="11.6003583"><ele>1237.4</ele><time>2026-05-02T14:08:43.04Z</time></trkpt><trkpt lat="43.7242667" lon="11.6001967"><ele>1242.8000000000002</ele><time>2026-05-02T14:08:45.04Z</time></trkpt><trkpt lat="43.724215" lon="11.6001067"><ele>1248.2</ele><time>2026-05-02T14:08:46.039Z</time></trkpt><trkpt lat="43.7241617" lon="11.60002"><ele>1253.6000000000001</ele><time>2026-05-02T14:08:47.041Z</time></trkpt><trkpt lat="43.7241" lon="11.5999433"><ele>1259.0</ele><time>2026-05-02T14:08:48.042Z</time></trkpt><trkpt lat="43.7240317" lon="11.5998867"><ele>1259.0</ele><time>2026-05-02T14:08:49.041Z</time></trkpt><trkpt lat="43.7239517" lon="11.5998283"><ele>1259.0</ele><time>2026-05-02T14:08:50.042Z</time></trkpt><trkpt lat="43.7238733" lon="11.5997617"><ele>1259.0</ele><time>2026-05-02T14:08:51.039Z</time></trkpt><trkpt lat="43.723805" lon="11.5996867"><ele>1259.0</ele><time>2026-05-02T14:08:52.04Z</time></trkpt><trkpt lat="43.723745" lon="11.5995967"><ele>1259.0</ele><time>2026-05-02T14:08:53.04Z</time></trkpt><trkpt lat="43.7236983" lon="11.599495"><ele>1259.0</ele><time>2026-05-02T14:08:54.04Z</time></trkpt><trkpt lat="43.7236517" lon="11.5993917"><ele>1261.3333333333335</ele><time>2026-05-02T14:08:55.039Z</time></trkpt><trkpt lat="43.7236067" lon="11.5992833"><ele>1263.6666666666667</ele><time>2026-05-02T14:08:56.042Z</time></trkpt><trkpt lat="43.7235683" lon="11.5991833"><ele>1266.0</ele><time>2026-05-02T14:08:57.039Z</time></trkpt><trkpt lat="43.7235383" lon="11.599105"><ele>1268.3333333333333</ele><time>2026-05-02T14:08:58.039Z</time></trkpt><trkpt lat="43.723505" lon="11.598975"><ele>1270.6666666666665</ele><time>2026-05-02T14:09:00.04Z</time></trkpt><trkpt lat="43.72347" lon="11.5988383"><ele>1273.0</ele><time>2026-05-02T14:09:02.042Z</time></trkpt><trkpt lat="43.7234167" lon="11.598725"><ele>1275.6666666666665</ele><time>2026-05-02T14:09:04.04Z</time></trkpt><trkpt lat="43.72338" lon="11.5986383"><ele>1278.3333333333333</ele><time>2026-05-02T14:09:05.042Z</time></trkpt><trkpt lat="43.723335" lon="11.5985467"><ele>1281.0</ele><time>2026-05-02T14:09:06.04Z</time></trkpt><trkpt lat="43.7232933" lon="11.598455"><ele>1283.6666666666667</ele><time>2026-05-02T14:09:07.042Z</time></trkpt><trkpt lat="43.7232467" lon="11.5983467"><ele>1286.3333333333335</ele><time>2026-05-02T14:09:08.042Z</time></trkpt><trkpt lat="43.723205" lon="11.5982433"><ele>1289.0</ele><time>2026-05-02T14:09:09.039Z</time></trkpt><trkpt lat="43.7231667" lon="11.5981467"><ele>1289.0</ele><time>2026-05-02T14:09:10.041Z</time></trkpt><trkpt lat="43.72314" lon="11.5980583"><ele>1289.0</ele><time>2026-05-02T14:09:11.043Z</time></trkpt><trkpt lat="43.7230967" lon="11.597905"><ele>1289.0</ele><time>2026-05-02T14:09:13.042Z</time></trkpt><trkpt lat="43.723025" lon="11.5977633"><ele>1289.0</ele><time>2026-05-02T14:09:15.039Z</time></trkpt><trkpt lat="43.722945" lon="11.5976583"><ele>1289.0</ele><time>2026-05-02T14:09:17.04Z</time></trkpt><trkpt lat="43.722895" lon="11.59754"><ele>1291.8000000000002</ele><time>2026-05-02T14:09:19.04Z</time></trkpt><trkpt lat="43.7228317" lon="11.5973683"><ele>1294.6000000000001</ele><time>2026-05-02T14:09:21.039Z</time></trkpt><trkpt lat="43.72278" lon="11.59727"><ele>1297.4</ele><time>2026-05-02T14:09:22.041Z</time></trkpt><trkpt lat="43.7227333" lon="11.5971883"><ele>1300.2</ele><time>2026-05-02T14:09:23.04Z</time></trkpt><trkpt lat="43.7226767" lon="11.59711"><ele>1303.0</ele><time>2026-05-02T14:09:24.03Z</time></trkpt><trkpt lat="43.722615" lon="11.5970333"><ele>1306.3333333333333</ele><time>2026-05-02T14:09:25.041Z</time></trkpt><trkpt lat="43.722555" lon="11.5969517"><ele>1309.6666666666665</ele><time>2026-05-02T14:09:26.042Z</time></trkpt><trkpt lat="43.7225067" lon="11.5968717"><ele>1313.0</ele><time>2026-05-02T14:09:27.04Z</time></trkpt><trkpt lat="43.7224733" lon="11.5967917"><ele>1316.3333333333333</ele><time>2026-05-02T14:09:28.04Z</time></trkpt><trkpt lat="43.7224533" lon="11.5967067"><ele>1319.6666666666667</ele><time>2026-05-02T14:09:29.039Z</time></trkpt><trkpt lat="43.72243" lon="11.596565"><ele>1323.0</ele><time>2026-05-02T14:09:31.041Z</time></trkpt><trkpt lat="43.722415" lon="11.596405"><ele>1323.0</ele><time>2026-05-02T14:09:33.04Z</time></trkpt><trkpt lat="43.7224133" lon="11.5963033"><ele>1323.0</ele><time>2026-05-02T14:09:34.04Z</time></trkpt><trkpt lat="43.7223817" lon="11.596135"><ele>1323.0</ele><time>2026-05-02T14:09:36.039Z</time></trkpt><trkpt lat="43.7223433" lon="11.5960583"><ele>1323.0</ele><time>2026-05-02T14:09:37.038Z</time></trkpt><trkpt lat="43.7222883" lon="11.5959883"><ele>1323.0</ele><time>2026-05-02T14:09:38.04Z</time></trkpt><trkpt lat="43.7222367" lon="11.5959133"><ele>1323.0</ele><time>2026-05-02T14:09:39.039Z</time></trkpt><trkpt lat="43.722195" lon="11.5958467"><ele>1325.2</ele><time>2026-05-02T14:09:40.043Z</time></trkpt><trkpt lat="43.7221633" lon="11.5957683"><ele>1327.4</ele><time>2026-05-02T14:09:41.039Z</time></trkpt><trkpt lat="43.72209" lon="11.5956033"><ele>1329.6000000000001</ele><time>2026-05-02T14:09:43.039Z</time></trkpt><trkpt lat="43.7220533" lon="11.5955033"><ele>1331.8000000000002</ele><time>2026-05-02T14:09:44.042Z</time></trkpt><trkpt lat="43.7220083" lon="11.5953767"><ele>1334.0</ele><time>2026-05-02T14:09:45.039Z</time></trkpt><trkpt lat="43.7219533" lon="11.5952433"><ele>1336.0</ele><time>2026-05-02T14:09:46.04Z</time></trkpt><trkpt lat="43.7218967" lon="11.595115"><ele>1338.0</ele><time>2026-05-02T14:09:47.041Z</time></trkpt><trkpt lat="43.72184" lon="11.5949983"><ele>1340.0</ele><time>2026-05-02T14:09:48.041Z</time></trkpt><trkpt lat="43.721785" lon="11.5948967"><ele>1342.0</ele><time>2026-05-02T14:09:49.04Z</time></trkpt><trkpt lat="43.7217317" lon="11.5948067"><ele>1344.0</ele><time>2026-05-02T14:09:50.041Z</time></trkpt><trkpt lat="43.7216683" lon="11.5947517"><ele>1344.0</ele><time>2026-05-02T14:09:51.04Z</time></trkpt><trkpt lat="43.7216033" lon="11.59471"><ele>1344.0</ele><time>2026-05-02T14:09:52.04Z</time></trkpt><trkpt lat="43.721525" lon="11.5946583"><ele>1344.0</ele><time>2026-05-02T14:09:53.041Z</time></trkpt><trkpt lat="43.72145" lon="11.5946033"><ele>1344.0</ele><time>2026-05-02T14:09:54.039Z</time></trkpt><trkpt lat="43.721385" lon="11.5945333"><ele>1344.0</ele><time>2026-05-02T14:09:55.039Z</time></trkpt><trkpt lat="43.7213267" lon="11.5944617"><ele>1344.0</ele><time>2026-05-02T14:09:56.041Z</time></trkpt><trkpt lat="43.7212617" lon="11.5943767"><ele>1345.8000000000002</ele><time>2026-05-02T14:09:57.04Z</time></trkpt><trkpt lat="43.7211983" lon="11.59428"><ele>1347.6000000000001</ele><time>2026-05-02T14:09:58.039Z</time></trkpt><trkpt lat="43.7211217" lon="11.5941933"><ele>1349.4</ele><time>2026-05-02T14:09:59.039Z</time></trkpt><trkpt lat="43.7210483" lon="11.594095"><ele>1351.2</ele><time>2026-05-02T14:10:00.039Z</time></trkpt><trkpt lat="43.72098" lon="11.5939933"><ele>1353.0</ele><time>2026-05-02T14:10:01.04Z</time></trkpt><trkpt lat="43.7209033" lon="11.593905"><ele>1354.6000000000001</ele><time>2026-05-02T14:10:02.041Z</time></trkpt><trkpt lat="43.7208383" lon="11.5938283"><ele>1356.2</ele><time>2026-05-02T14:10:03.039Z</time></trkpt><trkpt lat="43.7207767" lon="11.5937417"><ele>1357.8</ele><time>2026-05-02T14:10:04.039Z</time></trkpt><trkpt lat="43.7207167" lon="11.59363"><ele>1359.4</ele><time>2026-05-02T14:10:05.039Z</time></trkpt><trkpt lat="43.720665" lon="11.5935117"><ele>1361.0</ele><time>2026-05-02T14:10:06.039Z</time></trkpt><trkpt lat="43.720615" lon="11.5934017"><ele>1362.6666666666667</ele><time>2026-05-02T14:10:07.04Z</time></trkpt><trkpt lat="43.7205767" lon="11.5932917"><ele>1364.3333333333335</ele><time>2026-05-02T14:10:08.042Z</time></trkpt><trkpt lat="43.720545" lon="11.593175"><ele>1366.0</ele><time>2026-05-02T14:10:09.04Z</time></trkpt><trkpt lat="43.720505" lon="11.5930717"><ele>1367.6666666666667</ele><time>2026-05-02T14:10:10.041Z</time></trkpt><trkpt lat="43.720445" lon="11.59299"><ele>1369.3333333333333</ele><time>2026-05-02T14:10:11.039Z</time></trkpt><trkpt lat="43.7203717" lon="11.592935"><ele>1371.0</ele><time>2026-05-02T14:10:12.039Z</time></trkpt><trkpt lat="43.7202933" lon="11.592905"><ele>1371.6666666666667</ele><time>2026-05-02T14:10:13.041Z</time></trkpt><trkpt lat="43.7202167" lon="11.5929"><ele>1372.3333333333333</ele><time>2026-05-02T14:10:14.042Z</time></trkpt><trkpt lat="43.7201367" lon="11.5928867"><ele>1373.0</ele><time>2026-05-02T14:10:15.039Z</time></trkpt><trkpt lat="43.7200533" lon="11.5928533"><ele>1373.6666666666665</ele><time>2026-05-02T14:10:16.04Z</time></trkpt><trkpt lat="43.7199817" lon="11.5927933"><ele>1374.3333333333333</ele><time>2026-05-02T14:10:17.04Z</time></trkpt><trkpt lat="43.7199367" lon="11.59273"><ele>1375.0</ele><time>2026-05-02T14:10:18.039Z</time></trkpt><trkpt lat="43.719945" lon="11.5926083"><ele>1377.0</ele><time>2026-05-02T14:10:20.041Z</time></trkpt><trkpt lat="43.7199883" lon="11.5925433"><ele>1379.0</ele><time>2026-05-02T14:10:22.04Z</time></trkpt><trkpt lat="43.7200383" lon="11.5926067"><ele>1381.0</ele><time>2026-05-02T14:18:28.04Z</time></trkpt><trkpt lat="43.7199383" lon="11.59263"><ele>1383.0</ele><time>2026-05-02T14:18:32.041Z</time></trkpt><trkpt lat="43.7198217" lon="11.5926"><ele>1385.0</ele><time>2026-05-02T14:18:34.04Z</time></trkpt><trkpt lat="43.71975" lon="11.59259"><ele>1387.0</ele><time>2026-05-02T14:18:35.04Z</time></trkpt><trkpt lat="43.7196717" lon="11.5925617"><ele>1387.0</ele><time>2026-05-02T14:18:36.04Z</time></trkpt><trkpt lat="43.7195833" lon="11.592535"><ele>1387.0</ele><time>2026-05-02T14:18:37.039Z</time></trkpt><trkpt lat="43.71952" lon="11.5924883"><ele>1387.0</ele><time>2026-05-02T14:18:38.042Z</time></trkpt><trkpt lat="43.7194883" lon="11.5924067"><ele>1387.0</ele><time>2026-05-02T14:18:40.039Z</time></trkpt><trkpt lat="43.7195483" lon="11.5922967"><ele>1387.0</ele><time>2026-05-02T14:18:42.039Z</time></trkpt><trkpt lat="43.7195933" lon="11.592215"><ele>1387.0</ele><time>2026-05-02T14:18:43.04Z</time></trkpt><trkpt lat="43.7196233" lon="11.5921167"><ele>1387.0</ele><time>2026-05-02T14:18:44.041Z</time></trkpt><trkpt lat="43.7196283" lon="11.5920083"><ele>1387.0</ele><time>2026-05-02T14:18:45.039Z</time></trkpt><trkpt lat="43.7196317" lon="11.5918883"><ele>1387.0</ele><time>2026-05-02T14:18:46.039Z</time></trkpt><trkpt lat="43.7195983" lon="11.591755"><ele>1387.0</ele><time>2026-05-02T14:18:47.04Z</time></trkpt><trkpt lat="43.7195733" lon="11.5916067"><ele>1387.0</ele><time>2026-05-02T14:18:48.039Z</time></trkpt><trkpt lat="43.7195333" lon="11.5914517"><ele>1386.5</ele><time>2026-05-02T14:18:49.04Z</time></trkpt><trkpt lat="43.7195133" lon="11.5912867"><ele>1386.0</ele><time>2026-05-02T14:18:50.041Z</time></trkpt><trkpt lat="43.7194733" lon="11.5911167"><ele>1385.5</ele><time>2026-05-02T14:18:51.039Z</time></trkpt><trkpt lat="43.7194367" lon="11.590945"><ele>1385.0</ele><time>2026-05-02T14:18:52.04Z</time></trkpt><trkpt lat="43.7194067" lon="11.590775"><ele>1391.75</ele><time>2026-05-02T14:18:53.039Z</time></trkpt><trkpt lat="43.7193767" lon="11.5906133"><ele>1398.5</ele><time>2026-05-02T14:18:54.04Z</time></trkpt><trkpt lat="43.7193483" lon="11.5904567"><ele>1405.25</ele><time>2026-05-02T14:18:55.039Z</time></trkpt><trkpt lat="43.7193133" lon="11.5903"><ele>1412.0</ele><time>2026-05-02T14:18:56.041Z</time></trkpt><trkpt lat="43.71928" lon="11.5901467"><ele>1412.5</ele><time>2026-05-02T14:18:57.039Z</time></trkpt><trkpt lat="43.7192483" lon="11.5899967"><ele>1413.0</ele><time>2026-05-02T14:18:58.039Z</time></trkpt><trkpt lat="43.7191933" lon="11.58986"><ele>1413.5</ele><time>2026-05-02T14:18:59.039Z</time></trkpt><trkpt lat="43.719145" lon="11.5897217"><ele>1414.0</ele><time>2026-05-02T14:19:00.04Z</time></trkpt><trkpt lat="43.71909" lon="11.589585"><ele>1413.0</ele><time>2026-05-02T14:19:01.041Z</time></trkpt><trkpt lat="43.7190317" lon="11.589435"><ele>1412.0</ele><time>2026-05-02T14:19:02.042Z</time></trkpt><trkpt lat="43.71897" lon="11.5892767"><ele>1411.0</ele><time>2026-05-02T14:19:03.039Z</time></trkpt><trkpt lat="43.7188933" lon="11.589135"><ele>1410.0</ele><time>2026-05-02T14:19:04.039Z</time></trkpt><trkpt lat="43.71883" lon="11.589"><ele>1410.0</ele><time>2026-05-02T14:19:05.039Z</time></trkpt><trkpt lat="43.7187817" lon="11.588875"><ele>1410.0</ele><time>2026-05-02T14:19:06.039Z</time></trkpt><trkpt lat="43.7187617" lon="11.588745"><ele>1410.0</ele><time>2026-05-02T14:19:07.039Z</time></trkpt><trkpt lat="43.71877" lon="11.5886167"><ele>1410.0</ele><time>2026-05-02T14:19:08.042Z</time></trkpt><trkpt lat="43.718805" lon="11.58849"><ele>1410.0</ele><time>2026-05-02T14:19:09.04Z</time></trkpt><trkpt lat="43.718865" lon="11.58837"><ele>1411.2</ele><time>2026-05-02T14:19:10.04Z</time></trkpt><trkpt lat="43.7189133" lon="11.5882283"><ele>1412.4</ele><time>2026-05-02T14:19:11.039Z</time></trkpt><trkpt lat="43.7189717" lon="11.5880967"><ele>1413.6</ele><time>2026-05-02T14:19:12.04Z</time></trkpt><trkpt lat="43.719025" lon="11.5879733"><ele>1414.8</ele><time>2026-05-02T14:19:13.04Z</time></trkpt><trkpt lat="43.7190583" lon="11.587855"><ele>1416.0</ele><time>2026-05-02T14:19:14.042Z</time></trkpt><trkpt lat="43.719055" lon="11.5877333"><ele>1417.0</ele><time>2026-05-02T14:19:15.041Z</time></trkpt><trkpt lat="43.719035" lon="11.5876067"><ele>1418.0</ele><time>2026-05-02T14:19:16.04Z</time></trkpt><trkpt lat="43.718995" lon="11.58747"><ele>1419.0</ele><time>2026-05-02T14:19:17.041Z</time></trkpt><trkpt lat="43.7189433" lon="11.5873367"><ele>1420.0</ele><time>2026-05-02T14:19:18.04Z</time></trkpt><trkpt lat="43.7189033" lon="11.587195"><ele>1421.0</ele><time>2026-05-02T14:19:19.039Z</time></trkpt><trkpt lat="43.7188533" lon="11.5870567"><ele>1422.4</ele><time>2026-05-02T14:19:20.042Z</time></trkpt><trkpt lat="43.7187867" lon="11.5869333"><ele>1423.8</ele><time>2026-05-02T14:19:21.039Z</time></trkpt><trkpt lat="43.7187533" lon="11.586795"><ele>1425.2</ele><time>2026-05-02T14:19:22.039Z</time></trkpt><trkpt lat="43.71872" lon="11.586675"><ele>1426.6000000000001</ele><time>2026-05-02T14:19:23.042Z</time></trkpt><trkpt lat="43.7187233" lon="11.5865533"><ele>1428.0</ele><time>2026-05-02T14:19:24.043Z</time></trkpt><trkpt lat="43.7187517" lon="11.58643"><ele>1428.0</ele><time>2026-05-02T14:19:25.046Z</time></trkpt><trkpt lat="43.7187967" lon="11.5863033"><ele>1428.0</ele><time>2026-05-02T14:19:26.044Z</time></trkpt><trkpt lat="43.7188633" lon="11.5862017"><ele>1428.0</ele><time>2026-05-02T14:19:27.04Z</time></trkpt><trkpt lat="43.7189483" lon="11.58612"><ele>1428.0</ele><time>2026-05-02T14:19:28.041Z</time></trkpt><trkpt lat="43.71905" lon="11.58606"><ele>1428.0</ele><time>2026-05-02T14:19:29.042Z</time></trkpt><trkpt lat="43.71916" lon="11.5860117"><ele>1431.0</ele><time>2026-05-02T14:19:30.042Z</time></trkpt><trkpt lat="43.71926" lon="11.5859367"><ele>1434.0</ele><time>2026-05-02T14:19:31.042Z</time></trkpt><trkpt lat="43.7193683" lon="11.5858583"><ele>1437.0</ele><time>2026-05-02T14:19:32.043Z</time></trkpt><trkpt lat="43.719475" lon="11.585785"><ele>1440.0</ele><time>2026-05-02T14:19:33.04Z</time></trkpt><trkpt lat="43.7195817" lon="11.58572"><ele>1440.0</ele><time>2026-05-02T14:19:34.043Z</time></trkpt><trkpt lat="43.7196867" lon="11.5856767"><ele>1440.0</ele><time>2026-05-02T14:19:35.041Z</time></trkpt><trkpt lat="43.7198017" lon="11.58565"><ele>1440.0</ele><time>2026-05-02T14:19:36.041Z</time></trkpt><trkpt lat="43.7199183" lon="11.5856467"><ele>1440.0</ele><time>2026-05-02T14:19:37.043Z</time></trkpt><trkpt lat="43.7200267" lon="11.5856267"><ele>1440.0</ele><time>2026-05-02T14:19:38.045Z</time></trkpt><trkpt lat="43.7201217" lon="11.5855883"><ele>1440.0</ele><time>2026-05-02T14:19:39.041Z</time></trkpt><trkpt lat="43.7201967" lon="11.5855233"><ele>1440.0</ele><time>2026-05-02T14:19:40.042Z</time></trkpt><trkpt lat="43.72025" lon="11.5854367"><ele>1440.0</ele><time>2026-05-02T14:19:41.042Z</time></trkpt><trkpt lat="43.720285" lon="11.5853367"><ele>1440.0</ele><time>2026-05-02T14:19:42.042Z</time></trkpt><trkpt lat="43.7202983" lon="11.5852117"><ele>1440.0</ele><time>2026-05-02T14:19:43.043Z</time></trkpt><trkpt lat="43.7203" lon="11.585075"><ele>1438.6</ele><time>2026-05-02T14:19:44.043Z</time></trkpt><trkpt lat="43.7202883" lon="11.5849383"><ele>1437.2</ele><time>2026-05-02T14:19:45.04Z</time></trkpt><trkpt lat="43.7202717" lon="11.584795"><ele>1435.8000000000002</ele><time>2026-05-02T14:19:46.039Z</time></trkpt><trkpt lat="43.7202767" lon="11.5846483"><ele>1434.4</ele><time>2026-05-02T14:19:47.039Z</time></trkpt><trkpt lat="43.720305" lon="11.5845083"><ele>1433.0</ele><time>2026-05-02T14:19:48.039Z</time></trkpt><trkpt lat="43.7203433" lon="11.5843817"><ele>1435.3333333333335</ele><time>2026-05-02T14:19:49.043Z</time></trkpt><trkpt lat="43.7203967" lon="11.5842683"><ele>1437.6666666666667</ele><time>2026-05-02T14:19:50.043Z</time></trkpt><trkpt lat="43.7204633" lon="11.584175"><ele>1440.0</ele><time>2026-05-02T14:19:51.041Z</time></trkpt><trkpt lat="43.7205333" lon="11.5840883"><ele>1442.3333333333333</ele><time>2026-05-02T14:19:52.04Z</time></trkpt><trkpt lat="43.7205917" lon="11.5840117"><ele>1444.6666666666665</ele><time>2026-05-02T14:19:53.039Z</time></trkpt><trkpt lat="43.7206467" lon="11.583945"><ele>1447.0</ele><time>2026-05-02T14:19:54.039Z</time></trkpt><trkpt lat="43.7206933" lon="11.583875"><ele>1447.0</ele><time>2026-05-02T14:19:55.039Z</time></trkpt><trkpt lat="43.720775" lon="11.583755"><ele>1447.0</ele><time>2026-05-02T14:19:57.039Z</time></trkpt><trkpt lat="43.7208183" lon="11.5836083"><ele>1447.0</ele><time>2026-05-02T14:19:59.04Z</time></trkpt><trkpt lat="43.7208317" lon="11.5834433"><ele>1447.0</ele><time>2026-05-02T14:20:01.039Z</time></trkpt><trkpt lat="43.7208017" lon="11.5832783"><ele>1447.1666666666665</ele><time>2026-05-02T14:20:03.041Z</time></trkpt><trkpt lat="43.7207717" lon="11.5832"><ele>1447.3333333333333</ele><time>2026-05-02T14:20:04.04Z</time></trkpt><trkpt lat="43.720725" lon="11.58314"><ele>1447.5</ele><time>2026-05-02T14:20:05.04Z</time></trkpt><trkpt lat="43.7206617" lon="11.583085"><ele>1447.6666666666667</ele><time>2026-05-02T14:20:06.04Z</time></trkpt><trkpt lat="43.7205833" lon="11.5830533"><ele>1447.8333333333335</ele><time>2026-05-02T14:20:07.04Z</time></trkpt><trkpt lat="43.7204933" lon="11.583035"><ele>1448.0</ele><time>2026-05-02T14:20:08.041Z</time></trkpt><trkpt lat="43.720395" lon="11.5830167"><ele>1448.0</ele><time>2026-05-02T14:20:09.04Z</time></trkpt><trkpt lat="43.7202933" lon="11.5830033"><ele>1448.0</ele><time>2026-05-02T14:20:10.04Z</time></trkpt><trkpt lat="43.7201917" lon="11.5829833"><ele>1448.0</ele><time>2026-05-02T14:20:11.04Z</time></trkpt><trkpt lat="43.7200917" lon="11.5829617"><ele>1448.0</ele><time>2026-05-02T14:20:12.041Z</time></trkpt><trkpt lat="43.7199883" lon="11.58294"><ele>1448.0</ele><time>2026-05-02T14:20:13.04Z</time></trkpt><trkpt lat="43.71988" lon="11.5829217"><ele>1450.0</ele><time>2026-05-02T14:20:14.041Z</time></trkpt><trkpt lat="43.7197683" lon="11.5829083"><ele>1452.0</ele><time>2026-05-02T14:20:15.04Z</time></trkpt><trkpt lat="43.719655" lon="11.582895"><ele>1454.0</ele><time>2026-05-02T14:20:16.039Z</time></trkpt><trkpt lat="43.7195383" lon="11.5828817"><ele>1456.0</ele><time>2026-05-02T14:20:17.04Z</time></trkpt><trkpt lat="43.71942" lon="11.5828633"><ele>1452.0</ele><time>2026-05-02T14:20:18.039Z</time></trkpt><trkpt lat="43.7193" lon="11.5828317"><ele>1448.0</ele><time>2026-05-02T14:20:19.039Z</time></trkpt><trkpt lat="43.7191867" lon="11.5827817"><ele>1444.0</ele><time>2026-05-02T14:20:20.041Z</time></trkpt><trkpt lat="43.7190733" lon="11.5827217"><ele>1440.0</ele><time>2026-05-02T14:20:21.039Z</time></trkpt><trkpt lat="43.718965" lon="11.5826433"><ele>1440.0</ele><time>2026-05-02T14:20:22.04Z</time></trkpt><trkpt lat="43.718855" lon="11.5825633"><ele>1440.0</ele><time>2026-05-02T14:20:23.041Z</time></trkpt><trkpt lat="43.718755" lon="11.582475"><ele>1440.0</ele><time>2026-05-02T14:20:24.04Z</time></trkpt><trkpt lat="43.7186583" lon="11.5823983"><ele>1440.0</ele><time>2026-05-02T14:20:25.04Z</time></trkpt><trkpt lat="43.7185617" lon="11.5823367"><ele>1439.8</ele><time>2026-05-02T14:20:26.042Z</time></trkpt><trkpt lat="43.7184667" lon="11.5822833"><ele>1439.6</ele><time>2026-05-02T14:20:27.041Z</time></trkpt><trkpt lat="43.718375" lon="11.582235"><ele>1439.4</ele><time>2026-05-02T14:20:28.039Z</time></trkpt><trkpt lat="43.7182933" lon="11.5821667"><ele>1439.2</ele><time>2026-05-02T14:20:29.043Z</time></trkpt><trkpt lat="43.71823" lon="11.5820767"><ele>1439.0</ele><time>2026-05-02T14:20:30.043Z</time></trkpt><trkpt lat="43.718175" lon="11.58198"><ele>1439.0</ele><time>2026-05-02T14:20:31.04Z</time></trkpt><trkpt lat="43.7181583" lon="11.5818667"><ele>1439.0</ele><time>2026-05-02T14:20:32.041Z</time></trkpt><trkpt lat="43.7181633" lon="11.5817483"><ele>1439.0</ele><time>2026-05-02T14:20:33.041Z</time></trkpt><trkpt lat="43.7181933" lon="11.5816283"><ele>1439.0</ele><time>2026-05-02T14:20:34.041Z</time></trkpt><trkpt lat="43.7182417" lon="11.5815083"><ele>1439.0</ele><time>2026-05-02T14:20:35.04Z</time></trkpt><trkpt lat="43.7183133" lon="11.581395"><ele>1439.0</ele><time>2026-05-02T14:20:36.039Z</time></trkpt><trkpt lat="43.7184017" lon="11.58129"><ele>1439.0</ele><time>2026-05-02T14:20:37.039Z</time></trkpt><trkpt lat="43.7184933" lon="11.581195"><ele>1439.0</ele><time>2026-05-02T14:20:38.041Z</time></trkpt><trkpt lat="43.71859" lon="11.5811183"><ele>1439.0</ele><time>2026-05-02T14:20:39.038Z</time></trkpt><trkpt lat="43.71869" lon="11.5810567"><ele>1440.0</ele><time>2026-05-02T14:20:40.04Z</time></trkpt><trkpt lat="43.7187883" lon="11.5810133"><ele>1441.0</ele><time>2026-05-02T14:20:41.039Z</time></trkpt><trkpt lat="43.7188733" lon="11.5809783"><ele>1442.0</ele><time>2026-05-02T14:20:42.038Z</time></trkpt><trkpt lat="43.7189467" lon="11.5809517"><ele>1443.0</ele><time>2026-05-02T14:20:43.039Z</time></trkpt><trkpt lat="43.719015" lon="11.5809333"><ele>1444.0</ele><time>2026-05-02T14:20:44.041Z</time></trkpt><trkpt lat="43.7191283" lon="11.5808983"><ele>1444.0</ele><time>2026-05-02T14:20:46.039Z</time></trkpt><trkpt lat="43.7192417" lon="11.5808467"><ele>1444.0</ele><time>2026-05-02T14:20:48.039Z</time></trkpt><trkpt lat="43.7193017" lon="11.5808167"><ele>1444.0</ele><time>2026-05-02T14:20:49.04Z</time></trkpt><trkpt lat="43.719365" lon="11.580785"><ele>1444.0</ele><time>2026-05-02T14:20:50.041Z</time></trkpt><trkpt lat="43.7194317" lon="11.580745"><ele>1444.0</ele><time>2026-05-02T14:20:51.039Z</time></trkpt><trkpt lat="43.7195" lon="11.5807033"><ele>1444.0</ele><time>2026-05-02T14:20:52.04Z</time></trkpt><trkpt lat="43.7195667" lon="11.5806533"><ele>1442.5</ele><time>2026-05-02T14:20:53.039Z</time></trkpt><trkpt lat="43.7196317" lon="11.5806017"><ele>1441.0</ele><time>2026-05-02T14:20:54.039Z</time></trkpt><trkpt lat="43.7196967" lon="11.5805483"><ele>1439.5</ele><time>2026-05-02T14:20:55.04Z</time></trkpt><trkpt lat="43.7197617" lon="11.580495"><ele>1438.0</ele><time>2026-05-02T14:20:56.042Z</time></trkpt><trkpt lat="43.719825" lon="11.5804417"><ele>1436.5</ele><time>2026-05-02T14:20:57.039Z</time></trkpt><trkpt lat="43.719895" lon="11.58039"><ele>1435.0</ele><time>2026-05-02T14:20:58.04Z</time></trkpt><trkpt lat="43.7199683" lon="11.58034"><ele>1434.8333333333333</ele><time>2026-05-02T14:20:59.039Z</time></trkpt><trkpt lat="43.720045" lon="11.5802833"><ele>1434.6666666666665</ele><time>2026-05-02T14:21:00.041Z</time></trkpt><trkpt lat="43.720125" lon="11.5802267"><ele>1434.5</ele><time>2026-05-02T14:21:01.041Z</time></trkpt><trkpt lat="43.7202083" lon="11.580175"><ele>1434.3333333333333</ele><time>2026-05-02T14:21:02.041Z</time></trkpt><trkpt lat="43.72029" lon="11.580125"><ele>1434.1666666666667</ele><time>2026-05-02T14:21:03.038Z</time></trkpt><trkpt lat="43.720375" lon="11.5800767"><ele>1434.0</ele><time>2026-05-02T14:21:04.04Z</time></trkpt><trkpt lat="43.7204517" lon="11.5800283"><ele>1434.0</ele><time>2026-05-02T14:21:05.04Z</time></trkpt><trkpt lat="43.7205217" lon="11.5799833"><ele>1434.0</ele><time>2026-05-02T14:21:06.042Z</time></trkpt><trkpt lat="43.7205933" lon="11.5799333"><ele>1434.0</ele><time>2026-05-02T14:21:07.04Z</time></trkpt><trkpt lat="43.720665" lon="11.5798883"><ele>1434.0</ele><time>2026-05-02T14:21:08.041Z</time></trkpt><trkpt lat="43.72073" lon="11.57984"><ele>1434.0</ele><time>2026-05-02T14:21:09.04Z</time></trkpt><trkpt lat="43.7207983" lon="11.5797817"><ele>1434.0</ele><time>2026-05-02T14:21:10.039Z</time></trkpt><trkpt lat="43.720865" lon="11.5797133"><ele>1434.0</ele><time>2026-05-02T14:21:11.039Z</time></trkpt><trkpt lat="43.7209267" lon="11.5796333"><ele>1434.0</ele><time>2026-05-02T14:21:12.044Z</time></trkpt><trkpt lat="43.720985" lon="11.5795433"><ele>1434.0</ele><time>2026-05-02T14:21:13.043Z</time></trkpt><trkpt lat="43.72104" lon="11.57945"><ele>1434.0</ele><time>2026-05-02T14:21:14.041Z</time></trkpt><trkpt lat="43.72109" lon="11.5793567"><ele>1434.0</ele><time>2026-05-02T14:21:15.039Z</time></trkpt><trkpt lat="43.72114" lon="11.57926"><ele>1434.0</ele><time>2026-05-02T14:21:16.039Z</time></trkpt><trkpt lat="43.7211917" lon="11.57917"><ele>1434.5</ele><time>2026-05-02T14:21:17.04Z</time></trkpt><trkpt lat="43.72125" lon="11.5790817"><ele>1435.0</ele><time>2026-05-02T14:21:18.04Z</time></trkpt><trkpt lat="43.7213017" lon="11.5789867"><ele>1435.5</ele><time>2026-05-02T14:21:19.04Z</time></trkpt><trkpt lat="43.7213533" lon="11.5788883"><ele>1436.0</ele><time>2026-05-02T14:21:20.043Z</time></trkpt><trkpt lat="43.72141" lon="11.5787883"><ele>1436.5</ele><time>2026-05-02T14:21:21.04Z</time></trkpt><trkpt lat="43.7214667" lon="11.5786883"><ele>1437.0</ele><time>2026-05-02T14:21:22.039Z</time></trkpt><trkpt lat="43.7215267" lon="11.5785917"><ele>1437.0</ele><time>2026-05-02T14:21:23.039Z</time></trkpt><trkpt lat="43.72159" lon="11.5785"><ele>1437.0</ele><time>2026-05-02T14:21:24.039Z</time></trkpt><trkpt lat="43.7216617" lon="11.5784233"><ele>1437.0</ele><time>2026-05-02T14:21:25.039Z</time></trkpt><trkpt lat="43.72174" lon="11.5783533"><ele>1437.0</ele><time>2026-05-02T14:21:26.043Z</time></trkpt><trkpt lat="43.7218233" lon="11.578285"><ele>1437.0</ele><time>2026-05-02T14:21:27.039Z</time></trkpt><trkpt lat="43.7219167" lon="11.5782283"><ele>1435.0</ele><time>2026-05-02T14:21:28.039Z</time></trkpt><trkpt lat="43.7220133" lon="11.5781717"><ele>1433.0</ele><time>2026-05-02T14:21:29.04Z</time></trkpt><trkpt lat="43.7221083" lon="11.5781233"><ele>1431.0</ele><time>2026-05-02T14:21:30.04Z</time></trkpt><trkpt lat="43.722205" lon="11.5780767"><ele>1429.0</ele><time>2026-05-02T14:21:31.04Z</time></trkpt><trkpt lat="43.7222983" lon="11.578035"><ele>1427.0</ele><time>2026-05-02T14:21:32.041Z</time></trkpt><trkpt lat="43.7223917" lon="11.5780083"><ele>1427.0</ele><time>2026-05-02T14:21:33.04Z</time></trkpt><trkpt lat="43.7224817" lon="11.5780083"><ele>1427.0</ele><time>2026-05-02T14:21:34.039Z</time></trkpt><trkpt lat="43.7225733" lon="11.5780283"><ele>1427.0</ele><time>2026-05-02T14:21:35.039Z</time></trkpt><trkpt lat="43.7226633" lon="11.5780567"><ele>1427.0</ele><time>2026-05-02T14:21:36.039Z</time></trkpt><trkpt lat="43.7227533" lon="11.5780867"><ele>1427.0</ele><time>2026-05-02T14:21:37.039Z</time></trkpt><trkpt lat="43.7228433" lon="11.578115"><ele>1427.0</ele><time>2026-05-02T14:21:38.042Z</time></trkpt><trkpt lat="43.7229333" lon="11.57815"><ele>1427.0</ele><time>2026-05-02T14:21:39.039Z</time></trkpt><trkpt lat="43.723025" lon="11.5781833"><ele>1427.0</ele><time>2026-05-02T14:21:40.039Z</time></trkpt><trkpt lat="43.72312" lon="11.57822"><ele>1427.0</ele><time>2026-05-02T14:21:41.039Z</time></trkpt><trkpt lat="43.7232167" lon="11.5782467"><ele>1427.0</ele><time>2026-05-02T14:21:42.039Z</time></trkpt><trkpt lat="43.7233133" lon="11.5782467"><ele>1427.0</ele><time>2026-05-02T14:21:43.04Z</time></trkpt><trkpt lat="43.72341" lon="11.5782183"><ele>1427.0</ele><time>2026-05-02T14:21:44.042Z</time></trkpt><trkpt lat="43.723505" lon="11.5781817"><ele>1427.0</ele><time>2026-05-02T14:21:45.04Z</time></trkpt><trkpt lat="43.723605" lon="11.57816"><ele>1427.0</ele><time>2026-05-02T14:21:46.04Z</time></trkpt><trkpt lat="43.7237067" lon="11.5781367"><ele>1427.0</ele><time>2026-05-02T14:21:47.043Z</time></trkpt><trkpt lat="43.7238067" lon="11.5781133"><ele>1427.0</ele><time>2026-05-02T14:21:48.039Z</time></trkpt><trkpt lat="43.7239017" lon="11.5780967"><ele>1427.0</ele><time>2026-05-02T14:21:49.039Z</time></trkpt><trkpt lat="43.7239967" lon="11.5780983"><ele>1427.0</ele><time>2026-05-02T14:21:50.042Z</time></trkpt><trkpt lat="43.72409" lon="11.578115"><ele>1427.0</ele><time>2026-05-02T14:21:51.04Z</time></trkpt><trkpt lat="43.7241833" lon="11.5781483"><ele>1427.0</ele><time>2026-05-02T14:21:52.04Z</time></trkpt><trkpt lat="43.724275" lon="11.578175"><ele>1427.0</ele><time>2026-05-02T14:21:53.039Z</time></trkpt><trkpt lat="43.7243667" lon="11.578205"><ele>1427.0</ele><time>2026-05-02T14:21:54.039Z</time></trkpt><trkpt lat="43.7244583" lon="11.578245"><ele>1427.0</ele><time>2026-05-02T14:21:55.04Z</time></trkpt><trkpt lat="43.72455" lon="11.5782933"><ele>1427.0</ele><time>2026-05-02T14:21:56.042Z</time></trkpt><trkpt lat="43.7246467" lon="11.5783267"><ele>1427.0</ele><time>2026-05-02T14:21:57.039Z</time></trkpt><trkpt lat="43.7247467" lon="11.5783517"><ele>1427.1999999999998</ele><time>2026-05-02T14:21:58.039Z</time></trkpt><trkpt lat="43.7248417" lon="11.5783783"><ele>1427.4</ele><time>2026-05-02T14:21:59.039Z</time></trkpt><trkpt lat="43.7249333" lon="11.578395"><ele>1427.6</ele><time>2026-05-02T14:22:00.039Z</time></trkpt><trkpt lat="43.725025" lon="11.578375"><ele>1427.8000000000002</ele><time>2026-05-02T14:22:01.04Z</time></trkpt><trkpt lat="43.725115" lon="11.5783067"><ele>1428.0</ele><time>2026-05-02T14:22:02.041Z</time></trkpt><trkpt lat="43.7252067" lon="11.5782217"><ele>1425.75</ele><time>2026-05-02T14:22:03.04Z</time></trkpt><trkpt lat="43.7253033" lon="11.5781417"><ele>1423.5</ele><time>2026-05-02T14:22:04.039Z</time></trkpt><trkpt lat="43.7254017" lon="11.57806"><ele>1421.25</ele><time>2026-05-02T14:22:05.041Z</time></trkpt><trkpt lat="43.725505" lon="11.5779783"><ele>1419.0</ele><time>2026-05-02T14:22:06.044Z</time></trkpt><trkpt lat="43.725615" lon="11.5778967"><ele>1419.75</ele><time>2026-05-02T14:22:07.039Z</time></trkpt><trkpt lat="43.7257217" lon="11.577805"><ele>1420.5</ele><time>2026-05-02T14:22:08.041Z</time></trkpt><trkpt lat="43.7258233" lon="11.5777067"><ele>1421.25</ele><time>2026-05-02T14:22:09.039Z</time></trkpt><trkpt lat="43.72592" lon="11.5776017"><ele>1422.0</ele><time>2026-05-02T14:22:10.043Z</time></trkpt><trkpt lat="43.7260117" lon="11.57749"><ele>1422.0</ele><time>2026-05-02T14:22:11.041Z</time></trkpt><trkpt lat="43.7261017" lon="11.57738"><ele>1422.0</ele><time>2026-05-02T14:22:12.039Z</time></trkpt><trkpt lat="43.726195" lon="11.5772733"><ele>1422.0</ele><time>2026-05-02T14:22:13.039Z</time></trkpt><trkpt lat="43.7262867" lon="11.5771617"><ele>1422.0</ele><time>2026-05-02T14:22:14.042Z</time></trkpt><trkpt lat="43.7263767" lon="11.5770533"><ele>1423.25</ele><time>2026-05-02T14:22:15.039Z</time></trkpt><trkpt lat="43.7264633" lon="11.5769367"><ele>1424.5</ele><time>2026-05-02T14:22:16.039Z</time></trkpt><trkpt lat="43.7265533" lon="11.5768183"><ele>1425.75</ele><time>2026-05-02T14:22:17.04Z</time></trkpt><trkpt lat="43.7266417" lon="11.5767017"><ele>1427.0</ele><time>2026-05-02T14:22:18.039Z</time></trkpt><trkpt lat="43.72673" lon="11.5765917"><ele>1427.0</ele><time>2026-05-02T14:22:19.041Z</time></trkpt><trkpt lat="43.72682" lon="11.57648"><ele>1427.0</ele><time>2026-05-02T14:22:20.041Z</time></trkpt><trkpt lat="43.7269133" lon="11.5763733"><ele>1427.0</ele><time>2026-05-02T14:22:21.04Z</time></trkpt><trkpt lat="43.7270033" lon="11.5762717"><ele>1427.0</ele><time>2026-05-02T14:22:22.04Z</time></trkpt><trkpt lat="43.7270917" lon="11.57618"><ele>1426.6</ele><time>2026-05-02T14:22:23.039Z</time></trkpt><trkpt lat="43.7271733" lon="11.57609"><ele>1426.1999999999998</ele><time>2026-05-02T14:22:24.04Z</time></trkpt><trkpt lat="43.72725" lon="11.5759967"><ele>1425.8</ele><time>2026-05-02T14:22:25.04Z</time></trkpt><trkpt lat="43.7273267" lon="11.5759017"><ele>1425.4</ele><time>2026-05-02T14:22:26.041Z</time></trkpt><trkpt lat="43.7274033" lon="11.575805"><ele>1425.0</ele><time>2026-05-02T14:22:27.04Z</time></trkpt><trkpt lat="43.727485" lon="11.5757133"><ele>1425.0</ele><time>2026-05-02T14:22:28.04Z</time></trkpt><trkpt lat="43.7275683" lon="11.57562"><ele>1425.0</ele><time>2026-05-02T14:22:29.042Z</time></trkpt><trkpt lat="43.7276533" lon="11.5755233"><ele>1425.0</ele><time>2026-05-02T14:22:30.041Z</time></trkpt><trkpt lat="43.72774" lon="11.5754383"><ele>1425.0</ele><time>2026-05-02T14:22:31.043Z</time></trkpt><trkpt lat="43.72784" lon="11.5753717"><ele>1425.0</ele><time>2026-05-02T14:22:32.044Z</time></trkpt><trkpt lat="43.727945" lon="11.5753033"><ele>1423.25</ele><time>2026-05-02T14:22:33.039Z</time></trkpt><trkpt lat="43.7280567" lon="11.5752367"><ele>1421.5</ele><time>2026-05-02T14:22:34.039Z</time></trkpt><trkpt lat="43.7281683" lon="11.5751767"><ele>1419.75</ele><time>2026-05-02T14:22:35.039Z</time></trkpt><trkpt lat="43.7282767" lon="11.5751267"><ele>1418.0</ele><time>2026-05-02T14:22:36.04Z</time></trkpt><trkpt lat="43.7283817" lon="11.575085"><ele>1418.0</ele><time>2026-05-02T14:22:37.04Z</time></trkpt><trkpt lat="43.7284817" lon="11.57506"><ele>1418.0</ele><time>2026-05-02T14:22:38.042Z</time></trkpt><trkpt lat="43.72858" lon="11.575035"><ele>1418.0</ele><time>2026-05-02T14:22:39.039Z</time></trkpt><trkpt lat="43.728675" lon="11.5750083"><ele>1418.0</ele><time>2026-05-02T14:22:40.12Z</time></trkpt><trkpt lat="43.72877" lon="11.5749933"><ele>1418.0</ele><time>2026-05-02T14:22:41.039Z</time></trkpt><trkpt lat="43.7288567" lon="11.57498"><ele>1417.6666666666667</ele><time>2026-05-02T14:22:42.04Z</time></trkpt><trkpt lat="43.7289367" lon="11.5749583"><ele>1417.3333333333335</ele><time>2026-05-02T14:22:43.041Z</time></trkpt><trkpt lat="43.7290033" lon="11.5749333"><ele>1417.0</ele><time>2026-05-02T14:22:44.042Z</time></trkpt><trkpt lat="43.7291067" lon="11.5749033"><ele>1416.6666666666667</ele><time>2026-05-02T14:22:46.039Z</time></trkpt><trkpt lat="43.7291833" lon="11.57488"><ele>1416.3333333333333</ele><time>2026-05-02T14:22:48.043Z</time></trkpt><trkpt lat="43.7292533" lon="11.57483"><ele>1416.0</ele><time>2026-05-02T14:22:51.042Z</time></trkpt><trkpt lat="43.7291933" lon="11.5748033"><ele>1416.0</ele><time>2026-05-02T14:22:58.039Z</time></trkpt><trkpt lat="43.7291283" lon="11.5748567"><ele>1416.0</ele><time>2026-05-02T14:23:02.043Z</time></trkpt><trkpt lat="43.7291967" lon="11.574925"><ele>1416.0</ele><time>2026-05-02T14:24:59.029Z</time></trkpt><trkpt lat="43.7292678" lon="11.5749651"><ele>1416.0</ele><time>2026-05-02T14:27:12.029Z</time></trkpt><trkpt lat="43.7292693" lon="11.574877"><ele>1416.0</ele><time>2026-05-02T14:27:20.125Z</time></trkpt><trkpt lat="43.7293054" lon="11.5747909"><ele>1416.0</ele><time>2026-05-02T14:27:29.041Z</time></trkpt><trkpt lat="43.7293575" lon="11.5747408"><ele>1416.0</ele><time>2026-05-02T14:46:58.123Z</time></trkpt><trkpt lat="43.7292917" lon="11.57474"><ele>1416.0</ele><time>2026-05-02T14:53:29.039Z</time></trkpt><trkpt lat="43.7292483" lon="11.5748217"><ele>1416.0</ele><time>2026-05-02T14:53:34.039Z</time></trkpt><trkpt lat="43.72919" lon="11.5748817"><ele>1416.0</ele><time>2026-05-02T14:53:41.039Z</time></trkpt><trkpt lat="43.7291465" lon="11.5749588"><ele>1416.0</ele><time>2026-05-02T14:57:17.12Z</time></trkpt><trkpt lat="43.7290231" lon="11.5749457"><ele>1416.0</ele><time>2026-05-02T14:57:19.038Z</time></trkpt><trkpt lat="43.7289472" lon="11.5749529"><ele>1416.0</ele><time>2026-05-02T14:57:20.04Z</time></trkpt><trkpt lat="43.7288695" lon="11.5749653"><ele>1416.0</ele><time>2026-05-02T14:57:21.039Z</time></trkpt><trkpt lat="43.7287849" lon="11.5749803"><ele>1416.0</ele><time>2026-05-02T14:57:22.04Z</time></trkpt><trkpt lat="43.7286945" lon="11.5749973"><ele>1416.0</ele><time>2026-05-02T14:57:23.039Z</time></trkpt><trkpt lat="43.7285943" lon="11.5750181"><ele>1416.0</ele><time>2026-05-02T14:57:24.039Z</time></trkpt><trkpt lat="43.728487" lon="11.5750428"><ele>1416.0</ele><time>2026-05-02T14:57:25.041Z</time></trkpt><trkpt lat="43.7283819" lon="11.5750725"><ele>1416.3333333333333</ele><time>2026-05-02T14:57:26.041Z</time></trkpt><trkpt lat="43.7282863" lon="11.5751045"><ele>1416.6666666666667</ele><time>2026-05-02T14:57:27.039Z</time></trkpt><trkpt lat="43.7281986" lon="11.5751409"><ele>1417.0</ele><time>2026-05-02T14:57:28.039Z</time></trkpt><trkpt lat="43.7281166" lon="11.5751838"><ele>1417.3333333333335</ele><time>2026-05-02T14:57:29.039Z</time></trkpt><trkpt lat="43.7280373" lon="11.5752267"><ele>1417.6666666666667</ele><time>2026-05-02T14:57:30.039Z</time></trkpt><trkpt lat="43.7279623" lon="11.5752712"><ele>1418.0</ele><time>2026-05-02T14:57:31.04Z</time></trkpt><trkpt lat="43.7278937" lon="11.5753149"><ele>1419.1666666666667</ele><time>2026-05-02T14:57:32.04Z</time></trkpt><trkpt lat="43.7278317" lon="11.5753583"><ele>1420.3333333333335</ele><time>2026-05-02T14:57:33.04Z</time></trkpt><trkpt lat="43.7277683" lon="11.5754083"><ele>1421.5</ele><time>2026-05-02T14:57:34.038Z</time></trkpt><trkpt lat="43.7277017" lon="11.5754683"><ele>1422.6666666666667</ele><time>2026-05-02T14:57:35.039Z</time></trkpt><trkpt lat="43.7276383" lon="11.5755333"><ele>1423.8333333333333</ele><time>2026-05-02T14:57:36.039Z</time></trkpt><trkpt lat="43.7275767" lon="11.5756"><ele>1425.0</ele><time>2026-05-02T14:57:37.039Z</time></trkpt><trkpt lat="43.7275167" lon="11.57567"><ele>1425.0000000000002</ele><time>2026-05-02T14:57:38.042Z</time></trkpt><trkpt lat="43.7274617" lon="11.5757367"><ele>1425.0</ele><time>2026-05-02T14:57:39.039Z</time></trkpt><trkpt lat="43.72741" lon="11.5757983"><ele>1425.0</ele><time>2026-05-02T14:57:40.039Z</time></trkpt><trkpt lat="43.72736" lon="11.5758533"><ele>1425.0</ele><time>2026-05-02T14:57:41.04Z</time></trkpt><trkpt lat="43.72731" lon="11.57591"><ele>1425.0</ele><time>2026-05-02T14:57:42.039Z</time></trkpt><trkpt lat="43.727255" lon="11.5759683"><ele>1425.0000000000002</ele><time>2026-05-02T14:57:43.039Z</time></trkpt><trkpt lat="43.7271967" lon="11.5760333"><ele>1425.0</ele><time>2026-05-02T14:57:44.041Z</time></trkpt><trkpt lat="43.72714" lon="11.5760983"><ele>1425.0</ele><time>2026-05-02T14:57:45.039Z</time></trkpt><trkpt lat="43.7270817" lon="11.5761717"><ele>1425.0</ele><time>2026-05-02T14:57:46.039Z</time></trkpt><trkpt lat="43.7270217" lon="11.5762467"><ele>1425.0</ele><time>2026-05-02T14:57:47.039Z</time></trkpt><trkpt lat="43.7269583" lon="11.5763267"><ele>1425.0</ele><time>2026-05-02T14:57:48.038Z</time></trkpt><trkpt lat="43.7268917" lon="11.5764067"><ele>1425.0</ele><time>2026-05-02T14:57:49.041Z</time></trkpt><trkpt lat="43.7268233" lon="11.57649"><ele>1425.0</ele><time>2026-05-02T14:57:50.04Z</time></trkpt><trkpt lat="43.726755" lon="11.57657"><ele>1425.4</ele><time>2026-05-02T14:57:51.039Z</time></trkpt><trkpt lat="43.726685" lon="11.5766467"><ele>1425.8</ele><time>2026-05-02T14:57:52.039Z</time></trkpt><trkpt lat="43.7266117" lon="11.576725"><ele>1426.1999999999998</ele><time>2026-05-02T14:57:53.04Z</time></trkpt><trkpt lat="43.7265417" lon="11.5768067"><ele>1426.6</ele><time>2026-05-02T14:57:54.039Z</time></trkpt><trkpt lat="43.72647" lon="11.576895"><ele>1427.0</ele><time>2026-05-02T14:57:55.039Z</time></trkpt><trkpt lat="43.7264017" lon="11.5769867"><ele>1426.0</ele><time>2026-05-02T14:57:56.04Z</time></trkpt><trkpt lat="43.726335" lon="11.5770733"><ele>1425.0</ele><time>2026-05-02T14:57:57.038Z</time></trkpt><trkpt lat="43.726265" lon="11.5771617"><ele>1424.0</ele><time>2026-05-02T14:57:58.04Z</time></trkpt><trkpt lat="43.7261967" lon="11.577245"><ele>1423.0</ele><time>2026-05-02T14:57:59.039Z</time></trkpt><trkpt lat="43.72613" lon="11.57733"><ele>1422.0</ele><time>2026-05-02T14:58:00.037Z</time></trkpt><trkpt lat="43.7260633" lon="11.57741"><ele>1422.0</ele><time>2026-05-02T14:58:01.123Z</time></trkpt><trkpt lat="43.725995" lon="11.57749"><ele>1422.0</ele><time>2026-05-02T14:58:02.041Z</time></trkpt><trkpt lat="43.7259283" lon="11.57757"><ele>1422.0</ele><time>2026-05-02T14:58:03.038Z</time></trkpt><trkpt lat="43.72586" lon="11.57765"><ele>1422.0</ele><time>2026-05-02T14:58:04.04Z</time></trkpt><trkpt lat="43.72579" lon="11.5777267"><ele>1422.0</ele><time>2026-05-02T14:58:05.039Z</time></trkpt><trkpt lat="43.725715" lon="11.5778"><ele>1422.0</ele><time>2026-05-02T14:58:06.039Z</time></trkpt><trkpt lat="43.725635" lon="11.5778667"><ele>1421.3999999999999</ele><time>2026-05-02T14:58:07.039Z</time></trkpt><trkpt lat="43.7255533" lon="11.5779333"><ele>1420.8</ele><time>2026-05-02T14:58:08.04Z</time></trkpt><trkpt lat="43.72547" lon="11.5779983"><ele>1420.2</ele><time>2026-05-02T14:58:09.039Z</time></trkpt><trkpt lat="43.7253883" lon="11.5780617"><ele>1419.6</ele><time>2026-05-02T14:58:10.04Z</time></trkpt><trkpt lat="43.72531" lon="11.57812"><ele>1419.0</ele><time>2026-05-02T14:58:11.04Z</time></trkpt><trkpt lat="43.7252367" lon="11.5781783"><ele>1420.2857142857142</ele><time>2026-05-02T14:58:12.039Z</time></trkpt><trkpt lat="43.725165" lon="11.5782317"><ele>1421.5714285714287</ele><time>2026-05-02T14:58:13.039Z</time></trkpt><trkpt lat="43.7250967" lon="11.5782767"><ele>1422.857142857143</ele><time>2026-05-02T14:58:14.042Z</time></trkpt><trkpt lat="43.7250333" lon="11.5783167"><ele>1424.142857142857</ele><time>2026-05-02T14:58:15.038Z</time></trkpt><trkpt lat="43.72497" lon="11.57835"><ele>1425.4285714285716</ele><time>2026-05-02T14:58:16.038Z</time></trkpt><trkpt lat="43.724905" lon="11.5783683"><ele>1426.7142857142858</ele><time>2026-05-02T14:58:17.038Z</time></trkpt><trkpt lat="43.7248383" lon="11.5783683"><ele>1428.0</ele><time>2026-05-02T14:58:18.037Z</time></trkpt><trkpt lat="43.7247667" lon="11.5783567"><ele>1428.0</ele><time>2026-05-02T14:58:19.038Z</time></trkpt><trkpt lat="43.7246867" lon="11.5783333"><ele>1428.0</ele><time>2026-05-02T14:58:20.04Z</time></trkpt><trkpt lat="43.7246033" lon="11.5783"><ele>1428.0</ele><time>2026-05-02T14:58:21.038Z</time></trkpt><trkpt lat="43.7245133" lon="11.57826"><ele>1428.0</ele><time>2026-05-02T14:58:22.038Z</time></trkpt><trkpt lat="43.7244183" lon="11.57822"><ele>1428.0</ele><time>2026-05-02T14:58:23.039Z</time></trkpt><trkpt lat="43.7243217" lon="11.5781833"><ele>1427.8000000000002</ele><time>2026-05-02T14:58:24.038Z</time></trkpt><trkpt lat="43.7242233" lon="11.57815"><ele>1427.6</ele><time>2026-05-02T14:58:25.038Z</time></trkpt><trkpt lat="43.7241217" lon="11.5781267"><ele>1427.4</ele><time>2026-05-02T14:58:26.041Z</time></trkpt><trkpt lat="43.7240167" lon="11.578115"><ele>1427.1999999999998</ele><time>2026-05-02T14:58:27.038Z</time></trkpt><trkpt lat="43.7239083" lon="11.5781183"><ele>1427.0</ele><time>2026-05-02T14:58:28.039Z</time></trkpt><trkpt lat="43.723795" lon="11.5781383"><ele>1427.0</ele><time>2026-05-02T14:58:29.041Z</time></trkpt><trkpt lat="43.72368" lon="11.5781633"><ele>1427.0</ele><time>2026-05-02T14:58:30.041Z</time></trkpt><trkpt lat="43.723565" lon="11.5781867"><ele>1427.0</ele><time>2026-05-02T14:58:31.04Z</time></trkpt><trkpt lat="43.7234483" lon="11.5782117"><ele>1427.0</ele><time>2026-05-02T14:58:32.04Z</time></trkpt><trkpt lat="43.723335" lon="11.5782267"><ele>1427.0</ele><time>2026-05-02T14:58:33.038Z</time></trkpt><trkpt lat="43.7232183" lon="11.5782317"><ele>1427.0</ele><time>2026-05-02T14:58:34.038Z</time></trkpt><trkpt lat="43.7231" lon="11.5782117"><ele>1427.0</ele><time>2026-05-02T14:58:35.039Z</time></trkpt><trkpt lat="43.7229767" lon="11.5781767"><ele>1427.0</ele><time>2026-05-02T14:58:36.039Z</time></trkpt><trkpt lat="43.7228483" lon="11.5781383"><ele>1427.0</ele><time>2026-05-02T14:58:37.039Z</time></trkpt><trkpt lat="43.72272" lon="11.5780983"><ele>1427.0</ele><time>2026-05-02T14:58:38.04Z</time></trkpt><trkpt lat="43.7225967" lon="11.5780667"><ele>1427.0</ele><time>2026-05-02T14:58:39.038Z</time></trkpt><trkpt lat="43.7224717" lon="11.57806"><ele>1427.0</ele><time>2026-05-02T14:58:40.038Z</time></trkpt><trkpt lat="43.7223467" lon="11.5780783"><ele>1427.0</ele><time>2026-05-02T14:58:41.038Z</time></trkpt><trkpt lat="43.72222" lon="11.5781167"><ele>1427.0</ele><time>2026-05-02T14:58:42.036Z</time></trkpt><trkpt lat="43.7220967" lon="11.578165"><ele>1427.0</ele><time>2026-05-02T14:58:43.039Z</time></trkpt><trkpt lat="43.7219717" lon="11.5782217"><ele>1427.0</ele><time>2026-05-02T14:58:44.04Z</time></trkpt><trkpt lat="43.72185" lon="11.5782883"><ele>1426.5</ele><time>2026-05-02T14:58:45.038Z</time></trkpt><trkpt lat="43.7217333" lon="11.5783717"><ele>1426.0</ele><time>2026-05-02T14:58:46.038Z</time></trkpt><trkpt lat="43.721625" lon="11.5784733"><ele>1425.5</ele><time>2026-05-02T14:58:47.039Z</time></trkpt><trkpt lat="43.7215267" lon="11.578595"><ele>1425.0</ele><time>2026-05-02T14:58:48.038Z</time></trkpt><trkpt lat="43.7214367" lon="11.57873"><ele>1425.0</ele><time>2026-05-02T14:58:49.04Z</time></trkpt><trkpt lat="43.721355" lon="11.5788733"><ele>1425.0</ele><time>2026-05-02T14:58:50.04Z</time></trkpt><trkpt lat="43.721275" lon="11.579015"><ele>1425.0</ele><time>2026-05-02T14:58:51.038Z</time></trkpt><trkpt lat="43.721195" lon="11.57916"><ele>1425.0</ele><time>2026-05-02T14:58:52.039Z</time></trkpt><trkpt lat="43.721115" lon="11.5793"><ele>1427.25</ele><time>2026-05-02T14:58:53.04Z</time></trkpt><trkpt lat="43.721035" lon="11.57944"><ele>1429.5</ele><time>2026-05-02T14:58:54.041Z</time></trkpt><trkpt lat="43.7209483" lon="11.5795733"><ele>1431.75</ele><time>2026-05-02T14:58:55.04Z</time></trkpt><trkpt lat="43.7208517" lon="11.5796883"><ele>1434.0</ele><time>2026-05-02T14:58:56.04Z</time></trkpt><trkpt lat="43.7207483" lon="11.5798"><ele>1434.0</ele><time>2026-05-02T14:58:57.037Z</time></trkpt><trkpt lat="43.7206367" lon="11.579895"><ele>1434.0</ele><time>2026-05-02T14:58:58.038Z</time></trkpt><trkpt lat="43.7205167" lon="11.5799783"><ele>1434.0</ele><time>2026-05-02T14:58:59.039Z</time></trkpt><trkpt lat="43.7203967" lon="11.58006"><ele>1434.0</ele><time>2026-05-02T14:59:00.037Z</time></trkpt><trkpt lat="43.7202717" lon="11.58014"><ele>1434.25</ele><time>2026-05-02T14:59:01.039Z</time></trkpt><trkpt lat="43.7201517" lon="11.5802117"><ele>1434.5</ele><time>2026-05-02T14:59:02.04Z</time></trkpt><trkpt lat="43.720035" lon="11.5802917"><ele>1434.75</ele><time>2026-05-02T14:59:03.038Z</time></trkpt><trkpt lat="43.7199167" lon="11.5803667"><ele>1435.0</ele><time>2026-05-02T14:59:04.039Z</time></trkpt><trkpt lat="43.7198" lon="11.5804517"><ele>1435.0</ele><time>2026-05-02T14:59:05.038Z</time></trkpt><trkpt lat="43.71968" lon="11.5805367"><ele>1435.0</ele><time>2026-05-02T14:59:06.038Z</time></trkpt><trkpt lat="43.7195617" lon="11.58061"><ele>1435.0</ele><time>2026-05-02T14:59:07.039Z</time></trkpt><trkpt lat="43.7194433" lon="11.5806883"><ele>1435.0</ele><time>2026-05-02T14:59:08.041Z</time></trkpt><trkpt lat="43.7193217" lon="11.5807533"><ele>1437.25</ele><time>2026-05-02T14:59:09.037Z</time></trkpt><trkpt lat="43.7191933" lon="11.5808133"><ele>1439.5</ele><time>2026-05-02T14:59:10.039Z</time></trkpt><trkpt lat="43.719065" lon="11.5808683"><ele>1441.75</ele><time>2026-05-02T14:59:11.039Z</time></trkpt><trkpt lat="43.7189367" lon="11.5809183"><ele>1444.0</ele><time>2026-05-02T14:59:12.039Z</time></trkpt><trkpt lat="43.718805" lon="11.5809683"><ele>1444.0</ele><time>2026-05-02T14:59:13.039Z</time></trkpt><trkpt lat="43.7186817" lon="11.5810283"><ele>1444.0</ele><time>2026-05-02T14:59:14.04Z</time></trkpt><trkpt lat="43.7185717" lon="11.5811017"><ele>1444.0</ele><time>2026-05-02T14:59:15.039Z</time></trkpt><trkpt lat="43.7184733" lon="11.5811883"><ele>1444.0</ele><time>2026-05-02T14:59:16.039Z</time></trkpt><trkpt lat="43.718385" lon="11.5812867"><ele>1443.0</ele><time>2026-05-02T14:59:17.039Z</time></trkpt><trkpt lat="43.7183067" lon="11.5813917"><ele>1442.0</ele><time>2026-05-02T14:59:18.038Z</time></trkpt><trkpt lat="43.718245" lon="11.5815033"><ele>1441.0</ele><time>2026-05-02T14:59:19.039Z</time></trkpt><trkpt lat="43.7182" lon="11.5816267"><ele>1440.0</ele><time>2026-05-02T14:59:20.04Z</time></trkpt><trkpt lat="43.7181767" lon="11.5817617"><ele>1439.0</ele><time>2026-05-02T14:59:21.041Z</time></trkpt><trkpt lat="43.7181867" lon="11.5818917"><ele>1439.2</ele><time>2026-05-02T14:59:22.039Z</time></trkpt><trkpt lat="43.71822" lon="11.5820183"><ele>1439.4</ele><time>2026-05-02T14:59:23.04Z</time></trkpt><trkpt lat="43.7182783" lon="11.5821333"><ele>1439.6</ele><time>2026-05-02T14:59:24.04Z</time></trkpt><trkpt lat="43.7183633" lon="11.5822283"><ele>1439.8</ele><time>2026-05-02T14:59:25.039Z</time></trkpt><trkpt lat="43.718475" lon="11.58231"><ele>1440.0</ele><time>2026-05-02T14:59:26.04Z</time></trkpt><trkpt lat="43.7186" lon="11.58239"><ele>1440.0</ele><time>2026-05-02T14:59:27.039Z</time></trkpt><trkpt lat="43.7187317" lon="11.5824783"><ele>1440.0</ele><time>2026-05-02T14:59:28.039Z</time></trkpt><trkpt lat="43.7188633" lon="11.5825717"><ele>1440.0</ele><time>2026-05-02T14:59:29.037Z</time></trkpt><trkpt lat="43.719" lon="11.5826683"><ele>1440.0</ele><time>2026-05-02T14:59:30.038Z</time></trkpt><trkpt lat="43.7191467" lon="11.5827683"><ele>1445.3333333333333</ele><time>2026-05-02T14:59:31.038Z</time></trkpt><trkpt lat="43.7192933" lon="11.58285"><ele>1450.6666666666665</ele><time>2026-05-02T14:59:32.039Z</time></trkpt><trkpt lat="43.7194533" lon="11.5828983"><ele>1456.0</ele><time>2026-05-02T14:59:33.039Z</time></trkpt><trkpt lat="43.7196283" lon="11.5829317"><ele>1456.0</ele><time>2026-05-02T14:59:34.038Z</time></trkpt><trkpt lat="43.7198033" lon="11.5829533"><ele>1456.0</ele><time>2026-05-02T14:59:35.039Z</time></trkpt><trkpt lat="43.7199833" lon="11.5829767"><ele>1456.0</ele><time>2026-05-02T14:59:36.039Z</time></trkpt><trkpt lat="43.72015" lon="11.5829983"><ele>1454.0</ele><time>2026-05-02T14:59:37.039Z</time></trkpt><trkpt lat="43.7203033" lon="11.583025"><ele>1452.0</ele><time>2026-05-02T14:59:38.039Z</time></trkpt><trkpt lat="43.720445" lon="11.5830517"><ele>1450.0</ele><time>2026-05-02T14:59:39.039Z</time></trkpt><trkpt lat="43.72057" lon="11.583085"><ele>1448.0</ele><time>2026-05-02T14:59:40.039Z</time></trkpt><trkpt lat="43.7206717" lon="11.5831317"><ele>1448.0</ele><time>2026-05-02T14:59:41.038Z</time></trkpt><trkpt lat="43.7207483" lon="11.5832083"><ele>1448.0</ele><time>2026-05-02T14:59:42.038Z</time></trkpt><trkpt lat="43.7208017" lon="11.5832983"><ele>1448.0</ele><time>2026-05-02T14:59:43.038Z</time></trkpt><trkpt lat="43.7208317" lon="11.5834117"><ele>1448.0</ele><time>2026-05-02T14:59:44.04Z</time></trkpt><trkpt lat="43.720835" lon="11.58353"><ele>1448.0</ele><time>2026-05-02T14:59:45.039Z</time></trkpt><trkpt lat="43.7208133" lon="11.583655"><ele>1448.0</ele><time>2026-05-02T14:59:46.038Z</time></trkpt><trkpt lat="43.7207633" lon="11.5837833"><ele>1447.75</ele><time>2026-05-02T14:59:47.039Z</time></trkpt><trkpt lat="43.720695" lon="11.5838983"><ele>1447.5</ele><time>2026-05-02T14:59:48.039Z</time></trkpt><trkpt lat="43.7206117" lon="11.5839983"><ele>1447.25</ele><time>2026-05-02T14:59:49.039Z</time></trkpt><trkpt lat="43.72052" lon="11.5840983"><ele>1447.0</ele><time>2026-05-02T14:59:50.04Z</time></trkpt><trkpt lat="43.7204333" lon="11.584205"><ele>1447.0</ele><time>2026-05-02T14:59:51.039Z</time></trkpt><trkpt lat="43.72036" lon="11.5843217"><ele>1447.0</ele><time>2026-05-02T14:59:52.039Z</time></trkpt><trkpt lat="43.7203033" lon="11.5844583"><ele>1447.0</ele><time>2026-05-02T14:59:53.04Z</time></trkpt><trkpt lat="43.7202717" lon="11.58462"><ele>1447.0</ele><time>2026-05-02T14:59:54.039Z</time></trkpt><trkpt lat="43.7202633" lon="11.58479"><ele>1445.6</ele><time>2026-05-02T14:59:55.039Z</time></trkpt><trkpt lat="43.7202667" lon="11.5849583"><ele>1444.1999999999998</ele><time>2026-05-02T14:59:56.041Z</time></trkpt><trkpt lat="43.7202617" lon="11.5851233"><ele>1442.8</ele><time>2026-05-02T14:59:57.04Z</time></trkpt><trkpt lat="43.720255" lon="11.58527"><ele>1441.4</ele><time>2026-05-02T14:59:58.039Z</time></trkpt><trkpt lat="43.72023" lon="11.585405"><ele>1440.0</ele><time>2026-05-02T14:59:59.039Z</time></trkpt><trkpt lat="43.72018" lon="11.5855117"><ele>1440.0</ele><time>2026-05-02T15:00:00.04Z</time></trkpt><trkpt lat="43.7200933" lon="11.585585"><ele>1440.0</ele><time>2026-05-02T15:00:01.041Z</time></trkpt><trkpt lat="43.7200167" lon="11.58565"><ele>1440.0</ele><time>2026-05-02T15:00:02.04Z</time></trkpt><trkpt lat="43.7199083" lon="11.5856817"><ele>1440.0</ele><time>2026-05-02T15:00:03.038Z</time></trkpt><trkpt lat="43.7197933" lon="11.5857083"><ele>1440.0</ele><time>2026-05-02T15:00:04.039Z</time></trkpt><trkpt lat="43.71967" lon="11.5857217"><ele>1440.0</ele><time>2026-05-02T15:00:05.04Z</time></trkpt><trkpt lat="43.7195467" lon="11.5857617"><ele>1440.0</ele><time>2026-05-02T15:00:06.039Z</time></trkpt><trkpt lat="43.7194217" lon="11.5858067"><ele>1440.0</ele><time>2026-05-02T15:00:07.04Z</time></trkpt><trkpt lat="43.7193067" lon="11.5858767"><ele>1440.0</ele><time>2026-05-02T15:00:08.041Z</time></trkpt><trkpt lat="43.7192" lon="11.58594"><ele>1440.6</ele><time>2026-05-02T15:00:09.039Z</time></trkpt><trkpt lat="43.7191017" lon="11.5860083"><ele>1441.2</ele><time>2026-05-02T15:00:10.039Z</time></trkpt><trkpt lat="43.71901" lon="11.58608"><ele>1441.8000000000002</ele><time>2026-05-02T15:00:11.039Z</time></trkpt><trkpt lat="43.7189217" lon="11.5861583"><ele>1442.4</ele><time>2026-05-02T15:00:12.039Z</time></trkpt><trkpt lat="43.7188467" lon="11.5862533"><ele>1443.0</ele><time>2026-05-02T15:00:13.04Z</time></trkpt><trkpt lat="43.718785" lon="11.58636"><ele>1440.0</ele><time>2026-05-02T15:00:14.041Z</time></trkpt><trkpt lat="43.7187433" lon="11.58648"><ele>1437.0</ele><time>2026-05-02T15:00:15.041Z</time></trkpt><trkpt lat="43.718725" lon="11.58662"><ele>1434.0</ele><time>2026-05-02T15:00:16.04Z</time></trkpt><trkpt lat="43.7187317" lon="11.5867633"><ele>1431.0</ele><time>2026-05-02T15:00:17.039Z</time></trkpt><trkpt lat="43.71876" lon="11.58691"><ele>1428.0</ele><time>2026-05-02T15:00:18.039Z</time></trkpt><trkpt lat="43.7188033" lon="11.5870467"><ele>1426.6000000000001</ele><time>2026-05-02T15:00:19.039Z</time></trkpt><trkpt lat="43.718845" lon="11.5871883"><ele>1425.2</ele><time>2026-05-02T15:00:20.041Z</time></trkpt><trkpt lat="43.7188917" lon="11.587335"><ele>1423.8</ele><time>2026-05-02T15:00:21.037Z</time></trkpt><trkpt lat="43.7189367" lon="11.587475"><ele>1422.4</ele><time>2026-05-02T15:00:22.039Z</time></trkpt><trkpt lat="43.71898" lon="11.587615"><ele>1421.0</ele><time>2026-05-02T15:00:23.039Z</time></trkpt><trkpt lat="43.7189983" lon="11.5877567"><ele>1420.0</ele><time>2026-05-02T15:00:24.039Z</time></trkpt><trkpt lat="43.7189983" lon="11.5878983"><ele>1419.0</ele><time>2026-05-02T15:00:25.04Z</time></trkpt><trkpt lat="43.71898" lon="11.58803"><ele>1418.0</ele><time>2026-05-02T15:00:26.04Z</time></trkpt><trkpt lat="43.718945" lon="11.58816"><ele>1417.0</ele><time>2026-05-02T15:00:27.04Z</time></trkpt><trkpt lat="43.7189017" lon="11.5882933"><ele>1416.0</ele><time>2026-05-02T15:00:28.038Z</time></trkpt><trkpt lat="43.7188567" lon="11.5884283"><ele>1416.0</ele><time>2026-05-02T15:00:29.039Z</time></trkpt><trkpt lat="43.718815" lon="11.5885667"><ele>1416.0</ele><time>2026-05-02T15:00:30.039Z</time></trkpt><trkpt lat="43.71879" lon="11.5887067"><ele>1416.0</ele><time>2026-05-02T15:00:31.041Z</time></trkpt><trkpt lat="43.7187933" lon="11.58885"><ele>1416.0</ele><time>2026-05-02T15:00:32.041Z</time></trkpt><trkpt lat="43.7188217" lon="11.5889883"><ele>1416.0</ele><time>2026-05-02T15:00:33.04Z</time></trkpt><trkpt lat="43.7188733" lon="11.5891317"><ele>1415.5</ele><time>2026-05-02T15:00:34.039Z</time></trkpt><trkpt lat="43.71894" lon="11.5892817"><ele>1415.0</ele><time>2026-05-02T15:00:35.042Z</time></trkpt><trkpt lat="43.7190183" lon="11.5894367"><ele>1414.5</ele><time>2026-05-02T15:00:36.041Z</time></trkpt><trkpt lat="43.7190967" lon="11.5895917"><ele>1414.0</ele><time>2026-05-02T15:00:37.041Z</time></trkpt><trkpt lat="43.7191683" lon="11.5897467"><ele>1414.0</ele><time>2026-05-02T15:00:38.041Z</time></trkpt><trkpt lat="43.7192217" lon="11.58991"><ele>1414.0</ele><time>2026-05-02T15:00:39.04Z</time></trkpt><trkpt lat="43.7192683" lon="11.59007"><ele>1414.0</ele><time>2026-05-02T15:00:40.039Z</time></trkpt><trkpt lat="43.7193017" lon="11.5902283"><ele>1414.0</ele><time>2026-05-02T15:00:41.04Z</time></trkpt><trkpt lat="43.7193383" lon="11.5903833"><ele>1413.5</ele><time>2026-05-02T15:00:42.037Z</time></trkpt><trkpt lat="43.71937" lon="11.590535"><ele>1413.0</ele><time>2026-05-02T15:00:43.039Z</time></trkpt><trkpt lat="43.7194033" lon="11.59069"><ele>1412.5</ele><time>2026-05-02T15:00:44.04Z</time></trkpt><trkpt lat="43.7194333" lon="11.59085"><ele>1412.0</ele><time>2026-05-02T15:00:45.038Z</time></trkpt><trkpt lat="43.719465" lon="11.5910083"><ele>1405.25</ele><time>2026-05-02T15:00:46.038Z</time></trkpt><trkpt lat="43.719495" lon="11.5911733"><ele>1398.5</ele><time>2026-05-02T15:00:47.04Z</time></trkpt><trkpt lat="43.7195217" lon="11.5913383"><ele>1391.75</ele><time>2026-05-02T15:00:48.039Z</time></trkpt><trkpt lat="43.7195433" lon="11.5915017"><ele>1385.0</ele><time>2026-05-02T15:00:49.039Z</time></trkpt><trkpt lat="43.7195667" lon="11.59166"><ele>1385.0</ele><time>2026-05-02T15:00:50.041Z</time></trkpt><trkpt lat="43.7195883" lon="11.5918067"><ele>1385.0</ele><time>2026-05-02T15:00:51.038Z</time></trkpt><trkpt lat="43.7196067" lon="11.591935"><ele>1385.0</ele><time>2026-05-02T15:00:52.039Z</time></trkpt><trkpt lat="43.7196167" lon="11.5920417"><ele>1385.0</ele><time>2026-05-02T15:00:53.039Z</time></trkpt><trkpt lat="43.71962" lon="11.592135"><ele>1385.0</ele><time>2026-05-02T15:00:54.038Z</time></trkpt><trkpt lat="43.7195783" lon="11.5922817"><ele>1385.4</ele><time>2026-05-02T15:00:56.042Z</time></trkpt><trkpt lat="43.7195267" lon="11.5923917"><ele>1385.8</ele><time>2026-05-02T15:00:58.039Z</time></trkpt><trkpt lat="43.7195467" lon="11.5924983"><ele>1386.1999999999998</ele><time>2026-05-02T15:01:02.041Z</time></trkpt><trkpt lat="43.719625" lon="11.5925333"><ele>1386.6</ele><time>2026-05-02T15:01:04.028Z</time></trkpt><trkpt lat="43.7197583" lon="11.5925833"><ele>1387.0</ele><time>2026-05-02T15:01:06.038Z</time></trkpt><trkpt lat="43.7198367" lon="11.5926067"><ele>1387.0</ele><time>2026-05-02T15:01:07.04Z</time></trkpt><trkpt lat="43.7199133" lon="11.5926233"><ele>1387.0</ele><time>2026-05-02T15:01:08.04Z</time></trkpt><trkpt lat="43.72003" lon="11.5926083"><ele>1387.0</ele><time>2026-05-02T15:01:10.039Z</time></trkpt><trkpt lat="43.7201017" lon="11.5925317"><ele>1387.0</ele><time>2026-05-02T15:01:12.041Z</time></trkpt><trkpt lat="43.7201267" lon="11.5923933"><ele>1387.0</ele><time>2026-05-02T15:01:14.04Z</time></trkpt><trkpt lat="43.7201517" lon="11.5923083"><ele>1387.0</ele><time>2026-05-02T15:01:15.038Z</time></trkpt><trkpt lat="43.7201817" lon="11.592225"><ele>1387.0</ele><time>2026-05-02T15:01:16.038Z</time></trkpt><trkpt lat="43.7202533" lon="11.5920933"><ele>1387.0</ele><time>2026-05-02T15:01:18.039Z</time></trkpt><trkpt lat="43.72031" lon="11.5919917"><ele>1387.0</ele><time>2026-05-02T15:01:20.04Z</time></trkpt><trkpt lat="43.720295" lon="11.5918967"><ele>1387.0</ele><time>2026-05-02T15:01:22.04Z</time></trkpt><trkpt lat="43.720295" lon="11.5917817"><ele>1387.0</ele><time>2026-05-02T15:01:24.038Z</time></trkpt><trkpt lat="43.7203" lon="11.5916733"><ele>1382.6</ele><time>2026-05-02T15:01:26.04Z</time></trkpt><trkpt lat="43.7203" lon="11.59155"><ele>1378.1999999999998</ele><time>2026-05-02T15:01:28.038Z</time></trkpt><trkpt lat="43.7202933" lon="11.5914417"><ele>1373.8</ele><time>2026-05-02T15:01:30.039Z</time></trkpt><trkpt lat="43.7202783" lon="11.5913133"><ele>1369.4</ele><time>2026-05-02T15:01:32.041Z</time></trkpt><trkpt lat="43.72027" lon="11.5911383"><ele>1365.0</ele><time>2026-05-02T15:01:34.038Z</time></trkpt><trkpt lat="43.720275" lon="11.591025"><ele>1365.6666666666667</ele><time>2026-05-02T15:01:35.039Z</time></trkpt><trkpt lat="43.7202633" lon="11.5908967"><ele>1366.3333333333333</ele><time>2026-05-02T15:01:36.038Z</time></trkpt><trkpt lat="43.7202583" lon="11.59077"><ele>1367.0</ele><time>2026-05-02T15:01:37.039Z</time></trkpt><trkpt lat="43.7202483" lon="11.5906417"><ele>1367.6666666666665</ele><time>2026-05-02T15:01:38.04Z</time></trkpt><trkpt lat="43.720245" lon="11.5905267"><ele>1368.3333333333333</ele><time>2026-05-02T15:01:39.028Z</time></trkpt><trkpt lat="43.7202467" lon="11.5904267"><ele>1369.0</ele><time>2026-05-02T15:01:40.038Z</time></trkpt><trkpt lat="43.72024" lon="11.59033"><ele>1369.0</ele><time>2026-05-02T15:01:41.04Z</time></trkpt><trkpt lat="43.7202267" lon="11.5901617"><ele>1369.0</ele><time>2026-05-02T15:01:43.04Z</time></trkpt><trkpt lat="43.720245" lon="11.59004"><ele>1369.0</ele><time>2026-05-02T15:01:45.039Z</time></trkpt><trkpt lat="43.72033" lon="11.5899983"><ele>1369.0</ele><time>2026-05-02T15:01:48.04Z</time></trkpt><trkpt lat="43.7204367" lon="11.58996"><ele>1369.0</ele><time>2026-05-02T15:01:50.04Z</time></trkpt><trkpt lat="43.72052" lon="11.5899483"><ele>1369.0</ele><time>2026-05-02T15:01:51.037Z</time></trkpt><trkpt lat="43.72059" lon="11.5899383"><ele>1369.0</ele><time>2026-05-02T15:01:52.039Z</time></trkpt><trkpt lat="43.720655" lon="11.5899383"><ele>1369.0</ele><time>2026-05-02T15:01:53.039Z</time></trkpt><trkpt lat="43.7207517" lon="11.58991"><ele>1369.0</ele><time>2026-05-02T15:01:55.041Z</time></trkpt><trkpt lat="43.720805" lon="11.589845"><ele>1369.0</ele><time>2026-05-02T15:01:57.037Z</time></trkpt><trkpt lat="43.72088" lon="11.5898367"><ele>1369.0</ele><time>2026-05-02T15:02:00.039Z</time></trkpt><trkpt lat="43.7209717" lon="11.589945"><ele>1367.0</ele><time>2026-05-02T15:02:02.042Z</time></trkpt><trkpt lat="43.7210833" lon="11.5900067"><ele>1365.0</ele><time>2026-05-02T15:02:04.039Z</time></trkpt><trkpt lat="43.7211433" lon="11.59004"><ele>1363.0</ele><time>2026-05-02T15:02:05.039Z</time></trkpt><trkpt lat="43.72125" lon="11.5901067"><ele>1361.0</ele><time>2026-05-02T15:02:07.041Z</time></trkpt><trkpt lat="43.72138" lon="11.5901317"><ele>1359.0</ele><time>2026-05-02T15:02:09.039Z</time></trkpt><trkpt lat="43.7214567" lon="11.5901583"><ele>1359.0</ele><time>2026-05-02T15:02:10.04Z</time></trkpt><trkpt lat="43.7215283" lon="11.5901817"><ele>1359.0</ele><time>2026-05-02T15:02:11.039Z</time></trkpt><trkpt lat="43.7216117" lon="11.5901967"><ele>1359.0</ele><time>2026-05-02T15:02:12.04Z</time></trkpt><trkpt lat="43.7216833" lon="11.5902083"><ele>1359.0</ele><time>2026-05-02T15:02:13.039Z</time></trkpt><trkpt lat="43.721755" lon="11.5902183"><ele>1359.0</ele><time>2026-05-02T15:02:14.04Z</time></trkpt><trkpt lat="43.72183" lon="11.590215"><ele>1359.0</ele><time>2026-05-02T15:02:15.038Z</time></trkpt><trkpt lat="43.7219133" lon="11.590195"><ele>1357.5714285714287</ele><time>2026-05-02T15:02:16.039Z</time></trkpt><trkpt lat="43.7219883" lon="11.590155"><ele>1356.142857142857</ele><time>2026-05-02T15:02:17.04Z</time></trkpt><trkpt lat="43.72206" lon="11.5901117"><ele>1354.7142857142858</ele><time>2026-05-02T15:02:18.04Z</time></trkpt><trkpt lat="43.7221217" lon="11.59009"><ele>1353.2857142857142</ele><time>2026-05-02T15:02:19.039Z</time></trkpt><trkpt lat="43.7221917" lon="11.5900833"><ele>1351.857142857143</ele><time>2026-05-02T15:02:20.04Z</time></trkpt><trkpt lat="43.722265" lon="11.59008"><ele>1350.4285714285713</ele><time>2026-05-02T15:02:21.039Z</time></trkpt><trkpt lat="43.7223317" lon="11.5900783"><ele>1349.0</ele><time>2026-05-02T15:02:22.038Z</time></trkpt><trkpt lat="43.722445" lon="11.590045"><ele>1349.0</ele><time>2026-05-02T15:02:24.04Z</time></trkpt><trkpt lat="43.7225117" lon="11.5900567"><ele>1349.0</ele><time>2026-05-02T15:02:26.041Z</time></trkpt><trkpt lat="43.7225783" lon="11.5901617"><ele>1349.0</ele><time>2026-05-02T15:02:28.039Z</time></trkpt><trkpt lat="43.7226283" lon="11.59028"><ele>1349.0</ele><time>2026-05-02T15:02:30.04Z</time></trkpt><trkpt lat="43.7226683" lon="11.590405"><ele>1349.0</ele><time>2026-05-02T15:02:32.039Z</time></trkpt><trkpt lat="43.7227033" lon="11.5905317"><ele>1348.2</ele><time>2026-05-02T15:02:34.029Z</time></trkpt><trkpt lat="43.7227483" lon="11.5906633"><ele>1347.4</ele><time>2026-05-02T15:02:36.041Z</time></trkpt><trkpt lat="43.7227283" lon="11.5908117"><ele>1346.6</ele><time>2026-05-02T15:02:38.041Z</time></trkpt><trkpt lat="43.722715" lon="11.590955"><ele>1345.8</ele><time>2026-05-02T15:02:40.029Z</time></trkpt><trkpt lat="43.722725" lon="11.59111"><ele>1345.0</ele><time>2026-05-02T15:02:42.039Z</time></trkpt><trkpt lat="43.7227717" lon="11.5912533"><ele>1339.5</ele><time>2026-05-02T15:02:44.04Z</time></trkpt><trkpt lat="43.7228117" lon="11.5913967"><ele>1334.0</ele><time>2026-05-02T15:02:46.04Z</time></trkpt><trkpt lat="43.7228567" lon="11.59151"><ele>1328.5</ele><time>2026-05-02T15:02:48.04Z</time></trkpt><trkpt lat="43.722895" lon="11.5916033"><ele>1323.0</ele><time>2026-05-02T15:02:50.042Z</time></trkpt><trkpt lat="43.722965" lon="11.5916633"><ele>1317.5</ele><time>2026-05-02T15:02:54.039Z</time></trkpt><trkpt lat="43.723035" lon="11.591705"><ele>1312.0</ele><time>2026-05-02T15:02:56.04Z</time></trkpt><trkpt lat="43.7231233" lon="11.5917783"><ele>1312.0</ele><time>2026-05-02T15:02:58.039Z</time></trkpt><trkpt lat="43.723185" lon="11.591815"><ele>1312.0</ele><time>2026-05-02T15:02:59.041Z</time></trkpt><trkpt lat="43.72325" lon="11.5918467"><ele>1312.0</ele><time>2026-05-02T15:03:00.04Z</time></trkpt><trkpt lat="43.7233183" lon="11.59189"><ele>1312.0</ele><time>2026-05-02T15:03:01.039Z</time></trkpt><trkpt lat="43.7233917" lon="11.5919517"><ele>1312.0</ele><time>2026-05-02T15:03:02.041Z</time></trkpt><trkpt lat="43.72346" lon="11.5920233"><ele>1312.0</ele><time>2026-05-02T15:03:03.038Z</time></trkpt><trkpt lat="43.7235317" lon="11.59209"><ele>1308.6666666666665</ele><time>2026-05-02T15:03:04.039Z</time></trkpt><trkpt lat="43.7235967" lon="11.5921433"><ele>1305.3333333333333</ele><time>2026-05-02T15:03:05.04Z</time></trkpt><trkpt lat="43.7236817" lon="11.5922083"><ele>1302.0</ele><time>2026-05-02T15:03:06.04Z</time></trkpt><trkpt lat="43.7237733" lon="11.5922617"><ele>1298.6666666666667</ele><time>2026-05-02T15:03:07.04Z</time></trkpt><trkpt lat="43.7238433" lon="11.59232"><ele>1295.3333333333335</ele><time>2026-05-02T15:03:08.041Z</time></trkpt><trkpt lat="43.72392" lon="11.5923817"><ele>1292.0</ele><time>2026-05-02T15:03:09.039Z</time></trkpt><trkpt lat="43.7239767" lon="11.59247"><ele>1292.0</ele><time>2026-05-02T15:03:10.039Z</time></trkpt><trkpt lat="43.7240317" lon="11.5925567"><ele>1292.0</ele><time>2026-05-02T15:03:11.041Z</time></trkpt><trkpt lat="43.72407" lon="11.5926517"><ele>1292.0</ele><time>2026-05-02T15:03:12.04Z</time></trkpt><trkpt lat="43.7241083" lon="11.5927533"><ele>1292.0</ele><time>2026-05-02T15:03:13.039Z</time></trkpt><trkpt lat="43.7241533" lon="11.59286"><ele>1292.0</ele><time>2026-05-02T15:03:14.041Z</time></trkpt><trkpt lat="43.7241983" lon="11.592965"><ele>1292.0</ele><time>2026-05-02T15:03:15.039Z</time></trkpt><trkpt lat="43.7242517" lon="11.5930667"><ele>1291.3333333333335</ele><time>2026-05-02T15:03:16.04Z</time></trkpt><trkpt lat="43.724315" lon="11.5931583"><ele>1290.6666666666667</ele><time>2026-05-02T15:03:17.039Z</time></trkpt><trkpt lat="43.724385" lon="11.5932417"><ele>1290.0</ele><time>2026-05-02T15:03:18.04Z</time></trkpt><trkpt lat="43.724455" lon="11.5933183"><ele>1289.3333333333333</ele><time>2026-05-02T15:03:19.04Z</time></trkpt><trkpt lat="43.7245267" lon="11.5933817"><ele>1288.6666666666665</ele><time>2026-05-02T15:03:20.042Z</time></trkpt><trkpt lat="43.7245967" lon="11.59345"><ele>1288.0</ele><time>2026-05-02T15:03:21.039Z</time></trkpt><trkpt lat="43.7246683" lon="11.59352"><ele>1286.5</ele><time>2026-05-02T15:03:22.041Z</time></trkpt><trkpt lat="43.7247367" lon="11.5935983"><ele>1285.0</ele><time>2026-05-02T15:03:23.04Z</time></trkpt><trkpt lat="43.72479" lon="11.5936767"><ele>1283.5</ele><time>2026-05-02T15:03:24.04Z</time></trkpt><trkpt lat="43.7248483" lon="11.5937467"><ele>1282.0</ele><time>2026-05-02T15:03:25.04Z</time></trkpt><trkpt lat="43.7248983" lon="11.5938067"><ele>1280.5</ele><time>2026-05-02T15:03:26.041Z</time></trkpt><trkpt lat="43.725" lon="11.5939"><ele>1279.0</ele><time>2026-05-02T15:03:28.04Z</time></trkpt><trkpt lat="43.7250567" lon="11.5939533"><ele>1278.5</ele><time>2026-05-02T15:03:29.04Z</time></trkpt><trkpt lat="43.7251133" lon="11.5940167"><ele>1278.0</ele><time>2026-05-02T15:03:30.039Z</time></trkpt><trkpt lat="43.7251617" lon="11.594085"><ele>1277.5</ele><time>2026-05-02T15:03:31.04Z</time></trkpt><trkpt lat="43.7252017" lon="11.5942117"><ele>1277.0</ele><time>2026-05-02T15:03:33.038Z</time></trkpt><trkpt lat="43.7252317" lon="11.59435"><ele>1276.5</ele><time>2026-05-02T15:03:35.04Z</time></trkpt><trkpt lat="43.7252783" lon="11.5944767"><ele>1276.0</ele><time>2026-05-02T15:03:37.041Z</time></trkpt><trkpt lat="43.7253117" lon="11.5945917"><ele>1271.8333333333333</ele><time>2026-05-02T15:03:39.039Z</time></trkpt><trkpt lat="43.7253367" lon="11.5947267"><ele>1267.6666666666665</ele><time>2026-05-02T15:03:41.04Z</time></trkpt><trkpt lat="43.7253883" lon="11.5948033"><ele>1263.5</ele><time>2026-05-02T15:03:44.04Z</time></trkpt><trkpt lat="43.7254433" lon="11.594915"><ele>1259.3333333333333</ele><time>2026-05-02T15:03:48.028Z</time></trkpt><trkpt lat="43.7254867" lon="11.5950367"><ele>1255.1666666666667</ele><time>2026-05-02T15:03:50.04Z</time></trkpt><trkpt lat="43.725505" lon="11.5951283"><ele>1251.0</ele><time>2026-05-02T15:03:51.037Z</time></trkpt><trkpt lat="43.7255167" lon="11.5952467"><ele>1249.6666666666667</ele><time>2026-05-02T15:03:53.04Z</time></trkpt><trkpt lat="43.72552" lon="11.595365"><ele>1248.3333333333333</ele><time>2026-05-02T15:03:55.04Z</time></trkpt><trkpt lat="43.72555" lon="11.595455"><ele>1247.0</ele><time>2026-05-02T15:03:57.037Z</time></trkpt><trkpt lat="43.7256117" lon="11.59551"><ele>1245.6666666666665</ele><time>2026-05-02T15:03:59.039Z</time></trkpt><trkpt lat="43.7257017" lon="11.5955817"><ele>1244.3333333333333</ele><time>2026-05-02T15:04:01.039Z</time></trkpt><trkpt lat="43.7257567" lon="11.59567"><ele>1243.0</ele><time>2026-05-02T15:04:03.039Z</time></trkpt><trkpt lat="43.7258" lon="11.5957683"><ele>1243.0</ele><time>2026-05-02T15:04:05.04Z</time></trkpt><trkpt lat="43.7258567" lon="11.5958733"><ele>1243.0</ele><time>2026-05-02T15:04:07.043Z</time></trkpt><trkpt lat="43.7258983" lon="11.595975"><ele>1243.0</ele><time>2026-05-02T15:04:09.04Z</time></trkpt><trkpt lat="43.7259183" lon="11.5960667"><ele>1243.0</ele><time>2026-05-02T15:04:11.039Z</time></trkpt><trkpt lat="43.725915" lon="11.5961583"><ele>1243.0</ele><time>2026-05-02T15:04:13.038Z</time></trkpt><trkpt lat="43.7259367" lon="11.596255"><ele>1243.0</ele><time>2026-05-02T15:04:15.038Z</time></trkpt><trkpt lat="43.72598" lon="11.5963433"><ele>1241.5</ele><time>2026-05-02T15:04:17.039Z</time></trkpt><trkpt lat="43.7260333" lon="11.5964333"><ele>1240.0</ele><time>2026-05-02T15:04:19.039Z</time></trkpt><trkpt lat="43.7260817" lon="11.5965033"><ele>1238.5</ele><time>2026-05-02T15:04:21.037Z</time></trkpt><trkpt lat="43.7261433" lon="11.5965583"><ele>1237.0</ele><time>2026-05-02T15:04:23.038Z</time></trkpt><trkpt lat="43.7262067" lon="11.5965983"><ele>1235.5</ele><time>2026-05-02T15:04:26.041Z</time></trkpt><trkpt lat="43.7262357" lon="11.5967166"><ele>1234.0</ele><time>2026-05-02T15:04:30.148Z</time></trkpt><trkpt lat="43.7262704" lon="11.5968474"><ele>1232.0</ele><time>2026-05-02T15:04:33.138Z</time></trkpt><trkpt lat="43.7263276" lon="11.5969308"><ele>1230.0</ele><time>2026-05-02T15:04:35.14Z</time></trkpt><trkpt lat="43.7264117" lon="11.5970217"><ele>1228.0</ele><time>2026-05-02T15:04:38.042Z</time></trkpt><trkpt lat="43.7264417" lon="11.597105"><ele>1226.0</ele><time>2026-05-02T15:04:40.04Z</time></trkpt><trkpt lat="43.7265017" lon="11.5971733"><ele>1224.0</ele><time>2026-05-02T15:04:42.039Z</time></trkpt><trkpt lat="43.7265417" lon="11.59728"><ele>1222.0</ele><time>2026-05-02T15:04:44.04Z</time></trkpt><trkpt lat="43.7266233" lon="11.5973967"><ele>1220.2</ele><time>2026-05-02T15:04:46.039Z</time></trkpt><trkpt lat="43.72667" lon="11.5975167"><ele>1218.4</ele><time>2026-05-02T15:04:48.038Z</time></trkpt><trkpt lat="43.7267433" lon="11.5975983"><ele>1216.6</ele><time>2026-05-02T15:04:50.04Z</time></trkpt><trkpt lat="43.726845" lon="11.5977233"><ele>1214.8</ele><time>2026-05-02T15:04:52.04Z</time></trkpt><trkpt lat="43.7268833" lon="11.597805"><ele>1213.0</ele><time>2026-05-02T15:04:53.04Z</time></trkpt><trkpt lat="43.7269233" lon="11.59788"><ele>1209.8333333333333</ele><time>2026-05-02T15:04:54.039Z</time></trkpt><trkpt lat="43.7269683" lon="11.597955"><ele>1206.6666666666665</ele><time>2026-05-02T15:04:55.04Z</time></trkpt><trkpt lat="43.7270233" lon="11.5980133"><ele>1203.5</ele><time>2026-05-02T15:04:56.041Z</time></trkpt><trkpt lat="43.7271017" lon="11.5981517"><ele>1200.3333333333333</ele><time>2026-05-02T15:04:58.039Z</time></trkpt><trkpt lat="43.7271417" lon="11.59825"><ele>1197.1666666666667</ele><time>2026-05-02T15:04:59.04Z</time></trkpt><trkpt lat="43.727175" lon="11.5983567"><ele>1194.0</ele><time>2026-05-02T15:05:00.039Z</time></trkpt><trkpt lat="43.7272083" lon="11.5984583"><ele>1194.0</ele><time>2026-05-02T15:05:01.039Z</time></trkpt><trkpt lat="43.7272467" lon="11.5985433"><ele>1194.0</ele><time>2026-05-02T15:05:02.042Z</time></trkpt><trkpt lat="43.727295" lon="11.5986833"><ele>1194.0</ele><time>2026-05-02T15:05:04.039Z</time></trkpt><trkpt lat="43.727315" lon="11.5988467"><ele>1194.0</ele><time>2026-05-02T15:05:06.04Z</time></trkpt><trkpt lat="43.7273483" lon="11.598995"><ele>1194.0</ele><time>2026-05-02T15:05:08.04Z</time></trkpt><trkpt lat="43.7273383" lon="11.5991117"><ele>1194.0</ele><time>2026-05-02T15:05:10.039Z</time></trkpt><trkpt lat="43.727315" lon="11.59924"><ele>1194.0</ele><time>2026-05-02T15:05:12.039Z</time></trkpt><trkpt lat="43.7272833" lon="11.599395"><ele>1194.0</ele><time>2026-05-02T15:05:14.041Z</time></trkpt><trkpt lat="43.727275" lon="11.5994833"><ele>1194.0</ele><time>2026-05-02T15:05:15.038Z</time></trkpt><trkpt lat="43.7272917" lon="11.5996333"><ele>1194.0</ele><time>2026-05-02T15:05:17.039Z</time></trkpt><trkpt lat="43.7273133" lon="11.5997333"><ele>1193.5</ele><time>2026-05-02T15:05:18.04Z</time></trkpt><trkpt lat="43.7273317" lon="11.599835"><ele>1193.0</ele><time>2026-05-02T15:05:19.042Z</time></trkpt><trkpt lat="43.727345" lon="11.5999483"><ele>1192.5</ele><time>2026-05-02T15:05:20.043Z</time></trkpt><trkpt lat="43.7273583" lon="11.6000583"><ele>1192.0</ele><time>2026-05-02T15:05:21.038Z</time></trkpt><trkpt lat="43.72737" lon="11.6001533"><ele>1191.5</ele><time>2026-05-02T15:05:22.038Z</time></trkpt><trkpt lat="43.727385" lon="11.600285"><ele>1191.0</ele><time>2026-05-02T15:05:24.04Z</time></trkpt><trkpt lat="43.7273817" lon="11.6004017"><ele>1189.0</ele><time>2026-05-02T15:05:27.039Z</time></trkpt><trkpt lat="43.7273567" lon="11.6005283"><ele>1187.0</ele><time>2026-05-02T15:05:30.039Z</time></trkpt><trkpt lat="43.727355" lon="11.60065"><ele>1185.0</ele><time>2026-05-02T15:05:33.039Z</time></trkpt><trkpt lat="43.7273467" lon="11.6007633"><ele>1183.0</ele><time>2026-05-02T15:05:35.04Z</time></trkpt><trkpt lat="43.727325" lon="11.6008633"><ele>1181.0</ele><time>2026-05-02T15:05:37.039Z</time></trkpt><trkpt lat="43.7273483" lon="11.6009933"><ele>1179.0</ele><time>2026-05-02T15:05:40.04Z</time></trkpt><trkpt lat="43.7273683" lon="11.6010883"><ele>1176.8333333333333</ele><time>2026-05-02T15:05:42.038Z</time></trkpt><trkpt lat="43.727365" lon="11.601185"><ele>1174.6666666666667</ele><time>2026-05-02T15:05:44.04Z</time></trkpt><trkpt lat="43.7273633" lon="11.601285"><ele>1172.5</ele><time>2026-05-02T15:05:46.041Z</time></trkpt><trkpt lat="43.72738" lon="11.6013867"><ele>1170.3333333333335</ele><time>2026-05-02T15:05:48.039Z</time></trkpt><trkpt lat="43.727385" lon="11.6015083"><ele>1168.1666666666667</ele><time>2026-05-02T15:05:51.038Z</time></trkpt><trkpt lat="43.7274133" lon="11.6016133"><ele>1166.0</ele><time>2026-05-02T15:05:54.038Z</time></trkpt><trkpt lat="43.727435" lon="11.6017167"><ele>1166.0</ele><time>2026-05-02T15:05:56.04Z</time></trkpt><trkpt lat="43.72747" lon="11.6018083"><ele>1166.0</ele><time>2026-05-02T15:05:58.039Z</time></trkpt><trkpt lat="43.7275283" lon="11.6018817"><ele>1166.0</ele><time>2026-05-02T15:06:00.038Z</time></trkpt><trkpt lat="43.7275983" lon="11.602"><ele>1166.0</ele><time>2026-05-02T15:06:02.04Z</time></trkpt><trkpt lat="43.7276583" lon="11.602115"><ele>1166.0</ele><time>2026-05-02T15:06:04.038Z</time></trkpt><trkpt lat="43.727705" lon="11.6022033"><ele>1166.0</ele><time>2026-05-02T15:06:06.039Z</time></trkpt><trkpt lat="43.7277333" lon="11.6023567"><ele>1162.3333333333335</ele><time>2026-05-02T15:06:26.041Z</time></trkpt><trkpt lat="43.7277867" lon="11.6022833"><ele>1158.6666666666667</ele><time>2026-05-02T15:06:35.031Z</time></trkpt><trkpt lat="43.7278333" lon="11.6021933"><ele>1155.0</ele><time>2026-05-02T15:06:37.041Z</time></trkpt><trkpt lat="43.7278883" lon="11.6021083"><ele>1151.3333333333333</ele><time>2026-05-02T15:06:39.038Z</time></trkpt><trkpt lat="43.72796" lon="11.6020783"><ele>1147.6666666666665</ele><time>2026-05-02T15:06:41.041Z</time></trkpt><trkpt lat="43.7280417" lon="11.6020917"><ele>1144.0</ele><time>2026-05-02T15:06:43.039Z</time></trkpt><trkpt lat="43.7282183" lon="11.60211"><ele>1144.0</ele><time>2026-05-02T15:06:54.039Z</time></trkpt><trkpt lat="43.7282933" lon="11.6021167"><ele>1144.0</ele><time>2026-05-02T15:06:57.039Z</time></trkpt><trkpt lat="43.7283633" lon="11.6020517"><ele>1144.0</ele><time>2026-05-02T15:07:00.04Z</time></trkpt><trkpt lat="43.7283617" lon="11.6019617"><ele>1144.0</ele><time>2026-05-02T15:07:02.041Z</time></trkpt><trkpt lat="43.7283767" lon="11.6018683"><ele>1144.0</ele><time>2026-05-02T15:07:04.03Z</time></trkpt><trkpt lat="43.728455" lon="11.6017383"><ele>1144.0</ele><time>2026-05-02T15:07:06.041Z</time></trkpt><trkpt lat="43.72852" lon="11.6016417"><ele>1141.0</ele><time>2026-05-02T15:07:07.041Z</time></trkpt><trkpt lat="43.7285617" lon="11.6015667"><ele>1138.0</ele><time>2026-05-02T15:07:08.041Z</time></trkpt><trkpt lat="43.7286133" lon="11.6014833"><ele>1135.0</ele><time>2026-05-02T15:07:09.038Z</time></trkpt><trkpt lat="43.7286617" lon="11.6014033"><ele>1132.0</ele><time>2026-05-02T15:07:10.04Z</time></trkpt><trkpt lat="43.7287283" lon="11.6013283"><ele>1129.0</ele><time>2026-05-02T15:07:11.04Z</time></trkpt><trkpt lat="43.7288017" lon="11.6012633"><ele>1126.0</ele><time>2026-05-02T15:07:12.04Z</time></trkpt><trkpt lat="43.7288533" lon="11.6012017"><ele>1126.8</ele><time>2026-05-02T15:07:13.038Z</time></trkpt><trkpt lat="43.728905" lon="11.6011483"><ele>1127.6</ele><time>2026-05-02T15:07:14.041Z</time></trkpt><trkpt lat="43.729015" lon="11.6010917"><ele>1128.4</ele><time>2026-05-02T15:07:16.037Z</time></trkpt><trkpt lat="43.7290967" lon="11.6011067"><ele>1129.2</ele><time>2026-05-02T15:07:18.039Z</time></trkpt><trkpt lat="43.7291733" lon="11.601095"><ele>1130.0</ele><time>2026-05-02T15:07:22.028Z</time></trkpt><trkpt lat="43.72929" lon="11.6011633"><ele>1130.0</ele><time>2026-05-02T15:08:10.039Z</time></trkpt><trkpt lat="43.7292917" lon="11.6010683"><ele>1130.0</ele><time>2026-05-02T15:08:15.04Z</time></trkpt><trkpt lat="43.7292533" lon="11.6009733"><ele>1130.0</ele><time>2026-05-02T15:08:17.04Z</time></trkpt><trkpt lat="43.7292217" lon="11.6008633"><ele>1130.0</ele><time>2026-05-02T15:08:19.038Z</time></trkpt><trkpt lat="43.7291517" lon="11.60073"><ele>1130.0</ele><time>2026-05-02T15:08:21.039Z</time></trkpt><trkpt lat="43.7290967" lon="11.6005967"><ele>1130.0</ele><time>2026-05-02T15:08:23.04Z</time></trkpt><trkpt lat="43.729055" lon="11.60045"><ele>1130.0</ele><time>2026-05-02T15:08:25.039Z</time></trkpt><trkpt lat="43.7290183" lon="11.6003333"><ele>1130.0</ele><time>2026-05-02T15:08:27.04Z</time></trkpt><trkpt lat="43.729" lon="11.6002217"><ele>1130.0</ele><time>2026-05-02T15:08:29.039Z</time></trkpt><trkpt lat="43.7289733" lon="11.6000917"><ele>1130.0</ele><time>2026-05-02T15:08:31.041Z</time></trkpt><trkpt lat="43.72893" lon="11.599975"><ele>1130.5</ele><time>2026-05-02T15:08:33.04Z</time></trkpt><trkpt lat="43.7288883" lon="11.599815"><ele>1131.0</ele><time>2026-05-02T15:08:35.039Z</time></trkpt><trkpt lat="43.7288767" lon="11.5997133"><ele>1131.5</ele><time>2026-05-02T15:08:36.042Z</time></trkpt><trkpt lat="43.7288717" lon="11.599625"><ele>1132.0</ele><time>2026-05-02T15:08:37.041Z</time></trkpt><trkpt lat="43.72886" lon="11.599535"><ele>1132.5</ele><time>2026-05-02T15:08:38.041Z</time></trkpt><trkpt lat="43.72884" lon="11.5994017"><ele>1133.0</ele><time>2026-05-02T15:08:40.04Z</time></trkpt><trkpt lat="43.728815" lon="11.59931"><ele>1134.2857142857142</ele><time>2026-05-02T15:08:42.039Z</time></trkpt><trkpt lat="43.728775" lon="11.5992317"><ele>1135.5714285714287</ele><time>2026-05-02T15:08:44.042Z</time></trkpt><trkpt lat="43.7287783" lon="11.599115"><ele>1136.857142857143</ele><time>2026-05-02T15:08:47.039Z</time></trkpt><trkpt lat="43.7287933" lon="11.59903"><ele>1138.142857142857</ele><time>2026-05-02T15:08:49.039Z</time></trkpt><trkpt lat="43.7288183" lon="11.5989467"><ele>1139.4285714285713</ele><time>2026-05-02T15:08:52.04Z</time></trkpt><trkpt lat="43.72885" lon="11.5988483"><ele>1140.7142857142858</ele><time>2026-05-02T15:08:55.041Z</time></trkpt><trkpt lat="43.728905" lon="11.59879"><ele>1142.0</ele><time>2026-05-02T15:08:58.041Z</time></trkpt><trkpt lat="43.7289717" lon="11.5987883"><ele>1142.0</ele><time>2026-05-02T15:09:00.038Z</time></trkpt><trkpt lat="43.7290717" lon="11.5987533"><ele>1142.0</ele><time>2026-05-02T15:09:02.041Z</time></trkpt><trkpt lat="43.7291583" lon="11.5987517"><ele>1142.0</ele><time>2026-05-02T15:09:04.039Z</time></trkpt><trkpt lat="43.7292717" lon="11.5987933"><ele>1142.0</ele><time>2026-05-02T15:10:43.041Z</time></trkpt><trkpt lat="43.7292035" lon="11.5987767"><ele>1142.0</ele><time>2026-05-02T15:10:45.064Z</time></trkpt><trkpt lat="43.7292873" lon="11.5988086"><ele>1142.0</ele><time>2026-05-02T15:10:46.065Z</time></trkpt><trkpt lat="43.7293356" lon="11.5988961"><ele>1142.0</ele><time>2026-05-02T15:10:49.068Z</time></trkpt><trkpt lat="43.7293852" lon="11.598958"><ele>1142.0</ele><time>2026-05-02T15:10:51.069Z</time></trkpt><trkpt lat="43.7294583" lon="11.5988939"><ele>1142.0</ele><time>2026-05-02T15:10:54.072Z</time></trkpt><trkpt lat="43.7295233" lon="11.5988167"><ele>1142.0</ele><time>2026-05-02T15:10:56.04Z</time></trkpt><trkpt lat="43.729555" lon="11.5987317"><ele>1142.0</ele><time>2026-05-02T15:10:58.04Z</time></trkpt><trkpt lat="43.72957" lon="11.5985868"><ele>1145.4</ele><time>2026-05-02T15:11:01.08Z</time></trkpt><trkpt lat="43.7296287" lon="11.5984663"><ele>1148.8000000000002</ele><time>2026-05-02T15:11:03.098Z</time></trkpt><trkpt lat="43.7296396" lon="11.598325"><ele>1152.2</ele><time>2026-05-02T15:11:05.04Z</time></trkpt><trkpt lat="43.7296584" lon="11.5981696"><ele>1155.6000000000001</ele><time>2026-05-02T15:11:07.041Z</time></trkpt><trkpt lat="43.7296509" lon="11.598002"><ele>1159.0</ele><time>2026-05-02T15:11:09.042Z</time></trkpt><trkpt lat="43.7295946" lon="11.5978713"><ele>1163.0</ele><time>2026-05-02T15:11:11.041Z</time></trkpt><trkpt lat="43.72954" lon="11.5978228"><ele>1167.0</ele><time>2026-05-02T15:11:12.041Z</time></trkpt><trkpt lat="43.7294387" lon="11.5977213"><ele>1171.0</ele><time>2026-05-02T15:11:14.04Z</time></trkpt><trkpt lat="43.7293836" lon="11.5975682"><ele>1175.0</ele><time>2026-05-02T15:11:16.038Z</time></trkpt><trkpt lat="43.7293555" lon="11.5974852"><ele>1179.0</ele><time>2026-05-02T15:11:17.039Z</time></trkpt><trkpt lat="43.7293164" lon="11.5974047"><ele>1179.0</ele><time>2026-05-02T15:11:18.039Z</time></trkpt><trkpt lat="43.7292597" lon="11.5973268"><ele>1179.0</ele><time>2026-05-02T15:11:19.04Z</time></trkpt><trkpt lat="43.7292035" lon="11.5972479"><ele>1179.0</ele><time>2026-05-02T15:11:20.04Z</time></trkpt><trkpt lat="43.7291572" lon="11.5971713"><ele>1179.0</ele><time>2026-05-02T15:11:21.039Z</time></trkpt><trkpt lat="43.7291118" lon="11.5971064"><ele>1179.0</ele><time>2026-05-02T15:11:22.039Z</time></trkpt><trkpt lat="43.7290376" lon="11.5970341"><ele>1179.0</ele><time>2026-05-02T15:11:24.04Z</time></trkpt><trkpt lat="43.7289769" lon="11.5969827"><ele>1183.4</ele><time>2026-05-02T15:11:26.041Z</time></trkpt><trkpt lat="43.7289253" lon="11.5969104"><ele>1187.8000000000002</ele><time>2026-05-02T15:11:28.04Z</time></trkpt><trkpt lat="43.7288979" lon="11.5967968"><ele>1192.1999999999998</ele><time>2026-05-02T15:11:30.039Z</time></trkpt><trkpt lat="43.7289278" lon="11.5966369"><ele>1196.6</ele><time>2026-05-02T15:11:32.04Z</time></trkpt><trkpt lat="43.7289631" lon="11.5965585"><ele>1201.0</ele><time>2026-05-02T15:11:33.038Z</time></trkpt><trkpt lat="43.729073" lon="11.5964724"><ele>1201.0</ele><time>2026-05-02T15:11:35.04Z</time></trkpt><trkpt lat="43.7291449" lon="11.5964384"><ele>1201.0</ele><time>2026-05-02T15:11:36.039Z</time></trkpt><trkpt lat="43.7292506" lon="11.5963726"><ele>1201.0</ele><time>2026-05-02T15:11:38.041Z</time></trkpt><trkpt lat="43.7293248" lon="11.5962862"><ele>1201.0</ele><time>2026-05-02T15:11:40.039Z</time></trkpt><trkpt lat="43.7294166" lon="11.5961746"><ele>1201.0</ele><time>2026-05-02T15:11:42.038Z</time></trkpt><trkpt lat="43.7294723" lon="11.5961288"><ele>1203.5</ele><time>2026-05-02T15:11:43.039Z</time></trkpt><trkpt lat="43.7295329" lon="11.5960945"><ele>1206.0</ele><time>2026-05-02T15:11:44.042Z</time></trkpt><trkpt lat="43.7295972" lon="11.5960798"><ele>1208.5</ele><time>2026-05-02T15:11:45.029Z</time></trkpt><trkpt lat="43.729662" lon="11.5960622"><ele>1211.0</ele><time>2026-05-02T15:11:46.041Z</time></trkpt><trkpt lat="43.7297253" lon="11.5960371"><ele>1213.5</ele><time>2026-05-02T15:11:47.041Z</time></trkpt><trkpt lat="43.7298135" lon="11.5959883"><ele>1216.0</ele><time>2026-05-02T15:11:49.04Z</time></trkpt><trkpt lat="43.7297967" lon="11.5958567"><ele>1216.0</ele><time>2026-05-02T15:11:51.038Z</time></trkpt><trkpt lat="43.7297983" lon="11.59572"><ele>1216.0</ele><time>2026-05-02T15:11:53.04Z</time></trkpt><trkpt lat="43.7298333" lon="11.5956367"><ele>1216.0</ele><time>2026-05-02T15:11:54.04Z</time></trkpt><trkpt lat="43.72989" lon="11.5955283"><ele>1216.0</ele><time>2026-05-02T15:11:55.042Z</time></trkpt><trkpt lat="43.7299417" lon="11.5954583"><ele>1216.0</ele><time>2026-05-02T15:11:56.041Z</time></trkpt><trkpt lat="43.7300133" lon="11.59537"><ele>1216.0</ele><time>2026-05-02T15:11:58.04Z</time></trkpt><trkpt lat="43.7300933" lon="11.5953033"><ele>1216.0</ele><time>2026-05-02T15:12:21.031Z</time></trkpt><trkpt lat="43.73022" lon="11.5954483"><ele>1216.0</ele><time>2026-05-02T15:12:29.039Z</time></trkpt><trkpt lat="43.730355" lon="11.59551"><ele>1216.0</ele><time>2026-05-02T15:12:41.029Z</time></trkpt><trkpt lat="43.73044" lon="11.5955083"><ele>1216.0</ele><time>2026-05-02T15:12:43.041Z</time></trkpt><trkpt lat="43.7305083" lon="11.595575"><ele>1215.25</ele><time>2026-05-02T15:12:45.037Z</time></trkpt><trkpt lat="43.73051" lon="11.5956867"><ele>1214.5</ele><time>2026-05-02T15:12:47.039Z</time></trkpt><trkpt lat="43.7304883" lon="11.5958467"><ele>1213.75</ele><time>2026-05-02T15:12:49.041Z</time></trkpt><trkpt lat="43.7304867" lon="11.59609"><ele>1213.0</ele><time>2026-05-02T15:12:51.039Z</time></trkpt><trkpt lat="43.7304983" lon="11.5962233"><ele>1210.5</ele><time>2026-05-02T15:12:52.04Z</time></trkpt><trkpt lat="43.73053" lon="11.5963483"><ele>1208.0</ele><time>2026-05-02T15:12:53.042Z</time></trkpt><trkpt lat="43.73057" lon="11.5964533"><ele>1205.5</ele><time>2026-05-02T15:12:54.039Z</time></trkpt><trkpt lat="43.7306183" lon="11.5965567"><ele>1203.0</ele><time>2026-05-02T15:12:55.039Z</time></trkpt><trkpt lat="43.7306817" lon="11.59664"><ele>1200.5</ele><time>2026-05-02T15:12:56.041Z</time></trkpt><trkpt lat="43.7307533" lon="11.596685"><ele>1198.0</ele><time>2026-05-02T15:12:57.037Z</time></trkpt><trkpt lat="43.7308067" lon="11.596735"><ele>1198.0</ele><time>2026-05-02T15:12:58.038Z</time></trkpt><trkpt lat="43.7309183" lon="11.5967517"><ele>1198.0</ele><time>2026-05-02T15:13:00.04Z</time></trkpt><trkpt lat="43.73102" lon="11.59676"><ele>1198.0</ele><time>2026-05-02T15:13:02.04Z</time></trkpt><trkpt lat="43.7311333" lon="11.596755"><ele>1198.0</ele><time>2026-05-02T15:13:04.038Z</time></trkpt><trkpt lat="43.7312067" lon="11.5967683"><ele>1198.0</ele><time>2026-05-02T15:13:05.039Z</time></trkpt><trkpt lat="43.7312883" lon="11.5967683"><ele>1196.5</ele><time>2026-05-02T15:13:06.039Z</time></trkpt><trkpt lat="43.731375" lon="11.5967633"><ele>1195.0</ele><time>2026-05-02T15:13:07.039Z</time></trkpt><trkpt lat="43.7314683" lon="11.59675"><ele>1193.5</ele><time>2026-05-02T15:13:08.041Z</time></trkpt><trkpt lat="43.73156" lon="11.596735"><ele>1192.0</ele><time>2026-05-02T15:13:09.039Z</time></trkpt><trkpt lat="43.7316317" lon="11.5967133"><ele>1190.5</ele><time>2026-05-02T15:13:10.04Z</time></trkpt><trkpt lat="43.7317067" lon="11.5966767"><ele>1189.0</ele><time>2026-05-02T15:13:11.039Z</time></trkpt><trkpt lat="43.731775" lon="11.5966467"><ele>1189.0</ele><time>2026-05-02T15:13:12.029Z</time></trkpt><trkpt lat="43.7318517" lon="11.596615"><ele>1189.0</ele><time>2026-05-02T15:13:13.028Z</time></trkpt><trkpt lat="43.7319317" lon="11.5965917"><ele>1189.0</ele><time>2026-05-02T15:13:14.041Z</time></trkpt><trkpt lat="43.73201" lon="11.59655"><ele>1189.0</ele><time>2026-05-02T15:13:15.039Z</time></trkpt><trkpt lat="43.7321133" lon="11.59648"><ele>1189.0</ele><time>2026-05-02T15:13:16.04Z</time></trkpt><trkpt lat="43.732215" lon="11.5964333"><ele>1185.25</ele><time>2026-05-02T15:13:17.039Z</time></trkpt><trkpt lat="43.73232" lon="11.596365"><ele>1181.5</ele><time>2026-05-02T15:13:18.039Z</time></trkpt><trkpt lat="43.7324367" lon="11.5963"><ele>1177.75</ele><time>2026-05-02T15:13:19.039Z</time></trkpt><trkpt lat="43.7325417" lon="11.5962417"><ele>1174.0</ele><time>2026-05-02T15:13:20.04Z</time></trkpt><trkpt lat="43.7326367" lon="11.596185"><ele>1174.1666666666665</ele><time>2026-05-02T15:13:21.039Z</time></trkpt><trkpt lat="43.7327183" lon="11.596125"><ele>1174.3333333333333</ele><time>2026-05-02T15:13:22.04Z</time></trkpt><trkpt lat="43.7327833" lon="11.59609"><ele>1174.5</ele><time>2026-05-02T15:13:23.039Z</time></trkpt><trkpt lat="43.7328433" lon="11.5960433"><ele>1174.6666666666667</ele><time>2026-05-02T15:13:24.039Z</time></trkpt><trkpt lat="43.732925" lon="11.5959583"><ele>1174.8333333333335</ele><time>2026-05-02T15:13:25.04Z</time></trkpt><trkpt lat="43.733005" lon="11.595895"><ele>1175.0</ele><time>2026-05-02T15:13:26.04Z</time></trkpt><trkpt lat="43.7330867" lon="11.59582"><ele>1175.0</ele><time>2026-05-02T15:13:27.037Z</time></trkpt><trkpt lat="43.73315" lon="11.5957317"><ele>1175.0</ele><time>2026-05-02T15:13:28.039Z</time></trkpt><trkpt lat="43.7332167" lon="11.5956383"><ele>1175.0</ele><time>2026-05-02T15:13:29.04Z</time></trkpt><trkpt lat="43.7332617" lon="11.59556"><ele>1175.0</ele><time>2026-05-02T15:13:30.04Z</time></trkpt><trkpt lat="43.7333067" lon="11.59547"><ele>1175.0</ele><time>2026-05-02T15:13:31.04Z</time></trkpt><trkpt lat="43.733355" lon="11.59538"><ele>1175.0</ele><time>2026-05-02T15:13:32.029Z</time></trkpt><trkpt lat="43.7334117" lon="11.595285"><ele>1176.3333333333335</ele><time>2026-05-02T15:13:33.029Z</time></trkpt><trkpt lat="43.7334467" lon="11.5952017"><ele>1177.6666666666667</ele><time>2026-05-02T15:13:34.037Z</time></trkpt><trkpt lat="43.7334917" lon="11.5951217"><ele>1179.0</ele><time>2026-05-02T15:13:35.039Z</time></trkpt><trkpt lat="43.733575" lon="11.59498"><ele>1180.3333333333333</ele><time>2026-05-02T15:13:37.039Z</time></trkpt><trkpt lat="43.7336183" lon="11.5948883"><ele>1181.6666666666665</ele><time>2026-05-02T15:13:38.04Z</time></trkpt><trkpt lat="43.733655" lon="11.59479"><ele>1183.0</ele><time>2026-05-02T15:13:39.039Z</time></trkpt><trkpt lat="43.7337017" lon="11.5947017"><ele>1183.0</ele><time>2026-05-02T15:13:40.04Z</time></trkpt><trkpt lat="43.7337483" lon="11.594625"><ele>1183.0</ele><time>2026-05-02T15:13:41.039Z</time></trkpt><trkpt lat="43.7338433" lon="11.5945167"><ele>1183.0</ele><time>2026-05-02T15:13:43.04Z</time></trkpt><trkpt lat="43.7339067" lon="11.594485"><ele>1183.0</ele><time>2026-05-02T15:13:44.04Z</time></trkpt><trkpt lat="43.7340333" lon="11.5944917"><ele>1183.0</ele><time>2026-05-02T15:13:46.039Z</time></trkpt><trkpt lat="43.734115" lon="11.5944933"><ele>1183.0</ele><time>2026-05-02T15:13:47.041Z</time></trkpt><trkpt lat="43.734195" lon="11.5944933"><ele>1183.0</ele><time>2026-05-02T15:13:48.039Z</time></trkpt><trkpt lat="43.734265" lon="11.5945167"><ele>1183.0</ele><time>2026-05-02T15:13:49.039Z</time></trkpt><trkpt lat="43.7343483" lon="11.59455"><ele>1183.0</ele><time>2026-05-02T15:13:50.04Z</time></trkpt><trkpt lat="43.7344317" lon="11.5945733"><ele>1183.0</ele><time>2026-05-02T15:13:51.039Z</time></trkpt><trkpt lat="43.7345117" lon="11.5946033"><ele>1183.0</ele><time>2026-05-02T15:13:52.029Z</time></trkpt><trkpt lat="43.734605" lon="11.59463"><ele>1183.4</ele><time>2026-05-02T15:13:53.03Z</time></trkpt><trkpt lat="43.7346983" lon="11.594655"><ele>1183.8</ele><time>2026-05-02T15:13:54.039Z</time></trkpt><trkpt lat="43.7347933" lon="11.5946617"><ele>1184.2</ele><time>2026-05-02T15:13:55.04Z</time></trkpt><trkpt lat="43.7348883" lon="11.5946383"><ele>1184.6</ele><time>2026-05-02T15:13:56.041Z</time></trkpt><trkpt lat="43.73497" lon="11.5946"><ele>1185.0</ele><time>2026-05-02T15:13:57.039Z</time></trkpt><trkpt lat="43.735065" lon="11.5945533"><ele>1184.6</ele><time>2026-05-02T15:13:58.039Z</time></trkpt><trkpt lat="43.7351517" lon="11.594495"><ele>1184.2</ele><time>2026-05-02T15:13:59.039Z</time></trkpt><trkpt lat="43.7352283" lon="11.5944367"><ele>1183.8</ele><time>2026-05-02T15:14:00.039Z</time></trkpt><trkpt lat="43.7353033" lon="11.5943533"><ele>1183.4</ele><time>2026-05-02T15:14:01.039Z</time></trkpt><trkpt lat="43.7353583" lon="11.5942617"><ele>1183.0</ele><time>2026-05-02T15:14:02.04Z</time></trkpt><trkpt lat="43.7354083" lon="11.5941483"><ele>1183.0</ele><time>2026-05-02T15:14:03.038Z</time></trkpt><trkpt lat="43.735435" lon="11.5940333"><ele>1183.0</ele><time>2026-05-02T15:14:04.039Z</time></trkpt><trkpt lat="43.7354617" lon="11.593925"><ele>1183.0</ele><time>2026-05-02T15:14:05.04Z</time></trkpt><trkpt lat="43.735475" lon="11.5938183"><ele>1183.0</ele><time>2026-05-02T15:14:06.039Z</time></trkpt><trkpt lat="43.73548" lon="11.5937117"><ele>1183.0</ele><time>2026-05-02T15:14:07.039Z</time></trkpt><trkpt lat="43.735475" lon="11.5936033"><ele>1183.0</ele><time>2026-05-02T15:14:08.041Z</time></trkpt><trkpt lat="43.7354717" lon="11.5935017"><ele>1183.0</ele><time>2026-05-02T15:14:09.038Z</time></trkpt><trkpt lat="43.7354783" lon="11.593395"><ele>1183.0</ele><time>2026-05-02T15:14:10.041Z</time></trkpt><trkpt lat="43.73549" lon="11.59327"><ele>1183.0</ele><time>2026-05-02T15:14:11.04Z</time></trkpt><trkpt lat="43.7355183" lon="11.5931667"><ele>1183.0</ele><time>2026-05-02T15:14:12.03Z</time></trkpt><trkpt lat="43.735535" lon="11.5930533"><ele>1183.0</ele><time>2026-05-02T15:14:13.029Z</time></trkpt><trkpt lat="43.7355417" lon="11.5929267"><ele>1183.0</ele><time>2026-05-02T15:14:14.041Z</time></trkpt><trkpt lat="43.73555" lon="11.5927867"><ele>1182.4</ele><time>2026-05-02T15:14:15.038Z</time></trkpt><trkpt lat="43.7355667" lon="11.5926567"><ele>1181.8</ele><time>2026-05-02T15:14:16.039Z</time></trkpt><trkpt lat="43.73559" lon="11.5925217"><ele>1181.2</ele><time>2026-05-02T15:14:17.04Z</time></trkpt><trkpt lat="43.7355883" lon="11.5923583"><ele>1180.6</ele><time>2026-05-02T15:14:18.039Z</time></trkpt><trkpt lat="43.7355967" lon="11.5922283"><ele>1180.0</ele><time>2026-05-02T15:14:19.04Z</time></trkpt><trkpt lat="43.7356" lon="11.5921"><ele>1178.8</ele><time>2026-05-02T15:14:20.042Z</time></trkpt><trkpt lat="43.7355967" lon="11.5919817"><ele>1177.6</ele><time>2026-05-02T15:14:21.04Z</time></trkpt><trkpt lat="43.7355483" lon="11.5918233"><ele>1176.4</ele><time>2026-05-02T15:14:22.039Z</time></trkpt><trkpt lat="43.7355033" lon="11.5916933"><ele>1175.2</ele><time>2026-05-02T15:14:23.039Z</time></trkpt><trkpt lat="43.7354667" lon="11.591575"><ele>1174.0</ele><time>2026-05-02T15:14:24.039Z</time></trkpt><trkpt lat="43.7354333" lon="11.5914633"><ele>1174.0</ele><time>2026-05-02T15:14:25.039Z</time></trkpt><trkpt lat="43.7354017" lon="11.59135"><ele>1174.0</ele><time>2026-05-02T15:14:26.041Z</time></trkpt><trkpt lat="43.7353733" lon="11.5912333"><ele>1174.0</ele><time>2026-05-02T15:14:27.041Z</time></trkpt><trkpt lat="43.735345" lon="11.591105"><ele>1174.0</ele><time>2026-05-02T15:14:28.038Z</time></trkpt><trkpt lat="43.7353167" lon="11.5909683"><ele>1174.0</ele><time>2026-05-02T15:14:29.04Z</time></trkpt><trkpt lat="43.7352783" lon="11.590835"><ele>1176.1666666666665</ele><time>2026-05-02T15:14:30.039Z</time></trkpt><trkpt lat="43.7352283" lon="11.5907217"><ele>1178.3333333333333</ele><time>2026-05-02T15:14:31.04Z</time></trkpt><trkpt lat="43.735185" lon="11.5906133"><ele>1180.5</ele><time>2026-05-02T15:14:32.041Z</time></trkpt><trkpt lat="43.7351467" lon="11.5905"><ele>1182.6666666666667</ele><time>2026-05-02T15:14:33.04Z</time></trkpt><trkpt lat="43.73512" lon="11.5903867"><ele>1184.8333333333335</ele><time>2026-05-02T15:14:34.039Z</time></trkpt><trkpt lat="43.7351133" lon="11.590275"><ele>1187.0</ele><time>2026-05-02T15:14:35.039Z</time></trkpt><trkpt lat="43.73511" lon="11.5901567"><ele>1187.0</ele><time>2026-05-02T15:14:36.039Z</time></trkpt><trkpt lat="43.7351117" lon="11.5900367"><ele>1187.0</ele><time>2026-05-02T15:14:37.04Z</time></trkpt><trkpt lat="43.7350933" lon="11.5899233"><ele>1187.0</ele><time>2026-05-02T15:14:38.042Z</time></trkpt><trkpt lat="43.7350667" lon="11.5898"><ele>1187.0</ele><time>2026-05-02T15:14:39.039Z</time></trkpt><trkpt lat="43.73503" lon="11.5896983"><ele>1187.0</ele><time>2026-05-02T15:14:40.038Z</time></trkpt><trkpt lat="43.7349683" lon="11.5896167"><ele>1187.0</ele><time>2026-05-02T15:14:41.04Z</time></trkpt><trkpt lat="43.7348983" lon="11.589535"><ele>1184.2</ele><time>2026-05-02T15:14:42.039Z</time></trkpt><trkpt lat="43.7348283" lon="11.5894433"><ele>1181.4</ele><time>2026-05-02T15:14:43.04Z</time></trkpt><trkpt lat="43.7347467" lon="11.5893667"><ele>1178.6</ele><time>2026-05-02T15:14:44.042Z</time></trkpt><trkpt lat="43.734665" lon="11.589295"><ele>1175.8</ele><time>2026-05-02T15:14:45.039Z</time></trkpt><trkpt lat="43.7345783" lon="11.5892483"><ele>1173.0</ele><time>2026-05-02T15:14:46.041Z</time></trkpt><trkpt lat="43.734505" lon="11.5892083"><ele>1173.0</ele><time>2026-05-02T15:14:47.042Z</time></trkpt><trkpt lat="43.7344267" lon="11.5891533"><ele>1173.0</ele><time>2026-05-02T15:14:48.04Z</time></trkpt><trkpt lat="43.7343633" lon="11.5890817"><ele>1173.0</ele><time>2026-05-02T15:14:49.04Z</time></trkpt><trkpt lat="43.7342917" lon="11.58896"><ele>1173.0</ele><time>2026-05-02T15:14:51.038Z</time></trkpt><trkpt lat="43.7342933" lon="11.5888717"><ele>1173.0</ele><time>2026-05-02T15:14:52.04Z</time></trkpt><trkpt lat="43.73431" lon="11.5887567"><ele>1173.0</ele><time>2026-05-02T15:14:53.043Z</time></trkpt><trkpt lat="43.7343083" lon="11.5886367"><ele>1178.0</ele><time>2026-05-02T15:14:54.041Z</time></trkpt><trkpt lat="43.734305" lon="11.5885183"><ele>1183.0</ele><time>2026-05-02T15:14:55.039Z</time></trkpt><trkpt lat="43.7343033" lon="11.5884"><ele>1188.0</ele><time>2026-05-02T15:14:56.041Z</time></trkpt><trkpt lat="43.734305" lon="11.5882483"><ele>1193.0</ele><time>2026-05-02T15:14:57.04Z</time></trkpt><trkpt lat="43.73427" lon="11.5881183"><ele>1198.0</ele><time>2026-05-02T15:14:58.044Z</time></trkpt><trkpt lat="43.7342417" lon="11.5880233"><ele>1198.0</ele><time>2026-05-02T15:14:59.038Z</time></trkpt><trkpt lat="43.73419" lon="11.5879433"><ele>1198.0</ele><time>2026-05-02T15:15:00.038Z</time></trkpt><trkpt lat="43.7341533" lon="11.5878667"><ele>1198.0</ele><time>2026-05-02T15:15:01.04Z</time></trkpt><trkpt lat="43.734095" lon="11.587815"><ele>1198.0</ele><time>2026-05-02T15:15:02.04Z</time></trkpt><trkpt lat="43.73404" lon="11.58774"><ele>1198.0</ele><time>2026-05-02T15:15:04.039Z</time></trkpt><trkpt lat="43.7340433" lon="11.5876517"><ele>1198.0</ele><time>2026-05-02T15:15:06.041Z</time></trkpt><trkpt lat="43.734125" lon="11.5875033"><ele>1197.5</ele><time>2026-05-02T15:15:08.04Z</time></trkpt><trkpt lat="43.7341767" lon="11.587415"><ele>1197.0</ele><time>2026-05-02T15:15:09.038Z</time></trkpt><trkpt lat="43.73423" lon="11.5873267"><ele>1196.5</ele><time>2026-05-02T15:15:10.037Z</time></trkpt><trkpt lat="43.7342967" lon="11.5872483"><ele>1196.0</ele><time>2026-05-02T15:15:11.038Z</time></trkpt><trkpt lat="43.73437" lon="11.5871833"><ele>1195.5</ele><time>2026-05-02T15:15:12.038Z</time></trkpt><trkpt lat="43.7344383" lon="11.5871233"><ele>1195.0</ele><time>2026-05-02T15:15:13.039Z</time></trkpt><trkpt lat="43.7344983" lon="11.587055"><ele>1193.8</ele><time>2026-05-02T15:15:14.041Z</time></trkpt><trkpt lat="43.73454" lon="11.58698"><ele>1192.6</ele><time>2026-05-02T15:15:15.038Z</time></trkpt><trkpt lat="43.734585" lon="11.5868167"><ele>1191.4</ele><time>2026-05-02T15:15:17.038Z</time></trkpt><trkpt lat="43.7345933" lon="11.5867067"><ele>1190.2</ele><time>2026-05-02T15:15:18.038Z</time></trkpt><trkpt lat="43.7345917" lon="11.586605"><ele>1189.0</ele><time>2026-05-02T15:15:19.038Z</time></trkpt><trkpt lat="43.7345733" lon="11.5864517"><ele>1189.0</ele><time>2026-05-02T15:15:21.037Z</time></trkpt><trkpt lat="43.7345533" lon="11.58636"><ele>1189.0</ele><time>2026-05-02T15:15:23.039Z</time></trkpt><trkpt lat="43.7345317" lon="11.5862483"><ele>1189.0</ele><time>2026-05-02T15:15:26.04Z</time></trkpt><trkpt lat="43.7345183" lon="11.5861533"><ele>1189.0</ele><time>2026-05-02T15:15:30.04Z</time></trkpt><trkpt lat="43.7345894" lon="11.5861611"><ele>1189.0</ele><time>2026-05-02T15:15:34.039Z</time></trkpt><trkpt lat="43.7346716" lon="11.5862593"><ele>1189.0</ele><time>2026-05-02T15:15:36.039Z</time></trkpt><trkpt lat="43.7347699" lon="11.5863565"><ele>1189.0</ele><time>2026-05-02T15:15:38.042Z</time></trkpt><trkpt lat="43.7348826" lon="11.5864001"><ele>1189.0</ele><time>2026-05-02T15:15:40.039Z</time></trkpt><trkpt lat="43.734959" lon="11.5863923"><ele>1189.0</ele><time>2026-05-02T15:15:41.038Z</time></trkpt><trkpt lat="43.7350293" lon="11.5863689"><ele>1189.0</ele><time>2026-05-02T15:15:42.037Z</time></trkpt><trkpt lat="43.7351005" lon="11.5863203"><ele>1189.0</ele><time>2026-05-02T15:15:43.039Z</time></trkpt><trkpt lat="43.7351617" lon="11.58626"><ele>1189.0</ele><time>2026-05-02T15:15:44.04Z</time></trkpt><trkpt lat="43.7352783" lon="11.58621"><ele>1188.8333333333333</ele><time>2026-05-02T15:15:46.039Z</time></trkpt><trkpt lat="43.7353483" lon="11.5861983"><ele>1188.6666666666665</ele><time>2026-05-02T15:15:47.042Z</time></trkpt><trkpt lat="43.7354233" lon="11.5861967"><ele>1188.5</ele><time>2026-05-02T15:15:48.038Z</time></trkpt><trkpt lat="43.735495" lon="11.5862117"><ele>1188.3333333333333</ele><time>2026-05-02T15:15:49.031Z</time></trkpt><trkpt lat="43.7355767" lon="11.5862317"><ele>1188.1666666666667</ele><time>2026-05-02T15:15:50.042Z</time></trkpt><trkpt lat="43.7356567" lon="11.5862617"><ele>1188.0</ele><time>2026-05-02T15:15:51.041Z</time></trkpt><trkpt lat="43.73575" lon="11.5863083"><ele>1188.0</ele><time>2026-05-02T15:15:52.04Z</time></trkpt><trkpt lat="43.735825" lon="11.5863467"><ele>1188.0</ele><time>2026-05-02T15:15:53.04Z</time></trkpt><trkpt lat="43.7358933" lon="11.5863783"><ele>1188.0</ele><time>2026-05-02T15:15:54.044Z</time></trkpt><trkpt lat="43.7359683" lon="11.5864017"><ele>1188.0</ele><time>2026-05-02T15:15:55.041Z</time></trkpt><trkpt lat="43.73605" lon="11.5864317"><ele>1188.0</ele><time>2026-05-02T15:15:56.044Z</time></trkpt><trkpt lat="43.7361267" lon="11.5864583"><ele>1188.0</ele><time>2026-05-02T15:15:57.04Z</time></trkpt><trkpt lat="43.736205" lon="11.586465"><ele>1188.1666666666667</ele><time>2026-05-02T15:15:58.04Z</time></trkpt><trkpt lat="43.736285" lon="11.5864433"><ele>1188.3333333333333</ele><time>2026-05-02T15:15:59.04Z</time></trkpt><trkpt lat="43.7363617" lon="11.5864083"><ele>1188.5</ele><time>2026-05-02T15:16:00.042Z</time></trkpt><trkpt lat="43.7364167" lon="11.5863467"><ele>1188.6666666666665</ele><time>2026-05-02T15:16:01.041Z</time></trkpt><trkpt lat="43.73646" lon="11.5862833"><ele>1188.8333333333333</ele><time>2026-05-02T15:16:02.043Z</time></trkpt><trkpt lat="43.7365" lon="11.5861683"><ele>1189.0</ele><time>2026-05-02T15:16:04.04Z</time></trkpt><trkpt lat="43.736575" lon="11.58615"><ele>1189.0</ele><time>2026-05-02T15:16:07.04Z</time></trkpt><trkpt lat="43.7366267" lon="11.5862183"><ele>1189.0</ele><time>2026-05-02T15:16:09.038Z</time></trkpt><trkpt lat="43.7366517" lon="11.5862983"><ele>1189.0</ele><time>2026-05-02T15:16:10.039Z</time></trkpt><trkpt lat="43.7367017" lon="11.5864283"><ele>1189.0</ele><time>2026-05-02T15:16:11.039Z</time></trkpt><trkpt lat="43.73674" lon="11.5865717"><ele>1189.0</ele><time>2026-05-02T15:16:12.038Z</time></trkpt><trkpt lat="43.7367817" lon="11.5867567"><ele>1189.0</ele><time>2026-05-02T15:16:13.04Z</time></trkpt><trkpt lat="43.7368117" lon="11.5869283"><ele>1189.0</ele><time>2026-05-02T15:16:14.04Z</time></trkpt><trkpt lat="43.7368467" lon="11.5871067"><ele>1189.0</ele><time>2026-05-02T15:16:15.039Z</time></trkpt><trkpt lat="43.7368833" lon="11.587265"><ele>1189.0</ele><time>2026-05-02T15:16:16.039Z</time></trkpt><trkpt lat="43.7369183" lon="11.5873983"><ele>1188.6666666666665</ele><time>2026-05-02T15:16:17.04Z</time></trkpt><trkpt lat="43.7369367" lon="11.5875217"><ele>1188.3333333333333</ele><time>2026-05-02T15:16:18.037Z</time></trkpt><trkpt lat="43.7369417" lon="11.5876467"><ele>1188.0</ele><time>2026-05-02T15:16:19.04Z</time></trkpt><trkpt lat="43.7369483" lon="11.5877767"><ele>1187.6666666666667</ele><time>2026-05-02T15:16:20.04Z</time></trkpt><trkpt lat="43.7369633" lon="11.5878983"><ele>1187.3333333333335</ele><time>2026-05-02T15:16:21.038Z</time></trkpt><trkpt lat="43.7369867" lon="11.588005"><ele>1187.0</ele><time>2026-05-02T15:16:22.04Z</time></trkpt><trkpt lat="43.73703" lon="11.5880967"><ele>1187.0</ele><time>2026-05-02T15:16:23.041Z</time></trkpt><trkpt lat="43.737095" lon="11.58816"><ele>1187.0</ele><time>2026-05-02T15:16:24.04Z</time></trkpt><trkpt lat="43.7371783" lon="11.5882017"><ele>1187.0</ele><time>2026-05-02T15:16:25.04Z</time></trkpt><trkpt lat="43.7372567" lon="11.5882467"><ele>1187.0</ele><time>2026-05-02T15:16:26.04Z</time></trkpt><trkpt lat="43.7373483" lon="11.5882767"><ele>1187.0</ele><time>2026-05-02T15:16:27.038Z</time></trkpt><trkpt lat="43.73744" lon="11.588315"><ele>1187.0</ele><time>2026-05-02T15:16:28.04Z</time></trkpt><trkpt lat="43.7375267" lon="11.5883517"><ele>1187.0</ele><time>2026-05-02T15:16:29.041Z</time></trkpt><trkpt lat="43.737605" lon="11.58837"><ele>1187.0</ele><time>2026-05-02T15:16:30.04Z</time></trkpt><trkpt lat="43.737685" lon="11.588365"><ele>1187.0</ele><time>2026-05-02T15:16:31.041Z</time></trkpt><trkpt lat="43.73776" lon="11.5883667"><ele>1187.0</ele><time>2026-05-02T15:16:32.043Z</time></trkpt><trkpt lat="43.73784" lon="11.5883783"><ele>1187.0</ele><time>2026-05-02T15:16:33.037Z</time></trkpt><trkpt lat="43.7379233" lon="11.5883983"><ele>1187.0</ele><time>2026-05-02T15:16:34.039Z</time></trkpt><trkpt lat="43.7380283" lon="11.5884333"><ele>1188.6</ele><time>2026-05-02T15:16:35.039Z</time></trkpt><trkpt lat="43.7381317" lon="11.588465"><ele>1190.2</ele><time>2026-05-02T15:16:36.039Z</time></trkpt><trkpt lat="43.7382483" lon="11.5885017"><ele>1191.8</ele><time>2026-05-02T15:16:37.04Z</time></trkpt><trkpt lat="43.7383583" lon="11.5885417"><ele>1193.4</ele><time>2026-05-02T15:16:38.041Z</time></trkpt><trkpt lat="43.73846" lon="11.58859"><ele>1195.0</ele><time>2026-05-02T15:16:39.038Z</time></trkpt><trkpt lat="43.7385433" lon="11.58861"><ele>1193.6</ele><time>2026-05-02T15:16:40.039Z</time></trkpt><trkpt lat="43.7386317" lon="11.5886317"><ele>1192.2</ele><time>2026-05-02T15:16:41.03Z</time></trkpt><trkpt lat="43.7387233" lon="11.588645"><ele>1190.8</ele><time>2026-05-02T15:16:42.041Z</time></trkpt><trkpt lat="43.7388167" lon="11.5886633"><ele>1189.4</ele><time>2026-05-02T15:16:43.04Z</time></trkpt><trkpt lat="43.7389" lon="11.5887017"><ele>1188.0</ele><time>2026-05-02T15:16:44.041Z</time></trkpt><trkpt lat="43.7389867" lon="11.5887433"><ele>1185.6</ele><time>2026-05-02T15:16:45.04Z</time></trkpt><trkpt lat="43.7390783" lon="11.58879"><ele>1183.1999999999998</ele><time>2026-05-02T15:16:46.039Z</time></trkpt><trkpt lat="43.7391733" lon="11.58885"><ele>1180.8</ele><time>2026-05-02T15:16:47.039Z</time></trkpt><trkpt lat="43.7392717" lon="11.5889017"><ele>1178.3999999999999</ele><time>2026-05-02T15:16:48.039Z</time></trkpt><trkpt lat="43.739355" lon="11.588955"><ele>1176.0</ele><time>2026-05-02T15:16:49.041Z</time></trkpt><trkpt lat="43.7394217" lon="11.5890067"><ele>1173.2</ele><time>2026-05-02T15:16:50.041Z</time></trkpt><trkpt lat="43.7394967" lon="11.5890467"><ele>1170.3999999999999</ele><time>2026-05-02T15:16:51.038Z</time></trkpt><trkpt lat="43.7395833" lon="11.5891117"><ele>1167.6</ele><time>2026-05-02T15:16:53.041Z</time></trkpt><trkpt lat="43.7396667" lon="11.5891233"><ele>1164.8</ele><time>2026-05-02T15:16:55.04Z</time></trkpt><trkpt lat="43.7397917" lon="11.589025"><ele>1162.0</ele><time>2026-05-02T15:16:57.039Z</time></trkpt><trkpt lat="43.739865" lon="11.58899"><ele>1162.0</ele><time>2026-05-02T15:16:58.039Z</time></trkpt><trkpt lat="43.7399317" lon="11.5889667"><ele>1162.0</ele><time>2026-05-02T15:16:59.039Z</time></trkpt><trkpt lat="43.7400383" lon="11.5889283"><ele>1162.0</ele><time>2026-05-02T15:17:01.042Z</time></trkpt><trkpt lat="43.7401317" lon="11.5888567"><ele>1162.0</ele><time>2026-05-02T15:17:03.039Z</time></trkpt><trkpt lat="43.7402383" lon="11.5888467"><ele>1162.0</ele><time>2026-05-02T15:17:05.04Z</time></trkpt><trkpt lat="43.740345" lon="11.58884"><ele>1155.8</ele><time>2026-05-02T15:17:07.04Z</time></trkpt><trkpt lat="43.74043" lon="11.5888067"><ele>1149.6</ele><time>2026-05-02T15:17:09.039Z</time></trkpt><trkpt lat="43.74044" lon="11.5887183"><ele>1143.3999999999999</ele><time>2026-05-02T15:17:11.039Z</time></trkpt><trkpt lat="43.7404383" lon="11.588555"><ele>1137.2</ele><time>2026-05-02T15:17:13.039Z</time></trkpt><trkpt lat="43.740435" lon="11.5883783"><ele>1131.0</ele><time>2026-05-02T15:17:15.12Z</time></trkpt><trkpt lat="43.7404367" lon="11.58829"><ele>1130.5</ele><time>2026-05-02T15:17:16.04Z</time></trkpt><trkpt lat="43.7404333" lon="11.5882017"><ele>1130.0</ele><time>2026-05-02T15:17:17.04Z</time></trkpt><trkpt lat="43.7404133" lon="11.5881083"><ele>1129.5</ele><time>2026-05-02T15:17:18.04Z</time></trkpt><trkpt lat="43.7403983" lon="11.5880233"><ele>1129.0</ele><time>2026-05-02T15:17:19.042Z</time></trkpt><trkpt lat="43.7404017" lon="11.5879017"><ele>1128.5</ele><time>2026-05-02T15:17:20.043Z</time></trkpt><trkpt lat="43.74039" lon="11.58773"><ele>1128.0</ele><time>2026-05-02T15:17:22.039Z</time></trkpt><trkpt lat="43.740315" lon="11.5876033"><ele>1126.75</ele><time>2026-05-02T15:17:24.04Z</time></trkpt><trkpt lat="43.7402567" lon="11.58748"><ele>1125.5</ele><time>2026-05-02T15:17:26.042Z</time></trkpt><trkpt lat="43.740225" lon="11.5873283"><ele>1124.25</ele><time>2026-05-02T15:17:28.04Z</time></trkpt><trkpt lat="43.7401983" lon="11.5871367"><ele>1123.0</ele><time>2026-05-02T15:17:30.039Z</time></trkpt><trkpt lat="43.7401583" lon="11.5870033"><ele>1127.8</ele><time>2026-05-02T15:17:31.04Z</time></trkpt><trkpt lat="43.7400983" lon="11.586835"><ele>1132.6</ele><time>2026-05-02T15:17:32.041Z</time></trkpt><trkpt lat="43.74006" lon="11.5866983"><ele>1137.4</ele><time>2026-05-02T15:17:33.039Z</time></trkpt><trkpt lat="43.7400467" lon="11.5865933"><ele>1142.2</ele><time>2026-05-02T15:17:34.029Z</time></trkpt><trkpt lat="43.74005" lon="11.5864533"><ele>1147.0</ele><time>2026-05-02T15:17:36.038Z</time></trkpt><trkpt lat="43.7400967" lon="11.5863683"><ele>1147.0</ele><time>2026-05-02T15:17:38.041Z</time></trkpt><trkpt lat="43.7401767" lon="11.586355"><ele>1147.0</ele><time>2026-05-02T15:17:40.04Z</time></trkpt><trkpt lat="43.740265" lon="11.5862967"><ele>1147.0</ele><time>2026-05-02T15:17:42.039Z</time></trkpt><trkpt lat="43.7403383" lon="11.5861983"><ele>1147.0</ele><time>2026-05-02T15:17:44.04Z</time></trkpt><trkpt lat="43.7403883" lon="11.5861383"><ele>1147.0</ele><time>2026-05-02T15:17:45.037Z</time></trkpt><trkpt lat="43.7404417" lon="11.5860767"><ele>1147.0</ele><time>2026-05-02T15:17:46.039Z</time></trkpt><trkpt lat="43.74054" lon="11.5860117"><ele>1149.0</ele><time>2026-05-02T15:17:48.04Z</time></trkpt><trkpt lat="43.7406367" lon="11.5860383"><ele>1151.0</ele><time>2026-05-02T15:17:50.042Z</time></trkpt><trkpt lat="43.7407217" lon="11.5861483"><ele>1153.0</ele><time>2026-05-02T15:17:52.039Z</time></trkpt><trkpt lat="43.7407817" lon="11.5862183"><ele>1155.0</ele><time>2026-05-02T15:17:53.031Z</time></trkpt><trkpt lat="43.740845" lon="11.5862767"><ele>1157.0</ele><time>2026-05-02T15:17:54.038Z</time></trkpt><trkpt lat="43.7409133" lon="11.586345"><ele>1153.8</ele><time>2026-05-02T15:17:55.038Z</time></trkpt><trkpt lat="43.7409983" lon="11.586415"><ele>1150.6</ele><time>2026-05-02T15:17:56.04Z</time></trkpt><trkpt lat="43.7410733" lon="11.58646"><ele>1147.3999999999999</ele><time>2026-05-02T15:17:57.037Z</time></trkpt><trkpt lat="43.7411517" lon="11.5864817"><ele>1144.2</ele><time>2026-05-02T15:17:58.04Z</time></trkpt><trkpt lat="43.7412233" lon="11.5864683"><ele>1141.0</ele><time>2026-05-02T15:17:59.039Z</time></trkpt><trkpt lat="43.7413583" lon="11.586435"><ele>1141.0</ele><time>2026-05-02T15:18:01.039Z</time></trkpt><trkpt lat="43.7414433" lon="11.5863917"><ele>1141.0</ele><time>2026-05-02T15:18:02.041Z</time></trkpt><trkpt lat="43.7415383" lon="11.5863467"><ele>1141.0</ele><time>2026-05-02T15:18:03.037Z</time></trkpt><trkpt lat="43.7416317" lon="11.58631"><ele>1141.0</ele><time>2026-05-02T15:18:04.038Z</time></trkpt><trkpt lat="43.741725" lon="11.58628"><ele>1141.0</ele><time>2026-05-02T15:18:05.039Z</time></trkpt><trkpt lat="43.7418183" lon="11.5862267"><ele>1144.6</ele><time>2026-05-02T15:18:06.038Z</time></trkpt><trkpt lat="43.7419033" lon="11.5861383"><ele>1148.1999999999998</ele><time>2026-05-02T15:18:07.039Z</time></trkpt><trkpt lat="43.74199" lon="11.58602"><ele>1151.8000000000002</ele><time>2026-05-02T15:18:08.04Z</time></trkpt><trkpt lat="43.7420783" lon="11.58592"><ele>1155.4</ele><time>2026-05-02T15:18:09.037Z</time></trkpt><trkpt lat="43.74215" lon="11.5858267"><ele>1159.0</ele><time>2026-05-02T15:18:10.039Z</time></trkpt><trkpt lat="43.7422217" lon="11.5857533"><ele>1159.0</ele><time>2026-05-02T15:18:11.039Z</time></trkpt><trkpt lat="43.7423033" lon="11.5856917"><ele>1159.0</ele><time>2026-05-02T15:18:12.038Z</time></trkpt><trkpt lat="43.7423833" lon="11.5856317"><ele>1159.0</ele><time>2026-05-02T15:18:13.03Z</time></trkpt><trkpt lat="43.742455" lon="11.5855617"><ele>1159.0</ele><time>2026-05-02T15:18:14.04Z</time></trkpt><trkpt lat="43.7425133" lon="11.5855267"><ele>1159.0</ele><time>2026-05-02T15:18:15.037Z</time></trkpt><trkpt lat="43.7425683" lon="11.5856183"><ele>1159.0</ele><time>2026-05-02T15:18:18.04Z</time></trkpt><trkpt lat="43.7426067" lon="11.5858083"><ele>1159.0</ele><time>2026-05-02T15:18:20.041Z</time></trkpt><trkpt lat="43.7426333" lon="11.585925"><ele>1159.0</ele><time>2026-05-02T15:18:21.037Z</time></trkpt><trkpt lat="43.7426583" lon="11.586045"><ele>1159.0</ele><time>2026-05-02T15:18:22.039Z</time></trkpt><trkpt lat="43.74269" lon="11.5861467"><ele>1159.0</ele><time>2026-05-02T15:18:23.04Z</time></trkpt><trkpt lat="43.7427467" lon="11.586235"><ele>1159.0</ele><time>2026-05-02T15:18:25.041Z</time></trkpt><trkpt lat="43.74281" lon="11.5861767"><ele>1159.0</ele><time>2026-05-02T15:18:27.038Z</time></trkpt><trkpt lat="43.742845" lon="11.5860933"><ele>1162.1666666666665</ele><time>2026-05-02T15:18:28.039Z</time></trkpt><trkpt lat="43.7428817" lon="11.5860133"><ele>1165.3333333333333</ele><time>2026-05-02T15:18:29.039Z</time></trkpt><trkpt lat="43.7429333" lon="11.58593"><ele>1168.5</ele><time>2026-05-02T15:18:30.038Z</time></trkpt><trkpt lat="43.7430017" lon="11.585835"><ele>1171.6666666666667</ele><time>2026-05-02T15:18:31.039Z</time></trkpt><trkpt lat="43.743055" lon="11.5857733"><ele>1174.8333333333335</ele><time>2026-05-02T15:18:32.041Z</time></trkpt><trkpt lat="43.74312" lon="11.58584"><ele>1178.0</ele><time>2026-05-02T15:18:35.039Z</time></trkpt><trkpt lat="43.7431483" lon="11.5859983"><ele>1178.0</ele><time>2026-05-02T15:18:37.041Z</time></trkpt><trkpt lat="43.74318" lon="11.5861083"><ele>1178.0</ele><time>2026-05-02T15:18:39.038Z</time></trkpt><trkpt lat="43.7432617" lon="11.5860283"><ele>1178.0</ele><time>2026-05-02T15:18:42.039Z</time></trkpt><trkpt lat="43.7433317" lon="11.585875"><ele>1178.0</ele><time>2026-05-02T15:18:44.04Z</time></trkpt><trkpt lat="43.74336" lon="11.5857883"><ele>1178.0</ele><time>2026-05-02T15:18:45.039Z</time></trkpt><trkpt lat="43.7434233" lon="11.58588"><ele>1178.0</ele><time>2026-05-02T15:18:49.039Z</time></trkpt><trkpt lat="43.743405" lon="11.586055"><ele>1178.0</ele><time>2026-05-02T15:18:51.037Z</time></trkpt><trkpt lat="43.743395" lon="11.58615"><ele>1178.0</ele><time>2026-05-02T15:18:52.04Z</time></trkpt><trkpt lat="43.7433983" lon="11.5862483"><ele>1178.0</ele><time>2026-05-02T15:18:54.039Z</time></trkpt><trkpt lat="43.7434617" lon="11.5861283"><ele>1178.0</ele><time>2026-05-02T15:18:56.041Z</time></trkpt><trkpt lat="43.7434967" lon="11.5859867"><ele>1178.0</ele><time>2026-05-02T15:18:58.039Z</time></trkpt><trkpt lat="43.7435367" lon="11.5859017"><ele>1178.0</ele><time>2026-05-02T15:18:59.039Z</time></trkpt><trkpt lat="43.74359" lon="11.585815"><ele>1178.0</ele><time>2026-05-02T15:19:00.04Z</time></trkpt><trkpt lat="43.7436417" lon="11.5857433"><ele>1178.0</ele><time>2026-05-02T15:19:01.038Z</time></trkpt><trkpt lat="43.74369" lon="11.5856717"><ele>1178.0</ele><time>2026-05-02T15:19:03.037Z</time></trkpt><trkpt lat="43.743725" lon="11.5855167"><ele>1178.0</ele><time>2026-05-02T15:20:18.039Z</time></trkpt><trkpt lat="43.7437417" lon="11.58541"><ele>1185.2</ele><time>2026-05-02T15:20:19.039Z</time></trkpt><trkpt lat="43.74374" lon="11.5852867"><ele>1192.4</ele><time>2026-05-02T15:20:20.039Z</time></trkpt><trkpt lat="43.7437317" lon="11.5851533"><ele>1199.6000000000001</ele><time>2026-05-02T15:20:21.039Z</time></trkpt><trkpt lat="43.7437033" lon="11.585015"><ele>1206.8</ele><time>2026-05-02T15:20:22.039Z</time></trkpt><trkpt lat="43.7436583" lon="11.5848767"><ele>1214.0</ele><time>2026-05-02T15:20:23.039Z</time></trkpt><trkpt lat="43.7436233" lon="11.5847267"><ele>1214.0</ele><time>2026-05-02T15:20:24.04Z</time></trkpt><trkpt lat="43.7436167" lon="11.584575"><ele>1214.0</ele><time>2026-05-02T15:20:25.039Z</time></trkpt><trkpt lat="43.7436233" lon="11.5844433"><ele>1214.0</ele><time>2026-05-02T15:20:26.04Z</time></trkpt><trkpt lat="43.7436333" lon="11.5843317"><ele>1214.0</ele><time>2026-05-02T15:20:27.039Z</time></trkpt><trkpt lat="43.7436517" lon="11.5842217"><ele>1214.0</ele><time>2026-05-02T15:20:28.039Z</time></trkpt><trkpt lat="43.7436717" lon="11.58413"><ele>1214.0</ele><time>2026-05-02T15:20:29.038Z</time></trkpt><trkpt lat="43.7437083" lon="11.583985"><ele>1213.5</ele><time>2026-05-02T15:20:31.039Z</time></trkpt><trkpt lat="43.743785" lon="11.583955"><ele>1213.0</ele><time>2026-05-02T15:20:34.039Z</time></trkpt><trkpt lat="43.7438067" lon="11.5840617"><ele>1212.5</ele><time>2026-05-02T15:20:36.038Z</time></trkpt><trkpt lat="43.7438433" lon="11.5842133"><ele>1212.0</ele><time>2026-05-02T15:20:38.04Z</time></trkpt><trkpt lat="43.7438683" lon="11.5842933"><ele>1211.5</ele><time>2026-05-02T15:20:39.038Z</time></trkpt><trkpt lat="43.743905" lon="11.58439"><ele>1211.0</ele><time>2026-05-02T15:20:40.039Z</time></trkpt><trkpt lat="43.743935" lon="11.5845"><ele>1211.5</ele><time>2026-05-02T15:20:41.041Z</time></trkpt><trkpt lat="43.7439767" lon="11.584615"><ele>1212.0</ele><time>2026-05-02T15:20:42.04Z</time></trkpt><trkpt lat="43.7440217" lon="11.584715"><ele>1212.5</ele><time>2026-05-02T15:20:43.039Z</time></trkpt><trkpt lat="43.7440683" lon="11.5848217"><ele>1213.0</ele><time>2026-05-02T15:20:44.04Z</time></trkpt><trkpt lat="43.7441" lon="11.5849217"><ele>1213.5</ele><time>2026-05-02T15:20:45.038Z</time></trkpt><trkpt lat="43.7441167" lon="11.585015"><ele>1214.0</ele><time>2026-05-02T15:20:46.038Z</time></trkpt><trkpt lat="43.7441183" lon="11.585185"><ele>1214.6666666666667</ele><time>2026-05-02T15:20:48.038Z</time></trkpt><trkpt lat="43.7441217" lon="11.5853517"><ele>1215.3333333333335</ele><time>2026-05-02T15:20:50.041Z</time></trkpt><trkpt lat="43.7441367" lon="11.5854517"><ele>1216.0</ele><time>2026-05-02T15:20:51.038Z</time></trkpt><trkpt lat="43.74416" lon="11.5855483"><ele>1216.6666666666667</ele><time>2026-05-02T15:20:52.031Z</time></trkpt><trkpt lat="43.7441783" lon="11.58564"><ele>1217.3333333333333</ele><time>2026-05-02T15:20:53.039Z</time></trkpt><trkpt lat="43.7442217" lon="11.5857783"><ele>1218.0</ele><time>2026-05-02T15:20:55.04Z</time></trkpt><trkpt lat="43.744285" lon="11.5859017"><ele>1218.0</ele><time>2026-05-02T15:20:57.039Z</time></trkpt><trkpt lat="43.7443583" lon="11.5860133"><ele>1218.0</ele><time>2026-05-02T15:20:59.039Z</time></trkpt><trkpt lat="43.74444" lon="11.5861317"><ele>1218.0</ele><time>2026-05-02T15:21:01.039Z</time></trkpt><trkpt lat="43.7445483" lon="11.58625"><ele>1218.0</ele><time>2026-05-02T15:21:03.039Z</time></trkpt><trkpt lat="43.7446217" lon="11.586305"><ele>1218.0</ele><time>2026-05-02T15:21:04.039Z</time></trkpt><trkpt lat="43.7446867" lon="11.58636"><ele>1221.6666666666667</ele><time>2026-05-02T15:21:05.041Z</time></trkpt><trkpt lat="43.7447517" lon="11.586425"><ele>1225.3333333333333</ele><time>2026-05-02T15:21:06.04Z</time></trkpt><trkpt lat="43.744825" lon="11.5864883"><ele>1229.0</ele><time>2026-05-02T15:21:07.039Z</time></trkpt><trkpt lat="43.7448967" lon="11.5865517"><ele>1232.6666666666665</ele><time>2026-05-02T15:21:08.041Z</time></trkpt><trkpt lat="43.7449683" lon="11.5866283"><ele>1236.3333333333333</ele><time>2026-05-02T15:21:09.037Z</time></trkpt><trkpt lat="43.7450383" lon="11.58671"><ele>1240.0</ele><time>2026-05-02T15:21:10.039Z</time></trkpt><trkpt lat="43.7451083" lon="11.5868017"><ele>1240.0</ele><time>2026-05-02T15:21:11.04Z</time></trkpt><trkpt lat="43.7451767" lon="11.586905"><ele>1240.0</ele><time>2026-05-02T15:21:12.039Z</time></trkpt><trkpt lat="43.745235" lon="11.5869883"><ele>1240.0</ele><time>2026-05-02T15:21:13.039Z</time></trkpt><trkpt lat="43.7452833" lon="11.5870817"><ele>1240.0</ele><time>2026-05-02T15:21:14.04Z</time></trkpt><trkpt lat="43.745315" lon="11.58717"><ele>1240.0</ele><time>2026-05-02T15:21:15.038Z</time></trkpt><trkpt lat="43.7453367" lon="11.5872667"><ele>1240.0</ele><time>2026-05-02T15:21:16.039Z</time></trkpt><trkpt lat="43.7453383" lon="11.5873817"><ele>1240.8333333333333</ele><time>2026-05-02T15:21:17.039Z</time></trkpt><trkpt lat="43.7453467" lon="11.5875067"><ele>1241.6666666666665</ele><time>2026-05-02T15:21:18.04Z</time></trkpt><trkpt lat="43.7453567" lon="11.5876483"><ele>1242.5</ele><time>2026-05-02T15:21:19.039Z</time></trkpt><trkpt lat="43.7453833" lon="11.5877617"><ele>1243.3333333333333</ele><time>2026-05-02T15:21:20.04Z</time></trkpt><trkpt lat="43.7454033" lon="11.5878583"><ele>1244.1666666666667</ele><time>2026-05-02T15:21:21.121Z</time></trkpt><trkpt lat="43.7454383" lon="11.5879667"><ele>1245.0</ele><time>2026-05-02T15:21:22.038Z</time></trkpt><trkpt lat="43.7454967" lon="11.5880983"><ele>1246.6</ele><time>2026-05-02T15:21:23.039Z</time></trkpt><trkpt lat="43.7455467" lon="11.5882217"><ele>1248.2</ele><time>2026-05-02T15:21:24.039Z</time></trkpt><trkpt lat="43.7456117" lon="11.58836"><ele>1249.8</ele><time>2026-05-02T15:21:25.04Z</time></trkpt><trkpt lat="43.7456817" lon="11.588475"><ele>1251.4</ele><time>2026-05-02T15:21:26.04Z</time></trkpt><trkpt lat="43.7457317" lon="11.5885833"><ele>1253.0</ele><time>2026-05-02T15:21:27.039Z</time></trkpt><trkpt lat="43.7457867" lon="11.5887"><ele>1253.1666666666667</ele><time>2026-05-02T15:21:28.038Z</time></trkpt><trkpt lat="43.745835" lon="11.5888117"><ele>1253.3333333333335</ele><time>2026-05-02T15:21:29.039Z</time></trkpt><trkpt lat="43.7458833" lon="11.588905"><ele>1253.5</ele><time>2026-05-02T15:21:30.039Z</time></trkpt><trkpt lat="43.745935" lon="11.5889867"><ele>1253.6666666666667</ele><time>2026-05-02T15:21:31.04Z</time></trkpt><trkpt lat="43.7460033" lon="11.5890583"><ele>1253.8333333333333</ele><time>2026-05-02T15:21:32.041Z</time></trkpt><trkpt lat="43.746085" lon="11.5891067"><ele>1254.0</ele><time>2026-05-02T15:21:33.039Z</time></trkpt><trkpt lat="43.7461717" lon="11.589145"><ele>1253.5</ele><time>2026-05-02T15:21:34.039Z</time></trkpt><trkpt lat="43.7462567" lon="11.589185"><ele>1253.0</ele><time>2026-05-02T15:21:35.039Z</time></trkpt><trkpt lat="43.7463383" lon="11.589245"><ele>1252.5</ele><time>2026-05-02T15:21:36.039Z</time></trkpt><trkpt lat="43.74641" lon="11.589295"><ele>1252.0</ele><time>2026-05-02T15:21:37.04Z</time></trkpt><trkpt lat="43.7464717" lon="11.5893467"><ele>1251.5</ele><time>2026-05-02T15:21:38.04Z</time></trkpt><trkpt lat="43.7465383" lon="11.5894133"><ele>1251.0</ele><time>2026-05-02T15:21:39.04Z</time></trkpt><trkpt lat="43.7465983" lon="11.58947"><ele>1251.3999999999999</ele><time>2026-05-02T15:21:40.04Z</time></trkpt><trkpt lat="43.74668" lon="11.5895367"><ele>1251.8</ele><time>2026-05-02T15:21:41.039Z</time></trkpt><trkpt lat="43.7467583" lon="11.5896117"><ele>1252.1999999999998</ele><time>2026-05-02T15:21:42.04Z</time></trkpt><trkpt lat="43.7468633" lon="11.589705"><ele>1252.6</ele><time>2026-05-02T15:21:43.052Z</time></trkpt><trkpt lat="43.74698" lon="11.5897933"><ele>1253.0</ele><time>2026-05-02T15:21:44.042Z</time></trkpt><trkpt lat="43.7471067" lon="11.589865"><ele>1253.6</ele><time>2026-05-02T15:21:45.039Z</time></trkpt><trkpt lat="43.747225" lon="11.5898933"><ele>1254.1999999999998</ele><time>2026-05-02T15:21:46.039Z</time></trkpt><trkpt lat="43.747325" lon="11.5898867"><ele>1254.8</ele><time>2026-05-02T15:21:47.04Z</time></trkpt><trkpt lat="43.747405" lon="11.5898767"><ele>1255.3999999999999</ele><time>2026-05-02T15:21:48.041Z</time></trkpt><trkpt lat="43.747475" lon="11.589855"><ele>1256.0</ele><time>2026-05-02T15:21:49.04Z</time></trkpt><trkpt lat="43.74755" lon="11.58977"><ele>1256.0</ele><time>2026-05-02T15:21:51.039Z</time></trkpt><trkpt lat="43.7475967" lon="11.58971"><ele>1256.0</ele><time>2026-05-02T15:21:52.039Z</time></trkpt><trkpt lat="43.747645" lon="11.5896517"><ele>1256.0</ele><time>2026-05-02T15:21:53.038Z</time></trkpt><trkpt lat="43.7477067" lon="11.58958"><ele>1256.0</ele><time>2026-05-02T15:21:54.038Z</time></trkpt><trkpt lat="43.74778" lon="11.5895083"><ele>1256.0</ele><time>2026-05-02T15:21:55.039Z</time></trkpt><trkpt lat="43.74786" lon="11.58944"><ele>1256.0</ele><time>2026-05-02T15:21:56.04Z</time></trkpt><trkpt lat="43.7479467" lon="11.58938"><ele>1253.6</ele><time>2026-05-02T15:21:57.039Z</time></trkpt><trkpt lat="43.74802" lon="11.589335"><ele>1251.1999999999998</ele><time>2026-05-02T15:21:58.041Z</time></trkpt><trkpt lat="43.7480967" lon="11.589285"><ele>1248.8000000000002</ele><time>2026-05-02T15:21:59.041Z</time></trkpt><trkpt lat="43.748165" lon="11.5892083"><ele>1246.4</ele><time>2026-05-02T15:22:00.04Z</time></trkpt><trkpt lat="43.74823" lon="11.589115"><ele>1244.0</ele><time>2026-05-02T15:22:01.039Z</time></trkpt><trkpt lat="43.748285" lon="11.58899"><ele>1244.0</ele><time>2026-05-02T15:22:02.042Z</time></trkpt><trkpt lat="43.74834" lon="11.58883"><ele>1244.0</ele><time>2026-05-02T15:22:03.04Z</time></trkpt><trkpt lat="43.74841" lon="11.5886883"><ele>1244.0</ele><time>2026-05-02T15:22:04.04Z</time></trkpt><trkpt lat="43.748485" lon="11.5885533"><ele>1244.0</ele><time>2026-05-02T15:22:05.039Z</time></trkpt><trkpt lat="43.7485583" lon="11.5884317"><ele>1241.6000000000001</ele><time>2026-05-02T15:22:06.04Z</time></trkpt><trkpt lat="43.7486233" lon="11.5883383"><ele>1239.2</ele><time>2026-05-02T15:22:07.04Z</time></trkpt><trkpt lat="43.748685" lon="11.58823"><ele>1236.8000000000002</ele><time>2026-05-02T15:22:08.042Z</time></trkpt><trkpt lat="43.7487483" lon="11.5881217"><ele>1234.4</ele><time>2026-05-02T15:22:09.04Z</time></trkpt><trkpt lat="43.748815" lon="11.5880133"><ele>1232.0</ele><time>2026-05-02T15:22:10.041Z</time></trkpt><trkpt lat="43.74889" lon="11.5879183"><ele>1232.0</ele><time>2026-05-02T15:22:11.041Z</time></trkpt><trkpt lat="43.7489717" lon="11.587855"><ele>1232.0</ele><time>2026-05-02T15:22:12.04Z</time></trkpt><trkpt lat="43.7490583" lon="11.5877933"><ele>1232.0</ele><time>2026-05-02T15:22:13.042Z</time></trkpt><trkpt lat="43.749125" lon="11.5877483"><ele>1232.0</ele><time>2026-05-02T15:22:14.043Z</time></trkpt><trkpt lat="43.7491983" lon="11.5876933"><ele>1232.0</ele><time>2026-05-02T15:22:15.04Z</time></trkpt><trkpt lat="43.74926" lon="11.587645"><ele>1232.0</ele><time>2026-05-02T15:22:16.04Z</time></trkpt><trkpt lat="43.7493267" lon="11.5875767"><ele>1231.5</ele><time>2026-05-02T15:22:17.042Z</time></trkpt><trkpt lat="43.74939" lon="11.5875233"><ele>1231.0</ele><time>2026-05-02T15:22:18.042Z</time></trkpt><trkpt lat="43.7494633" lon="11.5874683"><ele>1230.5</ele><time>2026-05-02T15:22:19.041Z</time></trkpt><trkpt lat="43.74953" lon="11.5874117"><ele>1230.0</ele><time>2026-05-02T15:22:20.042Z</time></trkpt><trkpt lat="43.7496017" lon="11.5873433"><ele>1229.5</ele><time>2026-05-02T15:22:21.039Z</time></trkpt><trkpt lat="43.7496867" lon="11.5872683"><ele>1229.0</ele><time>2026-05-02T15:22:22.041Z</time></trkpt><trkpt lat="43.7497883" lon="11.5871683"><ele>1229.0</ele><time>2026-05-02T15:22:23.041Z</time></trkpt><trkpt lat="43.7498833" lon="11.587065"><ele>1229.0</ele><time>2026-05-02T15:22:24.041Z</time></trkpt><trkpt lat="43.7499783" lon="11.5869433"><ele>1229.0</ele><time>2026-05-02T15:22:25.04Z</time></trkpt><trkpt lat="43.7500567" lon="11.5868217"><ele>1229.0</ele><time>2026-05-02T15:22:26.041Z</time></trkpt><trkpt lat="43.7501433" lon="11.5867017"><ele>1229.0</ele><time>2026-05-02T15:22:27.04Z</time></trkpt><trkpt lat="43.75023" lon="11.5865833"><ele>1229.0</ele><time>2026-05-02T15:22:28.04Z</time></trkpt><trkpt lat="43.75032" lon="11.5864767"><ele>1229.0</ele><time>2026-05-02T15:22:29.041Z</time></trkpt><trkpt lat="43.7504083" lon="11.5863617"><ele>1229.0</ele><time>2026-05-02T15:22:30.042Z</time></trkpt><trkpt lat="43.7504633" lon="11.5862833"><ele>1229.0</ele><time>2026-05-02T15:22:31.04Z</time></trkpt><trkpt lat="43.75051" lon="11.58622"><ele>1229.0</ele><time>2026-05-02T15:22:32.04Z</time></trkpt><trkpt lat="43.7506117" lon="11.586215"><ele>1229.0</ele><time>2026-05-02T15:22:42.04Z</time></trkpt><trkpt lat="43.7506967" lon="11.5861717"><ele>1229.0</ele><time>2026-05-02T15:22:44.042Z</time></trkpt><trkpt lat="43.750805" lon="11.586105"><ele>1229.0</ele><time>2026-05-02T15:22:46.04Z</time></trkpt><trkpt lat="43.7509183" lon="11.5860317"><ele>1229.0</ele><time>2026-05-02T15:22:48.04Z</time></trkpt><trkpt lat="43.75101" lon="11.5859767"><ele>1230.2</ele><time>2026-05-02T15:22:49.041Z</time></trkpt><trkpt lat="43.7511117" lon="11.585935"><ele>1231.4</ele><time>2026-05-02T15:22:50.041Z</time></trkpt><trkpt lat="43.7512083" lon="11.5858983"><ele>1232.6</ele><time>2026-05-02T15:22:51.039Z</time></trkpt><trkpt lat="43.7512917" lon="11.5858667"><ele>1233.8</ele><time>2026-05-02T15:22:52.04Z</time></trkpt><trkpt lat="43.7513567" lon="11.585845"><ele>1235.0</ele><time>2026-05-02T15:22:53.041Z</time></trkpt><trkpt lat="43.7514483" lon="11.585815"><ele>1235.0</ele><time>2026-05-02T15:22:55.029Z</time></trkpt><trkpt lat="43.7515367" lon="11.58579"><ele>1235.0</ele><time>2026-05-02T15:22:57.039Z</time></trkpt><trkpt lat="43.7516" lon="11.5857417"><ele>1235.0</ele><time>2026-05-02T15:22:59.041Z</time></trkpt><trkpt lat="43.7516417" lon="11.5856567"><ele>1235.0</ele><time>2026-05-02T15:23:01.042Z</time></trkpt><trkpt lat="43.7516767" lon="11.5855367"><ele>1235.0</ele><time>2026-05-02T15:23:03.042Z</time></trkpt><trkpt lat="43.75173" lon="11.585465"><ele>1235.0</ele><time>2026-05-02T15:23:05.042Z</time></trkpt><trkpt lat="43.7517867" lon="11.58541"><ele>1234.1666666666667</ele><time>2026-05-02T15:23:07.042Z</time></trkpt><trkpt lat="43.7518633" lon="11.5853317"><ele>1233.3333333333335</ele><time>2026-05-02T15:23:09.04Z</time></trkpt><trkpt lat="43.7519217" lon="11.5852683"><ele>1232.5</ele><time>2026-05-02T15:23:11.04Z</time></trkpt><trkpt lat="43.7519833" lon="11.5852067"><ele>1231.6666666666667</ele><time>2026-05-02T15:23:13.039Z</time></trkpt><trkpt lat="43.7520533" lon="11.5851933"><ele>1230.8333333333333</ele><time>2026-05-02T15:23:15.03Z</time></trkpt><trkpt lat="43.752165" lon="11.5851583"><ele>1230.0</ele><time>2026-05-02T15:23:17.04Z</time></trkpt><trkpt lat="43.7522283" lon="11.5851217"><ele>1226.8333333333333</ele><time>2026-05-02T15:23:18.041Z</time></trkpt><trkpt lat="43.7522867" lon="11.5850733"><ele>1223.6666666666667</ele><time>2026-05-02T15:23:19.041Z</time></trkpt><trkpt lat="43.7523733" lon="11.5850433"><ele>1220.5</ele><time>2026-05-02T15:23:21.04Z</time></trkpt><trkpt lat="43.7524617" lon="11.5850267"><ele>1217.3333333333335</ele><time>2026-05-02T15:23:23.04Z</time></trkpt><trkpt lat="43.752565" lon="11.585065"><ele>1214.1666666666667</ele><time>2026-05-02T15:23:25.039Z</time></trkpt><trkpt lat="43.7526433" lon="11.58509"><ele>1211.0</ele><time>2026-05-02T15:23:26.042Z</time></trkpt><trkpt lat="43.7527117" lon="11.5851133"><ele>1209.8</ele><time>2026-05-02T15:23:27.039Z</time></trkpt><trkpt lat="43.7527933" lon="11.5851267"><ele>1208.6</ele><time>2026-05-02T15:23:28.039Z</time></trkpt><trkpt lat="43.7528917" lon="11.5851333"><ele>1207.4</ele><time>2026-05-02T15:23:29.04Z</time></trkpt><trkpt lat="43.753005" lon="11.5851317"><ele>1206.2</ele><time>2026-05-02T15:23:30.039Z</time></trkpt><trkpt lat="43.7531117" lon="11.5851667"><ele>1205.0</ele><time>2026-05-02T15:23:31.039Z</time></trkpt><trkpt lat="43.7531967" lon="11.585215"><ele>1205.0</ele><time>2026-05-02T15:23:32.041Z</time></trkpt><trkpt lat="43.753285" lon="11.58527"><ele>1205.0</ele><time>2026-05-02T15:23:33.038Z</time></trkpt><trkpt lat="43.7533583" lon="11.5853317"><ele>1205.0</ele><time>2026-05-02T15:23:34.039Z</time></trkpt><trkpt lat="43.7534317" lon="11.5853983"><ele>1205.0</ele><time>2026-05-02T15:23:35.029Z</time></trkpt><trkpt lat="43.7535117" lon="11.58546"><ele>1205.0</ele><time>2026-05-02T15:23:36.037Z</time></trkpt><trkpt lat="43.75359" lon="11.5855333"><ele>1203.5</ele><time>2026-05-02T15:23:37.039Z</time></trkpt><trkpt lat="43.7536933" lon="11.5856133"><ele>1202.0</ele><time>2026-05-02T15:23:38.04Z</time></trkpt><trkpt lat="43.7537867" lon="11.585695"><ele>1200.5</ele><time>2026-05-02T15:23:39.039Z</time></trkpt><trkpt lat="43.7538917" lon="11.5857683"><ele>1199.0</ele><time>2026-05-02T15:23:40.04Z</time></trkpt><trkpt lat="43.75401" lon="11.585845"><ele>1199.0</ele><time>2026-05-02T15:23:41.044Z</time></trkpt><trkpt lat="43.7541183" lon="11.585905"><ele>1199.0</ele><time>2026-05-02T15:23:42.04Z</time></trkpt><trkpt lat="43.75422" lon="11.58596"><ele>1199.0</ele><time>2026-05-02T15:23:43.038Z</time></trkpt><trkpt lat="43.75431" lon="11.58599"><ele>1199.0</ele><time>2026-05-02T15:23:44.039Z</time></trkpt><trkpt lat="43.754395" lon="11.5860117"><ele>1199.0</ele><time>2026-05-02T15:23:45.038Z</time></trkpt><trkpt lat="43.75447" lon="11.58603"><ele>1198.0</ele><time>2026-05-02T15:23:46.038Z</time></trkpt><trkpt lat="43.7545333" lon="11.586025"><ele>1197.0</ele><time>2026-05-02T15:23:47.041Z</time></trkpt><trkpt lat="43.75464" lon="11.5859967"><ele>1196.0</ele><time>2026-05-02T15:23:49.038Z</time></trkpt><trkpt lat="43.754755" lon="11.5859817"><ele>1195.0</ele><time>2026-05-02T15:23:51.038Z</time></trkpt><trkpt lat="43.7548933" lon="11.5859433"><ele>1194.0</ele><time>2026-05-02T15:23:53.039Z</time></trkpt><trkpt lat="43.7549733" lon="11.5859333"><ele>1194.0</ele><time>2026-05-02T15:23:54.038Z</time></trkpt><trkpt lat="43.7550517" lon="11.5859467"><ele>1194.0</ele><time>2026-05-02T15:23:55.039Z</time></trkpt><trkpt lat="43.7551183" lon="11.5859633"><ele>1194.0</ele><time>2026-05-02T15:23:56.04Z</time></trkpt><trkpt lat="43.7552067" lon="11.5859717"><ele>1194.0</ele><time>2026-05-02T15:23:58.038Z</time></trkpt><trkpt lat="43.75532" lon="11.5860483"><ele>1194.0</ele><time>2026-05-02T15:24:12.038Z</time></trkpt><trkpt lat="43.755445" lon="11.5861183"><ele>1192.4</ele><time>2026-05-02T15:24:14.04Z</time></trkpt><trkpt lat="43.7555883" lon="11.5861717"><ele>1190.8000000000002</ele><time>2026-05-02T15:24:16.039Z</time></trkpt><trkpt lat="43.755665" lon="11.5861967"><ele>1189.1999999999998</ele><time>2026-05-02T15:24:17.04Z</time></trkpt><trkpt lat="43.75575" lon="11.58626"><ele>1187.6</ele><time>2026-05-02T15:24:18.037Z</time></trkpt><trkpt lat="43.7558383" lon="11.586325"><ele>1186.0</ele><time>2026-05-02T15:24:19.04Z</time></trkpt><trkpt lat="43.755905" lon="11.5864133"><ele>1185.0</ele><time>2026-05-02T15:24:20.04Z</time></trkpt><trkpt lat="43.7559533" lon="11.5865217"><ele>1184.0</ele><time>2026-05-02T15:24:21.04Z</time></trkpt><trkpt lat="43.7560083" lon="11.5866483"><ele>1183.0</ele><time>2026-05-02T15:24:22.039Z</time></trkpt><trkpt lat="43.75605" lon="11.586765"><ele>1182.0</ele><time>2026-05-02T15:24:23.039Z</time></trkpt><trkpt lat="43.756075" lon="11.5868733"><ele>1181.0</ele><time>2026-05-02T15:24:24.04Z</time></trkpt><trkpt lat="43.7560917" lon="11.5869933"><ele>1178.7142857142858</ele><time>2026-05-02T15:24:25.042Z</time></trkpt><trkpt lat="43.7560883" lon="11.587105"><ele>1176.4285714285716</ele><time>2026-05-02T15:24:26.04Z</time></trkpt><trkpt lat="43.7560867" lon="11.5872067"><ele>1174.142857142857</ele><time>2026-05-02T15:24:27.04Z</time></trkpt><trkpt lat="43.756085" lon="11.587305"><ele>1171.857142857143</ele><time>2026-05-02T15:24:28.039Z</time></trkpt><trkpt lat="43.7561033" lon="11.5873967"><ele>1169.5714285714284</ele><time>2026-05-02T15:24:29.04Z</time></trkpt><trkpt lat="43.756145" lon="11.5874683"><ele>1167.2857142857142</ele><time>2026-05-02T15:24:30.039Z</time></trkpt><trkpt lat="43.7562033" lon="11.5875217"><ele>1165.0</ele><time>2026-05-02T15:24:31.039Z</time></trkpt><trkpt lat="43.7562683" lon="11.5875683"><ele>1165.0</ele><time>2026-05-02T15:24:32.04Z</time></trkpt><trkpt lat="43.7563567" lon="11.5876017"><ele>1165.0</ele><time>2026-05-02T15:24:33.039Z</time></trkpt><trkpt lat="43.7564433" lon="11.5876417"><ele>1165.0</ele><time>2026-05-02T15:24:34.039Z</time></trkpt><trkpt lat="43.756525" lon="11.58769"><ele>1165.0</ele><time>2026-05-02T15:24:35.039Z</time></trkpt><trkpt lat="43.7566" lon="11.58772"><ele>1165.0</ele><time>2026-05-02T15:24:36.039Z</time></trkpt><trkpt lat="43.7566767" lon="11.587735"><ele>1165.0</ele><time>2026-05-02T15:24:37.041Z</time></trkpt><trkpt lat="43.7567583" lon="11.5877283"><ele>1165.0</ele><time>2026-05-02T15:24:38.04Z</time></trkpt><trkpt lat="43.7568383" lon="11.5877133"><ele>1165.0</ele><time>2026-05-02T15:24:39.037Z</time></trkpt><trkpt lat="43.7569117" lon="11.587675"><ele>1165.0</ele><time>2026-05-02T15:24:40.041Z</time></trkpt><trkpt lat="43.756975" lon="11.5876333"><ele>1165.0</ele><time>2026-05-02T15:24:41.038Z</time></trkpt><trkpt lat="43.757085" lon="11.5875483"><ele>1165.0</ele><time>2026-05-02T15:24:43.039Z</time></trkpt><trkpt lat="43.7571567" lon="11.5874933"><ele>1165.0</ele><time>2026-05-02T15:24:44.041Z</time></trkpt><trkpt lat="43.75723" lon="11.5874233"><ele>1163.0</ele><time>2026-05-02T15:24:45.039Z</time></trkpt><trkpt lat="43.7573033" lon="11.58736"><ele>1161.0</ele><time>2026-05-02T15:24:46.039Z</time></trkpt><trkpt lat="43.7573783" lon="11.5873083"><ele>1159.0</ele><time>2026-05-02T15:24:47.038Z</time></trkpt><trkpt lat="43.7574483" lon="11.5872717"><ele>1157.0</ele><time>2026-05-02T15:24:48.039Z</time></trkpt><trkpt lat="43.7575317" lon="11.587305"><ele>1155.0</ele><time>2026-05-02T15:24:50.042Z</time></trkpt><trkpt lat="43.7574917" lon="11.587425"><ele>1153.0</ele><time>2026-05-02T15:24:52.038Z</time></trkpt><trkpt lat="43.757415" lon="11.58754"><ele>1153.0</ele><time>2026-05-02T15:24:54.039Z</time></trkpt><trkpt lat="43.7574167" lon="11.5876533"><ele>1153.0</ele><time>2026-05-02T15:24:56.029Z</time></trkpt><trkpt lat="43.7575433" lon="11.5877583"><ele>1153.0</ele><time>2026-05-02T15:24:58.039Z</time></trkpt><trkpt lat="43.7576167" lon="11.5878017"><ele>1153.0</ele><time>2026-05-02T15:24:59.039Z</time></trkpt><trkpt lat="43.7576917" lon="11.5878267"><ele>1153.0</ele><time>2026-05-02T15:25:00.039Z</time></trkpt><trkpt lat="43.7577633" lon="11.58783"><ele>1151.0</ele><time>2026-05-02T15:25:01.04Z</time></trkpt><trkpt lat="43.7578367" lon="11.5878133"><ele>1149.0</ele><time>2026-05-02T15:25:02.04Z</time></trkpt><trkpt lat="43.7579" lon="11.587785"><ele>1147.0</ele><time>2026-05-02T15:25:03.039Z</time></trkpt><trkpt lat="43.757965" lon="11.58773"><ele>1145.0</ele><time>2026-05-02T15:25:04.04Z</time></trkpt><trkpt lat="43.758025" lon="11.5876583"><ele>1143.0</ele><time>2026-05-02T15:25:05.04Z</time></trkpt><trkpt lat="43.758085" lon="11.5875767"><ele>1141.0</ele><time>2026-05-02T15:25:06.041Z</time></trkpt><trkpt lat="43.7581367" lon="11.5875033"><ele>1141.0</ele><time>2026-05-02T15:25:07.042Z</time></trkpt><trkpt lat="43.7582017" lon="11.5874283"><ele>1141.0</ele><time>2026-05-02T15:25:08.03Z</time></trkpt><trkpt lat="43.758265" lon="11.5873917"><ele>1141.0</ele><time>2026-05-02T15:25:09.039Z</time></trkpt><trkpt lat="43.7583383" lon="11.5873883"><ele>1141.0</ele><time>2026-05-02T15:25:10.039Z</time></trkpt><trkpt lat="43.7584183" lon="11.58741"><ele>1141.0</ele><time>2026-05-02T15:25:11.039Z</time></trkpt><trkpt lat="43.7585017" lon="11.5874533"><ele>1141.0</ele><time>2026-05-02T15:25:12.039Z</time></trkpt><trkpt lat="43.75858" lon="11.5875217"><ele>1139.5</ele><time>2026-05-02T15:25:13.04Z</time></trkpt><trkpt lat="43.7586533" lon="11.5875967"><ele>1138.0</ele><time>2026-05-02T15:25:14.04Z</time></trkpt><trkpt lat="43.7587217" lon="11.587655"><ele>1136.5</ele><time>2026-05-02T15:25:15.04Z</time></trkpt><trkpt lat="43.75879" lon="11.587685"><ele>1135.0</ele><time>2026-05-02T15:25:16.039Z</time></trkpt><trkpt lat="43.7588683" lon="11.58769"><ele>1133.5</ele><time>2026-05-02T15:25:17.041Z</time></trkpt><trkpt lat="43.7589433" lon="11.5876783"><ele>1132.0</ele><time>2026-05-02T15:25:18.039Z</time></trkpt><trkpt lat="43.759055" lon="11.5876117"><ele>1132.0</ele><time>2026-05-02T15:25:20.042Z</time></trkpt><trkpt lat="43.759175" lon="11.5875517"><ele>1132.0</ele><time>2026-05-02T15:25:22.04Z</time></trkpt><trkpt lat="43.75924" lon="11.5875233"><ele>1132.0</ele><time>2026-05-02T15:25:23.041Z</time></trkpt><trkpt lat="43.75931" lon="11.5874717"><ele>1132.0</ele><time>2026-05-02T15:25:24.04Z</time></trkpt><trkpt lat="43.7593783" lon="11.58739"><ele>1132.0</ele><time>2026-05-02T15:25:25.039Z</time></trkpt><trkpt lat="43.759445" lon="11.5872883"><ele>1130.6</ele><time>2026-05-02T15:25:26.04Z</time></trkpt><trkpt lat="43.7595" lon="11.5871783"><ele>1129.2</ele><time>2026-05-02T15:25:27.04Z</time></trkpt><trkpt lat="43.7595467" lon="11.5870483"><ele>1127.8</ele><time>2026-05-02T15:25:28.039Z</time></trkpt><trkpt lat="43.7595933" lon="11.5869267"><ele>1126.4</ele><time>2026-05-02T15:25:29.039Z</time></trkpt><trkpt lat="43.7596433" lon="11.5868217"><ele>1125.0</ele><time>2026-05-02T15:25:30.04Z</time></trkpt><trkpt lat="43.7596833" lon="11.58673"><ele>1125.0</ele><time>2026-05-02T15:25:31.039Z</time></trkpt><trkpt lat="43.75969" lon="11.5865683"><ele>1125.0</ele><time>2026-05-02T15:25:33.039Z</time></trkpt><trkpt lat="43.7596617" lon="11.5864867"><ele>1125.0</ele><time>2026-05-02T15:25:34.039Z</time></trkpt><trkpt lat="43.7596133" lon="11.5864067"><ele>1125.0</ele><time>2026-05-02T15:25:35.039Z</time></trkpt><trkpt lat="43.759555" lon="11.5863383"><ele>1125.0</ele><time>2026-05-02T15:25:36.04Z</time></trkpt><trkpt lat="43.7594833" lon="11.5863083"><ele>1125.0</ele><time>2026-05-02T15:25:37.04Z</time></trkpt><trkpt lat="43.7594017" lon="11.5863033"><ele>1125.8333333333333</ele><time>2026-05-02T15:25:38.041Z</time></trkpt><trkpt lat="43.7593133" lon="11.586305"><ele>1126.6666666666667</ele><time>2026-05-02T15:25:39.04Z</time></trkpt><trkpt lat="43.7592283" lon="11.58629"><ele>1127.5</ele><time>2026-05-02T15:25:40.039Z</time></trkpt><trkpt lat="43.7591467" lon="11.5862683"><ele>1128.3333333333335</ele><time>2026-05-02T15:25:41.039Z</time></trkpt><trkpt lat="43.7590717" lon="11.5862467"><ele>1129.1666666666667</ele><time>2026-05-02T15:25:42.041Z</time></trkpt><trkpt lat="43.759" lon="11.58622"><ele>1130.0</ele><time>2026-05-02T15:25:43.043Z</time></trkpt><trkpt lat="43.75893" lon="11.5861383"><ele>1127.8</ele><time>2026-05-02T15:25:45.038Z</time></trkpt><trkpt lat="43.758945" lon="11.585975"><ele>1125.6</ele><time>2026-05-02T15:25:47.04Z</time></trkpt><trkpt lat="43.75899" lon="11.5858583"><ele>1123.4</ele><time>2026-05-02T15:25:48.04Z</time></trkpt><trkpt lat="43.7590317" lon="11.58572"><ele>1121.2</ele><time>2026-05-02T15:25:49.039Z</time></trkpt><trkpt lat="43.75906" lon="11.5855883"><ele>1119.0</ele><time>2026-05-02T15:25:50.041Z</time></trkpt><trkpt lat="43.75907" lon="11.5854617"><ele>1117.6000000000001</ele><time>2026-05-02T15:25:51.041Z</time></trkpt><trkpt lat="43.75907" lon="11.585335"><ele>1116.2</ele><time>2026-05-02T15:25:52.041Z</time></trkpt><trkpt lat="43.7590383" lon="11.5851767"><ele>1114.8000000000002</ele><time>2026-05-02T15:25:53.041Z</time></trkpt><trkpt lat="43.75901" lon="11.585025"><ele>1113.4</ele><time>2026-05-02T15:25:54.039Z</time></trkpt><trkpt lat="43.75899" lon="11.584885"><ele>1112.0</ele><time>2026-05-02T15:25:55.039Z</time></trkpt><trkpt lat="43.75897" lon="11.58475"><ele>1112.0</ele><time>2026-05-02T15:25:56.041Z</time></trkpt><trkpt lat="43.7589517" lon="11.5846167"><ele>1112.0</ele><time>2026-05-02T15:25:57.038Z</time></trkpt><trkpt lat="43.7589267" lon="11.5844867"><ele>1112.0</ele><time>2026-05-02T15:25:58.039Z</time></trkpt><trkpt lat="43.7589017" lon="11.58436"><ele>1112.0</ele><time>2026-05-02T15:25:59.039Z</time></trkpt><trkpt lat="43.7588783" lon="11.584245"><ele>1112.0</ele><time>2026-05-02T15:26:00.037Z</time></trkpt><trkpt lat="43.7588683" lon="11.5841317"><ele>1111.6666666666667</ele><time>2026-05-02T15:26:01.039Z</time></trkpt><trkpt lat="43.7588783" lon="11.5840267"><ele>1111.3333333333335</ele><time>2026-05-02T15:26:02.042Z</time></trkpt><trkpt lat="43.758915" lon="11.58394"><ele>1111.0</ele><time>2026-05-02T15:26:03.04Z</time></trkpt><trkpt lat="43.7589717" lon="11.5838733"><ele>1110.6666666666667</ele><time>2026-05-02T15:26:04.04Z</time></trkpt><trkpt lat="43.7590333" lon="11.5838017"><ele>1110.3333333333333</ele><time>2026-05-02T15:26:05.039Z</time></trkpt><trkpt lat="43.7591217" lon="11.5837217"><ele>1110.0</ele><time>2026-05-02T15:26:06.039Z</time></trkpt><trkpt lat="43.759215" lon="11.5836467"><ele>1109.3333333333333</ele><time>2026-05-02T15:26:07.039Z</time></trkpt><trkpt lat="43.7592983" lon="11.5835783"><ele>1108.6666666666667</ele><time>2026-05-02T15:26:08.041Z</time></trkpt><trkpt lat="43.75937" lon="11.5835167"><ele>1108.0</ele><time>2026-05-02T15:26:09.039Z</time></trkpt><trkpt lat="43.7594367" lon="11.583455"><ele>1107.3333333333335</ele><time>2026-05-02T15:26:10.038Z</time></trkpt><trkpt lat="43.7594917" lon="11.583395"><ele>1106.6666666666667</ele><time>2026-05-02T15:26:11.038Z</time></trkpt><trkpt lat="43.7595467" lon="11.58334"><ele>1106.0</ele><time>2026-05-02T15:26:12.039Z</time></trkpt><trkpt lat="43.7596033" lon="11.5833"><ele>1106.0</ele><time>2026-05-02T15:26:13.039Z</time></trkpt><trkpt lat="43.75967" lon="11.5832717"><ele>1106.0</ele><time>2026-05-02T15:26:14.041Z</time></trkpt><trkpt lat="43.7597383" lon="11.5832367"><ele>1106.0</ele><time>2026-05-02T15:26:15.039Z</time></trkpt><trkpt lat="43.75982" lon="11.583185"><ele>1106.0</ele><time>2026-05-02T15:26:16.039Z</time></trkpt><trkpt lat="43.7599017" lon="11.5831167"><ele>1106.0</ele><time>2026-05-02T15:26:17.039Z</time></trkpt><trkpt lat="43.7599767" lon="11.58305"><ele>1106.0</ele><time>2026-05-02T15:26:18.125Z</time></trkpt><trkpt lat="43.760045" lon="11.5829883"><ele>1106.0</ele><time>2026-05-02T15:26:19.039Z</time></trkpt><trkpt lat="43.76011" lon="11.5829217"><ele>1106.0</ele><time>2026-05-02T15:26:20.04Z</time></trkpt><trkpt lat="43.7601633" lon="11.582855"><ele>1106.0</ele><time>2026-05-02T15:26:21.04Z</time></trkpt><trkpt lat="43.76024" lon="11.5827467"><ele>1106.0</ele><time>2026-05-02T15:26:23.039Z</time></trkpt><trkpt lat="43.7603233" lon="11.5826583"><ele>1106.0</ele><time>2026-05-02T15:26:25.041Z</time></trkpt><trkpt lat="43.760425" lon="11.5825867"><ele>1107.5</ele><time>2026-05-02T15:26:27.04Z</time></trkpt><trkpt lat="43.76053" lon="11.5825117"><ele>1109.0</ele><time>2026-05-02T15:26:29.042Z</time></trkpt><trkpt lat="43.76063" lon="11.58244"><ele>1110.5</ele><time>2026-05-02T15:26:31.041Z</time></trkpt><trkpt lat="43.760725" lon="11.5823867"><ele>1112.0</ele><time>2026-05-02T15:26:33.042Z</time></trkpt><trkpt lat="43.760845" lon="11.58242"><ele>1112.0</ele><time>2026-05-02T15:26:35.043Z</time></trkpt><trkpt lat="43.76091" lon="11.5824583"><ele>1112.0</ele><time>2026-05-02T15:26:36.039Z</time></trkpt><trkpt lat="43.760995" lon="11.5825"><ele>1112.0</ele><time>2026-05-02T15:26:37.041Z</time></trkpt><trkpt lat="43.761095" lon="11.5825583"><ele>1112.0</ele><time>2026-05-02T15:26:38.041Z</time></trkpt><trkpt lat="43.7612" lon="11.5826267"><ele>1112.0</ele><time>2026-05-02T15:26:39.038Z</time></trkpt><trkpt lat="43.7612983" lon="11.58269"><ele>1112.6</ele><time>2026-05-02T15:26:40.039Z</time></trkpt><trkpt lat="43.7613917" lon="11.582725"><ele>1113.2</ele><time>2026-05-02T15:26:41.04Z</time></trkpt><trkpt lat="43.761485" lon="11.5827633"><ele>1113.8</ele><time>2026-05-02T15:26:42.038Z</time></trkpt><trkpt lat="43.7615717" lon="11.582795"><ele>1114.4</ele><time>2026-05-02T15:26:43.04Z</time></trkpt><trkpt lat="43.7616567" lon="11.5828283"><ele>1115.0</ele><time>2026-05-02T15:26:44.041Z</time></trkpt><trkpt lat="43.76175" lon="11.5828617"><ele>1112.4</ele><time>2026-05-02T15:26:45.038Z</time></trkpt><trkpt lat="43.761855" lon="11.58288"><ele>1109.8</ele><time>2026-05-02T15:26:46.039Z</time></trkpt><trkpt lat="43.761955" lon="11.582895"><ele>1107.2</ele><time>2026-05-02T15:26:47.041Z</time></trkpt><trkpt lat="43.76205" lon="11.5829083"><ele>1104.6</ele><time>2026-05-02T15:26:48.039Z</time></trkpt><trkpt lat="43.7621417" lon="11.5829133"><ele>1102.0</ele><time>2026-05-02T15:26:49.038Z</time></trkpt><trkpt lat="43.7622333" lon="11.582905"><ele>1102.0</ele><time>2026-05-02T15:26:50.04Z</time></trkpt><trkpt lat="43.762325" lon="11.5828833"><ele>1102.0</ele><time>2026-05-02T15:26:51.038Z</time></trkpt><trkpt lat="43.7624033" lon="11.5828467"><ele>1102.0</ele><time>2026-05-02T15:26:52.038Z</time></trkpt><trkpt lat="43.762485" lon="11.5828017"><ele>1102.0</ele><time>2026-05-02T15:26:53.039Z</time></trkpt><trkpt lat="43.7625683" lon="11.5827483"><ele>1102.0</ele><time>2026-05-02T15:26:54.038Z</time></trkpt><trkpt lat="43.76265" lon="11.582695"><ele>1102.0</ele><time>2026-05-02T15:26:55.04Z</time></trkpt><trkpt lat="43.76273" lon="11.5826517"><ele>1102.1666666666665</ele><time>2026-05-02T15:26:56.04Z</time></trkpt><trkpt lat="43.76281" lon="11.5826117"><ele>1102.3333333333333</ele><time>2026-05-02T15:26:57.039Z</time></trkpt><trkpt lat="43.7629017" lon="11.5825867"><ele>1102.5</ele><time>2026-05-02T15:26:58.039Z</time></trkpt><trkpt lat="43.7629833" lon="11.582565"><ele>1102.6666666666667</ele><time>2026-05-02T15:26:59.04Z</time></trkpt><trkpt lat="43.7630683" lon="11.5825533"><ele>1102.8333333333335</ele><time>2026-05-02T15:27:00.043Z</time></trkpt><trkpt lat="43.7631533" lon="11.5825233"><ele>1103.0</ele><time>2026-05-02T15:27:01.039Z</time></trkpt><trkpt lat="43.76325" lon="11.5824867"><ele>1103.0</ele><time>2026-05-02T15:27:02.04Z</time></trkpt><trkpt lat="43.76335" lon="11.58246"><ele>1103.0</ele><time>2026-05-02T15:27:03.04Z</time></trkpt><trkpt lat="43.7634567" lon="11.582425"><ele>1103.0</ele><time>2026-05-02T15:27:04.04Z</time></trkpt><trkpt lat="43.76358" lon="11.5824167"><ele>1103.0</ele><time>2026-05-02T15:27:05.04Z</time></trkpt><trkpt lat="43.7636933" lon="11.582415"><ele>1103.0</ele><time>2026-05-02T15:27:06.04Z</time></trkpt><trkpt lat="43.76381" lon="11.5823917"><ele>1101.0</ele><time>2026-05-02T15:27:07.038Z</time></trkpt><trkpt lat="43.7639233" lon="11.5823633"><ele>1099.0</ele><time>2026-05-02T15:27:08.04Z</time></trkpt><trkpt lat="43.7640433" lon="11.58232"><ele>1097.0</ele><time>2026-05-02T15:27:09.038Z</time></trkpt><trkpt lat="43.7641517" lon="11.5822867"><ele>1095.0</ele><time>2026-05-02T15:27:10.04Z</time></trkpt><trkpt lat="43.7642483" lon="11.5822433"><ele>1095.0</ele><time>2026-05-02T15:27:11.041Z</time></trkpt><trkpt lat="43.7643383" lon="11.58221"><ele>1095.0</ele><time>2026-05-02T15:27:12.038Z</time></trkpt><trkpt lat="43.764425" lon="11.5821767"><ele>1095.0</ele><time>2026-05-02T15:27:13.042Z</time></trkpt><trkpt lat="43.7645067" lon="11.5821367"><ele>1095.0</ele><time>2026-05-02T15:27:14.041Z</time></trkpt><trkpt lat="43.7645983" lon="11.5821067"><ele>1095.0</ele><time>2026-05-02T15:27:15.038Z</time></trkpt><trkpt lat="43.764695" lon="11.5820833"><ele>1093.0</ele><time>2026-05-02T15:27:16.04Z</time></trkpt><trkpt lat="43.7647933" lon="11.5820683"><ele>1091.0</ele><time>2026-05-02T15:27:17.038Z</time></trkpt><trkpt lat="43.764905" lon="11.5820483"><ele>1089.0</ele><time>2026-05-02T15:27:18.037Z</time></trkpt><trkpt lat="43.7650117" lon="11.5820117"><ele>1087.0</ele><time>2026-05-02T15:27:19.041Z</time></trkpt><trkpt lat="43.76512" lon="11.5819717"><ele>1085.0</ele><time>2026-05-02T15:27:20.042Z</time></trkpt><trkpt lat="43.765225" lon="11.5819333"><ele>1085.0</ele><time>2026-05-02T15:27:21.038Z</time></trkpt><trkpt lat="43.76533" lon="11.581915"><ele>1085.0</ele><time>2026-05-02T15:27:22.04Z</time></trkpt><trkpt lat="43.7654417" lon="11.5818883"><ele>1085.0</ele><time>2026-05-02T15:27:23.04Z</time></trkpt><trkpt lat="43.7655567" lon="11.5818733"><ele>1085.0</ele><time>2026-05-02T15:27:24.039Z</time></trkpt><trkpt lat="43.76567" lon="11.5818733"><ele>1085.0</ele><time>2026-05-02T15:27:25.04Z</time></trkpt><trkpt lat="43.765785" lon="11.5818867"><ele>1085.0</ele><time>2026-05-02T15:27:26.04Z</time></trkpt><trkpt lat="43.7658833" lon="11.5819067"><ele>1085.0</ele><time>2026-05-02T15:27:27.038Z</time></trkpt><trkpt lat="43.7659633" lon="11.5819533"><ele>1085.0</ele><time>2026-05-02T15:27:28.039Z</time></trkpt><trkpt lat="43.766035" lon="11.5819967"><ele>1085.0</ele><time>2026-05-02T15:27:29.04Z</time></trkpt><trkpt lat="43.7661017" lon="11.5820517"><ele>1085.0</ele><time>2026-05-02T15:27:30.04Z</time></trkpt><trkpt lat="43.7661583" lon="11.5821167"><ele>1085.0</ele><time>2026-05-02T15:27:31.039Z</time></trkpt><trkpt lat="43.7662083" lon="11.5821917"><ele>1086.2</ele><time>2026-05-02T15:27:32.039Z</time></trkpt><trkpt lat="43.7662433" lon="11.5823117"><ele>1087.4</ele><time>2026-05-02T15:27:33.038Z</time></trkpt><trkpt lat="43.7662767" lon="11.58247"><ele>1088.6</ele><time>2026-05-02T15:27:34.039Z</time></trkpt><trkpt lat="43.7663" lon="11.5826133"><ele>1089.8</ele><time>2026-05-02T15:27:35.039Z</time></trkpt><trkpt lat="43.7663233" lon="11.5827317"><ele>1091.0</ele><time>2026-05-02T15:27:36.038Z</time></trkpt><trkpt lat="43.7663583" lon="11.5828517"><ele>1091.0</ele><time>2026-05-02T15:27:37.04Z</time></trkpt><trkpt lat="43.7664083" lon="11.5829983"><ele>1091.0</ele><time>2026-05-02T15:27:38.04Z</time></trkpt><trkpt lat="43.7664683" lon="11.5830983"><ele>1091.0</ele><time>2026-05-02T15:27:39.039Z</time></trkpt><trkpt lat="43.7665317" lon="11.583185"><ele>1091.0</ele><time>2026-05-02T15:27:40.037Z</time></trkpt><trkpt lat="43.7665867" lon="11.5832283"><ele>1091.0</ele><time>2026-05-02T15:27:41.039Z</time></trkpt><trkpt lat="43.76665" lon="11.5832783"><ele>1091.0</ele><time>2026-05-02T15:27:42.038Z</time></trkpt><trkpt lat="43.7667117" lon="11.5833183"><ele>1091.0</ele><time>2026-05-02T15:27:43.04Z</time></trkpt><trkpt lat="43.766785" lon="11.58336"><ele>1091.0</ele><time>2026-05-02T15:27:44.04Z</time></trkpt><trkpt lat="43.76688" lon="11.5833733"><ele>1091.0</ele><time>2026-05-02T15:27:45.039Z</time></trkpt><trkpt lat="43.7669867" lon="11.5834"><ele>1091.0</ele><time>2026-05-02T15:27:46.039Z</time></trkpt><trkpt lat="43.7670817" lon="11.583445"><ele>1091.0</ele><time>2026-05-02T15:27:47.039Z</time></trkpt><trkpt lat="43.767165" lon="11.583505"><ele>1092.5</ele><time>2026-05-02T15:27:48.039Z</time></trkpt><trkpt lat="43.7672517" lon="11.58355"><ele>1094.0</ele><time>2026-05-02T15:27:49.039Z</time></trkpt><trkpt lat="43.767335" lon="11.5835917"><ele>1095.5</ele><time>2026-05-02T15:27:50.04Z</time></trkpt><trkpt lat="43.7674083" lon="11.5835817"><ele>1097.0</ele><time>2026-05-02T15:27:51.037Z</time></trkpt><trkpt lat="43.7674833" lon="11.5835783"><ele>1098.5</ele><time>2026-05-02T15:27:52.039Z</time></trkpt><trkpt lat="43.7675683" lon="11.5835617"><ele>1100.0</ele><time>2026-05-02T15:27:53.04Z</time></trkpt><trkpt lat="43.7676767" lon="11.5834967"><ele>1101.25</ele><time>2026-05-02T15:27:54.039Z</time></trkpt><trkpt lat="43.7677983" lon="11.5833483"><ele>1102.5</ele><time>2026-05-02T15:27:55.039Z</time></trkpt><trkpt lat="43.767905" lon="11.5832817"><ele>1103.75</ele><time>2026-05-02T15:27:56.04Z</time></trkpt><trkpt lat="43.768005" lon="11.5832"><ele>1105.0</ele><time>2026-05-02T15:27:57.039Z</time></trkpt><trkpt lat="43.7680917" lon="11.5831383"><ele>1105.0</ele><time>2026-05-02T15:27:58.04Z</time></trkpt><trkpt lat="43.768175" lon="11.5830833"><ele>1105.0</ele><time>2026-05-02T15:27:59.039Z</time></trkpt><trkpt lat="43.7682583" lon="11.58305"><ele>1105.0</ele><time>2026-05-02T15:28:00.04Z</time></trkpt><trkpt lat="43.768335" lon="11.58302"><ele>1105.0</ele><time>2026-05-02T15:28:01.039Z</time></trkpt><trkpt lat="43.7684067" lon="11.5830017"><ele>1105.0</ele><time>2026-05-02T15:28:02.039Z</time></trkpt><trkpt lat="43.7684983" lon="11.583015"><ele>1105.0</ele><time>2026-05-02T15:28:04.039Z</time></trkpt><trkpt lat="43.768565" lon="11.5830467"><ele>1106.0</ele><time>2026-05-02T15:28:06.039Z</time></trkpt><trkpt lat="43.768625" lon="11.58308"><ele>1107.0</ele><time>2026-05-02T15:28:08.04Z</time></trkpt><trkpt lat="43.7686917" lon="11.5831167"><ele>1108.0</ele><time>2026-05-02T15:28:10.029Z</time></trkpt><trkpt lat="43.7687633" lon="11.5831633"><ele>1109.0</ele><time>2026-05-02T15:28:12.042Z</time></trkpt><trkpt lat="43.7688483" lon="11.58319"><ele>1110.0</ele><time>2026-05-02T15:28:14.04Z</time></trkpt><trkpt lat="43.7689183" lon="11.5832483"><ele>1111.0</ele><time>2026-05-02T15:28:16.041Z</time></trkpt><trkpt lat="43.7689917" lon="11.5832883"><ele>1111.0</ele><time>2026-05-02T15:28:18.037Z</time></trkpt><trkpt lat="43.7690883" lon="11.583325"><ele>1111.0</ele><time>2026-05-02T15:28:20.042Z</time></trkpt><trkpt lat="43.76921" lon="11.583385"><ele>1111.0</ele><time>2026-05-02T15:28:22.039Z</time></trkpt><trkpt lat="43.7692833" lon="11.583445"><ele>1111.0</ele><time>2026-05-02T15:28:23.041Z</time></trkpt><trkpt lat="43.769365" lon="11.5835117"><ele>1111.0</ele><time>2026-05-02T15:28:24.041Z</time></trkpt><trkpt lat="43.76946" lon="11.5835967"><ele>1110.8</ele><time>2026-05-02T15:28:25.039Z</time></trkpt><trkpt lat="43.7695417" lon="11.5836917"><ele>1110.6</ele><time>2026-05-02T15:28:26.04Z</time></trkpt><trkpt lat="43.7696167" lon="11.5837883"><ele>1110.4</ele><time>2026-05-02T15:28:27.04Z</time></trkpt><trkpt lat="43.7696883" lon="11.5838783"><ele>1110.2</ele><time>2026-05-02T15:28:28.039Z</time></trkpt><trkpt lat="43.769765" lon="11.583975"><ele>1110.0</ele><time>2026-05-02T15:28:29.041Z</time></trkpt><trkpt lat="43.7698567" lon="11.5841033"><ele>1110.0</ele><time>2026-05-02T15:28:30.03Z</time></trkpt><trkpt lat="43.7699417" lon="11.584205"><ele>1110.0</ele><time>2026-05-02T15:28:31.039Z</time></trkpt><trkpt lat="43.770035" lon="11.5843217"><ele>1110.0</ele><time>2026-05-02T15:28:32.041Z</time></trkpt><trkpt lat="43.770115" lon="11.5844317"><ele>1110.0</ele><time>2026-05-02T15:28:33.039Z</time></trkpt><trkpt lat="43.77019" lon="11.5845417"><ele>1108.0</ele><time>2026-05-02T15:28:34.039Z</time></trkpt><trkpt lat="43.7702617" lon="11.5846533"><ele>1106.0</ele><time>2026-05-02T15:28:35.04Z</time></trkpt><trkpt lat="43.7703183" lon="11.5847667"><ele>1104.0</ele><time>2026-05-02T15:28:36.039Z</time></trkpt><trkpt lat="43.7703583" lon="11.5848817"><ele>1102.0</ele><time>2026-05-02T15:28:37.039Z</time></trkpt><trkpt lat="43.7703983" lon="11.585015"><ele>1100.0</ele><time>2026-05-02T15:28:38.039Z</time></trkpt><trkpt lat="43.7704283" lon="11.5851567"><ele>1100.0</ele><time>2026-05-02T15:28:39.038Z</time></trkpt><trkpt lat="43.770455" lon="11.58531"><ele>1100.0</ele><time>2026-05-02T15:28:40.039Z</time></trkpt><trkpt lat="43.7704983" lon="11.5854467"><ele>1100.0</ele><time>2026-05-02T15:28:41.039Z</time></trkpt><trkpt lat="43.7705367" lon="11.5855683"><ele>1100.0</ele><time>2026-05-02T15:28:42.04Z</time></trkpt><trkpt lat="43.7705867" lon="11.5856933"><ele>1100.0</ele><time>2026-05-02T15:28:43.041Z</time></trkpt><trkpt lat="43.770665" lon="11.58582"><ele>1101.2</ele><time>2026-05-02T15:28:44.04Z</time></trkpt><trkpt lat="43.7707417" lon="11.5859067"><ele>1102.4</ele><time>2026-05-02T15:28:45.037Z</time></trkpt><trkpt lat="43.7708217" lon="11.5859967"><ele>1103.6</ele><time>2026-05-02T15:28:46.039Z</time></trkpt><trkpt lat="43.7709067" lon="11.5860867"><ele>1104.8</ele><time>2026-05-02T15:28:47.042Z</time></trkpt><trkpt lat="43.7709933" lon="11.586195"><ele>1106.0</ele><time>2026-05-02T15:28:48.04Z</time></trkpt><trkpt lat="43.77108" lon="11.5863117"><ele>1102.0</ele><time>2026-05-02T15:28:49.041Z</time></trkpt><trkpt lat="43.7711583" lon="11.5864267"><ele>1098.0</ele><time>2026-05-02T15:28:50.042Z</time></trkpt><trkpt lat="43.771235" lon="11.5865317"><ele>1094.0</ele><time>2026-05-02T15:28:51.039Z</time></trkpt><trkpt lat="43.7712833" lon="11.58663"><ele>1090.0</ele><time>2026-05-02T15:28:52.041Z</time></trkpt><trkpt lat="43.7713217" lon="11.5867433"><ele>1086.0</ele><time>2026-05-02T15:28:53.042Z</time></trkpt><trkpt lat="43.7713533" lon="11.58686"><ele>1086.0</ele><time>2026-05-02T15:28:54.04Z</time></trkpt><trkpt lat="43.771375" lon="11.5869867"><ele>1086.0</ele><time>2026-05-02T15:28:55.042Z</time></trkpt><trkpt lat="43.7713983" lon="11.58712"><ele>1086.0</ele><time>2026-05-02T15:28:56.042Z</time></trkpt><trkpt lat="43.7714033" lon="11.5872467"><ele>1086.0</ele><time>2026-05-02T15:28:57.041Z</time></trkpt><trkpt lat="43.7714133" lon="11.587365"><ele>1086.0</ele><time>2026-05-02T15:28:58.04Z</time></trkpt><trkpt lat="43.77142" lon="11.5874817"><ele>1086.5</ele><time>2026-05-02T15:28:59.041Z</time></trkpt><trkpt lat="43.771435" lon="11.587605"><ele>1087.0</ele><time>2026-05-02T15:29:00.04Z</time></trkpt><trkpt lat="43.7714483" lon="11.58773"><ele>1087.5</ele><time>2026-05-02T15:29:01.041Z</time></trkpt><trkpt lat="43.771435" lon="11.5878417"><ele>1088.0</ele><time>2026-05-02T15:29:02.042Z</time></trkpt><trkpt lat="43.7714567" lon="11.5879483"><ele>1088.5</ele><time>2026-05-02T15:29:03.041Z</time></trkpt><trkpt lat="43.77149" lon="11.5880467"><ele>1089.0</ele><time>2026-05-02T15:29:04.04Z</time></trkpt><trkpt lat="43.77158" lon="11.5880867"><ele>1089.2</ele><time>2026-05-02T15:29:05.043Z</time></trkpt><trkpt lat="43.7716683" lon="11.5881267"><ele>1089.4</ele><time>2026-05-02T15:29:06.041Z</time></trkpt><trkpt lat="43.7717667" lon="11.588135"><ele>1089.6</ele><time>2026-05-02T15:29:07.043Z</time></trkpt><trkpt lat="43.7718483" lon="11.5881533"><ele>1089.8</ele><time>2026-05-02T15:29:08.042Z</time></trkpt><trkpt lat="43.771965" lon="11.5881033"><ele>1090.0</ele><time>2026-05-02T15:29:09.039Z</time></trkpt><trkpt lat="43.77206" lon="11.58808"><ele>1089.4</ele><time>2026-05-02T15:29:10.041Z</time></trkpt><trkpt lat="43.7721533" lon="11.5880467"><ele>1088.8</ele><time>2026-05-02T15:29:11.031Z</time></trkpt><trkpt lat="43.7722733" lon="11.58799"><ele>1088.2</ele><time>2026-05-02T15:29:12.041Z</time></trkpt><trkpt lat="43.7723617" lon="11.5879417"><ele>1087.6</ele><time>2026-05-02T15:29:13.039Z</time></trkpt><trkpt lat="43.77247" lon="11.5878717"><ele>1087.0</ele><time>2026-05-02T15:29:14.04Z</time></trkpt><trkpt lat="43.7725833" lon="11.5878633"><ele>1084.8</ele><time>2026-05-02T15:29:15.038Z</time></trkpt><trkpt lat="43.7726717" lon="11.5878433"><ele>1082.6</ele><time>2026-05-02T15:29:16.04Z</time></trkpt><trkpt lat="43.7727717" lon="11.5878233"><ele>1080.3999999999999</ele><time>2026-05-02T15:29:17.039Z</time></trkpt><trkpt lat="43.7728483" lon="11.5876967"><ele>1078.2</ele><time>2026-05-02T15:29:18.04Z</time></trkpt><trkpt lat="43.7729133" lon="11.58761"><ele>1076.0</ele><time>2026-05-02T15:29:19.039Z</time></trkpt><trkpt lat="43.7729733" lon="11.5875183"><ele>1075.6666666666667</ele><time>2026-05-02T15:29:20.04Z</time></trkpt><trkpt lat="43.7730117" lon="11.5874017"><ele>1075.3333333333335</ele><time>2026-05-02T15:29:21.04Z</time></trkpt><trkpt lat="43.7730533" lon="11.5873033"><ele>1075.0</ele><time>2026-05-02T15:29:22.041Z</time></trkpt><trkpt lat="43.7730717" lon="11.587195"><ele>1074.6666666666667</ele><time>2026-05-02T15:29:23.029Z</time></trkpt><trkpt lat="43.7730933" lon="11.587085"><ele>1074.3333333333333</ele><time>2026-05-02T15:29:24.042Z</time></trkpt><trkpt lat="43.77312" lon="11.5869483"><ele>1074.0</ele><time>2026-05-02T15:29:25.04Z</time></trkpt><trkpt lat="43.773135" lon="11.5867817"><ele>1073.0</ele><time>2026-05-02T15:29:26.042Z</time></trkpt><trkpt lat="43.7731617" lon="11.5866533"><ele>1072.0</ele><time>2026-05-02T15:29:27.038Z</time></trkpt><trkpt lat="43.773205" lon="11.5865217"><ele>1071.0</ele><time>2026-05-02T15:29:28.039Z</time></trkpt><trkpt lat="43.7732333" lon="11.5864167"><ele>1070.0</ele><time>2026-05-02T15:29:29.041Z</time></trkpt><trkpt lat="43.7732683" lon="11.58632"><ele>1069.0</ele><time>2026-05-02T15:29:30.039Z</time></trkpt><trkpt lat="43.7733333" lon="11.5862467"><ele>1068.0</ele><time>2026-05-02T15:29:31.039Z</time></trkpt><trkpt lat="43.7734433" lon="11.5862467"><ele>1068.0</ele><time>2026-05-02T15:29:33.038Z</time></trkpt><trkpt lat="43.7735217" lon="11.586245"><ele>1068.0</ele><time>2026-05-02T15:29:35.04Z</time></trkpt><trkpt lat="43.773585" lon="11.5862033"><ele>1068.0</ele><time>2026-05-02T15:29:37.04Z</time></trkpt><trkpt lat="43.773665" lon="11.5861567"><ele>1068.0</ele><time>2026-05-02T15:29:39.041Z</time></trkpt><trkpt lat="43.7737733" lon="11.5861567"><ele>1068.0</ele><time>2026-05-02T15:29:41.042Z</time></trkpt><trkpt lat="43.773845" lon="11.5861583"><ele>1068.0</ele><time>2026-05-02T15:29:42.039Z</time></trkpt><trkpt lat="43.7739533" lon="11.58615"><ele>1068.0</ele><time>2026-05-02T15:29:43.042Z</time></trkpt><trkpt lat="43.7740533" lon="11.5861767"><ele>1068.0</ele><time>2026-05-02T15:29:44.043Z</time></trkpt><trkpt lat="43.774155" lon="11.5862033"><ele>1068.0</ele><time>2026-05-02T15:29:45.04Z</time></trkpt><trkpt lat="43.7742433" lon="11.5862283"><ele>1068.0</ele><time>2026-05-02T15:29:46.039Z</time></trkpt><trkpt lat="43.7743283" lon="11.586255"><ele>1068.0</ele><time>2026-05-02T15:29:47.042Z</time></trkpt><trkpt lat="43.7743633" lon="11.586355"><ele>1068.0</ele><time>2026-05-02T15:29:48.039Z</time></trkpt><trkpt lat="43.774365" lon="11.586485"><ele>1068.0</ele><time>2026-05-02T15:29:49.04Z</time></trkpt><trkpt lat="43.7743683" lon="11.5866133"><ele>1068.0</ele><time>2026-05-02T15:29:50.041Z</time></trkpt><trkpt lat="43.7743533" lon="11.586785"><ele>1068.0</ele><time>2026-05-02T15:29:51.04Z</time></trkpt><trkpt lat="43.77433" lon="11.58697"><ele>1068.0</ele><time>2026-05-02T15:29:52.04Z</time></trkpt><trkpt lat="43.774295" lon="11.5871183"><ele>1066.8333333333333</ele><time>2026-05-02T15:29:53.041Z</time></trkpt><trkpt lat="43.7742633" lon="11.58725"><ele>1065.6666666666667</ele><time>2026-05-02T15:29:54.042Z</time></trkpt><trkpt lat="43.7742267" lon="11.58738"><ele>1064.5</ele><time>2026-05-02T15:29:55.039Z</time></trkpt><trkpt lat="43.7742033" lon="11.587485"><ele>1063.3333333333335</ele><time>2026-05-02T15:29:56.03Z</time></trkpt><trkpt lat="43.77419" lon="11.5875917"><ele>1062.1666666666667</ele><time>2026-05-02T15:29:57.03Z</time></trkpt><trkpt lat="43.774165" lon="11.587695"><ele>1061.0</ele><time>2026-05-02T15:29:58.04Z</time></trkpt><trkpt lat="43.7741483" lon="11.5878"><ele>1060.1666666666667</ele><time>2026-05-02T15:29:59.04Z</time></trkpt><trkpt lat="43.7741267" lon="11.5879117"><ele>1059.3333333333335</ele><time>2026-05-02T15:30:00.04Z</time></trkpt><trkpt lat="43.774095" lon="11.58803"><ele>1058.5</ele><time>2026-05-02T15:30:01.041Z</time></trkpt><trkpt lat="43.77406" lon="11.5881467"><ele>1057.6666666666667</ele><time>2026-05-02T15:30:02.042Z</time></trkpt><trkpt lat="43.7740233" lon="11.5882483"><ele>1056.8333333333333</ele><time>2026-05-02T15:30:03.039Z</time></trkpt><trkpt lat="43.773985" lon="11.588335"><ele>1056.0</ele><time>2026-05-02T15:30:04.039Z</time></trkpt><trkpt lat="43.773935" lon="11.588475"><ele>1056.0</ele><time>2026-05-02T15:30:06.038Z</time></trkpt><trkpt lat="43.77391" lon="11.588565"><ele>1056.0</ele><time>2026-05-02T15:30:08.04Z</time></trkpt><trkpt lat="43.7739583" lon="11.588685"><ele>1056.0</ele><time>2026-05-02T15:30:11.04Z</time></trkpt><trkpt lat="43.7740217" lon="11.5887117"><ele>1056.0</ele><time>2026-05-02T15:30:12.038Z</time></trkpt><trkpt lat="43.7742567" lon="11.5886083"><ele>1052.0</ele><time>2026-05-02T15:30:13.039Z</time></trkpt><trkpt lat="43.7743933" lon="11.5885817"><ele>1048.0</ele><time>2026-05-02T15:30:14.041Z</time></trkpt><trkpt lat="43.7744967" lon="11.5885833"><ele>1044.0</ele><time>2026-05-02T15:30:15.038Z</time></trkpt><trkpt lat="43.7746" lon="11.588585"><ele>1040.0</ele><time>2026-05-02T15:30:16.039Z</time></trkpt><trkpt lat="43.7746767" lon="11.58858"><ele>1036.0</ele><time>2026-05-02T15:30:17.039Z</time></trkpt><trkpt lat="43.7747817" lon="11.5886333"><ele>1036.0</ele><time>2026-05-02T15:30:18.039Z</time></trkpt><trkpt lat="43.77486" lon="11.58866"><ele>1036.0</ele><time>2026-05-02T15:30:19.039Z</time></trkpt><trkpt lat="43.774925" lon="11.5886883"><ele>1036.0</ele><time>2026-05-02T15:30:20.04Z</time></trkpt><trkpt lat="43.7749867" lon="11.5887517"><ele>1036.0</ele><time>2026-05-02T15:30:21.037Z</time></trkpt><trkpt lat="43.775045" lon="11.588815"><ele>1036.0</ele><time>2026-05-02T15:30:22.038Z</time></trkpt><trkpt lat="43.7750883" lon="11.5888933"><ele>1036.0</ele><time>2026-05-02T15:30:23.038Z</time></trkpt><trkpt lat="43.7751133" lon="11.589025"><ele>1037.8</ele><time>2026-05-02T15:30:24.038Z</time></trkpt><trkpt lat="43.7751367" lon="11.58916"><ele>1039.6</ele><time>2026-05-02T15:30:25.038Z</time></trkpt><trkpt lat="43.775155" lon="11.58928"><ele>1041.4</ele><time>2026-05-02T15:30:26.041Z</time></trkpt><trkpt lat="43.7751833" lon="11.5894117"><ele>1043.2</ele><time>2026-05-02T15:30:27.04Z</time></trkpt><trkpt lat="43.7752" lon="11.5895467"><ele>1045.0</ele><time>2026-05-02T15:30:28.04Z</time></trkpt><trkpt lat="43.775215" lon="11.5896767"><ele>1041.5</ele><time>2026-05-02T15:30:29.039Z</time></trkpt><trkpt lat="43.7752283" lon="11.5898083"><ele>1038.0</ele><time>2026-05-02T15:30:30.038Z</time></trkpt><trkpt lat="43.7752317" lon="11.589925"><ele>1034.5</ele><time>2026-05-02T15:30:31.039Z</time></trkpt><trkpt lat="43.775245" lon="11.5900333"><ele>1031.0</ele><time>2026-05-02T15:30:32.041Z</time></trkpt><trkpt lat="43.7752567" lon="11.5901283"><ele>1027.5</ele><time>2026-05-02T15:30:33.039Z</time></trkpt><trkpt lat="43.7752567" lon="11.5902433"><ele>1024.0</ele><time>2026-05-02T15:30:34.039Z</time></trkpt><trkpt lat="43.7752617" lon="11.5903917"><ele>1023.9999999999999</ele><time>2026-05-02T15:30:36.039Z</time></trkpt><trkpt lat="43.775315" lon="11.5905133"><ele>1024.0</ele><time>2026-05-02T15:30:38.04Z</time></trkpt><trkpt lat="43.7753483" lon="11.5906133"><ele>1024.0</ele><time>2026-05-02T15:30:39.041Z</time></trkpt><trkpt lat="43.775415" lon="11.5907667"><ele>1024.0</ele><time>2026-05-02T15:30:41.04Z</time></trkpt><trkpt lat="43.7754383" lon="11.590855"><ele>1023.9999999999999</ele><time>2026-05-02T15:30:42.039Z</time></trkpt><trkpt lat="43.775465" lon="11.5909383"><ele>1024.0</ele><time>2026-05-02T15:30:43.04Z</time></trkpt><trkpt lat="43.775485" lon="11.5910267"><ele>1023.9999999999999</ele><time>2026-05-02T15:30:44.04Z</time></trkpt><trkpt lat="43.77549" lon="11.59112"><ele>1024.0</ele><time>2026-05-02T15:30:45.037Z</time></trkpt><trkpt lat="43.7754917" lon="11.59121"><ele>1024.0</ele><time>2026-05-02T15:30:46.038Z</time></trkpt><trkpt lat="43.7754683" lon="11.5913867"><ele>1024.0</ele><time>2026-05-02T15:30:48.038Z</time></trkpt><trkpt lat="43.7754617" lon="11.5914833"><ele>1023.9999999999999</ele><time>2026-05-02T15:30:49.039Z</time></trkpt><trkpt lat="43.7754467" lon="11.5915767"><ele>1024.0</ele><time>2026-05-02T15:30:50.04Z</time></trkpt><trkpt lat="43.775415" lon="11.5916967"><ele>1024.5</ele><time>2026-05-02T15:30:52.039Z</time></trkpt><trkpt lat="43.775415" lon="11.5918083"><ele>1025.0</ele><time>2026-05-02T15:30:54.038Z</time></trkpt><trkpt lat="43.7754283" lon="11.591895"><ele>1025.5</ele><time>2026-05-02T15:30:56.041Z</time></trkpt><trkpt lat="43.77549" lon="11.59187"><ele>1026.0</ele><time>2026-05-02T15:30:58.039Z</time></trkpt><trkpt lat="43.775555" lon="11.59183"><ele>1026.5</ele><time>2026-05-02T15:30:59.039Z</time></trkpt><trkpt lat="43.7756717" lon="11.5918217"><ele>1027.0</ele><time>2026-05-02T15:31:01.04Z</time></trkpt><trkpt lat="43.77574" lon="11.59185"><ele>1027.0</ele><time>2026-05-02T15:31:02.04Z</time></trkpt><trkpt lat="43.7758617" lon="11.5919417"><ele>1027.0</ele><time>2026-05-02T15:31:04.04Z</time></trkpt><trkpt lat="43.775925" lon="11.5920033"><ele>1027.0</ele><time>2026-05-02T15:31:05.041Z</time></trkpt><trkpt lat="43.7759933" lon="11.5920983"><ele>1027.0</ele><time>2026-05-02T15:31:06.037Z</time></trkpt><trkpt lat="43.7760817" lon="11.5922283"><ele>1027.0</ele><time>2026-05-02T15:31:07.029Z</time></trkpt><trkpt lat="43.7761433" lon="11.5923367"><ele>1028.0</ele><time>2026-05-02T15:31:08.04Z</time></trkpt><trkpt lat="43.7762033" lon="11.5924483"><ele>1029.0</ele><time>2026-05-02T15:31:09.037Z</time></trkpt><trkpt lat="43.7762683" lon="11.59255"><ele>1030.0</ele><time>2026-05-02T15:31:10.039Z</time></trkpt><trkpt lat="43.77633" lon="11.592635"><ele>1031.0</ele><time>2026-05-02T15:31:11.04Z</time></trkpt><trkpt lat="43.7763983" lon="11.5927083"><ele>1032.0</ele><time>2026-05-02T15:31:12.039Z</time></trkpt><trkpt lat="43.776465" lon="11.59277"><ele>1032.0</ele><time>2026-05-02T15:31:13.04Z</time></trkpt><trkpt lat="43.7765183" lon="11.5928333"><ele>1032.0</ele><time>2026-05-02T15:31:14.041Z</time></trkpt><trkpt lat="43.7765517" lon="11.5929267"><ele>1032.0</ele><time>2026-05-02T15:31:15.04Z</time></trkpt><trkpt lat="43.7765617" lon="11.593055"><ele>1032.0</ele><time>2026-05-02T15:31:16.038Z</time></trkpt><trkpt lat="43.7765517" lon="11.5932067"><ele>1032.0</ele><time>2026-05-02T15:31:17.038Z</time></trkpt><trkpt lat="43.7765317" lon="11.5933533"><ele>1031.8333333333333</ele><time>2026-05-02T15:31:18.038Z</time></trkpt><trkpt lat="43.7765217" lon="11.5934683"><ele>1031.6666666666667</ele><time>2026-05-02T15:31:19.04Z</time></trkpt><trkpt lat="43.776505" lon="11.5935583"><ele>1031.5</ele><time>2026-05-02T15:31:20.042Z</time></trkpt><trkpt lat="43.7765233" lon="11.5936933"><ele>1031.3333333333335</ele><time>2026-05-02T15:31:22.041Z</time></trkpt><trkpt lat="43.7765917" lon="11.5936733"><ele>1031.1666666666667</ele><time>2026-05-02T15:31:23.04Z</time></trkpt><trkpt lat="43.776705" lon="11.59365"><ele>1031.0</ele><time>2026-05-02T15:31:25.041Z</time></trkpt><trkpt lat="43.776825" lon="11.593665"><ele>1032.2</ele><time>2026-05-02T15:31:27.039Z</time></trkpt><trkpt lat="43.7769533" lon="11.59365"><ele>1033.3999999999999</ele><time>2026-05-02T15:31:29.04Z</time></trkpt><trkpt lat="43.77702" lon="11.59363"><ele>1034.6</ele><time>2026-05-02T15:31:30.041Z</time></trkpt><trkpt lat="43.777085" lon="11.5936017"><ele>1035.8</ele><time>2026-05-02T15:31:31.041Z</time></trkpt><trkpt lat="43.7771833" lon="11.5935467"><ele>1037.0</ele><time>2026-05-02T15:31:33.041Z</time></trkpt><trkpt lat="43.7772883" lon="11.5934583"><ele>1037.0</ele><time>2026-05-02T15:33:04.04Z</time></trkpt><trkpt lat="43.7774133" lon="11.5934083"><ele>1037.0</ele><time>2026-05-02T15:33:06.038Z</time></trkpt><trkpt lat="43.7775017" lon="11.59337"><ele>1037.0</ele><time>2026-05-02T15:33:07.04Z</time></trkpt><trkpt lat="43.77761" lon="11.593305"><ele>1037.0</ele><time>2026-05-02T15:33:08.04Z</time></trkpt><trkpt lat="43.7777233" lon="11.5932467"><ele>1037.5</ele><time>2026-05-02T15:33:09.038Z</time></trkpt><trkpt lat="43.7778417" lon="11.59317"><ele>1038.0</ele><time>2026-05-02T15:33:10.038Z</time></trkpt><trkpt lat="43.777955" lon="11.593115"><ele>1038.5</ele><time>2026-05-02T15:33:11.04Z</time></trkpt><trkpt lat="43.77806" lon="11.5930583"><ele>1039.0</ele><time>2026-05-02T15:33:12.037Z</time></trkpt><trkpt lat="43.77815" lon="11.5929983"><ele>1039.0</ele><time>2026-05-02T15:33:13.039Z</time></trkpt><trkpt lat="43.7782217" lon="11.59292"><ele>1039.0</ele><time>2026-05-02T15:33:14.04Z</time></trkpt><trkpt lat="43.7782817" lon="11.592845"><ele>1039.0</ele><time>2026-05-02T15:33:15.039Z</time></trkpt><trkpt lat="43.7783483" lon="11.5927433"><ele>1039.0</ele><time>2026-05-02T15:33:17.039Z</time></trkpt><trkpt lat="43.7783983" lon="11.59264"><ele>1039.0</ele><time>2026-05-02T15:34:35.039Z</time></trkpt><trkpt lat="43.7785167" lon="11.5925667"><ele>1035.6000000000001</ele><time>2026-05-02T15:34:37.039Z</time></trkpt><trkpt lat="43.7785983" lon="11.592535"><ele>1032.2</ele><time>2026-05-02T15:34:38.04Z</time></trkpt><trkpt lat="43.778685" lon="11.5924867"><ele>1028.8000000000002</ele><time>2026-05-02T15:34:39.039Z</time></trkpt><trkpt lat="43.778785" lon="11.592445"><ele>1025.4</ele><time>2026-05-02T15:34:40.039Z</time></trkpt><trkpt lat="43.778895" lon="11.59241"><ele>1022.0</ele><time>2026-05-02T15:34:41.04Z</time></trkpt><trkpt lat="43.7790117" lon="11.5923967"><ele>1022.0</ele><time>2026-05-02T15:34:42.036Z</time></trkpt><trkpt lat="43.77914" lon="11.5924033"><ele>1022.0</ele><time>2026-05-02T15:34:43.042Z</time></trkpt><trkpt lat="43.779265" lon="11.5924417"><ele>1022.0</ele><time>2026-05-02T15:34:44.04Z</time></trkpt><trkpt lat="43.7793833" lon="11.5925083"><ele>1022.0</ele><time>2026-05-02T15:34:45.039Z</time></trkpt><trkpt lat="43.7794817" lon="11.5926017"><ele>1021.4000000000001</ele><time>2026-05-02T15:34:46.039Z</time></trkpt><trkpt lat="43.7795567" lon="11.5927267"><ele>1020.8000000000001</ele><time>2026-05-02T15:34:47.04Z</time></trkpt><trkpt lat="43.7796" lon="11.59287"><ele>1020.2</ele><time>2026-05-02T15:34:48.041Z</time></trkpt><trkpt lat="43.7796183" lon="11.59301"><ele>1019.6</ele><time>2026-05-02T15:34:49.041Z</time></trkpt><trkpt lat="43.7796283" lon="11.5931317"><ele>1019.0</ele><time>2026-05-02T15:34:50.041Z</time></trkpt><trkpt lat="43.7796283" lon="11.5932283"><ele>1019.0</ele><time>2026-05-02T15:34:51.039Z</time></trkpt><trkpt lat="43.7796433" lon="11.5933967"><ele>1019.0000000000001</ele><time>2026-05-02T15:34:53.041Z</time></trkpt><trkpt lat="43.7796917" lon="11.593485"><ele>1019.0000000000001</ele><time>2026-05-02T15:34:56.042Z</time></trkpt><trkpt lat="43.7797333" lon="11.5934083"><ele>1019.0</ele><time>2026-05-02T15:34:58.041Z</time></trkpt><trkpt lat="43.77978" lon="11.5932633"><ele>1019.0</ele><time>2026-05-02T15:35:00.034Z</time></trkpt><trkpt lat="43.7798" lon="11.59316"><ele>1019.0</ele><time>2026-05-02T15:35:01.039Z</time></trkpt><trkpt lat="43.7798183" lon="11.59305"><ele>1019.0000000000001</ele><time>2026-05-02T15:35:02.04Z</time></trkpt><trkpt lat="43.7798333" lon="11.59293"><ele>1019.0000000000001</ele><time>2026-05-02T15:35:03.037Z</time></trkpt><trkpt lat="43.7798383" lon="11.5927883"><ele>1019.0</ele><time>2026-05-02T15:35:04.039Z</time></trkpt><trkpt lat="43.77982" lon="11.592655"><ele>1019.0</ele><time>2026-05-02T15:35:05.04Z</time></trkpt><trkpt lat="43.7797867" lon="11.5925367"><ele>1018.8000000000001</ele><time>2026-05-02T15:35:06.039Z</time></trkpt><trkpt lat="43.77974" lon="11.5924317"><ele>1018.6000000000001</ele><time>2026-05-02T15:35:07.039Z</time></trkpt><trkpt lat="43.7796833" lon="11.592325"><ele>1018.4</ele><time>2026-05-02T15:35:08.04Z</time></trkpt><trkpt lat="43.779635" lon="11.5922133"><ele>1018.2</ele><time>2026-05-02T15:35:09.04Z</time></trkpt><trkpt lat="43.7795983" lon="11.5920967"><ele>1018.0</ele><time>2026-05-02T15:35:10.038Z</time></trkpt><trkpt lat="43.7795783" lon="11.591985"><ele>1017.1666666666666</ele><time>2026-05-02T15:35:11.038Z</time></trkpt><trkpt lat="43.77955" lon="11.5918667"><ele>1016.3333333333333</ele><time>2026-05-02T15:35:12.039Z</time></trkpt><trkpt lat="43.7795233" lon="11.5917683"><ele>1015.5</ele><time>2026-05-02T15:35:13.029Z</time></trkpt><trkpt lat="43.7794817" lon="11.5916817"><ele>1014.6666666666667</ele><time>2026-05-02T15:35:14.041Z</time></trkpt><trkpt lat="43.7793817" lon="11.591615"><ele>1013.8333333333334</ele><time>2026-05-02T15:35:16.039Z</time></trkpt><trkpt lat="43.7793183" lon="11.5916083"><ele>1013.0</ele><time>2026-05-02T15:35:17.039Z</time></trkpt><trkpt lat="43.7792217" lon="11.5916617"><ele>1012.2</ele><time>2026-05-02T15:35:18.039Z</time></trkpt><trkpt lat="43.7791183" lon="11.5917333"><ele>1011.4</ele><time>2026-05-02T15:35:19.04Z</time></trkpt><trkpt lat="43.779015" lon="11.5918317"><ele>1010.6000000000001</ele><time>2026-05-02T15:35:20.04Z</time></trkpt><trkpt lat="43.7789217" lon="11.59192"><ele>1009.8000000000001</ele><time>2026-05-02T15:35:21.038Z</time></trkpt><trkpt lat="43.77885" lon="11.591985"><ele>1009.0</ele><time>2026-05-02T15:35:22.039Z</time></trkpt><trkpt lat="43.7787683" lon="11.5919467"><ele>1009.0</ele><time>2026-05-02T15:35:24.039Z</time></trkpt><trkpt lat="43.778775" lon="11.5917683"><ele>1009.0000000000001</ele><time>2026-05-02T15:35:26.04Z</time></trkpt><trkpt lat="43.7788017" lon="11.5916683"><ele>1009.0000000000001</ele><time>2026-05-02T15:35:27.038Z</time></trkpt><trkpt lat="43.7788533" lon="11.591525"><ele>1009.0</ele><time>2026-05-02T15:35:28.039Z</time></trkpt><trkpt lat="43.77891" lon="11.5913833"><ele>1009.0</ele><time>2026-05-02T15:35:29.039Z</time></trkpt><trkpt lat="43.7789917" lon="11.591275"><ele>1007.6</ele><time>2026-05-02T15:35:30.041Z</time></trkpt><trkpt lat="43.7790817" lon="11.5911667"><ele>1006.2</ele><time>2026-05-02T15:35:31.039Z</time></trkpt><trkpt lat="43.779155" lon="11.5910733"><ele>1004.8000000000001</ele><time>2026-05-02T15:35:32.039Z</time></trkpt><trkpt lat="43.7792117" lon="11.5909817"><ele>1003.4000000000001</ele><time>2026-05-02T15:35:33.038Z</time></trkpt><trkpt lat="43.779245" lon="11.5908767"><ele>1002.0</ele><time>2026-05-02T15:35:34.031Z</time></trkpt><trkpt lat="43.7792783" lon="11.5907667"><ele>1002.0</ele><time>2026-05-02T15:35:35.039Z</time></trkpt><trkpt lat="43.7792883" lon="11.5906517"><ele>1002.0</ele><time>2026-05-02T15:35:36.039Z</time></trkpt><trkpt lat="43.779275" lon="11.5905333"><ele>1002.0</ele><time>2026-05-02T15:35:37.039Z</time></trkpt><trkpt lat="43.779265" lon="11.59042"><ele>1002.0</ele><time>2026-05-02T15:35:38.04Z</time></trkpt><trkpt lat="43.7792633" lon="11.5902967"><ele>1002.0</ele><time>2026-05-02T15:35:40.039Z</time></trkpt><trkpt lat="43.7793067" lon="11.5902317"><ele>1002.0</ele><time>2026-05-02T15:35:42.038Z</time></trkpt><trkpt lat="43.7793667" lon="11.5901783"><ele>998.6</ele><time>2026-05-02T15:35:43.04Z</time></trkpt><trkpt lat="43.7794467" lon="11.5901367"><ele>995.2</ele><time>2026-05-02T15:35:44.04Z</time></trkpt><trkpt lat="43.7795283" lon="11.5900533"><ele>991.8</ele><time>2026-05-02T15:35:45.039Z</time></trkpt><trkpt lat="43.779605" lon="11.5899467"><ele>988.4</ele><time>2026-05-02T15:35:46.039Z</time></trkpt><trkpt lat="43.7796633" lon="11.5898567"><ele>985.0</ele><time>2026-05-02T15:35:47.039Z</time></trkpt><trkpt lat="43.77967" lon="11.5897467"><ele>985.0</ele><time>2026-05-02T15:35:48.039Z</time></trkpt><trkpt lat="43.7796517" lon="11.5896233"><ele>985.0</ele><time>2026-05-02T15:35:49.038Z</time></trkpt><trkpt lat="43.77967" lon="11.589525"><ele>985.0</ele><time>2026-05-02T15:35:50.039Z</time></trkpt><trkpt lat="43.7796833" lon="11.58943"><ele>985.0</ele><time>2026-05-02T15:35:51.036Z</time></trkpt><trkpt lat="43.7797533" lon="11.5892867"><ele>985.0</ele><time>2026-05-02T15:35:53.039Z</time></trkpt><trkpt lat="43.7798367" lon="11.5891383"><ele>985.2857142857143</ele><time>2026-05-02T15:35:55.039Z</time></trkpt><trkpt lat="43.7798483" lon="11.5890517"><ele>985.5714285714287</ele><time>2026-05-02T15:35:56.043Z</time></trkpt><trkpt lat="43.7798383" lon="11.5889633"><ele>985.8571428571429</ele><time>2026-05-02T15:35:57.041Z</time></trkpt><trkpt lat="43.77981" lon="11.58887"><ele>986.1428571428571</ele><time>2026-05-02T15:35:58.038Z</time></trkpt><trkpt lat="43.779775" lon="11.5887717"><ele>986.4285714285714</ele><time>2026-05-02T15:35:59.039Z</time></trkpt><trkpt lat="43.7797383" lon="11.5886583"><ele>986.7142857142858</ele><time>2026-05-02T15:36:00.039Z</time></trkpt><trkpt lat="43.7797367" lon="11.588565"><ele>987.0</ele><time>2026-05-02T15:36:01.039Z</time></trkpt><trkpt lat="43.779765" lon="11.588485"><ele>987.0</ele><time>2026-05-02T15:36:02.04Z</time></trkpt><trkpt lat="43.77982" lon="11.58842"><ele>987.0</ele><time>2026-05-02T15:36:03.038Z</time></trkpt><trkpt lat="43.7798933" lon="11.5883833"><ele>987.0</ele><time>2026-05-02T15:36:04.038Z</time></trkpt><trkpt lat="43.7799817" lon="11.588355"><ele>987.0</ele><time>2026-05-02T15:36:05.04Z</time></trkpt><trkpt lat="43.7800667" lon="11.588335"><ele>987.0</ele><time>2026-05-02T15:36:06.038Z</time></trkpt><trkpt lat="43.7801317" lon="11.588435"><ele>987.0</ele><time>2026-05-02T15:36:07.042Z</time></trkpt><trkpt lat="43.7802167" lon="11.5885"><ele>986.6</ele><time>2026-05-02T15:36:08.04Z</time></trkpt><trkpt lat="43.78033" lon="11.5885133"><ele>986.2</ele><time>2026-05-02T15:36:09.029Z</time></trkpt><trkpt lat="43.7804383" lon="11.5885217"><ele>985.8</ele><time>2026-05-02T15:36:10.039Z</time></trkpt><trkpt lat="43.7805383" lon="11.5885617"><ele>985.4</ele><time>2026-05-02T15:36:11.041Z</time></trkpt><trkpt lat="43.780635" lon="11.588605"><ele>985.0</ele><time>2026-05-02T15:36:12.04Z</time></trkpt><trkpt lat="43.7807383" lon="11.5886033"><ele>985.0</ele><time>2026-05-02T15:36:13.039Z</time></trkpt><trkpt lat="43.7808367" lon="11.5886033"><ele>985.0</ele><time>2026-05-02T15:36:14.041Z</time></trkpt><trkpt lat="43.7809317" lon="11.5885667"><ele>985.0</ele><time>2026-05-02T15:36:15.04Z</time></trkpt><trkpt lat="43.7810183" lon="11.5885433"><ele>985.0</ele><time>2026-05-02T15:36:16.039Z</time></trkpt><trkpt lat="43.7810667" lon="11.5884183"><ele>985.0</ele><time>2026-05-02T15:36:17.04Z</time></trkpt><trkpt lat="43.7811233" lon="11.5883617"><ele>985.0</ele><time>2026-05-02T15:36:18.041Z</time></trkpt><trkpt lat="43.7811833" lon="11.5882933"><ele>985.0</ele><time>2026-05-02T15:36:19.04Z</time></trkpt><trkpt lat="43.7812467" lon="11.588265"><ele>985.0</ele><time>2026-05-02T15:36:20.04Z</time></trkpt><trkpt lat="43.7813567" lon="11.5882667"><ele>985.0</ele><time>2026-05-02T15:36:21.039Z</time></trkpt><trkpt lat="43.7814767" lon="11.5882983"><ele>985.0</ele><time>2026-05-02T15:36:22.039Z</time></trkpt><trkpt lat="43.7815967" lon="11.58832"><ele>985.0</ele><time>2026-05-02T15:36:23.04Z</time></trkpt><trkpt lat="43.781715" lon="11.5883517"><ele>985.0</ele><time>2026-05-02T15:36:24.04Z</time></trkpt><trkpt lat="43.781825" lon="11.5883817"><ele>985.0</ele><time>2026-05-02T15:36:25.042Z</time></trkpt><trkpt lat="43.7819217" lon="11.5884133"><ele>985.0</ele><time>2026-05-02T15:36:26.041Z</time></trkpt><trkpt lat="43.7820217" lon="11.5884233"><ele>985.0</ele><time>2026-05-02T15:36:27.039Z</time></trkpt><trkpt lat="43.782115" lon="11.5883833"><ele>984.6</ele><time>2026-05-02T15:36:28.04Z</time></trkpt><trkpt lat="43.7821983" lon="11.5883117"><ele>984.2</ele><time>2026-05-02T15:36:29.042Z</time></trkpt><trkpt lat="43.7822617" lon="11.5882017"><ele>983.8</ele><time>2026-05-02T15:36:30.038Z</time></trkpt><trkpt lat="43.7823217" lon="11.5880683"><ele>983.4</ele><time>2026-05-02T15:36:31.04Z</time></trkpt><trkpt lat="43.7823783" lon="11.587925"><ele>983.0</ele><time>2026-05-02T15:36:32.039Z</time></trkpt><trkpt lat="43.7824333" lon="11.5878"><ele>983.0000000000001</ele><time>2026-05-02T15:36:33.038Z</time></trkpt><trkpt lat="43.78249" lon="11.5877"><ele>983.0</ele><time>2026-05-02T15:36:34.039Z</time></trkpt><trkpt lat="43.782545" lon="11.5876417"><ele>983.0</ele><time>2026-05-02T15:36:35.039Z</time></trkpt><trkpt lat="43.7826167" lon="11.58762"><ele>983.0</ele><time>2026-05-02T15:36:36.039Z</time></trkpt><trkpt lat="43.7826933" lon="11.5876417"><ele>983.0000000000001</ele><time>2026-05-02T15:36:37.041Z</time></trkpt><trkpt lat="43.782765" lon="11.5876667"><ele>983.0</ele><time>2026-05-02T15:36:38.043Z</time></trkpt><trkpt lat="43.7828333" lon="11.5876867"><ele>980.6666666666667</ele><time>2026-05-02T15:36:39.038Z</time></trkpt><trkpt lat="43.7829217" lon="11.5876283"><ele>978.3333333333334</ele><time>2026-05-02T15:36:41.039Z</time></trkpt><trkpt lat="43.78294" lon="11.5875283"><ele>976.0</ele><time>2026-05-02T15:36:42.038Z</time></trkpt><trkpt lat="43.7829583" lon="11.5874167"><ele>973.6666666666667</ele><time>2026-05-02T15:36:43.039Z</time></trkpt><trkpt lat="43.7829717" lon="11.587305"><ele>971.3333333333334</ele><time>2026-05-02T15:36:44.039Z</time></trkpt><trkpt lat="43.7829783" lon="11.5872033"><ele>969.0</ele><time>2026-05-02T15:36:45.037Z</time></trkpt><trkpt lat="43.7829933" lon="11.5870833"><ele>969.6</ele><time>2026-05-02T15:36:46.038Z</time></trkpt><trkpt lat="43.78302" lon="11.586965"><ele>970.2</ele><time>2026-05-02T15:36:47.041Z</time></trkpt><trkpt lat="43.7830583" lon="11.5868317"><ele>970.8000000000001</ele><time>2026-05-02T15:36:48.04Z</time></trkpt><trkpt lat="43.7831033" lon="11.5866717"><ele>971.4000000000001</ele><time>2026-05-02T15:36:49.038Z</time></trkpt><trkpt lat="43.7831483" lon="11.5865417"><ele>972.0</ele><time>2026-05-02T15:36:50.039Z</time></trkpt><trkpt lat="43.7831883" lon="11.5864017"><ele>972.0</ele><time>2026-05-02T15:36:51.038Z</time></trkpt><trkpt lat="43.7832333" lon="11.586255"><ele>972.0</ele><time>2026-05-02T15:36:52.039Z</time></trkpt><trkpt lat="43.78329" lon="11.5861133"><ele>972.0</ele><time>2026-05-02T15:36:53.039Z</time></trkpt><trkpt lat="43.7833483" lon="11.5859833"><ele>972.0</ele><time>2026-05-02T15:36:54.038Z</time></trkpt><trkpt lat="43.7834117" lon="11.5858583"><ele>973.0</ele><time>2026-05-02T15:36:55.029Z</time></trkpt><trkpt lat="43.7834683" lon="11.58572"><ele>974.0</ele><time>2026-05-02T15:36:56.04Z</time></trkpt><trkpt lat="43.783565" lon="11.5855283"><ele>975.0</ele><time>2026-05-02T15:36:57.037Z</time></trkpt><trkpt lat="43.7836533" lon="11.5853533"><ele>976.0</ele><time>2026-05-02T15:36:58.038Z</time></trkpt><trkpt lat="43.7837383" lon="11.5852183"><ele>973.5999999999999</ele><time>2026-05-02T15:36:59.039Z</time></trkpt><trkpt lat="43.7838133" lon="11.585135"><ele>971.1999999999999</ele><time>2026-05-02T15:37:00.04Z</time></trkpt><trkpt lat="43.7838917" lon="11.585045"><ele>968.8000000000001</ele><time>2026-05-02T15:37:01.039Z</time></trkpt><trkpt lat="43.7839767" lon="11.58496"><ele>966.4000000000001</ele><time>2026-05-02T15:37:02.04Z</time></trkpt><trkpt lat="43.7840583" lon="11.5848967"><ele>964.0</ele><time>2026-05-02T15:37:03.04Z</time></trkpt><trkpt lat="43.7841383" lon="11.5848517"><ele>964.0</ele><time>2026-05-02T15:37:04.039Z</time></trkpt><trkpt lat="43.78423" lon="11.5848083"><ele>964.0000000000001</ele><time>2026-05-02T15:37:05.04Z</time></trkpt><trkpt lat="43.784295" lon="11.5848067"><ele>964.0000000000001</ele><time>2026-05-02T15:37:06.038Z</time></trkpt><trkpt lat="43.78439" lon="11.5848233"><ele>964.0</ele><time>2026-05-02T15:37:07.04Z</time></trkpt><trkpt lat="43.784475" lon="11.5848483"><ele>964.0</ele><time>2026-05-02T15:37:08.04Z</time></trkpt><trkpt lat="43.7845767" lon="11.5848983"><ele>962.8000000000001</ele><time>2026-05-02T15:37:09.037Z</time></trkpt><trkpt lat="43.7846667" lon="11.5849633"><ele>961.6000000000001</ele><time>2026-05-02T15:37:10.038Z</time></trkpt><trkpt lat="43.784755" lon="11.5849967"><ele>960.4</ele><time>2026-05-02T15:37:11.04Z</time></trkpt><trkpt lat="43.7848283" lon="11.584995"><ele>959.2</ele><time>2026-05-02T15:37:12.038Z</time></trkpt><trkpt lat="43.784925" lon="11.584865"><ele>958.0</ele><time>2026-05-02T15:37:14.042Z</time></trkpt><trkpt lat="43.784975" lon="11.5847667"><ele>958.0</ele><time>2026-05-02T15:37:15.037Z</time></trkpt><trkpt lat="43.7850083" lon="11.584655"><ele>958.0</ele><time>2026-05-02T15:37:16.039Z</time></trkpt><trkpt lat="43.7850333" lon="11.584535"><ele>958.0</ele><time>2026-05-02T15:37:17.04Z</time></trkpt><trkpt lat="43.7850267" lon="11.5843967"><ele>958.0</ele><time>2026-05-02T15:37:18.038Z</time></trkpt><trkpt lat="43.7849983" lon="11.5842817"><ele>958.0</ele><time>2026-05-02T15:37:19.039Z</time></trkpt><trkpt lat="43.7849483" lon="11.58418"><ele>957.8333333333333</ele><time>2026-05-02T15:37:20.04Z</time></trkpt><trkpt lat="43.7848933" lon="11.584085"><ele>957.6666666666666</ele><time>2026-05-02T15:37:21.037Z</time></trkpt><trkpt lat="43.7848367" lon="11.58401"><ele>957.5</ele><time>2026-05-02T15:37:22.038Z</time></trkpt><trkpt lat="43.78475" lon="11.58394"><ele>957.3333333333333</ele><time>2026-05-02T15:37:24.04Z</time></trkpt><trkpt lat="43.7847517" lon="11.58384"><ele>957.1666666666666</ele><time>2026-05-02T15:37:28.037Z</time></trkpt><trkpt lat="43.7848267" lon="11.58386"><ele>957.0</ele><time>2026-05-02T15:37:30.037Z</time></trkpt><trkpt lat="43.7849267" lon="11.5839117"><ele>957.0</ele><time>2026-05-02T15:37:32.04Z</time></trkpt><trkpt lat="43.784985" lon="11.5839633"><ele>957.0</ele><time>2026-05-02T15:37:33.039Z</time></trkpt><trkpt lat="43.78508" lon="11.5840533"><ele>957.0</ele><time>2026-05-02T15:37:35.039Z</time></trkpt><trkpt lat="43.7851483" lon="11.5841867"><ele>957.0</ele><time>2026-05-02T15:37:37.04Z</time></trkpt><trkpt lat="43.7852" lon="11.58432"><ele>957.0</ele><time>2026-05-02T15:37:39.038Z</time></trkpt><trkpt lat="43.7852267" lon="11.5844817"><ele>951.4000000000001</ele><time>2026-05-02T15:37:41.038Z</time></trkpt><trkpt lat="43.7852433" lon="11.5845717"><ele>945.8000000000001</ele><time>2026-05-02T15:37:42.037Z</time></trkpt><trkpt lat="43.7852617" lon="11.5847583"><ele>940.2</ele><time>2026-05-02T15:37:44.04Z</time></trkpt><trkpt lat="43.785245" lon="11.58494"><ele>934.6</ele><time>2026-05-02T15:37:46.039Z</time></trkpt><trkpt lat="43.7852283" lon="11.5850367"><ele>929.0</ele><time>2026-05-02T15:37:47.039Z</time></trkpt><trkpt lat="43.7852083" lon="11.5851233"><ele>929.0</ele><time>2026-05-02T15:37:48.029Z</time></trkpt><trkpt lat="43.7851933" lon="11.585215"><ele>929.0000000000001</ele><time>2026-05-02T15:37:49.04Z</time></trkpt><trkpt lat="43.7851617" lon="11.585355"><ele>929.0000000000001</ele><time>2026-05-02T15:37:51.04Z</time></trkpt><trkpt lat="43.7850917" lon="11.5854733"><ele>929.0</ele><time>2026-05-02T15:37:53.038Z</time></trkpt><trkpt lat="43.784995" lon="11.585575"><ele>929.0</ele><time>2026-05-02T15:37:55.04Z</time></trkpt><trkpt lat="43.7849417" lon="11.5856217"><ele>932.6666666666667</ele><time>2026-05-02T15:37:56.039Z</time></trkpt><trkpt lat="43.7848433" lon="11.585725"><ele>936.3333333333334</ele><time>2026-05-02T15:37:58.039Z</time></trkpt><trkpt lat="43.7847967" lon="11.585785"><ele>940.0</ele><time>2026-05-02T15:37:59.039Z</time></trkpt><trkpt lat="43.7847517" lon="11.585855"><ele>943.6666666666667</ele><time>2026-05-02T15:38:00.042Z</time></trkpt><trkpt lat="43.7847083" lon="11.5859333"><ele>947.3333333333334</ele><time>2026-05-02T15:38:01.039Z</time></trkpt><trkpt lat="43.7846733" lon="11.58602"><ele>951.0</ele><time>2026-05-02T15:38:02.04Z</time></trkpt><trkpt lat="43.7846417" lon="11.5861183"><ele>949.5</ele><time>2026-05-02T15:38:03.039Z</time></trkpt><trkpt lat="43.7846133" lon="11.586225"><ele>948.0</ele><time>2026-05-02T15:38:04.04Z</time></trkpt><trkpt lat="43.7845883" lon="11.5863283"><ele>946.5</ele><time>2026-05-02T15:38:05.039Z</time></trkpt><trkpt lat="43.7845633" lon="11.5864333"><ele>945.0</ele><time>2026-05-02T15:38:06.04Z</time></trkpt><trkpt lat="43.7845633" lon="11.58654"><ele>943.5</ele><time>2026-05-02T15:38:07.04Z</time></trkpt><trkpt lat="43.7845867" lon="11.5866383"><ele>942.0</ele><time>2026-05-02T15:38:08.04Z</time></trkpt><trkpt lat="43.7846067" lon="11.586735"><ele>942.0</ele><time>2026-05-02T15:38:09.039Z</time></trkpt><trkpt lat="43.78462" lon="11.5868417"><ele>942.0</ele><time>2026-05-02T15:38:10.039Z</time></trkpt><trkpt lat="43.7846283" lon="11.586935"><ele>942.0</ele><time>2026-05-02T15:38:11.039Z</time></trkpt><trkpt lat="43.7846283" lon="11.5871083"><ele>942.0</ele><time>2026-05-02T15:38:13.039Z</time></trkpt><trkpt lat="43.784595" lon="11.5871933"><ele>942.0</ele><time>2026-05-02T15:38:14.04Z</time></trkpt><trkpt lat="43.784555" lon="11.5872833"><ele>942.0</ele><time>2026-05-02T15:38:15.04Z</time></trkpt><trkpt lat="43.784545" lon="11.5873733"><ele>941.3333333333334</ele><time>2026-05-02T15:38:16.039Z</time></trkpt><trkpt lat="43.7844967" lon="11.58752"><ele>940.6666666666667</ele><time>2026-05-02T15:38:18.039Z</time></trkpt><trkpt lat="43.7845133" lon="11.5876167"><ele>940.0</ele><time>2026-05-02T15:38:20.04Z</time></trkpt><trkpt lat="43.7845" lon="11.58773"><ele>939.3333333333334</ele><time>2026-05-02T15:39:14.029Z</time></trkpt><trkpt lat="43.7844867" lon="11.58787"><ele>938.6666666666667</ele><time>2026-05-02T15:39:16.039Z</time></trkpt><trkpt lat="43.784475" lon="11.5879633"><ele>938.0</ele><time>2026-05-02T15:39:17.039Z</time></trkpt><trkpt lat="43.7844767" lon="11.588075"><ele>937.3333333333334</ele><time>2026-05-02T15:39:18.037Z</time></trkpt><trkpt lat="43.78447" lon="11.588195"><ele>936.6666666666667</ele><time>2026-05-02T15:39:19.04Z</time></trkpt><trkpt lat="43.7844517" lon="11.5882933"><ele>936.0</ele><time>2026-05-02T15:39:20.041Z</time></trkpt><trkpt lat="43.78442" lon="11.5883867"><ele>935.3333333333333</ele><time>2026-05-02T15:39:21.041Z</time></trkpt><trkpt lat="43.7844017" lon="11.5884833"><ele>934.6666666666666</ele><time>2026-05-02T15:39:22.04Z</time></trkpt><trkpt lat="43.7843733" lon="11.5885683"><ele>934.0</ele><time>2026-05-02T15:39:23.039Z</time></trkpt><trkpt lat="43.7843167" lon="11.588715"><ele>936.4000000000001</ele><time>2026-05-02T15:39:25.04Z</time></trkpt><trkpt lat="43.7842133" lon="11.5888383"><ele>938.8000000000001</ele><time>2026-05-02T15:39:27.039Z</time></trkpt><trkpt lat="43.784155" lon="11.5888983"><ele>941.1999999999999</ele><time>2026-05-02T15:39:28.04Z</time></trkpt><trkpt lat="43.7840983" lon="11.5889617"><ele>943.5999999999999</ele><time>2026-05-02T15:39:29.04Z</time></trkpt><trkpt lat="43.7840233" lon="11.58907"><ele>946.0</ele><time>2026-05-02T15:39:31.039Z</time></trkpt><trkpt lat="43.7840517" lon="11.5892133"><ele>946.0</ele><time>2026-05-02T15:39:34.04Z</time></trkpt><trkpt lat="43.784155" lon="11.5893317"><ele>945.9999999999999</ele><time>2026-05-02T15:39:36.042Z</time></trkpt><trkpt lat="43.7842217" lon="11.5893933"><ele>945.9999999999999</ele><time>2026-05-02T15:39:37.04Z</time></trkpt><trkpt lat="43.7842883" lon="11.5894617"><ele>946.0</ele><time>2026-05-02T15:39:38.041Z</time></trkpt><trkpt lat="43.7843483" lon="11.5895217"><ele>946.0</ele><time>2026-05-02T15:39:39.038Z</time></trkpt><trkpt lat="43.7844167" lon="11.589585"><ele>947.7142857142858</ele><time>2026-05-02T15:39:40.039Z</time></trkpt><trkpt lat="43.7844833" lon="11.5896367"><ele>949.4285714285713</ele><time>2026-05-02T15:39:41.042Z</time></trkpt><trkpt lat="43.7845433" lon="11.5896983"><ele>951.1428571428571</ele><time>2026-05-02T15:39:42.039Z</time></trkpt><trkpt lat="43.7845983" lon="11.5897667"><ele>952.8571428571429</ele><time>2026-05-02T15:39:43.039Z</time></trkpt><trkpt lat="43.7846483" lon="11.5898417"><ele>954.5714285714287</ele><time>2026-05-02T15:39:44.031Z</time></trkpt><trkpt lat="43.7847017" lon="11.5899167"><ele>956.2857142857142</ele><time>2026-05-02T15:39:45.039Z</time></trkpt><trkpt lat="43.7847533" lon="11.5899833"><ele>958.0</ele><time>2026-05-02T15:39:46.039Z</time></trkpt><trkpt lat="43.7848117" lon="11.590045"><ele>957.9999999999999</ele><time>2026-05-02T15:39:47.04Z</time></trkpt><trkpt lat="43.7848667" lon="11.59009"><ele>958.0</ele><time>2026-05-02T15:39:48.039Z</time></trkpt><trkpt lat="43.784935" lon="11.5901283"><ele>958.0</ele><time>2026-05-02T15:39:49.04Z</time></trkpt><trkpt lat="43.785" lon="11.590165"><ele>958.0</ele><time>2026-05-02T15:39:50.042Z</time></trkpt><trkpt lat="43.785095" lon="11.59025"><ele>957.9999999999999</ele><time>2026-05-02T15:39:52.039Z</time></trkpt><trkpt lat="43.7851533" lon="11.590365"><ele>958.0</ele><time>2026-05-02T15:39:54.039Z</time></trkpt><trkpt lat="43.7851833" lon="11.5905283"><ele>959.0</ele><time>2026-05-02T15:39:56.042Z</time></trkpt><trkpt lat="43.7851983" lon="11.59065"><ele>960.0</ele><time>2026-05-02T15:39:57.038Z</time></trkpt><trkpt lat="43.7852067" lon="11.5907933"><ele>961.0</ele><time>2026-05-02T15:39:58.04Z</time></trkpt><trkpt lat="43.7852267" lon="11.5909183"><ele>962.0</ele><time>2026-05-02T15:39:59.044Z</time></trkpt><trkpt lat="43.7852517" lon="11.5910367"><ele>963.0</ele><time>2026-05-02T15:40:00.041Z</time></trkpt><trkpt lat="43.78527" lon="11.59115"><ele>965.4</ele><time>2026-05-02T15:40:01.04Z</time></trkpt><trkpt lat="43.7853067" lon="11.5912367"><ele>967.8</ele><time>2026-05-02T15:40:02.042Z</time></trkpt><trkpt lat="43.7853683" lon="11.5912733"><ele>970.2</ele><time>2026-05-02T15:40:03.039Z</time></trkpt><trkpt lat="43.7855067" lon="11.59134"><ele>972.6</ele><time>2026-05-02T15:40:05.032Z</time></trkpt><trkpt lat="43.785635" lon="11.5913167"><ele>975.0</ele><time>2026-05-02T15:40:06.038Z</time></trkpt><trkpt lat="43.785755" lon="11.591325"><ele>975.0</ele><time>2026-05-02T15:40:07.04Z</time></trkpt><trkpt lat="43.7858517" lon="11.5913633"><ele>975.0</ele><time>2026-05-02T15:40:08.04Z</time></trkpt><trkpt lat="43.78596" lon="11.5913783"><ele>975.0</ele><time>2026-05-02T15:40:09.042Z</time></trkpt><trkpt lat="43.7860717" lon="11.591385"><ele>975.0</ele><time>2026-05-02T15:40:10.038Z</time></trkpt><trkpt lat="43.7861783" lon="11.5913983"><ele>975.0</ele><time>2026-05-02T15:40:11.039Z</time></trkpt><trkpt lat="43.786295" lon="11.5913883"><ele>975.0</ele><time>2026-05-02T15:40:12.04Z</time></trkpt><trkpt lat="43.786415" lon="11.59138"><ele>975.0</ele><time>2026-05-02T15:40:13.039Z</time></trkpt><trkpt lat="43.7865367" lon="11.5913567"><ele>975.0</ele><time>2026-05-02T15:40:14.04Z</time></trkpt><trkpt lat="43.78664" lon="11.591345"><ele>975.0</ele><time>2026-05-02T15:40:15.039Z</time></trkpt><trkpt lat="43.786725" lon="11.5913367"><ele>975.0</ele><time>2026-05-02T15:40:16.038Z</time></trkpt><trkpt lat="43.7868083" lon="11.5913133"><ele>975.0</ele><time>2026-05-02T15:40:18.038Z</time></trkpt><trkpt lat="43.7868767" lon="11.591395"><ele>975.0</ele><time>2026-05-02T15:40:21.039Z</time></trkpt><trkpt lat="43.7869067" lon="11.5915067"><ele>975.0</ele><time>2026-05-02T15:40:23.039Z</time></trkpt><trkpt lat="43.786905" lon="11.5916283"><ele>975.0</ele><time>2026-05-02T15:40:25.039Z</time></trkpt><trkpt lat="43.7868567" lon="11.5917483"><ele>975.0</ele><time>2026-05-02T15:40:27.04Z</time></trkpt><trkpt lat="43.786815" lon="11.5918283"><ele>975.0</ele><time>2026-05-02T15:40:28.039Z</time></trkpt><trkpt lat="43.78676" lon="11.59193"><ele>975.2</ele><time>2026-05-02T15:40:29.039Z</time></trkpt><trkpt lat="43.7867083" lon="11.5920333"><ele>975.4</ele><time>2026-05-02T15:40:30.041Z</time></trkpt><trkpt lat="43.7866533" lon="11.5921483"><ele>975.5999999999999</ele><time>2026-05-02T15:40:31.04Z</time></trkpt><trkpt lat="43.7866033" lon="11.5922717"><ele>975.8</ele><time>2026-05-02T15:40:32.041Z</time></trkpt><trkpt lat="43.786565" lon="11.5924"><ele>976.0</ele><time>2026-05-02T15:40:33.039Z</time></trkpt><trkpt lat="43.7865217" lon="11.5925283"><ele>976.0</ele><time>2026-05-02T15:40:34.039Z</time></trkpt><trkpt lat="43.7864817" lon="11.5926433"><ele>975.9999999999999</ele><time>2026-05-02T15:40:35.039Z</time></trkpt><trkpt lat="43.7864433" lon="11.59276"><ele>975.9999999999999</ele><time>2026-05-02T15:40:36.037Z</time></trkpt><trkpt lat="43.7864083" lon="11.5928783"><ele>976.0</ele><time>2026-05-02T15:40:37.039Z</time></trkpt><trkpt lat="43.7863733" lon="11.5930033"><ele>976.0</ele><time>2026-05-02T15:40:38.04Z</time></trkpt><trkpt lat="43.7863417" lon="11.5931483"><ele>976.4</ele><time>2026-05-02T15:40:39.039Z</time></trkpt><trkpt lat="43.7863033" lon="11.5932933"><ele>976.8</ele><time>2026-05-02T15:40:40.039Z</time></trkpt><trkpt lat="43.7862667" lon="11.5934383"><ele>977.1999999999999</ele><time>2026-05-02T15:40:41.039Z</time></trkpt><trkpt lat="43.7862433" lon="11.5935683"><ele>977.5999999999999</ele><time>2026-05-02T15:40:42.04Z</time></trkpt><trkpt lat="43.7862317" lon="11.59367"><ele>978.0</ele><time>2026-05-02T15:40:43.04Z</time></trkpt><trkpt lat="43.78624" lon="11.5937633"><ele>978.1428571428572</ele><time>2026-05-02T15:40:44.043Z</time></trkpt><trkpt lat="43.7862633" lon="11.5938583"><ele>978.2857142857144</ele><time>2026-05-02T15:40:45.037Z</time></trkpt><trkpt lat="43.7862967" lon="11.5939483"><ele>978.4285714285714</ele><time>2026-05-02T15:40:46.04Z</time></trkpt><trkpt lat="43.786345" lon="11.5940383"><ele>978.5714285714287</ele><time>2026-05-02T15:40:47.138Z</time></trkpt><trkpt lat="43.7864" lon="11.59411"><ele>978.7142857142858</ele><time>2026-05-02T15:40:48.04Z</time></trkpt><trkpt lat="43.786455" lon="11.59417"><ele>978.8571428571429</ele><time>2026-05-02T15:40:49.04Z</time></trkpt><trkpt lat="43.786495" lon="11.59425"><ele>979.0</ele><time>2026-05-02T15:40:50.04Z</time></trkpt><trkpt lat="43.7865017" lon="11.5943867"><ele>979.3333333333333</ele><time>2026-05-02T15:40:51.04Z</time></trkpt><trkpt lat="43.78652" lon="11.5945133"><ele>979.6666666666666</ele><time>2026-05-02T15:40:52.039Z</time></trkpt><trkpt lat="43.7865633" lon="11.5946317"><ele>980.0</ele><time>2026-05-02T15:40:53.039Z</time></trkpt><trkpt lat="43.7866133" lon="11.5947383"><ele>980.3333333333333</ele><time>2026-05-02T15:40:54.041Z</time></trkpt><trkpt lat="43.78665" lon="11.594845"><ele>980.6666666666666</ele><time>2026-05-02T15:40:55.039Z</time></trkpt><trkpt lat="43.78667" lon="11.5949567"><ele>981.0</ele><time>2026-05-02T15:40:56.041Z</time></trkpt><trkpt lat="43.78668" lon="11.5950817"><ele>981.0</ele><time>2026-05-02T15:40:57.039Z</time></trkpt><trkpt lat="43.7866717" lon="11.5951967"><ele>980.9999999999999</ele><time>2026-05-02T15:40:58.039Z</time></trkpt><trkpt lat="43.7866667" lon="11.5953183"><ele>980.9999999999999</ele><time>2026-05-02T15:40:59.039Z</time></trkpt><trkpt lat="43.7866583" lon="11.595445"><ele>981.0</ele><time>2026-05-02T15:41:00.039Z</time></trkpt><trkpt lat="43.7866433" lon="11.59557"><ele>981.0</ele><time>2026-05-02T15:41:01.039Z</time></trkpt><trkpt lat="43.78661" lon="11.5957083"><ele>981.5999999999999</ele><time>2026-05-02T15:41:02.039Z</time></trkpt><trkpt lat="43.7865867" lon="11.5958517"><ele>982.1999999999999</ele><time>2026-05-02T15:41:03.038Z</time></trkpt><trkpt lat="43.7865617" lon="11.5960017"><ele>982.8000000000001</ele><time>2026-05-02T15:41:04.038Z</time></trkpt><trkpt lat="43.7865567" lon="11.5961567"><ele>983.4000000000001</ele><time>2026-05-02T15:41:05.04Z</time></trkpt><trkpt lat="43.7865583" lon="11.5963067"><ele>984.0</ele><time>2026-05-02T15:41:06.042Z</time></trkpt><trkpt lat="43.7865617" lon="11.5964517"><ele>984.5</ele><time>2026-05-02T15:41:07.04Z</time></trkpt><trkpt lat="43.7865533" lon="11.59658"><ele>985.0</ele><time>2026-05-02T15:41:08.04Z</time></trkpt><trkpt lat="43.7865417" lon="11.5967017"><ele>985.5</ele><time>2026-05-02T15:41:09.037Z</time></trkpt><trkpt lat="43.7865167" lon="11.5968117"><ele>986.0</ele><time>2026-05-02T15:41:10.038Z</time></trkpt><trkpt lat="43.7864867" lon="11.5969067"><ele>986.5</ele><time>2026-05-02T15:41:11.04Z</time></trkpt><trkpt lat="43.7864417" lon="11.5969717"><ele>987.0</ele><time>2026-05-02T15:41:12.039Z</time></trkpt><trkpt lat="43.7863117" lon="11.5970383"><ele>988.4000000000001</ele><time>2026-05-02T15:41:14.04Z</time></trkpt><trkpt lat="43.7862333" lon="11.5970767"><ele>989.8000000000001</ele><time>2026-05-02T15:41:15.038Z</time></trkpt><trkpt lat="43.7861483" lon="11.5971383"><ele>991.2</ele><time>2026-05-02T15:41:16.039Z</time></trkpt><trkpt lat="43.7860617" lon="11.5972167"><ele>992.6</ele><time>2026-05-02T15:41:17.045Z</time></trkpt><trkpt lat="43.7859833" lon="11.5973183"><ele>994.0</ele><time>2026-05-02T15:41:18.038Z</time></trkpt><trkpt lat="43.7859167" lon="11.597415"><ele>996.6</ele><time>2026-05-02T15:41:19.04Z</time></trkpt><trkpt lat="43.7858683" lon="11.5975083"><ele>999.2</ele><time>2026-05-02T15:41:20.04Z</time></trkpt><trkpt lat="43.7858783" lon="11.5976733"><ele>1001.8000000000001</ele><time>2026-05-02T15:41:22.039Z</time></trkpt><trkpt lat="43.7859233" lon="11.5978033"><ele>1004.4000000000001</ele><time>2026-05-02T15:41:24.04Z</time></trkpt><trkpt lat="43.7858983" lon="11.5979417"><ele>1007.0</ele><time>2026-05-02T15:41:26.04Z</time></trkpt><trkpt lat="43.7858217" lon="11.598085"><ele>1007.0</ele><time>2026-05-02T15:41:28.039Z</time></trkpt><trkpt lat="43.785795" lon="11.5981767"><ele>1007.0</ele><time>2026-05-02T15:41:29.039Z</time></trkpt><trkpt lat="43.78577" lon="11.5982717"><ele>1007.0</ele><time>2026-05-02T15:41:30.04Z</time></trkpt><trkpt lat="43.7857583" lon="11.59836"><ele>1007.0</ele><time>2026-05-02T15:41:31.039Z</time></trkpt><trkpt lat="43.7857467" lon="11.5985"><ele>1007.0</ele><time>2026-05-02T15:41:33.039Z</time></trkpt><trkpt lat="43.7858967" lon="11.5984283"><ele>1007.0000000000001</ele><time>2026-05-02T15:41:37.041Z</time></trkpt><trkpt lat="43.7859917" lon="11.5983667"><ele>1007.0</ele><time>2026-05-02T15:41:38.04Z</time></trkpt><trkpt lat="43.7860867" lon="11.5983483"><ele>1007.0</ele><time>2026-05-02T15:41:39.038Z</time></trkpt><trkpt lat="43.7861633" lon="11.598335"><ele>1007.0</ele><time>2026-05-02T15:41:40.04Z</time></trkpt><trkpt lat="43.78624" lon="11.5983483"><ele>1007.0000000000001</ele><time>2026-05-02T15:41:41.039Z</time></trkpt><trkpt lat="43.7863167" lon="11.5983867"><ele>1007.0</ele><time>2026-05-02T15:41:42.039Z</time></trkpt><trkpt lat="43.7863783" lon="11.59842"><ele>1006.5000000000001</ele><time>2026-05-02T15:41:43.044Z</time></trkpt><trkpt lat="43.7864367" lon="11.598465"><ele>1006.0</ele><time>2026-05-02T15:41:44.043Z</time></trkpt><trkpt lat="43.7865" lon="11.598605"><ele>1005.5</ele><time>2026-05-02T15:41:46.039Z</time></trkpt><trkpt lat="43.78655" lon="11.5986917"><ele>1005.0</ele><time>2026-05-02T15:41:48.04Z</time></trkpt><trkpt lat="43.7865867" lon="11.5987733"><ele>1004.5000000000001</ele><time>2026-05-02T15:41:50.041Z</time></trkpt><trkpt lat="43.7865933" lon="11.5988733"><ele>1004.0</ele><time>2026-05-02T15:41:53.04Z</time></trkpt><trkpt lat="43.7865933" lon="11.5990033"><ele>1005.8000000000001</ele><time>2026-05-02T15:41:55.039Z</time></trkpt><trkpt lat="43.786635" lon="11.599195"><ele>1007.6000000000001</ele><time>2026-05-02T15:41:57.037Z</time></trkpt><trkpt lat="43.7866517" lon="11.5992817"><ele>1009.4</ele><time>2026-05-02T15:41:58.039Z</time></trkpt><trkpt lat="43.7866733" lon="11.5993983"><ele>1011.2</ele><time>2026-05-02T15:41:59.039Z</time></trkpt><trkpt lat="43.786685" lon="11.5995167"><ele>1013.0</ele><time>2026-05-02T15:42:00.039Z</time></trkpt><trkpt lat="43.7866983" lon="11.599645"><ele>1015.8</ele><time>2026-05-02T15:42:01.039Z</time></trkpt><trkpt lat="43.7867317" lon="11.5997933"><ele>1018.5999999999999</ele><time>2026-05-02T15:42:03.04Z</time></trkpt><trkpt lat="43.7868383" lon="11.5997783"><ele>1021.4000000000001</ele><time>2026-05-02T15:42:06.039Z</time></trkpt><trkpt lat="43.7869" lon="11.599695"><ele>1024.2</ele><time>2026-05-02T15:42:07.041Z</time></trkpt><trkpt lat="43.7869483" lon="11.5996233"><ele>1027.0</ele><time>2026-05-02T15:42:08.041Z</time></trkpt><trkpt lat="43.7870417" lon="11.5995333"><ele>1022.8</ele><time>2026-05-02T15:42:09.039Z</time></trkpt><trkpt lat="43.7871483" lon="11.5994833"><ele>1018.6</ele><time>2026-05-02T15:42:10.038Z</time></trkpt><trkpt lat="43.78724" lon="11.5994617"><ele>1014.3999999999999</ele><time>2026-05-02T15:42:11.04Z</time></trkpt><trkpt lat="43.7873367" lon="11.5994517"><ele>1010.1999999999999</ele><time>2026-05-02T15:42:12.039Z</time></trkpt><trkpt lat="43.7874183" lon="11.599435"><ele>1006.0</ele><time>2026-05-02T15:42:13.04Z</time></trkpt><trkpt lat="43.7874967" lon="11.5994017"><ele>1005.9999999999999</ele><time>2026-05-02T15:42:14.04Z</time></trkpt><trkpt lat="43.78757" lon="11.5993583"><ele>1006.0</ele><time>2026-05-02T15:42:15.039Z</time></trkpt><trkpt lat="43.7876433" lon="11.5993433"><ele>1006.0</ele><time>2026-05-02T15:42:16.039Z</time></trkpt><trkpt lat="43.7877183" lon="11.5993533"><ele>1006.0</ele><time>2026-05-02T15:42:17.039Z</time></trkpt><trkpt lat="43.787785" lon="11.599385"><ele>1005.9999999999999</ele><time>2026-05-02T15:42:18.036Z</time></trkpt><trkpt lat="43.7878517" lon="11.5994617"><ele>1006.0</ele><time>2026-05-02T15:42:19.04Z</time></trkpt><trkpt lat="43.787895" lon="11.5995533"><ele>1008.8</ele><time>2026-05-02T15:42:20.039Z</time></trkpt><trkpt lat="43.78794" lon="11.59962"><ele>1011.5999999999999</ele><time>2026-05-02T15:42:21.038Z</time></trkpt><trkpt lat="43.7880233" lon="11.5997083"><ele>1014.4</ele><time>2026-05-02T15:42:23.039Z</time></trkpt><trkpt lat="43.788035" lon="11.599605"><ele>1017.2</ele><time>2026-05-02T15:42:27.038Z</time></trkpt><trkpt lat="43.7880133" lon="11.5994383"><ele>1020.0</ele><time>2026-05-02T15:42:29.039Z</time></trkpt><trkpt lat="43.7880167" lon="11.599315"><ele>1020.0</ele><time>2026-05-02T15:42:30.04Z</time></trkpt><trkpt lat="43.7880333" lon="11.59919"><ele>1020.0</ele><time>2026-05-02T15:42:31.041Z</time></trkpt><trkpt lat="43.788075" lon="11.5990783"><ele>1020.0</ele><time>2026-05-02T15:42:32.04Z</time></trkpt><trkpt lat="43.788125" lon="11.5989883"><ele>1020.0</ele><time>2026-05-02T15:42:33.039Z</time></trkpt><trkpt lat="43.7881983" lon="11.59891"><ele>1020.0</ele><time>2026-05-02T15:42:34.039Z</time></trkpt><trkpt lat="43.78828" lon="11.5988867"><ele>1020.0</ele><time>2026-05-02T15:42:35.039Z</time></trkpt><trkpt lat="43.78836" lon="11.5988667"><ele>1020.0</ele><time>2026-05-02T15:42:36.039Z</time></trkpt><trkpt lat="43.78843" lon="11.5988717"><ele>1020.0</ele><time>2026-05-02T15:42:37.039Z</time></trkpt><trkpt lat="43.788545" lon="11.5988867"><ele>1020.0</ele><time>2026-05-02T15:42:39.038Z</time></trkpt><trkpt lat="43.788625" lon="11.59886"><ele>1020.0</ele><time>2026-05-02T15:42:41.04Z</time></trkpt><trkpt lat="43.78871" lon="11.5987983"><ele>1020.0</ele><time>2026-05-02T15:42:43.039Z</time></trkpt><trkpt lat="43.7887733" lon="11.5987583"><ele>1020.0</ele><time>2026-05-02T15:42:44.041Z</time></trkpt><trkpt lat="43.7888467" lon="11.59874"><ele>1023.25</ele><time>2026-05-02T15:42:45.038Z</time></trkpt><trkpt lat="43.7889433" lon="11.5987183"><ele>1026.5</ele><time>2026-05-02T15:42:46.04Z</time></trkpt><trkpt lat="43.789065" lon="11.5987067"><ele>1029.75</ele><time>2026-05-02T15:42:47.04Z</time></trkpt><trkpt lat="43.78918" lon="11.598705"><ele>1033.0</ele><time>2026-05-02T15:42:48.04Z</time></trkpt><trkpt lat="43.7893017" lon="11.598705"><ele>1033.3333333333333</ele><time>2026-05-02T15:42:49.041Z</time></trkpt><trkpt lat="43.7894017" lon="11.598715"><ele>1033.6666666666665</ele><time>2026-05-02T15:42:50.041Z</time></trkpt><trkpt lat="43.7894883" lon="11.5987033"><ele>1034.0</ele><time>2026-05-02T15:42:51.039Z</time></trkpt><trkpt lat="43.7895717" lon="11.59869"><ele>1034.3333333333333</ele><time>2026-05-02T15:42:52.039Z</time></trkpt><trkpt lat="43.7896467" lon="11.5986933"><ele>1034.6666666666667</ele><time>2026-05-02T15:42:53.039Z</time></trkpt><trkpt lat="43.7897183" lon="11.5987"><ele>1035.0</ele><time>2026-05-02T15:42:54.042Z</time></trkpt><trkpt lat="43.78983" lon="11.5986867"><ele>1032.5</ele><time>2026-05-02T15:42:56.044Z</time></trkpt><trkpt lat="43.7899183" lon="11.59861"><ele>1030.0</ele><time>2026-05-02T15:42:58.039Z</time></trkpt><trkpt lat="43.789985" lon="11.59853"><ele>1027.5</ele><time>2026-05-02T15:43:00.039Z</time></trkpt><trkpt lat="43.7900467" lon="11.5985117"><ele>1025.0</ele><time>2026-05-02T15:43:01.038Z</time></trkpt><trkpt lat="43.7901117" lon="11.5985"><ele>1022.5</ele><time>2026-05-02T15:43:02.039Z</time></trkpt><trkpt lat="43.790225" lon="11.5985283"><ele>1020.0</ele><time>2026-05-02T15:43:04.04Z</time></trkpt><trkpt lat="43.7903133" lon="11.598635"><ele>1020.0</ele><time>2026-05-02T15:43:06.038Z</time></trkpt><trkpt lat="43.7903817" lon="11.5987817"><ele>1020.0</ele><time>2026-05-02T15:43:08.04Z</time></trkpt><trkpt lat="43.7904717" lon="11.5988317"><ele>1020.0</ele><time>2026-05-02T15:43:10.04Z</time></trkpt><trkpt lat="43.7905683" lon="11.5987967"><ele>1020.0</ele><time>2026-05-02T15:43:12.038Z</time></trkpt><trkpt lat="43.79063" lon="11.5986867"><ele>1020.0</ele><time>2026-05-02T15:43:14.041Z</time></trkpt><trkpt lat="43.790665" lon="11.5985933"><ele>1020.0</ele><time>2026-05-02T15:43:15.038Z</time></trkpt><trkpt lat="43.7907017" lon="11.5984933"><ele>1020.0</ele><time>2026-05-02T15:43:16.039Z</time></trkpt><trkpt lat="43.7907367" lon="11.598395"><ele>1020.0</ele><time>2026-05-02T15:43:17.043Z</time></trkpt><trkpt lat="43.7907733" lon="11.59829"><ele>1020.0</ele><time>2026-05-02T15:43:18.039Z</time></trkpt><trkpt lat="43.7908383" lon="11.598175"><ele>1020.0</ele><time>2026-05-02T15:43:20.041Z</time></trkpt><trkpt lat="43.7909033" lon="11.5980883"><ele>1020.0</ele><time>2026-05-02T15:43:22.039Z</time></trkpt><trkpt lat="43.7909867" lon="11.5979917"><ele>1020.5714285714287</ele><time>2026-05-02T15:43:24.039Z</time></trkpt><trkpt lat="43.7910467" lon="11.5979517"><ele>1021.1428571428572</ele><time>2026-05-02T15:43:25.04Z</time></trkpt><trkpt lat="43.79111" lon="11.5979217"><ele>1021.7142857142858</ele><time>2026-05-02T15:43:26.041Z</time></trkpt><trkpt lat="43.7911717" lon="11.5979033"><ele>1022.2857142857142</ele><time>2026-05-02T15:43:27.029Z</time></trkpt><trkpt lat="43.791245" lon="11.5978967"><ele>1022.8571428571428</ele><time>2026-05-02T15:43:28.039Z</time></trkpt><trkpt lat="43.7913233" lon="11.5979083"><ele>1023.4285714285713</ele><time>2026-05-02T15:43:29.04Z</time></trkpt><trkpt lat="43.7913967" lon="11.5979333"><ele>1024.0</ele><time>2026-05-02T15:43:30.042Z</time></trkpt><trkpt lat="43.7914683" lon="11.5979717"><ele>1023.9999999999999</ele><time>2026-05-02T15:43:31.038Z</time></trkpt><trkpt lat="43.7915167" lon="11.5980283"><ele>1024.0</ele><time>2026-05-02T15:43:32.041Z</time></trkpt><trkpt lat="43.7915917" lon="11.598125"><ele>1024.0</ele><time>2026-05-02T15:43:34.037Z</time></trkpt><trkpt lat="43.7916217" lon="11.5982017"><ele>1024.0</ele><time>2026-05-02T15:43:35.037Z</time></trkpt><trkpt lat="43.791645" lon="11.598285"><ele>1023.9999999999999</ele><time>2026-05-02T15:43:36.039Z</time></trkpt><trkpt lat="43.7916533" lon="11.598385"><ele>1024.0</ele><time>2026-05-02T15:43:37.041Z</time></trkpt><trkpt lat="43.7916617" lon="11.598515"><ele>1024.0</ele><time>2026-05-02T15:43:38.04Z</time></trkpt><trkpt lat="43.7916717" lon="11.5986383"><ele>1024.0</ele><time>2026-05-02T15:43:39.038Z</time></trkpt><trkpt lat="43.7916883" lon="11.598755"><ele>1024.0</ele><time>2026-05-02T15:43:40.038Z</time></trkpt><trkpt lat="43.7917217" lon="11.598895"><ele>1024.0</ele><time>2026-05-02T15:43:42.037Z</time></trkpt><trkpt lat="43.7917733" lon="11.5990067"><ele>1024.0</ele><time>2026-05-02T15:43:44.039Z</time></trkpt><trkpt lat="43.79182" lon="11.599125"><ele>1024.2</ele><time>2026-05-02T15:43:46.038Z</time></trkpt><trkpt lat="43.7918933" lon="11.5991967"><ele>1024.4</ele><time>2026-05-02T15:43:48.041Z</time></trkpt><trkpt lat="43.7919917" lon="11.59919"><ele>1024.6</ele><time>2026-05-02T15:43:50.041Z</time></trkpt><trkpt lat="43.792115" lon="11.5991917"><ele>1024.8</ele><time>2026-05-02T15:43:52.038Z</time></trkpt><trkpt lat="43.7921917" lon="11.5992117"><ele>1025.0</ele><time>2026-05-02T15:43:53.038Z</time></trkpt><trkpt lat="43.79228" lon="11.5992267"><ele>1025.0</ele><time>2026-05-02T15:43:54.04Z</time></trkpt><trkpt lat="43.7923733" lon="11.59925"><ele>1025.0</ele><time>2026-05-02T15:43:55.037Z</time></trkpt><trkpt lat="43.7924617" lon="11.5992867"><ele>1025.0</ele><time>2026-05-02T15:43:56.039Z</time></trkpt><trkpt lat="43.7925517" lon="11.59933"><ele>1025.0</ele><time>2026-05-02T15:43:57.039Z</time></trkpt><trkpt lat="43.7926267" lon="11.5993983"><ele>1025.0</ele><time>2026-05-02T15:43:58.038Z</time></trkpt><trkpt lat="43.7926867" lon="11.5994633"><ele>1025.0</ele><time>2026-05-02T15:43:59.038Z</time></trkpt><trkpt lat="43.7927433" lon="11.5995817"><ele>1022.0</ele><time>2026-05-02T15:44:01.039Z</time></trkpt><trkpt lat="43.792785" lon="11.5997117"><ele>1019.0</ele><time>2026-05-02T15:44:03.039Z</time></trkpt><trkpt lat="43.792855" lon="11.5998733"><ele>1016.0</ele><time>2026-05-02T15:44:05.038Z</time></trkpt><trkpt lat="43.7928833" lon="11.5999833"><ele>1013.0</ele><time>2026-05-02T15:44:06.037Z</time></trkpt><trkpt lat="43.7929233" lon="11.6001067"><ele>1010.0</ele><time>2026-05-02T15:44:07.038Z</time></trkpt><trkpt lat="43.7929733" lon="11.6002267"><ele>1013.4</ele><time>2026-05-02T15:44:08.039Z</time></trkpt><trkpt lat="43.79302" lon="11.6003483"><ele>1016.8</ele><time>2026-05-02T15:44:09.038Z</time></trkpt><trkpt lat="43.7930683" lon="11.600465"><ele>1020.2</ele><time>2026-05-02T15:44:10.038Z</time></trkpt><trkpt lat="43.7931183" lon="11.6005867"><ele>1023.6</ele><time>2026-05-02T15:44:11.038Z</time></trkpt><trkpt lat="43.79317" lon="11.6007117"><ele>1027.0</ele><time>2026-05-02T15:44:12.038Z</time></trkpt><trkpt lat="43.7932267" lon="11.6008317"><ele>1027.0</ele><time>2026-05-02T15:44:13.038Z</time></trkpt><trkpt lat="43.79328" lon="11.6009433"><ele>1027.0</ele><time>2026-05-02T15:44:14.039Z</time></trkpt><trkpt lat="43.7933483" lon="11.6010533"><ele>1027.0</ele><time>2026-05-02T15:44:15.04Z</time></trkpt><trkpt lat="43.793425" lon="11.6011517"><ele>1027.0</ele><time>2026-05-02T15:44:16.037Z</time></trkpt><trkpt lat="43.79351" lon="11.601225"><ele>1027.0</ele><time>2026-05-02T15:44:17.038Z</time></trkpt><trkpt lat="43.793605" lon="11.6012833"><ele>1026.0</ele><time>2026-05-02T15:44:18.038Z</time></trkpt><trkpt lat="43.7936983" lon="11.601305"><ele>1025.0</ele><time>2026-05-02T15:44:19.039Z</time></trkpt><trkpt lat="43.7937883" lon="11.601305"><ele>1024.0</ele><time>2026-05-02T15:44:20.04Z</time></trkpt><trkpt lat="43.7938783" lon="11.601315"><ele>1023.0</ele><time>2026-05-02T15:44:21.038Z</time></trkpt><trkpt lat="43.793955" lon="11.60133"><ele>1021.9999999999999</ele><time>2026-05-02T15:44:22.037Z</time></trkpt><trkpt lat="43.7940183" lon="11.6014017"><ele>1021.0</ele><time>2026-05-02T15:44:23.038Z</time></trkpt><trkpt lat="43.79407" lon="11.6014967"><ele>1021.0</ele><time>2026-05-02T15:44:24.038Z</time></trkpt><trkpt lat="43.79412" lon="11.6016017"><ele>1020.9999999999999</ele><time>2026-05-02T15:44:25.04Z</time></trkpt><trkpt lat="43.794175" lon="11.6017017"><ele>1020.9999999999999</ele><time>2026-05-02T15:44:26.039Z</time></trkpt><trkpt lat="43.7942283" lon="11.6017917"><ele>1021.0</ele><time>2026-05-02T15:44:27.039Z</time></trkpt><trkpt lat="43.794275" lon="11.6018667"><ele>1021.0</ele><time>2026-05-02T15:44:28.037Z</time></trkpt><trkpt lat="43.794345" lon="11.6019967"><ele>1017.1999999999999</ele><time>2026-05-02T15:44:30.039Z</time></trkpt><trkpt lat="43.7944083" lon="11.60209"><ele>1013.3999999999999</ele><time>2026-05-02T15:44:32.039Z</time></trkpt><trkpt lat="43.7944817" lon="11.60217"><ele>1009.6</ele><time>2026-05-02T15:44:35.039Z</time></trkpt><trkpt lat="43.7945183" lon="11.6022867"><ele>1005.8</ele><time>2026-05-02T15:44:37.039Z</time></trkpt><trkpt lat="43.7945667" lon="11.602405"><ele>1002.0</ele><time>2026-05-02T15:44:40.037Z</time></trkpt><trkpt lat="43.7946433" lon="11.6025"><ele>1002.0</ele><time>2026-05-02T15:44:42.037Z</time></trkpt><trkpt lat="43.79474" lon="11.6025917"><ele>1002.0</ele><time>2026-05-02T15:44:44.04Z</time></trkpt><trkpt lat="43.7948083" lon="11.6026733"><ele>1002.0</ele><time>2026-05-02T15:44:46.04Z</time></trkpt><trkpt lat="43.794905" lon="11.6027683"><ele>1002.0</ele><time>2026-05-02T15:44:48.041Z</time></trkpt><trkpt lat="43.79497" lon="11.6027933"><ele>1002.0</ele><time>2026-05-02T15:44:49.039Z</time></trkpt><trkpt lat="43.7950967" lon="11.602835"><ele>1000.2</ele><time>2026-05-02T15:44:51.038Z</time></trkpt><trkpt lat="43.7951867" lon="11.6028267"><ele>998.4000000000001</ele><time>2026-05-02T15:44:52.041Z</time></trkpt><trkpt lat="43.7952783" lon="11.6028417"><ele>996.5999999999999</ele><time>2026-05-02T15:44:53.039Z</time></trkpt><trkpt lat="43.7953567" lon="11.60289"><ele>994.8</ele><time>2026-05-02T15:44:54.039Z</time></trkpt><trkpt lat="43.7954383" lon="11.60297"><ele>993.0</ele><time>2026-05-02T15:44:55.039Z</time></trkpt><trkpt lat="43.79551" lon="11.6030517"><ele>993.0</ele><time>2026-05-02T15:44:56.041Z</time></trkpt><trkpt lat="43.795585" lon="11.6031433"><ele>993.0</ele><time>2026-05-02T15:44:57.039Z</time></trkpt><trkpt lat="43.7956733" lon="11.6032467"><ele>993.0</ele><time>2026-05-02T15:44:58.04Z</time></trkpt><trkpt lat="43.7957633" lon="11.6033383"><ele>993.0</ele><time>2026-05-02T15:44:59.04Z</time></trkpt><trkpt lat="43.7958633" lon="11.60342"><ele>993.0</ele><time>2026-05-02T15:45:00.039Z</time></trkpt><trkpt lat="43.7959517" lon="11.6034833"><ele>991.4</ele><time>2026-05-02T15:45:01.04Z</time></trkpt><trkpt lat="43.7960317" lon="11.603535"><ele>989.8</ele><time>2026-05-02T15:45:02.04Z</time></trkpt><trkpt lat="43.796105" lon="11.6035733"><ele>988.2</ele><time>2026-05-02T15:45:03.138Z</time></trkpt><trkpt lat="43.7962367" lon="11.6035867"><ele>986.6</ele><time>2026-05-02T15:45:05.03Z</time></trkpt><trkpt lat="43.7962933" lon="11.6035283"><ele>985.0</ele><time>2026-05-02T15:45:06.039Z</time></trkpt><trkpt lat="43.7963817" lon="11.6034783"><ele>985.0</ele><time>2026-05-02T15:45:07.04Z</time></trkpt><trkpt lat="43.7964783" lon="11.6034317"><ele>985.0</ele><time>2026-05-02T15:45:08.04Z</time></trkpt><trkpt lat="43.7965767" lon="11.6033933"><ele>985.0</ele><time>2026-05-02T15:45:09.038Z</time></trkpt><trkpt lat="43.7966817" lon="11.60334"><ele>985.0</ele><time>2026-05-02T15:45:10.038Z</time></trkpt><trkpt lat="43.7967783" lon="11.60328"><ele>985.0</ele><time>2026-05-02T15:45:11.04Z</time></trkpt><trkpt lat="43.796875" lon="11.6032517"><ele>984.6666666666666</ele><time>2026-05-02T15:45:12.039Z</time></trkpt><trkpt lat="43.7969633" lon="11.603245"><ele>984.3333333333333</ele><time>2026-05-02T15:45:13.039Z</time></trkpt><trkpt lat="43.797055" lon="11.6032617"><ele>984.0</ele><time>2026-05-02T15:45:14.041Z</time></trkpt><trkpt lat="43.7971417" lon="11.603285"><ele>983.6666666666667</ele><time>2026-05-02T15:45:15.038Z</time></trkpt><trkpt lat="43.7972283" lon="11.603315"><ele>983.3333333333334</ele><time>2026-05-02T15:45:16.039Z</time></trkpt><trkpt lat="43.7972983" lon="11.6033333"><ele>983.0</ele><time>2026-05-02T15:45:17.038Z</time></trkpt><trkpt lat="43.7973717" lon="11.6033317"><ele>983.0000000000001</ele><time>2026-05-02T15:45:19.038Z</time></trkpt><trkpt lat="43.79732" lon="11.603255"><ele>983.0</ele><time>2026-05-02T15:46:34.038Z</time></trkpt><trkpt lat="43.7972433" lon="11.6031617"><ele>983.0</ele><time>2026-05-02T15:46:36.038Z</time></trkpt><trkpt lat="43.7971867" lon="11.6030917"><ele>983.0</ele><time>2026-05-02T15:46:37.038Z</time></trkpt><trkpt lat="43.797125" lon="11.603035"><ele>983.0000000000001</ele><time>2026-05-02T15:46:38.03Z</time></trkpt><trkpt lat="43.797075" lon="11.60296"><ele>983.0</ele><time>2026-05-02T15:46:39.031Z</time></trkpt><trkpt lat="43.7970267" lon="11.6028933"><ele>982.8333333333334</ele><time>2026-05-02T15:46:40.039Z</time></trkpt><trkpt lat="43.7969867" lon="11.6028233"><ele>982.6666666666667</ele><time>2026-05-02T15:46:41.04Z</time></trkpt><trkpt lat="43.7969383" lon="11.60275"><ele>982.5</ele><time>2026-05-02T15:46:42.039Z</time></trkpt><trkpt lat="43.7968783" lon="11.602685"><ele>982.3333333333333</ele><time>2026-05-02T15:46:43.039Z</time></trkpt><trkpt lat="43.796805" lon="11.6026317"><ele>982.1666666666666</ele><time>2026-05-02T15:46:44.04Z</time></trkpt><trkpt lat="43.7967183" lon="11.6025883"><ele>982.0</ele><time>2026-05-02T15:46:45.038Z</time></trkpt><trkpt lat="43.79663" lon="11.6025383"><ele>980.8333333333333</ele><time>2026-05-02T15:46:46.038Z</time></trkpt><trkpt lat="43.7965533" lon="11.6024717"><ele>979.6666666666666</ele><time>2026-05-02T15:46:47.04Z</time></trkpt><trkpt lat="43.796485" lon="11.6023833"><ele>978.5</ele><time>2026-05-02T15:46:48.039Z</time></trkpt><trkpt lat="43.7964333" lon="11.6022967"><ele>977.3333333333333</ele><time>2026-05-02T15:46:49.039Z</time></trkpt><trkpt lat="43.7963833" lon="11.6022167"><ele>976.1666666666666</ele><time>2026-05-02T15:46:50.041Z</time></trkpt><trkpt lat="43.7963217" lon="11.6021367"><ele>975.0</ele><time>2026-05-02T15:46:51.037Z</time></trkpt><trkpt lat="43.7962367" lon="11.6020583"><ele>975.0</ele><time>2026-05-02T15:46:53.039Z</time></trkpt><trkpt lat="43.796175" lon="11.6020133"><ele>975.0</ele><time>2026-05-02T15:46:54.039Z</time></trkpt><trkpt lat="43.7961167" lon="11.6019617"><ele>975.0</ele><time>2026-05-02T15:46:55.037Z</time></trkpt><trkpt lat="43.7960083" lon="11.6018967"><ele>975.0</ele><time>2026-05-02T15:46:57.038Z</time></trkpt><trkpt lat="43.7959417" lon="11.6018783"><ele>975.0</ele><time>2026-05-02T15:46:58.037Z</time></trkpt><trkpt lat="43.7958717" lon="11.6018483"><ele>975.0</ele><time>2026-05-02T15:46:59.039Z</time></trkpt><trkpt lat="43.7958017" lon="11.6017917"><ele>973.0</ele><time>2026-05-02T15:47:00.038Z</time></trkpt><trkpt lat="43.7957183" lon="11.6017033"><ele>971.0</ele><time>2026-05-02T15:47:01.039Z</time></trkpt><trkpt lat="43.7956533" lon="11.6016167"><ele>969.0</ele><time>2026-05-02T15:47:02.04Z</time></trkpt><trkpt lat="43.7956017" lon="11.6015283"><ele>967.0</ele><time>2026-05-02T15:47:03.037Z</time></trkpt><trkpt lat="43.795555" lon="11.6014383"><ele>965.0</ele><time>2026-05-02T15:47:04.038Z</time></trkpt><trkpt lat="43.7955283" lon="11.601275"><ele>965.0</ele><time>2026-05-02T15:47:06.04Z</time></trkpt><trkpt lat="43.79554" lon="11.6011867"><ele>965.0</ele><time>2026-05-02T15:47:07.038Z</time></trkpt><trkpt lat="43.7955317" lon="11.601045"><ele>965.0</ele><time>2026-05-02T15:47:09.029Z</time></trkpt><trkpt lat="43.795505" lon="11.6008617"><ele>965.0</ele><time>2026-05-02T15:47:11.038Z</time></trkpt><trkpt lat="43.79546" lon="11.6007133"><ele>965.0</ele><time>2026-05-02T15:47:12.04Z</time></trkpt><trkpt lat="43.7954117" lon="11.6005783"><ele>962.8</ele><time>2026-05-02T15:47:13.039Z</time></trkpt><trkpt lat="43.7953583" lon="11.6004317"><ele>960.6</ele><time>2026-05-02T15:47:14.039Z</time></trkpt><trkpt lat="43.79531" lon="11.6003017"><ele>958.4000000000001</ele><time>2026-05-02T15:47:15.036Z</time></trkpt><trkpt lat="43.7952483" lon="11.600185"><ele>956.2</ele><time>2026-05-02T15:47:16.037Z</time></trkpt><trkpt lat="43.7952167" lon="11.6000717"><ele>954.0</ele><time>2026-05-02T15:47:17.037Z</time></trkpt><trkpt lat="43.7952133" lon="11.599865"><ele>952.5</ele><time>2026-05-02T15:47:19.038Z</time></trkpt><trkpt lat="43.79521" lon="11.59973"><ele>951.0</ele><time>2026-05-02T15:47:20.039Z</time></trkpt><trkpt lat="43.795215" lon="11.5996"><ele>949.5</ele><time>2026-05-02T15:47:21.038Z</time></trkpt><trkpt lat="43.7952183" lon="11.599475"><ele>948.0</ele><time>2026-05-02T15:47:22.037Z</time></trkpt><trkpt lat="43.79522" lon="11.59936"><ele>946.5</ele><time>2026-05-02T15:47:23.038Z</time></trkpt><trkpt lat="43.7952117" lon="11.5992517"><ele>945.0</ele><time>2026-05-02T15:47:24.04Z</time></trkpt><trkpt lat="43.795185" lon="11.5991517"><ele>947.6666666666666</ele><time>2026-05-02T15:47:25.037Z</time></trkpt><trkpt lat="43.795135" lon="11.59907"><ele>950.3333333333333</ele><time>2026-05-02T15:47:26.039Z</time></trkpt><trkpt lat="43.79506" lon="11.5990067"><ele>953.0</ele><time>2026-05-02T15:47:27.037Z</time></trkpt><trkpt lat="43.7949817" lon="11.5989467"><ele>955.6666666666666</ele><time>2026-05-02T15:47:28.038Z</time></trkpt><trkpt lat="43.794905" lon="11.598875"><ele>958.3333333333333</ele><time>2026-05-02T15:47:29.037Z</time></trkpt><trkpt lat="43.7948383" lon="11.5987967"><ele>961.0</ele><time>2026-05-02T15:47:30.037Z</time></trkpt><trkpt lat="43.7947817" lon="11.5987233"><ele>958.9999999999999</ele><time>2026-05-02T15:47:31.037Z</time></trkpt><trkpt lat="43.79473" lon="11.5986583"><ele>957.0</ele><time>2026-05-02T15:47:32.039Z</time></trkpt><trkpt lat="43.794665" lon="11.5986133"><ele>955.0</ele><time>2026-05-02T15:47:33.038Z</time></trkpt><trkpt lat="43.7945833" lon="11.5985633"><ele>953.0</ele><time>2026-05-02T15:47:35.038Z</time></trkpt><trkpt lat="43.794535" lon="11.598495"><ele>950.9999999999999</ele><time>2026-05-02T15:47:37.037Z</time></trkpt><trkpt lat="43.794495" lon="11.59835"><ele>949.0</ele><time>2026-05-02T15:47:39.038Z</time></trkpt><trkpt lat="43.7944633" lon="11.59827"><ele>949.0</ele><time>2026-05-02T15:47:40.039Z</time></trkpt><trkpt lat="43.794415" lon="11.598195"><ele>949.0000000000001</ele><time>2026-05-02T15:47:41.039Z</time></trkpt><trkpt lat="43.7943233" lon="11.5980667"><ele>949.0000000000001</ele><time>2026-05-02T15:47:43.038Z</time></trkpt><trkpt lat="43.7942617" lon="11.597985"><ele>949.0</ele><time>2026-05-02T15:47:45.036Z</time></trkpt><trkpt lat="43.7942367" lon="11.5979017"><ele>949.0</ele><time>2026-05-02T15:48:11.039Z</time></trkpt><trkpt lat="43.7943233" lon="11.597835"><ele>950.2</ele><time>2026-05-02T15:48:12.037Z</time></trkpt><trkpt lat="43.7943183" lon="11.5977133"><ele>951.4000000000001</ele><time>2026-05-02T15:50:31.028Z</time></trkpt><trkpt lat="43.7942567" lon="11.597595"><ele>952.6</ele><time>2026-05-02T15:51:25.037Z</time></trkpt><trkpt lat="43.7942283" lon="11.5974767"><ele>953.8</ele><time>2026-05-02T15:52:15.036Z</time></trkpt><trkpt lat="43.7941483" lon="11.597365"><ele>955.0</ele><time>2026-05-02T15:52:17.037Z</time></trkpt><trkpt lat="43.7940867" lon="11.5972583"><ele>954.9999999999999</ele><time>2026-05-02T15:52:19.038Z</time></trkpt><trkpt lat="43.7940417" lon="11.5971633"><ele>955.0</ele><time>2026-05-02T15:52:21.037Z</time></trkpt><trkpt lat="43.7939883" lon="11.5970567"><ele>955.0</ele><time>2026-05-02T15:52:23.039Z</time></trkpt><trkpt lat="43.793965" lon="11.5969633"><ele>955.0</ele><time>2026-05-02T15:52:24.039Z</time></trkpt><trkpt lat="43.7939417" lon="11.5968517"><ele>954.9999999999999</ele><time>2026-05-02T15:52:25.039Z</time></trkpt><trkpt lat="43.79393" lon="11.5967583"><ele>955.0</ele><time>2026-05-02T15:52:26.039Z</time></trkpt><trkpt lat="43.7939167" lon="11.5965867"><ele>952.6666666666666</ele><time>2026-05-02T15:52:28.038Z</time></trkpt><trkpt lat="43.7939233" lon="11.5964883"><ele>950.3333333333333</ele><time>2026-05-02T15:52:29.037Z</time></trkpt><trkpt lat="43.7938933" lon="11.5963367"><ele>948.0</ele><time>2026-05-02T15:52:31.038Z</time></trkpt><trkpt lat="43.793835" lon="11.5962567"><ele>945.6666666666667</ele><time>2026-05-02T15:52:32.039Z</time></trkpt><trkpt lat="43.79376" lon="11.596185"><ele>943.3333333333334</ele><time>2026-05-02T15:52:33.037Z</time></trkpt><trkpt lat="43.79369" lon="11.5961317"><ele>941.0</ele><time>2026-05-02T15:52:34.037Z</time></trkpt><trkpt lat="43.7936283" lon="11.5960967"><ele>939.5999999999999</ele><time>2026-05-02T15:52:35.039Z</time></trkpt><trkpt lat="43.793535" lon="11.5961383"><ele>938.1999999999999</ele><time>2026-05-02T15:52:37.039Z</time></trkpt><trkpt lat="43.7934433" lon="11.596215"><ele>936.8000000000001</ele><time>2026-05-02T15:52:39.039Z</time></trkpt><trkpt lat="43.7933333" lon="11.5962483"><ele>935.4000000000001</ele><time>2026-05-02T15:52:41.037Z</time></trkpt><trkpt lat="43.7932367" lon="11.596245"><ele>934.0</ele><time>2026-05-02T15:52:43.038Z</time></trkpt><trkpt lat="43.793145" lon="11.5961783"><ele>933.6666666666666</ele><time>2026-05-02T15:52:45.037Z</time></trkpt><trkpt lat="43.7930683" lon="11.5960483"><ele>933.3333333333333</ele><time>2026-05-02T15:52:47.038Z</time></trkpt><trkpt lat="43.79304" lon="11.5959667"><ele>933.0</ele><time>2026-05-02T15:52:48.04Z</time></trkpt><trkpt lat="43.7930067" lon="11.595885"><ele>932.6666666666667</ele><time>2026-05-02T15:52:49.029Z</time></trkpt><trkpt lat="43.79296" lon="11.59579"><ele>932.3333333333334</ele><time>2026-05-02T15:52:50.04Z</time></trkpt><trkpt lat="43.7929117" lon="11.5956983"><ele>932.0</ele><time>2026-05-02T15:52:51.039Z</time></trkpt><trkpt lat="43.7928617" lon="11.5956017"><ele>932.0</ele><time>2026-05-02T15:52:52.039Z</time></trkpt><trkpt lat="43.7928117" lon="11.5954933"><ele>932.0</ele><time>2026-05-02T15:52:53.038Z</time></trkpt><trkpt lat="43.7927583" lon="11.5953883"><ele>932.0</ele><time>2026-05-02T15:52:54.037Z</time></trkpt><trkpt lat="43.7926933" lon="11.5952617"><ele>932.0</ele><time>2026-05-02T15:52:55.038Z</time></trkpt><trkpt lat="43.7926167" lon="11.5951433"><ele>932.0</ele><time>2026-05-02T15:52:56.038Z</time></trkpt><trkpt lat="43.7925467" lon="11.5950333"><ele>934.6</ele><time>2026-05-02T15:52:57.037Z</time></trkpt><trkpt lat="43.7924783" lon="11.59493"><ele>937.2</ele><time>2026-05-02T15:52:58.037Z</time></trkpt><trkpt lat="43.792405" lon="11.5948367"><ele>939.8</ele><time>2026-05-02T15:52:59.038Z</time></trkpt><trkpt lat="43.7923317" lon="11.5947467"><ele>942.4</ele><time>2026-05-02T15:53:00.04Z</time></trkpt><trkpt lat="43.7922667" lon="11.5946667"><ele>945.0</ele><time>2026-05-02T15:53:01.037Z</time></trkpt><trkpt lat="43.7922133" lon="11.5945967"><ele>945.0</ele><time>2026-05-02T15:53:02.04Z</time></trkpt><trkpt lat="43.7921483" lon="11.59452"><ele>945.0</ele><time>2026-05-02T15:53:03.041Z</time></trkpt><trkpt lat="43.7920833" lon="11.5944433"><ele>945.0</ele><time>2026-05-02T15:53:04.038Z</time></trkpt><trkpt lat="43.7920183" lon="11.5943683"><ele>945.0</ele><time>2026-05-02T15:53:05.039Z</time></trkpt><trkpt lat="43.7919583" lon="11.5942967"><ele>945.0</ele><time>2026-05-02T15:53:06.04Z</time></trkpt><trkpt lat="43.7919117" lon="11.5942333"><ele>945.0</ele><time>2026-05-02T15:53:07.038Z</time></trkpt><trkpt lat="43.7918633" lon="11.59417"><ele>944.8333333333334</ele><time>2026-05-02T15:53:08.038Z</time></trkpt><trkpt lat="43.7918117" lon="11.5941133"><ele>944.6666666666667</ele><time>2026-05-02T15:53:09.038Z</time></trkpt><trkpt lat="43.7917517" lon="11.5940667"><ele>944.5</ele><time>2026-05-02T15:53:10.038Z</time></trkpt><trkpt lat="43.791645" lon="11.5940033"><ele>944.3333333333334</ele><time>2026-05-02T15:53:12.04Z</time></trkpt><trkpt lat="43.7915817" lon="11.594005"><ele>944.1666666666667</ele><time>2026-05-02T15:53:13.037Z</time></trkpt><trkpt lat="43.7915083" lon="11.5939883"><ele>944.0</ele><time>2026-05-02T15:53:14.041Z</time></trkpt><trkpt lat="43.791435" lon="11.5939633"><ele>944.0</ele><time>2026-05-02T15:53:15.031Z</time></trkpt><trkpt lat="43.79137" lon="11.5939233"><ele>944.0</ele><time>2026-05-02T15:53:16.037Z</time></trkpt><trkpt lat="43.791315" lon="11.5938617"><ele>944.0</ele><time>2026-05-02T15:53:17.04Z</time></trkpt><trkpt lat="43.7912633" lon="11.5938017"><ele>944.0</ele><time>2026-05-02T15:53:18.037Z</time></trkpt><trkpt lat="43.79121" lon="11.593755"><ele>944.0</ele><time>2026-05-02T15:53:19.039Z</time></trkpt><trkpt lat="43.7911417" lon="11.5937267"><ele>944.0</ele><time>2026-05-02T15:53:20.039Z</time></trkpt><trkpt lat="43.7910667" lon="11.5937017"><ele>944.0</ele><time>2026-05-02T15:53:21.037Z</time></trkpt><trkpt lat="43.7909967" lon="11.5936667"><ele>940.6</ele><time>2026-05-02T15:53:22.037Z</time></trkpt><trkpt lat="43.7909267" lon="11.5936317"><ele>937.2</ele><time>2026-05-02T15:53:23.039Z</time></trkpt><trkpt lat="43.7908517" lon="11.593595"><ele>933.8000000000001</ele><time>2026-05-02T15:53:24.04Z</time></trkpt><trkpt lat="43.79078" lon="11.593555"><ele>930.4000000000001</ele><time>2026-05-02T15:53:25.039Z</time></trkpt><trkpt lat="43.7906733" lon="11.5934867"><ele>927.0</ele><time>2026-05-02T15:53:27.038Z</time></trkpt><trkpt lat="43.7905783" lon="11.593555"><ele>927.0</ele><time>2026-05-02T15:53:29.039Z</time></trkpt><trkpt lat="43.79049" lon="11.593645"><ele>927.0</ele><time>2026-05-02T15:53:31.037Z</time></trkpt><trkpt lat="43.7904183" lon="11.59366"><ele>927.0</ele><time>2026-05-02T15:53:33.038Z</time></trkpt><trkpt lat="43.7904083" lon="11.5935583"><ele>927.0</ele><time>2026-05-02T15:53:35.039Z</time></trkpt><trkpt lat="43.7904133" lon="11.593445"><ele>927.0</ele><time>2026-05-02T15:53:36.038Z</time></trkpt><trkpt lat="43.790405" lon="11.5933567"><ele>927.0</ele><time>2026-05-02T15:53:37.037Z</time></trkpt><trkpt lat="43.7903783" lon="11.5932717"><ele>926.9999999999999</ele><time>2026-05-02T15:53:38.04Z</time></trkpt><trkpt lat="43.7903617" lon="11.59318"><ele>927.0</ele><time>2026-05-02T15:53:39.037Z</time></trkpt><trkpt lat="43.790335" lon="11.5931"><ele>926.9999999999999</ele><time>2026-05-02T15:53:40.039Z</time></trkpt><trkpt lat="43.7902833" lon="11.59302"><ele>926.9999999999999</ele><time>2026-05-02T15:53:41.039Z</time></trkpt><trkpt lat="43.7902317" lon="11.5929433"><ele>927.0</ele><time>2026-05-02T15:53:42.04Z</time></trkpt><trkpt lat="43.7901717" lon="11.5928783"><ele>926.9999999999999</ele><time>2026-05-02T15:53:43.039Z</time></trkpt><trkpt lat="43.79012" lon="11.5928183"><ele>926.9999999999999</ele><time>2026-05-02T15:53:44.041Z</time></trkpt><trkpt lat="43.7900633" lon="11.592745"><ele>925.3333333333334</ele><time>2026-05-02T15:53:45.039Z</time></trkpt><trkpt lat="43.7900067" lon="11.59267"><ele>923.6666666666667</ele><time>2026-05-02T15:53:46.038Z</time></trkpt><trkpt lat="43.7899467" lon="11.592605"><ele>922.0</ele><time>2026-05-02T15:53:47.029Z</time></trkpt><trkpt lat="43.7898867" lon="11.592555"><ele>920.3333333333334</ele><time>2026-05-02T15:53:48.04Z</time></trkpt><trkpt lat="43.78982" lon="11.5925317"><ele>918.6666666666667</ele><time>2026-05-02T15:53:49.039Z</time></trkpt><trkpt lat="43.7897383" lon="11.592515"><ele>917.0</ele><time>2026-05-02T15:53:50.041Z</time></trkpt><trkpt lat="43.7896617" lon="11.5925"><ele>917.0000000000001</ele><time>2026-05-02T15:53:51.039Z</time></trkpt><trkpt lat="43.78956" lon="11.5925217"><ele>917.0</ele><time>2026-05-02T15:53:53.039Z</time></trkpt><trkpt lat="43.7894717" lon="11.592525"><ele>917.0</ele><time>2026-05-02T15:53:55.037Z</time></trkpt><trkpt lat="43.789395" lon="11.59249"><ele>917.0</ele><time>2026-05-02T15:53:58.038Z</time></trkpt><trkpt lat="43.78939" lon="11.59236"><ele>917.0000000000001</ele><time>2026-05-02T15:54:04.038Z</time></trkpt><trkpt lat="43.78939" lon="11.5922567"><ele>917.0</ele><time>2026-05-02T15:54:06.037Z</time></trkpt><trkpt lat="43.7894117" lon="11.5920633"><ele>914.0</ele><time>2026-05-02T15:54:08.039Z</time></trkpt><trkpt lat="43.7894517" lon="11.5919383"><ele>911.0</ele><time>2026-05-02T15:54:09.037Z</time></trkpt><trkpt lat="43.7894933" lon="11.591805"><ele>908.0</ele><time>2026-05-02T15:54:10.038Z</time></trkpt><trkpt lat="43.78955" lon="11.5916817"><ele>905.0</ele><time>2026-05-02T15:54:11.038Z</time></trkpt><trkpt lat="43.7896133" lon="11.5915767"><ele>902.0</ele><time>2026-05-02T15:54:12.039Z</time></trkpt><trkpt lat="43.78974" lon="11.5915467"><ele>902.0000000000001</ele><time>2026-05-02T15:54:14.039Z</time></trkpt><trkpt lat="43.7898067" lon="11.59156"><ele>902.0</ele><time>2026-05-02T15:54:15.037Z</time></trkpt><trkpt lat="43.7899017" lon="11.5915933"><ele>902.0</ele><time>2026-05-02T15:54:17.037Z</time></trkpt><trkpt lat="43.7899783" lon="11.5916117"><ele>902.0</ele><time>2026-05-02T15:54:19.037Z</time></trkpt><trkpt lat="43.7900333" lon="11.5916667"><ele>902.0000000000001</ele><time>2026-05-02T15:54:21.038Z</time></trkpt><trkpt lat="43.7901283" lon="11.5917483"><ele>902.0</ele><time>2026-05-02T15:54:23.04Z</time></trkpt><trkpt lat="43.79021" lon="11.5917883"><ele>899.2</ele><time>2026-05-02T15:54:24.039Z</time></trkpt><trkpt lat="43.7903067" lon="11.591815"><ele>896.4000000000001</ele><time>2026-05-02T15:54:25.039Z</time></trkpt><trkpt lat="43.7903817" lon="11.5918383"><ele>893.5999999999999</ele><time>2026-05-02T15:54:26.039Z</time></trkpt><trkpt lat="43.790465" lon="11.59186"><ele>890.8</ele><time>2026-05-02T15:54:27.037Z</time></trkpt><trkpt lat="43.7905483" lon="11.5918867"><ele>888.0</ele><time>2026-05-02T15:54:28.038Z</time></trkpt><trkpt lat="43.7906467" lon="11.5919467"><ele>888.0</ele><time>2026-05-02T15:54:30.037Z</time></trkpt><trkpt lat="43.7907083" lon="11.5920067"><ele>888.0</ele><time>2026-05-02T15:54:32.039Z</time></trkpt><trkpt lat="43.7907783" lon="11.5920467"><ele>888.0</ele><time>2026-05-02T15:54:34.038Z</time></trkpt><trkpt lat="43.7908633" lon="11.59206"><ele>888.0</ele><time>2026-05-02T15:54:36.037Z</time></trkpt><trkpt lat="43.79098" lon="11.5920033"><ele>888.0</ele><time>2026-05-02T15:54:38.039Z</time></trkpt><trkpt lat="43.7910567" lon="11.5919817"><ele>888.0</ele><time>2026-05-02T15:54:39.037Z</time></trkpt><trkpt lat="43.7911367" lon="11.5919767"><ele>889.8</ele><time>2026-05-02T15:54:40.029Z</time></trkpt><trkpt lat="43.7912183" lon="11.591985"><ele>891.5999999999999</ele><time>2026-05-02T15:54:41.037Z</time></trkpt><trkpt lat="43.79131" lon="11.592"><ele>893.4000000000001</ele><time>2026-05-02T15:54:42.039Z</time></trkpt><trkpt lat="43.79141" lon="11.59202"><ele>895.2</ele><time>2026-05-02T15:54:43.04Z</time></trkpt><trkpt lat="43.791515" lon="11.59201"><ele>897.0</ele><time>2026-05-02T15:54:44.041Z</time></trkpt><trkpt lat="43.7916033" lon="11.5919867"><ele>895.1666666666666</ele><time>2026-05-02T15:54:45.037Z</time></trkpt><trkpt lat="43.7916933" lon="11.5919733"><ele>893.3333333333333</ele><time>2026-05-02T15:54:46.038Z</time></trkpt><trkpt lat="43.7917783" lon="11.5919583"><ele>891.5</ele><time>2026-05-02T15:54:47.038Z</time></trkpt><trkpt lat="43.7918667" lon="11.5919567"><ele>889.6666666666666</ele><time>2026-05-02T15:54:48.038Z</time></trkpt><trkpt lat="43.7919583" lon="11.5919733"><ele>887.8333333333333</ele><time>2026-05-02T15:54:49.039Z</time></trkpt><trkpt lat="43.7920483" lon="11.5919917"><ele>886.0</ele><time>2026-05-02T15:54:50.039Z</time></trkpt><trkpt lat="43.792145" lon="11.5920067"><ele>885.9999999999999</ele><time>2026-05-02T15:54:51.037Z</time></trkpt><trkpt lat="43.79224" lon="11.592015"><ele>886.0</ele><time>2026-05-02T15:54:52.038Z</time></trkpt><trkpt lat="43.79233" lon="11.5920217"><ele>886.0</ele><time>2026-05-02T15:54:53.039Z</time></trkpt><trkpt lat="43.7924117" lon="11.592045"><ele>886.0</ele><time>2026-05-02T15:54:54.038Z</time></trkpt><trkpt lat="43.7924783" lon="11.5920967"><ele>885.9999999999999</ele><time>2026-05-02T15:54:55.038Z</time></trkpt><trkpt lat="43.7925317" lon="11.5921633"><ele>886.0</ele><time>2026-05-02T15:54:56.045Z</time></trkpt><trkpt lat="43.7925983" lon="11.5922517"><ele>886.0</ele><time>2026-05-02T15:54:57.039Z</time></trkpt><trkpt lat="43.7926567" lon="11.59231"><ele>886.0</ele><time>2026-05-02T15:54:58.039Z</time></trkpt><trkpt lat="43.7927167" lon="11.5923483"><ele>886.0</ele><time>2026-05-02T15:54:59.039Z</time></trkpt><trkpt lat="43.7927783" lon="11.5923967"><ele>886.0</ele><time>2026-05-02T15:55:00.036Z</time></trkpt><trkpt lat="43.7928467" lon="11.5924583"><ele>886.0</ele><time>2026-05-02T15:55:01.039Z</time></trkpt><trkpt lat="43.792915" lon="11.5925183"><ele>886.0</ele><time>2026-05-02T15:55:02.039Z</time></trkpt><trkpt lat="43.79297" lon="11.5925833"><ele>886.0</ele><time>2026-05-02T15:55:03.037Z</time></trkpt><trkpt lat="43.7930317" lon="11.59274"><ele>884.8333333333333</ele><time>2026-05-02T15:55:05.039Z</time></trkpt><trkpt lat="43.793055" lon="11.5928533"><ele>883.6666666666666</ele><time>2026-05-02T15:55:06.038Z</time></trkpt><trkpt lat="43.79308" lon="11.5929883"><ele>882.5</ele><time>2026-05-02T15:55:07.038Z</time></trkpt><trkpt lat="43.7931083" lon="11.5931083"><ele>881.3333333333333</ele><time>2026-05-02T15:55:08.04Z</time></trkpt><trkpt lat="43.7931383" lon="11.59322"><ele>880.1666666666666</ele><time>2026-05-02T15:55:09.038Z</time></trkpt><trkpt lat="43.7931683" lon="11.593325"><ele>879.0</ele><time>2026-05-02T15:55:10.038Z</time></trkpt><trkpt lat="43.79319" lon="11.593425"><ele>879.0</ele><time>2026-05-02T15:55:11.038Z</time></trkpt><trkpt lat="43.7932233" lon="11.593545"><ele>879.0000000000001</ele><time>2026-05-02T15:55:13.041Z</time></trkpt><trkpt lat="43.7933017" lon="11.5934983"><ele>879.0000000000001</ele><time>2026-05-02T15:55:15.039Z</time></trkpt><trkpt lat="43.7933733" lon="11.5934233"><ele>879.0</ele><time>2026-05-02T15:55:16.038Z</time></trkpt><trkpt lat="43.7934433" lon="11.5933383"><ele>879.0</ele><time>2026-05-02T15:55:17.039Z</time></trkpt><trkpt lat="43.7934933" lon="11.5932333"><ele>878.1666666666666</ele><time>2026-05-02T15:55:18.038Z</time></trkpt><trkpt lat="43.7935367" lon="11.5931283"><ele>877.3333333333333</ele><time>2026-05-02T15:55:19.037Z</time></trkpt><trkpt lat="43.793585" lon="11.5930367"><ele>876.5</ele><time>2026-05-02T15:55:20.039Z</time></trkpt><trkpt lat="43.7936483" lon="11.5929767"><ele>875.6666666666666</ele><time>2026-05-02T15:55:21.037Z</time></trkpt><trkpt lat="43.7937067" lon="11.5929383"><ele>874.8333333333333</ele><time>2026-05-02T15:55:22.038Z</time></trkpt><trkpt lat="43.7937683" lon="11.5929167"><ele>874.0</ele><time>2026-05-02T15:55:23.039Z</time></trkpt><trkpt lat="43.7938933" lon="11.5929217"><ele>873.9999999999999</ele><time>2026-05-02T15:55:25.038Z</time></trkpt><trkpt lat="43.7939817" lon="11.5929383"><ele>874.0</ele><time>2026-05-02T15:55:26.04Z</time></trkpt><trkpt lat="43.7940783" lon="11.5929517"><ele>874.0</ele><time>2026-05-02T15:55:27.038Z</time></trkpt><trkpt lat="43.79417" lon="11.59296"><ele>874.0</ele><time>2026-05-02T15:55:28.039Z</time></trkpt><trkpt lat="43.7942517" lon="11.59295"><ele>873.9999999999999</ele><time>2026-05-02T15:55:29.039Z</time></trkpt><trkpt lat="43.794325" lon="11.592945"><ele>874.0</ele><time>2026-05-02T15:55:30.037Z</time></trkpt><trkpt lat="43.7944283" lon="11.5929183"><ele>872.8000000000001</ele><time>2026-05-02T15:55:32.039Z</time></trkpt><trkpt lat="43.7945117" lon="11.5928883"><ele>871.6000000000001</ele><time>2026-05-02T15:55:34.037Z</time></trkpt><trkpt lat="43.79462" lon="11.5928083"><ele>870.4</ele><time>2026-05-02T15:55:36.038Z</time></trkpt><trkpt lat="43.794705" lon="11.5926783"><ele>869.2</ele><time>2026-05-02T15:55:38.039Z</time></trkpt><trkpt lat="43.79476" lon="11.59262"><ele>868.0</ele><time>2026-05-02T15:55:39.038Z</time></trkpt><trkpt lat="43.7948333" lon="11.5925867"><ele>863.5999999999999</ele><time>2026-05-02T15:55:40.039Z</time></trkpt><trkpt lat="43.7949083" lon="11.59257"><ele>859.1999999999999</ele><time>2026-05-02T15:55:41.039Z</time></trkpt><trkpt lat="43.7949817" lon="11.592565"><ele>854.8</ele><time>2026-05-02T15:55:42.039Z</time></trkpt><trkpt lat="43.7950517" lon="11.5925633"><ele>850.4</ele><time>2026-05-02T15:55:43.037Z</time></trkpt><trkpt lat="43.7951667" lon="11.592565"><ele>846.0</ele><time>2026-05-02T15:55:45.037Z</time></trkpt><trkpt lat="43.7952783" lon="11.59252"><ele>846.0</ele><time>2026-05-02T15:55:47.037Z</time></trkpt><trkpt lat="43.7953517" lon="11.5924833"><ele>846.0</ele><time>2026-05-02T15:55:48.039Z</time></trkpt><trkpt lat="43.79543" lon="11.59245"><ele>846.0</ele><time>2026-05-02T15:55:49.037Z</time></trkpt><trkpt lat="43.7955133" lon="11.592415"><ele>846.0</ele><time>2026-05-02T15:55:50.037Z</time></trkpt><trkpt lat="43.7956" lon="11.5923783"><ele>846.0</ele><time>2026-05-02T15:55:51.039Z</time></trkpt><trkpt lat="43.795685" lon="11.5923333"><ele>846.0</ele><time>2026-05-02T15:55:52.037Z</time></trkpt><trkpt lat="43.7957633" lon="11.5922817"><ele>846.0</ele><time>2026-05-02T15:55:53.039Z</time></trkpt><trkpt lat="43.795835" lon="11.5922367"><ele>846.0</ele><time>2026-05-02T15:55:54.037Z</time></trkpt><trkpt lat="43.7959017" lon="11.5921983"><ele>846.0</ele><time>2026-05-02T15:55:55.038Z</time></trkpt><trkpt lat="43.79599" lon="11.5921317"><ele>846.0</ele><time>2026-05-02T15:55:57.038Z</time></trkpt><trkpt lat="43.7960367" lon="11.5920467"><ele>846.0</ele><time>2026-05-02T15:55:59.037Z</time></trkpt><trkpt lat="43.7960767" lon="11.5919033"><ele>846.0</ele><time>2026-05-02T15:56:01.038Z</time></trkpt><trkpt lat="43.7961017" lon="11.5918067"><ele>844.8333333333334</ele><time>2026-05-02T15:56:02.039Z</time></trkpt><trkpt lat="43.7961367" lon="11.591695"><ele>843.6666666666667</ele><time>2026-05-02T15:56:03.038Z</time></trkpt><trkpt lat="43.7961733" lon="11.59159"><ele>842.5</ele><time>2026-05-02T15:56:04.039Z</time></trkpt><trkpt lat="43.796215" lon="11.5914917"><ele>841.3333333333334</ele><time>2026-05-02T15:56:05.038Z</time></trkpt><trkpt lat="43.7962667" lon="11.591405"><ele>840.1666666666667</ele><time>2026-05-02T15:56:06.041Z</time></trkpt><trkpt lat="43.796315" lon="11.5913317"><ele>839.0</ele><time>2026-05-02T15:56:07.041Z</time></trkpt><trkpt lat="43.796375" lon="11.5912683"><ele>839.0000000000001</ele><time>2026-05-02T15:56:08.041Z</time></trkpt><trkpt lat="43.7964417" lon="11.5912217"><ele>839.0</ele><time>2026-05-02T15:56:09.037Z</time></trkpt><trkpt lat="43.79651" lon="11.59119"><ele>839.0</ele><time>2026-05-02T15:56:10.038Z</time></trkpt><trkpt lat="43.796585" lon="11.591155"><ele>839.0</ele><time>2026-05-02T15:56:11.038Z</time></trkpt><trkpt lat="43.79665" lon="11.591115"><ele>839.0000000000001</ele><time>2026-05-02T15:56:12.037Z</time></trkpt><trkpt lat="43.7967033" lon="11.591065"><ele>839.0</ele><time>2026-05-02T15:56:13.038Z</time></trkpt><trkpt lat="43.7967" lon="11.5909217"><ele>836.3333333333334</ele><time>2026-05-02T15:56:15.038Z</time></trkpt><trkpt lat="43.7966167" lon="11.5908683"><ele>833.6666666666667</ele><time>2026-05-02T15:56:17.039Z</time></trkpt><trkpt lat="43.7965133" lon="11.5909"><ele>831.0</ele><time>2026-05-02T15:56:19.038Z</time></trkpt><trkpt lat="43.79644" lon="11.5909483"><ele>828.3333333333333</ele><time>2026-05-02T15:56:20.039Z</time></trkpt><trkpt lat="43.7963633" lon="11.5909967"><ele>825.6666666666666</ele><time>2026-05-02T15:56:21.038Z</time></trkpt><trkpt lat="43.7962883" lon="11.5910383"><ele>823.0</ele><time>2026-05-02T15:56:22.038Z</time></trkpt><trkpt lat="43.79621" lon="11.5910767"><ele>823.0</ele><time>2026-05-02T15:56:23.037Z</time></trkpt><trkpt lat="43.7961217" lon="11.5910933"><ele>823.0</ele><time>2026-05-02T15:56:24.039Z</time></trkpt><trkpt lat="43.79603" lon="11.5911033"><ele>823.0</ele><time>2026-05-02T15:56:25.038Z</time></trkpt><trkpt lat="43.7959317" lon="11.5911183"><ele>823.0</ele><time>2026-05-02T15:56:27.038Z</time></trkpt><trkpt lat="43.7958333" lon="11.5910933"><ele>823.0</ele><time>2026-05-02T15:56:34.037Z</time></trkpt><trkpt lat="43.7957367" lon="11.59107"><ele>821.0</ele><time>2026-05-02T15:56:36.036Z</time></trkpt><trkpt lat="43.7956683" lon="11.59104"><ele>819.0</ele><time>2026-05-02T15:56:37.039Z</time></trkpt><trkpt lat="43.795575" lon="11.59103"><ele>817.0</ele><time>2026-05-02T15:56:38.04Z</time></trkpt><trkpt lat="43.7954767" lon="11.5910367"><ele>815.0</ele><time>2026-05-02T15:56:39.038Z</time></trkpt><trkpt lat="43.795385" lon="11.591035"><ele>813.0</ele><time>2026-05-02T15:56:40.037Z</time></trkpt><trkpt lat="43.7952817" lon="11.5910267"><ele>813.0</ele><time>2026-05-02T15:56:42.04Z</time></trkpt><trkpt lat="43.795205" lon="11.59103"><ele>813.0</ele><time>2026-05-02T15:56:44.04Z</time></trkpt><trkpt lat="43.79513" lon="11.5910267"><ele>813.0</ele><time>2026-05-02T15:56:47.037Z</time></trkpt><trkpt lat="43.7950583" lon="11.5910133"><ele>813.0</ele><time>2026-05-02T15:56:52.037Z</time></trkpt><trkpt lat="43.7949667" lon="11.59097"><ele>813.0</ele><time>2026-05-02T15:56:54.039Z</time></trkpt><trkpt lat="43.79491" lon="11.59093"><ele>813.0</ele><time>2026-05-02T15:56:55.038Z</time></trkpt><trkpt lat="43.7948067" lon="11.5908733"><ele>813.0</ele><time>2026-05-02T15:56:57.038Z</time></trkpt><trkpt lat="43.7946883" lon="11.5907617"><ele>813.0</ele><time>2026-05-02T15:57:51.03Z</time></trkpt><trkpt lat="43.7946833" lon="11.5909283"><ele>813.0</ele><time>2026-05-02T16:00:21.029Z</time></trkpt><trkpt lat="43.7946017" lon="11.5909417"><ele>813.0</ele><time>2026-05-02T16:00:51.029Z</time></trkpt><trkpt lat="43.794535" lon="11.5909333"><ele>813.0</ele><time>2026-05-02T16:00:54.038Z</time></trkpt><trkpt lat="43.7944667" lon="11.590905"><ele>813.0</ele><time>2026-05-02T16:00:56.039Z</time></trkpt><trkpt lat="43.7944117" lon="11.590855"><ele>813.0</ele><time>2026-05-02T16:00:59.04Z</time></trkpt><trkpt lat="43.7943667" lon="11.5907633"><ele>813.0</ele><time>2026-05-02T16:01:02.04Z</time></trkpt><trkpt lat="43.7944067" lon="11.5906817"><ele>813.0</ele><time>2026-05-02T16:02:09.029Z</time></trkpt><trkpt lat="43.7945433" lon="11.59068"><ele>813.0</ele><time>2026-05-02T16:03:28.04Z</time></trkpt><trkpt lat="43.7944583" lon="11.5906967"><ele>813.0</ele><time>2026-05-02T16:03:34.039Z</time></trkpt><trkpt lat="43.794445" lon="11.5908033"><ele>813.0</ele><time>2026-05-02T16:04:08.039Z</time></trkpt><trkpt lat="43.7945583" lon="11.590885"><ele>813.0</ele><time>2026-05-02T16:04:23.038Z</time></trkpt><trkpt lat="43.7946317" lon="11.5908217"><ele>813.0</ele><time>2026-05-02T16:04:46.038Z</time></trkpt><trkpt lat="43.7946967" lon="11.5908167"><ele>813.0</ele><time>2026-05-02T16:04:48.04Z</time></trkpt><trkpt lat="43.79477" lon="11.5908333"><ele>813.0</ele><time>2026-05-02T16:04:50.039Z</time></trkpt><trkpt lat="43.7948683" lon="11.590795"><ele>813.0</ele><time>2026-05-02T16:05:12.037Z</time></trkpt><trkpt lat="43.7949517" lon="11.5908483"><ele>813.0</ele><time>2026-05-02T16:05:14.031Z</time></trkpt><trkpt lat="43.79503" lon="11.590845"><ele>813.0</ele><time>2026-05-02T16:05:16.037Z</time></trkpt><trkpt lat="43.7950917" lon="11.5908883"><ele>813.0</ele><time>2026-05-02T16:05:18.039Z</time></trkpt><trkpt lat="43.79518" lon="11.5908817"><ele>813.0</ele><time>2026-05-02T16:05:20.039Z</time></trkpt><trkpt lat="43.7953067" lon="11.5909"><ele>813.0</ele><time>2026-05-02T16:05:22.039Z</time></trkpt><trkpt lat="43.79539" lon="11.5908917"><ele>813.0</ele><time>2026-05-02T16:05:23.041Z</time></trkpt><trkpt lat="43.7954817" lon="11.5908767"><ele>813.0</ele><time>2026-05-02T16:05:24.041Z</time></trkpt><trkpt lat="43.7955633" lon="11.5909017"><ele>813.0</ele><time>2026-05-02T16:05:25.04Z</time></trkpt><trkpt lat="43.79563" lon="11.5909183"><ele>813.0</ele><time>2026-05-02T16:05:26.04Z</time></trkpt><trkpt lat="43.7957433" lon="11.59097"><ele>813.0</ele><time>2026-05-02T16:05:28.037Z</time></trkpt><trkpt lat="43.7958217" lon="11.59097"><ele>813.0</ele><time>2026-05-02T16:05:30.041Z</time></trkpt><trkpt lat="43.7959" lon="11.59102"><ele>813.0</ele><time>2026-05-02T16:05:33.039Z</time></trkpt><trkpt lat="43.7959933" lon="11.5910267"><ele>813.0</ele><time>2026-05-02T16:05:35.038Z</time></trkpt><trkpt lat="43.7960633" lon="11.59101"><ele>813.0</ele><time>2026-05-02T16:05:36.038Z</time></trkpt><trkpt lat="43.796125" lon="11.59099"><ele>813.0</ele><time>2026-05-02T16:05:37.029Z</time></trkpt><trkpt lat="43.7961933" lon="11.5909783"><ele>813.0</ele><time>2026-05-02T16:05:38.039Z</time></trkpt><trkpt lat="43.7962517" lon="11.590945"><ele>813.0</ele><time>2026-05-02T16:05:39.037Z</time></trkpt><trkpt lat="43.796365" lon="11.5908767"><ele>814.4285714285714</ele><time>2026-05-02T16:05:41.04Z</time></trkpt><trkpt lat="43.79643" lon="11.5908333"><ele>815.8571428571428</ele><time>2026-05-02T16:05:42.038Z</time></trkpt><trkpt lat="43.7965033" lon="11.590835"><ele>817.2857142857142</ele><time>2026-05-02T16:05:43.038Z</time></trkpt><trkpt lat="43.7965717" lon="11.5908283"><ele>818.7142857142858</ele><time>2026-05-02T16:05:44.039Z</time></trkpt><trkpt lat="43.7966367" lon="11.590845"><ele>820.1428571428571</ele><time>2026-05-02T16:05:45.04Z</time></trkpt><trkpt lat="43.7966983" lon="11.5908667"><ele>821.5714285714286</ele><time>2026-05-02T16:05:46.038Z</time></trkpt><trkpt lat="43.7967383" lon="11.5909867"><ele>823.0</ele><time>2026-05-02T16:05:48.041Z</time></trkpt><trkpt lat="43.7967133" lon="11.59113"><ele>825.2857142857143</ele><time>2026-05-02T16:05:50.041Z</time></trkpt><trkpt lat="43.7966667" lon="11.5912"><ele>827.5714285714287</ele><time>2026-05-02T16:05:51.039Z</time></trkpt><trkpt lat="43.7966067" lon="11.5912583"><ele>829.8571428571429</ele><time>2026-05-02T16:05:52.04Z</time></trkpt><trkpt lat="43.7965517" lon="11.591315"><ele>832.1428571428571</ele><time>2026-05-02T16:05:53.04Z</time></trkpt><trkpt lat="43.796495" lon="11.5913767"><ele>834.4285714285714</ele><time>2026-05-02T16:05:54.04Z</time></trkpt><trkpt lat="43.796435" lon="11.5914367"><ele>836.7142857142857</ele><time>2026-05-02T16:05:55.039Z</time></trkpt><trkpt lat="43.796375" lon="11.5915067"><ele>839.0</ele><time>2026-05-02T16:05:56.039Z</time></trkpt><trkpt lat="43.7963333" lon="11.5915833"><ele>839.0000000000001</ele><time>2026-05-02T16:05:57.04Z</time></trkpt><trkpt lat="43.7962633" lon="11.5917233"><ele>839.0</ele><time>2026-05-02T16:05:59.038Z</time></trkpt><trkpt lat="43.7962367" lon="11.5918117"><ele>839.0</ele><time>2026-05-02T16:06:00.038Z</time></trkpt><trkpt lat="43.7962017" lon="11.5919083"><ele>839.0</ele><time>2026-05-02T16:06:01.04Z</time></trkpt><trkpt lat="43.7961633" lon="11.592005"><ele>839.0000000000001</ele><time>2026-05-02T16:06:02.039Z</time></trkpt><trkpt lat="43.796135" lon="11.5920967"><ele>839.0</ele><time>2026-05-02T16:06:03.037Z</time></trkpt><trkpt lat="43.7960733" lon="11.5922367"><ele>840.1666666666667</ele><time>2026-05-02T16:06:05.039Z</time></trkpt><trkpt lat="43.7959717" lon="11.592345"><ele>841.3333333333334</ele><time>2026-05-02T16:06:07.038Z</time></trkpt><trkpt lat="43.795915" lon="11.5923933"><ele>842.5</ele><time>2026-05-02T16:06:08.04Z</time></trkpt><trkpt lat="43.795845" lon="11.5924467"><ele>843.6666666666667</ele><time>2026-05-02T16:06:09.036Z</time></trkpt><trkpt lat="43.795775" lon="11.5924883"><ele>844.8333333333334</ele><time>2026-05-02T16:06:10.038Z</time></trkpt><trkpt lat="43.79569" lon="11.592525"><ele>846.0</ele><time>2026-05-02T16:06:11.038Z</time></trkpt><trkpt lat="43.7956017" lon="11.5925583"><ele>846.0</ele><time>2026-05-02T16:06:12.037Z</time></trkpt><trkpt lat="43.79551" lon="11.5925933"><ele>846.0</ele><time>2026-05-02T16:06:13.038Z</time></trkpt><trkpt lat="43.7954217" lon="11.5926267"><ele>846.0</ele><time>2026-05-02T16:06:14.039Z</time></trkpt><trkpt lat="43.7953467" lon="11.5926633"><ele>846.0</ele><time>2026-05-02T16:06:15.041Z</time></trkpt><trkpt lat="43.7952767" lon="11.592705"><ele>846.0</ele><time>2026-05-02T16:06:16.037Z</time></trkpt><trkpt lat="43.7952083" lon="11.5927367"><ele>846.0</ele><time>2026-05-02T16:06:17.038Z</time></trkpt><trkpt lat="43.795145" lon="11.59275"><ele>846.0</ele><time>2026-05-02T16:06:18.038Z</time></trkpt><trkpt lat="43.7950317" lon="11.5927367"><ele>846.0</ele><time>2026-05-02T16:06:20.039Z</time></trkpt><trkpt lat="43.7949083" lon="11.5927467"><ele>846.0</ele><time>2026-05-02T16:06:22.038Z</time></trkpt><trkpt lat="43.79481" lon="11.59282"><ele>846.0</ele><time>2026-05-02T16:06:24.04Z</time></trkpt><trkpt lat="43.7947367" lon="11.592925"><ele>850.4</ele><time>2026-05-02T16:06:26.04Z</time></trkpt><trkpt lat="43.794645" lon="11.593015"><ele>854.8</ele><time>2026-05-02T16:06:28.038Z</time></trkpt><trkpt lat="43.7945417" lon="11.5930867"><ele>859.1999999999999</ele><time>2026-05-02T16:06:30.039Z</time></trkpt><trkpt lat="43.794475" lon="11.593135"><ele>863.5999999999999</ele><time>2026-05-02T16:06:31.038Z</time></trkpt><trkpt lat="43.7944067" lon="11.5931633"><ele>868.0</ele><time>2026-05-02T16:06:32.038Z</time></trkpt><trkpt lat="43.7943283" lon="11.5931917"><ele>869.2</ele><time>2026-05-02T16:06:33.038Z</time></trkpt><trkpt lat="43.7942417" lon="11.5932033"><ele>870.4</ele><time>2026-05-02T16:06:34.038Z</time></trkpt><trkpt lat="43.7941533" lon="11.5932067"><ele>871.6000000000001</ele><time>2026-05-02T16:06:35.038Z</time></trkpt><trkpt lat="43.794035" lon="11.5931917"><ele>872.8000000000001</ele><time>2026-05-02T16:06:36.037Z</time></trkpt><trkpt lat="43.7939383" lon="11.593165"><ele>874.0</ele><time>2026-05-02T16:06:37.039Z</time></trkpt><trkpt lat="43.79384" lon="11.59315"><ele>873.9999999999999</ele><time>2026-05-02T16:06:38.039Z</time></trkpt><trkpt lat="43.793765" lon="11.5931533"><ele>874.0</ele><time>2026-05-02T16:06:39.039Z</time></trkpt><trkpt lat="43.793695" lon="11.5931783"><ele>874.0</ele><time>2026-05-02T16:06:40.038Z</time></trkpt><trkpt lat="43.7936383" lon="11.5932233"><ele>874.0</ele><time>2026-05-02T16:06:41.029Z</time></trkpt><trkpt lat="43.793585" lon="11.5933017"><ele>873.9999999999999</ele><time>2026-05-02T16:06:42.038Z</time></trkpt><trkpt lat="43.7935267" lon="11.5933783"><ele>874.0</ele><time>2026-05-02T16:06:43.037Z</time></trkpt><trkpt lat="43.79347" lon="11.5934667"><ele>875.0</ele><time>2026-05-02T16:06:44.039Z</time></trkpt><trkpt lat="43.7934167" lon="11.5935517"><ele>876.0000000000001</ele><time>2026-05-02T16:06:45.037Z</time></trkpt><trkpt lat="43.7933317" lon="11.5936467"><ele>877.0000000000001</ele><time>2026-05-02T16:06:47.037Z</time></trkpt><trkpt lat="43.793255" lon="11.59362"><ele>878.0</ele><time>2026-05-02T16:06:50.038Z</time></trkpt><trkpt lat="43.7932067" lon="11.5934483"><ele>879.0</ele><time>2026-05-02T16:06:52.037Z</time></trkpt><trkpt lat="43.7931667" lon="11.5933367"><ele>879.0</ele><time>2026-05-02T16:06:53.038Z</time></trkpt><trkpt lat="43.7931317" lon="11.5932217"><ele>879.0</ele><time>2026-05-02T16:06:54.039Z</time></trkpt><trkpt lat="43.7930917" lon="11.5930917"><ele>879.0</ele><time>2026-05-02T16:06:55.038Z</time></trkpt><trkpt lat="43.7930567" lon="11.59298"><ele>879.0</ele><time>2026-05-02T16:06:56.04Z</time></trkpt><trkpt lat="43.79302" lon="11.592885"><ele>879.0</ele><time>2026-05-02T16:06:57.037Z</time></trkpt><trkpt lat="43.7929883" lon="11.5927933"><ele>879.0</ele><time>2026-05-02T16:06:58.039Z</time></trkpt><trkpt lat="43.7929633" lon="11.5926983"><ele>880.1666666666666</ele><time>2026-05-02T16:06:59.039Z</time></trkpt><trkpt lat="43.7929283" lon="11.5926233"><ele>881.3333333333333</ele><time>2026-05-02T16:07:00.037Z</time></trkpt><trkpt lat="43.7928783" lon="11.5925567"><ele>882.5</ele><time>2026-05-02T16:07:01.037Z</time></trkpt><trkpt lat="43.7928217" lon="11.5925"><ele>883.6666666666666</ele><time>2026-05-02T16:07:02.038Z</time></trkpt><trkpt lat="43.7927667" lon="11.592455"><ele>884.8333333333333</ele><time>2026-05-02T16:07:03.038Z</time></trkpt><trkpt lat="43.79265" lon="11.59237"><ele>886.0</ele><time>2026-05-02T16:07:05.037Z</time></trkpt><trkpt lat="43.7925817" lon="11.5923183"><ele>885.9999999999999</ele><time>2026-05-02T16:07:06.038Z</time></trkpt><trkpt lat="43.7925117" lon="11.592255"><ele>886.0</ele><time>2026-05-02T16:07:07.037Z</time></trkpt><trkpt lat="43.792445" lon="11.5922"><ele>886.0</ele><time>2026-05-02T16:07:08.039Z</time></trkpt><trkpt lat="43.792375" lon="11.5921533"><ele>886.0</ele><time>2026-05-02T16:07:09.038Z</time></trkpt><trkpt lat="43.7922983" lon="11.592115"><ele>885.9999999999999</ele><time>2026-05-02T16:07:10.038Z</time></trkpt><trkpt lat="43.7922133" lon="11.59209"><ele>886.0</ele><time>2026-05-02T16:07:11.039Z</time></trkpt><trkpt lat="43.79212" lon="11.5920883"><ele>886.0</ele><time>2026-05-02T16:07:12.039Z</time></trkpt><trkpt lat="43.7920283" lon="11.5920883"><ele>885.9999999999999</ele><time>2026-05-02T16:07:13.039Z</time></trkpt><trkpt lat="43.79193" lon="11.5921083"><ele>885.9999999999999</ele><time>2026-05-02T16:07:14.041Z</time></trkpt><trkpt lat="43.7918367" lon="11.5921117"><ele>886.0</ele><time>2026-05-02T16:07:15.038Z</time></trkpt><trkpt lat="43.79175" lon="11.5921217"><ele>886.0</ele><time>2026-05-02T16:07:16.038Z</time></trkpt><trkpt lat="43.79167" lon="11.5921517"><ele>888.1999999999999</ele><time>2026-05-02T16:07:17.038Z</time></trkpt><trkpt lat="43.7915967" lon="11.5921817"><ele>890.3999999999999</ele><time>2026-05-02T16:07:18.04Z</time></trkpt><trkpt lat="43.7914967" lon="11.592205"><ele>892.6</ele><time>2026-05-02T16:07:19.039Z</time></trkpt><trkpt lat="43.791405" lon="11.5922067"><ele>894.8</ele><time>2026-05-02T16:07:20.039Z</time></trkpt><trkpt lat="43.7912817" lon="11.5921883"><ele>897.0</ele><time>2026-05-02T16:07:21.037Z</time></trkpt><trkpt lat="43.79119" lon="11.59218"><ele>897.0</ele><time>2026-05-02T16:07:22.038Z</time></trkpt><trkpt lat="43.7911" lon="11.5921867"><ele>897.0</ele><time>2026-05-02T16:07:23.029Z</time></trkpt><trkpt lat="43.7910133" lon="11.5921967"><ele>897.0</ele><time>2026-05-02T16:07:24.038Z</time></trkpt><trkpt lat="43.7909367" lon="11.5922133"><ele>897.0</ele><time>2026-05-02T16:07:25.039Z</time></trkpt><trkpt lat="43.7908633" lon="11.5922233"><ele>897.0</ele><time>2026-05-02T16:07:26.041Z</time></trkpt><trkpt lat="43.7907667" lon="11.592215"><ele>897.0</ele><time>2026-05-02T16:07:28.039Z</time></trkpt><trkpt lat="43.7907067" lon="11.5921883"><ele>898.3333333333334</ele><time>2026-05-02T16:07:31.038Z</time></trkpt><trkpt lat="43.7906383" lon="11.592145"><ele>899.6666666666667</ele><time>2026-05-02T16:07:33.038Z</time></trkpt><trkpt lat="43.79058" lon="11.5921117"><ele>901.0</ele><time>2026-05-02T16:07:34.038Z</time></trkpt><trkpt lat="43.7905133" lon="11.592075"><ele>902.3333333333334</ele><time>2026-05-02T16:07:35.039Z</time></trkpt><trkpt lat="43.790435" lon="11.5920533"><ele>903.6666666666667</ele><time>2026-05-02T16:07:36.039Z</time></trkpt><trkpt lat="43.7903583" lon="11.5920317"><ele>905.0</ele><time>2026-05-02T16:07:37.038Z</time></trkpt><trkpt lat="43.790275" lon="11.59201"><ele>904.5000000000001</ele><time>2026-05-02T16:07:38.04Z</time></trkpt><trkpt lat="43.7901967" lon="11.59199"><ele>904.0</ele><time>2026-05-02T16:07:39.038Z</time></trkpt><trkpt lat="43.7901217" lon="11.5919633"><ele>903.5</ele><time>2026-05-02T16:07:40.037Z</time></trkpt><trkpt lat="43.790005" lon="11.5919117"><ele>903.0</ele><time>2026-05-02T16:07:42.041Z</time></trkpt><trkpt lat="43.7899217" lon="11.5918767"><ele>902.5000000000001</ele><time>2026-05-02T16:07:44.04Z</time></trkpt><trkpt lat="43.7898467" lon="11.59185"><ele>902.0</ele><time>2026-05-02T16:07:46.039Z</time></trkpt><trkpt lat="43.7897333" lon="11.5918167"><ele>902.0</ele><time>2026-05-02T16:07:48.038Z</time></trkpt><trkpt lat="43.7896167" lon="11.5918067"><ele>902.0</ele><time>2026-05-02T16:07:50.041Z</time></trkpt><trkpt lat="43.7895167" lon="11.5918783"><ele>902.0</ele><time>2026-05-02T16:07:52.04Z</time></trkpt><trkpt lat="43.7894883" lon="11.5919667"><ele>902.0</ele><time>2026-05-02T16:07:53.041Z</time></trkpt><trkpt lat="43.789475" lon="11.5920733"><ele>902.0</ele><time>2026-05-02T16:07:54.042Z</time></trkpt><trkpt lat="43.789435" lon="11.59223"><ele>904.8</ele><time>2026-05-02T16:07:56.04Z</time></trkpt><trkpt lat="43.7893917" lon="11.5923633"><ele>907.6</ele><time>2026-05-02T16:07:58.038Z</time></trkpt><trkpt lat="43.7893733" lon="11.5924583"><ele>910.3999999999999</ele><time>2026-05-02T16:08:00.037Z</time></trkpt><trkpt lat="43.7892883" lon="11.592545"><ele>913.1999999999999</ele><time>2026-05-02T16:08:11.029Z</time></trkpt><trkpt lat="43.78922" lon="11.5924483"><ele>916.0</ele><time>2026-05-02T16:08:15.039Z</time></trkpt><trkpt lat="43.7891767" lon="11.5922917"><ele>916.0</ele><time>2026-05-02T16:08:17.039Z</time></trkpt><trkpt lat="43.7891467" lon="11.5921567"><ele>915.9999999999999</ele><time>2026-05-02T16:08:19.039Z</time></trkpt><trkpt lat="43.7890967" lon="11.592035"><ele>915.9999999999999</ele><time>2026-05-02T16:08:21.038Z</time></trkpt><trkpt lat="43.7890283" lon="11.5918933"><ele>916.0</ele><time>2026-05-02T16:08:23.028Z</time></trkpt><trkpt lat="43.78895" lon="11.5917967"><ele>916.0</ele><time>2026-05-02T16:08:25.039Z</time></trkpt><trkpt lat="43.78888" lon="11.5916567"><ele>914.4</ele><time>2026-05-02T16:08:42.028Z</time></trkpt><trkpt lat="43.7888067" lon="11.5915817"><ele>912.8</ele><time>2026-05-02T16:08:45.039Z</time></trkpt><trkpt lat="43.7887517" lon="11.5915283"><ele>911.1999999999999</ele><time>2026-05-02T16:08:46.039Z</time></trkpt><trkpt lat="43.7886983" lon="11.5914667"><ele>909.5999999999999</ele><time>2026-05-02T16:08:47.04Z</time></trkpt><trkpt lat="43.7886383" lon="11.5913333"><ele>908.0</ele><time>2026-05-02T16:08:49.04Z</time></trkpt><trkpt lat="43.788575" lon="11.5911683"><ele>906.6666666666667</ele><time>2026-05-02T16:08:51.037Z</time></trkpt><trkpt lat="43.7885433" lon="11.5910617"><ele>905.3333333333334</ele><time>2026-05-02T16:08:52.037Z</time></trkpt><trkpt lat="43.7885083" lon="11.5909367"><ele>904.0</ele><time>2026-05-02T16:08:53.039Z</time></trkpt><trkpt lat="43.7884933" lon="11.5908283"><ele>902.6666666666667</ele><time>2026-05-02T16:08:54.037Z</time></trkpt><trkpt lat="43.7885017" lon="11.59071"><ele>901.3333333333334</ele><time>2026-05-02T16:08:55.04Z</time></trkpt><trkpt lat="43.7884933" lon="11.590615"><ele>900.0</ele><time>2026-05-02T16:08:56.04Z</time></trkpt><trkpt lat="43.7884883" lon="11.5905233"><ele>901.0</ele><time>2026-05-02T16:08:57.039Z</time></trkpt><trkpt lat="43.7885" lon="11.590385"><ele>902.0</ele><time>2026-05-02T16:08:58.04Z</time></trkpt><trkpt lat="43.7885067" lon="11.590265"><ele>903.0</ele><time>2026-05-02T16:08:59.039Z</time></trkpt><trkpt lat="43.7885283" lon="11.590115"><ele>904.0</ele><time>2026-05-02T16:09:00.041Z</time></trkpt><trkpt lat="43.78852" lon="11.58999"><ele>905.0</ele><time>2026-05-02T16:09:01.04Z</time></trkpt><trkpt lat="43.7884967" lon="11.589865"><ele>907.8333333333334</ele><time>2026-05-02T16:09:02.03Z</time></trkpt><trkpt lat="43.7884817" lon="11.58977"><ele>910.6666666666667</ele><time>2026-05-02T16:09:03.038Z</time></trkpt><trkpt lat="43.7884133" lon="11.5898117"><ele>913.5</ele><time>2026-05-02T16:09:06.04Z</time></trkpt><trkpt lat="43.7883717" lon="11.5898867"><ele>916.3333333333333</ele><time>2026-05-02T16:09:08.04Z</time></trkpt><trkpt lat="43.78826" lon="11.58994"><ele>919.1666666666666</ele><time>2026-05-02T16:09:10.039Z</time></trkpt><trkpt lat="43.7881817" lon="11.58997"><ele>922.0</ele><time>2026-05-02T16:09:11.039Z</time></trkpt><trkpt lat="43.7880983" lon="11.5899967"><ele>921.9999999999999</ele><time>2026-05-02T16:09:12.041Z</time></trkpt><trkpt lat="43.78803" lon="11.5900083"><ele>922.0</ele><time>2026-05-02T16:09:13.039Z</time></trkpt><trkpt lat="43.7879217" lon="11.59004"><ele>922.0</ele><time>2026-05-02T16:09:15.039Z</time></trkpt><trkpt lat="43.78784" lon="11.5900917"><ele>922.0</ele><time>2026-05-02T16:09:17.04Z</time></trkpt><trkpt lat="43.7877667" lon="11.5901767"><ele>921.9999999999999</ele><time>2026-05-02T16:09:23.04Z</time></trkpt><trkpt lat="43.787705" lon="11.5902067"><ele>922.0</ele><time>2026-05-02T16:09:26.04Z</time></trkpt><trkpt lat="43.7876367" lon="11.5902383"><ele>924.8333333333333</ele><time>2026-05-02T16:09:29.039Z</time></trkpt><trkpt lat="43.78752" lon="11.5903083"><ele>927.6666666666666</ele><time>2026-05-02T16:09:43.039Z</time></trkpt><trkpt lat="43.78746" lon="11.5903417"><ele>930.5</ele><time>2026-05-02T16:09:45.029Z</time></trkpt><trkpt lat="43.7874" lon="11.59042"><ele>933.3333333333333</ele><time>2026-05-02T16:09:47.039Z</time></trkpt><trkpt lat="43.7873567" lon="11.5904833"><ele>936.1666666666666</ele><time>2026-05-02T16:09:48.041Z</time></trkpt><trkpt lat="43.787315" lon="11.590565"><ele>939.0</ele><time>2026-05-02T16:09:49.04Z</time></trkpt><trkpt lat="43.7872717" lon="11.5906633"><ele>941.0</ele><time>2026-05-02T16:09:50.041Z</time></trkpt><trkpt lat="43.7872383" lon="11.5907467"><ele>943.0</ele><time>2026-05-02T16:09:51.039Z</time></trkpt><trkpt lat="43.7871967" lon="11.590825"><ele>945.0</ele><time>2026-05-02T16:09:52.04Z</time></trkpt><trkpt lat="43.787145" lon="11.5909633"><ele>947.0</ele><time>2026-05-02T16:09:54.039Z</time></trkpt><trkpt lat="43.7870983" lon="11.5911033"><ele>949.0</ele><time>2026-05-02T16:09:56.04Z</time></trkpt><trkpt lat="43.7870567" lon="11.5911867"><ele>951.0</ele><time>2026-05-02T16:09:57.037Z</time></trkpt><trkpt lat="43.7869533" lon="11.5912417"><ele>955.0</ele><time>2026-05-02T16:09:59.039Z</time></trkpt><trkpt lat="43.7868367" lon="11.59127"><ele>959.0</ele><time>2026-05-02T16:10:01.039Z</time></trkpt><trkpt lat="43.786765" lon="11.591305"><ele>963.0</ele><time>2026-05-02T16:10:03.039Z</time></trkpt><trkpt lat="43.78668" lon="11.5913383"><ele>967.0</ele><time>2026-05-02T16:10:26.04Z</time></trkpt><trkpt lat="43.78661" lon="11.5913367"><ele>971.0</ele><time>2026-05-02T16:10:27.038Z</time></trkpt><trkpt lat="43.7865367" lon="11.5913533"><ele>975.0</ele><time>2026-05-02T16:10:28.04Z</time></trkpt><trkpt lat="43.7864433" lon="11.59137"><ele>975.0</ele><time>2026-05-02T16:10:29.04Z</time></trkpt><trkpt lat="43.78634" lon="11.5913867"><ele>975.0</ele><time>2026-05-02T16:10:30.042Z</time></trkpt><trkpt lat="43.7862367" lon="11.5913967"><ele>975.0</ele><time>2026-05-02T16:10:31.039Z</time></trkpt><trkpt lat="43.7861333" lon="11.5913683"><ele>975.0</ele><time>2026-05-02T16:10:32.039Z</time></trkpt><trkpt lat="43.7860317" lon="11.5913733"><ele>975.0</ele><time>2026-05-02T16:10:33.038Z</time></trkpt><trkpt lat="43.7859" lon="11.5913433"><ele>975.0</ele><time>2026-05-02T16:10:34.039Z</time></trkpt><trkpt lat="43.785795" lon="11.5912767"><ele>975.0</ele><time>2026-05-02T16:10:35.039Z</time></trkpt><trkpt lat="43.78568" lon="11.5912633"><ele>975.0</ele><time>2026-05-02T16:10:36.04Z</time></trkpt><trkpt lat="43.7855867" lon="11.5912583"><ele>975.0</ele><time>2026-05-02T16:10:37.039Z</time></trkpt><trkpt lat="43.7855033" lon="11.591235"><ele>975.0</ele><time>2026-05-02T16:10:38.04Z</time></trkpt><trkpt lat="43.7854033" lon="11.5912133"><ele>975.0</ele><time>2026-05-02T16:10:39.039Z</time></trkpt><trkpt lat="43.785325" lon="11.5911867"><ele>975.0</ele><time>2026-05-02T16:10:40.038Z</time></trkpt><trkpt lat="43.7852667" lon="11.5911383"><ele>975.0</ele><time>2026-05-02T16:10:41.037Z</time></trkpt><trkpt lat="43.7852183" lon="11.59107"><ele>975.0</ele><time>2026-05-02T16:10:42.037Z</time></trkpt><trkpt lat="43.7851883" lon="11.590905"><ele>975.0</ele><time>2026-05-02T16:10:44.04Z</time></trkpt><trkpt lat="43.7851783" lon="11.590815"><ele>975.0</ele><time>2026-05-02T16:10:45.028Z</time></trkpt><trkpt lat="43.78516" lon="11.5907217"><ele>973.3333333333334</ele><time>2026-05-02T16:10:46.037Z</time></trkpt><trkpt lat="43.7851333" lon="11.5906183"><ele>971.6666666666667</ele><time>2026-05-02T16:10:47.038Z</time></trkpt><trkpt lat="43.7851067" lon="11.59051"><ele>970.0</ele><time>2026-05-02T16:10:48.04Z</time></trkpt><trkpt lat="43.7850833" lon="11.5904133"><ele>968.3333333333334</ele><time>2026-05-02T16:10:49.04Z</time></trkpt><trkpt lat="43.7850717" lon="11.5903217"><ele>966.6666666666667</ele><time>2026-05-02T16:10:50.04Z</time></trkpt><trkpt lat="43.78502" lon="11.59022"><ele>965.0</ele><time>2026-05-02T16:10:52.039Z</time></trkpt><trkpt lat="43.7849317" lon="11.5901733"><ele>963.8333333333334</ele><time>2026-05-02T16:10:54.04Z</time></trkpt><trkpt lat="43.7848267" lon="11.5901783"><ele>962.6666666666667</ele><time>2026-05-02T16:10:56.04Z</time></trkpt><trkpt lat="43.7847567" lon="11.59016"><ele>961.5</ele><time>2026-05-02T16:10:57.039Z</time></trkpt><trkpt lat="43.784695" lon="11.590125"><ele>960.3333333333333</ele><time>2026-05-02T16:10:58.04Z</time></trkpt><trkpt lat="43.78464" lon="11.5900683"><ele>959.1666666666666</ele><time>2026-05-02T16:10:59.039Z</time></trkpt><trkpt lat="43.7845967" lon="11.590005"><ele>958.0</ele><time>2026-05-02T16:11:00.041Z</time></trkpt><trkpt lat="43.7845183" lon="11.5899067"><ele>958.0</ele><time>2026-05-02T16:11:02.041Z</time></trkpt><trkpt lat="43.7844483" lon="11.58982"><ele>958.0</ele><time>2026-05-02T16:11:04.031Z</time></trkpt><trkpt lat="43.784355" lon="11.58972"><ele>958.0</ele><time>2026-05-02T16:11:06.041Z</time></trkpt><trkpt lat="43.784255" lon="11.5896233"><ele>958.0</ele><time>2026-05-02T16:11:08.041Z</time></trkpt><trkpt lat="43.78414" lon="11.5895167"><ele>955.5999999999999</ele><time>2026-05-02T16:11:10.04Z</time></trkpt><trkpt lat="43.78404" lon="11.589455"><ele>953.1999999999999</ele><time>2026-05-02T16:11:12.04Z</time></trkpt><trkpt lat="43.7839883" lon="11.589325"><ele>950.8</ele><time>2026-05-02T16:11:14.039Z</time></trkpt><trkpt lat="43.7840233" lon="11.5891467"><ele>948.4</ele><time>2026-05-02T16:11:16.028Z</time></trkpt><trkpt lat="43.7840733" lon="11.5890367"><ele>946.0</ele><time>2026-05-02T16:11:17.039Z</time></trkpt><trkpt lat="43.7841283" lon="11.588925"><ele>945.9999999999999</ele><time>2026-05-02T16:11:18.04Z</time></trkpt><trkpt lat="43.78419" lon="11.5888117"><ele>946.0</ele><time>2026-05-02T16:11:19.039Z</time></trkpt><trkpt lat="43.78425" lon="11.5887333"><ele>946.0</ele><time>2026-05-02T16:11:20.039Z</time></trkpt><trkpt lat="43.7842983" lon="11.58865"><ele>946.0</ele><time>2026-05-02T16:11:21.04Z</time></trkpt><trkpt lat="43.7843317" lon="11.5885717"><ele>945.9999999999999</ele><time>2026-05-02T16:11:22.041Z</time></trkpt><trkpt lat="43.784365" lon="11.5884317"><ele>946.0</ele><time>2026-05-02T16:11:24.037Z</time></trkpt><trkpt lat="43.7844083" lon="11.58829"><ele>944.6666666666666</ele><time>2026-05-02T16:11:26.039Z</time></trkpt><trkpt lat="43.7844383" lon="11.58814"><ele>943.3333333333333</ele><time>2026-05-02T16:11:28.038Z</time></trkpt><trkpt lat="43.7844383" lon="11.58805"><ele>942.0</ele><time>2026-05-02T16:11:29.04Z</time></trkpt><trkpt lat="43.7844517" lon="11.5878833"><ele>940.6666666666667</ele><time>2026-05-02T16:11:31.04Z</time></trkpt><trkpt lat="43.7844633" lon="11.587775"><ele>939.3333333333334</ele><time>2026-05-02T16:11:33.039Z</time></trkpt><trkpt lat="43.7845167" lon="11.5877117"><ele>938.0</ele><time>2026-05-02T16:11:36.04Z</time></trkpt><trkpt lat="43.7845983" lon="11.5877783"><ele>938.0000000000001</ele><time>2026-05-02T16:11:38.039Z</time></trkpt><trkpt lat="43.7846517" lon="11.5878417"><ele>938.0</ele><time>2026-05-02T16:11:39.038Z</time></trkpt><trkpt lat="43.78471" lon="11.5879017"><ele>938.0</ele><time>2026-05-02T16:11:40.037Z</time></trkpt><trkpt lat="43.7847667" lon="11.5879467"><ele>938.0</ele><time>2026-05-02T16:11:41.039Z</time></trkpt><trkpt lat="43.784825" lon="11.5879817"><ele>938.0000000000001</ele><time>2026-05-02T16:11:42.039Z</time></trkpt><trkpt lat="43.784945" lon="11.5880317"><ele>938.0</ele><time>2026-05-02T16:11:44.039Z</time></trkpt><trkpt lat="43.7850183" lon="11.5880433"><ele>937.3333333333334</ele><time>2026-05-02T16:11:45.038Z</time></trkpt><trkpt lat="43.7850983" lon="11.5880517"><ele>936.6666666666667</ele><time>2026-05-02T16:11:46.038Z</time></trkpt><trkpt lat="43.785175" lon="11.58806"><ele>936.0</ele><time>2026-05-02T16:11:47.038Z</time></trkpt><trkpt lat="43.78525" lon="11.5880567"><ele>935.3333333333333</ele><time>2026-05-02T16:11:48.04Z</time></trkpt><trkpt lat="43.78532" lon="11.5880367"><ele>934.6666666666666</ele><time>2026-05-02T16:11:49.037Z</time></trkpt><trkpt lat="43.785395" lon="11.5880017"><ele>934.0</ele><time>2026-05-02T16:11:50.04Z</time></trkpt><trkpt lat="43.7854683" lon="11.5879517"><ele>931.3333333333333</ele><time>2026-05-02T16:11:51.039Z</time></trkpt><trkpt lat="43.7855433" lon="11.5878783"><ele>928.6666666666666</ele><time>2026-05-02T16:11:52.038Z</time></trkpt><trkpt lat="43.785615" lon="11.5878083"><ele>926.0</ele><time>2026-05-02T16:11:53.038Z</time></trkpt><trkpt lat="43.7856867" lon="11.5877367"><ele>923.3333333333333</ele><time>2026-05-02T16:11:54.037Z</time></trkpt><trkpt lat="43.7857567" lon="11.5876833"><ele>920.6666666666666</ele><time>2026-05-02T16:11:55.037Z</time></trkpt><trkpt lat="43.7858283" lon="11.5876283"><ele>918.0</ele><time>2026-05-02T16:11:56.039Z</time></trkpt><trkpt lat="43.78591" lon="11.5875667"><ele>918.0</ele><time>2026-05-02T16:11:57.038Z</time></trkpt><trkpt lat="43.7859783" lon="11.5875"><ele>918.0</ele><time>2026-05-02T16:11:58.038Z</time></trkpt><trkpt lat="43.7860367" lon="11.5874317"><ele>918.0</ele><time>2026-05-02T16:11:59.04Z</time></trkpt><trkpt lat="43.7861083" lon="11.58736"><ele>918.0</ele><time>2026-05-02T16:12:00.043Z</time></trkpt><trkpt lat="43.7861667" lon="11.5872817"><ele>918.0</ele><time>2026-05-02T16:12:01.041Z</time></trkpt><trkpt lat="43.78623" lon="11.5871883"><ele>918.0</ele><time>2026-05-02T16:12:02.042Z</time></trkpt><trkpt lat="43.786295" lon="11.5871067"><ele>915.4285714285714</ele><time>2026-05-02T16:12:03.04Z</time></trkpt><trkpt lat="43.7863567" lon="11.5870467"><ele>912.8571428571429</ele><time>2026-05-02T16:12:04.04Z</time></trkpt><trkpt lat="43.7863967" lon="11.5869617"><ele>910.2857142857143</ele><time>2026-05-02T16:12:05.04Z</time></trkpt><trkpt lat="43.7864167" lon="11.5868717"><ele>907.7142857142858</ele><time>2026-05-02T16:12:06.041Z</time></trkpt><trkpt lat="43.7864217" lon="11.5867733"><ele>905.1428571428571</ele><time>2026-05-02T16:12:07.039Z</time></trkpt><trkpt lat="43.7864167" lon="11.5866683"><ele>902.5714285714287</ele><time>2026-05-02T16:12:08.04Z</time></trkpt><trkpt lat="43.7864233" lon="11.5865733"><ele>900.0000000000001</ele><time>2026-05-02T16:12:09.04Z</time></trkpt><trkpt lat="43.7864417" lon="11.5864833"><ele>899.6</ele><time>2026-05-02T16:12:10.039Z</time></trkpt><trkpt lat="43.7864983" lon="11.5863367"><ele>899.2</ele><time>2026-05-02T16:12:12.041Z</time></trkpt><trkpt lat="43.7865483" lon="11.5862"><ele>898.8</ele><time>2026-05-02T16:12:14.042Z</time></trkpt><trkpt lat="43.7865667" lon="11.5860433"><ele>898.4</ele><time>2026-05-02T16:12:16.038Z</time></trkpt><trkpt lat="43.7865517" lon="11.5859517"><ele>898.0</ele><time>2026-05-02T16:12:17.039Z</time></trkpt><trkpt lat="43.78654" lon="11.5858583"><ele>898.0</ele><time>2026-05-02T16:12:18.04Z</time></trkpt><trkpt lat="43.7865533" lon="11.5856983"><ele>898.0</ele><time>2026-05-02T16:12:20.041Z</time></trkpt><trkpt lat="43.786575" lon="11.5855683"><ele>898.0</ele><time>2026-05-02T16:12:22.038Z</time></trkpt><trkpt lat="43.7865667" lon="11.585425"><ele>898.0</ele><time>2026-05-02T16:12:24.041Z</time></trkpt><trkpt lat="43.7865683" lon="11.58533"><ele>898.0</ele><time>2026-05-02T16:12:25.041Z</time></trkpt><trkpt lat="43.7865667" lon="11.5852283"><ele>899.1666666666666</ele><time>2026-05-02T16:12:26.04Z</time></trkpt><trkpt lat="43.78656" lon="11.5851317"><ele>900.3333333333333</ele><time>2026-05-02T16:12:27.038Z</time></trkpt><trkpt lat="43.7865967" lon="11.5849883"><ele>901.5</ele><time>2026-05-02T16:12:29.039Z</time></trkpt><trkpt lat="43.786695" lon="11.5849583"><ele>902.6666666666667</ele><time>2026-05-02T16:12:31.038Z</time></trkpt><trkpt lat="43.7867483" lon="11.585005"><ele>903.8333333333334</ele><time>2026-05-02T16:12:32.04Z</time></trkpt><trkpt lat="43.7868017" lon="11.5850517"><ele>905.0</ele><time>2026-05-02T16:12:33.039Z</time></trkpt><trkpt lat="43.7868483" lon="11.5851133"><ele>906.1428571428571</ele><time>2026-05-02T16:12:34.04Z</time></trkpt><trkpt lat="43.7868867" lon="11.5851833"><ele>907.2857142857142</ele><time>2026-05-02T16:12:35.038Z</time></trkpt><trkpt lat="43.786935" lon="11.5852517"><ele>908.4285714285713</ele><time>2026-05-02T16:12:36.04Z</time></trkpt><trkpt lat="43.78699" lon="11.5853267"><ele>909.5714285714284</ele><time>2026-05-02T16:12:37.039Z</time></trkpt><trkpt lat="43.7870483" lon="11.5853867"><ele>910.7142857142857</ele><time>2026-05-02T16:12:38.039Z</time></trkpt><trkpt lat="43.7871067" lon="11.5854433"><ele>911.8571428571427</ele><time>2026-05-02T16:12:39.038Z</time></trkpt><trkpt lat="43.787175" lon="11.58551"><ele>912.9999999999999</ele><time>2026-05-02T16:12:40.041Z</time></trkpt><trkpt lat="43.7872483" lon="11.5855683"><ele>909.4999999999999</ele><time>2026-05-02T16:12:41.038Z</time></trkpt><trkpt lat="43.78732" lon="11.585615"><ele>906.0</ele><time>2026-05-02T16:12:42.036Z</time></trkpt><trkpt lat="43.787395" lon="11.585655"><ele>902.5</ele><time>2026-05-02T16:12:43.04Z</time></trkpt><trkpt lat="43.7874683" lon="11.5856933"><ele>899.0</ele><time>2026-05-02T16:12:44.039Z</time></trkpt><trkpt lat="43.78754" lon="11.5857217"><ele>895.4999999999999</ele><time>2026-05-02T16:12:45.039Z</time></trkpt><trkpt lat="43.7876083" lon="11.5857517"><ele>892.0</ele><time>2026-05-02T16:12:46.038Z</time></trkpt><trkpt lat="43.7876733" lon="11.585795"><ele>893.9999999999999</ele><time>2026-05-02T16:12:47.039Z</time></trkpt><trkpt lat="43.7877417" lon="11.5858517"><ele>896.0</ele><time>2026-05-02T16:12:48.036Z</time></trkpt><trkpt lat="43.78781" lon="11.585915"><ele>898.0</ele><time>2026-05-02T16:12:49.04Z</time></trkpt><trkpt lat="43.78788" lon="11.5859817"><ele>900.0</ele><time>2026-05-02T16:12:50.04Z</time></trkpt><trkpt lat="43.7879383" lon="11.586035"><ele>901.9999999999999</ele><time>2026-05-02T16:12:51.029Z</time></trkpt><trkpt lat="43.7880217" lon="11.5860817"><ele>904.0</ele><time>2026-05-02T16:12:52.04Z</time></trkpt><trkpt lat="43.7881117" lon="11.5861433"><ele>900.6666666666666</ele><time>2026-05-02T16:12:53.041Z</time></trkpt><trkpt lat="43.7881967" lon="11.5862033"><ele>897.3333333333333</ele><time>2026-05-02T16:12:54.041Z</time></trkpt><trkpt lat="43.78828" lon="11.5862667"><ele>894.0</ele><time>2026-05-02T16:12:55.041Z</time></trkpt><trkpt lat="43.7883617" lon="11.586315"><ele>890.6666666666667</ele><time>2026-05-02T16:12:56.041Z</time></trkpt><trkpt lat="43.7884367" lon="11.5863633"><ele>887.3333333333334</ele><time>2026-05-02T16:12:57.041Z</time></trkpt><trkpt lat="43.7885183" lon="11.5863783"><ele>884.0</ele><time>2026-05-02T16:12:58.041Z</time></trkpt><trkpt lat="43.7886" lon="11.5863817"><ele>881.6666666666667</ele><time>2026-05-02T16:12:59.039Z</time></trkpt><trkpt lat="43.7886767" lon="11.58635"><ele>879.3333333333334</ele><time>2026-05-02T16:13:00.039Z</time></trkpt><trkpt lat="43.7887533" lon="11.5863283"><ele>877.0</ele><time>2026-05-02T16:13:01.039Z</time></trkpt><trkpt lat="43.7888317" lon="11.5862833"><ele>874.6666666666667</ele><time>2026-05-02T16:13:02.041Z</time></trkpt><trkpt lat="43.78891" lon="11.586255"><ele>872.3333333333334</ele><time>2026-05-02T16:13:03.039Z</time></trkpt><trkpt lat="43.7889933" lon="11.586235"><ele>870.0</ele><time>2026-05-02T16:13:04.04Z</time></trkpt><trkpt lat="43.7890633" lon="11.5862283"><ele>870.0</ele><time>2026-05-02T16:13:05.039Z</time></trkpt><trkpt lat="43.7891483" lon="11.5862167"><ele>870.0</ele><time>2026-05-02T16:13:06.039Z</time></trkpt><trkpt lat="43.789225" lon="11.5862"><ele>870.0</ele><time>2026-05-02T16:13:07.04Z</time></trkpt><trkpt lat="43.7892867" lon="11.5861817"><ele>870.0</ele><time>2026-05-02T16:13:08.039Z</time></trkpt><trkpt lat="43.78935" lon="11.5861583"><ele>870.0</ele><time>2026-05-02T16:13:09.039Z</time></trkpt><trkpt lat="43.7894133" lon="11.586115"><ele>870.0</ele><time>2026-05-02T16:13:10.038Z</time></trkpt><trkpt lat="43.7894867" lon="11.5860467"><ele>874.1666666666666</ele><time>2026-05-02T16:13:11.039Z</time></trkpt><trkpt lat="43.7895583" lon="11.58599"><ele>878.3333333333333</ele><time>2026-05-02T16:13:12.038Z</time></trkpt><trkpt lat="43.7896517" lon="11.5859283"><ele>882.5</ele><time>2026-05-02T16:13:13.039Z</time></trkpt><trkpt lat="43.7897233" lon="11.5859033"><ele>886.6666666666666</ele><time>2026-05-02T16:13:14.048Z</time></trkpt><trkpt lat="43.78981" lon="11.5858833"><ele>890.8333333333333</ele><time>2026-05-02T16:13:15.038Z</time></trkpt><trkpt lat="43.7898867" lon="11.585885"><ele>895.0</ele><time>2026-05-02T16:13:16.04Z</time></trkpt><trkpt lat="43.7899767" lon="11.585875"><ele>894.9999999999999</ele><time>2026-05-02T16:13:17.039Z</time></trkpt><trkpt lat="43.7900617" lon="11.5858617"><ele>895.0</ele><time>2026-05-02T16:13:18.04Z</time></trkpt><trkpt lat="43.7901333" lon="11.5858683"><ele>895.0</ele><time>2026-05-02T16:13:19.039Z</time></trkpt><trkpt lat="43.7902067" lon="11.5859433"><ele>895.0</ele><time>2026-05-02T16:13:20.041Z</time></trkpt><trkpt lat="43.790265" lon="11.586055"><ele>894.9999999999999</ele><time>2026-05-02T16:13:21.037Z</time></trkpt><trkpt lat="43.79032" lon="11.5861633"><ele>895.0</ele><time>2026-05-02T16:13:22.039Z</time></trkpt><trkpt lat="43.7903833" lon="11.586235"><ele>890.6</ele><time>2026-05-02T16:13:23.039Z</time></trkpt><trkpt lat="43.7904667" lon="11.5862917"><ele>886.2</ele><time>2026-05-02T16:13:24.038Z</time></trkpt><trkpt lat="43.79056" lon="11.58633"><ele>881.8</ele><time>2026-05-02T16:13:25.039Z</time></trkpt><trkpt lat="43.7906617" lon="11.5863633"><ele>877.4</ele><time>2026-05-02T16:13:26.04Z</time></trkpt><trkpt lat="43.7907733" lon="11.586395"><ele>873.0</ele><time>2026-05-02T16:13:27.039Z</time></trkpt><trkpt lat="43.7908683" lon="11.5864217"><ele>872.9999999999999</ele><time>2026-05-02T16:13:28.038Z</time></trkpt><trkpt lat="43.790955" lon="11.5864467"><ele>873.0</ele><time>2026-05-02T16:13:29.038Z</time></trkpt><trkpt lat="43.7910367" lon="11.5864467"><ele>873.0</ele><time>2026-05-02T16:13:30.038Z</time></trkpt><trkpt lat="43.7911033" lon="11.5864467"><ele>873.0</ele><time>2026-05-02T16:13:31.038Z</time></trkpt><trkpt lat="43.7911667" lon="11.5864017"><ele>873.0</ele><time>2026-05-02T16:13:32.04Z</time></trkpt><trkpt lat="43.7912233" lon="11.5863467"><ele>872.9999999999999</ele><time>2026-05-02T16:13:33.038Z</time></trkpt><trkpt lat="43.79127" lon="11.586275"><ele>873.0</ele><time>2026-05-02T16:13:34.039Z</time></trkpt><trkpt lat="43.79132" lon="11.5861633"><ele>877.3333333333334</ele><time>2026-05-02T16:13:36.037Z</time></trkpt><trkpt lat="43.7913867" lon="11.586055"><ele>881.6666666666667</ele><time>2026-05-02T16:15:03.039Z</time></trkpt><trkpt lat="43.7914667" lon="11.5860783"><ele>886.0</ele><time>2026-05-02T16:15:05.039Z</time></trkpt><trkpt lat="43.7915817" lon="11.586075"><ele>890.3333333333334</ele><time>2026-05-02T16:15:07.038Z</time></trkpt><trkpt lat="43.7916533" lon="11.586065"><ele>894.6666666666667</ele><time>2026-05-02T16:15:08.04Z</time></trkpt><trkpt lat="43.7917167" lon="11.5860367"><ele>899.0</ele><time>2026-05-02T16:15:09.039Z</time></trkpt><trkpt lat="43.7917833" lon="11.58601"><ele>899.0000000000001</ele><time>2026-05-02T16:15:10.039Z</time></trkpt><trkpt lat="43.7917783" lon="11.5859183"><ele>899.0</ele><time>2026-05-02T16:15:12.038Z</time></trkpt><trkpt lat="43.791745" lon="11.5858283"><ele>899.0</ele><time>2026-05-02T16:15:16.039Z</time></trkpt><trkpt lat="43.791685" lon="11.5857317"><ele>899.0</ele><time>2026-05-02T16:15:19.03Z</time></trkpt><trkpt lat="43.791685" lon="11.5856333"><ele>899.0000000000001</ele><time>2026-05-02T16:15:22.04Z</time></trkpt><trkpt lat="43.7916667" lon="11.5854833"><ele>899.0</ele><time>2026-05-02T16:15:25.04Z</time></trkpt><trkpt lat="43.791635" lon="11.58538"><ele>902.1666666666667</ele><time>2026-05-02T16:15:27.038Z</time></trkpt><trkpt lat="43.7916167" lon="11.5852783"><ele>905.3333333333334</ele><time>2026-05-02T16:15:30.036Z</time></trkpt><trkpt lat="43.7916167" lon="11.585185"><ele>908.5</ele><time>2026-05-02T16:15:32.038Z</time></trkpt><trkpt lat="43.7916167" lon="11.58507"><ele>911.6666666666667</ele><time>2026-05-02T16:15:34.037Z</time></trkpt><trkpt lat="43.791675" lon="11.5849883"><ele>914.8333333333334</ele><time>2026-05-02T16:15:37.038Z</time></trkpt><trkpt lat="43.7917731" lon="11.5849931"><ele>918.0</ele><time>2026-05-02T16:15:40.055Z</time></trkpt><trkpt lat="43.7918474" lon="11.5849629"><ele>919.75</ele><time>2026-05-02T16:15:42.057Z</time></trkpt><trkpt lat="43.7919589" lon="11.5849272"><ele>921.5</ele><time>2026-05-02T16:15:44.059Z</time></trkpt><trkpt lat="43.7920624" lon="11.5848587"><ele>923.25</ele><time>2026-05-02T16:15:46.061Z</time></trkpt><trkpt lat="43.7921524" lon="11.5847915"><ele>925.0</ele><time>2026-05-02T16:15:48.087Z</time></trkpt><trkpt lat="43.7922633" lon="11.5847033"><ele>925.0</ele><time>2026-05-02T16:15:50.03Z</time></trkpt><trkpt lat="43.79223" lon="11.5846117"><ele>925.0</ele><time>2026-05-02T16:15:53.04Z</time></trkpt><trkpt lat="43.792115" lon="11.5845583"><ele>925.0</ele><time>2026-05-02T16:15:55.039Z</time></trkpt><trkpt lat="43.7920583" lon="11.5845033"><ele>925.0</ele><time>2026-05-02T16:15:56.041Z</time></trkpt><trkpt lat="43.7919667" lon="11.5843667"><ele>925.0</ele><time>2026-05-02T16:15:58.039Z</time></trkpt><trkpt lat="43.79191" lon="11.5842817"><ele>927.4999999999999</ele><time>2026-05-02T16:15:59.04Z</time></trkpt><trkpt lat="43.7918483" lon="11.584205"><ele>930.0</ele><time>2026-05-02T16:16:00.039Z</time></trkpt><trkpt lat="43.7917783" lon="11.5841317"><ele>932.5</ele><time>2026-05-02T16:16:01.038Z</time></trkpt><trkpt lat="43.7917017" lon="11.5840533"><ele>935.0</ele><time>2026-05-02T16:16:02.04Z</time></trkpt><trkpt lat="43.7916433" lon="11.5839567"><ele>937.4999999999999</ele><time>2026-05-02T16:16:03.039Z</time></trkpt><trkpt lat="43.7915917" lon="11.5838517"><ele>940.0</ele><time>2026-05-02T16:16:04.04Z</time></trkpt><trkpt lat="43.7915433" lon="11.583765"><ele>940.0</ele><time>2026-05-02T16:16:05.039Z</time></trkpt><trkpt lat="43.7915033" lon="11.583695"><ele>940.0</ele><time>2026-05-02T16:16:06.037Z</time></trkpt><trkpt lat="43.791415" lon="11.5835833"><ele>940.0</ele><time>2026-05-02T16:16:08.04Z</time></trkpt><trkpt lat="43.7913533" lon="11.5835117"><ele>940.0</ele><time>2026-05-02T16:16:10.03Z</time></trkpt><trkpt lat="43.79124" lon="11.5834567"><ele>940.0</ele><time>2026-05-02T16:16:23.041Z</time></trkpt><trkpt lat="43.7911483" lon="11.5834567"><ele>942.9999999999999</ele><time>2026-05-02T16:16:25.04Z</time></trkpt><trkpt lat="43.7910817" lon="11.583465"><ele>946.0</ele><time>2026-05-02T16:16:26.041Z</time></trkpt><trkpt lat="43.7910183" lon="11.583465"><ele>949.0</ele><time>2026-05-02T16:16:27.039Z</time></trkpt><trkpt lat="43.7909433" lon="11.5834417"><ele>952.0</ele><time>2026-05-02T16:16:28.04Z</time></trkpt><trkpt lat="43.790865" lon="11.5834383"><ele>954.9999999999999</ele><time>2026-05-02T16:16:29.039Z</time></trkpt><trkpt lat="43.7907683" lon="11.583415"><ele>958.0</ele><time>2026-05-02T16:16:30.038Z</time></trkpt><trkpt lat="43.790685" lon="11.58343"><ele>957.9999999999999</ele><time>2026-05-02T16:16:31.039Z</time></trkpt><trkpt lat="43.7906" lon="11.58346"><ele>958.0</ele><time>2026-05-02T16:16:32.04Z</time></trkpt><trkpt lat="43.7905217" lon="11.583505"><ele>958.0</ele><time>2026-05-02T16:16:33.039Z</time></trkpt><trkpt lat="43.790475" lon="11.5835817"><ele>958.0</ele><time>2026-05-02T16:16:34.04Z</time></trkpt><trkpt lat="43.7903917" lon="11.5836733"><ele>957.9999999999999</ele><time>2026-05-02T16:16:36.029Z</time></trkpt><trkpt lat="43.7903133" lon="11.5837067"><ele>958.0</ele><time>2026-05-02T16:16:38.04Z</time></trkpt><trkpt lat="43.7902417" lon="11.583655"><ele>958.9999999999999</ele><time>2026-05-02T16:16:40.039Z</time></trkpt><trkpt lat="43.79017" lon="11.5835417"><ele>960.0</ele><time>2026-05-02T16:16:42.039Z</time></trkpt><trkpt lat="43.790115" lon="11.5834867"><ele>961.0</ele><time>2026-05-02T16:16:43.04Z</time></trkpt><trkpt lat="43.7900533" lon="11.58343"><ele>962.0</ele><time>2026-05-02T16:16:44.039Z</time></trkpt><trkpt lat="43.7899917" lon="11.5833667"><ele>962.9999999999999</ele><time>2026-05-02T16:16:45.039Z</time></trkpt><trkpt lat="43.7899267" lon="11.5833017"><ele>964.0</ele><time>2026-05-02T16:16:46.038Z</time></trkpt><trkpt lat="43.789875" lon="11.5832333"><ele>964.0</ele><time>2026-05-02T16:16:47.039Z</time></trkpt><trkpt lat="43.7897967" lon="11.5831417"><ele>964.0000000000001</ele><time>2026-05-02T16:16:49.039Z</time></trkpt><trkpt lat="43.7896933" lon="11.583015"><ele>964.0000000000001</ele><time>2026-05-02T16:16:51.04Z</time></trkpt><trkpt lat="43.7896267" lon="11.58294"><ele>964.0</ele><time>2026-05-02T16:16:52.04Z</time></trkpt><trkpt lat="43.7895583" lon="11.58285"><ele>964.0</ele><time>2026-05-02T16:16:53.041Z</time></trkpt><trkpt lat="43.7894867" lon="11.5827667"><ele>965.4999999999999</ele><time>2026-05-02T16:16:54.04Z</time></trkpt><trkpt lat="43.7894067" lon="11.58268"><ele>967.0</ele><time>2026-05-02T16:16:55.042Z</time></trkpt><trkpt lat="43.7893317" lon="11.582615"><ele>968.5</ele><time>2026-05-02T16:16:56.042Z</time></trkpt><trkpt lat="43.7892817" lon="11.582535"><ele>970.0</ele><time>2026-05-02T16:16:57.04Z</time></trkpt><trkpt lat="43.7892383" lon="11.5824617"><ele>971.4999999999999</ele><time>2026-05-02T16:16:58.04Z</time></trkpt><trkpt lat="43.7892167" lon="11.5823583"><ele>973.0</ele><time>2026-05-02T16:17:00.04Z</time></trkpt><trkpt lat="43.78928" lon="11.5822917"><ele>974.8</ele><time>2026-05-02T16:17:04.038Z</time></trkpt><trkpt lat="43.7893817" lon="11.5823433"><ele>976.5999999999999</ele><time>2026-05-02T16:19:10.03Z</time></trkpt><trkpt lat="43.7894967" lon="11.5823683"><ele>978.4000000000001</ele><time>2026-05-02T16:19:12.04Z</time></trkpt><trkpt lat="43.7895717" lon="11.5823767"><ele>980.2</ele><time>2026-05-02T16:19:13.04Z</time></trkpt><trkpt lat="43.7896533" lon="11.5823867"><ele>982.0</ele><time>2026-05-02T16:19:14.041Z</time></trkpt><trkpt lat="43.7897433" lon="11.5823983"><ele>981.9999999999999</ele><time>2026-05-02T16:19:15.04Z</time></trkpt><trkpt lat="43.78983" lon="11.5823917"><ele>982.0</ele><time>2026-05-02T16:19:16.04Z</time></trkpt><trkpt lat="43.789925" lon="11.582355"><ele>982.0</ele><time>2026-05-02T16:19:17.04Z</time></trkpt><trkpt lat="43.79001" lon="11.58232"><ele>982.0</ele><time>2026-05-02T16:19:18.043Z</time></trkpt><trkpt lat="43.7900917" lon="11.58228"><ele>981.9999999999999</ele><time>2026-05-02T16:19:19.04Z</time></trkpt><trkpt lat="43.7901717" lon="11.58226"><ele>982.0</ele><time>2026-05-02T16:19:20.04Z</time></trkpt><trkpt lat="43.7902483" lon="11.5822383"><ele>981.9999999999999</ele><time>2026-05-02T16:19:21.04Z</time></trkpt><trkpt lat="43.7903283" lon="11.58221"><ele>982.0</ele><time>2026-05-02T16:19:22.039Z</time></trkpt><trkpt lat="43.7904067" lon="11.5822033"><ele>982.0</ele><time>2026-05-02T16:19:23.04Z</time></trkpt><trkpt lat="43.7904867" lon="11.5821817"><ele>982.0</ele><time>2026-05-02T16:19:24.044Z</time></trkpt><trkpt lat="43.79057" lon="11.5821617"><ele>981.9999999999999</ele><time>2026-05-02T16:19:25.041Z</time></trkpt><trkpt lat="43.7906533" lon="11.582135"><ele>982.0</ele><time>2026-05-02T16:19:26.042Z</time></trkpt><trkpt lat="43.7907483" lon="11.5821017"><ele>982.0</ele><time>2026-05-02T16:19:27.04Z</time></trkpt><trkpt lat="43.7908633" lon="11.5820767"><ele>982.0</ele><time>2026-05-02T16:19:28.041Z</time></trkpt><trkpt lat="43.79098" lon="11.5820567"><ele>982.0</ele><time>2026-05-02T16:19:29.042Z</time></trkpt><trkpt lat="43.7911033" lon="11.5820417"><ele>982.0</ele><time>2026-05-02T16:19:30.042Z</time></trkpt><trkpt lat="43.7912283" lon="11.5820433"><ele>982.5</ele><time>2026-05-02T16:19:31.043Z</time></trkpt><trkpt lat="43.79136" lon="11.58204"><ele>983.0</ele><time>2026-05-02T16:19:32.043Z</time></trkpt><trkpt lat="43.7915033" lon="11.5820217"><ele>983.5</ele><time>2026-05-02T16:19:33.042Z</time></trkpt><trkpt lat="43.7916417" lon="11.5819967"><ele>984.0</ele><time>2026-05-02T16:19:34.042Z</time></trkpt><trkpt lat="43.7917633" lon="11.58198"><ele>986.0</ele><time>2026-05-02T16:19:35.045Z</time></trkpt><trkpt lat="43.7918633" lon="11.5819617"><ele>988.0000000000001</ele><time>2026-05-02T16:19:36.042Z</time></trkpt><trkpt lat="43.7919633" lon="11.5819517"><ele>990.0000000000001</ele><time>2026-05-02T16:19:37.039Z</time></trkpt><trkpt lat="43.7920517" lon="11.581945"><ele>992.0</ele><time>2026-05-02T16:19:38.04Z</time></trkpt><trkpt lat="43.79213" lon="11.581885"><ele>994.0</ele><time>2026-05-02T16:19:39.039Z</time></trkpt><trkpt lat="43.792215" lon="11.58184"><ele>994.0</ele><time>2026-05-02T16:19:40.04Z</time></trkpt><trkpt lat="43.792305" lon="11.58177"><ele>994.0000000000001</ele><time>2026-05-02T16:19:41.04Z</time></trkpt><trkpt lat="43.7923967" lon="11.5816983"><ele>994.0000000000001</ele><time>2026-05-02T16:19:42.039Z</time></trkpt><trkpt lat="43.7924983" lon="11.5816233"><ele>994.0</ele><time>2026-05-02T16:19:43.029Z</time></trkpt><trkpt lat="43.7926033" lon="11.5815367"><ele>994.0</ele><time>2026-05-02T16:19:44.041Z</time></trkpt><trkpt lat="43.792705" lon="11.58144"><ele>994.25</ele><time>2026-05-02T16:19:45.039Z</time></trkpt><trkpt lat="43.792815" lon="11.5813667"><ele>994.5</ele><time>2026-05-02T16:19:46.039Z</time></trkpt><trkpt lat="43.7929067" lon="11.581255"><ele>994.75</ele><time>2026-05-02T16:19:47.042Z</time></trkpt><trkpt lat="43.7930067" lon="11.5811633"><ele>995.0</ele><time>2026-05-02T16:19:48.042Z</time></trkpt><trkpt lat="43.793095" lon="11.581055"><ele>995.0</ele><time>2026-05-02T16:19:49.042Z</time></trkpt><trkpt lat="43.793185" lon="11.5809483"><ele>995.0</ele><time>2026-05-02T16:19:50.042Z</time></trkpt><trkpt lat="43.7932667" lon="11.5808433"><ele>995.0</ele><time>2026-05-02T16:19:51.04Z</time></trkpt><trkpt lat="43.7933433" lon="11.5807517"><ele>995.0</ele><time>2026-05-02T16:19:52.04Z</time></trkpt><trkpt lat="43.7934167" lon="11.58067"><ele>995.0</ele><time>2026-05-02T16:19:53.039Z</time></trkpt><trkpt lat="43.793485" lon="11.580585"><ele>993.6666666666667</ele><time>2026-05-02T16:19:54.04Z</time></trkpt><trkpt lat="43.79355" lon="11.5805083"><ele>992.3333333333334</ele><time>2026-05-02T16:19:55.04Z</time></trkpt><trkpt lat="43.7936117" lon="11.5804283"><ele>991.0</ele><time>2026-05-02T16:19:56.04Z</time></trkpt><trkpt lat="43.79367" lon="11.5803517"><ele>989.6666666666667</ele><time>2026-05-02T16:19:57.04Z</time></trkpt><trkpt lat="43.7937267" lon="11.5802767"><ele>988.3333333333334</ele><time>2026-05-02T16:19:58.04Z</time></trkpt><trkpt lat="43.7937833" lon="11.5802017"><ele>987.0</ele><time>2026-05-02T16:19:59.039Z</time></trkpt><trkpt lat="43.793845" lon="11.5801283"><ele>987.0</ele><time>2026-05-02T16:20:00.041Z</time></trkpt><trkpt lat="43.7939033" lon="11.5800533"><ele>987.0</ele><time>2026-05-02T16:20:01.039Z</time></trkpt><trkpt lat="43.7939617" lon="11.579995"><ele>987.0</ele><time>2026-05-02T16:20:02.04Z</time></trkpt><trkpt lat="43.7940167" lon="11.5799317"><ele>987.0</ele><time>2026-05-02T16:20:03.04Z</time></trkpt><trkpt lat="43.7940717" lon="11.57988"><ele>987.0</ele><time>2026-05-02T16:20:04.04Z</time></trkpt><trkpt lat="43.7941333" lon="11.579825"><ele>987.0</ele><time>2026-05-02T16:20:05.039Z</time></trkpt><trkpt lat="43.7941967" lon="11.5797633"><ele>987.0</ele><time>2026-05-02T16:20:06.042Z</time></trkpt><trkpt lat="43.7942683" lon="11.5797017"><ele>984.8333333333334</ele><time>2026-05-02T16:20:07.04Z</time></trkpt><trkpt lat="43.79434" lon="11.5796417"><ele>982.6666666666667</ele><time>2026-05-02T16:20:08.041Z</time></trkpt><trkpt lat="43.7944117" lon="11.5795933"><ele>980.5</ele><time>2026-05-02T16:20:09.04Z</time></trkpt><trkpt lat="43.7944883" lon="11.5795367"><ele>978.3333333333334</ele><time>2026-05-02T16:20:10.039Z</time></trkpt><trkpt lat="43.7945667" lon="11.57947"><ele>976.1666666666667</ele><time>2026-05-02T16:20:11.04Z</time></trkpt><trkpt lat="43.7946367" lon="11.5794017"><ele>974.0</ele><time>2026-05-02T16:20:12.04Z</time></trkpt><trkpt lat="43.7947167" lon="11.579315"><ele>974.0000000000001</ele><time>2026-05-02T16:20:13.041Z</time></trkpt><trkpt lat="43.7947967" lon="11.5792217"><ele>974.0</ele><time>2026-05-02T16:20:14.04Z</time></trkpt><trkpt lat="43.7948783" lon="11.5791283"><ele>974.0</ele><time>2026-05-02T16:20:15.04Z</time></trkpt><trkpt lat="43.794935" lon="11.57904"><ele>974.0</ele><time>2026-05-02T16:20:16.039Z</time></trkpt><trkpt lat="43.7949883" lon="11.5789533"><ele>974.0000000000001</ele><time>2026-05-02T16:20:17.041Z</time></trkpt><trkpt lat="43.7950267" lon="11.5788717"><ele>974.0</ele><time>2026-05-02T16:20:18.039Z</time></trkpt><trkpt lat="43.7950683" lon="11.5787717"><ele>973.6666666666667</ele><time>2026-05-02T16:20:19.031Z</time></trkpt><trkpt lat="43.7951117" lon="11.57866"><ele>973.3333333333334</ele><time>2026-05-02T16:20:20.032Z</time></trkpt><trkpt lat="43.7951633" lon="11.57855"><ele>973.0</ele><time>2026-05-02T16:20:21.038Z</time></trkpt><trkpt lat="43.7952167" lon="11.5784567"><ele>972.6666666666667</ele><time>2026-05-02T16:20:22.039Z</time></trkpt><trkpt lat="43.7952767" lon="11.5783883"><ele>972.3333333333334</ele><time>2026-05-02T16:20:23.039Z</time></trkpt><trkpt lat="43.7953483" lon="11.5783417"><ele>972.0</ele><time>2026-05-02T16:20:24.038Z</time></trkpt><trkpt lat="43.7954167" lon="11.57831"><ele>969.1666666666666</ele><time>2026-05-02T16:20:25.04Z</time></trkpt><trkpt lat="43.7954783" lon="11.5782817"><ele>966.3333333333333</ele><time>2026-05-02T16:20:26.042Z</time></trkpt><trkpt lat="43.7955517" lon="11.578255"><ele>963.5</ele><time>2026-05-02T16:20:27.037Z</time></trkpt><trkpt lat="43.7956383" lon="11.5782333"><ele>960.6666666666666</ele><time>2026-05-02T16:20:28.038Z</time></trkpt><trkpt lat="43.7957433" lon="11.5782267"><ele>957.8333333333333</ele><time>2026-05-02T16:20:29.043Z</time></trkpt><trkpt lat="43.7958383" lon="11.578185"><ele>955.0</ele><time>2026-05-02T16:20:30.041Z</time></trkpt><trkpt lat="43.7959333" lon="11.578145"><ele>951.0</ele><time>2026-05-02T16:20:31.029Z</time></trkpt><trkpt lat="43.79605" lon="11.5781233"><ele>947.0</ele><time>2026-05-02T16:20:32.042Z</time></trkpt><trkpt lat="43.79615" lon="11.5781067"><ele>943.0</ele><time>2026-05-02T16:20:33.04Z</time></trkpt><trkpt lat="43.7962333" lon="11.5780783"><ele>939.0</ele><time>2026-05-02T16:20:34.039Z</time></trkpt><trkpt lat="43.7963567" lon="11.5781167"><ele>935.0</ele><time>2026-05-02T16:20:35.039Z</time></trkpt><trkpt lat="43.7964467" lon="11.5781283"><ele>935.0</ele><time>2026-05-02T16:20:36.041Z</time></trkpt><trkpt lat="43.7965333" lon="11.5781617"><ele>935.0</ele><time>2026-05-02T16:20:37.039Z</time></trkpt><trkpt lat="43.7966183" lon="11.5781967"><ele>935.0</ele><time>2026-05-02T16:20:38.04Z</time></trkpt><trkpt lat="43.7966867" lon="11.578225"><ele>935.0</ele><time>2026-05-02T16:20:39.038Z</time></trkpt><trkpt lat="43.7967567" lon="11.5782233"><ele>935.0</ele><time>2026-05-02T16:20:40.038Z</time></trkpt><trkpt lat="43.7968867" lon="11.5781683"><ele>930.0000000000001</ele><time>2026-05-02T16:20:42.04Z</time></trkpt><trkpt lat="43.7969367" lon="11.578115"><ele>925.0</ele><time>2026-05-02T16:20:43.039Z</time></trkpt><trkpt lat="43.7970083" lon="11.5779767"><ele>920.0</ele><time>2026-05-02T16:20:45.041Z</time></trkpt><trkpt lat="43.79703" lon="11.5778917"><ele>915.0</ele><time>2026-05-02T16:20:46.04Z</time></trkpt><trkpt lat="43.7970467" lon="11.5778"><ele>910.0000000000001</ele><time>2026-05-02T16:20:47.04Z</time></trkpt><trkpt lat="43.79707" lon="11.5776283"><ele>905.0</ele><time>2026-05-02T16:20:49.038Z</time></trkpt><trkpt lat="43.79707" lon="11.5775317"><ele>905.0000000000001</ele><time>2026-05-02T16:20:50.04Z</time></trkpt><trkpt lat="43.797075" lon="11.5774217"><ele>905.0</ele><time>2026-05-02T16:20:51.028Z</time></trkpt><trkpt lat="43.7970933" lon="11.5773133"><ele>905.0</ele><time>2026-05-02T16:20:52.037Z</time></trkpt><trkpt lat="43.7971267" lon="11.5772017"><ele>905.0</ele><time>2026-05-02T16:20:53.039Z</time></trkpt><trkpt lat="43.79717" lon="11.5770983"><ele>905.0000000000001</ele><time>2026-05-02T16:20:54.038Z</time></trkpt><trkpt lat="43.7972367" lon="11.5769967"><ele>905.0</ele><time>2026-05-02T16:20:55.038Z</time></trkpt><trkpt lat="43.797295" lon="11.5769017"><ele>905.2857142857142</ele><time>2026-05-02T16:20:56.039Z</time></trkpt><trkpt lat="43.7973467" lon="11.5768267"><ele>905.5714285714284</ele><time>2026-05-02T16:20:57.039Z</time></trkpt><trkpt lat="43.79738" lon="11.5767417"><ele>905.8571428571429</ele><time>2026-05-02T16:20:58.039Z</time></trkpt><trkpt lat="43.7974133" lon="11.5766617"><ele>906.1428571428571</ele><time>2026-05-02T16:20:59.038Z</time></trkpt><trkpt lat="43.79746" lon="11.5765883"><ele>906.4285714285714</ele><time>2026-05-02T16:21:00.04Z</time></trkpt><trkpt lat="43.7975217" lon="11.57653"><ele>906.7142857142858</ele><time>2026-05-02T16:21:01.039Z</time></trkpt><trkpt lat="43.7975867" lon="11.5764683"><ele>907.0000000000001</ele><time>2026-05-02T16:21:02.04Z</time></trkpt><trkpt lat="43.7976383" lon="11.57641"><ele>904.6666666666666</ele><time>2026-05-02T16:21:03.039Z</time></trkpt><trkpt lat="43.79768" lon="11.5763333"><ele>902.3333333333333</ele><time>2026-05-02T16:21:04.039Z</time></trkpt><trkpt lat="43.797715" lon="11.57624"><ele>900.0</ele><time>2026-05-02T16:21:05.037Z</time></trkpt><trkpt lat="43.797755" lon="11.576135"><ele>897.6666666666667</ele><time>2026-05-02T16:21:06.038Z</time></trkpt><trkpt lat="43.79782" lon="11.57602"><ele>895.3333333333334</ele><time>2026-05-02T16:21:07.039Z</time></trkpt><trkpt lat="43.797875" lon="11.5759167"><ele>893.0</ele><time>2026-05-02T16:21:08.04Z</time></trkpt><trkpt lat="43.7979283" lon="11.5758233"><ele>893.0000000000001</ele><time>2026-05-02T16:21:09.039Z</time></trkpt><trkpt lat="43.7979783" lon="11.5757417"><ele>893.0</ele><time>2026-05-02T16:21:10.039Z</time></trkpt><trkpt lat="43.7980467" lon="11.575705"><ele>893.0</ele><time>2026-05-02T16:21:11.039Z</time></trkpt><trkpt lat="43.7981267" lon="11.57571"><ele>893.0</ele><time>2026-05-02T16:21:12.04Z</time></trkpt><trkpt lat="43.7982183" lon="11.5757567"><ele>893.0000000000001</ele><time>2026-05-02T16:21:13.038Z</time></trkpt><trkpt lat="43.7983017" lon="11.57582"><ele>893.0</ele><time>2026-05-02T16:21:14.04Z</time></trkpt><trkpt lat="43.7983883" lon="11.57587"><ele>893.0</ele><time>2026-05-02T16:21:15.038Z</time></trkpt><trkpt lat="43.798485" lon="11.575905"><ele>893.0</ele><time>2026-05-02T16:21:16.039Z</time></trkpt><trkpt lat="43.79858" lon="11.5759333"><ele>893.0</ele><time>2026-05-02T16:21:17.038Z</time></trkpt><trkpt lat="43.798675" lon="11.575955"><ele>893.0</ele><time>2026-05-02T16:21:18.037Z</time></trkpt><trkpt lat="43.7987767" lon="11.57596"><ele>893.0</ele><time>2026-05-02T16:21:19.039Z</time></trkpt><trkpt lat="43.7988867" lon="11.575965"><ele>892.0</ele><time>2026-05-02T16:21:20.042Z</time></trkpt><trkpt lat="43.7989867" lon="11.5759733"><ele>891.0</ele><time>2026-05-02T16:21:21.04Z</time></trkpt><trkpt lat="43.7990867" lon="11.5759933"><ele>890.0</ele><time>2026-05-02T16:21:22.039Z</time></trkpt><trkpt lat="43.799195" lon="11.576035"><ele>889.0</ele><time>2026-05-02T16:21:23.039Z</time></trkpt><trkpt lat="43.7993067" lon="11.5760883"><ele>888.0</ele><time>2026-05-02T16:21:24.039Z</time></trkpt><trkpt lat="43.7994167" lon="11.5761417"><ele>888.4</ele><time>2026-05-02T16:21:25.04Z</time></trkpt><trkpt lat="43.79952" lon="11.5761983"><ele>888.8</ele><time>2026-05-02T16:21:26.039Z</time></trkpt><trkpt lat="43.7996183" lon="11.576265"><ele>889.2</ele><time>2026-05-02T16:21:27.038Z</time></trkpt><trkpt lat="43.7997083" lon="11.576335"><ele>889.6</ele><time>2026-05-02T16:21:28.039Z</time></trkpt><trkpt lat="43.7998083" lon="11.576405"><ele>890.0</ele><time>2026-05-02T16:21:29.041Z</time></trkpt><trkpt lat="43.799905" lon="11.57647"><ele>890.0</ele><time>2026-05-02T16:21:30.04Z</time></trkpt><trkpt lat="43.7999983" lon="11.5765217"><ele>890.0</ele><time>2026-05-02T16:21:31.04Z</time></trkpt><trkpt lat="43.800095" lon="11.57657"><ele>890.0</ele><time>2026-05-02T16:21:32.039Z</time></trkpt><trkpt lat="43.8002033" lon="11.57663"><ele>890.0</ele><time>2026-05-02T16:21:33.04Z</time></trkpt><trkpt lat="43.8003117" lon="11.5766833"><ele>890.0</ele><time>2026-05-02T16:21:34.038Z</time></trkpt><trkpt lat="43.8004133" lon="11.5767317"><ele>888.4</ele><time>2026-05-02T16:21:35.04Z</time></trkpt><trkpt lat="43.8005117" lon="11.57677"><ele>886.8</ele><time>2026-05-02T16:21:36.04Z</time></trkpt><trkpt lat="43.800605" lon="11.5767983"><ele>885.2</ele><time>2026-05-02T16:21:37.039Z</time></trkpt><trkpt lat="43.8006967" lon="11.5767967"><ele>883.6</ele><time>2026-05-02T16:21:38.039Z</time></trkpt><trkpt lat="43.80078" lon="11.5767883"><ele>882.0</ele><time>2026-05-02T16:21:39.038Z</time></trkpt><trkpt lat="43.8008683" lon="11.5767533"><ele>882.0</ele><time>2026-05-02T16:21:40.031Z</time></trkpt><trkpt lat="43.8009433" lon="11.5767317"><ele>882.0</ele><time>2026-05-02T16:21:41.039Z</time></trkpt><trkpt lat="43.8010133" lon="11.5767267"><ele>882.0</ele><time>2026-05-02T16:21:42.031Z</time></trkpt><trkpt lat="43.8010867" lon="11.5767483"><ele>882.0</ele><time>2026-05-02T16:21:43.039Z</time></trkpt><trkpt lat="43.8011717" lon="11.57679"><ele>882.0</ele><time>2026-05-02T16:21:44.039Z</time></trkpt><trkpt lat="43.80126" lon="11.5768233"><ele>882.0</ele><time>2026-05-02T16:21:45.038Z</time></trkpt><trkpt lat="43.8013383" lon="11.5768517"><ele>880.8333333333334</ele><time>2026-05-02T16:21:46.039Z</time></trkpt><trkpt lat="43.8014083" lon="11.5768667"><ele>879.6666666666667</ele><time>2026-05-02T16:21:47.039Z</time></trkpt><trkpt lat="43.801475" lon="11.576875"><ele>878.5</ele><time>2026-05-02T16:21:48.039Z</time></trkpt><trkpt lat="43.801545" lon="11.576875"><ele>877.3333333333334</ele><time>2026-05-02T16:21:49.039Z</time></trkpt><trkpt lat="43.8016117" lon="11.5768633"><ele>876.1666666666667</ele><time>2026-05-02T16:21:50.039Z</time></trkpt><trkpt lat="43.8016967" lon="11.5768433"><ele>875.0</ele><time>2026-05-02T16:21:51.038Z</time></trkpt><trkpt lat="43.8017917" lon="11.5768167"><ele>871.2</ele><time>2026-05-02T16:21:52.039Z</time></trkpt><trkpt lat="43.8018883" lon="11.5768"><ele>867.4</ele><time>2026-05-02T16:21:53.039Z</time></trkpt><trkpt lat="43.80198" lon="11.5767867"><ele>863.5999999999999</ele><time>2026-05-02T16:21:54.04Z</time></trkpt><trkpt lat="43.8020767" lon="11.5767883"><ele>859.8</ele><time>2026-05-02T16:21:55.039Z</time></trkpt><trkpt lat="43.80217" lon="11.5768083"><ele>856.0</ele><time>2026-05-02T16:21:56.039Z</time></trkpt><trkpt lat="43.802255" lon="11.576845"><ele>855.9999999999999</ele><time>2026-05-02T16:21:57.037Z</time></trkpt><trkpt lat="43.802335" lon="11.5768917"><ele>856.0</ele><time>2026-05-02T16:21:58.039Z</time></trkpt><trkpt lat="43.802405" lon="11.5769467"><ele>856.0</ele><time>2026-05-02T16:21:59.039Z</time></trkpt><trkpt lat="43.8024717" lon="11.57701"><ele>856.0</ele><time>2026-05-02T16:22:00.038Z</time></trkpt><trkpt lat="43.802535" lon="11.57706"><ele>855.9999999999999</ele><time>2026-05-02T16:22:01.039Z</time></trkpt><trkpt lat="43.8026017" lon="11.57709"><ele>856.0</ele><time>2026-05-02T16:22:02.041Z</time></trkpt><trkpt lat="43.8026683" lon="11.5770983"><ele>854.6666666666666</ele><time>2026-05-02T16:22:03.039Z</time></trkpt><trkpt lat="43.802735" lon="11.5770817"><ele>853.3333333333333</ele><time>2026-05-02T16:22:04.041Z</time></trkpt><trkpt lat="43.8028067" lon="11.5770317"><ele>852.0</ele><time>2026-05-02T16:22:05.04Z</time></trkpt><trkpt lat="43.8028717" lon="11.5769733"><ele>850.6666666666667</ele><time>2026-05-02T16:22:06.035Z</time></trkpt><trkpt lat="43.8029267" lon="11.5768983"><ele>849.3333333333334</ele><time>2026-05-02T16:22:07.04Z</time></trkpt><trkpt lat="43.8029783" lon="11.5768083"><ele>848.0</ele><time>2026-05-02T16:22:08.04Z</time></trkpt><trkpt lat="43.8030367" lon="11.5767133"><ele>848.0</ele><time>2026-05-02T16:22:09.039Z</time></trkpt><trkpt lat="43.8031" lon="11.5766133"><ele>848.0</ele><time>2026-05-02T16:22:10.038Z</time></trkpt><trkpt lat="43.8031717" lon="11.5765233"><ele>848.0</ele><time>2026-05-02T16:22:11.038Z</time></trkpt><trkpt lat="43.8032467" lon="11.5764567"><ele>848.0</ele><time>2026-05-02T16:22:12.037Z</time></trkpt><trkpt lat="43.8033217" lon="11.5764067"><ele>848.0</ele><time>2026-05-02T16:22:13.038Z</time></trkpt><trkpt lat="43.8033983" lon="11.5763533"><ele>848.0</ele><time>2026-05-02T16:22:14.039Z</time></trkpt><trkpt lat="43.8034667" lon="11.57629"><ele>848.0</ele><time>2026-05-02T16:22:15.038Z</time></trkpt><trkpt lat="43.80353" lon="11.57624"><ele>848.0</ele><time>2026-05-02T16:22:16.038Z</time></trkpt><trkpt lat="43.8035933" lon="11.5762083"><ele>848.0</ele><time>2026-05-02T16:22:17.039Z</time></trkpt><trkpt lat="43.8037117" lon="11.5762317"><ele>848.0</ele><time>2026-05-02T16:22:19.04Z</time></trkpt><trkpt lat="43.8037967" lon="11.5763383"><ele>845.1666666666667</ele><time>2026-05-02T16:22:21.038Z</time></trkpt><trkpt lat="43.8038233" lon="11.5764383"><ele>842.3333333333334</ele><time>2026-05-02T16:22:22.039Z</time></trkpt><trkpt lat="43.8038567" lon="11.5765417"><ele>839.5</ele><time>2026-05-02T16:22:23.038Z</time></trkpt><trkpt lat="43.8039017" lon="11.5766633"><ele>836.6666666666667</ele><time>2026-05-02T16:22:24.038Z</time></trkpt><trkpt lat="43.803945" lon="11.5767617"><ele>833.8333333333334</ele><time>2026-05-02T16:22:25.039Z</time></trkpt><trkpt lat="43.803995" lon="11.576845"><ele>831.0</ele><time>2026-05-02T16:22:26.039Z</time></trkpt><trkpt lat="43.8040667" lon="11.5769633"><ele>831.0</ele><time>2026-05-02T16:22:28.037Z</time></trkpt><trkpt lat="43.8041333" lon="11.5769783"><ele>831.0</ele><time>2026-05-02T16:22:41.038Z</time></trkpt><trkpt lat="43.8042083" lon="11.5769367"><ele>831.0</ele><time>2026-05-02T16:22:43.037Z</time></trkpt><trkpt lat="43.8043033" lon="11.5769167"><ele>831.0</ele><time>2026-05-02T16:22:45.037Z</time></trkpt><trkpt lat="43.804405" lon="11.576855"><ele>831.0</ele><time>2026-05-02T16:22:47.039Z</time></trkpt><trkpt lat="43.8044667" lon="11.57673"><ele>835.3333333333334</ele><time>2026-05-02T16:22:49.04Z</time></trkpt><trkpt lat="43.8044983" lon="11.576645"><ele>839.6666666666667</ele><time>2026-05-02T16:22:50.042Z</time></trkpt><trkpt lat="43.8045283" lon="11.5765667"><ele>844.0</ele><time>2026-05-02T16:22:51.039Z</time></trkpt><trkpt lat="43.804575" lon="11.57648"><ele>848.3333333333334</ele><time>2026-05-02T16:22:52.042Z</time></trkpt><trkpt lat="43.8046233" lon="11.57639"><ele>852.6666666666667</ele><time>2026-05-02T16:22:53.038Z</time></trkpt><trkpt lat="43.8046717" lon="11.5763033"><ele>857.0</ele><time>2026-05-02T16:22:54.041Z</time></trkpt><trkpt lat="43.804725" lon="11.5762167"><ele>855.0000000000001</ele><time>2026-05-02T16:22:55.038Z</time></trkpt><trkpt lat="43.80478" lon="11.5761267"><ele>853.0</ele><time>2026-05-02T16:22:56.039Z</time></trkpt><trkpt lat="43.8048233" lon="11.5760317"><ele>851.0</ele><time>2026-05-02T16:22:57.039Z</time></trkpt><trkpt lat="43.8048667" lon="11.5759433"><ele>849.0</ele><time>2026-05-02T16:22:58.039Z</time></trkpt><trkpt lat="43.80491" lon="11.575865"><ele>847.0000000000001</ele><time>2026-05-02T16:22:59.041Z</time></trkpt><trkpt lat="43.8049933" lon="11.575775"><ele>845.0</ele><time>2026-05-02T16:23:01.039Z</time></trkpt><trkpt lat="43.805045" lon="11.5756683"><ele>845.0000000000001</ele><time>2026-05-02T16:23:03.038Z</time></trkpt><trkpt lat="43.80508" lon="11.575515"><ele>845.0</ele><time>2026-05-02T16:23:05.04Z</time></trkpt><trkpt lat="43.8051067" lon="11.5754233"><ele>845.0</ele><time>2026-05-02T16:23:06.038Z</time></trkpt><trkpt lat="43.8051483" lon="11.5753267"><ele>845.0</ele><time>2026-05-02T16:23:07.03Z</time></trkpt><trkpt lat="43.80519" lon="11.5752317"><ele>845.0000000000001</ele><time>2026-05-02T16:23:08.032Z</time></trkpt><trkpt lat="43.8052117" lon="11.5751283"><ele>845.0</ele><time>2026-05-02T16:23:09.037Z</time></trkpt><trkpt lat="43.8052367" lon="11.5750117"><ele>848.3333333333334</ele><time>2026-05-02T16:23:10.038Z</time></trkpt><trkpt lat="43.8052733" lon="11.5748883"><ele>851.6666666666667</ele><time>2026-05-02T16:23:11.039Z</time></trkpt><trkpt lat="43.8053083" lon="11.5747933"><ele>855.0</ele><time>2026-05-02T16:23:12.039Z</time></trkpt><trkpt lat="43.8053467" lon="11.5747117"><ele>858.3333333333333</ele><time>2026-05-02T16:23:13.037Z</time></trkpt><trkpt lat="43.8053983" lon="11.5746617"><ele>861.6666666666666</ele><time>2026-05-02T16:23:14.039Z</time></trkpt><trkpt lat="43.8054567" lon="11.5746083"><ele>865.0</ele><time>2026-05-02T16:23:15.037Z</time></trkpt><trkpt lat="43.8055467" lon="11.5745083"><ele>864.9999999999999</ele><time>2026-05-02T16:23:17.039Z</time></trkpt><trkpt lat="43.8055983" lon="11.574445"><ele>865.0</ele><time>2026-05-02T16:23:18.038Z</time></trkpt><trkpt lat="43.8056617" lon="11.57438"><ele>865.0</ele><time>2026-05-02T16:23:19.04Z</time></trkpt><trkpt lat="43.80573" lon="11.5743083"><ele>865.0</ele><time>2026-05-02T16:23:20.04Z</time></trkpt><trkpt lat="43.8058133" lon="11.5742383"><ele>864.9999999999999</ele><time>2026-05-02T16:23:21.038Z</time></trkpt><trkpt lat="43.80589" lon="11.5741833"><ele>865.0</ele><time>2026-05-02T16:23:22.038Z</time></trkpt><trkpt lat="43.8059617" lon="11.5741433"><ele>864.8</ele><time>2026-05-02T16:23:23.04Z</time></trkpt><trkpt lat="43.8060167" lon="11.5740933"><ele>864.6</ele><time>2026-05-02T16:23:24.039Z</time></trkpt><trkpt lat="43.806095" lon="11.5739767"><ele>864.4000000000001</ele><time>2026-05-02T16:23:26.04Z</time></trkpt><trkpt lat="43.8061433" lon="11.573895"><ele>864.2</ele><time>2026-05-02T16:23:27.037Z</time></trkpt><trkpt lat="43.8061917" lon="11.5737817"><ele>864.0</ele><time>2026-05-02T16:23:28.039Z</time></trkpt><trkpt lat="43.806235" lon="11.5736433"><ele>866.2</ele><time>2026-05-02T16:23:29.038Z</time></trkpt><trkpt lat="43.8062833" lon="11.5735167"><ele>868.4000000000001</ele><time>2026-05-02T16:23:30.037Z</time></trkpt><trkpt lat="43.80634" lon="11.57341"><ele>870.6</ele><time>2026-05-02T16:23:31.039Z</time></trkpt><trkpt lat="43.8063917" lon="11.5733167"><ele>872.8</ele><time>2026-05-02T16:23:32.04Z</time></trkpt><trkpt lat="43.8064517" lon="11.5732367"><ele>875.0</ele><time>2026-05-02T16:23:33.037Z</time></trkpt><trkpt lat="43.806525" lon="11.5731683"><ele>875.0000000000001</ele><time>2026-05-02T16:23:34.037Z</time></trkpt><trkpt lat="43.8066033" lon="11.5731217"><ele>875.0</ele><time>2026-05-02T16:23:35.038Z</time></trkpt><trkpt lat="43.8066883" lon="11.5730767"><ele>875.0</ele><time>2026-05-02T16:23:36.038Z</time></trkpt><trkpt lat="43.806775" lon="11.5730467"><ele>875.0</ele><time>2026-05-02T16:23:37.039Z</time></trkpt><trkpt lat="43.80686" lon="11.573015"><ele>875.0000000000001</ele><time>2026-05-02T16:23:38.04Z</time></trkpt><trkpt lat="43.80695" lon="11.5729933"><ele>875.0</ele><time>2026-05-02T16:23:39.038Z</time></trkpt><trkpt lat="43.8070333" lon="11.5729617"><ele>875.8333333333334</ele><time>2026-05-02T16:23:40.039Z</time></trkpt><trkpt lat="43.8071217" lon="11.572915"><ele>876.6666666666667</ele><time>2026-05-02T16:23:41.037Z</time></trkpt><trkpt lat="43.807195" lon="11.5728617"><ele>877.5</ele><time>2026-05-02T16:23:42.038Z</time></trkpt><trkpt lat="43.8072583" lon="11.5728"><ele>878.3333333333333</ele><time>2026-05-02T16:23:43.04Z</time></trkpt><trkpt lat="43.807325" lon="11.5727267"><ele>879.1666666666666</ele><time>2026-05-02T16:23:44.041Z</time></trkpt><trkpt lat="43.8073717" lon="11.5726483"><ele>880.0</ele><time>2026-05-02T16:23:45.038Z</time></trkpt><trkpt lat="43.80741" lon="11.572575"><ele>880.0</ele><time>2026-05-02T16:23:46.038Z</time></trkpt><trkpt lat="43.8074467" lon="11.572415"><ele>880.0</ele><time>2026-05-02T16:23:48.04Z</time></trkpt><trkpt lat="43.8074833" lon="11.5722467"><ele>880.0</ele><time>2026-05-02T16:23:50.039Z</time></trkpt><trkpt lat="43.8075067" lon="11.5721567"><ele>880.0</ele><time>2026-05-02T16:23:51.037Z</time></trkpt><trkpt lat="43.8075333" lon="11.5720667"><ele>880.0</ele><time>2026-05-02T16:23:52.038Z</time></trkpt><trkpt lat="43.807565" lon="11.5719767"><ele>879.6666666666666</ele><time>2026-05-02T16:23:53.037Z</time></trkpt><trkpt lat="43.8075967" lon="11.5718867"><ele>879.3333333333333</ele><time>2026-05-02T16:23:54.039Z</time></trkpt><trkpt lat="43.8076217" lon="11.5717967"><ele>879.0</ele><time>2026-05-02T16:23:55.038Z</time></trkpt><trkpt lat="43.8076833" lon="11.5716667"><ele>878.6666666666667</ele><time>2026-05-02T16:23:57.037Z</time></trkpt><trkpt lat="43.8077967" lon="11.5716"><ele>878.3333333333334</ele><time>2026-05-02T16:23:59.038Z</time></trkpt><trkpt lat="43.80786" lon="11.571575"><ele>878.0</ele><time>2026-05-02T16:24:00.039Z</time></trkpt><trkpt lat="43.807975" lon="11.5715267"><ele>876.1666666666667</ele><time>2026-05-02T16:24:02.039Z</time></trkpt><trkpt lat="43.808045" lon="11.5714967"><ele>874.3333333333334</ele><time>2026-05-02T16:24:03.037Z</time></trkpt><trkpt lat="43.8081167" lon="11.57147"><ele>872.5</ele><time>2026-05-02T16:24:04.038Z</time></trkpt><trkpt lat="43.80819" lon="11.5714517"><ele>870.6666666666667</ele><time>2026-05-02T16:24:05.038Z</time></trkpt><trkpt lat="43.8082667" lon="11.57143"><ele>868.8333333333334</ele><time>2026-05-02T16:24:06.038Z</time></trkpt><trkpt lat="43.8083483" lon="11.5714067"><ele>867.0</ele><time>2026-05-02T16:24:07.039Z</time></trkpt><trkpt lat="43.8084383" lon="11.571375"><ele>864.8333333333334</ele><time>2026-05-02T16:24:08.039Z</time></trkpt><trkpt lat="43.8085217" lon="11.57134"><ele>862.6666666666667</ele><time>2026-05-02T16:24:09.038Z</time></trkpt><trkpt lat="43.80859" lon="11.571285"><ele>860.5</ele><time>2026-05-02T16:24:10.038Z</time></trkpt><trkpt lat="43.8086517" lon="11.5712183"><ele>858.3333333333334</ele><time>2026-05-02T16:24:11.038Z</time></trkpt><trkpt lat="43.8087283" lon="11.5711483"><ele>856.1666666666667</ele><time>2026-05-02T16:24:12.039Z</time></trkpt><trkpt lat="43.8088117" lon="11.5710817"><ele>854.0</ele><time>2026-05-02T16:24:13.039Z</time></trkpt><trkpt lat="43.8088933" lon="11.5710017"><ele>854.0</ele><time>2026-05-02T16:24:14.04Z</time></trkpt><trkpt lat="43.8089683" lon="11.5709267"><ele>854.0000000000001</ele><time>2026-05-02T16:24:15.037Z</time></trkpt><trkpt lat="43.8090367" lon="11.5708283"><ele>854.0000000000001</ele><time>2026-05-02T16:24:16.037Z</time></trkpt><trkpt lat="43.8091083" lon="11.57073"><ele>854.0</ele><time>2026-05-02T16:24:17.038Z</time></trkpt><trkpt lat="43.809185" lon="11.57063"><ele>854.0</ele><time>2026-05-02T16:24:18.039Z</time></trkpt><trkpt lat="43.809265" lon="11.5705383"><ele>853.6</ele><time>2026-05-02T16:24:19.04Z</time></trkpt><trkpt lat="43.8093483" lon="11.5704567"><ele>853.2</ele><time>2026-05-02T16:24:20.04Z</time></trkpt><trkpt lat="43.80943" lon="11.5703783"><ele>852.8000000000001</ele><time>2026-05-02T16:24:21.038Z</time></trkpt><trkpt lat="43.8095167" lon="11.5703083"><ele>852.4000000000001</ele><time>2026-05-02T16:24:22.037Z</time></trkpt><trkpt lat="43.8096133" lon="11.5702617"><ele>852.0</ele><time>2026-05-02T16:24:23.039Z</time></trkpt><trkpt lat="43.809715" lon="11.5702283"><ele>852.0</ele><time>2026-05-02T16:24:24.039Z</time></trkpt><trkpt lat="43.8098167" lon="11.5702017"><ele>852.0</ele><time>2026-05-02T16:24:25.038Z</time></trkpt><trkpt lat="43.8099217" lon="11.5701817"><ele>852.0</ele><time>2026-05-02T16:24:26.041Z</time></trkpt><trkpt lat="43.8100167" lon="11.5701583"><ele>852.0</ele><time>2026-05-02T16:24:27.037Z</time></trkpt><trkpt lat="43.8101133" lon="11.5701467"><ele>852.0</ele><time>2026-05-02T16:24:28.038Z</time></trkpt><trkpt lat="43.8102067" lon="11.5701383"><ele>852.0</ele><time>2026-05-02T16:24:29.041Z</time></trkpt><trkpt lat="43.81031" lon="11.570115"><ele>852.0</ele><time>2026-05-02T16:24:30.039Z</time></trkpt><trkpt lat="43.8104083" lon="11.5700867"><ele>852.0</ele><time>2026-05-02T16:24:31.04Z</time></trkpt><trkpt lat="43.8105033" lon="11.5700583"><ele>852.0</ele><time>2026-05-02T16:24:32.04Z</time></trkpt><trkpt lat="43.8105967" lon="11.5700367"><ele>852.0</ele><time>2026-05-02T16:24:33.039Z</time></trkpt><trkpt lat="43.81068" lon="11.5700017"><ele>852.0</ele><time>2026-05-02T16:24:34.039Z</time></trkpt><trkpt lat="43.810755" lon="11.5699583"><ele>852.0</ele><time>2026-05-02T16:24:35.041Z</time></trkpt><trkpt lat="43.8108217" lon="11.56991"><ele>852.0</ele><time>2026-05-02T16:24:36.04Z</time></trkpt><trkpt lat="43.8108833" lon="11.5698483"><ele>852.0</ele><time>2026-05-02T16:24:37.041Z</time></trkpt><trkpt lat="43.8109367" lon="11.5697683"><ele>852.0</ele><time>2026-05-02T16:24:38.044Z</time></trkpt><trkpt lat="43.8109917" lon="11.5696817"><ele>852.0</ele><time>2026-05-02T16:24:39.04Z</time></trkpt><trkpt lat="43.8110483" lon="11.5696017"><ele>849.5</ele><time>2026-05-02T16:24:40.04Z</time></trkpt><trkpt lat="43.8111083" lon="11.569535"><ele>847.0</ele><time>2026-05-02T16:24:41.042Z</time></trkpt><trkpt lat="43.81117" lon="11.5694817"><ele>844.5</ele><time>2026-05-02T16:24:42.041Z</time></trkpt><trkpt lat="43.8112383" lon="11.5694433"><ele>842.0</ele><time>2026-05-02T16:24:43.041Z</time></trkpt><trkpt lat="43.8113183" lon="11.5694267"><ele>839.5</ele><time>2026-05-02T16:24:44.042Z</time></trkpt><trkpt lat="43.8113933" lon="11.5693933"><ele>837.0</ele><time>2026-05-02T16:24:45.04Z</time></trkpt><trkpt lat="43.811475" lon="11.5693567"><ele>835.8</ele><time>2026-05-02T16:24:46.039Z</time></trkpt><trkpt lat="43.8115483" lon="11.5693417"><ele>834.6</ele><time>2026-05-02T16:24:47.039Z</time></trkpt><trkpt lat="43.81163" lon="11.5693383"><ele>833.4</ele><time>2026-05-02T16:24:48.039Z</time></trkpt><trkpt lat="43.8117333" lon="11.5693633"><ele>832.1999999999999</ele><time>2026-05-02T16:24:49.039Z</time></trkpt><trkpt lat="43.8118517" lon="11.569405"><ele>831.0</ele><time>2026-05-02T16:24:50.04Z</time></trkpt><trkpt lat="43.8119633" lon="11.569445"><ele>830.8</ele><time>2026-05-02T16:24:51.039Z</time></trkpt><trkpt lat="43.812065" lon="11.5694783"><ele>830.5999999999999</ele><time>2026-05-02T16:24:52.039Z</time></trkpt><trkpt lat="43.8121583" lon="11.569495"><ele>830.4</ele><time>2026-05-02T16:24:53.039Z</time></trkpt><trkpt lat="43.812245" lon="11.5694833"><ele>830.2</ele><time>2026-05-02T16:24:54.039Z</time></trkpt><trkpt lat="43.8123267" lon="11.5694533"><ele>830.0</ele><time>2026-05-02T16:24:55.039Z</time></trkpt><trkpt lat="43.8124017" lon="11.5694117"><ele>830.0000000000001</ele><time>2026-05-02T16:24:56.04Z</time></trkpt><trkpt lat="43.812475" lon="11.5693717"><ele>830.0</ele><time>2026-05-02T16:24:57.039Z</time></trkpt><trkpt lat="43.8125433" lon="11.5693517"><ele>830.0</ele><time>2026-05-02T16:24:58.039Z</time></trkpt><trkpt lat="43.8126533" lon="11.5693367"><ele>830.0</ele><time>2026-05-02T16:25:00.039Z</time></trkpt><trkpt lat="43.8127333" lon="11.5693183"><ele>830.0000000000001</ele><time>2026-05-02T16:25:02.04Z</time></trkpt><trkpt lat="43.8127767" lon="11.5691833"><ele>830.0</ele><time>2026-05-02T16:26:53.039Z</time></trkpt><trkpt lat="43.81285" lon="11.5691367"><ele>832.0</ele><time>2026-05-02T16:26:54.038Z</time></trkpt><trkpt lat="43.8129367" lon="11.56909"><ele>834.0</ele><time>2026-05-02T16:26:55.038Z</time></trkpt><trkpt lat="43.8130367" lon="11.5690417"><ele>836.0</ele><time>2026-05-02T16:26:56.04Z</time></trkpt><trkpt lat="43.8131317" lon="11.569"><ele>838.0</ele><time>2026-05-02T16:26:57.038Z</time></trkpt><trkpt lat="43.8132217" lon="11.568975"><ele>840.0</ele><time>2026-05-02T16:26:58.039Z</time></trkpt><trkpt lat="43.8133033" lon="11.5689417"><ele>840.0</ele><time>2026-05-02T16:26:59.037Z</time></trkpt><trkpt lat="43.813385" lon="11.5688933"><ele>840.0</ele><time>2026-05-02T16:27:00.037Z</time></trkpt><trkpt lat="43.8134583" lon="11.568825"><ele>840.0</ele><time>2026-05-02T16:27:01.038Z</time></trkpt><trkpt lat="43.8135367" lon="11.5687433"><ele>840.0</ele><time>2026-05-02T16:27:02.039Z</time></trkpt><trkpt lat="43.8136167" lon="11.56867"><ele>840.0</ele><time>2026-05-02T16:27:03.037Z</time></trkpt><trkpt lat="43.8137017" lon="11.5686033"><ele>839.6</ele><time>2026-05-02T16:27:04.039Z</time></trkpt><trkpt lat="43.8137983" lon="11.568545"><ele>839.2</ele><time>2026-05-02T16:27:05.04Z</time></trkpt><trkpt lat="43.8138967" lon="11.5684817"><ele>838.8</ele><time>2026-05-02T16:27:06.04Z</time></trkpt><trkpt lat="43.813995" lon="11.5684383"><ele>838.4</ele><time>2026-05-02T16:27:07.038Z</time></trkpt><trkpt lat="43.81409" lon="11.56841"><ele>838.0</ele><time>2026-05-02T16:27:08.039Z</time></trkpt><trkpt lat="43.814185" lon="11.56839"><ele>838.0</ele><time>2026-05-02T16:27:09.038Z</time></trkpt><trkpt lat="43.8142767" lon="11.56836"><ele>838.0</ele><time>2026-05-02T16:27:10.042Z</time></trkpt><trkpt lat="43.8143617" lon="11.5683117"><ele>838.0</ele><time>2026-05-02T16:27:11.039Z</time></trkpt><trkpt lat="43.81443" lon="11.5682467"><ele>838.0</ele><time>2026-05-02T16:27:12.038Z</time></trkpt><trkpt lat="43.8144883" lon="11.5681933"><ele>838.0</ele><time>2026-05-02T16:27:13.038Z</time></trkpt><trkpt lat="43.8146167" lon="11.568135"><ele>837.8333333333333</ele><time>2026-05-02T16:27:15.038Z</time></trkpt><trkpt lat="43.814685" lon="11.5681"><ele>837.6666666666666</ele><time>2026-05-02T16:27:16.041Z</time></trkpt><trkpt lat="43.814755" lon="11.5680617"><ele>837.5</ele><time>2026-05-02T16:27:17.037Z</time></trkpt><trkpt lat="43.8148217" lon="11.5679967"><ele>837.3333333333333</ele><time>2026-05-02T16:27:18.038Z</time></trkpt><trkpt lat="43.8148833" lon="11.5679233"><ele>837.1666666666666</ele><time>2026-05-02T16:27:19.04Z</time></trkpt><trkpt lat="43.81494" lon="11.5678517"><ele>837.0</ele><time>2026-05-02T16:27:20.04Z</time></trkpt><trkpt lat="43.8149933" lon="11.567775"><ele>837.0</ele><time>2026-05-02T16:27:21.039Z</time></trkpt><trkpt lat="43.815045" lon="11.5677017"><ele>837.0</ele><time>2026-05-02T16:27:22.04Z</time></trkpt><trkpt lat="43.8150967" lon="11.5676367"><ele>837.0</ele><time>2026-05-02T16:27:23.039Z</time></trkpt><trkpt lat="43.8151533" lon="11.5675733"><ele>837.0</ele><time>2026-05-02T16:27:24.04Z</time></trkpt><trkpt lat="43.815205" lon="11.5674983"><ele>837.0</ele><time>2026-05-02T16:27:25.041Z</time></trkpt><trkpt lat="43.8152467" lon="11.5674133"><ele>837.0</ele><time>2026-05-02T16:27:26.038Z</time></trkpt><trkpt lat="43.8152917" lon="11.56732"><ele>837.0</ele><time>2026-05-02T16:27:27.04Z</time></trkpt><trkpt lat="43.8153383" lon="11.5672167"><ele>835.6666666666666</ele><time>2026-05-02T16:27:28.039Z</time></trkpt><trkpt lat="43.815385" lon="11.5671117"><ele>834.3333333333333</ele><time>2026-05-02T16:27:29.039Z</time></trkpt><trkpt lat="43.8154183" lon="11.5670067"><ele>833.0</ele><time>2026-05-02T16:27:30.039Z</time></trkpt><trkpt lat="43.815445" lon="11.5668967"><ele>831.6666666666666</ele><time>2026-05-02T16:27:31.044Z</time></trkpt><trkpt lat="43.8154533" lon="11.5667917"><ele>830.3333333333333</ele><time>2026-05-02T16:27:32.04Z</time></trkpt><trkpt lat="43.8154367" lon="11.5666833"><ele>829.0</ele><time>2026-05-02T16:27:33.038Z</time></trkpt><trkpt lat="43.8154133" lon="11.5665717"><ele>831.2</ele><time>2026-05-02T16:27:34.038Z</time></trkpt><trkpt lat="43.815405" lon="11.5664583"><ele>833.4000000000001</ele><time>2026-05-02T16:27:35.038Z</time></trkpt><trkpt lat="43.815405" lon="11.5663567"><ele>835.6</ele><time>2026-05-02T16:27:36.037Z</time></trkpt><trkpt lat="43.815505" lon="11.5662383"><ele>837.8</ele><time>2026-05-02T16:27:38.041Z</time></trkpt><trkpt lat="43.815595" lon="11.5661817"><ele>840.0</ele><time>2026-05-02T16:27:39.039Z</time></trkpt><trkpt lat="43.81568" lon="11.5661233"><ele>840.0</ele><time>2026-05-02T16:27:40.038Z</time></trkpt><trkpt lat="43.81576" lon="11.5660717"><ele>840.0</ele><time>2026-05-02T16:27:41.039Z</time></trkpt><trkpt lat="43.8158383" lon="11.566045"><ele>840.0</ele><time>2026-05-02T16:27:42.04Z</time></trkpt><trkpt lat="43.8159267" lon="11.5660483"><ele>840.0</ele><time>2026-05-02T16:27:43.04Z</time></trkpt><trkpt lat="43.8160267" lon="11.5660617"><ele>840.0</ele><time>2026-05-02T16:27:44.039Z</time></trkpt><trkpt lat="43.8161283" lon="11.5660817"><ele>839.2</ele><time>2026-05-02T16:27:45.038Z</time></trkpt><trkpt lat="43.816225" lon="11.566095"><ele>838.4</ele><time>2026-05-02T16:27:46.037Z</time></trkpt><trkpt lat="43.8163217" lon="11.5661117"><ele>837.5999999999999</ele><time>2026-05-02T16:27:47.038Z</time></trkpt><trkpt lat="43.8164183" lon="11.5661133"><ele>836.8</ele><time>2026-05-02T16:27:48.038Z</time></trkpt><trkpt lat="43.8165067" lon="11.56609"><ele>836.0</ele><time>2026-05-02T16:27:49.041Z</time></trkpt><trkpt lat="43.81659" lon="11.5660567"><ele>836.0000000000001</ele><time>2026-05-02T16:27:50.042Z</time></trkpt><trkpt lat="43.8166617" lon="11.5660117"><ele>836.0</ele><time>2026-05-02T16:27:51.041Z</time></trkpt><trkpt lat="43.8167267" lon="11.5659717"><ele>836.0</ele><time>2026-05-02T16:27:52.04Z</time></trkpt><trkpt lat="43.8168533" lon="11.5659617"><ele>836.0</ele><time>2026-05-02T16:27:54.043Z</time></trkpt><trkpt lat="43.8169317" lon="11.5659733"><ele>836.0000000000001</ele><time>2026-05-02T16:27:55.04Z</time></trkpt><trkpt lat="43.817015" lon="11.5659833"><ele>836.0</ele><time>2026-05-02T16:27:56.042Z</time></trkpt><trkpt lat="43.8170983" lon="11.565965"><ele>835.0</ele><time>2026-05-02T16:27:57.041Z</time></trkpt><trkpt lat="43.817175" lon="11.565925"><ele>834.0</ele><time>2026-05-02T16:27:58.04Z</time></trkpt><trkpt lat="43.8172467" lon="11.5658533"><ele>833.0</ele><time>2026-05-02T16:27:59.039Z</time></trkpt><trkpt lat="43.8173233" lon="11.56578"><ele>832.0</ele><time>2026-05-02T16:28:00.039Z</time></trkpt><trkpt lat="43.8174033" lon="11.56571"><ele>831.0</ele><time>2026-05-02T16:28:01.043Z</time></trkpt><trkpt lat="43.8174783" lon="11.5656367"><ele>831.0</ele><time>2026-05-02T16:28:02.043Z</time></trkpt><trkpt lat="43.81756" lon="11.5655617"><ele>831.0</ele><time>2026-05-02T16:28:03.04Z</time></trkpt><trkpt lat="43.8176467" lon="11.565495"><ele>831.0</ele><time>2026-05-02T16:28:04.039Z</time></trkpt><trkpt lat="43.8177283" lon="11.5654267"><ele>831.0</ele><time>2026-05-02T16:28:05.039Z</time></trkpt><trkpt lat="43.8178033" lon="11.56534"><ele>831.0</ele><time>2026-05-02T16:28:06.039Z</time></trkpt><trkpt lat="43.8178667" lon="11.5652333"><ele>830.5999999999999</ele><time>2026-05-02T16:28:07.039Z</time></trkpt><trkpt lat="43.81793" lon="11.5651233"><ele>830.2</ele><time>2026-05-02T16:28:08.041Z</time></trkpt><trkpt lat="43.8179933" lon="11.5650133"><ele>829.8</ele><time>2026-05-02T16:28:09.039Z</time></trkpt><trkpt lat="43.8180567" lon="11.5649"><ele>829.4000000000001</ele><time>2026-05-02T16:28:10.039Z</time></trkpt><trkpt lat="43.8181167" lon="11.5647817"><ele>829.0</ele><time>2026-05-02T16:28:11.039Z</time></trkpt><trkpt lat="43.8181733" lon="11.5646717"><ele>829.0</ele><time>2026-05-02T16:28:12.039Z</time></trkpt><trkpt lat="43.8182383" lon="11.564575"><ele>829.0</ele><time>2026-05-02T16:28:13.038Z</time></trkpt><trkpt lat="43.81832" lon="11.564505"><ele>829.0</ele><time>2026-05-02T16:28:14.04Z</time></trkpt><trkpt lat="43.81841" lon="11.5644367"><ele>829.0</ele><time>2026-05-02T16:28:15.031Z</time></trkpt><trkpt lat="43.8184933" lon="11.5643517"><ele>829.0</ele><time>2026-05-02T16:28:16.039Z</time></trkpt><trkpt lat="43.81858" lon="11.5642617"><ele>830.1666666666666</ele><time>2026-05-02T16:28:17.04Z</time></trkpt><trkpt lat="43.81866" lon="11.56417"><ele>831.3333333333333</ele><time>2026-05-02T16:28:18.041Z</time></trkpt><trkpt lat="43.8187217" lon="11.5640867"><ele>832.5</ele><time>2026-05-02T16:28:19.04Z</time></trkpt><trkpt lat="43.8187733" lon="11.5640183"><ele>833.6666666666667</ele><time>2026-05-02T16:28:20.041Z</time></trkpt><trkpt lat="43.818815" lon="11.5639483"><ele>834.8333333333334</ele><time>2026-05-02T16:28:21.04Z</time></trkpt><trkpt lat="43.818895" lon="11.5638467"><ele>836.0</ele><time>2026-05-02T16:28:23.041Z</time></trkpt><trkpt lat="43.8189633" lon="11.5637233"><ele>837.0</ele><time>2026-05-02T16:28:25.039Z</time></trkpt><trkpt lat="43.8189983" lon="11.5636033"><ele>838.0</ele><time>2026-05-02T16:28:27.039Z</time></trkpt><trkpt lat="43.8190767" lon="11.563485"><ele>839.0</ele><time>2026-05-02T16:28:29.039Z</time></trkpt><trkpt lat="43.8191383" lon="11.56336"><ele>840.0</ele><time>2026-05-02T16:28:31.038Z</time></trkpt><trkpt lat="43.8191883" lon="11.5632517"><ele>841.0</ele><time>2026-05-02T16:28:33.039Z</time></trkpt><trkpt lat="43.8192683" lon="11.5631817"><ele>842.1666666666666</ele><time>2026-05-02T16:28:35.038Z</time></trkpt><trkpt lat="43.8193583" lon="11.563115"><ele>843.3333333333333</ele><time>2026-05-02T16:28:37.039Z</time></trkpt><trkpt lat="43.8194283" lon="11.563065"><ele>844.5</ele><time>2026-05-02T16:28:39.038Z</time></trkpt><trkpt lat="43.8194933" lon="11.5630133"><ele>845.6666666666667</ele><time>2026-05-02T16:28:41.039Z</time></trkpt><trkpt lat="43.8195467" lon="11.56295"><ele>846.8333333333334</ele><time>2026-05-02T16:28:43.041Z</time></trkpt><trkpt lat="43.819635" lon="11.5628717"><ele>848.0</ele><time>2026-05-02T16:28:45.038Z</time></trkpt><trkpt lat="43.8197383" lon="11.5627833"><ele>848.0000000000001</ele><time>2026-05-02T16:28:47.039Z</time></trkpt><trkpt lat="43.8197983" lon="11.5627483"><ele>848.0</ele><time>2026-05-02T16:28:48.039Z</time></trkpt><trkpt lat="43.8198667" lon="11.5627"><ele>848.0</ele><time>2026-05-02T16:28:49.041Z</time></trkpt><trkpt lat="43.8199317" lon="11.562655"><ele>848.0</ele><time>2026-05-02T16:28:50.044Z</time></trkpt><trkpt lat="43.8200083" lon="11.5625917"><ele>848.0000000000001</ele><time>2026-05-02T16:28:51.042Z</time></trkpt><trkpt lat="43.8200883" lon="11.5625317"><ele>848.0</ele><time>2026-05-02T16:28:52.038Z</time></trkpt><trkpt lat="43.8201567" lon="11.56248"><ele>848.4</ele><time>2026-05-02T16:28:53.039Z</time></trkpt><trkpt lat="43.82021" lon="11.56242"><ele>848.8</ele><time>2026-05-02T16:28:54.04Z</time></trkpt><trkpt lat="43.8203117" lon="11.5623"><ele>849.2</ele><time>2026-05-02T16:28:56.04Z</time></trkpt><trkpt lat="43.8203967" lon="11.5622417"><ele>849.6</ele><time>2026-05-02T16:28:57.038Z</time></trkpt><trkpt lat="43.8204817" lon="11.5621983"><ele>850.0</ele><time>2026-05-02T16:28:58.038Z</time></trkpt><trkpt lat="43.8205717" lon="11.5621483"><ele>850.0</ele><time>2026-05-02T16:28:59.039Z</time></trkpt><trkpt lat="43.8206633" lon="11.5620933"><ele>850.0</ele><time>2026-05-02T16:29:00.042Z</time></trkpt><trkpt lat="43.82075" lon="11.5620217"><ele>850.0</ele><time>2026-05-02T16:29:01.039Z</time></trkpt><trkpt lat="43.8208367" lon="11.56195"><ele>850.0</ele><time>2026-05-02T16:29:02.041Z</time></trkpt><trkpt lat="43.8209183" lon="11.561865"><ele>850.0</ele><time>2026-05-02T16:29:03.04Z</time></trkpt><trkpt lat="43.8209933" lon="11.5617767"><ele>850.4</ele><time>2026-05-02T16:29:04.039Z</time></trkpt><trkpt lat="43.8210617" lon="11.5616817"><ele>850.8</ele><time>2026-05-02T16:29:05.04Z</time></trkpt><trkpt lat="43.82113" lon="11.5615767"><ele>851.2</ele><time>2026-05-02T16:29:06.041Z</time></trkpt><trkpt lat="43.8211967" lon="11.5614683"><ele>851.6</ele><time>2026-05-02T16:29:07.038Z</time></trkpt><trkpt lat="43.8212617" lon="11.56136"><ele>852.0</ele><time>2026-05-02T16:29:08.04Z</time></trkpt><trkpt lat="43.8213217" lon="11.561245"><ele>850.2</ele><time>2026-05-02T16:29:09.038Z</time></trkpt><trkpt lat="43.8213833" lon="11.56113"><ele>848.4000000000001</ele><time>2026-05-02T16:29:10.04Z</time></trkpt><trkpt lat="43.82144" lon="11.5610133"><ele>846.5999999999999</ele><time>2026-05-02T16:29:11.039Z</time></trkpt><trkpt lat="43.8215067" lon="11.5609117"><ele>844.8</ele><time>2026-05-02T16:29:12.04Z</time></trkpt><trkpt lat="43.8215933" lon="11.5608183"><ele>843.0</ele><time>2026-05-02T16:29:13.039Z</time></trkpt><trkpt lat="43.82167" lon="11.5607183"><ele>843.0</ele><time>2026-05-02T16:29:14.041Z</time></trkpt><trkpt lat="43.821735" lon="11.5605967"><ele>843.0</ele><time>2026-05-02T16:29:15.04Z</time></trkpt><trkpt lat="43.8217883" lon="11.560475"><ele>843.0</ele><time>2026-05-02T16:29:16.039Z</time></trkpt><trkpt lat="43.8218517" lon="11.5603767"><ele>843.0</ele><time>2026-05-02T16:29:17.037Z</time></trkpt><trkpt lat="43.821925" lon="11.560285"><ele>843.0</ele><time>2026-05-02T16:29:18.042Z</time></trkpt><trkpt lat="43.8219933" lon="11.5601883"><ele>841.4</ele><time>2026-05-02T16:29:19.04Z</time></trkpt><trkpt lat="43.8220683" lon="11.56009"><ele>839.8</ele><time>2026-05-02T16:29:20.042Z</time></trkpt><trkpt lat="43.82215" lon="11.56"><ele>838.2</ele><time>2026-05-02T16:29:21.041Z</time></trkpt><trkpt lat="43.8222083" lon="11.55989"><ele>836.6</ele><time>2026-05-02T16:29:22.04Z</time></trkpt><trkpt lat="43.8222817" lon="11.5597883"><ele>835.0</ele><time>2026-05-02T16:29:23.04Z</time></trkpt><trkpt lat="43.82236" lon="11.5596883"><ele>835.0</ele><time>2026-05-02T16:29:24.04Z</time></trkpt><trkpt lat="43.8224417" lon="11.55959"><ele>835.0</ele><time>2026-05-02T16:29:25.04Z</time></trkpt><trkpt lat="43.82251" lon="11.559485"><ele>835.0</ele><time>2026-05-02T16:29:26.04Z</time></trkpt><trkpt lat="43.822575" lon="11.5594017"><ele>835.0</ele><time>2026-05-02T16:29:27.039Z</time></trkpt><trkpt lat="43.82264" lon="11.55933"><ele>835.0</ele><time>2026-05-02T16:29:28.039Z</time></trkpt><trkpt lat="43.8227067" lon="11.5592633"><ele>835.2</ele><time>2026-05-02T16:29:29.038Z</time></trkpt><trkpt lat="43.8227717" lon="11.5592083"><ele>835.4</ele><time>2026-05-02T16:29:30.037Z</time></trkpt><trkpt lat="43.82285" lon="11.55915"><ele>835.5999999999999</ele><time>2026-05-02T16:29:31.039Z</time></trkpt><trkpt lat="43.8229467" lon="11.5590933"><ele>835.8</ele><time>2026-05-02T16:29:32.041Z</time></trkpt><trkpt lat="43.8230617" lon="11.5590317"><ele>836.0</ele><time>2026-05-02T16:29:33.038Z</time></trkpt><trkpt lat="43.8231767" lon="11.5589767"><ele>836.0</ele><time>2026-05-02T16:29:34.037Z</time></trkpt><trkpt lat="43.82329" lon="11.5589333"><ele>836.0</ele><time>2026-05-02T16:29:35.039Z</time></trkpt><trkpt lat="43.8234017" lon="11.558895"><ele>836.0</ele><time>2026-05-02T16:29:36.038Z</time></trkpt><trkpt lat="43.8235017" lon="11.5588467"><ele>836.0</ele><time>2026-05-02T16:29:37.041Z</time></trkpt><trkpt lat="43.82359" lon="11.5587667"><ele>836.0</ele><time>2026-05-02T16:29:38.041Z</time></trkpt><trkpt lat="43.8236817" lon="11.5586883"><ele>837.1999999999999</ele><time>2026-05-02T16:29:39.037Z</time></trkpt><trkpt lat="43.8237783" lon="11.5586233"><ele>838.4</ele><time>2026-05-02T16:29:40.037Z</time></trkpt><trkpt lat="43.823875" lon="11.5585867"><ele>839.6</ele><time>2026-05-02T16:29:41.038Z</time></trkpt><trkpt lat="43.8239733" lon="11.5585483"><ele>840.8</ele><time>2026-05-02T16:29:42.037Z</time></trkpt><trkpt lat="43.8240683" lon="11.5584983"><ele>842.0</ele><time>2026-05-02T16:29:43.037Z</time></trkpt><trkpt lat="43.8241517" lon="11.558435"><ele>842.0</ele><time>2026-05-02T16:29:44.039Z</time></trkpt><trkpt lat="43.82423" lon="11.558385"><ele>842.0</ele><time>2026-05-02T16:29:45.038Z</time></trkpt><trkpt lat="43.8243117" lon="11.5583567"><ele>842.0</ele><time>2026-05-02T16:29:46.037Z</time></trkpt><trkpt lat="43.8243983" lon="11.5583467"><ele>842.0</ele><time>2026-05-02T16:29:47.038Z</time></trkpt><trkpt lat="43.8245083" lon="11.5583583"><ele>842.0</ele><time>2026-05-02T16:29:48.041Z</time></trkpt><trkpt lat="43.8246233" lon="11.558375"><ele>843.75</ele><time>2026-05-02T16:29:49.04Z</time></trkpt><trkpt lat="43.8247533" lon="11.5583733"><ele>845.5</ele><time>2026-05-02T16:29:50.04Z</time></trkpt><trkpt lat="43.8248817" lon="11.5583333"><ele>847.25</ele><time>2026-05-02T16:29:51.038Z</time></trkpt><trkpt lat="43.8250033" lon="11.558275"><ele>849.0</ele><time>2026-05-02T16:29:52.04Z</time></trkpt><trkpt lat="43.825105" lon="11.55819"><ele>850.6</ele><time>2026-05-02T16:29:53.04Z</time></trkpt><trkpt lat="43.825205" lon="11.5580883"><ele>852.2</ele><time>2026-05-02T16:29:54.04Z</time></trkpt><trkpt lat="43.825285" lon="11.55796"><ele>853.8000000000001</ele><time>2026-05-02T16:29:55.039Z</time></trkpt><trkpt lat="43.825365" lon="11.5578583"><ele>855.4000000000001</ele><time>2026-05-02T16:29:56.04Z</time></trkpt><trkpt lat="43.8254417" lon="11.5577917"><ele>857.0</ele><time>2026-05-02T16:29:57.04Z</time></trkpt><trkpt lat="43.8255317" lon="11.5577617"><ele>857.0</ele><time>2026-05-02T16:29:58.039Z</time></trkpt><trkpt lat="43.8256183" lon="11.5577683"><ele>857.0</ele><time>2026-05-02T16:29:59.04Z</time></trkpt><trkpt lat="43.8257117" lon="11.5577967"><ele>857.0</ele><time>2026-05-02T16:30:00.041Z</time></trkpt><trkpt lat="43.825805" lon="11.557815"><ele>857.0</ele><time>2026-05-02T16:30:01.039Z</time></trkpt><trkpt lat="43.82591" lon="11.5578333"><ele>857.0</ele><time>2026-05-02T16:30:02.041Z</time></trkpt><trkpt lat="43.8260217" lon="11.5578383"><ele>859.6</ele><time>2026-05-02T16:30:03.039Z</time></trkpt><trkpt lat="43.8261317" lon="11.5578217"><ele>862.2</ele><time>2026-05-02T16:30:04.038Z</time></trkpt><trkpt lat="43.8262383" lon="11.5577883"><ele>864.8</ele><time>2026-05-02T16:30:05.04Z</time></trkpt><trkpt lat="43.8263333" lon="11.5577183"><ele>867.4</ele><time>2026-05-02T16:30:06.04Z</time></trkpt><trkpt lat="43.82643" lon="11.5576317"><ele>870.0</ele><time>2026-05-02T16:30:07.039Z</time></trkpt><trkpt lat="43.82652" lon="11.55754"><ele>870.0</ele><time>2026-05-02T16:30:08.04Z</time></trkpt><trkpt lat="43.826615" lon="11.557445"><ele>870.0</ele><time>2026-05-02T16:30:09.04Z</time></trkpt><trkpt lat="43.8267133" lon="11.557335"><ele>870.0</ele><time>2026-05-02T16:30:10.039Z</time></trkpt><trkpt lat="43.8268167" lon="11.5572333"><ele>870.0</ele><time>2026-05-02T16:30:11.04Z</time></trkpt><trkpt lat="43.82692" lon="11.5571333"><ele>869.6</ele><time>2026-05-02T16:30:12.039Z</time></trkpt><trkpt lat="43.8270167" lon="11.5570283"><ele>869.2</ele><time>2026-05-02T16:30:13.039Z</time></trkpt><trkpt lat="43.8271" lon="11.5569383"><ele>868.8</ele><time>2026-05-02T16:30:14.04Z</time></trkpt><trkpt lat="43.8271817" lon="11.5568617"><ele>868.4</ele><time>2026-05-02T16:30:15.04Z</time></trkpt><trkpt lat="43.8272667" lon="11.5567817"><ele>868.0</ele><time>2026-05-02T16:30:16.037Z</time></trkpt><trkpt lat="43.8273633" lon="11.5567017"><ele>868.0</ele><time>2026-05-02T16:30:17.037Z</time></trkpt><trkpt lat="43.82745" lon="11.556625"><ele>868.0</ele><time>2026-05-02T16:30:18.037Z</time></trkpt><trkpt lat="43.8275383" lon="11.55654"><ele>868.0</ele><time>2026-05-02T16:30:19.039Z</time></trkpt><trkpt lat="43.82761" lon="11.5564367"><ele>868.0</ele><time>2026-05-02T16:30:20.04Z</time></trkpt><trkpt lat="43.82768" lon="11.55632"><ele>868.0</ele><time>2026-05-02T16:30:21.039Z</time></trkpt><trkpt lat="43.827745" lon="11.5561817"><ele>869.75</ele><time>2026-05-02T16:30:22.038Z</time></trkpt><trkpt lat="43.827825" lon="11.5560483"><ele>871.5</ele><time>2026-05-02T16:30:23.039Z</time></trkpt><trkpt lat="43.8279083" lon="11.5559167"><ele>873.25</ele><time>2026-05-02T16:30:24.039Z</time></trkpt><trkpt lat="43.827995" lon="11.5557983"><ele>875.0</ele><time>2026-05-02T16:30:25.038Z</time></trkpt><trkpt lat="43.8280867" lon="11.5557083"><ele>875.0</ele><time>2026-05-02T16:30:26.04Z</time></trkpt><trkpt lat="43.8281683" lon="11.5556217"><ele>875.0</ele><time>2026-05-02T16:30:27.038Z</time></trkpt><trkpt lat="43.8282583" lon="11.5555417"><ele>875.0</ele><time>2026-05-02T16:30:28.037Z</time></trkpt><trkpt lat="43.8283467" lon="11.5554567"><ele>875.0</ele><time>2026-05-02T16:30:29.04Z</time></trkpt><trkpt lat="43.8284367" lon="11.555355"><ele>875.0</ele><time>2026-05-02T16:30:30.041Z</time></trkpt><trkpt lat="43.8285317" lon="11.5552383"><ele>875.4</ele><time>2026-05-02T16:30:31.04Z</time></trkpt><trkpt lat="43.82863" lon="11.55513"><ele>875.8</ele><time>2026-05-02T16:30:32.041Z</time></trkpt><trkpt lat="43.82873" lon="11.555035"><ele>876.2</ele><time>2026-05-02T16:30:33.041Z</time></trkpt><trkpt lat="43.8288167" lon="11.5549483"><ele>876.6</ele><time>2026-05-02T16:30:34.04Z</time></trkpt><trkpt lat="43.8288767" lon="11.5548533"><ele>877.0</ele><time>2026-05-02T16:30:35.041Z</time></trkpt><trkpt lat="43.8289233" lon="11.5547517"><ele>877.0</ele><time>2026-05-02T16:30:36.043Z</time></trkpt><trkpt lat="43.828975" lon="11.5546633"><ele>877.0</ele><time>2026-05-02T16:30:37.04Z</time></trkpt><trkpt lat="43.8290467" lon="11.5545917"><ele>877.0</ele><time>2026-05-02T16:30:38.043Z</time></trkpt><trkpt lat="43.8291383" lon="11.5545367"><ele>877.0</ele><time>2026-05-02T16:30:39.04Z</time></trkpt><trkpt lat="43.8292283" lon="11.554465"><ele>877.0</ele><time>2026-05-02T16:30:40.04Z</time></trkpt><trkpt lat="43.8293217" lon="11.5544033"><ele>876.8</ele><time>2026-05-02T16:30:41.037Z</time></trkpt><trkpt lat="43.8294267" lon="11.55435"><ele>876.6</ele><time>2026-05-02T16:30:42.038Z</time></trkpt><trkpt lat="43.8295367" lon="11.554305"><ele>876.3999999999999</ele><time>2026-05-02T16:30:43.038Z</time></trkpt><trkpt lat="43.8296417" lon="11.5542567"><ele>876.1999999999999</ele><time>2026-05-02T16:30:44.039Z</time></trkpt><trkpt lat="43.8297433" lon="11.5542033"><ele>876.0</ele><time>2026-05-02T16:30:45.037Z</time></trkpt><trkpt lat="43.8298467" lon="11.5541267"><ele>876.0</ele><time>2026-05-02T16:30:46.039Z</time></trkpt><trkpt lat="43.82995" lon="11.554035"><ele>876.0</ele><time>2026-05-02T16:30:47.037Z</time></trkpt><trkpt lat="43.8300567" lon="11.55394"><ele>876.0</ele><time>2026-05-02T16:30:48.038Z</time></trkpt><trkpt lat="43.830165" lon="11.55384"><ele>876.0</ele><time>2026-05-02T16:30:49.038Z</time></trkpt><trkpt lat="43.8302683" lon="11.5537517"><ele>875.1999999999999</ele><time>2026-05-02T16:30:50.04Z</time></trkpt><trkpt lat="43.8303633" lon="11.553685"><ele>874.3999999999999</ele><time>2026-05-02T16:30:51.038Z</time></trkpt><trkpt lat="43.8304517" lon="11.5536317"><ele>873.6</ele><time>2026-05-02T16:30:52.038Z</time></trkpt><trkpt lat="43.8305417" lon="11.553575"><ele>872.8</ele><time>2026-05-02T16:30:53.037Z</time></trkpt><trkpt lat="43.8306317" lon="11.553525"><ele>872.0</ele><time>2026-05-02T16:30:54.038Z</time></trkpt><trkpt lat="43.83073" lon="11.55348"><ele>872.0</ele><time>2026-05-02T16:30:55.039Z</time></trkpt><trkpt lat="43.830835" lon="11.55343"><ele>872.0</ele><time>2026-05-02T16:30:56.04Z</time></trkpt><trkpt lat="43.8309267" lon="11.5533667"><ele>872.0</ele><time>2026-05-02T16:30:57.038Z</time></trkpt><trkpt lat="43.831015" lon="11.5533033"><ele>872.0</ele><time>2026-05-02T16:30:58.038Z</time></trkpt><trkpt lat="43.8311033" lon="11.5532533"><ele>872.0</ele><time>2026-05-02T16:30:59.039Z</time></trkpt><trkpt lat="43.8311867" lon="11.5532033"><ele>871.8</ele><time>2026-05-02T16:31:00.039Z</time></trkpt><trkpt lat="43.831255" lon="11.5531417"><ele>871.6</ele><time>2026-05-02T16:31:01.041Z</time></trkpt><trkpt lat="43.8313233" lon="11.55307"><ele>871.3999999999999</ele><time>2026-05-02T16:31:02.042Z</time></trkpt><trkpt lat="43.8313817" lon="11.5529767"><ele>871.1999999999999</ele><time>2026-05-02T16:31:03.039Z</time></trkpt><trkpt lat="43.8314217" lon="11.552855"><ele>871.0</ele><time>2026-05-02T16:31:04.039Z</time></trkpt><trkpt lat="43.8314483" lon="11.55272"><ele>871.0</ele><time>2026-05-02T16:31:05.039Z</time></trkpt><trkpt lat="43.8314717" lon="11.5525767"><ele>870.9999999999999</ele><time>2026-05-02T16:31:06.04Z</time></trkpt><trkpt lat="43.8315167" lon="11.5524467"><ele>870.9999999999999</ele><time>2026-05-02T16:31:07.041Z</time></trkpt><trkpt lat="43.8315617" lon="11.5523167"><ele>871.0</ele><time>2026-05-02T16:31:08.043Z</time></trkpt><trkpt lat="43.83161" lon="11.5521933"><ele>871.0</ele><time>2026-05-02T16:31:09.04Z</time></trkpt><trkpt lat="43.83166" lon="11.552075"><ele>869.4</ele><time>2026-05-02T16:31:10.039Z</time></trkpt><trkpt lat="43.831705" lon="11.5519483"><ele>867.8</ele><time>2026-05-02T16:31:11.04Z</time></trkpt><trkpt lat="43.8317417" lon="11.5518167"><ele>866.1999999999999</ele><time>2026-05-02T16:31:12.038Z</time></trkpt><trkpt lat="43.8317633" lon="11.55168"><ele>864.5999999999999</ele><time>2026-05-02T16:31:13.038Z</time></trkpt><trkpt lat="43.831785" lon="11.5515617"><ele>863.0</ele><time>2026-05-02T16:31:14.039Z</time></trkpt><trkpt lat="43.8318017" lon="11.5514583"><ele>861.0000000000001</ele><time>2026-05-02T16:31:15.04Z</time></trkpt><trkpt lat="43.831815" lon="11.5513683"><ele>859.0</ele><time>2026-05-02T16:31:16.038Z</time></trkpt><trkpt lat="43.8318067" lon="11.5511983"><ele>857.0</ele><time>2026-05-02T16:31:18.04Z</time></trkpt><trkpt lat="43.8317917" lon="11.5511083"><ele>855.0</ele><time>2026-05-02T16:31:19.038Z</time></trkpt><trkpt lat="43.8317733" lon="11.5510167"><ele>853.0000000000001</ele><time>2026-05-02T16:31:20.039Z</time></trkpt><trkpt lat="43.8317517" lon="11.5509283"><ele>851.0</ele><time>2026-05-02T16:31:21.04Z</time></trkpt><trkpt lat="43.8317167" lon="11.5508517"><ele>850.8</ele><time>2026-05-02T16:31:22.038Z</time></trkpt><trkpt lat="43.8316817" lon="11.5507533"><ele>850.5999999999999</ele><time>2026-05-02T16:31:24.038Z</time></trkpt><trkpt lat="43.8317517" lon="11.55066"><ele>850.4</ele><time>2026-05-02T16:32:05.028Z</time></trkpt><trkpt lat="43.8318183" lon="11.5505183"><ele>850.2</ele><time>2026-05-02T16:32:07.038Z</time></trkpt><trkpt lat="43.831875" lon="11.550445"><ele>850.0</ele><time>2026-05-02T16:32:08.04Z</time></trkpt><trkpt lat="43.8319333" lon="11.5503583"><ele>846.8333333333333</ele><time>2026-05-02T16:32:09.038Z</time></trkpt><trkpt lat="43.8319883" lon="11.5502583"><ele>843.6666666666666</ele><time>2026-05-02T16:32:10.037Z</time></trkpt><trkpt lat="43.8320433" lon="11.5501717"><ele>840.5</ele><time>2026-05-02T16:32:11.039Z</time></trkpt><trkpt lat="43.8320667" lon="11.5500883"><ele>837.3333333333333</ele><time>2026-05-02T16:32:12.04Z</time></trkpt><trkpt lat="43.8320967" lon="11.54992"><ele>834.1666666666666</ele><time>2026-05-02T16:32:14.039Z</time></trkpt><trkpt lat="43.8320983" lon="11.5498167"><ele>831.0</ele><time>2026-05-02T16:32:15.037Z</time></trkpt><trkpt lat="43.8321117" lon="11.5497117"><ele>830.9999999999999</ele><time>2026-05-02T16:32:16.029Z</time></trkpt><trkpt lat="43.83214" lon="11.5496083"><ele>831.0</ele><time>2026-05-02T16:32:17.037Z</time></trkpt><trkpt lat="43.83217" lon="11.5495283"><ele>831.0</ele><time>2026-05-02T16:32:18.039Z</time></trkpt><trkpt lat="43.8321833" lon="11.5494417"><ele>831.0</ele><time>2026-05-02T16:32:19.038Z</time></trkpt><trkpt lat="43.8321817" lon="11.54935"><ele>831.0</ele><time>2026-05-02T16:32:20.04Z</time></trkpt><trkpt lat="43.832175" lon="11.5492533"><ele>830.9999999999999</ele><time>2026-05-02T16:32:21.037Z</time></trkpt><trkpt lat="43.8321517" lon="11.5491583"><ele>831.0</ele><time>2026-05-02T16:32:22.037Z</time></trkpt><trkpt lat="43.8321267" lon="11.5490717"><ele>829.5</ele><time>2026-05-02T16:32:23.037Z</time></trkpt><trkpt lat="43.8320783" lon="11.5489367"><ele>828.0</ele><time>2026-05-02T16:32:25.037Z</time></trkpt><trkpt lat="43.832055" lon="11.5488067"><ele>826.5</ele><time>2026-05-02T16:32:27.038Z</time></trkpt><trkpt lat="43.83206" lon="11.5486583"><ele>825.0</ele><time>2026-05-02T16:32:29.041Z</time></trkpt><trkpt lat="43.83204" lon="11.5484683"><ele>822.8333333333334</ele><time>2026-05-02T16:32:31.04Z</time></trkpt><trkpt lat="43.83202" lon="11.5483567"><ele>820.6666666666667</ele><time>2026-05-02T16:32:32.042Z</time></trkpt><trkpt lat="43.832005" lon="11.5482517"><ele>818.5</ele><time>2026-05-02T16:32:33.042Z</time></trkpt><trkpt lat="43.8320017" lon="11.54815"><ele>816.3333333333334</ele><time>2026-05-02T16:32:34.04Z</time></trkpt><trkpt lat="43.8320517" lon="11.5479983"><ele>814.1666666666667</ele><time>2026-05-02T16:32:36.042Z</time></trkpt><trkpt lat="43.8320867" lon="11.5479217"><ele>812.0</ele><time>2026-05-02T16:32:37.041Z</time></trkpt><trkpt lat="43.8321183" lon="11.54784"><ele>810.4000000000001</ele><time>2026-05-02T16:32:38.041Z</time></trkpt><trkpt lat="43.83215" lon="11.54776"><ele>808.8000000000001</ele><time>2026-05-02T16:32:39.041Z</time></trkpt><trkpt lat="43.8322183" lon="11.54766"><ele>807.2</ele><time>2026-05-02T16:32:41.039Z</time></trkpt><trkpt lat="43.8322983" lon="11.5475833"><ele>805.6</ele><time>2026-05-02T16:32:43.039Z</time></trkpt><trkpt lat="43.8323783" lon="11.547465"><ele>804.0</ele><time>2026-05-02T16:32:45.039Z</time></trkpt><trkpt lat="43.832455" lon="11.547355"><ele>804.0</ele><time>2026-05-02T16:32:47.039Z</time></trkpt><trkpt lat="43.8325367" lon="11.54724"><ele>804.0</ele><time>2026-05-02T16:32:49.038Z</time></trkpt><trkpt lat="43.8326083" lon="11.5471283"><ele>804.0</ele><time>2026-05-02T16:32:51.039Z</time></trkpt><trkpt lat="43.8326917" lon="11.5470367"><ele>804.0</ele><time>2026-05-02T16:32:53.039Z</time></trkpt><trkpt lat="43.8327517" lon="11.5469983"><ele>804.0</ele><time>2026-05-02T16:32:54.04Z</time></trkpt><trkpt lat="43.83287" lon="11.5469467"><ele>801.6</ele><time>2026-05-02T16:32:56.041Z</time></trkpt><trkpt lat="43.8329667" lon="11.54689"><ele>799.2</ele><time>2026-05-02T16:32:58.039Z</time></trkpt><trkpt lat="43.8330383" lon="11.54678"><ele>796.8000000000001</ele><time>2026-05-02T16:33:00.04Z</time></trkpt><trkpt lat="43.8330733" lon="11.546635"><ele>794.4000000000001</ele><time>2026-05-02T16:33:02.04Z</time></trkpt><trkpt lat="43.833095" lon="11.5465117"><ele>792.0</ele><time>2026-05-02T16:33:04.039Z</time></trkpt><trkpt lat="43.833125" lon="11.5463933"><ele>792.0</ele><time>2026-05-02T16:33:06.041Z</time></trkpt><trkpt lat="43.8331433" lon="11.5462967"><ele>792.0</ele><time>2026-05-02T16:33:08.041Z</time></trkpt><trkpt lat="43.83315" lon="11.54615"><ele>792.0</ele><time>2026-05-02T16:33:10.038Z</time></trkpt><trkpt lat="43.833175" lon="11.5459967"><ele>792.0</ele><time>2026-05-02T16:33:12.029Z</time></trkpt><trkpt lat="43.8331867" lon="11.5458817"><ele>792.0</ele><time>2026-05-02T16:33:14.04Z</time></trkpt><trkpt lat="43.83321" lon="11.5457833"><ele>790.8</ele><time>2026-05-02T16:33:16.038Z</time></trkpt><trkpt lat="43.8332333" lon="11.5456633"><ele>789.6</ele><time>2026-05-02T16:33:18.039Z</time></trkpt><trkpt lat="43.8332583" lon="11.5455517"><ele>788.4</ele><time>2026-05-02T16:33:20.04Z</time></trkpt><trkpt lat="43.8333283" lon="11.5454267"><ele>787.1999999999999</ele><time>2026-05-02T16:33:24.038Z</time></trkpt><trkpt lat="43.8333617" lon="11.5453467"><ele>786.0</ele><time>2026-05-02T16:33:25.039Z</time></trkpt><trkpt lat="43.8333833" lon="11.545175"><ele>784.0</ele><time>2026-05-02T16:33:27.038Z</time></trkpt><trkpt lat="43.833395" lon="11.5450217"><ele>782.0</ele><time>2026-05-02T16:33:29.039Z</time></trkpt><trkpt lat="43.83343" lon="11.5449117"><ele>780.0</ele><time>2026-05-02T16:33:31.039Z</time></trkpt><trkpt lat="43.8334983" lon="11.5448167"><ele>778.0</ele><time>2026-05-02T16:33:33.039Z</time></trkpt><trkpt lat="43.8335733" lon="11.5447417"><ele>776.0</ele><time>2026-05-02T16:33:35.04Z</time></trkpt><trkpt lat="43.83365" lon="11.544685"><ele>774.0</ele><time>2026-05-02T16:33:37.042Z</time></trkpt><trkpt lat="43.8337733" lon="11.5446067"><ele>772.0</ele><time>2026-05-02T16:33:39.041Z</time></trkpt><trkpt lat="43.8338467" lon="11.5445683"><ele>770.0</ele><time>2026-05-02T16:33:40.039Z</time></trkpt><trkpt lat="43.83392" lon="11.5445383"><ele>768.0</ele><time>2026-05-02T16:33:41.04Z</time></trkpt><trkpt lat="43.8339817" lon="11.5445117"><ele>766.0</ele><time>2026-05-02T16:33:42.038Z</time></trkpt><trkpt lat="43.83408" lon="11.5444567"><ele>766.0</ele><time>2026-05-02T16:33:44.041Z</time></trkpt><trkpt lat="43.83414" lon="11.544425"><ele>766.0</ele><time>2026-05-02T16:33:45.038Z</time></trkpt><trkpt lat="43.8342117" lon="11.5444033"><ele>766.0</ele><time>2026-05-02T16:33:46.039Z</time></trkpt><trkpt lat="43.8342817" lon="11.5443783"><ele>766.0</ele><time>2026-05-02T16:33:47.04Z</time></trkpt><trkpt lat="43.83434" lon="11.544345"><ele>766.0</ele><time>2026-05-02T16:33:48.04Z</time></trkpt><trkpt lat="43.8344133" lon="11.5442183"><ele>766.0</ele><time>2026-05-02T16:33:50.042Z</time></trkpt><trkpt lat="43.8344" lon="11.5440583"><ele>766.0</ele><time>2026-05-02T16:33:52.038Z</time></trkpt><trkpt lat="43.8343717" lon="11.543975"><ele>766.0</ele><time>2026-05-02T16:33:53.038Z</time></trkpt><trkpt lat="43.8342883" lon="11.54384"><ele>766.0</ele><time>2026-05-02T16:33:55.039Z</time></trkpt><trkpt lat="43.834245" lon="11.543775"><ele>766.0</ele><time>2026-05-02T16:33:56.041Z</time></trkpt><trkpt lat="43.8342033" lon="11.5437083"><ele>766.0</ele><time>2026-05-02T16:33:57.039Z</time></trkpt><trkpt lat="43.8341533" lon="11.5436533"><ele>766.0</ele><time>2026-05-02T16:33:58.037Z</time></trkpt><trkpt lat="43.8341117" lon="11.5435867"><ele>766.0</ele><time>2026-05-02T16:33:59.038Z</time></trkpt><trkpt lat="43.8340417" lon="11.5434583"><ele>764.1999999999999</ele><time>2026-05-02T16:34:01.038Z</time></trkpt><trkpt lat="43.8340017" lon="11.5433617"><ele>762.4</ele><time>2026-05-02T16:34:03.039Z</time></trkpt><trkpt lat="43.8339517" lon="11.5433"><ele>760.6</ele><time>2026-05-02T16:34:05.039Z</time></trkpt><trkpt lat="43.83391" lon="11.5431583"><ele>758.8</ele><time>2026-05-02T16:34:07.039Z</time></trkpt><trkpt lat="43.8338433" lon="11.5430467"><ele>757.0</ele><time>2026-05-02T16:34:09.04Z</time></trkpt><trkpt lat="43.8337683" lon="11.5429433"><ele>755.6666666666667</ele><time>2026-05-02T16:34:11.039Z</time></trkpt><trkpt lat="43.833715" lon="11.5427767"><ele>754.3333333333334</ele><time>2026-05-02T16:34:13.04Z</time></trkpt><trkpt lat="43.833715" lon="11.5426817"><ele>753.0</ele><time>2026-05-02T16:34:14.041Z</time></trkpt><trkpt lat="43.8337333" lon="11.54258"><ele>751.6666666666666</ele><time>2026-05-02T16:34:15.039Z</time></trkpt><trkpt lat="43.8337783" lon="11.542495"><ele>750.3333333333333</ele><time>2026-05-02T16:34:16.039Z</time></trkpt><trkpt lat="43.8338333" lon="11.5424283"><ele>749.0</ele><time>2026-05-02T16:34:17.039Z</time></trkpt><trkpt lat="43.83389" lon="11.5423717"><ele>749.0</ele><time>2026-05-02T16:34:18.04Z</time></trkpt><trkpt lat="43.83395" lon="11.5423333"><ele>749.0</ele><time>2026-05-02T16:34:19.039Z</time></trkpt><trkpt lat="43.8340083" lon="11.5422983"><ele>749.0</ele><time>2026-05-02T16:34:20.04Z</time></trkpt><trkpt lat="43.8340717" lon="11.5422667"><ele>749.0</ele><time>2026-05-02T16:34:21.032Z</time></trkpt><trkpt lat="43.83413" lon="11.5422333"><ele>749.0</ele><time>2026-05-02T16:34:22.038Z</time></trkpt><trkpt lat="43.8342367" lon="11.5421683"><ele>749.0</ele><time>2026-05-02T16:34:24.039Z</time></trkpt><trkpt lat="43.8343367" lon="11.5420933"><ele>743.6</ele><time>2026-05-02T16:34:26.039Z</time></trkpt><trkpt lat="43.8343883" lon="11.5420367"><ele>738.2</ele><time>2026-05-02T16:34:27.039Z</time></trkpt><trkpt lat="43.83445" lon="11.5419117"><ele>732.8000000000001</ele><time>2026-05-02T16:34:29.039Z</time></trkpt><trkpt lat="43.8344667" lon="11.5417617"><ele>727.4000000000001</ele><time>2026-05-02T16:34:31.039Z</time></trkpt><trkpt lat="43.8344883" lon="11.5416067"><ele>722.0</ele><time>2026-05-02T16:34:33.041Z</time></trkpt><trkpt lat="43.8345133" lon="11.5414533"><ele>722.0</ele><time>2026-05-02T16:34:35.042Z</time></trkpt><trkpt lat="43.8345467" lon="11.5413133"><ele>722.0</ele><time>2026-05-02T16:34:37.042Z</time></trkpt><trkpt lat="43.8345617" lon="11.54121"><ele>722.0</ele><time>2026-05-02T16:34:39.04Z</time></trkpt><trkpt lat="43.8345817" lon="11.5410917"><ele>722.0</ele><time>2026-05-02T16:34:41.039Z</time></trkpt><trkpt lat="43.8345983" lon="11.54094"><ele>722.0</ele><time>2026-05-02T16:34:43.039Z</time></trkpt><trkpt lat="43.8345933" lon="11.5407833"><ele>721.0</ele><time>2026-05-02T16:34:45.039Z</time></trkpt><trkpt lat="43.834575" lon="11.5406533"><ele>720.0</ele><time>2026-05-02T16:34:47.039Z</time></trkpt><trkpt lat="43.8345683" lon="11.540545"><ele>719.0</ele><time>2026-05-02T16:34:49.04Z</time></trkpt><trkpt lat="43.8345483" lon="11.5404283"><ele>718.0</ele><time>2026-05-02T16:34:51.029Z</time></trkpt><trkpt lat="43.834535" lon="11.5403183"><ele>717.0</ele><time>2026-05-02T16:34:53.042Z</time></trkpt><trkpt lat="43.8345017" lon="11.5401633"><ele>716.0</ele><time>2026-05-02T16:34:55.039Z</time></trkpt><trkpt lat="43.8344783" lon="11.54007"><ele>715.0</ele><time>2026-05-02T16:34:56.039Z</time></trkpt><trkpt lat="43.8344617" lon="11.5399667"><ele>714.0</ele><time>2026-05-02T16:34:57.039Z</time></trkpt><trkpt lat="43.8344567" lon="11.53987"><ele>713.0</ele><time>2026-05-02T16:34:58.04Z</time></trkpt><trkpt lat="43.834475" lon="11.5396867"><ele>712.0</ele><time>2026-05-02T16:35:00.039Z</time></trkpt><trkpt lat="43.8344933" lon="11.5396"><ele>711.0</ele><time>2026-05-02T16:35:01.039Z</time></trkpt><trkpt lat="43.83452" lon="11.53952"><ele>711.0</ele><time>2026-05-02T16:35:02.04Z</time></trkpt><trkpt lat="43.8345933" lon="11.5393917"><ele>711.0</ele><time>2026-05-02T16:35:04.037Z</time></trkpt><trkpt lat="43.8346433" lon="11.5393367"><ele>711.0</ele><time>2026-05-02T16:35:05.039Z</time></trkpt><trkpt lat="43.83474" lon="11.5392483"><ele>711.0</ele><time>2026-05-02T16:35:07.04Z</time></trkpt><trkpt lat="43.8348417" lon="11.53914"><ele>711.0</ele><time>2026-05-02T16:35:09.038Z</time></trkpt><trkpt lat="43.8349017" lon="11.539085"><ele>711.0</ele><time>2026-05-02T16:35:10.039Z</time></trkpt><trkpt lat="43.8349617" lon="11.5390133"><ele>711.0</ele><time>2026-05-02T16:35:11.038Z</time></trkpt><trkpt lat="43.8350267" lon="11.5389317"><ele>711.0</ele><time>2026-05-02T16:35:12.037Z</time></trkpt><trkpt lat="43.8350933" lon="11.5388633"><ele>711.0</ele><time>2026-05-02T16:35:13.039Z</time></trkpt><trkpt lat="43.835155" lon="11.5387983"><ele>711.0</ele><time>2026-05-02T16:35:14.04Z</time></trkpt><trkpt lat="43.8352067" lon="11.5387283"><ele>711.0</ele><time>2026-05-02T16:35:15.038Z</time></trkpt><trkpt lat="43.835245" lon="11.53863"><ele>708.1666666666666</ele><time>2026-05-02T16:35:16.037Z</time></trkpt><trkpt lat="43.8352633" lon="11.5385217"><ele>705.3333333333334</ele><time>2026-05-02T16:35:17.041Z</time></trkpt><trkpt lat="43.835265" lon="11.5384083"><ele>702.5</ele><time>2026-05-02T16:35:18.04Z</time></trkpt><trkpt lat="43.8352533" lon="11.538295"><ele>699.6666666666667</ele><time>2026-05-02T16:35:19.041Z</time></trkpt><trkpt lat="43.835235" lon="11.538175"><ele>696.8333333333334</ele><time>2026-05-02T16:35:20.041Z</time></trkpt><trkpt lat="43.8352267" lon="11.5380617"><ele>694.0</ele><time>2026-05-02T16:35:21.039Z</time></trkpt><trkpt lat="43.835225" lon="11.5379583"><ele>694.8333333333334</ele><time>2026-05-02T16:35:22.039Z</time></trkpt><trkpt lat="43.8352467" lon="11.5378667"><ele>695.6666666666667</ele><time>2026-05-02T16:35:23.039Z</time></trkpt><trkpt lat="43.8352833" lon="11.537775"><ele>696.5</ele><time>2026-05-02T16:35:24.039Z</time></trkpt><trkpt lat="43.83533" lon="11.53768"><ele>697.3333333333334</ele><time>2026-05-02T16:35:25.037Z</time></trkpt><trkpt lat="43.8353783" lon="11.5375967"><ele>698.1666666666666</ele><time>2026-05-02T16:35:26.039Z</time></trkpt><trkpt lat="43.8354267" lon="11.53751"><ele>699.0</ele><time>2026-05-02T16:35:27.039Z</time></trkpt><trkpt lat="43.8354617" lon="11.537415"><ele>699.0</ele><time>2026-05-02T16:35:28.04Z</time></trkpt><trkpt lat="43.8354783" lon="11.5373133"><ele>699.0</ele><time>2026-05-02T16:35:29.038Z</time></trkpt><trkpt lat="43.8354883" lon="11.5372133"><ele>699.0</ele><time>2026-05-02T16:35:30.04Z</time></trkpt><trkpt lat="43.8355033" lon="11.537105"><ele>699.0</ele><time>2026-05-02T16:35:31.04Z</time></trkpt><trkpt lat="43.8355217" lon="11.5369983"><ele>699.0</ele><time>2026-05-02T16:35:32.04Z</time></trkpt><trkpt lat="43.83554" lon="11.5369133"><ele>699.0</ele><time>2026-05-02T16:35:33.039Z</time></trkpt><trkpt lat="43.8356167" lon="11.5367717"><ele>698.5714285714286</ele><time>2026-05-02T16:35:35.039Z</time></trkpt><trkpt lat="43.8356733" lon="11.536715"><ele>698.1428571428572</ele><time>2026-05-02T16:35:36.041Z</time></trkpt><trkpt lat="43.8357267" lon="11.5366383"><ele>697.7142857142858</ele><time>2026-05-02T16:35:37.039Z</time></trkpt><trkpt lat="43.8357717" lon="11.5365633"><ele>697.2857142857142</ele><time>2026-05-02T16:35:38.039Z</time></trkpt><trkpt lat="43.8358083" lon="11.53649"><ele>696.8571428571429</ele><time>2026-05-02T16:35:39.037Z</time></trkpt><trkpt lat="43.8358533" lon="11.5364033"><ele>696.4285714285714</ele><time>2026-05-02T16:35:41.039Z</time></trkpt><trkpt lat="43.83587" lon="11.5363183"><ele>696.0</ele><time>2026-05-02T16:35:44.041Z</time></trkpt><trkpt lat="43.8358717" lon="11.5362067"><ele>695.1428571428571</ele><time>2026-05-02T16:35:46.039Z</time></trkpt><trkpt lat="43.835895" lon="11.536125"><ele>694.2857142857143</ele><time>2026-05-02T16:35:48.037Z</time></trkpt><trkpt lat="43.835875" lon="11.5360317"><ele>693.4285714285714</ele><time>2026-05-02T16:36:42.037Z</time></trkpt><trkpt lat="43.8358733" lon="11.535935"><ele>692.5714285714286</ele><time>2026-05-02T16:36:43.037Z</time></trkpt><trkpt lat="43.8358617" lon="11.5358383"><ele>691.7142857142857</ele><time>2026-05-02T16:36:44.039Z</time></trkpt><trkpt lat="43.835875" lon="11.5357367"><ele>690.8571428571429</ele><time>2026-05-02T16:36:45.038Z</time></trkpt><trkpt lat="43.8358717" lon="11.53563"><ele>690.0</ele><time>2026-05-02T16:36:46.039Z</time></trkpt><trkpt lat="43.8358667" lon="11.5355167"><ele>690.0</ele><time>2026-05-02T16:36:47.037Z</time></trkpt><trkpt lat="43.8358917" lon="11.5354083"><ele>690.0</ele><time>2026-05-02T16:36:48.039Z</time></trkpt><trkpt lat="43.83589" lon="11.5353117"><ele>690.0</ele><time>2026-05-02T16:36:49.038Z</time></trkpt><trkpt lat="43.83589" lon="11.5352117"><ele>690.0</ele><time>2026-05-02T16:36:50.041Z</time></trkpt><trkpt lat="43.8358967" lon="11.5351083"><ele>690.0</ele><time>2026-05-02T16:36:51.029Z</time></trkpt><trkpt lat="43.8359017" lon="11.5350133"><ele>690.0</ele><time>2026-05-02T16:36:52.039Z</time></trkpt><trkpt lat="43.8359117" lon="11.534925"><ele>690.0</ele><time>2026-05-02T16:36:53.038Z</time></trkpt><trkpt lat="43.8359233" lon="11.5348317"><ele>689.3333333333334</ele><time>2026-05-02T16:36:54.04Z</time></trkpt><trkpt lat="43.835935" lon="11.53474"><ele>688.6666666666666</ele><time>2026-05-02T16:36:55.039Z</time></trkpt><trkpt lat="43.8359917" lon="11.5345933"><ele>688.0</ele><time>2026-05-02T16:36:57.038Z</time></trkpt><trkpt lat="43.836035" lon="11.5345133"><ele>687.3333333333333</ele><time>2026-05-02T16:36:58.038Z</time></trkpt><trkpt lat="43.8360717" lon="11.5344333"><ele>686.6666666666666</ele><time>2026-05-02T16:36:59.039Z</time></trkpt><trkpt lat="43.8361167" lon="11.5343567"><ele>686.0</ele><time>2026-05-02T16:37:00.041Z</time></trkpt><trkpt lat="43.8361667" lon="11.534285"><ele>682.8</ele><time>2026-05-02T16:37:01.04Z</time></trkpt><trkpt lat="43.83622" lon="11.5341517"><ele>679.5999999999999</ele><time>2026-05-02T16:37:03.04Z</time></trkpt><trkpt lat="43.8362417" lon="11.53406"><ele>676.4</ele><time>2026-05-02T16:37:04.039Z</time></trkpt><trkpt lat="43.836265" lon="11.5339583"><ele>673.2</ele><time>2026-05-02T16:37:05.04Z</time></trkpt><trkpt lat="43.836305" lon="11.5338417"><ele>670.0</ele><time>2026-05-02T16:37:06.041Z</time></trkpt><trkpt lat="43.83635" lon="11.5337133"><ele>670.0</ele><time>2026-05-02T16:37:07.039Z</time></trkpt><trkpt lat="43.8363983" lon="11.5335917"><ele>670.0</ele><time>2026-05-02T16:37:08.041Z</time></trkpt><trkpt lat="43.8364533" lon="11.5335083"><ele>670.0</ele><time>2026-05-02T16:37:09.04Z</time></trkpt><trkpt lat="43.83651" lon="11.5334483"><ele>670.0</ele><time>2026-05-02T16:37:10.039Z</time></trkpt><trkpt lat="43.83663" lon="11.533415"><ele>670.0</ele><time>2026-05-02T16:37:12.041Z</time></trkpt><trkpt lat="43.83673" lon="11.5334433"><ele>670.0</ele><time>2026-05-02T16:37:14.042Z</time></trkpt><trkpt lat="43.8367967" lon="11.5334417"><ele>670.0</ele><time>2026-05-02T16:37:16.039Z</time></trkpt><trkpt lat="43.8368683" lon="11.5333833"><ele>670.0</ele><time>2026-05-02T16:37:18.039Z</time></trkpt><trkpt lat="43.836935" lon="11.5332633"><ele>670.0</ele><time>2026-05-02T16:37:20.042Z</time></trkpt><trkpt lat="43.8370083" lon="11.5331833"><ele>670.0</ele><time>2026-05-02T16:37:22.04Z</time></trkpt><trkpt lat="43.837075" lon="11.5331617"><ele>670.0</ele><time>2026-05-02T16:37:24.04Z</time></trkpt><trkpt lat="43.8371567" lon="11.53316"><ele>666.2</ele><time>2026-05-02T16:37:26.041Z</time></trkpt><trkpt lat="43.8372483" lon="11.5331567"><ele>662.4</ele><time>2026-05-02T16:37:29.03Z</time></trkpt><trkpt lat="43.837325" lon="11.5331217"><ele>658.5999999999999</ele><time>2026-05-02T16:37:31.04Z</time></trkpt><trkpt lat="43.8374167" lon="11.5330433"><ele>654.8</ele><time>2026-05-02T16:37:33.038Z</time></trkpt><trkpt lat="43.8374733" lon="11.532955"><ele>651.0</ele><time>2026-05-02T16:37:35.039Z</time></trkpt><trkpt lat="43.83752" lon="11.5328367"><ele>650.0</ele><time>2026-05-02T16:37:38.04Z</time></trkpt><trkpt lat="43.8375617" lon="11.53274"><ele>649.0</ele><time>2026-05-02T16:37:40.041Z</time></trkpt><trkpt lat="43.83762" lon="11.53269"><ele>648.0</ele><time>2026-05-02T16:37:42.038Z</time></trkpt><trkpt lat="43.8377033" lon="11.5326383"><ele>647.0</ele><time>2026-05-02T16:37:45.04Z</time></trkpt><trkpt lat="43.8377767" lon="11.532605"><ele>646.0</ele><time>2026-05-02T16:37:48.037Z</time></trkpt><trkpt lat="43.83785" lon="11.5325367"><ele>645.0</ele><time>2026-05-02T16:37:51.038Z</time></trkpt><trkpt lat="43.837925" lon="11.5324567"><ele>641.1666666666666</ele><time>2026-05-02T16:37:53.039Z</time></trkpt><trkpt lat="43.8379233" lon="11.5323317"><ele>637.3333333333334</ele><time>2026-05-02T16:37:56.039Z</time></trkpt><trkpt lat="43.8379033" lon="11.53221"><ele>633.5</ele><time>2026-05-02T16:37:58.038Z</time></trkpt><trkpt lat="43.8379" lon="11.53212"><ele>629.6666666666667</ele><time>2026-05-02T16:37:59.038Z</time></trkpt><trkpt lat="43.8378917" lon="11.5320183"><ele>625.8333333333334</ele><time>2026-05-02T16:38:00.038Z</time></trkpt><trkpt lat="43.8378817" lon="11.5319067"><ele>622.0</ele><time>2026-05-02T16:38:01.038Z</time></trkpt><trkpt lat="43.8378583" lon="11.53181"><ele>621.8333333333334</ele><time>2026-05-02T16:38:02.04Z</time></trkpt><trkpt lat="43.8378267" lon="11.53173"><ele>621.6666666666667</ele><time>2026-05-02T16:38:03.038Z</time></trkpt><trkpt lat="43.837755" lon="11.53166"><ele>621.5</ele><time>2026-05-02T16:38:05.038Z</time></trkpt><trkpt lat="43.8376633" lon="11.531625"><ele>621.3333333333334</ele><time>2026-05-02T16:38:07.04Z</time></trkpt><trkpt lat="43.837555" lon="11.5315883"><ele>621.1666666666666</ele><time>2026-05-02T16:38:09.038Z</time></trkpt><trkpt lat="43.837515" lon="11.5314933"><ele>621.0</ele><time>2026-05-02T16:38:15.038Z</time></trkpt><trkpt lat="43.8375567" lon="11.5314067"><ele>621.0</ele><time>2026-05-02T16:38:17.039Z</time></trkpt><trkpt lat="43.8376217" lon="11.5313383"><ele>621.0</ele><time>2026-05-02T16:38:19.039Z</time></trkpt><trkpt lat="43.8377017" lon="11.5312933"><ele>621.0</ele><time>2026-05-02T16:38:21.03Z</time></trkpt><trkpt lat="43.8377817" lon="11.5312167"><ele>621.0</ele><time>2026-05-02T16:38:23.039Z</time></trkpt><trkpt lat="43.8378617" lon="11.53114"><ele>621.0</ele><time>2026-05-02T16:38:25.039Z</time></trkpt><trkpt lat="43.8379283" lon="11.5310617"><ele>619.6666666666666</ele><time>2026-05-02T16:38:28.038Z</time></trkpt><trkpt lat="43.83798" lon="11.5310117"><ele>618.3333333333334</ele><time>2026-05-02T16:38:32.04Z</time></trkpt><trkpt lat="43.83802" lon="11.5309367"><ele>617.0</ele><time>2026-05-02T16:38:36.029Z</time></trkpt><trkpt lat="43.8380833" lon="11.5308683"><ele>615.6666666666667</ele><time>2026-05-02T16:38:39.038Z</time></trkpt><trkpt lat="43.838155" lon="11.53078"><ele>614.3333333333334</ele><time>2026-05-02T16:38:41.039Z</time></trkpt><trkpt lat="43.8382483" lon="11.5307267"><ele>613.0</ele><time>2026-05-02T16:38:43.038Z</time></trkpt><trkpt lat="43.83835" lon="11.53064"><ele>613.0</ele><time>2026-05-02T16:38:45.038Z</time></trkpt><trkpt lat="43.83846" lon="11.5306067"><ele>613.0</ele><time>2026-05-02T16:38:47.037Z</time></trkpt><trkpt lat="43.83856" lon="11.53056"><ele>613.0</ele><time>2026-05-02T16:38:49.04Z</time></trkpt><trkpt lat="43.8386283" lon="11.5305117"><ele>613.0</ele><time>2026-05-02T16:38:51.038Z</time></trkpt><trkpt lat="43.8387233" lon="11.5305233"><ele>613.0</ele><time>2026-05-02T16:38:53.039Z</time></trkpt><trkpt lat="43.838825" lon="11.5305117"><ele>610.0</ele><time>2026-05-02T16:38:55.038Z</time></trkpt><trkpt lat="43.8389317" lon="11.5304817"><ele>607.0</ele><time>2026-05-02T16:38:57.039Z</time></trkpt><trkpt lat="43.8390233" lon="11.530435"><ele>604.0</ele><time>2026-05-02T16:38:59.038Z</time></trkpt><trkpt lat="43.8390833" lon="11.5303533"><ele>601.0</ele><time>2026-05-02T16:39:01.038Z</time></trkpt><trkpt lat="43.8391183" lon="11.5302483"><ele>598.0</ele><time>2026-05-02T16:39:03.038Z</time></trkpt><trkpt lat="43.839145" lon="11.5301433"><ele>596.6666666666667</ele><time>2026-05-02T16:39:05.037Z</time></trkpt><trkpt lat="43.8391717" lon="11.53004"><ele>595.3333333333334</ele><time>2026-05-02T16:39:07.039Z</time></trkpt><trkpt lat="43.83922" lon="11.5299317"><ele>594.0</ele><time>2026-05-02T16:39:09.039Z</time></trkpt><trkpt lat="43.8392617" lon="11.5298217"><ele>592.6666666666666</ele><time>2026-05-02T16:39:11.039Z</time></trkpt><trkpt lat="43.8392783" lon="11.529725"><ele>591.3333333333333</ele><time>2026-05-02T16:39:13.039Z</time></trkpt><trkpt lat="43.8392467" lon="11.529605"><ele>590.0</ele><time>2026-05-02T16:39:15.037Z</time></trkpt><trkpt lat="43.8392067" lon="11.5294633"><ele>587.8</ele><time>2026-05-02T16:39:17.039Z</time></trkpt><trkpt lat="43.839195" lon="11.5293067"><ele>585.6</ele><time>2026-05-02T16:39:19.039Z</time></trkpt><trkpt lat="43.8392" lon="11.5291633"><ele>583.4</ele><time>2026-05-02T16:39:21.042Z</time></trkpt><trkpt lat="43.839225" lon="11.5290433"><ele>581.2</ele><time>2026-05-02T16:39:23.04Z</time></trkpt><trkpt lat="43.83932" lon="11.5290267"><ele>579.0</ele><time>2026-05-02T16:39:26.041Z</time></trkpt><trkpt lat="43.8394033" lon="11.5290367"><ele>574.3333333333334</ele><time>2026-05-02T16:39:28.039Z</time></trkpt><trkpt lat="43.839425" lon="11.5288967"><ele>569.6666666666666</ele><time>2026-05-02T16:39:31.038Z</time></trkpt><trkpt lat="43.83944" lon="11.5287967"><ele>565.0</ele><time>2026-05-02T16:39:33.037Z</time></trkpt><trkpt lat="43.8394583" lon="11.5286883"><ele>560.3333333333333</ele><time>2026-05-02T16:39:35.038Z</time></trkpt><trkpt lat="43.8394617" lon="11.5285683"><ele>555.6666666666666</ele><time>2026-05-02T16:39:37.039Z</time></trkpt><trkpt lat="43.839515" lon="11.5284567"><ele>551.0</ele><time>2026-05-02T16:39:40.037Z</time></trkpt><trkpt lat="43.8395583" lon="11.52835"><ele>550.0</ele><time>2026-05-02T16:39:42.037Z</time></trkpt><trkpt lat="43.8396067" lon="11.52823"><ele>549.0</ele><time>2026-05-02T16:39:44.045Z</time></trkpt><trkpt lat="43.8396617" lon="11.5281267"><ele>548.0</ele><time>2026-05-02T16:39:46.038Z</time></trkpt><trkpt lat="43.8396833" lon="11.5280067"><ele>547.0</ele><time>2026-05-02T16:39:48.039Z</time></trkpt><trkpt lat="43.8396683" lon="11.52786"><ele>546.0</ele><time>2026-05-02T16:39:50.041Z</time></trkpt><trkpt lat="43.8396617" lon="11.5277333"><ele>544.8</ele><time>2026-05-02T16:39:52.039Z</time></trkpt><trkpt lat="43.8396483" lon="11.5275983"><ele>543.6</ele><time>2026-05-02T16:39:54.04Z</time></trkpt><trkpt lat="43.8396417" lon="11.52745"><ele>542.4</ele><time>2026-05-02T16:39:56.04Z</time></trkpt><trkpt lat="43.8396733" lon="11.5272883"><ele>541.2</ele><time>2026-05-02T16:39:58.038Z</time></trkpt><trkpt lat="43.8397083" lon="11.527125"><ele>540.0</ele><time>2026-05-02T16:40:00.039Z</time></trkpt><trkpt lat="43.83974" lon="11.5270483"><ele>538.5</ele><time>2026-05-02T16:40:01.038Z</time></trkpt><trkpt lat="43.8397783" lon="11.5269733"><ele>537.0</ele><time>2026-05-02T16:40:02.04Z</time></trkpt><trkpt lat="43.8398133" lon="11.5269"><ele>535.5</ele><time>2026-05-02T16:40:03.039Z</time></trkpt><trkpt lat="43.8398467" lon="11.5268233"><ele>534.0</ele><time>2026-05-02T16:40:04.044Z</time></trkpt><trkpt lat="43.8399117" lon="11.526695"><ele>532.5</ele><time>2026-05-02T16:40:06.042Z</time></trkpt><trkpt lat="43.8399867" lon="11.5266267"><ele>531.0</ele><time>2026-05-02T16:40:08.039Z</time></trkpt><trkpt lat="43.8400617" lon="11.5265867"><ele>526.8</ele><time>2026-05-02T16:40:10.038Z</time></trkpt><trkpt lat="43.8401583" lon="11.5265633"><ele>522.6</ele><time>2026-05-02T16:40:13.038Z</time></trkpt><trkpt lat="43.8402317" lon="11.526505"><ele>518.4</ele><time>2026-05-02T16:40:15.04Z</time></trkpt><trkpt lat="43.8402967" lon="11.5264167"><ele>514.2</ele><time>2026-05-02T16:40:17.039Z</time></trkpt><trkpt lat="43.840335" lon="11.52629"><ele>510.0</ele><time>2026-05-02T16:40:19.038Z</time></trkpt><trkpt lat="43.840365" lon="11.5261567"><ele>510.0</ele><time>2026-05-02T16:40:21.038Z</time></trkpt><trkpt lat="43.8404083" lon="11.5260283"><ele>510.0</ele><time>2026-05-02T16:40:23.04Z</time></trkpt><trkpt lat="43.8404467" lon="11.5258983"><ele>510.0</ele><time>2026-05-02T16:40:25.039Z</time></trkpt><trkpt lat="43.84049" lon="11.5257483"><ele>510.0</ele><time>2026-05-02T16:40:27.039Z</time></trkpt><trkpt lat="43.840545" lon="11.5256083"><ele>510.0</ele><time>2026-05-02T16:40:29.038Z</time></trkpt><trkpt lat="43.8406167" lon="11.525505"><ele>509.0</ele><time>2026-05-02T16:40:31.039Z</time></trkpt><trkpt lat="43.8407017" lon="11.525395"><ele>508.0</ele><time>2026-05-02T16:40:33.037Z</time></trkpt><trkpt lat="43.8407533" lon="11.5252633"><ele>507.0</ele><time>2026-05-02T16:40:35.04Z</time></trkpt><trkpt lat="43.8408067" lon="11.5251033"><ele>506.0</ele><time>2026-05-02T16:40:37.037Z</time></trkpt><trkpt lat="43.8408533" lon="11.525035"><ele>505.0</ele><time>2026-05-02T16:40:38.039Z</time></trkpt><trkpt lat="43.8409067" lon="11.5249833"><ele>503.0</ele><time>2026-05-02T16:40:39.038Z</time></trkpt><trkpt lat="43.8409667" lon="11.5249533"><ele>501.0</ele><time>2026-05-02T16:40:40.038Z</time></trkpt><trkpt lat="43.8410283" lon="11.52493"><ele>499.0</ele><time>2026-05-02T16:40:41.039Z</time></trkpt><trkpt lat="43.84114" lon="11.5248867"><ele>497.0</ele><time>2026-05-02T16:40:43.037Z</time></trkpt><trkpt lat="43.841225" lon="11.5247983"><ele>495.0</ele><time>2026-05-02T16:40:45.038Z</time></trkpt><trkpt lat="43.8412867" lon="11.5246667"><ele>494.99999999999994</ele><time>2026-05-02T16:40:47.039Z</time></trkpt><trkpt lat="43.8413367" lon="11.5246067"><ele>495.0</ele><time>2026-05-02T16:40:48.038Z</time></trkpt><trkpt lat="43.8413933" lon="11.5245567"><ele>494.99999999999994</ele><time>2026-05-02T16:40:49.039Z</time></trkpt><trkpt lat="43.8414433" lon="11.5244967"><ele>494.99999999999994</ele><time>2026-05-02T16:40:50.04Z</time></trkpt><trkpt lat="43.8414783" lon="11.5244183"><ele>495.0</ele><time>2026-05-02T16:40:51.039Z</time></trkpt><trkpt lat="43.84151" lon="11.524335"><ele>494.99999999999994</ele><time>2026-05-02T16:40:52.041Z</time></trkpt><trkpt lat="43.8415367" lon="11.524245"><ele>494.99999999999994</ele><time>2026-05-02T16:40:53.041Z</time></trkpt><trkpt lat="43.8415617" lon="11.5241533"><ele>494.8333333333333</ele><time>2026-05-02T16:40:54.041Z</time></trkpt><trkpt lat="43.841595" lon="11.5240717"><ele>494.66666666666663</ele><time>2026-05-02T16:40:55.039Z</time></trkpt><trkpt lat="43.8416333" lon="11.524"><ele>494.5</ele><time>2026-05-02T16:40:56.04Z</time></trkpt><trkpt lat="43.8416733" lon="11.5239317"><ele>494.3333333333333</ele><time>2026-05-02T16:40:57.041Z</time></trkpt><trkpt lat="43.841715" lon="11.5238583"><ele>494.16666666666663</ele><time>2026-05-02T16:40:58.039Z</time></trkpt><trkpt lat="43.84176" lon="11.5237883"><ele>494.0</ele><time>2026-05-02T16:40:59.038Z</time></trkpt><trkpt lat="43.8418283" lon="11.5236467"><ele>490.0</ele><time>2026-05-02T16:41:01.038Z</time></trkpt><trkpt lat="43.841875" lon="11.5235067"><ele>486.0</ele><time>2026-05-02T16:41:03.039Z</time></trkpt><trkpt lat="43.8419267" lon="11.5233917"><ele>482.0</ele><time>2026-05-02T16:41:05.038Z</time></trkpt><trkpt lat="43.84201" lon="11.5232783"><ele>478.0</ele><time>2026-05-02T16:41:07.039Z</time></trkpt><trkpt lat="43.8420467" lon="11.5231833"><ele>474.0</ele><time>2026-05-02T16:41:09.039Z</time></trkpt><trkpt lat="43.8419867" lon="11.5230767"><ele>474.0</ele><time>2026-05-02T16:41:12.037Z</time></trkpt><trkpt lat="43.8420133" lon="11.5229317"><ele>474.0</ele><time>2026-05-02T16:41:14.04Z</time></trkpt><trkpt lat="43.8420367" lon="11.5228133"><ele>474.0</ele><time>2026-05-02T16:41:16.037Z</time></trkpt><trkpt lat="43.8420067" lon="11.5227083"><ele>474.0</ele><time>2026-05-02T16:41:18.039Z</time></trkpt><trkpt lat="43.8421217" lon="11.5226633"><ele>474.0</ele><time>2026-05-02T16:41:45.037Z</time></trkpt><trkpt lat="43.8421883" lon="11.5226467"><ele>472.1428571428571</ele><time>2026-05-02T16:41:46.037Z</time></trkpt><trkpt lat="43.8422567" lon="11.5226333"><ele>470.2857142857143</ele><time>2026-05-02T16:41:47.037Z</time></trkpt><trkpt lat="43.842335" lon="11.52262"><ele>468.42857142857144</ele><time>2026-05-02T16:41:48.037Z</time></trkpt><trkpt lat="43.8424117" lon="11.5226233"><ele>466.57142857142856</ele><time>2026-05-02T16:41:49.039Z</time></trkpt><trkpt lat="43.84249" lon="11.5226133"><ele>464.7142857142858</ele><time>2026-05-02T16:41:50.039Z</time></trkpt><trkpt lat="43.8425633" lon="11.52261"><ele>462.8571428571429</ele><time>2026-05-02T16:41:51.038Z</time></trkpt><trkpt lat="43.84263" lon="11.5226117"><ele>461.0</ele><time>2026-05-02T16:41:52.038Z</time></trkpt><trkpt lat="43.8427033" lon="11.52261"><ele>458.8333333333333</ele><time>2026-05-02T16:41:53.039Z</time></trkpt><trkpt lat="43.8427667" lon="11.5226133"><ele>456.66666666666663</ele><time>2026-05-02T16:41:54.039Z</time></trkpt><trkpt lat="43.8428333" lon="11.5226233"><ele>454.5</ele><time>2026-05-02T16:41:55.037Z</time></trkpt><trkpt lat="43.842955" lon="11.5226367"><ele>452.33333333333337</ele><time>2026-05-02T16:41:57.037Z</time></trkpt><trkpt lat="43.84302" lon="11.5226283"><ele>450.1666666666667</ele><time>2026-05-02T16:41:58.038Z</time></trkpt><trkpt lat="43.843085" lon="11.5226067"><ele>448.0</ele><time>2026-05-02T16:41:59.039Z</time></trkpt><trkpt lat="43.8431433" lon="11.5225617"><ele>448.0</ele><time>2026-05-02T16:42:00.039Z</time></trkpt><trkpt lat="43.8431933" lon="11.52244"><ele>447.99999999999994</ele><time>2026-05-02T16:42:02.04Z</time></trkpt><trkpt lat="43.84315" lon="11.522255"><ele>447.99999999999994</ele><time>2026-05-02T16:42:04.039Z</time></trkpt><trkpt lat="43.84311" lon="11.5221333"><ele>448.0</ele><time>2026-05-02T16:42:05.038Z</time></trkpt><trkpt lat="43.8430733" lon="11.5220167"><ele>448.0</ele><time>2026-05-02T16:42:06.037Z</time></trkpt><trkpt lat="43.8430383" lon="11.5219033"><ele>446.6666666666667</ele><time>2026-05-02T16:42:07.038Z</time></trkpt><trkpt lat="43.8429983" lon="11.5217933"><ele>445.33333333333337</ele><time>2026-05-02T16:42:08.039Z</time></trkpt><trkpt lat="43.84296" lon="11.5216783"><ele>444.0</ele><time>2026-05-02T16:42:09.04Z</time></trkpt><trkpt lat="43.8429217" lon="11.5215683"><ele>442.66666666666663</ele><time>2026-05-02T16:42:10.038Z</time></trkpt><trkpt lat="43.8428867" lon="11.5214583"><ele>441.3333333333333</ele><time>2026-05-02T16:42:11.039Z</time></trkpt><trkpt lat="43.842855" lon="11.5213533"><ele>440.0</ele><time>2026-05-02T16:42:12.038Z</time></trkpt><trkpt lat="43.8428217" lon="11.521265"><ele>437.6</ele><time>2026-05-02T16:42:13.038Z</time></trkpt><trkpt lat="43.8427933" lon="11.5211117"><ele>435.2</ele><time>2026-05-02T16:42:15.037Z</time></trkpt><trkpt lat="43.8428417" lon="11.5209817"><ele>432.79999999999995</ele><time>2026-05-02T16:42:17.038Z</time></trkpt><trkpt lat="43.8429067" lon="11.5209383"><ele>430.4</ele><time>2026-05-02T16:42:18.037Z</time></trkpt><trkpt lat="43.8429883" lon="11.5209067"><ele>428.0</ele><time>2026-05-02T16:42:19.038Z</time></trkpt><trkpt lat="43.8430767" lon="11.5208833"><ele>428.0</ele><time>2026-05-02T16:42:20.039Z</time></trkpt><trkpt lat="43.843165" lon="11.520855"><ele>427.99999999999994</ele><time>2026-05-02T16:42:21.038Z</time></trkpt><trkpt lat="43.8432617" lon="11.5208133"><ele>427.99999999999994</ele><time>2026-05-02T16:42:22.039Z</time></trkpt><trkpt lat="43.8433583" lon="11.5207683"><ele>428.0</ele><time>2026-05-02T16:42:23.037Z</time></trkpt><trkpt lat="43.84345" lon="11.52073"><ele>428.0</ele><time>2026-05-02T16:42:24.037Z</time></trkpt><trkpt lat="43.8435367" lon="11.5206967"><ele>425.8333333333333</ele><time>2026-05-02T16:42:25.038Z</time></trkpt><trkpt lat="43.8436233" lon="11.52067"><ele>423.66666666666663</ele><time>2026-05-02T16:42:26.039Z</time></trkpt><trkpt lat="43.843705" lon="11.5206617"><ele>421.5</ele><time>2026-05-02T16:42:27.039Z</time></trkpt><trkpt lat="43.8437767" lon="11.5206533"><ele>419.33333333333337</ele><time>2026-05-02T16:42:28.038Z</time></trkpt><trkpt lat="43.8438883" lon="11.52061"><ele>417.1666666666667</ele><time>2026-05-02T16:42:30.037Z</time></trkpt><trkpt lat="43.8439267" lon="11.5205217"><ele>415.0</ele><time>2026-05-02T16:42:32.039Z</time></trkpt><trkpt lat="43.8439917" lon="11.5204017"><ele>415.0</ele><time>2026-05-02T16:42:34.038Z</time></trkpt><trkpt lat="43.84411" lon="11.52038"><ele>415.0</ele><time>2026-05-02T16:42:36.039Z</time></trkpt><trkpt lat="43.844185" lon="11.5204117"><ele>415.0</ele><time>2026-05-02T16:42:37.041Z</time></trkpt><trkpt lat="43.84427" lon="11.5204717"><ele>415.0</ele><time>2026-05-02T16:42:38.041Z</time></trkpt><trkpt lat="43.8443533" lon="11.5205367"><ele>415.0</ele><time>2026-05-02T16:42:39.038Z</time></trkpt><trkpt lat="43.84443" lon="11.520605"><ele>411.1666666666667</ele><time>2026-05-02T16:42:40.038Z</time></trkpt><trkpt lat="43.844505" lon="11.5206683"><ele>407.33333333333337</ele><time>2026-05-02T16:42:41.04Z</time></trkpt><trkpt lat="43.8445833" lon="11.520725"><ele>403.5</ele><time>2026-05-02T16:42:42.04Z</time></trkpt><trkpt lat="43.8446617" lon="11.52076"><ele>399.66666666666663</ele><time>2026-05-02T16:42:43.038Z</time></trkpt><trkpt lat="43.844745" lon="11.5207717"><ele>395.8333333333333</ele><time>2026-05-02T16:42:44.04Z</time></trkpt><trkpt lat="43.8448133" lon="11.5207367"><ele>392.0</ele><time>2026-05-02T16:42:45.037Z</time></trkpt><trkpt lat="43.844865" lon="11.5206817"><ele>392.0</ele><time>2026-05-02T16:42:46.038Z</time></trkpt><trkpt lat="43.844895" lon="11.52052"><ele>392.0</ele><time>2026-05-02T16:42:48.039Z</time></trkpt><trkpt lat="43.844885" lon="11.5204233"><ele>392.0</ele><time>2026-05-02T16:42:49.038Z</time></trkpt><trkpt lat="43.8448483" lon="11.5203317"><ele>392.0</ele><time>2026-05-02T16:42:50.039Z</time></trkpt><trkpt lat="43.844785" lon="11.5202233"><ele>392.0</ele><time>2026-05-02T16:42:51.038Z</time></trkpt><trkpt lat="43.8447083" lon="11.520115"><ele>390.40000000000003</ele><time>2026-05-02T16:42:52.038Z</time></trkpt><trkpt lat="43.84463" lon="11.5200017"><ele>388.8</ele><time>2026-05-02T16:42:53.038Z</time></trkpt><trkpt lat="43.8445583" lon="11.5198883"><ele>387.2</ele><time>2026-05-02T16:42:54.037Z</time></trkpt><trkpt lat="43.8444967" lon="11.51978"><ele>385.6</ele><time>2026-05-02T16:42:55.038Z</time></trkpt><trkpt lat="43.8444317" lon="11.5196783"><ele>384.0</ele><time>2026-05-02T16:42:56.039Z</time></trkpt><trkpt lat="43.8443683" lon="11.5195867"><ele>384.2</ele><time>2026-05-02T16:42:57.039Z</time></trkpt><trkpt lat="43.8443067" lon="11.519505"><ele>384.4</ele><time>2026-05-02T16:42:58.038Z</time></trkpt><trkpt lat="43.8442417" lon="11.5194383"><ele>384.6</ele><time>2026-05-02T16:42:59.038Z</time></trkpt><trkpt lat="43.8441583" lon="11.519375"><ele>384.8</ele><time>2026-05-02T16:43:00.038Z</time></trkpt><trkpt lat="43.8440667" lon="11.51931"><ele>385.0</ele><time>2026-05-02T16:43:01.038Z</time></trkpt><trkpt lat="43.84398" lon="11.5192533"><ele>385.00000000000006</ele><time>2026-05-02T16:43:02.038Z</time></trkpt><trkpt lat="43.8438967" lon="11.519195"><ele>385.0</ele><time>2026-05-02T16:43:03.037Z</time></trkpt><trkpt lat="43.8438267" lon="11.51912"><ele>385.0</ele><time>2026-05-02T16:43:04.037Z</time></trkpt><trkpt lat="43.8437667" lon="11.5190433"><ele>385.0</ele><time>2026-05-02T16:43:05.039Z</time></trkpt><trkpt lat="43.843715" lon="11.51897"><ele>385.00000000000006</ele><time>2026-05-02T16:43:06.039Z</time></trkpt><trkpt lat="43.8436617" lon="11.5189183"><ele>385.0</ele><time>2026-05-02T16:43:07.038Z</time></trkpt><trkpt lat="43.8435967" lon="11.518885"><ele>385.0</ele><time>2026-05-02T16:43:08.038Z</time></trkpt><trkpt lat="43.84352" lon="11.5188633"><ele>385.0</ele><time>2026-05-02T16:43:09.038Z</time></trkpt><trkpt lat="43.8434383" lon="11.518845"><ele>385.0</ele><time>2026-05-02T16:43:10.037Z</time></trkpt><trkpt lat="43.843345" lon="11.51884"><ele>385.0</ele><time>2026-05-02T16:43:11.037Z</time></trkpt><trkpt lat="43.8432417" lon="11.5188483"><ele>385.0</ele><time>2026-05-02T16:43:12.037Z</time></trkpt><trkpt lat="43.84314" lon="11.5188583"><ele>386.6666666666667</ele><time>2026-05-02T16:43:13.037Z</time></trkpt><trkpt lat="43.843045" lon="11.51887"><ele>388.33333333333337</ele><time>2026-05-02T16:43:14.038Z</time></trkpt><trkpt lat="43.8429583" lon="11.5188767"><ele>390.0</ele><time>2026-05-02T16:43:15.037Z</time></trkpt><trkpt lat="43.8428867" lon="11.51887"><ele>391.66666666666663</ele><time>2026-05-02T16:43:16.037Z</time></trkpt><trkpt lat="43.8428217" lon="11.5188683"><ele>393.3333333333333</ele><time>2026-05-02T16:43:17.038Z</time></trkpt><trkpt lat="43.8427367" lon="11.5189283"><ele>395.0</ele><time>2026-05-02T16:43:19.037Z</time></trkpt><trkpt lat="43.84269" lon="11.5190017"><ele>394.99999999999994</ele><time>2026-05-02T16:43:20.038Z</time></trkpt><trkpt lat="43.8426367" lon="11.51909"><ele>395.0</ele><time>2026-05-02T16:43:21.039Z</time></trkpt><trkpt lat="43.8425783" lon="11.5191767"><ele>395.0</ele><time>2026-05-02T16:43:22.037Z</time></trkpt><trkpt lat="43.8424967" lon="11.5192483"><ele>395.0</ele><time>2026-05-02T16:43:23.037Z</time></trkpt><trkpt lat="43.8424217" lon="11.5192933"><ele>394.99999999999994</ele><time>2026-05-02T16:43:24.037Z</time></trkpt><trkpt lat="43.8423383" lon="11.5193167"><ele>395.0</ele><time>2026-05-02T16:43:25.038Z</time></trkpt><trkpt lat="43.8422517" lon="11.5193167"><ele>394.0</ele><time>2026-05-02T16:43:26.038Z</time></trkpt><trkpt lat="43.84215" lon="11.5193067"><ele>393.0</ele><time>2026-05-02T16:43:27.037Z</time></trkpt><trkpt lat="43.8420467" lon="11.519295"><ele>392.0</ele><time>2026-05-02T16:43:28.037Z</time></trkpt><trkpt lat="43.84195" lon="11.5192867"><ele>391.0</ele><time>2026-05-02T16:43:29.038Z</time></trkpt><trkpt lat="43.8418683" lon="11.5192767"><ele>390.0</ele><time>2026-05-02T16:43:30.04Z</time></trkpt><trkpt lat="43.8418" lon="11.5192567"><ele>388.3333333333333</ele><time>2026-05-02T16:43:31.037Z</time></trkpt><trkpt lat="43.841735" lon="11.51922"><ele>386.6666666666667</ele><time>2026-05-02T16:43:32.038Z</time></trkpt><trkpt lat="43.841665" lon="11.519175"><ele>385.0</ele><time>2026-05-02T16:43:33.037Z</time></trkpt><trkpt lat="43.8415933" lon="11.5191167"><ele>383.33333333333337</ele><time>2026-05-02T16:43:34.037Z</time></trkpt><trkpt lat="43.8415167" lon="11.5190467"><ele>381.6666666666667</ele><time>2026-05-02T16:43:35.038Z</time></trkpt><trkpt lat="43.84144" lon="11.518975"><ele>380.0</ele><time>2026-05-02T16:43:36.036Z</time></trkpt><trkpt lat="43.8413717" lon="11.5189083"><ele>380.0</ele><time>2026-05-02T16:43:37.037Z</time></trkpt><trkpt lat="43.8413183" lon="11.5188483"><ele>380.0</ele><time>2026-05-02T16:43:38.039Z</time></trkpt><trkpt lat="43.8412717" lon="11.5187367"><ele>380.0</ele><time>2026-05-02T16:43:40.038Z</time></trkpt><trkpt lat="43.8413367" lon="11.5186083"><ele>380.0</ele><time>2026-05-02T16:43:42.038Z</time></trkpt><trkpt lat="43.841385" lon="11.5185317"><ele>380.0</ele><time>2026-05-02T16:43:43.038Z</time></trkpt><trkpt lat="43.8414283" lon="11.5184433"><ele>380.0</ele><time>2026-05-02T16:43:44.039Z</time></trkpt><trkpt lat="43.8414617" lon="11.5183567"><ele>376.8</ele><time>2026-05-02T16:43:45.037Z</time></trkpt><trkpt lat="43.8414883" lon="11.51823"><ele>373.6</ele><time>2026-05-02T16:43:47.037Z</time></trkpt><trkpt lat="43.8415317" lon="11.5181317"><ele>370.4</ele><time>2026-05-02T16:43:49.038Z</time></trkpt><trkpt lat="43.8416233" lon="11.5180217"><ele>367.2</ele><time>2026-05-02T16:43:51.038Z</time></trkpt><trkpt lat="43.8416783" lon="11.5179467"><ele>364.0</ele><time>2026-05-02T16:43:52.037Z</time></trkpt><trkpt lat="43.8417333" lon="11.51786"><ele>363.5</ele><time>2026-05-02T16:43:53.039Z</time></trkpt><trkpt lat="43.84178" lon="11.517765"><ele>363.0</ele><time>2026-05-02T16:43:54.037Z</time></trkpt><trkpt lat="43.8418217" lon="11.5176633"><ele>362.5</ele><time>2026-05-02T16:43:55.037Z</time></trkpt><trkpt lat="43.8418533" lon="11.5175583"><ele>362.0</ele><time>2026-05-02T16:43:56.04Z</time></trkpt><trkpt lat="43.84187" lon="11.517445"><ele>361.5</ele><time>2026-05-02T16:43:57.037Z</time></trkpt><trkpt lat="43.84189" lon="11.51733"><ele>361.0</ele><time>2026-05-02T16:43:58.038Z</time></trkpt><trkpt lat="43.8419283" lon="11.517225"><ele>361.0</ele><time>2026-05-02T16:43:59.038Z</time></trkpt><trkpt lat="43.84199" lon="11.5171233"><ele>361.0</ele><time>2026-05-02T16:44:00.039Z</time></trkpt><trkpt lat="43.842055" lon="11.5170233"><ele>361.0</ele><time>2026-05-02T16:44:01.038Z</time></trkpt><trkpt lat="43.8421183" lon="11.51692"><ele>361.0</ele><time>2026-05-02T16:44:02.039Z</time></trkpt><trkpt lat="43.8421833" lon="11.516825"><ele>361.0</ele><time>2026-05-02T16:44:03.039Z</time></trkpt><trkpt lat="43.8422433" lon="11.5167333"><ele>356.8</ele><time>2026-05-02T16:44:04.037Z</time></trkpt><trkpt lat="43.8422967" lon="11.516655"><ele>352.6</ele><time>2026-05-02T16:44:05.04Z</time></trkpt><trkpt lat="43.8423483" lon="11.5165933"><ele>348.4</ele><time>2026-05-02T16:44:06.039Z</time></trkpt><trkpt lat="43.8424417" lon="11.5164933"><ele>344.2</ele><time>2026-05-02T16:44:08.039Z</time></trkpt><trkpt lat="43.8425383" lon="11.51641"><ele>340.0</ele><time>2026-05-02T16:44:10.038Z</time></trkpt><trkpt lat="43.8426283" lon="11.516355"><ele>340.6</ele><time>2026-05-02T16:44:12.039Z</time></trkpt><trkpt lat="43.8427133" lon="11.5163117"><ele>341.2</ele><time>2026-05-02T16:44:14.039Z</time></trkpt><trkpt lat="43.8427967" lon="11.5162633"><ele>341.79999999999995</ele><time>2026-05-02T16:44:16.038Z</time></trkpt><trkpt lat="43.842895" lon="11.5162117"><ele>342.4</ele><time>2026-05-02T16:44:18.039Z</time></trkpt><trkpt lat="43.8429883" lon="11.5161617"><ele>343.0</ele><time>2026-05-02T16:44:20.039Z</time></trkpt><trkpt lat="43.8430567" lon="11.5160933"><ele>341.2</ele><time>2026-05-02T16:44:22.029Z</time></trkpt><trkpt lat="43.8431033" lon="11.5159867"><ele>339.4</ele><time>2026-05-02T16:44:24.038Z</time></trkpt><trkpt lat="43.8431633" lon="11.515895"><ele>337.59999999999997</ele><time>2026-05-02T16:44:26.039Z</time></trkpt><trkpt lat="43.8432383" lon="11.51587"><ele>335.79999999999995</ele><time>2026-05-02T16:44:28.038Z</time></trkpt><trkpt lat="43.8433433" lon="11.5158883"><ele>334.0</ele><time>2026-05-02T16:44:30.041Z</time></trkpt><trkpt lat="43.843465" lon="11.5158883"><ele>334.0</ele><time>2026-05-02T16:44:32.04Z</time></trkpt><trkpt lat="43.8435317" lon="11.5158617"><ele>334.0</ele><time>2026-05-02T16:44:33.039Z</time></trkpt><trkpt lat="43.8436033" lon="11.5158317"><ele>334.0</ele><time>2026-05-02T16:44:34.038Z</time></trkpt><trkpt lat="43.8436783" lon="11.5157983"><ele>334.0</ele><time>2026-05-02T16:44:35.038Z</time></trkpt><trkpt lat="43.843755" lon="11.5157567"><ele>334.0</ele><time>2026-05-02T16:44:36.038Z</time></trkpt><trkpt lat="43.8438317" lon="11.5157067"><ele>334.0</ele><time>2026-05-02T16:44:37.04Z</time></trkpt><trkpt lat="43.843905" lon="11.5156517"><ele>334.0</ele><time>2026-05-02T16:44:38.04Z</time></trkpt><trkpt lat="43.8439783" lon="11.5155917"><ele>334.0</ele><time>2026-05-02T16:44:39.04Z</time></trkpt><trkpt lat="43.8440433" lon="11.515525"><ele>334.0</ele><time>2026-05-02T16:44:40.04Z</time></trkpt><trkpt lat="43.844105" lon="11.515445"><ele>334.0</ele><time>2026-05-02T16:44:41.039Z</time></trkpt><trkpt lat="43.844155" lon="11.5153517"><ele>334.0</ele><time>2026-05-02T16:44:42.038Z</time></trkpt><trkpt lat="43.8441983" lon="11.51525"><ele>334.0</ele><time>2026-05-02T16:44:43.037Z</time></trkpt><trkpt lat="43.844235" lon="11.5151483"><ele>332.16666666666663</ele><time>2026-05-02T16:44:44.04Z</time></trkpt><trkpt lat="43.8442667" lon="11.5150483"><ele>330.3333333333333</ele><time>2026-05-02T16:44:45.037Z</time></trkpt><trkpt lat="43.8442967" lon="11.5149483"><ele>328.5</ele><time>2026-05-02T16:44:46.038Z</time></trkpt><trkpt lat="43.844325" lon="11.5148517"><ele>326.6666666666667</ele><time>2026-05-02T16:44:47.038Z</time></trkpt><trkpt lat="43.8443483" lon="11.51475"><ele>324.83333333333337</ele><time>2026-05-02T16:44:48.038Z</time></trkpt><trkpt lat="43.8443717" lon="11.5146517"><ele>323.0</ele><time>2026-05-02T16:44:49.037Z</time></trkpt><trkpt lat="43.8444" lon="11.51456"><ele>321.1666666666667</ele><time>2026-05-02T16:44:50.04Z</time></trkpt><trkpt lat="43.8444367" lon="11.5144683"><ele>319.33333333333337</ele><time>2026-05-02T16:44:51.038Z</time></trkpt><trkpt lat="43.8444867" lon="11.51437"><ele>317.5</ele><time>2026-05-02T16:44:52.037Z</time></trkpt><trkpt lat="43.8445483" lon="11.5142883"><ele>315.6666666666667</ele><time>2026-05-02T16:44:53.037Z</time></trkpt><trkpt lat="43.8446183" lon="11.5142067"><ele>313.8333333333333</ele><time>2026-05-02T16:44:54.038Z</time></trkpt><trkpt lat="43.8446917" lon="11.5141233"><ele>312.0</ele><time>2026-05-02T16:44:55.038Z</time></trkpt><trkpt lat="43.844765" lon="11.5140483"><ele>312.0</ele><time>2026-05-02T16:44:56.04Z</time></trkpt><trkpt lat="43.8448183" lon="11.513985"><ele>312.0</ele><time>2026-05-02T16:44:57.038Z</time></trkpt><trkpt lat="43.8449067" lon="11.5138767"><ele>312.0</ele><time>2026-05-02T16:44:59.039Z</time></trkpt><trkpt lat="43.8449867" lon="11.5138483"><ele>312.0</ele><time>2026-05-02T16:45:01.04Z</time></trkpt><trkpt lat="43.84505" lon="11.5139083"><ele>312.0</ele><time>2026-05-02T16:45:03.04Z</time></trkpt><trkpt lat="43.8451167" lon="11.5140333"><ele>308.4</ele><time>2026-05-02T16:45:05.038Z</time></trkpt><trkpt lat="43.8452167" lon="11.5141567"><ele>304.79999999999995</ele><time>2026-05-02T16:45:07.038Z</time></trkpt><trkpt lat="43.845285" lon="11.5142133"><ele>301.2</ele><time>2026-05-02T16:45:08.039Z</time></trkpt><trkpt lat="43.8453633" lon="11.5142633"><ele>297.59999999999997</ele><time>2026-05-02T16:45:09.039Z</time></trkpt><trkpt lat="43.8454467" lon="11.5143083"><ele>294.0</ele><time>2026-05-02T16:45:10.038Z</time></trkpt><trkpt lat="43.8455267" lon="11.5143417"><ele>294.0</ele><time>2026-05-02T16:45:11.038Z</time></trkpt><trkpt lat="43.8455967" lon="11.5143683"><ele>294.0</ele><time>2026-05-02T16:45:12.038Z</time></trkpt><trkpt lat="43.8456583" lon="11.5143917"><ele>294.0</ele><time>2026-05-02T16:45:13.038Z</time></trkpt><trkpt lat="43.8457517" lon="11.5144133"><ele>294.0</ele><time>2026-05-02T16:45:15.039Z</time></trkpt><trkpt lat="43.8458483" lon="11.5143867"><ele>294.0</ele><time>2026-05-02T16:45:17.038Z</time></trkpt><trkpt lat="43.845935" lon="11.514245"><ele>289.0</ele><time>2026-05-02T16:45:19.039Z</time></trkpt><trkpt lat="43.8459733" lon="11.5141383"><ele>284.0</ele><time>2026-05-02T16:45:20.04Z</time></trkpt><trkpt lat="43.8460133" lon="11.5140167"><ele>279.0</ele><time>2026-05-02T16:45:21.038Z</time></trkpt><trkpt lat="43.8460583" lon="11.5138783"><ele>274.0</ele><time>2026-05-02T16:45:22.038Z</time></trkpt><trkpt lat="43.846105" lon="11.513735"><ele>269.0</ele><time>2026-05-02T16:45:23.038Z</time></trkpt><trkpt lat="43.8461483" lon="11.5135983"><ele>269.0</ele><time>2026-05-02T16:45:24.039Z</time></trkpt><trkpt lat="43.8461833" lon="11.513475"><ele>269.0</ele><time>2026-05-02T16:45:25.038Z</time></trkpt><trkpt lat="43.8462117" lon="11.51336"><ele>269.0</ele><time>2026-05-02T16:45:26.041Z</time></trkpt><trkpt lat="43.8462317" lon="11.5132517"><ele>269.0</ele><time>2026-05-02T16:45:27.04Z</time></trkpt><trkpt lat="43.84624" lon="11.5131317"><ele>269.0</ele><time>2026-05-02T16:45:28.04Z</time></trkpt><trkpt lat="43.8462467" lon="11.51301"><ele>269.0</ele><time>2026-05-02T16:45:29.04Z</time></trkpt><trkpt lat="43.8462567" lon="11.5128817"><ele>267.4</ele><time>2026-05-02T16:45:30.042Z</time></trkpt><trkpt lat="43.84626" lon="11.512755"><ele>265.79999999999995</ele><time>2026-05-02T16:45:31.04Z</time></trkpt><trkpt lat="43.84626" lon="11.512625"><ele>264.20000000000005</ele><time>2026-05-02T16:45:32.041Z</time></trkpt><trkpt lat="43.8462567" lon="11.5124933"><ele>262.6</ele><time>2026-05-02T16:45:33.04Z</time></trkpt><trkpt lat="43.84625" lon="11.5123683"><ele>261.0</ele><time>2026-05-02T16:45:34.039Z</time></trkpt><trkpt lat="43.8462333" lon="11.5122467"><ele>261.0</ele><time>2026-05-02T16:45:35.039Z</time></trkpt><trkpt lat="43.8462067" lon="11.5121283"><ele>261.0</ele><time>2026-05-02T16:45:36.042Z</time></trkpt><trkpt lat="43.8461917" lon="11.51202"><ele>261.0</ele><time>2026-05-02T16:45:37.039Z</time></trkpt><trkpt lat="43.8461883" lon="11.5119233"><ele>261.0</ele><time>2026-05-02T16:45:38.04Z</time></trkpt><trkpt lat="43.8462217" lon="11.5117717"><ele>261.0</ele><time>2026-05-02T16:45:40.038Z</time></trkpt><trkpt lat="43.8462967" lon="11.51163"><ele>259.6</ele><time>2026-05-02T16:45:42.038Z</time></trkpt><trkpt lat="43.8463317" lon="11.5115533"><ele>258.20000000000005</ele><time>2026-05-02T16:45:43.038Z</time></trkpt><trkpt lat="43.8463867" lon="11.5114133"><ele>256.79999999999995</ele><time>2026-05-02T16:45:45.038Z</time></trkpt><trkpt lat="43.8464367" lon="11.5112867"><ele>255.39999999999998</ele><time>2026-05-02T16:45:47.038Z</time></trkpt><trkpt lat="43.8465017" lon="11.5111267"><ele>254.0</ele><time>2026-05-02T16:45:49.038Z</time></trkpt><trkpt lat="43.8465333" lon="11.511035"><ele>253.00000000000003</ele><time>2026-05-02T16:45:50.039Z</time></trkpt><trkpt lat="43.8465617" lon="11.510955"><ele>252.0</ele><time>2026-05-02T16:45:51.038Z</time></trkpt><trkpt lat="43.8466133" lon="11.51084"><ele>251.0</ele><time>2026-05-02T16:45:53.04Z</time></trkpt><trkpt lat="43.8466833" lon="11.5107883"><ele>250.0</ele><time>2026-05-02T16:45:55.037Z</time></trkpt><trkpt lat="43.8467817" lon="11.51079"><ele>249.00000000000003</ele><time>2026-05-02T16:45:57.037Z</time></trkpt><trkpt lat="43.8468867" lon="11.51081"><ele>248.0</ele><time>2026-05-02T16:45:59.039Z</time></trkpt><trkpt lat="43.84699" lon="11.5108467"><ele>244.83333333333334</ele><time>2026-05-02T16:46:01.038Z</time></trkpt><trkpt lat="43.84706" lon="11.5109033"><ele>241.66666666666669</ele><time>2026-05-02T16:46:03.029Z</time></trkpt><trkpt lat="43.84713" lon="11.510955"><ele>238.5</ele><time>2026-05-02T16:46:05.037Z</time></trkpt><trkpt lat="43.847225" lon="11.51099"><ele>235.33333333333331</ele><time>2026-05-02T16:46:07.037Z</time></trkpt><trkpt lat="43.84733" lon="11.5110083"><ele>232.16666666666666</ele><time>2026-05-02T16:46:09.038Z</time></trkpt><trkpt lat="43.8474017" lon="11.510985"><ele>229.0</ele><time>2026-05-02T16:46:11.037Z</time></trkpt><trkpt lat="43.8474483" lon="11.5108783"><ele>229.0</ele><time>2026-05-02T16:46:13.038Z</time></trkpt><trkpt lat="43.847465" lon="11.5107183"><ele>229.0</ele><time>2026-05-02T16:46:15.039Z</time></trkpt><trkpt lat="43.8474683" lon="11.5105467"><ele>229.0</ele><time>2026-05-02T16:46:17.037Z</time></trkpt><trkpt lat="43.8474433" lon="11.5103917"><ele>229.0</ele><time>2026-05-02T16:46:19.039Z</time></trkpt><trkpt lat="43.8474017" lon="11.5102533"><ele>227.2</ele><time>2026-05-02T16:46:21.038Z</time></trkpt><trkpt lat="43.8473483" lon="11.510155"><ele>225.39999999999998</ele><time>2026-05-02T16:46:23.039Z</time></trkpt><trkpt lat="43.847275" lon="11.51004"><ele>223.6</ele><time>2026-05-02T16:46:25.037Z</time></trkpt><trkpt lat="43.8472017" lon="11.5099233"><ele>221.8</ele><time>2026-05-02T16:46:27.037Z</time></trkpt><trkpt lat="43.8471283" lon="11.5098083"><ele>220.0</ele><time>2026-05-02T16:46:29.037Z</time></trkpt><trkpt lat="43.8470633" lon="11.5096817"><ele>220.0</ele><time>2026-05-02T16:46:31.04Z</time></trkpt><trkpt lat="43.8470283" lon="11.5096033"><ele>220.0</ele><time>2026-05-02T16:46:32.04Z</time></trkpt><trkpt lat="43.8469717" lon="11.5094467"><ele>220.0</ele><time>2026-05-02T16:46:34.039Z</time></trkpt><trkpt lat="43.8469083" lon="11.509305"><ele>220.0</ele><time>2026-05-02T16:46:36.038Z</time></trkpt><trkpt lat="43.8468633" lon="11.5091967"><ele>220.0</ele><time>2026-05-02T16:46:38.039Z</time></trkpt><trkpt lat="43.8468783" lon="11.5090933"><ele>217.0</ele><time>2026-05-02T16:46:40.038Z</time></trkpt><trkpt lat="43.8469517" lon="11.5090483"><ele>214.0</ele><time>2026-05-02T16:46:42.041Z</time></trkpt><trkpt lat="43.847015" lon="11.509055"><ele>211.0</ele><time>2026-05-02T16:46:43.038Z</time></trkpt><trkpt lat="43.8471183" lon="11.5090533"><ele>208.0</ele><time>2026-05-02T16:46:45.028Z</time></trkpt><trkpt lat="43.8472283" lon="11.509015"><ele>205.0</ele><time>2026-05-02T16:46:47.038Z</time></trkpt><trkpt lat="43.8473267" lon="11.50891"><ele>205.0</ele><time>2026-05-02T16:46:49.039Z</time></trkpt><trkpt lat="43.8473717" lon="11.508845"><ele>205.0</ele><time>2026-05-02T16:46:50.04Z</time></trkpt><trkpt lat="43.8474133" lon="11.5087733"><ele>205.0</ele><time>2026-05-02T16:46:51.04Z</time></trkpt><trkpt lat="43.8474567" lon="11.508695"><ele>205.0</ele><time>2026-05-02T16:46:52.039Z</time></trkpt><trkpt lat="43.8475" lon="11.5086233"><ele>205.0</ele><time>2026-05-02T16:46:53.04Z</time></trkpt><trkpt lat="43.8475467" lon="11.5085483"><ele>205.0</ele><time>2026-05-02T16:46:54.039Z</time></trkpt><trkpt lat="43.847595" lon="11.5084683"><ele>205.0</ele><time>2026-05-02T16:46:55.039Z</time></trkpt><trkpt lat="43.8476367" lon="11.5083883"><ele>202.14285714285714</ele><time>2026-05-02T16:46:56.039Z</time></trkpt><trkpt lat="43.847665" lon="11.5083033"><ele>199.28571428571428</ele><time>2026-05-02T16:46:57.038Z</time></trkpt><trkpt lat="43.84769" lon="11.508215"><ele>196.42857142857142</ele><time>2026-05-02T16:46:58.039Z</time></trkpt><trkpt lat="43.8477133" lon="11.5081217"><ele>193.57142857142856</ele><time>2026-05-02T16:46:59.039Z</time></trkpt><trkpt lat="43.84773" lon="11.5080283"><ele>190.71428571428572</ele><time>2026-05-02T16:47:00.038Z</time></trkpt><trkpt lat="43.8477483" lon="11.5079367"><ele>187.85714285714283</ele><time>2026-05-02T16:47:01.038Z</time></trkpt><trkpt lat="43.8477667" lon="11.5078433"><ele>185.0</ele><time>2026-05-02T16:47:02.039Z</time></trkpt><trkpt lat="43.8477867" lon="11.5077533"><ele>183.2</ele><time>2026-05-02T16:47:03.04Z</time></trkpt><trkpt lat="43.8478283" lon="11.5075933"><ele>181.4</ele><time>2026-05-02T16:47:05.039Z</time></trkpt><trkpt lat="43.8478617" lon="11.507445"><ele>179.60000000000002</ele><time>2026-05-02T16:47:07.039Z</time></trkpt><trkpt lat="43.8478933" lon="11.507325"><ele>177.8</ele><time>2026-05-02T16:47:09.039Z</time></trkpt><trkpt lat="43.84795" lon="11.5072117"><ele>176.0</ele><time>2026-05-02T16:47:11.039Z</time></trkpt><trkpt lat="43.8480333" lon="11.507125"><ele>173.0</ele><time>2026-05-02T16:47:13.037Z</time></trkpt><trkpt lat="43.84813" lon="11.5070333"><ele>170.0</ele><time>2026-05-02T16:47:15.038Z</time></trkpt><trkpt lat="43.84822" lon="11.506955"><ele>167.0</ele><time>2026-05-02T16:47:17.039Z</time></trkpt><trkpt lat="43.8482933" lon="11.5068617"><ele>164.0</ele><time>2026-05-02T16:47:19.039Z</time></trkpt><trkpt lat="43.8483633" lon="11.5067533"><ele>161.0</ele><time>2026-05-02T16:47:21.04Z</time></trkpt><trkpt lat="43.8484167" lon="11.5066483"><ele>161.0</ele><time>2026-05-02T16:47:23.039Z</time></trkpt><trkpt lat="43.848445" lon="11.50656"><ele>161.0</ele><time>2026-05-02T16:47:25.041Z</time></trkpt><trkpt lat="43.8484567" lon="11.5064667"><ele>161.0</ele><time>2026-05-02T16:47:27.038Z</time></trkpt><trkpt lat="43.848505" lon="11.5063767"><ele>161.0</ele><time>2026-05-02T16:47:29.04Z</time></trkpt><trkpt lat="43.8485583" lon="11.50631"><ele>161.0</ele><time>2026-05-02T16:47:31.039Z</time></trkpt><trkpt lat="43.8486283" lon="11.5062583"><ele>161.0</ele><time>2026-05-02T16:47:33.038Z</time></trkpt><trkpt lat="43.8487283" lon="11.50622"><ele>157.20000000000002</ele><time>2026-05-02T16:47:35.039Z</time></trkpt><trkpt lat="43.8488467" lon="11.5062"><ele>153.4</ele><time>2026-05-02T16:47:37.038Z</time></trkpt><trkpt lat="43.8489633" lon="11.5061567"><ele>149.6</ele><time>2026-05-02T16:47:39.04Z</time></trkpt><trkpt lat="43.8490233" lon="11.5061233"><ele>145.8</ele><time>2026-05-02T16:47:40.038Z</time></trkpt><trkpt lat="43.84913" lon="11.5060817"><ele>142.0</ele><time>2026-05-02T16:47:42.039Z</time></trkpt><trkpt lat="43.8492117" lon="11.5060433"><ele>142.0</ele><time>2026-05-02T16:47:44.04Z</time></trkpt><trkpt lat="43.8492833" lon="11.5060067"><ele>142.0</ele><time>2026-05-02T16:47:46.038Z</time></trkpt><trkpt lat="43.84936" lon="11.5059617"><ele>142.0</ele><time>2026-05-02T16:47:48.038Z</time></trkpt><trkpt lat="43.84945" lon="11.50592"><ele>142.0</ele><time>2026-05-02T16:47:50.04Z</time></trkpt><trkpt lat="43.8495367" lon="11.5058667"><ele>142.0</ele><time>2026-05-02T16:47:52.038Z</time></trkpt><trkpt lat="43.849615" lon="11.5058083"><ele>142.0</ele><time>2026-05-02T16:47:54.041Z</time></trkpt><trkpt lat="43.8496383" lon="11.5056867"><ele>139.6</ele><time>2026-05-02T16:47:56.043Z</time></trkpt><trkpt lat="43.8496183" lon="11.5055617"><ele>137.2</ele><time>2026-05-02T16:47:58.039Z</time></trkpt><trkpt lat="43.8496633" lon="11.5054883"><ele>134.8</ele><time>2026-05-02T16:48:00.038Z</time></trkpt><trkpt lat="43.849735" lon="11.5054717"><ele>132.4</ele><time>2026-05-02T16:48:02.04Z</time></trkpt><trkpt lat="43.8498367" lon="11.5055133"><ele>130.0</ele><time>2026-05-02T16:49:17.029Z</time></trkpt><trkpt lat="43.849895" lon="11.5056933"><ele>130.0</ele><time>2026-05-02T16:49:19.038Z</time></trkpt><trkpt lat="43.8499417" lon="11.5058067"><ele>130.0</ele><time>2026-05-02T16:49:20.04Z</time></trkpt><trkpt lat="43.8499883" lon="11.5059383"><ele>130.0</ele><time>2026-05-02T16:49:21.04Z</time></trkpt><trkpt lat="43.85004" lon="11.5060817"><ele>130.0</ele><time>2026-05-02T16:49:22.038Z</time></trkpt><trkpt lat="43.8500917" lon="11.506235"><ele>130.0</ele><time>2026-05-02T16:49:23.039Z</time></trkpt><trkpt lat="43.850145" lon="11.5063883"><ele>129.25</ele><time>2026-05-02T16:49:24.04Z</time></trkpt><trkpt lat="43.8501917" lon="11.5065517"><ele>128.5</ele><time>2026-05-02T16:49:25.037Z</time></trkpt><trkpt lat="43.8502217" lon="11.5067217"><ele>127.75</ele><time>2026-05-02T16:49:26.039Z</time></trkpt><trkpt lat="43.85024" lon="11.5069067"><ele>127.0</ele><time>2026-05-02T16:49:27.038Z</time></trkpt><trkpt lat="43.85026" lon="11.5071017"><ele>127.0</ele><time>2026-05-02T16:49:28.038Z</time></trkpt><trkpt lat="43.85028" lon="11.5073"><ele>127.0</ele><time>2026-05-02T16:49:29.039Z</time></trkpt><trkpt lat="43.8502983" lon="11.5075033"><ele>127.0</ele><time>2026-05-02T16:49:30.039Z</time></trkpt><trkpt lat="43.8503183" lon="11.5077117"><ele>127.0</ele><time>2026-05-02T16:49:31.039Z</time></trkpt><trkpt lat="43.8503417" lon="11.507925"><ele>127.33333333333334</ele><time>2026-05-02T16:49:32.04Z</time></trkpt><trkpt lat="43.8503633" lon="11.50814"><ele>127.66666666666666</ele><time>2026-05-02T16:49:33.039Z</time></trkpt><trkpt lat="43.8503833" lon="11.5083617"><ele>128.0</ele><time>2026-05-02T16:49:34.039Z</time></trkpt><trkpt lat="43.8504067" lon="11.5085883"><ele>128.33333333333331</ele><time>2026-05-02T16:49:35.039Z</time></trkpt><trkpt lat="43.8504283" lon="11.5088183"><ele>128.66666666666666</ele><time>2026-05-02T16:49:36.042Z</time></trkpt><trkpt lat="43.8504483" lon="11.5090533"><ele>129.0</ele><time>2026-05-02T16:49:37.039Z</time></trkpt><trkpt lat="43.85047" lon="11.509285"><ele>129.0</ele><time>2026-05-02T16:49:38.04Z</time></trkpt><trkpt lat="43.8504917" lon="11.5095117"><ele>129.0</ele><time>2026-05-02T16:49:39.04Z</time></trkpt><trkpt lat="43.85051" lon="11.5097333"><ele>129.0</ele><time>2026-05-02T16:49:40.04Z</time></trkpt><trkpt lat="43.8505167" lon="11.50995"><ele>130.0</ele><time>2026-05-02T16:49:41.043Z</time></trkpt><trkpt lat="43.8505067" lon="11.510165"><ele>131.0</ele><time>2026-05-02T16:49:42.038Z</time></trkpt><trkpt lat="43.8504833" lon="11.510375"><ele>132.0</ele><time>2026-05-02T16:49:43.04Z</time></trkpt><trkpt lat="43.8504567" lon="11.5105867"><ele>132.66666666666666</ele><time>2026-05-02T16:49:44.039Z</time></trkpt><trkpt lat="43.8504283" lon="11.5108"><ele>133.33333333333331</ele><time>2026-05-02T16:49:45.04Z</time></trkpt><trkpt lat="43.850405" lon="11.511015"><ele>134.0</ele><time>2026-05-02T16:49:46.038Z</time></trkpt><trkpt lat="43.8503833" lon="11.5112317"><ele>136.33333333333331</ele><time>2026-05-02T16:49:47.039Z</time></trkpt><trkpt lat="43.8503633" lon="11.51145"><ele>138.66666666666666</ele><time>2026-05-02T16:49:48.037Z</time></trkpt><trkpt lat="43.8503383" lon="11.5116683"><ele>141.0</ele><time>2026-05-02T16:49:49.038Z</time></trkpt><trkpt lat="43.8503167" lon="11.511885"><ele>143.33333333333334</ele><time>2026-05-02T16:49:50.039Z</time></trkpt><trkpt lat="43.8502867" lon="11.5120967"><ele>145.66666666666669</ele><time>2026-05-02T16:49:51.038Z</time></trkpt><trkpt lat="43.8502483" lon="11.512305"><ele>148.0</ele><time>2026-05-02T16:49:52.038Z</time></trkpt><trkpt lat="43.8501983" lon="11.5125033"><ele>148.0</ele><time>2026-05-02T16:49:53.038Z</time></trkpt><trkpt lat="43.8501333" lon="11.5127017"><ele>148.0</ele><time>2026-05-02T16:49:54.037Z</time></trkpt><trkpt lat="43.8500617" lon="11.5128967"><ele>148.0</ele><time>2026-05-02T16:49:55.039Z</time></trkpt><trkpt lat="43.8499817" lon="11.51309"><ele>144.0</ele><time>2026-05-02T16:49:56.039Z</time></trkpt><trkpt lat="43.8499033" lon="11.5132867"><ele>140.0</ele><time>2026-05-02T16:49:57.037Z</time></trkpt><trkpt lat="43.8498383" lon="11.5134933"><ele>136.0</ele><time>2026-05-02T16:49:58.038Z</time></trkpt><trkpt lat="43.8497917" lon="11.51372"><ele>134.66666666666669</ele><time>2026-05-02T16:49:59.038Z</time></trkpt><trkpt lat="43.8497583" lon="11.5139533"><ele>133.33333333333334</ele><time>2026-05-02T16:50:00.038Z</time></trkpt><trkpt lat="43.8497267" lon="11.514185"><ele>132.0</ele><time>2026-05-02T16:50:01.039Z</time></trkpt><trkpt lat="43.8496983" lon="11.5144133"><ele>132.66666666666666</ele><time>2026-05-02T16:50:02.039Z</time></trkpt><trkpt lat="43.8496967" lon="11.51464"><ele>133.33333333333331</ele><time>2026-05-02T16:50:03.038Z</time></trkpt><trkpt lat="43.84971" lon="11.5148633"><ele>134.0</ele><time>2026-05-02T16:50:04.038Z</time></trkpt><trkpt lat="43.849745" lon="11.515085"><ele>134.0</ele><time>2026-05-02T16:50:05.037Z</time></trkpt><trkpt lat="43.8497917" lon="11.5153017"><ele>134.0</ele><time>2026-05-02T16:50:06.038Z</time></trkpt><trkpt lat="43.8498417" lon="11.515515"><ele>134.0</ele><time>2026-05-02T16:50:07.037Z</time></trkpt><trkpt lat="43.8499067" lon="11.5157167"><ele>135.0</ele><time>2026-05-02T16:50:08.04Z</time></trkpt><trkpt lat="43.849985" lon="11.5158967"><ele>136.0</ele><time>2026-05-02T16:50:09.037Z</time></trkpt><trkpt lat="43.8500883" lon="11.5160483"><ele>137.0</ele><time>2026-05-02T16:50:10.037Z</time></trkpt><trkpt lat="43.850205" lon="11.5161783"><ele>135.25</ele><time>2026-05-02T16:50:11.037Z</time></trkpt><trkpt lat="43.8503283" lon="11.51628"><ele>133.5</ele><time>2026-05-02T16:50:12.037Z</time></trkpt><trkpt lat="43.850455" lon="11.5163717"><ele>131.75</ele><time>2026-05-02T16:50:13.037Z</time></trkpt><trkpt lat="43.8505833" lon="11.5164583"><ele>130.0</ele><time>2026-05-02T16:50:14.041Z</time></trkpt><trkpt lat="43.8507167" lon="11.5165567"><ele>130.0</ele><time>2026-05-02T16:50:15.037Z</time></trkpt><trkpt lat="43.850855" lon="11.5166567"><ele>130.0</ele><time>2026-05-02T16:50:16.038Z</time></trkpt><trkpt lat="43.850995" lon="11.51676"><ele>130.0</ele><time>2026-05-02T16:50:17.039Z</time></trkpt><trkpt lat="43.851135" lon="11.5168667"><ele>130.33333333333334</ele><time>2026-05-02T16:50:18.037Z</time></trkpt><trkpt lat="43.8512733" lon="11.5169783"><ele>130.66666666666666</ele><time>2026-05-02T16:50:19.039Z</time></trkpt><trkpt lat="43.85141" lon="11.51709"><ele>131.0</ele><time>2026-05-02T16:50:20.039Z</time></trkpt><trkpt lat="43.85154" lon="11.51721"><ele>131.75</ele><time>2026-05-02T16:50:21.037Z</time></trkpt><trkpt lat="43.851655" lon="11.517335"><ele>132.5</ele><time>2026-05-02T16:50:22.037Z</time></trkpt><trkpt lat="43.8517617" lon="11.51746"><ele>133.25</ele><time>2026-05-02T16:50:23.037Z</time></trkpt><trkpt lat="43.8518633" lon="11.5175767"><ele>134.0</ele><time>2026-05-02T16:50:24.038Z</time></trkpt><trkpt lat="43.8519617" lon="11.517685"><ele>134.0</ele><time>2026-05-02T16:50:25.039Z</time></trkpt><trkpt lat="43.852055" lon="11.5177867"><ele>134.0</ele><time>2026-05-02T16:50:26.04Z</time></trkpt><trkpt lat="43.8521433" lon="11.51788"><ele>134.0</ele><time>2026-05-02T16:50:27.038Z</time></trkpt><trkpt lat="43.8522267" lon="11.5179583"><ele>134.0</ele><time>2026-05-02T16:50:28.037Z</time></trkpt><trkpt lat="43.8523033" lon="11.51803"><ele>134.0</ele><time>2026-05-02T16:50:29.038Z</time></trkpt><trkpt lat="43.852375" lon="11.518095"><ele>134.0</ele><time>2026-05-02T16:50:30.038Z</time></trkpt><trkpt lat="43.8524433" lon="11.5181517"><ele>134.0</ele><time>2026-05-02T16:50:31.039Z</time></trkpt><trkpt lat="43.8525083" lon="11.5182017"><ele>134.0</ele><time>2026-05-02T16:50:32.038Z</time></trkpt><trkpt lat="43.8525683" lon="11.5182467"><ele>134.0</ele><time>2026-05-02T16:50:33.038Z</time></trkpt><trkpt lat="43.852625" lon="11.5182883"><ele>134.0</ele><time>2026-05-02T16:50:34.038Z</time></trkpt><trkpt lat="43.8526833" lon="11.5183317"><ele>134.0</ele><time>2026-05-02T16:50:35.038Z</time></trkpt><trkpt lat="43.8527467" lon="11.5183783"><ele>134.0</ele><time>2026-05-02T16:50:36.037Z</time></trkpt><trkpt lat="43.8528133" lon="11.5184283"><ele>134.0</ele><time>2026-05-02T16:50:37.037Z</time></trkpt><trkpt lat="43.852875" lon="11.5184767"><ele>134.0</ele><time>2026-05-02T16:50:38.04Z</time></trkpt><trkpt lat="43.8529267" lon="11.5185267"><ele>134.0</ele><time>2026-05-02T16:50:39.038Z</time></trkpt><trkpt lat="43.8529833" lon="11.51857"><ele>134.0</ele><time>2026-05-02T16:50:40.038Z</time></trkpt><trkpt lat="43.8530433" lon="11.518615"><ele>134.0</ele><time>2026-05-02T16:50:41.037Z</time></trkpt><trkpt lat="43.8531033" lon="11.5186617"><ele>134.0</ele><time>2026-05-02T16:50:42.038Z</time></trkpt><trkpt lat="43.853165" lon="11.51871"><ele>134.0</ele><time>2026-05-02T16:50:43.038Z</time></trkpt><trkpt lat="43.85323" lon="11.5187583"><ele>134.16666666666666</ele><time>2026-05-02T16:50:44.039Z</time></trkpt><trkpt lat="43.8532983" lon="11.5188117"><ele>134.33333333333331</ele><time>2026-05-02T16:50:45.039Z</time></trkpt><trkpt lat="43.85337" lon="11.518875"><ele>134.5</ele><time>2026-05-02T16:50:46.038Z</time></trkpt><trkpt lat="43.8534467" lon="11.5189383"><ele>134.66666666666666</ele><time>2026-05-02T16:50:47.038Z</time></trkpt><trkpt lat="43.8535267" lon="11.5190083"><ele>134.83333333333334</ele><time>2026-05-02T16:50:48.039Z</time></trkpt><trkpt lat="43.85361" lon="11.5190767"><ele>135.0</ele><time>2026-05-02T16:50:49.039Z</time></trkpt><trkpt lat="43.853695" lon="11.5191467"><ele>135.0</ele><time>2026-05-02T16:50:50.039Z</time></trkpt><trkpt lat="43.8537867" lon="11.519215"><ele>135.0</ele><time>2026-05-02T16:50:51.041Z</time></trkpt><trkpt lat="43.8538833" lon="11.5192767"><ele>135.0</ele><time>2026-05-02T16:50:52.038Z</time></trkpt><trkpt lat="43.85398" lon="11.5193367"><ele>135.0</ele><time>2026-05-02T16:50:53.039Z</time></trkpt><trkpt lat="43.8540817" lon="11.51939"><ele>135.0</ele><time>2026-05-02T16:50:54.039Z</time></trkpt><trkpt lat="43.8541833" lon="11.5194367"><ele>135.0</ele><time>2026-05-02T16:50:55.038Z</time></trkpt><trkpt lat="43.854285" lon="11.51948"><ele>135.0</ele><time>2026-05-02T16:50:56.04Z</time></trkpt><trkpt lat="43.8543917" lon="11.51952"><ele>135.0</ele><time>2026-05-02T16:50:57.037Z</time></trkpt><trkpt lat="43.85451" lon="11.5195633"><ele>135.0</ele><time>2026-05-02T16:50:58.037Z</time></trkpt><trkpt lat="43.854635" lon="11.5196033"><ele>136.5</ele><time>2026-05-02T16:50:59.038Z</time></trkpt><trkpt lat="43.8547567" lon="11.51964"><ele>138.0</ele><time>2026-05-02T16:51:00.038Z</time></trkpt><trkpt lat="43.85487" lon="11.5196733"><ele>139.5</ele><time>2026-05-02T16:51:01.038Z</time></trkpt><trkpt lat="43.8549783" lon="11.5197083"><ele>141.0</ele><time>2026-05-02T16:51:02.04Z</time></trkpt><trkpt lat="43.8550717" lon="11.519755"><ele>139.8</ele><time>2026-05-02T16:51:03.039Z</time></trkpt><trkpt lat="43.855165" lon="11.5198167"><ele>138.6</ele><time>2026-05-02T16:51:04.038Z</time></trkpt><trkpt lat="43.8552417" lon="11.5199117"><ele>137.4</ele><time>2026-05-02T16:51:05.039Z</time></trkpt><trkpt lat="43.8553217" lon="11.5200183"><ele>136.2</ele><time>2026-05-02T16:51:06.039Z</time></trkpt><trkpt lat="43.855415" lon="11.5201167"><ele>135.0</ele><time>2026-05-02T16:51:07.04Z</time></trkpt><trkpt lat="43.8555167" lon="11.520215"><ele>134.0</ele><time>2026-05-02T16:51:08.125Z</time></trkpt><trkpt lat="43.8561387" lon="11.5206437"><ele>134.0</ele><time>2026-05-02T16:51:12.442Z</time></trkpt><trkpt lat="43.8562577" lon="11.5207366"><ele>134.0</ele><time>2026-05-02T16:51:13.539Z</time></trkpt><trkpt lat="43.8564295" lon="11.5208773"><ele>134.0</ele><time>2026-05-02T16:51:15.04Z</time></trkpt><trkpt lat="43.8565473" lon="11.5209941"><ele>134.0</ele><time>2026-05-02T16:51:16.04Z</time></trkpt><trkpt lat="43.8566527" lon="11.521134"><ele>134.0</ele><time>2026-05-02T16:51:17.039Z</time></trkpt><trkpt lat="43.8567404" lon="11.5212856"><ele>134.0</ele><time>2026-05-02T16:51:18.039Z</time></trkpt><trkpt lat="43.8567971" lon="11.521444"><ele>134.0</ele><time>2026-05-02T16:51:19.041Z</time></trkpt><trkpt lat="43.8568379" lon="11.5216046"><ele>134.25</ele><time>2026-05-02T16:51:20.041Z</time></trkpt><trkpt lat="43.8568712" lon="11.5217737"><ele>134.5</ele><time>2026-05-02T16:51:21.041Z</time></trkpt><trkpt lat="43.8569045" lon="11.5219535"><ele>134.75</ele><time>2026-05-02T16:51:22.039Z</time></trkpt><trkpt lat="43.8569356" lon="11.5221477"><ele>135.0</ele><time>2026-05-02T16:51:23.041Z</time></trkpt><trkpt lat="43.8569652" lon="11.522348"><ele>135.0</ele><time>2026-05-02T16:51:24.039Z</time></trkpt><trkpt lat="43.8569938" lon="11.5225489"><ele>135.0</ele><time>2026-05-02T16:51:25.041Z</time></trkpt><trkpt lat="43.8570264" lon="11.5227492"><ele>135.0</ele><time>2026-05-02T16:51:26.042Z</time></trkpt><trkpt lat="43.8570637" lon="11.5229462"><ele>135.0</ele><time>2026-05-02T16:51:27.037Z</time></trkpt><trkpt lat="43.8570991" lon="11.5231345"><ele>135.25</ele><time>2026-05-02T16:51:28.04Z</time></trkpt><trkpt lat="43.8571311" lon="11.5233161"><ele>135.5</ele><time>2026-05-02T16:51:29.04Z</time></trkpt><trkpt lat="43.8571601" lon="11.5234938"><ele>135.75</ele><time>2026-05-02T16:51:30.039Z</time></trkpt><trkpt lat="43.8571859" lon="11.5236648"><ele>136.0</ele><time>2026-05-02T16:51:31.041Z</time></trkpt><trkpt lat="43.8572092" lon="11.523837"><ele>136.0</ele><time>2026-05-02T16:51:32.04Z</time></trkpt><trkpt lat="43.8572267" lon="11.5240117"><ele>136.0</ele><time>2026-05-02T16:51:33.04Z</time></trkpt><trkpt lat="43.8572467" lon="11.5241917"><ele>136.0</ele><time>2026-05-02T16:51:34.04Z</time></trkpt><trkpt lat="43.857285" lon="11.524365"><ele>136.0</ele><time>2026-05-02T16:51:35.04Z</time></trkpt><trkpt lat="43.85734" lon="11.5245283"><ele>136.25</ele><time>2026-05-02T16:51:36.039Z</time></trkpt><trkpt lat="43.8574083" lon="11.5246833"><ele>136.5</ele><time>2026-05-02T16:51:37.04Z</time></trkpt><trkpt lat="43.8574767" lon="11.5248433"><ele>136.75</ele><time>2026-05-02T16:51:38.042Z</time></trkpt><trkpt lat="43.857545" lon="11.525"><ele>137.0</ele><time>2026-05-02T16:51:39.039Z</time></trkpt><trkpt lat="43.8576217" lon="11.52515"><ele>137.0</ele><time>2026-05-02T16:51:40.039Z</time></trkpt><trkpt lat="43.8577017" lon="11.5252967"><ele>137.0</ele><time>2026-05-02T16:51:41.041Z</time></trkpt><trkpt lat="43.8577817" lon="11.525435"><ele>137.0</ele><time>2026-05-02T16:51:42.035Z</time></trkpt><trkpt lat="43.8578633" lon="11.525565"><ele>137.0</ele><time>2026-05-02T16:51:43.04Z</time></trkpt><trkpt lat="43.8579433" lon="11.52569"><ele>137.0</ele><time>2026-05-02T16:51:44.043Z</time></trkpt><trkpt lat="43.8580183" lon="11.52581"><ele>137.0</ele><time>2026-05-02T16:51:45.042Z</time></trkpt><trkpt lat="43.858085" lon="11.52593"><ele>137.0</ele><time>2026-05-02T16:51:46.039Z</time></trkpt><trkpt lat="43.85815" lon="11.52604"><ele>137.0</ele><time>2026-05-02T16:51:47.041Z</time></trkpt><trkpt lat="43.85821" lon="11.5261483"><ele>137.0</ele><time>2026-05-02T16:51:48.04Z</time></trkpt><trkpt lat="43.8582683" lon="11.5262533"><ele>137.0</ele><time>2026-05-02T16:51:49.04Z</time></trkpt><trkpt lat="43.8583333" lon="11.5263583"><ele>137.0</ele><time>2026-05-02T16:51:50.041Z</time></trkpt><trkpt lat="43.8584" lon="11.5264717"><ele>137.0</ele><time>2026-05-02T16:51:51.041Z</time></trkpt><trkpt lat="43.8584683" lon="11.5265883"><ele>137.0</ele><time>2026-05-02T16:51:52.039Z</time></trkpt><trkpt lat="43.8585317" lon="11.526705"><ele>137.0</ele><time>2026-05-02T16:51:53.041Z</time></trkpt><trkpt lat="43.8585967" lon="11.526815"><ele>137.0</ele><time>2026-05-02T16:51:54.041Z</time></trkpt><trkpt lat="43.85866" lon="11.5269233"><ele>137.0</ele><time>2026-05-02T16:51:55.041Z</time></trkpt><trkpt lat="43.8587233" lon="11.5270283"><ele>137.0</ele><time>2026-05-02T16:51:56.043Z</time></trkpt><trkpt lat="43.858785" lon="11.5271333"><ele>137.0</ele><time>2026-05-02T16:51:57.041Z</time></trkpt><trkpt lat="43.8588483" lon="11.52724"><ele>137.0</ele><time>2026-05-02T16:51:58.039Z</time></trkpt><trkpt lat="43.8589117" lon="11.5273483"><ele>137.0</ele><time>2026-05-02T16:51:59.041Z</time></trkpt><trkpt lat="43.8589783" lon="11.5274517"><ele>137.0</ele><time>2026-05-02T16:52:00.038Z</time></trkpt><trkpt lat="43.8590433" lon="11.5275583"><ele>137.0</ele><time>2026-05-02T16:52:01.041Z</time></trkpt><trkpt lat="43.85911" lon="11.5276683"><ele>137.0</ele><time>2026-05-02T16:52:02.042Z</time></trkpt><trkpt lat="43.8591833" lon="11.5277667"><ele>137.0</ele><time>2026-05-02T16:52:03.038Z</time></trkpt><trkpt lat="43.8592533" lon="11.5278683"><ele>137.4</ele><time>2026-05-02T16:52:04.039Z</time></trkpt><trkpt lat="43.8593233" lon="11.52797"><ele>137.79999999999998</ele><time>2026-05-02T16:52:05.041Z</time></trkpt><trkpt lat="43.8593917" lon="11.5280733"><ele>138.2</ele><time>2026-05-02T16:52:06.038Z</time></trkpt><trkpt lat="43.8594583" lon="11.52818"><ele>138.6</ele><time>2026-05-02T16:52:07.041Z</time></trkpt><trkpt lat="43.85952" lon="11.5282867"><ele>139.0</ele><time>2026-05-02T16:52:08.042Z</time></trkpt><trkpt lat="43.8595917" lon="11.5283783"><ele>139.0</ele><time>2026-05-02T16:52:09.04Z</time></trkpt><trkpt lat="43.859665" lon="11.52847"><ele>139.0</ele><time>2026-05-02T16:52:10.039Z</time></trkpt><trkpt lat="43.8597417" lon="11.5285567"><ele>139.0</ele><time>2026-05-02T16:52:11.041Z</time></trkpt><trkpt lat="43.8598233" lon="11.5286383"><ele>139.0</ele><time>2026-05-02T16:52:12.041Z</time></trkpt><trkpt lat="43.8599067" lon="11.5287167"><ele>139.0</ele><time>2026-05-02T16:52:13.041Z</time></trkpt><trkpt lat="43.86" lon="11.52879"><ele>138.8</ele><time>2026-05-02T16:52:14.043Z</time></trkpt><trkpt lat="43.8600933" lon="11.528865"><ele>138.60000000000002</ele><time>2026-05-02T16:52:15.039Z</time></trkpt><trkpt lat="43.860185" lon="11.5289433"><ele>138.4</ele><time>2026-05-02T16:52:16.039Z</time></trkpt><trkpt lat="43.860275" lon="11.5290267"><ele>138.20000000000002</ele><time>2026-05-02T16:52:17.039Z</time></trkpt><trkpt lat="43.860365" lon="11.529105"><ele>138.0</ele><time>2026-05-02T16:52:18.038Z</time></trkpt><trkpt lat="43.860455" lon="11.52918"><ele>138.0</ele><time>2026-05-02T16:52:19.04Z</time></trkpt><trkpt lat="43.860545" lon="11.5292617"><ele>138.0</ele><time>2026-05-02T16:52:20.042Z</time></trkpt><trkpt lat="43.8606367" lon="11.5293333"><ele>138.0</ele><time>2026-05-02T16:52:21.039Z</time></trkpt><trkpt lat="43.8607267" lon="11.5294083"><ele>138.0</ele><time>2026-05-02T16:52:22.039Z</time></trkpt><trkpt lat="43.860815" lon="11.5294833"><ele>138.0</ele><time>2026-05-02T16:52:23.04Z</time></trkpt><trkpt lat="43.8609" lon="11.5295567"><ele>138.4</ele><time>2026-05-02T16:52:24.04Z</time></trkpt><trkpt lat="43.86098" lon="11.5296383"><ele>138.8</ele><time>2026-05-02T16:52:25.04Z</time></trkpt><trkpt lat="43.8610533" lon="11.529735"><ele>139.2</ele><time>2026-05-02T16:52:26.042Z</time></trkpt><trkpt lat="43.8611267" lon="11.5298367"><ele>139.6</ele><time>2026-05-02T16:52:27.039Z</time></trkpt><trkpt lat="43.861205" lon="11.5299317"><ele>140.0</ele><time>2026-05-02T16:52:28.04Z</time></trkpt><trkpt lat="43.86128" lon="11.5300317"><ele>140.0</ele><time>2026-05-02T16:52:29.041Z</time></trkpt><trkpt lat="43.8613583" lon="11.5301267"><ele>140.0</ele><time>2026-05-02T16:52:30.04Z</time></trkpt><trkpt lat="43.86143" lon="11.5302333"><ele>140.0</ele><time>2026-05-02T16:52:31.04Z</time></trkpt><trkpt lat="43.8614983" lon="11.5303433"><ele>140.0</ele><time>2026-05-02T16:52:32.041Z</time></trkpt><trkpt lat="43.8615733" lon="11.5304467"><ele>140.0</ele><time>2026-05-02T16:52:33.043Z</time></trkpt><trkpt lat="43.8616533" lon="11.530545"><ele>140.2</ele><time>2026-05-02T16:52:34.039Z</time></trkpt><trkpt lat="43.86173" lon="11.5306417"><ele>140.4</ele><time>2026-05-02T16:52:35.039Z</time></trkpt><trkpt lat="43.861805" lon="11.5307317"><ele>140.6</ele><time>2026-05-02T16:52:36.039Z</time></trkpt><trkpt lat="43.8618867" lon="11.53081"><ele>140.8</ele><time>2026-05-02T16:52:37.039Z</time></trkpt><trkpt lat="43.8619683" lon="11.530865"><ele>141.0</ele><time>2026-05-02T16:52:38.04Z</time></trkpt><trkpt lat="43.8620533" lon="11.5309033"><ele>141.0</ele><time>2026-05-02T16:52:39.04Z</time></trkpt><trkpt lat="43.862135" lon="11.5309383"><ele>141.0</ele><time>2026-05-02T16:52:40.039Z</time></trkpt><trkpt lat="43.8622183" lon="11.5309567"><ele>141.0</ele><time>2026-05-02T16:52:41.04Z</time></trkpt><trkpt lat="43.8623" lon="11.530985"><ele>141.0</ele><time>2026-05-02T16:52:42.04Z</time></trkpt><trkpt lat="43.86237" lon="11.5310083"><ele>141.0</ele><time>2026-05-02T16:52:43.039Z</time></trkpt><trkpt lat="43.86244" lon="11.531035"><ele>141.0</ele><time>2026-05-02T16:52:44.041Z</time></trkpt><trkpt lat="43.8625067" lon="11.5310667"><ele>141.0</ele><time>2026-05-02T16:52:45.04Z</time></trkpt><trkpt lat="43.862585" lon="11.5310817"><ele>141.0</ele><time>2026-05-02T16:52:46.039Z</time></trkpt><trkpt lat="43.8626617" lon="11.5311017"><ele>141.0</ele><time>2026-05-02T16:52:47.04Z</time></trkpt><trkpt lat="43.8627333" lon="11.5311183"><ele>141.0</ele><time>2026-05-02T16:52:48.039Z</time></trkpt><trkpt lat="43.8628017" lon="11.5311267"><ele>141.0</ele><time>2026-05-02T16:52:49.041Z</time></trkpt><trkpt lat="43.862865" lon="11.531135"><ele>141.0</ele><time>2026-05-02T16:52:50.042Z</time></trkpt><trkpt lat="43.8629883" lon="11.5311533"><ele>141.4</ele><time>2026-05-02T16:52:52.039Z</time></trkpt><trkpt lat="43.86307" lon="11.5312783"><ele>141.8</ele><time>2026-05-02T16:52:54.04Z</time></trkpt><trkpt lat="43.8630983" lon="11.5314367"><ele>142.20000000000002</ele><time>2026-05-02T16:52:56.042Z</time></trkpt><trkpt lat="43.8631183" lon="11.5315783"><ele>142.6</ele><time>2026-05-02T16:52:58.04Z</time></trkpt><trkpt lat="43.863135" lon="11.5316867"><ele>143.0</ele><time>2026-05-02T16:53:00.04Z</time></trkpt><trkpt lat="43.8631517" lon="11.5317817"><ele>143.0</ele><time>2026-05-02T16:53:03.039Z</time></trkpt><trkpt lat="43.8631633" lon="11.5319017"><ele>143.0</ele><time>2026-05-02T16:53:06.04Z</time></trkpt><trkpt lat="43.8631817" lon="11.5320117"><ele>143.0</ele><time>2026-05-02T16:53:08.041Z</time></trkpt><trkpt lat="43.8631867" lon="11.5321483"><ele>143.0</ele><time>2026-05-02T16:53:10.039Z</time></trkpt><trkpt lat="43.8632117" lon="11.5323017"><ele>143.0</ele><time>2026-05-02T16:53:12.04Z</time></trkpt><trkpt lat="43.8632233" lon="11.5323883"><ele>143.0</ele><time>2026-05-02T16:53:13.039Z</time></trkpt><trkpt lat="43.86324" lon="11.5324867"><ele>143.20000000000002</ele><time>2026-05-02T16:53:14.043Z</time></trkpt><trkpt lat="43.8632617" lon="11.5326"><ele>143.4</ele><time>2026-05-02T16:53:15.041Z</time></trkpt><trkpt lat="43.86328" lon="11.5327333"><ele>143.60000000000002</ele><time>2026-05-02T16:53:16.041Z</time></trkpt><trkpt lat="43.863305" lon="11.5328717"><ele>143.8</ele><time>2026-05-02T16:53:17.042Z</time></trkpt><trkpt lat="43.86333" lon="11.5330183"><ele>144.0</ele><time>2026-05-02T16:53:18.04Z</time></trkpt><trkpt lat="43.86335" lon="11.5331717"><ele>144.0</ele><time>2026-05-02T16:53:19.042Z</time></trkpt><trkpt lat="43.8633683" lon="11.53333"><ele>144.0</ele><time>2026-05-02T16:53:20.044Z</time></trkpt><trkpt lat="43.86339" lon="11.5334933"><ele>144.0</ele><time>2026-05-02T16:53:21.041Z</time></trkpt><trkpt lat="43.8634133" lon="11.5336667"><ele>144.0</ele><time>2026-05-02T16:53:22.04Z</time></trkpt><trkpt lat="43.8634367" lon="11.533845"><ele>148.75</ele><time>2026-05-02T16:53:23.042Z</time></trkpt><trkpt lat="43.8634567" lon="11.5340267"><ele>153.5</ele><time>2026-05-02T16:53:24.041Z</time></trkpt><trkpt lat="43.863475" lon="11.5342117"><ele>158.25</ele><time>2026-05-02T16:53:25.04Z</time></trkpt><trkpt lat="43.8634867" lon="11.5344033"><ele>163.0</ele><time>2026-05-02T16:53:26.04Z</time></trkpt><trkpt lat="43.8634867" lon="11.5346"><ele>163.0</ele><time>2026-05-02T16:53:27.039Z</time></trkpt><trkpt lat="43.8634683" lon="11.5347967"><ele>163.0</ele><time>2026-05-02T16:53:28.039Z</time></trkpt><trkpt lat="43.8634467" lon="11.5349933"><ele>163.0</ele><time>2026-05-02T16:53:29.039Z</time></trkpt><trkpt lat="43.8634267" lon="11.535185"><ele>163.0</ele><time>2026-05-02T16:53:30.039Z</time></trkpt><trkpt lat="43.8634133" lon="11.5353783"><ele>159.5</ele><time>2026-05-02T16:53:31.041Z</time></trkpt><trkpt lat="43.8634083" lon="11.5355733"><ele>156.0</ele><time>2026-05-02T16:53:32.04Z</time></trkpt><trkpt lat="43.8634067" lon="11.5357733"><ele>152.5</ele><time>2026-05-02T16:53:33.039Z</time></trkpt><trkpt lat="43.8634183" lon="11.5359767"><ele>149.0</ele><time>2026-05-02T16:53:34.039Z</time></trkpt><trkpt lat="43.8634383" lon="11.5361817"><ele>154.66666666666666</ele><time>2026-05-02T16:53:35.039Z</time></trkpt><trkpt lat="43.8634683" lon="11.5363867"><ele>160.33333333333334</ele><time>2026-05-02T16:53:36.042Z</time></trkpt><trkpt lat="43.8635067" lon="11.5365883"><ele>166.0</ele><time>2026-05-02T16:53:37.043Z</time></trkpt><trkpt lat="43.8635433" lon="11.53679"><ele>166.0</ele><time>2026-05-02T16:53:38.041Z</time></trkpt><trkpt lat="43.8635767" lon="11.5369917"><ele>166.0</ele><time>2026-05-02T16:53:39.04Z</time></trkpt><trkpt lat="43.8636117" lon="11.5371967"><ele>166.0</ele><time>2026-05-02T16:53:40.039Z</time></trkpt><trkpt lat="43.8636383" lon="11.5374"><ele>166.0</ele><time>2026-05-02T16:53:41.039Z</time></trkpt><trkpt lat="43.8636333" lon="11.537605"><ele>166.0</ele><time>2026-05-02T16:53:42.041Z</time></trkpt><trkpt lat="43.86361" lon="11.5378167"><ele>166.0</ele><time>2026-05-02T16:53:43.042Z</time></trkpt><trkpt lat="43.8635767" lon="11.538025"><ele>166.5</ele><time>2026-05-02T16:53:44.041Z</time></trkpt><trkpt lat="43.863545" lon="11.5382333"><ele>167.0</ele><time>2026-05-02T16:53:45.04Z</time></trkpt><trkpt lat="43.86352" lon="11.538435"><ele>167.5</ele><time>2026-05-02T16:53:46.039Z</time></trkpt><trkpt lat="43.8635" lon="11.5386283"><ele>168.0</ele><time>2026-05-02T16:53:47.041Z</time></trkpt><trkpt lat="43.863485" lon="11.5388133"><ele>168.5</ele><time>2026-05-02T16:53:48.041Z</time></trkpt><trkpt lat="43.8634933" lon="11.5389733"><ele>169.0</ele><time>2026-05-02T16:53:49.04Z</time></trkpt><trkpt lat="43.86352" lon="11.539135"><ele>169.5</ele><time>2026-05-02T16:53:50.04Z</time></trkpt><trkpt lat="43.8635617" lon="11.5392933"><ele>170.0</ele><time>2026-05-02T16:53:51.038Z</time></trkpt><trkpt lat="43.8636083" lon="11.539455"><ele>169.5</ele><time>2026-05-02T16:53:52.039Z</time></trkpt><trkpt lat="43.8636667" lon="11.5396117"><ele>169.0</ele><time>2026-05-02T16:53:53.041Z</time></trkpt><trkpt lat="43.8637233" lon="11.5397667"><ele>168.5</ele><time>2026-05-02T16:53:54.039Z</time></trkpt><trkpt lat="43.863775" lon="11.539925"><ele>168.0</ele><time>2026-05-02T16:53:55.04Z</time></trkpt><trkpt lat="43.8638133" lon="11.5400967"><ele>168.0</ele><time>2026-05-02T16:53:56.042Z</time></trkpt><trkpt lat="43.8638367" lon="11.54028"><ele>168.0</ele><time>2026-05-02T16:53:57.038Z</time></trkpt><trkpt lat="43.8638433" lon="11.540465"><ele>168.0</ele><time>2026-05-02T16:53:58.039Z</time></trkpt><trkpt lat="43.86384" lon="11.54065"><ele>168.0</ele><time>2026-05-02T16:53:59.038Z</time></trkpt><trkpt lat="43.8638383" lon="11.5408367"><ele>168.75</ele><time>2026-05-02T16:54:00.04Z</time></trkpt><trkpt lat="43.8638367" lon="11.541025"><ele>169.5</ele><time>2026-05-02T16:54:01.039Z</time></trkpt><trkpt lat="43.8638333" lon="11.541215"><ele>170.25</ele><time>2026-05-02T16:54:02.04Z</time></trkpt><trkpt lat="43.8638283" lon="11.5414"><ele>171.0</ele><time>2026-05-02T16:54:03.039Z</time></trkpt><trkpt lat="43.8638217" lon="11.5415817"><ele>171.5</ele><time>2026-05-02T16:54:04.039Z</time></trkpt><trkpt lat="43.8638183" lon="11.5417533"><ele>172.0</ele><time>2026-05-02T16:54:05.038Z</time></trkpt><trkpt lat="43.8638183" lon="11.5419117"><ele>172.5</ele><time>2026-05-02T16:54:06.038Z</time></trkpt><trkpt lat="43.8638283" lon="11.5420633"><ele>173.0</ele><time>2026-05-02T16:54:07.04Z</time></trkpt><trkpt lat="43.8638667" lon="11.54221"><ele>171.5</ele><time>2026-05-02T16:54:08.04Z</time></trkpt><trkpt lat="43.8639283" lon="11.5423433"><ele>170.0</ele><time>2026-05-02T16:54:09.038Z</time></trkpt><trkpt lat="43.86401" lon="11.5424617"><ele>168.5</ele><time>2026-05-02T16:54:10.039Z</time></trkpt><trkpt lat="43.8641017" lon="11.5425667"><ele>167.0</ele><time>2026-05-02T16:54:11.039Z</time></trkpt><trkpt lat="43.8642067" lon="11.542665"><ele>172.0</ele><time>2026-05-02T16:54:12.039Z</time></trkpt><trkpt lat="43.8643017" lon="11.5427783"><ele>177.0</ele><time>2026-05-02T16:54:13.039Z</time></trkpt><trkpt lat="43.8643767" lon="11.5429183"><ele>182.0</ele><time>2026-05-02T16:54:14.04Z</time></trkpt><trkpt lat="43.8644267" lon="11.54308"><ele>187.0</ele><time>2026-05-02T16:54:15.039Z</time></trkpt><trkpt lat="43.8644583" lon="11.5432533"><ele>187.0</ele><time>2026-05-02T16:54:16.04Z</time></trkpt><trkpt lat="43.8644833" lon="11.5434383"><ele>187.0</ele><time>2026-05-02T16:54:17.042Z</time></trkpt><trkpt lat="43.86451" lon="11.5436317"><ele>187.0</ele><time>2026-05-02T16:54:18.041Z</time></trkpt><trkpt lat="43.8645383" lon="11.5438317"><ele>187.0</ele><time>2026-05-02T16:54:19.04Z</time></trkpt><trkpt lat="43.8645717" lon="11.544035"><ele>185.33333333333334</ele><time>2026-05-02T16:54:20.041Z</time></trkpt><trkpt lat="43.8646017" lon="11.5442433"><ele>183.66666666666666</ele><time>2026-05-02T16:54:21.04Z</time></trkpt><trkpt lat="43.864635" lon="11.544455"><ele>182.0</ele><time>2026-05-02T16:54:22.039Z</time></trkpt><trkpt lat="43.86467" lon="11.5446667"><ele>181.0</ele><time>2026-05-02T16:54:23.04Z</time></trkpt><trkpt lat="43.8647033" lon="11.54488"><ele>180.0</ele><time>2026-05-02T16:54:24.038Z</time></trkpt><trkpt lat="43.8647333" lon="11.5450917"><ele>179.0</ele><time>2026-05-02T16:54:25.041Z</time></trkpt><trkpt lat="43.86475" lon="11.5452983"><ele>178.5</ele><time>2026-05-02T16:54:26.04Z</time></trkpt><trkpt lat="43.86477" lon="11.5455"><ele>178.0</ele><time>2026-05-02T16:54:27.039Z</time></trkpt><trkpt lat="43.8647867" lon="11.5457033"><ele>177.5</ele><time>2026-05-02T16:54:28.042Z</time></trkpt><trkpt lat="43.8648" lon="11.5459133"><ele>177.0</ele><time>2026-05-02T16:54:29.038Z</time></trkpt><trkpt lat="43.8648133" lon="11.5461267"><ele>176.66666666666666</ele><time>2026-05-02T16:54:30.039Z</time></trkpt><trkpt lat="43.864825" lon="11.546345"><ele>176.33333333333331</ele><time>2026-05-02T16:54:31.04Z</time></trkpt><trkpt lat="43.864845" lon="11.5465617"><ele>176.0</ele><time>2026-05-02T16:54:32.04Z</time></trkpt><trkpt lat="43.8648717" lon="11.5467767"><ele>176.0</ele><time>2026-05-02T16:54:33.039Z</time></trkpt><trkpt lat="43.864895" lon="11.5469933"><ele>176.0</ele><time>2026-05-02T16:54:34.039Z</time></trkpt><trkpt lat="43.864915" lon="11.54721"><ele>176.0</ele><time>2026-05-02T16:54:35.038Z</time></trkpt><trkpt lat="43.86493" lon="11.5474283"><ele>176.0</ele><time>2026-05-02T16:54:36.039Z</time></trkpt><trkpt lat="43.8649517" lon="11.5476383"><ele>176.0</ele><time>2026-05-02T16:54:37.039Z</time></trkpt><trkpt lat="43.8649733" lon="11.547845"><ele>176.0</ele><time>2026-05-02T16:54:38.04Z</time></trkpt><trkpt lat="43.8649917" lon="11.5480533"><ele>175.0</ele><time>2026-05-02T16:54:39.041Z</time></trkpt><trkpt lat="43.865015" lon="11.5482617"><ele>174.0</ele><time>2026-05-02T16:54:40.04Z</time></trkpt><trkpt lat="43.8650517" lon="11.548465"><ele>173.0</ele><time>2026-05-02T16:54:41.04Z</time></trkpt><trkpt lat="43.8651117" lon="11.54866"><ele>180.66666666666666</ele><time>2026-05-02T16:54:42.04Z</time></trkpt><trkpt lat="43.8651833" lon="11.54885"><ele>188.33333333333331</ele><time>2026-05-02T16:54:43.039Z</time></trkpt><trkpt lat="43.8652617" lon="11.5490383"><ele>196.0</ele><time>2026-05-02T16:54:44.041Z</time></trkpt><trkpt lat="43.8653483" lon="11.5492217"><ele>196.0</ele><time>2026-05-02T16:54:45.04Z</time></trkpt><trkpt lat="43.8654383" lon="11.5494083"><ele>196.0</ele><time>2026-05-02T16:54:46.038Z</time></trkpt><trkpt lat="43.8655333" lon="11.5495867"><ele>196.0</ele><time>2026-05-02T16:54:47.039Z</time></trkpt><trkpt lat="43.86563" lon="11.5497633"><ele>191.33333333333331</ele><time>2026-05-02T16:54:48.039Z</time></trkpt><trkpt lat="43.8657267" lon="11.5499433"><ele>186.66666666666666</ele><time>2026-05-02T16:54:49.039Z</time></trkpt><trkpt lat="43.8658267" lon="11.5501167"><ele>182.0</ele><time>2026-05-02T16:54:50.04Z</time></trkpt><trkpt lat="43.865925" lon="11.55029"><ele>192.0</ele><time>2026-05-02T16:54:51.039Z</time></trkpt><trkpt lat="43.8659967" lon="11.5504817"><ele>202.0</ele><time>2026-05-02T16:54:52.039Z</time></trkpt><trkpt lat="43.866035" lon="11.550685"><ele>212.0</ele><time>2026-05-02T16:54:53.039Z</time></trkpt><trkpt lat="43.86605" lon="11.5508917"><ele>212.0</ele><time>2026-05-02T16:54:54.039Z</time></trkpt><trkpt lat="43.8660433" lon="11.5510967"><ele>212.0</ele><time>2026-05-02T16:54:55.039Z</time></trkpt><trkpt lat="43.8660283" lon="11.5513033"><ele>212.0</ele><time>2026-05-02T16:54:56.041Z</time></trkpt><trkpt lat="43.866015" lon="11.5515067"><ele>212.0</ele><time>2026-05-02T16:54:57.041Z</time></trkpt><trkpt lat="43.866" lon="11.551705"><ele>213.75</ele><time>2026-05-02T16:54:58.039Z</time></trkpt><trkpt lat="43.8659833" lon="11.5518933"><ele>215.5</ele><time>2026-05-02T16:54:59.031Z</time></trkpt><trkpt lat="43.865965" lon="11.5520717"><ele>217.25</ele><time>2026-05-02T16:55:00.04Z</time></trkpt><trkpt lat="43.8659467" lon="11.5522467"><ele>219.0</ele><time>2026-05-02T16:55:01.04Z</time></trkpt><trkpt lat="43.8659233" lon="11.55242"><ele>210.5</ele><time>2026-05-02T16:55:02.04Z</time></trkpt><trkpt lat="43.865895" lon="11.5525867"><ele>202.0</ele><time>2026-05-02T16:55:03.039Z</time></trkpt><trkpt lat="43.865855" lon="11.5527483"><ele>193.5</ele><time>2026-05-02T16:55:04.039Z</time></trkpt><trkpt lat="43.8658117" lon="11.5529067"><ele>185.0</ele><time>2026-05-02T16:55:05.039Z</time></trkpt><trkpt lat="43.8657567" lon="11.553065"><ele>185.0</ele><time>2026-05-02T16:55:06.039Z</time></trkpt><trkpt lat="43.8657067" lon="11.5532217"><ele>185.0</ele><time>2026-05-02T16:55:07.039Z</time></trkpt><trkpt lat="43.8656617" lon="11.5533767"><ele>185.0</ele><time>2026-05-02T16:55:08.04Z</time></trkpt><trkpt lat="43.865615" lon="11.5535317"><ele>185.0</ele><time>2026-05-02T16:55:09.039Z</time></trkpt><trkpt lat="43.8655633" lon="11.5536833"><ele>186.0</ele><time>2026-05-02T16:55:10.04Z</time></trkpt><trkpt lat="43.8655133" lon="11.5538283"><ele>187.0</ele><time>2026-05-02T16:55:11.04Z</time></trkpt><trkpt lat="43.8654683" lon="11.5539717"><ele>188.0</ele><time>2026-05-02T16:55:12.04Z</time></trkpt><trkpt lat="43.8654183" lon="11.5541117"><ele>189.0</ele><time>2026-05-02T16:55:13.039Z</time></trkpt><trkpt lat="43.8654133" lon="11.55426"><ele>190.0</ele><time>2026-05-02T16:55:14.042Z</time></trkpt><trkpt lat="43.86543" lon="11.554405"><ele>191.0</ele><time>2026-05-02T16:55:15.039Z</time></trkpt><trkpt lat="43.8654683" lon="11.55454"><ele>192.0</ele><time>2026-05-02T16:55:16.039Z</time></trkpt><trkpt lat="43.8655233" lon="11.5546683"><ele>193.0</ele><time>2026-05-02T16:55:17.039Z</time></trkpt><trkpt lat="43.8655967" lon="11.55479"><ele>194.0</ele><time>2026-05-02T16:55:18.039Z</time></trkpt><trkpt lat="43.865675" lon="11.5549117"><ele>195.0</ele><time>2026-05-02T16:55:19.04Z</time></trkpt><trkpt lat="43.86575" lon="11.55504"><ele>195.0</ele><time>2026-05-02T16:55:20.04Z</time></trkpt><trkpt lat="43.8658233" lon="11.5551767"><ele>195.0</ele><time>2026-05-02T16:55:21.04Z</time></trkpt><trkpt lat="43.8658817" lon="11.5553267"><ele>195.0</ele><time>2026-05-02T16:55:22.04Z</time></trkpt><trkpt lat="43.8659217" lon="11.55549"><ele>195.0</ele><time>2026-05-02T16:55:23.04Z</time></trkpt><trkpt lat="43.865945" lon="11.55566"><ele>194.5</ele><time>2026-05-02T16:55:24.039Z</time></trkpt><trkpt lat="43.8659533" lon="11.55584"><ele>194.0</ele><time>2026-05-02T16:55:25.039Z</time></trkpt><trkpt lat="43.8659467" lon="11.5560233"><ele>193.5</ele><time>2026-05-02T16:55:26.04Z</time></trkpt><trkpt lat="43.8659317" lon="11.5562083"><ele>193.0</ele><time>2026-05-02T16:55:27.039Z</time></trkpt><trkpt lat="43.8659133" lon="11.55639"><ele>193.0</ele><time>2026-05-02T16:55:28.039Z</time></trkpt><trkpt lat="43.865895" lon="11.5565733"><ele>193.0</ele><time>2026-05-02T16:55:29.04Z</time></trkpt><trkpt lat="43.865885" lon="11.5567567"><ele>193.0</ele><time>2026-05-02T16:55:30.039Z</time></trkpt><trkpt lat="43.86588" lon="11.55694"><ele>193.0</ele><time>2026-05-02T16:55:31.039Z</time></trkpt><trkpt lat="43.86587" lon="11.5571233"><ele>195.25</ele><time>2026-05-02T16:55:32.041Z</time></trkpt><trkpt lat="43.86586" lon="11.5573117"><ele>197.5</ele><time>2026-05-02T16:55:33.039Z</time></trkpt><trkpt lat="43.865845" lon="11.557495"><ele>199.75</ele><time>2026-05-02T16:55:34.039Z</time></trkpt><trkpt lat="43.8658317" lon="11.5576867"><ele>202.0</ele><time>2026-05-02T16:55:35.04Z</time></trkpt><trkpt lat="43.8658117" lon="11.5578733"><ele>203.25</ele><time>2026-05-02T16:55:36.039Z</time></trkpt><trkpt lat="43.865805" lon="11.558065"><ele>204.5</ele><time>2026-05-02T16:55:37.039Z</time></trkpt><trkpt lat="43.8657917" lon="11.55825"><ele>205.75</ele><time>2026-05-02T16:55:38.04Z</time></trkpt><trkpt lat="43.865765" lon="11.5584317"><ele>207.0</ele><time>2026-05-02T16:55:39.04Z</time></trkpt><trkpt lat="43.86574" lon="11.5586"><ele>206.75</ele><time>2026-05-02T16:55:40.039Z</time></trkpt><trkpt lat="43.8657083" lon="11.558765"><ele>206.5</ele><time>2026-05-02T16:55:41.039Z</time></trkpt><trkpt lat="43.8656783" lon="11.5589217"><ele>206.25</ele><time>2026-05-02T16:55:42.039Z</time></trkpt><trkpt lat="43.8656583" lon="11.55907"><ele>206.0</ele><time>2026-05-02T16:55:43.04Z</time></trkpt><trkpt lat="43.86564" lon="11.5592133"><ele>206.0</ele><time>2026-05-02T16:55:44.041Z</time></trkpt><trkpt lat="43.8656267" lon="11.5593383"><ele>206.0</ele><time>2026-05-02T16:55:45.039Z</time></trkpt><trkpt lat="43.865615" lon="11.5594617"><ele>206.0</ele><time>2026-05-02T16:55:46.04Z</time></trkpt><trkpt lat="43.865585" lon="11.55959"><ele>206.0</ele><time>2026-05-02T16:55:47.039Z</time></trkpt><trkpt lat="43.8655633" lon="11.5597233"><ele>206.0</ele><time>2026-05-02T16:55:48.039Z</time></trkpt><trkpt lat="43.8655267" lon="11.5598467"><ele>206.8</ele><time>2026-05-02T16:55:49.039Z</time></trkpt><trkpt lat="43.86548" lon="11.5599767"><ele>207.60000000000002</ele><time>2026-05-02T16:55:50.04Z</time></trkpt><trkpt lat="43.865425" lon="11.5601"><ele>208.4</ele><time>2026-05-02T16:55:51.04Z</time></trkpt><trkpt lat="43.865365" lon="11.5602283"><ele>209.2</ele><time>2026-05-02T16:55:52.039Z</time></trkpt><trkpt lat="43.8653033" lon="11.56036"><ele>210.0</ele><time>2026-05-02T16:55:53.041Z</time></trkpt><trkpt lat="43.86524" lon="11.5604933"><ele>207.25</ele><time>2026-05-02T16:55:54.039Z</time></trkpt><trkpt lat="43.8651717" lon="11.5606317"><ele>204.5</ele><time>2026-05-02T16:55:55.039Z</time></trkpt><trkpt lat="43.8651017" lon="11.5607717"><ele>201.75</ele><time>2026-05-02T16:55:56.04Z</time></trkpt><trkpt lat="43.8650283" lon="11.5609133"><ele>199.0</ele><time>2026-05-02T16:55:57.04Z</time></trkpt><trkpt lat="43.8649583" lon="11.5610583"><ele>201.0</ele><time>2026-05-02T16:55:58.039Z</time></trkpt><trkpt lat="43.864885" lon="11.5612033"><ele>203.0</ele><time>2026-05-02T16:55:59.04Z</time></trkpt><trkpt lat="43.86481" lon="11.5613533"><ele>205.0</ele><time>2026-05-02T16:56:00.04Z</time></trkpt><trkpt lat="43.8647383" lon="11.5615067"><ele>207.0</ele><time>2026-05-02T16:56:01.04Z</time></trkpt><trkpt lat="43.864665" lon="11.561655"><ele>207.0</ele><time>2026-05-02T16:56:02.041Z</time></trkpt><trkpt lat="43.86459" lon="11.5618"><ele>207.0</ele><time>2026-05-02T16:56:03.039Z</time></trkpt><trkpt lat="43.8645217" lon="11.561945"><ele>207.0</ele><time>2026-05-02T16:56:04.039Z</time></trkpt><trkpt lat="43.8644567" lon="11.5620867"><ele>207.0</ele><time>2026-05-02T16:56:05.041Z</time></trkpt><trkpt lat="43.8643833" lon="11.562225"><ele>206.0</ele><time>2026-05-02T16:56:06.043Z</time></trkpt><trkpt lat="43.86431" lon="11.56236"><ele>205.0</ele><time>2026-05-02T16:56:07.039Z</time></trkpt><trkpt lat="43.86424" lon="11.5624983"><ele>204.0</ele><time>2026-05-02T16:56:08.041Z</time></trkpt><trkpt lat="43.86417" lon="11.5626333"><ele>203.0</ele><time>2026-05-02T16:56:09.039Z</time></trkpt><trkpt lat="43.86409" lon="11.5627583"><ele>205.5</ele><time>2026-05-02T16:56:10.04Z</time></trkpt><trkpt lat="43.8640117" lon="11.5628867"><ele>208.0</ele><time>2026-05-02T16:56:11.04Z</time></trkpt><trkpt lat="43.8639383" lon="11.5630183"><ele>210.5</ele><time>2026-05-02T16:56:12.038Z</time></trkpt><trkpt lat="43.8638633" lon="11.5631483"><ele>213.0</ele><time>2026-05-02T16:56:13.041Z</time></trkpt><trkpt lat="43.86378" lon="11.5632817"><ele>213.0</ele><time>2026-05-02T16:56:14.04Z</time></trkpt><trkpt lat="43.8636933" lon="11.5634117"><ele>213.0</ele><time>2026-05-02T16:56:15.04Z</time></trkpt><trkpt lat="43.86361" lon="11.56353"><ele>213.0</ele><time>2026-05-02T16:56:16.039Z</time></trkpt><trkpt lat="43.863525" lon="11.5636517"><ele>213.0</ele><time>2026-05-02T16:56:17.04Z</time></trkpt><trkpt lat="43.86344" lon="11.5637633"><ele>212.5</ele><time>2026-05-02T16:56:18.041Z</time></trkpt><trkpt lat="43.863355" lon="11.5638733"><ele>212.0</ele><time>2026-05-02T16:56:19.041Z</time></trkpt><trkpt lat="43.863265" lon="11.5639817"><ele>211.5</ele><time>2026-05-02T16:56:20.04Z</time></trkpt><trkpt lat="43.8631817" lon="11.5640933"><ele>211.0</ele><time>2026-05-02T16:56:21.041Z</time></trkpt><trkpt lat="43.8630933" lon="11.564195"><ele>210.99999999999997</ele><time>2026-05-02T16:56:22.04Z</time></trkpt><trkpt lat="43.8630133" lon="11.5642833"><ele>211.0</ele><time>2026-05-02T16:56:23.04Z</time></trkpt><trkpt lat="43.862945" lon="11.5643617"><ele>211.0</ele><time>2026-05-02T16:56:24.039Z</time></trkpt><trkpt lat="43.862885" lon="11.56443"><ele>211.0</ele><time>2026-05-02T16:56:25.039Z</time></trkpt><trkpt lat="43.8628317" lon="11.5644867"><ele>210.99999999999997</ele><time>2026-05-02T16:56:26.042Z</time></trkpt><trkpt lat="43.8627717" lon="11.5645317"><ele>211.0</ele><time>2026-05-02T16:56:27.039Z</time></trkpt><trkpt lat="43.862715" lon="11.5646083"><ele>211.4</ele><time>2026-05-02T16:56:28.039Z</time></trkpt><trkpt lat="43.8626483" lon="11.56468"><ele>211.8</ele><time>2026-05-02T16:56:29.041Z</time></trkpt><trkpt lat="43.86257" lon="11.5647467"><ele>212.20000000000002</ele><time>2026-05-02T16:56:30.04Z</time></trkpt><trkpt lat="43.862485" lon="11.5648167"><ele>212.60000000000002</ele><time>2026-05-02T16:56:31.041Z</time></trkpt><trkpt lat="43.8624" lon="11.5648983"><ele>213.0</ele><time>2026-05-02T16:56:32.04Z</time></trkpt><trkpt lat="43.8623133" lon="11.56498"><ele>213.0</ele><time>2026-05-02T16:56:33.039Z</time></trkpt><trkpt lat="43.86223" lon="11.565065"><ele>213.0</ele><time>2026-05-02T16:56:34.039Z</time></trkpt><trkpt lat="43.8621467" lon="11.5651417"><ele>213.0</ele><time>2026-05-02T16:56:35.04Z</time></trkpt><trkpt lat="43.86207" lon="11.56522"><ele>213.0</ele><time>2026-05-02T16:56:36.038Z</time></trkpt><trkpt lat="43.862005" lon="11.5652883"><ele>213.0</ele><time>2026-05-02T16:56:37.04Z</time></trkpt><trkpt lat="43.8619417" lon="11.56536"><ele>214.0</ele><time>2026-05-02T16:56:38.041Z</time></trkpt><trkpt lat="43.8618767" lon="11.5654217"><ele>215.0</ele><time>2026-05-02T16:56:39.038Z</time></trkpt><trkpt lat="43.8618" lon="11.5654717"><ele>216.0</ele><time>2026-05-02T16:56:40.038Z</time></trkpt><trkpt lat="43.8617167" lon="11.5655233"><ele>217.0</ele><time>2026-05-02T16:56:41.039Z</time></trkpt><trkpt lat="43.861635" lon="11.5655783"><ele>218.0</ele><time>2026-05-02T16:56:42.039Z</time></trkpt><trkpt lat="43.8615483" lon="11.5656583"><ele>218.0</ele><time>2026-05-02T16:56:43.041Z</time></trkpt><trkpt lat="43.8614583" lon="11.5657433"><ele>218.0</ele><time>2026-05-02T16:56:44.04Z</time></trkpt><trkpt lat="43.8613783" lon="11.5658383"><ele>218.0</ele><time>2026-05-02T16:56:45.038Z</time></trkpt><trkpt lat="43.861305" lon="11.5659483"><ele>218.0</ele><time>2026-05-02T16:56:46.039Z</time></trkpt><trkpt lat="43.8612433" lon="11.566075"><ele>218.0</ele><time>2026-05-02T16:56:47.039Z</time></trkpt><trkpt lat="43.8611867" lon="11.5662067"><ele>217.83333333333334</ele><time>2026-05-02T16:56:48.039Z</time></trkpt><trkpt lat="43.86114" lon="11.5663317"><ele>217.66666666666669</ele><time>2026-05-02T16:56:49.038Z</time></trkpt><trkpt lat="43.8611033" lon="11.5664517"><ele>217.5</ele><time>2026-05-02T16:56:50.04Z</time></trkpt><trkpt lat="43.8610683" lon="11.5665633"><ele>217.33333333333331</ele><time>2026-05-02T16:56:51.039Z</time></trkpt><trkpt lat="43.8610383" lon="11.566665"><ele>217.16666666666666</ele><time>2026-05-02T16:56:52.038Z</time></trkpt><trkpt lat="43.8610083" lon="11.5667533"><ele>217.0</ele><time>2026-05-02T16:56:53.039Z</time></trkpt><trkpt lat="43.8609433" lon="11.5668833"><ele>217.0</ele><time>2026-05-02T16:56:55.039Z</time></trkpt><trkpt lat="43.8608317" lon="11.5669017"><ele>217.0</ele><time>2026-05-02T16:56:57.038Z</time></trkpt><trkpt lat="43.8607033" lon="11.5669183"><ele>217.0</ele><time>2026-05-02T16:56:59.039Z</time></trkpt><trkpt lat="43.860635" lon="11.5670733"><ele>217.0</ele><time>2026-05-02T16:57:01.039Z</time></trkpt><trkpt lat="43.8606133" lon="11.56719"><ele>217.66666666666666</ele><time>2026-05-02T16:57:02.041Z</time></trkpt><trkpt lat="43.86059" lon="11.567305"><ele>218.33333333333331</ele><time>2026-05-02T16:57:03.038Z</time></trkpt><trkpt lat="43.8605833" lon="11.5674233"><ele>219.0</ele><time>2026-05-02T16:57:04.038Z</time></trkpt><trkpt lat="43.8605917" lon="11.5675417"><ele>219.66666666666669</ele><time>2026-05-02T16:57:05.039Z</time></trkpt><trkpt lat="43.860605" lon="11.5676667"><ele>220.33333333333334</ele><time>2026-05-02T16:57:06.04Z</time></trkpt><trkpt lat="43.8606217" lon="11.5677733"><ele>221.0</ele><time>2026-05-02T16:57:07.038Z</time></trkpt><trkpt lat="43.8606333" lon="11.5678733"><ele>221.00000000000003</ele><time>2026-05-02T16:57:08.04Z</time></trkpt><trkpt lat="43.860625" lon="11.5679633"><ele>221.0</ele><time>2026-05-02T16:57:09.039Z</time></trkpt><trkpt lat="43.8605467" lon="11.5680717"><ele>221.0</ele><time>2026-05-02T16:57:11.039Z</time></trkpt><trkpt lat="43.86044" lon="11.5680567"><ele>221.0</ele><time>2026-05-02T16:57:13.039Z</time></trkpt><trkpt lat="43.860395" lon="11.5679767"><ele>221.00000000000003</ele><time>2026-05-02T16:57:14.04Z</time></trkpt><trkpt lat="43.8603583" lon="11.5678783"><ele>221.0</ele><time>2026-05-02T16:57:15.039Z</time></trkpt><trkpt lat="43.8603317" lon="11.567775"><ele>221.00000000000003</ele><time>2026-05-02T16:57:16.039Z</time></trkpt><trkpt lat="43.8603033" lon="11.5676617"><ele>221.0</ele><time>2026-05-02T16:57:17.041Z</time></trkpt><trkpt lat="43.8602783" lon="11.5675483"><ele>221.0</ele><time>2026-05-02T16:57:18.041Z</time></trkpt><trkpt lat="43.8602433" lon="11.5674483"><ele>221.0</ele><time>2026-05-02T16:57:19.039Z</time></trkpt><trkpt lat="43.8602017" lon="11.56736"><ele>221.00000000000003</ele><time>2026-05-02T16:57:20.046Z</time></trkpt><trkpt lat="43.86016" lon="11.5672833"><ele>221.0</ele><time>2026-05-02T16:57:21.04Z</time></trkpt><trkpt lat="43.8601017" lon="11.5672233"><ele>222.83333333333334</ele><time>2026-05-02T16:57:22.039Z</time></trkpt><trkpt lat="43.8600317" lon="11.56719"><ele>224.66666666666669</ele><time>2026-05-02T16:57:23.039Z</time></trkpt><trkpt lat="43.859965" lon="11.5671733"><ele>226.5</ele><time>2026-05-02T16:57:24.037Z</time></trkpt><trkpt lat="43.8598967" lon="11.56719"><ele>228.33333333333331</ele><time>2026-05-02T16:57:25.039Z</time></trkpt><trkpt lat="43.8598267" lon="11.5672333"><ele>230.16666666666666</ele><time>2026-05-02T16:57:26.04Z</time></trkpt><trkpt lat="43.8597517" lon="11.567325"><ele>232.0</ele><time>2026-05-02T16:57:27.041Z</time></trkpt><trkpt lat="43.8596767" lon="11.567395"><ele>232.0</ele><time>2026-05-02T16:57:28.041Z</time></trkpt><trkpt lat="43.8595917" lon="11.5674467"><ele>232.0</ele><time>2026-05-02T16:57:29.041Z</time></trkpt><trkpt lat="43.859495" lon="11.5674783"><ele>232.0</ele><time>2026-05-02T16:57:30.04Z</time></trkpt><trkpt lat="43.8593967" lon="11.5674833"><ele>232.0</ele><time>2026-05-02T16:57:31.041Z</time></trkpt><trkpt lat="43.859295" lon="11.567485"><ele>232.0</ele><time>2026-05-02T16:57:32.04Z</time></trkpt><trkpt lat="43.8591933" lon="11.5674817"><ele>233.49999999999997</ele><time>2026-05-02T16:57:33.04Z</time></trkpt><trkpt lat="43.8590933" lon="11.56748"><ele>235.0</ele><time>2026-05-02T16:57:34.038Z</time></trkpt><trkpt lat="43.8590017" lon="11.5674733"><ele>236.5</ele><time>2026-05-02T16:57:35.039Z</time></trkpt><trkpt lat="43.8589217" lon="11.567475"><ele>238.0</ele><time>2026-05-02T16:57:36.039Z</time></trkpt><trkpt lat="43.8588533" lon="11.5674983"><ele>239.49999999999997</ele><time>2026-05-02T16:57:37.04Z</time></trkpt><trkpt lat="43.8587917" lon="11.56754"><ele>241.0</ele><time>2026-05-02T16:57:38.04Z</time></trkpt><trkpt lat="43.8587483" lon="11.5676983"><ele>240.99999999999997</ele><time>2026-05-02T16:57:40.039Z</time></trkpt><trkpt lat="43.8587767" lon="11.5677883"><ele>241.0</ele><time>2026-05-02T16:57:41.039Z</time></trkpt><trkpt lat="43.8588783" lon="11.5678767"><ele>241.0</ele><time>2026-05-02T16:57:43.039Z</time></trkpt><trkpt lat="43.8589583" lon="11.5678783"><ele>241.0</ele><time>2026-05-02T16:57:44.04Z</time></trkpt><trkpt lat="43.859045" lon="11.5678817"><ele>240.99999999999997</ele><time>2026-05-02T16:57:45.039Z</time></trkpt><trkpt lat="43.8591317" lon="11.5678883"><ele>241.0</ele><time>2026-05-02T16:57:46.039Z</time></trkpt><trkpt lat="43.85922" lon="11.5678933"><ele>241.99999999999997</ele><time>2026-05-02T16:57:47.039Z</time></trkpt><trkpt lat="43.8593" lon="11.5678833"><ele>243.0</ele><time>2026-05-02T16:57:48.041Z</time></trkpt><trkpt lat="43.859375" lon="11.5678683"><ele>244.0</ele><time>2026-05-02T16:57:49.041Z</time></trkpt><trkpt lat="43.859445" lon="11.5678567"><ele>245.0</ele><time>2026-05-02T16:57:50.042Z</time></trkpt><trkpt lat="43.8595333" lon="11.567905"><ele>245.99999999999997</ele><time>2026-05-02T16:57:52.04Z</time></trkpt><trkpt lat="43.859445" lon="11.5679733"><ele>247.0</ele><time>2026-05-02T16:57:55.039Z</time></trkpt><trkpt lat="43.8593267" lon="11.5680033"><ele>249.33333333333331</ele><time>2026-05-02T16:57:57.039Z</time></trkpt><trkpt lat="43.859255" lon="11.56802"><ele>251.66666666666666</ele><time>2026-05-02T16:57:58.04Z</time></trkpt><trkpt lat="43.8591733" lon="11.5680433"><ele>254.0</ele><time>2026-05-02T16:57:59.042Z</time></trkpt><trkpt lat="43.859095" lon="11.5680617"><ele>256.3333333333333</ele><time>2026-05-02T16:58:00.039Z</time></trkpt><trkpt lat="43.859005" lon="11.5681033"><ele>258.6666666666667</ele><time>2026-05-02T16:58:01.041Z</time></trkpt><trkpt lat="43.8589167" lon="11.56816"><ele>261.0</ele><time>2026-05-02T16:58:02.041Z</time></trkpt><trkpt lat="43.858825" lon="11.5682217"><ele>261.0</ele><time>2026-05-02T16:58:03.039Z</time></trkpt><trkpt lat="43.858735" lon="11.5682933"><ele>261.0</ele><time>2026-05-02T16:58:04.039Z</time></trkpt><trkpt lat="43.85865" lon="11.5683717"><ele>261.0</ele><time>2026-05-02T16:58:05.039Z</time></trkpt><trkpt lat="43.8585633" lon="11.5684467"><ele>261.0</ele><time>2026-05-02T16:58:06.04Z</time></trkpt><trkpt lat="43.8584717" lon="11.5685133"><ele>261.0</ele><time>2026-05-02T16:58:07.039Z</time></trkpt><trkpt lat="43.8583783" lon="11.5685633"><ele>261.0</ele><time>2026-05-02T16:58:08.04Z</time></trkpt><trkpt lat="43.85828" lon="11.5686067"><ele>261.0</ele><time>2026-05-02T16:58:09.039Z</time></trkpt><trkpt lat="43.8581817" lon="11.5686383"><ele>261.0</ele><time>2026-05-02T16:58:10.04Z</time></trkpt><trkpt lat="43.8580933" lon="11.568645"><ele>261.0</ele><time>2026-05-02T16:58:11.04Z</time></trkpt><trkpt lat="43.8580083" lon="11.568645"><ele>261.0</ele><time>2026-05-02T16:58:12.041Z</time></trkpt><trkpt lat="43.8579183" lon="11.56866"><ele>261.0</ele><time>2026-05-02T16:58:13.04Z</time></trkpt><trkpt lat="43.8578333" lon="11.5686567"><ele>261.0</ele><time>2026-05-02T16:58:14.04Z</time></trkpt><trkpt lat="43.8577533" lon="11.5686417"><ele>261.0</ele><time>2026-05-02T16:58:15.04Z</time></trkpt><trkpt lat="43.85768" lon="11.5685933"><ele>261.0</ele><time>2026-05-02T16:58:16.039Z</time></trkpt><trkpt lat="43.8576233" lon="11.5685417"><ele>261.0</ele><time>2026-05-02T16:58:17.041Z</time></trkpt><trkpt lat="43.8575183" lon="11.56849"><ele>261.0</ele><time>2026-05-02T16:58:19.04Z</time></trkpt><trkpt lat="43.8574833" lon="11.56859"><ele>266.1666666666667</ele><time>2026-05-02T16:58:21.039Z</time></trkpt><trkpt lat="43.8574833" lon="11.5687433"><ele>271.3333333333333</ele><time>2026-05-02T16:58:23.04Z</time></trkpt><trkpt lat="43.8574783" lon="11.5688383"><ele>276.5</ele><time>2026-05-02T16:58:24.04Z</time></trkpt><trkpt lat="43.85747" lon="11.5689417"><ele>281.66666666666663</ele><time>2026-05-02T16:58:25.039Z</time></trkpt><trkpt lat="43.8574717" lon="11.5690433"><ele>286.8333333333333</ele><time>2026-05-02T16:58:26.041Z</time></trkpt><trkpt lat="43.8574833" lon="11.569135"><ele>292.0</ele><time>2026-05-02T16:58:27.039Z</time></trkpt><trkpt lat="43.8575417" lon="11.5692767"><ele>292.0</ele><time>2026-05-02T16:58:29.039Z</time></trkpt><trkpt lat="43.8576067" lon="11.56939"><ele>292.0</ele><time>2026-05-02T16:58:31.039Z</time></trkpt><trkpt lat="43.8576433" lon="11.5694917"><ele>292.0</ele><time>2026-05-02T16:58:33.039Z</time></trkpt><trkpt lat="43.8576833" lon="11.5695667"><ele>292.0</ele><time>2026-05-02T16:58:35.039Z</time></trkpt><trkpt lat="43.85766" lon="11.56948"><ele>292.0</ele><time>2026-05-02T16:58:42.041Z</time></trkpt><trkpt lat="43.8576117" lon="11.5695683"><ele>292.0</ele><time>2026-05-02T16:58:54.041Z</time></trkpt><trkpt lat="43.8576817" lon="11.5694633"><ele>278.0</ele><time>2026-05-02T16:59:18.029Z</time></trkpt><trkpt lat="43.8577683" lon="11.5694083"><ele>278.0</ele><time>2026-05-02T16:59:21.038Z</time></trkpt><trkpt lat="43.8579417" lon="11.5694"><ele>278.0</ele><time>2026-05-02T16:59:31.029Z</time></trkpt><trkpt lat="43.8578383" lon="11.5693683"><ele>278.0</ele><time>2026-05-02T17:00:04.039Z</time></trkpt></trkseg></trk></gpx>